<?xml version='1.0' encoding='UTF-8'?><gpx version="1.1" creator="JPX - https://github.com/jenetics/jpx" xmlns="http://www.topografix.com/GPX/1/1"><trk><trkseg><trkpt lat="42.9249544" lon="10.7549965"><ele>11.0</ele><time>2026-05-03T07:08:20.003Z</time></trkpt><trkpt lat="42.9250138" lon="10.7549618"><ele>11.0</ele><time>2026-05-03T07:13:00.959Z</time></trkpt><trkpt lat="42.9249644" lon="10.7549036"><ele>11.0</ele><time>2026-05-03T07:17:39.011Z</time></trkpt><trkpt lat="42.9248921" lon="10.7548735"><ele>11.0</ele><time>2026-05-03T07:17:42.011Z</time></trkpt><trkpt lat="42.9248082" lon="10.7548322"><ele>11.0</ele><time>2026-05-03T07:17:45.012Z</time></trkpt><trkpt lat="42.9247231" lon="10.7548034"><ele>11.0</ele><time>2026-05-03T07:17:48.014Z</time></trkpt><trkpt lat="42.9246495" lon="10.7548105"><ele>11.0</ele><time>2026-05-03T07:17:50.015Z</time></trkpt><trkpt lat="42.9245859" lon="10.754832"><ele>11.0</ele><time>2026-05-03T07:17:54.018Z</time></trkpt><trkpt lat="42.9245309" lon="10.7547883"><ele>11.0</ele><time>2026-05-03T07:22:21.985Z</time></trkpt><trkpt lat="42.9244866" lon="10.7546777"><ele>11.0</ele><time>2026-05-03T07:32:47.871Z</time></trkpt><trkpt lat="42.9245565" lon="10.7547047"><ele>11.0</ele><time>2026-05-03T07:32:52.931Z</time></trkpt><trkpt lat="42.9246314" lon="10.7547415"><ele>11.0</ele><time>2026-05-03T07:32:55.932Z</time></trkpt><trkpt lat="42.9246972" lon="10.7547766"><ele>11.0</ele><time>2026-05-03T07:32:58.237Z</time></trkpt><trkpt lat="42.9242806" lon="10.7545793"><ele>11.0</ele><time>2026-05-03T07:32:59.037Z</time></trkpt><trkpt lat="42.9241196" lon="10.7545089"><ele>11.0</ele><time>2026-05-03T07:33:00.697Z</time></trkpt><trkpt lat="42.924031" lon="10.7544608"><ele>11.0</ele><time>2026-05-03T07:33:04.016Z</time></trkpt><trkpt lat="42.9239487" lon="10.7544142"><ele>11.0</ele><time>2026-05-03T07:33:06.934Z</time></trkpt><trkpt lat="42.9238848" lon="10.7543927"><ele>11.0</ele><time>2026-05-03T07:33:09.041Z</time></trkpt><trkpt lat="42.9238008" lon="10.754361"><ele>11.0</ele><time>2026-05-03T07:33:11.93Z</time></trkpt><trkpt lat="42.9237339" lon="10.7543402"><ele>11.0</ele><time>2026-05-03T07:33:14.418Z</time></trkpt><trkpt lat="42.9236737" lon="10.7543132"><ele>11.0</ele><time>2026-05-03T07:33:16.895Z</time></trkpt><trkpt lat="42.9236024" lon="10.754275"><ele>11.0</ele><time>2026-05-03T07:33:19.93Z</time></trkpt><trkpt lat="42.9235259" lon="10.7542514"><ele>11.0</ele><time>2026-05-03T07:33:23.037Z</time></trkpt><trkpt lat="42.9234569" lon="10.754215"><ele>11.0</ele><time>2026-05-03T07:33:26.395Z</time></trkpt><trkpt lat="42.9233902" lon="10.7541774"><ele>11.0</ele><time>2026-05-03T07:33:29.928Z</time></trkpt><trkpt lat="42.9232817" lon="10.7542333"><ele>11.0</ele><time>2026-05-03T07:35:06.914Z</time></trkpt><trkpt lat="42.9233367" lon="10.754355"><ele>11.0</ele><time>2026-05-03T07:35:10.912Z</time></trkpt><trkpt lat="42.9234117" lon="10.7544683"><ele>11.0</ele><time>2026-05-03T07:35:12.913Z</time></trkpt><trkpt lat="42.9234817" lon="10.7546067"><ele>11.0</ele><time>2026-05-03T07:35:14.912Z</time></trkpt><trkpt lat="42.9235217" lon="10.7546783"><ele>11.0</ele><time>2026-05-03T07:35:15.911Z</time></trkpt><trkpt lat="42.92356" lon="10.7547533"><ele>11.0</ele><time>2026-05-03T07:35:16.911Z</time></trkpt><trkpt lat="42.9235983" lon="10.754845"><ele>11.0</ele><time>2026-05-03T07:35:17.912Z</time></trkpt><trkpt lat="42.9236317" lon="10.7549383"><ele>11.0</ele><time>2026-05-03T07:35:18.91Z</time></trkpt><trkpt lat="42.9236633" lon="10.7550283"><ele>11.0</ele><time>2026-05-03T07:35:19.91Z</time></trkpt><trkpt lat="42.9237067" lon="10.7551067"><ele>11.0</ele><time>2026-05-03T07:35:20.913Z</time></trkpt><trkpt lat="42.923755" lon="10.755175"><ele>11.0</ele><time>2026-05-03T07:35:21.911Z</time></trkpt><trkpt lat="42.923795" lon="10.7552583"><ele>11.0</ele><time>2026-05-03T07:35:22.91Z</time></trkpt><trkpt lat="42.9238367" lon="10.75535"><ele>11.0</ele><time>2026-05-03T07:35:23.91Z</time></trkpt><trkpt lat="42.92388" lon="10.7554333"><ele>11.0</ele><time>2026-05-03T07:35:24.911Z</time></trkpt><trkpt lat="42.92392" lon="10.75552"><ele>11.0</ele><time>2026-05-03T07:35:25.911Z</time></trkpt><trkpt lat="42.9239533" lon="10.7556133"><ele>11.0</ele><time>2026-05-03T07:35:26.91Z</time></trkpt><trkpt lat="42.923985" lon="10.7557033"><ele>11.0</ele><time>2026-05-03T07:35:27.911Z</time></trkpt><trkpt lat="42.9240283" lon="10.7557883"><ele>11.0</ele><time>2026-05-03T07:35:28.91Z</time></trkpt><trkpt lat="42.92407" lon="10.755865"><ele>11.0</ele><time>2026-05-03T07:35:29.913Z</time></trkpt><trkpt lat="42.92411" lon="10.7559433"><ele>11.0</ele><time>2026-05-03T07:35:30.91Z</time></trkpt><trkpt lat="42.9241467" lon="10.75602"><ele>11.0</ele><time>2026-05-03T07:35:31.911Z</time></trkpt><trkpt lat="42.9242083" lon="10.7561467"><ele>11.0</ele><time>2026-05-03T07:35:33.91Z</time></trkpt><trkpt lat="42.924215" lon="10.7562483"><ele>11.0</ele><time>2026-05-03T07:35:35.914Z</time></trkpt><trkpt lat="42.92417" lon="10.75634"><ele>11.0</ele><time>2026-05-03T07:35:37.913Z</time></trkpt><trkpt lat="42.9240883" lon="10.75644"><ele>11.0</ele><time>2026-05-03T07:35:39.913Z</time></trkpt><trkpt lat="42.92401" lon="10.7565133"><ele>11.166666666666666</ele><time>2026-05-03T07:35:41.914Z</time></trkpt><trkpt lat="42.9239317" lon="10.7565667"><ele>11.333333333333332</ele><time>2026-05-03T07:35:43.91Z</time></trkpt><trkpt lat="42.9238517" lon="10.7566183"><ele>11.5</ele><time>2026-05-03T07:35:45.911Z</time></trkpt><trkpt lat="42.9237883" lon="10.7566517"><ele>11.666666666666666</ele><time>2026-05-03T07:35:47.913Z</time></trkpt><trkpt lat="42.9237167" lon="10.7567117"><ele>11.833333333333334</ele><time>2026-05-03T07:35:49.913Z</time></trkpt><trkpt lat="42.9236267" lon="10.7567983"><ele>12.0</ele><time>2026-05-03T07:35:51.912Z</time></trkpt><trkpt lat="42.9235633" lon="10.75685"><ele>11.857142857142856</ele><time>2026-05-03T07:35:53.912Z</time></trkpt><trkpt lat="42.92358" lon="10.7569517"><ele>11.714285714285714</ele><time>2026-05-03T07:35:56.91Z</time></trkpt><trkpt lat="42.9236183" lon="10.7570317"><ele>11.571428571428571</ele><time>2026-05-03T07:35:57.911Z</time></trkpt><trkpt lat="42.923655" lon="10.7571217"><ele>11.428571428571427</ele><time>2026-05-03T07:35:58.913Z</time></trkpt><trkpt lat="42.9236917" lon="10.75721"><ele>11.285714285714285</ele><time>2026-05-03T07:35:59.91Z</time></trkpt><trkpt lat="42.92373" lon="10.7573"><ele>11.142857142857142</ele><time>2026-05-03T07:36:00.913Z</time></trkpt><trkpt lat="42.923765" lon="10.757375"><ele>11.0</ele><time>2026-05-03T07:36:01.91Z</time></trkpt><trkpt lat="42.92383" lon="10.757515"><ele>11.0</ele><time>2026-05-03T07:36:03.913Z</time></trkpt><trkpt lat="42.923895" lon="10.7576533"><ele>11.0</ele><time>2026-05-03T07:36:05.914Z</time></trkpt><trkpt lat="42.9239533" lon="10.7577667"><ele>11.0</ele><time>2026-05-03T07:36:07.911Z</time></trkpt><trkpt lat="42.9239933" lon="10.7578567"><ele>11.0</ele><time>2026-05-03T07:36:10.913Z</time></trkpt><trkpt lat="42.9240067" lon="10.757955"><ele>11.0</ele><time>2026-05-03T07:36:15.912Z</time></trkpt><trkpt lat="42.9240667" lon="10.7578917"><ele>11.0</ele><time>2026-05-03T07:36:19.911Z</time></trkpt><trkpt lat="42.9241567" lon="10.7578433"><ele>11.200000000000001</ele><time>2026-05-03T07:36:42.912Z</time></trkpt><trkpt lat="42.9242467" lon="10.75775"><ele>11.4</ele><time>2026-05-03T07:36:44.912Z</time></trkpt><trkpt lat="42.9243317" lon="10.7576667"><ele>11.6</ele><time>2026-05-03T07:36:46.912Z</time></trkpt><trkpt lat="42.9244133" lon="10.757605"><ele>11.8</ele><time>2026-05-03T07:36:48.911Z</time></trkpt><trkpt lat="42.924475" lon="10.7576233"><ele>12.0</ele><time>2026-05-03T07:36:50.911Z</time></trkpt><trkpt lat="42.9245533" lon="10.7577183"><ele>12.0</ele><time>2026-05-03T07:36:52.915Z</time></trkpt><trkpt lat="42.9245983" lon="10.7577867"><ele>12.0</ele><time>2026-05-03T07:36:53.915Z</time></trkpt><trkpt lat="42.9246383" lon="10.7578733"><ele>12.0</ele><time>2026-05-03T07:36:54.911Z</time></trkpt><trkpt lat="42.9246783" lon="10.75796"><ele>12.0</ele><time>2026-05-03T07:36:55.914Z</time></trkpt><trkpt lat="42.9247117" lon="10.7580367"><ele>12.0</ele><time>2026-05-03T07:36:56.914Z</time></trkpt><trkpt lat="42.9247667" lon="10.7581533"><ele>12.0</ele><time>2026-05-03T07:36:58.915Z</time></trkpt><trkpt lat="42.9248017" lon="10.7582317"><ele>12.0</ele><time>2026-05-03T07:37:00.914Z</time></trkpt><trkpt lat="42.9248533" lon="10.7583383"><ele>12.0</ele><time>2026-05-03T07:37:03.911Z</time></trkpt><trkpt lat="42.9249167" lon="10.7584667"><ele>12.0</ele><time>2026-05-03T07:37:05.914Z</time></trkpt><trkpt lat="42.9249567" lon="10.7585483"><ele>12.0</ele><time>2026-05-03T07:37:06.914Z</time></trkpt><trkpt lat="42.925" lon="10.7586283"><ele>12.0</ele><time>2026-05-03T07:37:07.914Z</time></trkpt><trkpt lat="42.92504" lon="10.7587133"><ele>12.0</ele><time>2026-05-03T07:37:08.911Z</time></trkpt><trkpt lat="42.9250767" lon="10.75879"><ele>11.833333333333334</ele><time>2026-05-03T07:37:09.915Z</time></trkpt><trkpt lat="42.92513" lon="10.7589033"><ele>11.666666666666666</ele><time>2026-05-03T07:37:11.914Z</time></trkpt><trkpt lat="42.9251467" lon="10.7589933"><ele>11.5</ele><time>2026-05-03T07:37:15.911Z</time></trkpt><trkpt lat="42.9250983" lon="10.7590533"><ele>11.333333333333332</ele><time>2026-05-03T07:37:17.914Z</time></trkpt><trkpt lat="42.9249967" lon="10.75917"><ele>11.166666666666666</ele><time>2026-05-03T07:37:19.912Z</time></trkpt><trkpt lat="42.9249367" lon="10.7592333"><ele>11.0</ele><time>2026-05-03T07:37:20.911Z</time></trkpt><trkpt lat="42.9248783" lon="10.75929"><ele>11.0</ele><time>2026-05-03T07:37:21.914Z</time></trkpt><trkpt lat="42.9247783" lon="10.7593633"><ele>11.0</ele><time>2026-05-03T07:37:23.914Z</time></trkpt><trkpt lat="42.924665" lon="10.75946"><ele>11.0</ele><time>2026-05-03T07:37:25.914Z</time></trkpt><trkpt lat="42.9246067" lon="10.75952"><ele>11.0</ele><time>2026-05-03T07:37:26.914Z</time></trkpt><trkpt lat="42.9245533" lon="10.7595767"><ele>11.0</ele><time>2026-05-03T07:37:27.91Z</time></trkpt><trkpt lat="42.9244683" lon="10.7596483"><ele>11.0</ele><time>2026-05-03T07:37:29.913Z</time></trkpt><trkpt lat="42.924445" lon="10.7597517"><ele>11.0</ele><time>2026-05-03T07:37:32.911Z</time></trkpt><trkpt lat="42.9244967" lon="10.7598717"><ele>11.0</ele><time>2026-05-03T07:37:34.912Z</time></trkpt><trkpt lat="42.924535" lon="10.7599517"><ele>11.0</ele><time>2026-05-03T07:37:35.913Z</time></trkpt><trkpt lat="42.92458" lon="10.76004"><ele>11.0</ele><time>2026-05-03T07:37:36.912Z</time></trkpt><trkpt lat="42.9246283" lon="10.7601367"><ele>11.0</ele><time>2026-05-03T07:37:37.911Z</time></trkpt><trkpt lat="42.9246783" lon="10.7602433"><ele>10.8</ele><time>2026-05-03T07:37:38.914Z</time></trkpt><trkpt lat="42.9247333" lon="10.7603517"><ele>10.600000000000001</ele><time>2026-05-03T07:37:39.914Z</time></trkpt><trkpt lat="42.9247833" lon="10.7604617"><ele>10.4</ele><time>2026-05-03T07:37:40.914Z</time></trkpt><trkpt lat="42.9248333" lon="10.7605717"><ele>10.2</ele><time>2026-05-03T07:37:41.912Z</time></trkpt><trkpt lat="42.9248833" lon="10.7606817"><ele>10.0</ele><time>2026-05-03T07:37:42.914Z</time></trkpt><trkpt lat="42.9249317" lon="10.7607867"><ele>10.0</ele><time>2026-05-03T07:37:43.914Z</time></trkpt><trkpt lat="42.9249867" lon="10.7608967"><ele>10.0</ele><time>2026-05-03T07:37:44.915Z</time></trkpt><trkpt lat="42.9250417" lon="10.76101"><ele>10.0</ele><time>2026-05-03T07:37:45.911Z</time></trkpt><trkpt lat="42.9250967" lon="10.7611183"><ele>10.0</ele><time>2026-05-03T07:37:46.915Z</time></trkpt><trkpt lat="42.9251583" lon="10.7612217"><ele>10.0</ele><time>2026-05-03T07:37:47.917Z</time></trkpt><trkpt lat="42.9252083" lon="10.7613283"><ele>10.0</ele><time>2026-05-03T07:37:48.912Z</time></trkpt><trkpt lat="42.9252533" lon="10.7614267"><ele>10.0</ele><time>2026-05-03T07:37:49.91Z</time></trkpt><trkpt lat="42.9252917" lon="10.7615183"><ele>10.0</ele><time>2026-05-03T07:37:50.914Z</time></trkpt><trkpt lat="42.9253283" lon="10.761605"><ele>10.0</ele><time>2026-05-03T07:37:51.913Z</time></trkpt><trkpt lat="42.92536" lon="10.76169"><ele>10.0</ele><time>2026-05-03T07:37:52.914Z</time></trkpt><trkpt lat="42.925415" lon="10.7618217"><ele>10.0</ele><time>2026-05-03T07:37:54.914Z</time></trkpt><trkpt lat="42.9254283" lon="10.7619283"><ele>9.8</ele><time>2026-05-03T07:37:57.912Z</time></trkpt><trkpt lat="42.9253667" lon="10.7619883"><ele>9.6</ele><time>2026-05-03T07:37:59.913Z</time></trkpt><trkpt lat="42.9252567" lon="10.7620917"><ele>9.4</ele><time>2026-05-03T07:38:01.913Z</time></trkpt><trkpt lat="42.9251867" lon="10.7621467"><ele>9.2</ele><time>2026-05-03T07:38:02.912Z</time></trkpt><trkpt lat="42.925105" lon="10.76219"><ele>9.0</ele><time>2026-05-03T07:38:03.913Z</time></trkpt><trkpt lat="42.925015" lon="10.7622167"><ele>9.0</ele><time>2026-05-03T07:38:04.914Z</time></trkpt><trkpt lat="42.9249133" lon="10.7622333"><ele>9.0</ele><time>2026-05-03T07:38:05.912Z</time></trkpt><trkpt lat="42.924805" lon="10.7622467"><ele>9.0</ele><time>2026-05-03T07:38:06.914Z</time></trkpt><trkpt lat="42.9247017" lon="10.7622583"><ele>9.0</ele><time>2026-05-03T07:38:07.913Z</time></trkpt><trkpt lat="42.924605" lon="10.7622667"><ele>9.0</ele><time>2026-05-03T07:38:08.914Z</time></trkpt><trkpt lat="42.9245167" lon="10.7622767"><ele>9.0</ele><time>2026-05-03T07:38:09.914Z</time></trkpt><trkpt lat="42.9244367" lon="10.762285"><ele>9.0</ele><time>2026-05-03T07:38:10.913Z</time></trkpt><trkpt lat="42.9243633" lon="10.76229"><ele>9.0</ele><time>2026-05-03T07:38:11.912Z</time></trkpt><trkpt lat="42.9243" lon="10.7622983"><ele>9.0</ele><time>2026-05-03T07:38:12.912Z</time></trkpt><trkpt lat="42.9241883" lon="10.7623317"><ele>9.0</ele><time>2026-05-03T07:38:14.913Z</time></trkpt><trkpt lat="42.9241317" lon="10.7624167"><ele>9.0</ele><time>2026-05-03T07:38:16.913Z</time></trkpt><trkpt lat="42.9241683" lon="10.7625533"><ele>9.0</ele><time>2026-05-03T07:38:18.91Z</time></trkpt><trkpt lat="42.9242083" lon="10.762635"><ele>9.0</ele><time>2026-05-03T07:38:19.913Z</time></trkpt><trkpt lat="42.9242483" lon="10.762725"><ele>9.0</ele><time>2026-05-03T07:38:20.913Z</time></trkpt><trkpt lat="42.9242917" lon="10.7628133"><ele>9.0</ele><time>2026-05-03T07:38:21.914Z</time></trkpt><trkpt lat="42.92434" lon="10.7629067"><ele>9.0</ele><time>2026-05-03T07:38:22.913Z</time></trkpt><trkpt lat="42.9243867" lon="10.763005"><ele>9.0</ele><time>2026-05-03T07:38:23.913Z</time></trkpt><trkpt lat="42.924435" lon="10.763105"><ele>8.833333333333334</ele><time>2026-05-03T07:38:24.913Z</time></trkpt><trkpt lat="42.9244833" lon="10.763205"><ele>8.666666666666666</ele><time>2026-05-03T07:38:25.913Z</time></trkpt><trkpt lat="42.9245317" lon="10.7633033"><ele>8.5</ele><time>2026-05-03T07:38:26.913Z</time></trkpt><trkpt lat="42.9245783" lon="10.7634"><ele>8.333333333333332</ele><time>2026-05-03T07:38:27.912Z</time></trkpt><trkpt lat="42.924615" lon="10.763485"><ele>8.166666666666666</ele><time>2026-05-03T07:38:28.913Z</time></trkpt><trkpt lat="42.924655" lon="10.7636083"><ele>8.0</ele><time>2026-05-03T07:38:30.914Z</time></trkpt><trkpt lat="42.9246667" lon="10.7637033"><ele>8.4</ele><time>2026-05-03T07:38:32.914Z</time></trkpt><trkpt lat="42.9246567" lon="10.76381"><ele>8.8</ele><time>2026-05-03T07:38:34.913Z</time></trkpt><trkpt lat="42.9246183" lon="10.7639167"><ele>9.2</ele><time>2026-05-03T07:38:36.913Z</time></trkpt><trkpt lat="42.9245967" lon="10.7640717"><ele>9.6</ele><time>2026-05-03T07:38:38.913Z</time></trkpt><trkpt lat="42.9246717" lon="10.7642183"><ele>10.0</ele><time>2026-05-03T07:38:40.912Z</time></trkpt><trkpt lat="42.9247467" lon="10.7642817"><ele>10.0</ele><time>2026-05-03T07:38:41.914Z</time></trkpt><trkpt lat="42.9248183" lon="10.7643583"><ele>10.0</ele><time>2026-05-03T07:38:42.913Z</time></trkpt><trkpt lat="42.9248767" lon="10.7644417"><ele>10.0</ele><time>2026-05-03T07:38:43.913Z</time></trkpt><trkpt lat="42.9249267" lon="10.76453"><ele>10.0</ele><time>2026-05-03T07:38:44.914Z</time></trkpt><trkpt lat="42.92498" lon="10.7646167"><ele>10.0</ele><time>2026-05-03T07:38:45.913Z</time></trkpt><trkpt lat="42.92504" lon="10.7647017"><ele>10.0</ele><time>2026-05-03T07:38:46.913Z</time></trkpt><trkpt lat="42.925095" lon="10.7647783"><ele>10.0</ele><time>2026-05-03T07:38:47.913Z</time></trkpt><trkpt lat="42.92515" lon="10.7648583"><ele>10.0</ele><time>2026-05-03T07:38:49.912Z</time></trkpt><trkpt lat="42.9251967" lon="10.7649383"><ele>10.0</ele><time>2026-05-03T07:38:52.915Z</time></trkpt><trkpt lat="42.9252583" lon="10.76508"><ele>10.0</ele><time>2026-05-03T07:38:54.914Z</time></trkpt><trkpt lat="42.9253017" lon="10.765175"><ele>10.0</ele><time>2026-05-03T07:38:55.913Z</time></trkpt><trkpt lat="42.9253533" lon="10.7652733"><ele>10.0</ele><time>2026-05-03T07:38:56.911Z</time></trkpt><trkpt lat="42.9254067" lon="10.7653817"><ele>10.2</ele><time>2026-05-03T07:38:57.911Z</time></trkpt><trkpt lat="42.9254633" lon="10.765495"><ele>10.4</ele><time>2026-05-03T07:38:58.912Z</time></trkpt><trkpt lat="42.9255233" lon="10.7656133"><ele>10.600000000000001</ele><time>2026-05-03T07:38:59.912Z</time></trkpt><trkpt lat="42.925585" lon="10.7657317"><ele>10.8</ele><time>2026-05-03T07:39:00.912Z</time></trkpt><trkpt lat="42.9256483" lon="10.76585"><ele>11.0</ele><time>2026-05-03T07:39:01.912Z</time></trkpt><trkpt lat="42.9257117" lon="10.7659683"><ele>11.200000000000001</ele><time>2026-05-03T07:39:02.913Z</time></trkpt><trkpt lat="42.9257767" lon="10.76608"><ele>11.4</ele><time>2026-05-03T07:39:03.911Z</time></trkpt><trkpt lat="42.92584" lon="10.7661817"><ele>11.6</ele><time>2026-05-03T07:39:04.912Z</time></trkpt><trkpt lat="42.9259017" lon="10.7662733"><ele>11.8</ele><time>2026-05-03T07:39:05.911Z</time></trkpt><trkpt lat="42.92596" lon="10.766355"><ele>12.0</ele><time>2026-05-03T07:39:06.911Z</time></trkpt><trkpt lat="42.9260183" lon="10.7664267"><ele>12.0</ele><time>2026-05-03T07:39:07.911Z</time></trkpt><trkpt lat="42.9260733" lon="10.7664917"><ele>12.0</ele><time>2026-05-03T07:39:08.911Z</time></trkpt><trkpt lat="42.9261233" lon="10.7665517"><ele>12.0</ele><time>2026-05-03T07:39:09.911Z</time></trkpt><trkpt lat="42.9262067" lon="10.7666517"><ele>12.0</ele><time>2026-05-03T07:39:11.914Z</time></trkpt><trkpt lat="42.926265" lon="10.76672"><ele>12.0</ele><time>2026-05-03T07:39:13.914Z</time></trkpt><trkpt lat="42.926345" lon="10.7668033"><ele>12.0</ele><time>2026-05-03T07:39:15.914Z</time></trkpt><trkpt lat="42.92643" lon="10.766895"><ele>11.8</ele><time>2026-05-03T07:39:17.914Z</time></trkpt><trkpt lat="42.9265033" lon="10.76698"><ele>11.6</ele><time>2026-05-03T07:39:19.914Z</time></trkpt><trkpt lat="42.926585" lon="10.7670683"><ele>11.4</ele><time>2026-05-03T07:39:21.911Z</time></trkpt><trkpt lat="42.92669" lon="10.7671033"><ele>11.200000000000001</ele><time>2026-05-03T07:39:23.913Z</time></trkpt><trkpt lat="42.9268067" lon="10.767175"><ele>11.0</ele><time>2026-05-03T07:39:25.914Z</time></trkpt><trkpt lat="42.9268683" lon="10.7672333"><ele>11.0</ele><time>2026-05-03T07:39:26.911Z</time></trkpt><trkpt lat="42.9269333" lon="10.7673033"><ele>11.0</ele><time>2026-05-03T07:39:27.914Z</time></trkpt><trkpt lat="42.927005" lon="10.76738"><ele>11.0</ele><time>2026-05-03T07:39:28.914Z</time></trkpt><trkpt lat="42.9270833" lon="10.7674567"><ele>11.0</ele><time>2026-05-03T07:39:29.913Z</time></trkpt><trkpt lat="42.92717" lon="10.7675333"><ele>11.0</ele><time>2026-05-03T07:39:30.914Z</time></trkpt><trkpt lat="42.927265" lon="10.7676"><ele>11.0</ele><time>2026-05-03T07:39:31.91Z</time></trkpt><trkpt lat="42.927365" lon="10.7676483"><ele>11.0</ele><time>2026-05-03T07:39:32.911Z</time></trkpt><trkpt lat="42.9274667" lon="10.767685"><ele>11.0</ele><time>2026-05-03T07:39:33.916Z</time></trkpt><trkpt lat="42.9275683" lon="10.7677217"><ele>11.0</ele><time>2026-05-03T07:39:34.911Z</time></trkpt><trkpt lat="42.927665" lon="10.76776"><ele>11.0</ele><time>2026-05-03T07:39:35.914Z</time></trkpt><trkpt lat="42.927745" lon="10.7678267"><ele>11.285714285714286</ele><time>2026-05-03T07:39:36.914Z</time></trkpt><trkpt lat="42.9278067" lon="10.7679083"><ele>11.571428571428571</ele><time>2026-05-03T07:39:37.913Z</time></trkpt><trkpt lat="42.927855" lon="10.7679933"><ele>11.857142857142858</ele><time>2026-05-03T07:39:38.914Z</time></trkpt><trkpt lat="42.9278817" lon="10.7680833"><ele>12.142857142857142</ele><time>2026-05-03T07:39:39.915Z</time></trkpt><trkpt lat="42.9279067" lon="10.7681717"><ele>12.428571428571429</ele><time>2026-05-03T07:39:40.914Z</time></trkpt><trkpt lat="42.9279317" lon="10.768255"><ele>12.714285714285714</ele><time>2026-05-03T07:39:41.912Z</time></trkpt><trkpt lat="42.9279633" lon="10.7683383"><ele>13.0</ele><time>2026-05-03T07:39:42.914Z</time></trkpt><trkpt lat="42.9280033" lon="10.7684183"><ele>12.999999999999998</ele><time>2026-05-03T07:39:43.914Z</time></trkpt><trkpt lat="42.9280533" lon="10.7684933"><ele>13.0</ele><time>2026-05-03T07:39:44.914Z</time></trkpt><trkpt lat="42.9281067" lon="10.7685617"><ele>13.0</ele><time>2026-05-03T07:39:45.914Z</time></trkpt><trkpt lat="42.9281667" lon="10.7686283"><ele>13.0</ele><time>2026-05-03T07:39:46.914Z</time></trkpt><trkpt lat="42.9282267" lon="10.7686967"><ele>12.999999999999998</ele><time>2026-05-03T07:39:47.912Z</time></trkpt><trkpt lat="42.9282917" lon="10.7687583"><ele>13.0</ele><time>2026-05-03T07:39:48.915Z</time></trkpt><trkpt lat="42.9283483" lon="10.768825"><ele>13.142857142857142</ele><time>2026-05-03T07:39:49.914Z</time></trkpt><trkpt lat="42.9284033" lon="10.7688867"><ele>13.285714285714286</ele><time>2026-05-03T07:39:50.914Z</time></trkpt><trkpt lat="42.9284567" lon="10.7689467"><ele>13.428571428571429</ele><time>2026-05-03T07:39:51.914Z</time></trkpt><trkpt lat="42.9285083" lon="10.769005"><ele>13.571428571428571</ele><time>2026-05-03T07:39:52.914Z</time></trkpt><trkpt lat="42.9285617" lon="10.769065"><ele>13.714285714285715</ele><time>2026-05-03T07:39:53.914Z</time></trkpt><trkpt lat="42.9286117" lon="10.76912"><ele>13.857142857142858</ele><time>2026-05-03T07:39:54.911Z</time></trkpt><trkpt lat="42.9286617" lon="10.7691783"><ele>14.0</ele><time>2026-05-03T07:39:55.915Z</time></trkpt><trkpt lat="42.9287117" lon="10.7692417"><ele>14.0</ele><time>2026-05-03T07:39:56.911Z</time></trkpt><trkpt lat="42.928765" lon="10.7693033"><ele>14.0</ele><time>2026-05-03T07:39:57.912Z</time></trkpt><trkpt lat="42.9288217" lon="10.7693633"><ele>14.0</ele><time>2026-05-03T07:39:58.913Z</time></trkpt><trkpt lat="42.9288783" lon="10.769425"><ele>14.0</ele><time>2026-05-03T07:39:59.915Z</time></trkpt><trkpt lat="42.92894" lon="10.7694817"><ele>14.0</ele><time>2026-05-03T07:40:00.914Z</time></trkpt><trkpt lat="42.9290033" lon="10.7695433"><ele>14.0</ele><time>2026-05-03T07:40:01.912Z</time></trkpt><trkpt lat="42.9290633" lon="10.769615"><ele>14.0</ele><time>2026-05-03T07:40:02.913Z</time></trkpt><trkpt lat="42.9291217" lon="10.7696833"><ele>14.2</ele><time>2026-05-03T07:40:03.914Z</time></trkpt><trkpt lat="42.92918" lon="10.7697433"><ele>14.399999999999999</ele><time>2026-05-03T07:40:04.912Z</time></trkpt><trkpt lat="42.9292317" lon="10.7698017"><ele>14.6</ele><time>2026-05-03T07:40:05.912Z</time></trkpt><trkpt lat="42.92928" lon="10.769865"><ele>14.8</ele><time>2026-05-03T07:40:06.911Z</time></trkpt><trkpt lat="42.9293217" lon="10.7700217"><ele>15.0</ele><time>2026-05-03T07:40:08.912Z</time></trkpt><trkpt lat="42.9293517" lon="10.7701883"><ele>15.428571428571429</ele><time>2026-05-03T07:40:10.911Z</time></trkpt><trkpt lat="42.9294383" lon="10.7702983"><ele>15.857142857142858</ele><time>2026-05-03T07:40:12.911Z</time></trkpt><trkpt lat="42.9295017" lon="10.7703233"><ele>16.285714285714285</ele><time>2026-05-03T07:40:13.913Z</time></trkpt><trkpt lat="42.929565" lon="10.7703333"><ele>16.714285714285715</ele><time>2026-05-03T07:40:14.918Z</time></trkpt><trkpt lat="42.9296283" lon="10.7703417"><ele>17.142857142857142</ele><time>2026-05-03T07:40:15.912Z</time></trkpt><trkpt lat="42.9296917" lon="10.7703533"><ele>17.571428571428573</ele><time>2026-05-03T07:40:16.913Z</time></trkpt><trkpt lat="42.9297567" lon="10.7703733"><ele>18.0</ele><time>2026-05-03T07:40:17.912Z</time></trkpt><trkpt lat="42.9298183" lon="10.7704083"><ele>18.000000000000004</ele><time>2026-05-03T07:40:18.911Z</time></trkpt><trkpt lat="42.92988" lon="10.7704583"><ele>18.0</ele><time>2026-05-03T07:40:19.911Z</time></trkpt><trkpt lat="42.9299367" lon="10.77052"><ele>18.0</ele><time>2026-05-03T07:40:20.915Z</time></trkpt><trkpt lat="42.9299933" lon="10.770585"><ele>18.0</ele><time>2026-05-03T07:40:21.911Z</time></trkpt><trkpt lat="42.9300517" lon="10.7706433"><ele>18.0</ele><time>2026-05-03T07:40:22.911Z</time></trkpt><trkpt lat="42.9301133" lon="10.7707033"><ele>18.000000000000004</ele><time>2026-05-03T07:40:23.912Z</time></trkpt><trkpt lat="42.9301733" lon="10.7707683"><ele>18.0</ele><time>2026-05-03T07:40:24.911Z</time></trkpt><trkpt lat="42.9302333" lon="10.7708333"><ele>18.166666666666668</ele><time>2026-05-03T07:40:25.914Z</time></trkpt><trkpt lat="42.930295" lon="10.7708983"><ele>18.333333333333332</ele><time>2026-05-03T07:40:26.913Z</time></trkpt><trkpt lat="42.9303517" lon="10.770955"><ele>18.5</ele><time>2026-05-03T07:40:27.915Z</time></trkpt><trkpt lat="42.9304033" lon="10.7710083"><ele>18.666666666666664</ele><time>2026-05-03T07:40:28.915Z</time></trkpt><trkpt lat="42.9304833" lon="10.7710983"><ele>18.833333333333332</ele><time>2026-05-03T07:40:30.915Z</time></trkpt><trkpt lat="42.9305233" lon="10.7711683"><ele>19.0</ele><time>2026-05-03T07:40:32.915Z</time></trkpt><trkpt lat="42.9305633" lon="10.7712583"><ele>19.0</ele><time>2026-05-03T07:40:34.914Z</time></trkpt><trkpt lat="42.93061" lon="10.771365"><ele>19.0</ele><time>2026-05-03T07:40:36.915Z</time></trkpt><trkpt lat="42.9307033" lon="10.7714567"><ele>19.0</ele><time>2026-05-03T07:40:38.915Z</time></trkpt><trkpt lat="42.93083" lon="10.77151"><ele>19.0</ele><time>2026-05-03T07:40:40.914Z</time></trkpt><trkpt lat="42.9308967" lon="10.771555"><ele>19.0</ele><time>2026-05-03T07:40:41.914Z</time></trkpt><trkpt lat="42.93096" lon="10.7716167"><ele>19.0</ele><time>2026-05-03T07:40:42.914Z</time></trkpt><trkpt lat="42.9310217" lon="10.771685"><ele>19.0</ele><time>2026-05-03T07:40:43.914Z</time></trkpt><trkpt lat="42.9310883" lon="10.771755"><ele>19.0</ele><time>2026-05-03T07:40:44.917Z</time></trkpt><trkpt lat="42.9311583" lon="10.7718267"><ele>19.0</ele><time>2026-05-03T07:40:45.914Z</time></trkpt><trkpt lat="42.9312283" lon="10.7719017"><ele>19.0</ele><time>2026-05-03T07:40:46.914Z</time></trkpt><trkpt lat="42.931295" lon="10.7719733"><ele>19.0</ele><time>2026-05-03T07:40:47.915Z</time></trkpt><trkpt lat="42.9313633" lon="10.772055"><ele>19.2</ele><time>2026-05-03T07:40:48.916Z</time></trkpt><trkpt lat="42.9314333" lon="10.7721333"><ele>19.4</ele><time>2026-05-03T07:40:49.915Z</time></trkpt><trkpt lat="42.931505" lon="10.7722217"><ele>19.6</ele><time>2026-05-03T07:40:50.914Z</time></trkpt><trkpt lat="42.93158" lon="10.772305"><ele>19.8</ele><time>2026-05-03T07:40:51.914Z</time></trkpt><trkpt lat="42.9316583" lon="10.7723867"><ele>20.0</ele><time>2026-05-03T07:40:52.914Z</time></trkpt><trkpt lat="42.9317367" lon="10.772465"><ele>20.166666666666668</ele><time>2026-05-03T07:40:53.914Z</time></trkpt><trkpt lat="42.931815" lon="10.7725417"><ele>20.333333333333336</ele><time>2026-05-03T07:40:54.914Z</time></trkpt><trkpt lat="42.931885" lon="10.772615"><ele>20.5</ele><time>2026-05-03T07:40:55.914Z</time></trkpt><trkpt lat="42.9319533" lon="10.7726867"><ele>20.666666666666668</ele><time>2026-05-03T07:40:56.914Z</time></trkpt><trkpt lat="42.9320217" lon="10.77276"><ele>20.833333333333332</ele><time>2026-05-03T07:40:57.914Z</time></trkpt><trkpt lat="42.93209" lon="10.7728367"><ele>21.0</ele><time>2026-05-03T07:40:58.914Z</time></trkpt><trkpt lat="42.9321617" lon="10.77291"><ele>20.6</ele><time>2026-05-03T07:40:59.915Z</time></trkpt><trkpt lat="42.9322367" lon="10.7729883"><ele>20.200000000000003</ele><time>2026-05-03T07:41:00.912Z</time></trkpt><trkpt lat="42.932315" lon="10.7730667"><ele>19.799999999999997</ele><time>2026-05-03T07:41:01.912Z</time></trkpt><trkpt lat="42.9323933" lon="10.7731467"><ele>19.4</ele><time>2026-05-03T07:41:02.915Z</time></trkpt><trkpt lat="42.93247" lon="10.7732267"><ele>19.0</ele><time>2026-05-03T07:41:03.914Z</time></trkpt><trkpt lat="42.9325467" lon="10.7733117"><ele>19.4</ele><time>2026-05-03T07:41:04.913Z</time></trkpt><trkpt lat="42.932625" lon="10.7733967"><ele>19.799999999999997</ele><time>2026-05-03T07:41:05.913Z</time></trkpt><trkpt lat="42.932705" lon="10.7734817"><ele>20.200000000000003</ele><time>2026-05-03T07:41:06.914Z</time></trkpt><trkpt lat="42.9327867" lon="10.7735667"><ele>20.6</ele><time>2026-05-03T07:41:07.914Z</time></trkpt><trkpt lat="42.9328667" lon="10.773655"><ele>21.0</ele><time>2026-05-03T07:41:08.913Z</time></trkpt><trkpt lat="42.9329467" lon="10.7737417"><ele>21.0</ele><time>2026-05-03T07:41:09.913Z</time></trkpt><trkpt lat="42.9330267" lon="10.7738267"><ele>21.0</ele><time>2026-05-03T07:41:10.91Z</time></trkpt><trkpt lat="42.9331033" lon="10.77391"><ele>21.0</ele><time>2026-05-03T07:41:11.913Z</time></trkpt><trkpt lat="42.9331733" lon="10.77399"><ele>21.0</ele><time>2026-05-03T07:41:12.913Z</time></trkpt><trkpt lat="42.93324" lon="10.77406"><ele>21.0</ele><time>2026-05-03T07:41:13.913Z</time></trkpt><trkpt lat="42.9333017" lon="10.7741267"><ele>21.0</ele><time>2026-05-03T07:41:14.914Z</time></trkpt><trkpt lat="42.9333583" lon="10.7741933"><ele>21.0</ele><time>2026-05-03T07:41:15.914Z</time></trkpt><trkpt lat="42.933415" lon="10.774255"><ele>21.0</ele><time>2026-05-03T07:41:16.913Z</time></trkpt><trkpt lat="42.9334783" lon="10.774315"><ele>21.0</ele><time>2026-05-03T07:41:17.913Z</time></trkpt><trkpt lat="42.9335417" lon="10.7743817"><ele>21.0</ele><time>2026-05-03T07:41:18.913Z</time></trkpt><trkpt lat="42.93361" lon="10.774455"><ele>21.0</ele><time>2026-05-03T07:41:19.913Z</time></trkpt><trkpt lat="42.933675" lon="10.774525"><ele>21.285714285714285</ele><time>2026-05-03T07:41:20.914Z</time></trkpt><trkpt lat="42.933735" lon="10.7745883"><ele>21.57142857142857</ele><time>2026-05-03T07:41:21.913Z</time></trkpt><trkpt lat="42.93379" lon="10.7746483"><ele>21.857142857142858</ele><time>2026-05-03T07:41:22.914Z</time></trkpt><trkpt lat="42.93384" lon="10.7747133"><ele>22.142857142857142</ele><time>2026-05-03T07:41:23.913Z</time></trkpt><trkpt lat="42.933885" lon="10.7747867"><ele>22.428571428571427</ele><time>2026-05-03T07:41:24.913Z</time></trkpt><trkpt lat="42.9339317" lon="10.7748683"><ele>22.714285714285715</ele><time>2026-05-03T07:41:25.913Z</time></trkpt><trkpt lat="42.9339933" lon="10.7749383"><ele>23.0</ele><time>2026-05-03T07:41:26.914Z</time></trkpt><trkpt lat="42.9340717" lon="10.7749967"><ele>23.0</ele><time>2026-05-03T07:41:27.913Z</time></trkpt><trkpt lat="42.9341567" lon="10.77506"><ele>23.0</ele><time>2026-05-03T07:41:28.913Z</time></trkpt><trkpt lat="42.9342417" lon="10.7751367"><ele>23.0</ele><time>2026-05-03T07:41:29.913Z</time></trkpt><trkpt lat="42.93433" lon="10.7752283"><ele>23.0</ele><time>2026-05-03T07:41:30.914Z</time></trkpt><trkpt lat="42.9344183" lon="10.77532"><ele>23.0</ele><time>2026-05-03T07:41:31.913Z</time></trkpt><trkpt lat="42.9344983" lon="10.775405"><ele>23.599999999999998</ele><time>2026-05-03T07:41:32.913Z</time></trkpt><trkpt lat="42.9345733" lon="10.7754817"><ele>24.2</ele><time>2026-05-03T07:41:33.913Z</time></trkpt><trkpt lat="42.934645" lon="10.775555"><ele>24.8</ele><time>2026-05-03T07:41:34.913Z</time></trkpt><trkpt lat="42.9347133" lon="10.77563"><ele>25.4</ele><time>2026-05-03T07:41:35.914Z</time></trkpt><trkpt lat="42.934785" lon="10.7757067"><ele>26.0</ele><time>2026-05-03T07:41:36.913Z</time></trkpt><trkpt lat="42.93486" lon="10.7757883"><ele>26.0</ele><time>2026-05-03T07:41:37.915Z</time></trkpt><trkpt lat="42.9349383" lon="10.7758783"><ele>26.0</ele><time>2026-05-03T07:41:38.914Z</time></trkpt><trkpt lat="42.9350183" lon="10.77597"><ele>26.0</ele><time>2026-05-03T07:41:39.915Z</time></trkpt><trkpt lat="42.9350983" lon="10.7760617"><ele>26.0</ele><time>2026-05-03T07:41:40.913Z</time></trkpt><trkpt lat="42.9351833" lon="10.776155"><ele>26.0</ele><time>2026-05-03T07:41:41.914Z</time></trkpt><trkpt lat="42.93527" lon="10.7762417"><ele>25.999999999999996</ele><time>2026-05-03T07:41:42.915Z</time></trkpt><trkpt lat="42.9353533" lon="10.77632"><ele>26.0</ele><time>2026-05-03T07:41:43.913Z</time></trkpt><trkpt lat="42.9354317" lon="10.776385"><ele>26.0</ele><time>2026-05-03T07:41:44.913Z</time></trkpt><trkpt lat="42.93551" lon="10.776435"><ele>26.0</ele><time>2026-05-03T07:41:45.913Z</time></trkpt><trkpt lat="42.93558" lon="10.77647"><ele>25.999999999999996</ele><time>2026-05-03T07:41:46.913Z</time></trkpt><trkpt lat="42.9356433" lon="10.776505"><ele>26.0</ele><time>2026-05-03T07:41:47.913Z</time></trkpt><trkpt lat="42.9356967" lon="10.7765533"><ele>25.999999999999996</ele><time>2026-05-03T07:41:48.914Z</time></trkpt><trkpt lat="42.9357817" lon="10.776695"><ele>26.0</ele><time>2026-05-03T07:41:50.914Z</time></trkpt><trkpt lat="42.9358267" lon="10.7767867"><ele>26.0</ele><time>2026-05-03T07:41:51.913Z</time></trkpt><trkpt lat="42.9358767" lon="10.7768717"><ele>26.0</ele><time>2026-05-03T07:41:52.913Z</time></trkpt><trkpt lat="42.935935" lon="10.7769367"><ele>25.999999999999996</ele><time>2026-05-03T07:41:53.914Z</time></trkpt><trkpt lat="42.9360033" lon="10.7769783"><ele>26.0</ele><time>2026-05-03T07:41:54.914Z</time></trkpt><trkpt lat="42.9360783" lon="10.7769983"><ele>26.0</ele><time>2026-05-03T07:41:55.913Z</time></trkpt><trkpt lat="42.9361683" lon="10.7770017"><ele>26.0</ele><time>2026-05-03T07:41:56.914Z</time></trkpt><trkpt lat="42.936265" lon="10.7770167"><ele>26.0</ele><time>2026-05-03T07:41:57.913Z</time></trkpt><trkpt lat="42.9363633" lon="10.7770617"><ele>26.0</ele><time>2026-05-03T07:41:58.915Z</time></trkpt><trkpt lat="42.9364583" lon="10.7771433"><ele>26.0</ele><time>2026-05-03T07:41:59.915Z</time></trkpt><trkpt lat="42.93655" lon="10.7772517"><ele>26.0</ele><time>2026-05-03T07:42:00.914Z</time></trkpt><trkpt lat="42.9366417" lon="10.7773683"><ele>26.0</ele><time>2026-05-03T07:42:01.914Z</time></trkpt><trkpt lat="42.9367333" lon="10.7774917"><ele>26.0</ele><time>2026-05-03T07:42:02.913Z</time></trkpt><trkpt lat="42.936825" lon="10.77762"><ele>26.0</ele><time>2026-05-03T07:42:03.914Z</time></trkpt><trkpt lat="42.9369217" lon="10.7777483"><ele>26.0</ele><time>2026-05-03T07:42:04.914Z</time></trkpt><trkpt lat="42.9370133" lon="10.7778683"><ele>26.0</ele><time>2026-05-03T07:42:05.911Z</time></trkpt><trkpt lat="42.9371017" lon="10.7779917"><ele>26.0</ele><time>2026-05-03T07:42:06.914Z</time></trkpt><trkpt lat="42.93719" lon="10.7781183"><ele>26.0</ele><time>2026-05-03T07:42:07.914Z</time></trkpt><trkpt lat="42.9372833" lon="10.778245"><ele>26.0</ele><time>2026-05-03T07:42:08.913Z</time></trkpt><trkpt lat="42.9373767" lon="10.7783733"><ele>26.0</ele><time>2026-05-03T07:42:09.914Z</time></trkpt><trkpt lat="42.9374733" lon="10.7784983"><ele>26.0</ele><time>2026-05-03T07:42:10.914Z</time></trkpt><trkpt lat="42.93757" lon="10.7786233"><ele>26.0</ele><time>2026-05-03T07:42:11.914Z</time></trkpt><trkpt lat="42.93767" lon="10.7787483"><ele>26.25</ele><time>2026-05-03T07:42:12.914Z</time></trkpt><trkpt lat="42.937775" lon="10.7788667"><ele>26.5</ele><time>2026-05-03T07:42:13.914Z</time></trkpt><trkpt lat="42.937885" lon="10.7789767"><ele>26.75</ele><time>2026-05-03T07:42:14.917Z</time></trkpt><trkpt lat="42.938" lon="10.77908"><ele>27.0</ele><time>2026-05-03T07:42:15.914Z</time></trkpt><trkpt lat="42.938115" lon="10.7791767"><ele>27.0</ele><time>2026-05-03T07:42:16.911Z</time></trkpt><trkpt lat="42.9382333" lon="10.7792717"><ele>27.0</ele><time>2026-05-03T07:42:17.914Z</time></trkpt><trkpt lat="42.938355" lon="10.779365"><ele>27.0</ele><time>2026-05-03T07:42:18.911Z</time></trkpt><trkpt lat="42.9384767" lon="10.7794533"><ele>27.0</ele><time>2026-05-03T07:42:19.913Z</time></trkpt><trkpt lat="42.9386033" lon="10.7795367"><ele>27.5</ele><time>2026-05-03T07:42:20.914Z</time></trkpt><trkpt lat="42.9387383" lon="10.7796133"><ele>28.0</ele><time>2026-05-03T07:42:21.913Z</time></trkpt><trkpt lat="42.938875" lon="10.7796817"><ele>28.5</ele><time>2026-05-03T07:42:22.913Z</time></trkpt><trkpt lat="42.939015" lon="10.7797417"><ele>29.0</ele><time>2026-05-03T07:42:23.914Z</time></trkpt><trkpt lat="42.939155" lon="10.779795"><ele>29.25</ele><time>2026-05-03T07:42:24.913Z</time></trkpt><trkpt lat="42.9392967" lon="10.7798367"><ele>29.5</ele><time>2026-05-03T07:42:25.914Z</time></trkpt><trkpt lat="42.9394383" lon="10.779875"><ele>29.75</ele><time>2026-05-03T07:42:26.914Z</time></trkpt><trkpt lat="42.9395833" lon="10.7799067"><ele>30.0</ele><time>2026-05-03T07:42:27.914Z</time></trkpt><trkpt lat="42.9397317" lon="10.77993"><ele>30.0</ele><time>2026-05-03T07:42:28.914Z</time></trkpt><trkpt lat="42.9398783" lon="10.77995"><ele>30.0</ele><time>2026-05-03T07:42:29.914Z</time></trkpt><trkpt lat="42.9400283" lon="10.77996"><ele>30.0</ele><time>2026-05-03T07:42:30.914Z</time></trkpt><trkpt lat="42.9401783" lon="10.779965"><ele>30.0</ele><time>2026-05-03T07:42:31.916Z</time></trkpt><trkpt lat="42.94033" lon="10.7799633"><ele>30.0</ele><time>2026-05-03T07:42:32.913Z</time></trkpt><trkpt lat="42.9404833" lon="10.7799633"><ele>30.0</ele><time>2026-05-03T07:42:33.914Z</time></trkpt><trkpt lat="42.9406383" lon="10.77996"><ele>30.0</ele><time>2026-05-03T07:42:34.914Z</time></trkpt><trkpt lat="42.9407933" lon="10.7799533"><ele>29.333333333333336</ele><time>2026-05-03T07:42:35.914Z</time></trkpt><trkpt lat="42.9409483" lon="10.7799433"><ele>28.666666666666668</ele><time>2026-05-03T07:42:36.914Z</time></trkpt><trkpt lat="42.9411033" lon="10.7799317"><ele>28.0</ele><time>2026-05-03T07:42:37.914Z</time></trkpt><trkpt lat="42.94126" lon="10.7799183"><ele>28.0</ele><time>2026-05-03T07:42:38.915Z</time></trkpt><trkpt lat="42.9414167" lon="10.779905"><ele>28.0</ele><time>2026-05-03T07:42:39.917Z</time></trkpt><trkpt lat="42.9415683" lon="10.779895"><ele>28.0</ele><time>2026-05-03T07:42:40.914Z</time></trkpt><trkpt lat="42.9417183" lon="10.7798867"><ele>28.666666666666668</ele><time>2026-05-03T07:42:41.915Z</time></trkpt><trkpt lat="42.9418683" lon="10.7798767"><ele>29.333333333333336</ele><time>2026-05-03T07:42:42.915Z</time></trkpt><trkpt lat="42.9420217" lon="10.7798633"><ele>30.0</ele><time>2026-05-03T07:42:43.915Z</time></trkpt><trkpt lat="42.9421783" lon="10.77985"><ele>30.0</ele><time>2026-05-03T07:42:44.913Z</time></trkpt><trkpt lat="42.942335" lon="10.7798367"><ele>30.0</ele><time>2026-05-03T07:42:45.913Z</time></trkpt><trkpt lat="42.9424933" lon="10.779825"><ele>30.0</ele><time>2026-05-03T07:42:46.915Z</time></trkpt><trkpt lat="42.9426533" lon="10.779815"><ele>29.666666666666664</ele><time>2026-05-03T07:42:47.914Z</time></trkpt><trkpt lat="42.9428133" lon="10.7798083"><ele>29.333333333333332</ele><time>2026-05-03T07:42:48.915Z</time></trkpt><trkpt lat="42.9429733" lon="10.7798017"><ele>29.0</ele><time>2026-05-03T07:42:49.914Z</time></trkpt><trkpt lat="42.943135" lon="10.7798"><ele>29.0</ele><time>2026-05-03T07:42:50.915Z</time></trkpt><trkpt lat="42.9432967" lon="10.77981"><ele>29.0</ele><time>2026-05-03T07:42:51.915Z</time></trkpt><trkpt lat="42.9434567" lon="10.7798317"><ele>29.0</ele><time>2026-05-03T07:42:52.915Z</time></trkpt><trkpt lat="42.9436167" lon="10.7798583"><ele>29.0</ele><time>2026-05-03T07:42:53.914Z</time></trkpt><trkpt lat="42.943775" lon="10.7798933"><ele>29.0</ele><time>2026-05-03T07:42:54.915Z</time></trkpt><trkpt lat="42.943935" lon="10.7799283"><ele>29.0</ele><time>2026-05-03T07:42:55.914Z</time></trkpt><trkpt lat="42.9440983" lon="10.779965"><ele>29.333333333333332</ele><time>2026-05-03T07:42:56.911Z</time></trkpt><trkpt lat="42.9442667" lon="10.7800017"><ele>29.666666666666664</ele><time>2026-05-03T07:42:57.91Z</time></trkpt><trkpt lat="42.94444" lon="10.7800433"><ele>30.0</ele><time>2026-05-03T07:42:58.915Z</time></trkpt><trkpt lat="42.9446217" lon="10.780085"><ele>30.0</ele><time>2026-05-03T07:42:59.914Z</time></trkpt><trkpt lat="42.9448083" lon="10.7801283"><ele>30.0</ele><time>2026-05-03T07:43:00.913Z</time></trkpt><trkpt lat="42.944995" lon="10.78017"><ele>30.0</ele><time>2026-05-03T07:43:01.911Z</time></trkpt><trkpt lat="42.9451833" lon="10.7802117"><ele>30.0</ele><time>2026-05-03T07:43:02.914Z</time></trkpt><trkpt lat="42.945375" lon="10.7802533"><ele>30.0</ele><time>2026-05-03T07:43:03.915Z</time></trkpt><trkpt lat="42.9455683" lon="10.7802967"><ele>30.0</ele><time>2026-05-03T07:43:04.913Z</time></trkpt><trkpt lat="42.9457633" lon="10.7803417"><ele>30.333333333333336</ele><time>2026-05-03T07:43:05.911Z</time></trkpt><trkpt lat="42.94596" lon="10.780385"><ele>30.666666666666668</ele><time>2026-05-03T07:43:06.914Z</time></trkpt><trkpt lat="42.9461583" lon="10.7804283"><ele>31.0</ele><time>2026-05-03T07:43:07.915Z</time></trkpt><trkpt lat="42.946355" lon="10.78047"><ele>31.0</ele><time>2026-05-03T07:43:08.914Z</time></trkpt><trkpt lat="42.9465533" lon="10.7805117"><ele>31.0</ele><time>2026-05-03T07:43:09.915Z</time></trkpt><trkpt lat="42.946745" lon="10.7805533"><ele>31.0</ele><time>2026-05-03T07:43:10.911Z</time></trkpt><trkpt lat="42.9469283" lon="10.780595"><ele>30.666666666666668</ele><time>2026-05-03T07:43:11.915Z</time></trkpt><trkpt lat="42.947105" lon="10.7806367"><ele>30.333333333333336</ele><time>2026-05-03T07:43:12.912Z</time></trkpt><trkpt lat="42.9472817" lon="10.78068"><ele>30.0</ele><time>2026-05-03T07:43:13.911Z</time></trkpt><trkpt lat="42.9474583" lon="10.78072"><ele>30.333333333333336</ele><time>2026-05-03T07:43:14.912Z</time></trkpt><trkpt lat="42.9476317" lon="10.78076"><ele>30.666666666666668</ele><time>2026-05-03T07:43:15.915Z</time></trkpt><trkpt lat="42.9477983" lon="10.7808017"><ele>31.0</ele><time>2026-05-03T07:43:16.914Z</time></trkpt><trkpt lat="42.9479633" lon="10.7808483"><ele>31.0</ele><time>2026-05-03T07:43:17.914Z</time></trkpt><trkpt lat="42.9481233" lon="10.780905"><ele>31.0</ele><time>2026-05-03T07:43:18.914Z</time></trkpt><trkpt lat="42.9482717" lon="10.7809717"><ele>31.0</ele><time>2026-05-03T07:43:19.914Z</time></trkpt><trkpt lat="42.948415" lon="10.7810483"><ele>31.666666666666668</ele><time>2026-05-03T07:43:20.915Z</time></trkpt><trkpt lat="42.9485567" lon="10.7811367"><ele>32.333333333333336</ele><time>2026-05-03T07:43:21.915Z</time></trkpt><trkpt lat="42.9486967" lon="10.781245"><ele>33.0</ele><time>2026-05-03T07:43:22.914Z</time></trkpt><trkpt lat="42.9488333" lon="10.7813667"><ele>33.0</ele><time>2026-05-03T07:43:23.914Z</time></trkpt><trkpt lat="42.9489633" lon="10.7814983"><ele>33.0</ele><time>2026-05-03T07:43:24.915Z</time></trkpt><trkpt lat="42.9490883" lon="10.78164"><ele>33.0</ele><time>2026-05-03T07:43:25.915Z</time></trkpt><trkpt lat="42.9492033" lon="10.781795"><ele>32.0</ele><time>2026-05-03T07:43:26.914Z</time></trkpt><trkpt lat="42.9494017" lon="10.7821367"><ele>31.0</ele><time>2026-05-03T07:43:28.914Z</time></trkpt><trkpt lat="42.9494917" lon="10.7823233"><ele>31.0</ele><time>2026-05-03T07:43:29.914Z</time></trkpt><trkpt lat="42.9495733" lon="10.78252"><ele>31.0</ele><time>2026-05-03T07:43:30.914Z</time></trkpt><trkpt lat="42.9496417" lon="10.7827233"><ele>31.0</ele><time>2026-05-03T07:43:31.913Z</time></trkpt><trkpt lat="42.949705" lon="10.78293"><ele>30.333333333333336</ele><time>2026-05-03T07:43:32.914Z</time></trkpt><trkpt lat="42.9497683" lon="10.7831417"><ele>29.666666666666664</ele><time>2026-05-03T07:43:33.914Z</time></trkpt><trkpt lat="42.9498283" lon="10.7833583"><ele>29.0</ele><time>2026-05-03T07:43:34.914Z</time></trkpt><trkpt lat="42.9498867" lon="10.78358"><ele>29.0</ele><time>2026-05-03T07:43:35.914Z</time></trkpt><trkpt lat="42.9499433" lon="10.7838"><ele>29.0</ele><time>2026-05-03T07:43:36.914Z</time></trkpt><trkpt lat="42.9500017" lon="10.7840183"><ele>29.0</ele><time>2026-05-03T07:43:37.914Z</time></trkpt><trkpt lat="42.9500583" lon="10.7842333"><ele>28.0</ele><time>2026-05-03T07:43:38.914Z</time></trkpt><trkpt lat="42.9501133" lon="10.7844483"><ele>27.0</ele><time>2026-05-03T07:43:39.914Z</time></trkpt><trkpt lat="42.9501717" lon="10.784665"><ele>26.0</ele><time>2026-05-03T07:43:40.917Z</time></trkpt><trkpt lat="42.95023" lon="10.7848833"><ele>26.0</ele><time>2026-05-03T07:43:41.915Z</time></trkpt><trkpt lat="42.95029" lon="10.785105"><ele>26.0</ele><time>2026-05-03T07:43:42.914Z</time></trkpt><trkpt lat="42.950345" lon="10.7853317"><ele>26.0</ele><time>2026-05-03T07:43:43.914Z</time></trkpt><trkpt lat="42.9504017" lon="10.78556"><ele>26.0</ele><time>2026-05-03T07:43:44.914Z</time></trkpt><trkpt lat="42.95046" lon="10.7857883"><ele>26.0</ele><time>2026-05-03T07:43:45.914Z</time></trkpt><trkpt lat="42.95052" lon="10.7860167"><ele>26.0</ele><time>2026-05-03T07:43:46.915Z</time></trkpt><trkpt lat="42.9505817" lon="10.786245"><ele>25.666666666666664</ele><time>2026-05-03T07:43:47.916Z</time></trkpt><trkpt lat="42.9506417" lon="10.7864767"><ele>25.333333333333336</ele><time>2026-05-03T07:43:48.915Z</time></trkpt><trkpt lat="42.9507017" lon="10.7867083"><ele>25.0</ele><time>2026-05-03T07:43:49.915Z</time></trkpt><trkpt lat="42.950765" lon="10.7869417"><ele>25.0</ele><time>2026-05-03T07:43:50.914Z</time></trkpt><trkpt lat="42.9508283" lon="10.7871733"><ele>25.0</ele><time>2026-05-03T07:43:51.914Z</time></trkpt><trkpt lat="42.9508983" lon="10.7874033"><ele>25.0</ele><time>2026-05-03T07:43:52.914Z</time></trkpt><trkpt lat="42.950975" lon="10.7876333"><ele>24.333333333333336</ele><time>2026-05-03T07:43:53.914Z</time></trkpt><trkpt lat="42.95106" lon="10.7878583"><ele>23.666666666666668</ele><time>2026-05-03T07:43:54.914Z</time></trkpt><trkpt lat="42.9511517" lon="10.7880783"><ele>23.0</ele><time>2026-05-03T07:43:55.914Z</time></trkpt><trkpt lat="42.9512517" lon="10.7882883"><ele>23.0</ele><time>2026-05-03T07:43:56.911Z</time></trkpt><trkpt lat="42.95136" lon="10.7884917"><ele>23.0</ele><time>2026-05-03T07:43:57.911Z</time></trkpt><trkpt lat="42.951475" lon="10.7886883"><ele>23.0</ele><time>2026-05-03T07:43:58.911Z</time></trkpt><trkpt lat="42.9515967" lon="10.7888767"><ele>24.333333333333336</ele><time>2026-05-03T07:43:59.912Z</time></trkpt><trkpt lat="42.951725" lon="10.78906"><ele>25.666666666666668</ele><time>2026-05-03T07:44:00.911Z</time></trkpt><trkpt lat="42.9518617" lon="10.7892333"><ele>27.0</ele><time>2026-05-03T07:44:01.911Z</time></trkpt><trkpt lat="42.9520017" lon="10.7893967"><ele>27.0</ele><time>2026-05-03T07:44:02.912Z</time></trkpt><trkpt lat="42.95214" lon="10.7895467"><ele>27.0</ele><time>2026-05-03T07:44:03.914Z</time></trkpt><trkpt lat="42.95227" lon="10.789685"><ele>27.0</ele><time>2026-05-03T07:44:04.914Z</time></trkpt><trkpt lat="42.9524017" lon="10.7898133"><ele>27.0</ele><time>2026-05-03T07:44:05.914Z</time></trkpt><trkpt lat="42.9525367" lon="10.78994"><ele>27.0</ele><time>2026-05-03T07:44:06.914Z</time></trkpt><trkpt lat="42.95267" lon="10.7900633"><ele>27.0</ele><time>2026-05-03T07:44:07.915Z</time></trkpt><trkpt lat="42.9528033" lon="10.7901833"><ele>27.0</ele><time>2026-05-03T07:44:08.914Z</time></trkpt><trkpt lat="42.952935" lon="10.7903067"><ele>27.0</ele><time>2026-05-03T07:44:09.914Z</time></trkpt><trkpt lat="42.9530683" lon="10.7904317"><ele>27.0</ele><time>2026-05-03T07:44:10.914Z</time></trkpt><trkpt lat="42.9532017" lon="10.79056"><ele>27.0</ele><time>2026-05-03T07:44:11.914Z</time></trkpt><trkpt lat="42.9533383" lon="10.7906883"><ele>27.0</ele><time>2026-05-03T07:44:12.914Z</time></trkpt><trkpt lat="42.9534733" lon="10.7908133"><ele>27.0</ele><time>2026-05-03T07:44:13.914Z</time></trkpt><trkpt lat="42.9537333" lon="10.7910567"><ele>26.5</ele><time>2026-05-03T07:44:15.914Z</time></trkpt><trkpt lat="42.953855" lon="10.7911717"><ele>26.0</ele><time>2026-05-03T07:44:16.915Z</time></trkpt><trkpt lat="42.953975" lon="10.7912817"><ele>25.5</ele><time>2026-05-03T07:44:17.915Z</time></trkpt><trkpt lat="42.9540967" lon="10.7913917"><ele>25.0</ele><time>2026-05-03T07:44:18.914Z</time></trkpt><trkpt lat="42.9542133" lon="10.7915"><ele>26.0</ele><time>2026-05-03T07:44:19.915Z</time></trkpt><trkpt lat="42.954325" lon="10.7916067"><ele>27.0</ele><time>2026-05-03T07:44:20.914Z</time></trkpt><trkpt lat="42.95443" lon="10.79171"><ele>28.0</ele><time>2026-05-03T07:44:21.914Z</time></trkpt><trkpt lat="42.9545333" lon="10.79181"><ele>29.0</ele><time>2026-05-03T07:44:22.914Z</time></trkpt><trkpt lat="42.95464" lon="10.79191"><ele>29.0</ele><time>2026-05-03T07:44:23.916Z</time></trkpt><trkpt lat="42.95475" lon="10.79201"><ele>29.0</ele><time>2026-05-03T07:44:24.914Z</time></trkpt><trkpt lat="42.95486" lon="10.7921083"><ele>29.0</ele><time>2026-05-03T07:44:25.914Z</time></trkpt><trkpt lat="42.9549733" lon="10.79221"><ele>29.0</ele><time>2026-05-03T07:44:26.911Z</time></trkpt><trkpt lat="42.95509" lon="10.792315"><ele>29.75</ele><time>2026-05-03T07:44:27.914Z</time></trkpt><trkpt lat="42.95521" lon="10.7924233"><ele>30.5</ele><time>2026-05-03T07:44:28.913Z</time></trkpt><trkpt lat="42.9553317" lon="10.792535"><ele>31.25</ele><time>2026-05-03T07:44:29.917Z</time></trkpt><trkpt lat="42.955455" lon="10.7926517"><ele>32.0</ele><time>2026-05-03T07:44:30.912Z</time></trkpt><trkpt lat="42.95558" lon="10.7927683"><ele>32.0</ele><time>2026-05-03T07:44:31.913Z</time></trkpt><trkpt lat="42.9557067" lon="10.7928883"><ele>32.0</ele><time>2026-05-03T07:44:32.912Z</time></trkpt><trkpt lat="42.955835" lon="10.793005"><ele>32.0</ele><time>2026-05-03T07:44:33.913Z</time></trkpt><trkpt lat="42.955965" lon="10.79312"><ele>32.33333333333333</ele><time>2026-05-03T07:44:34.913Z</time></trkpt><trkpt lat="42.9560933" lon="10.7932367"><ele>32.666666666666664</ele><time>2026-05-03T07:44:35.913Z</time></trkpt><trkpt lat="42.9562217" lon="10.7933533"><ele>33.0</ele><time>2026-05-03T07:44:36.91Z</time></trkpt><trkpt lat="42.95635" lon="10.7934733"><ele>32.666666666666664</ele><time>2026-05-03T07:44:37.913Z</time></trkpt><trkpt lat="42.95648" lon="10.7935933"><ele>32.33333333333333</ele><time>2026-05-03T07:44:38.913Z</time></trkpt><trkpt lat="42.95661" lon="10.7937133"><ele>32.0</ele><time>2026-05-03T07:44:39.914Z</time></trkpt><trkpt lat="42.9567367" lon="10.7938333"><ele>32.0</ele><time>2026-05-03T07:44:40.914Z</time></trkpt><trkpt lat="42.9568617" lon="10.7939533"><ele>32.0</ele><time>2026-05-03T07:44:41.915Z</time></trkpt><trkpt lat="42.9569833" lon="10.79407"><ele>32.0</ele><time>2026-05-03T07:44:42.913Z</time></trkpt><trkpt lat="42.957105" lon="10.7941867"><ele>32.0</ele><time>2026-05-03T07:44:43.914Z</time></trkpt><trkpt lat="42.9572267" lon="10.794305"><ele>32.0</ele><time>2026-05-03T07:44:44.917Z</time></trkpt><trkpt lat="42.95735" lon="10.7944233"><ele>32.0</ele><time>2026-05-03T07:44:45.916Z</time></trkpt><trkpt lat="42.9574733" lon="10.7945433"><ele>32.0</ele><time>2026-05-03T07:44:46.913Z</time></trkpt><trkpt lat="42.9576033" lon="10.7946633"><ele>32.0</ele><time>2026-05-03T07:44:47.914Z</time></trkpt><trkpt lat="42.9577317" lon="10.7947833"><ele>32.0</ele><time>2026-05-03T07:44:48.911Z</time></trkpt><trkpt lat="42.9578633" lon="10.794905"><ele>32.0</ele><time>2026-05-03T07:44:49.914Z</time></trkpt><trkpt lat="42.957995" lon="10.7950267"><ele>32.0</ele><time>2026-05-03T07:44:50.913Z</time></trkpt><trkpt lat="42.9581233" lon="10.79515"><ele>32.0</ele><time>2026-05-03T07:44:51.913Z</time></trkpt><trkpt lat="42.9582533" lon="10.7952733"><ele>31.666666666666664</ele><time>2026-05-03T07:44:52.914Z</time></trkpt><trkpt lat="42.95838" lon="10.7953917"><ele>31.333333333333336</ele><time>2026-05-03T07:44:53.914Z</time></trkpt><trkpt lat="42.958505" lon="10.7955067"><ele>31.0</ele><time>2026-05-03T07:44:54.913Z</time></trkpt><trkpt lat="42.9586283" lon="10.79562"><ele>31.0</ele><time>2026-05-03T07:44:55.915Z</time></trkpt><trkpt lat="42.9588683" lon="10.7958433"><ele>31.0</ele><time>2026-05-03T07:44:57.91Z</time></trkpt><trkpt lat="42.95899" lon="10.79596"><ele>31.0</ele><time>2026-05-03T07:44:58.913Z</time></trkpt><trkpt lat="42.9591183" lon="10.7960783"><ele>30.0</ele><time>2026-05-03T07:44:59.91Z</time></trkpt><trkpt lat="42.9592517" lon="10.7962033"><ele>29.0</ele><time>2026-05-03T07:45:00.911Z</time></trkpt><trkpt lat="42.959385" lon="10.7963283"><ele>28.0</ele><time>2026-05-03T07:45:01.911Z</time></trkpt><trkpt lat="42.9595217" lon="10.796455"><ele>28.0</ele><time>2026-05-03T07:45:02.911Z</time></trkpt><trkpt lat="42.9596583" lon="10.7965783"><ele>28.0</ele><time>2026-05-03T07:45:03.914Z</time></trkpt><trkpt lat="42.9597967" lon="10.796705"><ele>28.0</ele><time>2026-05-03T07:45:04.913Z</time></trkpt><trkpt lat="42.959935" lon="10.7968333"><ele>26.666666666666668</ele><time>2026-05-03T07:45:05.914Z</time></trkpt><trkpt lat="42.9600733" lon="10.79696"><ele>25.333333333333336</ele><time>2026-05-03T07:45:06.913Z</time></trkpt><trkpt lat="42.9602167" lon="10.7970917"><ele>24.0</ele><time>2026-05-03T07:45:07.914Z</time></trkpt><trkpt lat="42.9603717" lon="10.7972317"><ele>24.0</ele><time>2026-05-03T07:45:08.914Z</time></trkpt><trkpt lat="42.9605283" lon="10.7973767"><ele>24.0</ele><time>2026-05-03T07:45:09.915Z</time></trkpt><trkpt lat="42.9606867" lon="10.7975233"><ele>24.0</ele><time>2026-05-03T07:45:10.913Z</time></trkpt><trkpt lat="42.9608433" lon="10.7976717"><ele>23.333333333333332</ele><time>2026-05-03T07:45:11.913Z</time></trkpt><trkpt lat="42.9610017" lon="10.7978167"><ele>22.666666666666664</ele><time>2026-05-03T07:45:12.914Z</time></trkpt><trkpt lat="42.9611617" lon="10.79796"><ele>22.0</ele><time>2026-05-03T07:45:13.918Z</time></trkpt><trkpt lat="42.9613217" lon="10.7981033"><ele>22.0</ele><time>2026-05-03T07:45:14.915Z</time></trkpt><trkpt lat="42.96148" lon="10.7982467"><ele>22.0</ele><time>2026-05-03T07:45:15.913Z</time></trkpt><trkpt lat="42.9616383" lon="10.79839"><ele>22.0</ele><time>2026-05-03T07:45:16.914Z</time></trkpt><trkpt lat="42.9617933" lon="10.7985317"><ele>21.333333333333332</ele><time>2026-05-03T07:45:17.913Z</time></trkpt><trkpt lat="42.9619517" lon="10.798675"><ele>20.666666666666668</ele><time>2026-05-03T07:45:18.913Z</time></trkpt><trkpt lat="42.9621133" lon="10.79882"><ele>20.0</ele><time>2026-05-03T07:45:19.914Z</time></trkpt><trkpt lat="42.9622717" lon="10.7989633"><ele>20.0</ele><time>2026-05-03T07:45:20.913Z</time></trkpt><trkpt lat="42.96243" lon="10.7991033"><ele>20.0</ele><time>2026-05-03T07:45:21.914Z</time></trkpt><trkpt lat="42.9625883" lon="10.7992483"><ele>20.0</ele><time>2026-05-03T07:45:22.913Z</time></trkpt><trkpt lat="42.9627483" lon="10.79939"><ele>20.333333333333336</ele><time>2026-05-03T07:45:23.915Z</time></trkpt><trkpt lat="42.9629083" lon="10.79953"><ele>20.666666666666668</ele><time>2026-05-03T07:45:24.913Z</time></trkpt><trkpt lat="42.9630667" lon="10.799675"><ele>21.0</ele><time>2026-05-03T07:45:25.913Z</time></trkpt><trkpt lat="42.9632217" lon="10.7998167"><ele>21.0</ele><time>2026-05-03T07:45:26.91Z</time></trkpt><trkpt lat="42.96338" lon="10.7999567"><ele>21.0</ele><time>2026-05-03T07:45:27.913Z</time></trkpt><trkpt lat="42.9635367" lon="10.8000967"><ele>21.0</ele><time>2026-05-03T07:45:28.914Z</time></trkpt><trkpt lat="42.9636917" lon="10.8002367"><ele>21.0</ele><time>2026-05-03T07:45:29.912Z</time></trkpt><trkpt lat="42.9638467" lon="10.8003783"><ele>21.0</ele><time>2026-05-03T07:45:30.912Z</time></trkpt><trkpt lat="42.9640017" lon="10.8005167"><ele>21.0</ele><time>2026-05-03T07:45:31.914Z</time></trkpt><trkpt lat="42.9641567" lon="10.800655"><ele>21.0</ele><time>2026-05-03T07:45:32.913Z</time></trkpt><trkpt lat="42.9643133" lon="10.8007983"><ele>21.0</ele><time>2026-05-03T07:45:33.913Z</time></trkpt><trkpt lat="42.9644733" lon="10.8009417"><ele>21.0</ele><time>2026-05-03T07:45:34.914Z</time></trkpt><trkpt lat="42.9646333" lon="10.8010883"><ele>21.0</ele><time>2026-05-03T07:45:35.913Z</time></trkpt><trkpt lat="42.9647967" lon="10.801235"><ele>21.0</ele><time>2026-05-03T07:45:36.914Z</time></trkpt><trkpt lat="42.9649583" lon="10.801385"><ele>21.0</ele><time>2026-05-03T07:45:37.914Z</time></trkpt><trkpt lat="42.9651217" lon="10.8015333"><ele>21.0</ele><time>2026-05-03T07:45:38.914Z</time></trkpt><trkpt lat="42.9652833" lon="10.8016833"><ele>21.0</ele><time>2026-05-03T07:45:39.914Z</time></trkpt><trkpt lat="42.9654467" lon="10.8018333"><ele>21.0</ele><time>2026-05-03T07:45:40.914Z</time></trkpt><trkpt lat="42.9656117" lon="10.8019833"><ele>21.0</ele><time>2026-05-03T07:45:41.912Z</time></trkpt><trkpt lat="42.9657733" lon="10.8021367"><ele>21.0</ele><time>2026-05-03T07:45:42.914Z</time></trkpt><trkpt lat="42.965935" lon="10.80229"><ele>21.0</ele><time>2026-05-03T07:45:43.915Z</time></trkpt><trkpt lat="42.9660983" lon="10.80244"><ele>21.0</ele><time>2026-05-03T07:45:44.914Z</time></trkpt><trkpt lat="42.9662617" lon="10.8025883"><ele>21.0</ele><time>2026-05-03T07:45:45.913Z</time></trkpt><trkpt lat="42.966425" lon="10.802735"><ele>21.0</ele><time>2026-05-03T07:45:46.914Z</time></trkpt><trkpt lat="42.966585" lon="10.80288"><ele>21.333333333333332</ele><time>2026-05-03T07:45:47.915Z</time></trkpt><trkpt lat="42.9667467" lon="10.8030233"><ele>21.666666666666664</ele><time>2026-05-03T07:45:48.913Z</time></trkpt><trkpt lat="42.96691" lon="10.8031667"><ele>22.0</ele><time>2026-05-03T07:45:49.913Z</time></trkpt><trkpt lat="42.9670683" lon="10.803305"><ele>22.0</ele><time>2026-05-03T07:45:50.914Z</time></trkpt><trkpt lat="42.967215" lon="10.8034367"><ele>22.0</ele><time>2026-05-03T07:45:51.913Z</time></trkpt><trkpt lat="42.9673567" lon="10.803555"><ele>22.0</ele><time>2026-05-03T07:45:52.913Z</time></trkpt><trkpt lat="42.9674933" lon="10.80366"><ele>22.0</ele><time>2026-05-03T07:45:53.913Z</time></trkpt><trkpt lat="42.9676267" lon="10.80375"><ele>22.0</ele><time>2026-05-03T07:45:54.914Z</time></trkpt><trkpt lat="42.9677567" lon="10.80383"><ele>22.0</ele><time>2026-05-03T07:45:55.913Z</time></trkpt><trkpt lat="42.9678883" lon="10.8039017"><ele>22.0</ele><time>2026-05-03T07:45:56.915Z</time></trkpt><trkpt lat="42.96802" lon="10.8039683"><ele>22.0</ele><time>2026-05-03T07:45:57.913Z</time></trkpt><trkpt lat="42.968155" lon="10.8040283"><ele>22.0</ele><time>2026-05-03T07:45:58.914Z</time></trkpt><trkpt lat="42.9682867" lon="10.80408"><ele>22.0</ele><time>2026-05-03T07:45:59.914Z</time></trkpt><trkpt lat="42.9684117" lon="10.804125"><ele>22.0</ele><time>2026-05-03T07:46:00.913Z</time></trkpt><trkpt lat="42.9685333" lon="10.8041667"><ele>22.400000000000002</ele><time>2026-05-03T07:46:01.911Z</time></trkpt><trkpt lat="42.968645" lon="10.8042133"><ele>22.8</ele><time>2026-05-03T07:46:02.914Z</time></trkpt><trkpt lat="42.9687383" lon="10.8042717"><ele>23.2</ele><time>2026-05-03T07:46:03.913Z</time></trkpt><trkpt lat="42.96882" lon="10.8043383"><ele>23.6</ele><time>2026-05-03T07:46:04.913Z</time></trkpt><trkpt lat="42.9688867" lon="10.8044117"><ele>24.0</ele><time>2026-05-03T07:46:05.914Z</time></trkpt><trkpt lat="42.9689533" lon="10.8044817"><ele>24.166666666666668</ele><time>2026-05-03T07:46:06.916Z</time></trkpt><trkpt lat="42.9690217" lon="10.8045283"><ele>24.333333333333336</ele><time>2026-05-03T07:46:07.915Z</time></trkpt><trkpt lat="42.9690917" lon="10.8045483"><ele>24.5</ele><time>2026-05-03T07:46:08.914Z</time></trkpt><trkpt lat="42.9691617" lon="10.804535"><ele>24.666666666666668</ele><time>2026-05-03T07:46:09.915Z</time></trkpt><trkpt lat="42.969225" lon="10.804455"><ele>24.833333333333336</ele><time>2026-05-03T07:46:10.913Z</time></trkpt><trkpt lat="42.969275" lon="10.8043517"><ele>25.0</ele><time>2026-05-03T07:46:11.914Z</time></trkpt><trkpt lat="42.96933" lon="10.8042383"><ele>25.0</ele><time>2026-05-03T07:46:12.914Z</time></trkpt><trkpt lat="42.9693833" lon="10.8041467"><ele>25.0</ele><time>2026-05-03T07:46:13.914Z</time></trkpt><trkpt lat="42.96945" lon="10.8040667"><ele>25.0</ele><time>2026-05-03T07:46:14.914Z</time></trkpt><trkpt lat="42.9695367" lon="10.8040283"><ele>25.0</ele><time>2026-05-03T07:46:15.916Z</time></trkpt><trkpt lat="42.9696333" lon="10.8040517"><ele>25.0</ele><time>2026-05-03T07:46:16.914Z</time></trkpt><trkpt lat="42.9697383" lon="10.8041383"><ele>25.0</ele><time>2026-05-03T07:46:17.916Z</time></trkpt><trkpt lat="42.9698567" lon="10.80426"><ele>25.0</ele><time>2026-05-03T07:46:18.914Z</time></trkpt><trkpt lat="42.9699683" lon="10.8043717"><ele>25.0</ele><time>2026-05-03T07:46:19.914Z</time></trkpt><trkpt lat="42.970075" lon="10.8044717"><ele>25.0</ele><time>2026-05-03T07:46:20.914Z</time></trkpt><trkpt lat="42.97019" lon="10.8045583"><ele>24.75</ele><time>2026-05-03T07:46:21.916Z</time></trkpt><trkpt lat="42.97032" lon="10.8046117"><ele>24.5</ele><time>2026-05-03T07:46:22.913Z</time></trkpt><trkpt lat="42.970455" lon="10.80463"><ele>24.25</ele><time>2026-05-03T07:46:23.914Z</time></trkpt><trkpt lat="42.9706017" lon="10.804625"><ele>24.0</ele><time>2026-05-03T07:46:24.914Z</time></trkpt><trkpt lat="42.97075" lon="10.804605"><ele>24.333333333333336</ele><time>2026-05-03T07:46:25.914Z</time></trkpt><trkpt lat="42.9709033" lon="10.8045833"><ele>24.666666666666668</ele><time>2026-05-03T07:46:26.915Z</time></trkpt><trkpt lat="42.9710617" lon="10.80456"><ele>25.0</ele><time>2026-05-03T07:46:27.915Z</time></trkpt><trkpt lat="42.9712267" lon="10.8045383"><ele>25.0</ele><time>2026-05-03T07:46:28.914Z</time></trkpt><trkpt lat="42.9713933" lon="10.804515"><ele>25.0</ele><time>2026-05-03T07:46:29.914Z</time></trkpt><trkpt lat="42.97156" lon="10.8044967"><ele>25.0</ele><time>2026-05-03T07:46:30.915Z</time></trkpt><trkpt lat="42.9717283" lon="10.8044733"><ele>25.333333333333336</ele><time>2026-05-03T07:46:31.913Z</time></trkpt><trkpt lat="42.9719" lon="10.8044467"><ele>25.666666666666664</ele><time>2026-05-03T07:46:32.914Z</time></trkpt><trkpt lat="42.97207" lon="10.8044217"><ele>26.0</ele><time>2026-05-03T07:46:33.914Z</time></trkpt><trkpt lat="42.97224" lon="10.8043967"><ele>26.0</ele><time>2026-05-03T07:46:34.915Z</time></trkpt><trkpt lat="42.97241" lon="10.8043717"><ele>26.0</ele><time>2026-05-03T07:46:35.914Z</time></trkpt><trkpt lat="42.97258" lon="10.8043467"><ele>26.0</ele><time>2026-05-03T07:46:36.915Z</time></trkpt><trkpt lat="42.9727483" lon="10.8043233"><ele>26.0</ele><time>2026-05-03T07:46:37.914Z</time></trkpt><trkpt lat="42.9729217" lon="10.8042983"><ele>26.0</ele><time>2026-05-03T07:46:38.913Z</time></trkpt><trkpt lat="42.973095" lon="10.8042717"><ele>26.0</ele><time>2026-05-03T07:46:39.914Z</time></trkpt><trkpt lat="42.9732667" lon="10.804245"><ele>26.333333333333332</ele><time>2026-05-03T07:46:40.914Z</time></trkpt><trkpt lat="42.97344" lon="10.8042133"><ele>26.666666666666664</ele><time>2026-05-03T07:46:41.914Z</time></trkpt><trkpt lat="42.9736117" lon="10.804185"><ele>27.0</ele><time>2026-05-03T07:46:42.915Z</time></trkpt><trkpt lat="42.9737833" lon="10.80416"><ele>27.0</ele><time>2026-05-03T07:46:43.915Z</time></trkpt><trkpt lat="42.9739583" lon="10.8041333"><ele>27.0</ele><time>2026-05-03T07:46:44.914Z</time></trkpt><trkpt lat="42.9741333" lon="10.8041167"><ele>27.0</ele><time>2026-05-03T07:46:45.915Z</time></trkpt><trkpt lat="42.9743133" lon="10.8041"><ele>27.0</ele><time>2026-05-03T07:46:46.914Z</time></trkpt><trkpt lat="42.974505" lon="10.8040783"><ele>27.0</ele><time>2026-05-03T07:46:47.914Z</time></trkpt><trkpt lat="42.9746917" lon="10.8040533"><ele>27.0</ele><time>2026-05-03T07:46:48.913Z</time></trkpt><trkpt lat="42.974865" lon="10.804025"><ele>27.666666666666664</ele><time>2026-05-03T07:46:49.914Z</time></trkpt><trkpt lat="42.975025" lon="10.804"><ele>28.333333333333332</ele><time>2026-05-03T07:46:50.914Z</time></trkpt><trkpt lat="42.9751767" lon="10.8039767"><ele>29.0</ele><time>2026-05-03T07:46:51.914Z</time></trkpt><trkpt lat="42.9753217" lon="10.8039567"><ele>29.0</ele><time>2026-05-03T07:46:52.914Z</time></trkpt><trkpt lat="42.9754583" lon="10.803935"><ele>29.0</ele><time>2026-05-03T07:46:53.915Z</time></trkpt><trkpt lat="42.9755883" lon="10.80392"><ele>29.0</ele><time>2026-05-03T07:46:54.915Z</time></trkpt><trkpt lat="42.9757183" lon="10.8039033"><ele>29.0</ele><time>2026-05-03T07:46:55.914Z</time></trkpt><trkpt lat="42.975855" lon="10.8038867"><ele>28.666666666666664</ele><time>2026-05-03T07:46:56.914Z</time></trkpt><trkpt lat="42.976" lon="10.8038683"><ele>28.333333333333336</ele><time>2026-05-03T07:46:57.915Z</time></trkpt><trkpt lat="42.976155" lon="10.8038433"><ele>28.0</ele><time>2026-05-03T07:46:58.915Z</time></trkpt><trkpt lat="42.97632" lon="10.8038183"><ele>28.0</ele><time>2026-05-03T07:46:59.914Z</time></trkpt><trkpt lat="42.9764967" lon="10.8037917"><ele>28.0</ele><time>2026-05-03T07:47:00.915Z</time></trkpt><trkpt lat="42.9766833" lon="10.803765"><ele>28.0</ele><time>2026-05-03T07:47:01.915Z</time></trkpt><trkpt lat="42.97688" lon="10.8037367"><ele>28.666666666666668</ele><time>2026-05-03T07:47:02.914Z</time></trkpt><trkpt lat="42.9770783" lon="10.80371"><ele>29.333333333333336</ele><time>2026-05-03T07:47:03.914Z</time></trkpt><trkpt lat="42.9772733" lon="10.8036833"><ele>30.0</ele><time>2026-05-03T07:47:04.913Z</time></trkpt><trkpt lat="42.977465" lon="10.8036567"><ele>29.666666666666664</ele><time>2026-05-03T07:47:05.915Z</time></trkpt><trkpt lat="42.9776533" lon="10.803625"><ele>29.333333333333332</ele><time>2026-05-03T07:47:06.914Z</time></trkpt><trkpt lat="42.977845" lon="10.8036"><ele>29.0</ele><time>2026-05-03T07:47:07.914Z</time></trkpt><trkpt lat="42.9780367" lon="10.803575"><ele>29.0</ele><time>2026-05-03T07:47:08.915Z</time></trkpt><trkpt lat="42.9782283" lon="10.803545"><ele>29.0</ele><time>2026-05-03T07:47:09.913Z</time></trkpt><trkpt lat="42.978415" lon="10.8035167"><ele>29.0</ele><time>2026-05-03T07:47:10.914Z</time></trkpt><trkpt lat="42.9786" lon="10.8034883"><ele>30.333333333333332</ele><time>2026-05-03T07:47:11.914Z</time></trkpt><trkpt lat="42.978775" lon="10.80346"><ele>31.666666666666664</ele><time>2026-05-03T07:47:12.914Z</time></trkpt><trkpt lat="42.97895" lon="10.8034283"><ele>33.0</ele><time>2026-05-03T07:47:13.914Z</time></trkpt><trkpt lat="42.979125" lon="10.8033967"><ele>32.666666666666664</ele><time>2026-05-03T07:47:14.915Z</time></trkpt><trkpt lat="42.9793017" lon="10.80337"><ele>32.33333333333333</ele><time>2026-05-03T07:47:15.914Z</time></trkpt><trkpt lat="42.97948" lon="10.8033533"><ele>32.0</ele><time>2026-05-03T07:47:16.914Z</time></trkpt><trkpt lat="42.97966" lon="10.8033333"><ele>32.0</ele><time>2026-05-03T07:47:17.914Z</time></trkpt><trkpt lat="42.9798417" lon="10.8033083"><ele>32.0</ele><time>2026-05-03T07:47:18.914Z</time></trkpt><trkpt lat="42.98002" lon="10.8032833"><ele>32.0</ele><time>2026-05-03T07:47:19.915Z</time></trkpt><trkpt lat="42.9802" lon="10.803255"><ele>33.0</ele><time>2026-05-03T07:47:20.914Z</time></trkpt><trkpt lat="42.9803783" lon="10.8032283"><ele>34.0</ele><time>2026-05-03T07:47:21.914Z</time></trkpt><trkpt lat="42.9805583" lon="10.8032017"><ele>35.0</ele><time>2026-05-03T07:47:22.915Z</time></trkpt><trkpt lat="42.9807383" lon="10.803175"><ele>35.33333333333333</ele><time>2026-05-03T07:47:23.914Z</time></trkpt><trkpt lat="42.980915" lon="10.8031467"><ele>35.666666666666664</ele><time>2026-05-03T07:47:24.914Z</time></trkpt><trkpt lat="42.981095" lon="10.8031183"><ele>36.0</ele><time>2026-05-03T07:47:25.915Z</time></trkpt><trkpt lat="42.9812733" lon="10.8030933"><ele>36.0</ele><time>2026-05-03T07:47:26.912Z</time></trkpt><trkpt lat="42.9814467" lon="10.8030767"><ele>36.0</ele><time>2026-05-03T07:47:27.911Z</time></trkpt><trkpt lat="42.981615" lon="10.8030633"><ele>36.0</ele><time>2026-05-03T07:47:28.913Z</time></trkpt><trkpt lat="42.9817883" lon="10.8030367"><ele>36.0</ele><time>2026-05-03T07:47:29.912Z</time></trkpt><trkpt lat="42.9819667" lon="10.80299"><ele>36.0</ele><time>2026-05-03T07:47:30.913Z</time></trkpt><trkpt lat="42.98214" lon="10.8029317"><ele>36.0</ele><time>2026-05-03T07:47:31.911Z</time></trkpt><trkpt lat="42.9823067" lon="10.8028633"><ele>36.0</ele><time>2026-05-03T07:47:32.913Z</time></trkpt><trkpt lat="42.9824733" lon="10.8027733"><ele>36.0</ele><time>2026-05-03T07:47:33.914Z</time></trkpt><trkpt lat="42.98264" lon="10.8026767"><ele>36.0</ele><time>2026-05-03T07:47:34.915Z</time></trkpt><trkpt lat="42.9828017" lon="10.80257"><ele>35.666666666666664</ele><time>2026-05-03T07:47:35.914Z</time></trkpt><trkpt lat="42.9829633" lon="10.8024467"><ele>35.33333333333333</ele><time>2026-05-03T07:47:36.915Z</time></trkpt><trkpt lat="42.9831183" lon="10.8023133"><ele>35.0</ele><time>2026-05-03T07:47:37.914Z</time></trkpt><trkpt lat="42.9832667" lon="10.8021717"><ele>35.0</ele><time>2026-05-03T07:47:38.914Z</time></trkpt><trkpt lat="42.9834083" lon="10.8020233"><ele>35.0</ele><time>2026-05-03T07:47:39.914Z</time></trkpt><trkpt lat="42.98355" lon="10.8018633"><ele>35.0</ele><time>2026-05-03T07:47:40.914Z</time></trkpt><trkpt lat="42.9836883" lon="10.8016983"><ele>35.0</ele><time>2026-05-03T07:47:41.914Z</time></trkpt><trkpt lat="42.983825" lon="10.8015333"><ele>35.0</ele><time>2026-05-03T07:47:42.913Z</time></trkpt><trkpt lat="42.9839617" lon="10.8013733"><ele>35.0</ele><time>2026-05-03T07:47:43.915Z</time></trkpt><trkpt lat="42.9841017" lon="10.80121"><ele>35.0</ele><time>2026-05-03T07:47:44.914Z</time></trkpt><trkpt lat="42.9842383" lon="10.8010483"><ele>35.0</ele><time>2026-05-03T07:47:45.915Z</time></trkpt><trkpt lat="42.9843733" lon="10.8008833"><ele>35.0</ele><time>2026-05-03T07:47:46.915Z</time></trkpt><trkpt lat="42.984505" lon="10.8007133"><ele>35.0</ele><time>2026-05-03T07:47:47.914Z</time></trkpt><trkpt lat="42.984635" lon="10.800545"><ele>35.0</ele><time>2026-05-03T07:47:48.918Z</time></trkpt><trkpt lat="42.9847683" lon="10.8003833"><ele>35.0</ele><time>2026-05-03T07:47:49.915Z</time></trkpt><trkpt lat="42.9849" lon="10.8002183"><ele>35.666666666666664</ele><time>2026-05-03T07:47:50.914Z</time></trkpt><trkpt lat="42.9850317" lon="10.800055"><ele>36.333333333333336</ele><time>2026-05-03T07:47:51.915Z</time></trkpt><trkpt lat="42.9851633" lon="10.7998883"><ele>37.0</ele><time>2026-05-03T07:47:52.914Z</time></trkpt><trkpt lat="42.9852967" lon="10.7997317"><ele>37.0</ele><time>2026-05-03T07:47:53.914Z</time></trkpt><trkpt lat="42.9854333" lon="10.7995783"><ele>37.0</ele><time>2026-05-03T07:47:54.916Z</time></trkpt><trkpt lat="42.98557" lon="10.7994317"><ele>37.0</ele><time>2026-05-03T07:47:55.915Z</time></trkpt><trkpt lat="42.9857117" lon="10.7992933"><ele>37.0</ele><time>2026-05-03T07:47:56.915Z</time></trkpt><trkpt lat="42.98586" lon="10.7991617"><ele>37.0</ele><time>2026-05-03T07:47:57.914Z</time></trkpt><trkpt lat="42.986015" lon="10.79904"><ele>37.0</ele><time>2026-05-03T07:47:58.914Z</time></trkpt><trkpt lat="42.9861733" lon="10.798925"><ele>37.0</ele><time>2026-05-03T07:47:59.914Z</time></trkpt><trkpt lat="42.9863383" lon="10.79883"><ele>37.0</ele><time>2026-05-03T07:48:00.914Z</time></trkpt><trkpt lat="42.9865083" lon="10.7987467"><ele>37.0</ele><time>2026-05-03T07:48:01.914Z</time></trkpt><trkpt lat="42.986685" lon="10.7986767"><ele>37.66666666666667</ele><time>2026-05-03T07:48:02.915Z</time></trkpt><trkpt lat="42.9868617" lon="10.7986217"><ele>38.333333333333336</ele><time>2026-05-03T07:48:03.915Z</time></trkpt><trkpt lat="42.9870433" lon="10.7985783"><ele>39.0</ele><time>2026-05-03T07:48:04.915Z</time></trkpt><trkpt lat="42.9872283" lon="10.79855"><ele>39.0</ele><time>2026-05-03T07:48:05.918Z</time></trkpt><trkpt lat="42.9874167" lon="10.7985267"><ele>39.0</ele><time>2026-05-03T07:48:06.914Z</time></trkpt><trkpt lat="42.9876067" lon="10.7985167"><ele>39.0</ele><time>2026-05-03T07:48:07.914Z</time></trkpt><trkpt lat="42.987795" lon="10.7985033"><ele>39.333333333333336</ele><time>2026-05-03T07:48:08.914Z</time></trkpt><trkpt lat="42.9879867" lon="10.798495"><ele>39.66666666666667</ele><time>2026-05-03T07:48:09.914Z</time></trkpt><trkpt lat="42.9881817" lon="10.7984833"><ele>40.0</ele><time>2026-05-03T07:48:10.914Z</time></trkpt><trkpt lat="42.9883783" lon="10.7984733"><ele>40.0</ele><time>2026-05-03T07:48:11.915Z</time></trkpt><trkpt lat="42.988575" lon="10.79847"><ele>40.0</ele><time>2026-05-03T07:48:12.914Z</time></trkpt><trkpt lat="42.98877" lon="10.798465"><ele>40.0</ele><time>2026-05-03T07:48:13.914Z</time></trkpt><trkpt lat="42.9889633" lon="10.7984533"><ele>40.0</ele><time>2026-05-03T07:48:14.915Z</time></trkpt><trkpt lat="42.98916" lon="10.798445"><ele>40.0</ele><time>2026-05-03T07:48:15.915Z</time></trkpt><trkpt lat="42.989355" lon="10.79844"><ele>40.0</ele><time>2026-05-03T07:48:16.914Z</time></trkpt><trkpt lat="42.98955" lon="10.7984333"><ele>40.66666666666667</ele><time>2026-05-03T07:48:17.914Z</time></trkpt><trkpt lat="42.9897467" lon="10.798425"><ele>41.333333333333336</ele><time>2026-05-03T07:48:18.914Z</time></trkpt><trkpt lat="42.9899483" lon="10.798415"><ele>42.0</ele><time>2026-05-03T07:48:19.914Z</time></trkpt><trkpt lat="42.990155" lon="10.798405"><ele>42.0</ele><time>2026-05-03T07:48:20.914Z</time></trkpt><trkpt lat="42.9903633" lon="10.798395"><ele>42.0</ele><time>2026-05-03T07:48:21.914Z</time></trkpt><trkpt lat="42.99057" lon="10.7983883"><ele>42.0</ele><time>2026-05-03T07:48:22.915Z</time></trkpt><trkpt lat="42.990775" lon="10.7983783"><ele>42.0</ele><time>2026-05-03T07:48:23.914Z</time></trkpt><trkpt lat="42.9909733" lon="10.798355"><ele>42.0</ele><time>2026-05-03T07:48:24.915Z</time></trkpt><trkpt lat="42.9911733" lon="10.7983183"><ele>42.0</ele><time>2026-05-03T07:48:25.918Z</time></trkpt><trkpt lat="42.9913717" lon="10.7982617"><ele>42.0</ele><time>2026-05-03T07:48:26.914Z</time></trkpt><trkpt lat="42.9915683" lon="10.7981867"><ele>42.0</ele><time>2026-05-03T07:48:27.913Z</time></trkpt><trkpt lat="42.99176" lon="10.7981"><ele>42.0</ele><time>2026-05-03T07:48:28.913Z</time></trkpt><trkpt lat="42.9919467" lon="10.797995"><ele>42.0</ele><time>2026-05-03T07:48:29.914Z</time></trkpt><trkpt lat="42.9921283" lon="10.7978733"><ele>42.0</ele><time>2026-05-03T07:48:30.913Z</time></trkpt><trkpt lat="42.992305" lon="10.797735"><ele>42.0</ele><time>2026-05-03T07:48:31.91Z</time></trkpt><trkpt lat="42.9924767" lon="10.7975833"><ele>41.333333333333336</ele><time>2026-05-03T07:48:32.913Z</time></trkpt><trkpt lat="42.9926383" lon="10.7974133"><ele>40.66666666666667</ele><time>2026-05-03T07:48:33.913Z</time></trkpt><trkpt lat="42.9927917" lon="10.7972283"><ele>40.0</ele><time>2026-05-03T07:48:34.913Z</time></trkpt><trkpt lat="42.9929417" lon="10.7970333"><ele>40.0</ele><time>2026-05-03T07:48:35.914Z</time></trkpt><trkpt lat="42.99309" lon="10.7968383"><ele>40.0</ele><time>2026-05-03T07:48:36.913Z</time></trkpt><trkpt lat="42.99324" lon="10.7966517"><ele>40.0</ele><time>2026-05-03T07:48:37.913Z</time></trkpt><trkpt lat="42.993395" lon="10.7964633"><ele>41.0</ele><time>2026-05-03T07:48:38.913Z</time></trkpt><trkpt lat="42.9935567" lon="10.7962867"><ele>42.0</ele><time>2026-05-03T07:48:39.914Z</time></trkpt><trkpt lat="42.9937217" lon="10.7961217"><ele>43.0</ele><time>2026-05-03T07:48:40.913Z</time></trkpt><trkpt lat="42.9938933" lon="10.7959717"><ele>43.333333333333336</ele><time>2026-05-03T07:48:41.915Z</time></trkpt><trkpt lat="42.9940683" lon="10.795835"><ele>43.666666666666664</ele><time>2026-05-03T07:48:42.915Z</time></trkpt><trkpt lat="42.994245" lon="10.7957117"><ele>44.0</ele><time>2026-05-03T07:48:43.913Z</time></trkpt><trkpt lat="42.9944233" lon="10.7956"><ele>44.0</ele><time>2026-05-03T07:48:44.915Z</time></trkpt><trkpt lat="42.994605" lon="10.7954967"><ele>44.0</ele><time>2026-05-03T07:48:45.915Z</time></trkpt><trkpt lat="42.9947867" lon="10.7953933"><ele>44.0</ele><time>2026-05-03T07:48:46.913Z</time></trkpt><trkpt lat="42.9949683" lon="10.79529"><ele>44.33333333333333</ele><time>2026-05-03T07:48:47.913Z</time></trkpt><trkpt lat="42.995145" lon="10.7951867"><ele>44.666666666666664</ele><time>2026-05-03T07:48:48.913Z</time></trkpt><trkpt lat="42.995315" lon="10.7950867"><ele>45.0</ele><time>2026-05-03T07:48:49.913Z</time></trkpt><trkpt lat="42.9954783" lon="10.794995"><ele>45.0</ele><time>2026-05-03T07:48:50.913Z</time></trkpt><trkpt lat="42.9956417" lon="10.7949033"><ele>45.0</ele><time>2026-05-03T07:48:51.913Z</time></trkpt><trkpt lat="42.9959567" lon="10.7947333"><ele>45.0</ele><time>2026-05-03T07:48:53.913Z</time></trkpt><trkpt lat="42.9961033" lon="10.79465"><ele>45.0</ele><time>2026-05-03T07:48:54.913Z</time></trkpt><trkpt lat="42.996245" lon="10.794565"><ele>45.0</ele><time>2026-05-03T07:48:55.913Z</time></trkpt><trkpt lat="42.9963833" lon="10.7944817"><ele>45.0</ele><time>2026-05-03T07:48:56.913Z</time></trkpt><trkpt lat="42.9965217" lon="10.7944033"><ele>45.0</ele><time>2026-05-03T07:48:57.913Z</time></trkpt><trkpt lat="42.9966583" lon="10.7943267"><ele>45.0</ele><time>2026-05-03T07:48:58.913Z</time></trkpt><trkpt lat="42.996795" lon="10.79424"><ele>45.0</ele><time>2026-05-03T07:48:59.913Z</time></trkpt><trkpt lat="42.9969283" lon="10.7941533"><ele>46.0</ele><time>2026-05-03T07:49:00.914Z</time></trkpt><trkpt lat="42.9970633" lon="10.794075"><ele>47.0</ele><time>2026-05-03T07:49:01.913Z</time></trkpt><trkpt lat="42.9972" lon="10.7939917"><ele>48.0</ele><time>2026-05-03T07:49:02.913Z</time></trkpt><trkpt lat="42.99734" lon="10.7939133"><ele>49.0</ele><time>2026-05-03T07:49:03.914Z</time></trkpt><trkpt lat="42.9974833" lon="10.79383"><ele>48.33333333333333</ele><time>2026-05-03T07:49:04.913Z</time></trkpt><trkpt lat="42.9976283" lon="10.79375"><ele>47.666666666666664</ele><time>2026-05-03T07:49:05.913Z</time></trkpt><trkpt lat="42.9977733" lon="10.7936667"><ele>47.0</ele><time>2026-05-03T07:49:06.914Z</time></trkpt><trkpt lat="42.9979217" lon="10.7935833"><ele>47.33333333333333</ele><time>2026-05-03T07:49:07.913Z</time></trkpt><trkpt lat="42.99807" lon="10.793495"><ele>47.666666666666664</ele><time>2026-05-03T07:49:08.914Z</time></trkpt><trkpt lat="42.9982183" lon="10.7934133"><ele>48.0</ele><time>2026-05-03T07:49:09.914Z</time></trkpt><trkpt lat="42.998365" lon="10.7933283"><ele>48.0</ele><time>2026-05-03T07:49:10.913Z</time></trkpt><trkpt lat="42.9985117" lon="10.79324"><ele>48.0</ele><time>2026-05-03T07:49:11.913Z</time></trkpt><trkpt lat="42.99866" lon="10.7931517"><ele>48.0</ele><time>2026-05-03T07:49:12.914Z</time></trkpt><trkpt lat="42.9988067" lon="10.79308"><ele>48.0</ele><time>2026-05-03T07:49:13.914Z</time></trkpt><trkpt lat="42.99895" lon="10.7930017"><ele>48.0</ele><time>2026-05-03T07:49:14.914Z</time></trkpt><trkpt lat="42.9990917" lon="10.7929167"><ele>48.0</ele><time>2026-05-03T07:49:15.913Z</time></trkpt><trkpt lat="42.9992333" lon="10.792825"><ele>47.75</ele><time>2026-05-03T07:49:16.913Z</time></trkpt><trkpt lat="42.9993717" lon="10.79274"><ele>47.5</ele><time>2026-05-03T07:49:17.911Z</time></trkpt><trkpt lat="42.9995067" lon="10.792665"><ele>47.25</ele><time>2026-05-03T07:49:18.913Z</time></trkpt><trkpt lat="42.9996317" lon="10.792595"><ele>47.0</ele><time>2026-05-03T07:49:19.914Z</time></trkpt><trkpt lat="42.9997433" lon="10.7925383"><ele>47.0</ele><time>2026-05-03T07:49:20.914Z</time></trkpt><trkpt lat="42.9998417" lon="10.7925167"><ele>47.0</ele><time>2026-05-03T07:49:21.913Z</time></trkpt><trkpt lat="42.99993" lon="10.79253"><ele>47.0</ele><time>2026-05-03T07:49:22.913Z</time></trkpt><trkpt lat="43.0000117" lon="10.7925817"><ele>47.0</ele><time>2026-05-03T07:49:23.913Z</time></trkpt><trkpt lat="43.000075" lon="10.792665"><ele>47.0</ele><time>2026-05-03T07:49:24.915Z</time></trkpt><trkpt lat="43.0001217" lon="10.7927817"><ele>47.0</ele><time>2026-05-03T07:49:25.913Z</time></trkpt><trkpt lat="43.000175" lon="10.79291"><ele>47.0</ele><time>2026-05-03T07:49:26.913Z</time></trkpt><trkpt lat="43.0002367" lon="10.793035"><ele>47.0</ele><time>2026-05-03T07:49:27.911Z</time></trkpt><trkpt lat="43.000315" lon="10.7931367"><ele>47.0</ele><time>2026-05-03T07:49:28.911Z</time></trkpt><trkpt lat="43.00042" lon="10.793205"><ele>47.0</ele><time>2026-05-03T07:49:29.913Z</time></trkpt><trkpt lat="43.000545" lon="10.7932317"><ele>47.0</ele><time>2026-05-03T07:49:30.911Z</time></trkpt><trkpt lat="43.0006733" lon="10.793205"><ele>47.0</ele><time>2026-05-03T07:49:31.913Z</time></trkpt><trkpt lat="43.0007933" lon="10.7931383"><ele>47.0</ele><time>2026-05-03T07:49:32.914Z</time></trkpt><trkpt lat="43.0008967" lon="10.7930583"><ele>47.0</ele><time>2026-05-03T07:49:33.912Z</time></trkpt><trkpt lat="43.0009967" lon="10.7929783"><ele>47.400000000000006</ele><time>2026-05-03T07:49:34.913Z</time></trkpt><trkpt lat="43.00109" lon="10.792895"><ele>47.800000000000004</ele><time>2026-05-03T07:49:35.913Z</time></trkpt><trkpt lat="43.0011783" lon="10.7928183"><ele>48.2</ele><time>2026-05-03T07:49:36.912Z</time></trkpt><trkpt lat="43.00126" lon="10.79277"><ele>48.6</ele><time>2026-05-03T07:49:37.913Z</time></trkpt><trkpt lat="43.00134" lon="10.7927467"><ele>49.0</ele><time>2026-05-03T07:49:38.913Z</time></trkpt><trkpt lat="43.001425" lon="10.7927733"><ele>49.0</ele><time>2026-05-03T07:49:39.914Z</time></trkpt><trkpt lat="43.0015267" lon="10.7928383"><ele>49.0</ele><time>2026-05-03T07:49:40.913Z</time></trkpt><trkpt lat="43.0016333" lon="10.7929033"><ele>49.0</ele><time>2026-05-03T07:49:41.913Z</time></trkpt><trkpt lat="43.0017483" lon="10.7929683"><ele>49.0</ele><time>2026-05-03T07:49:42.914Z</time></trkpt><trkpt lat="43.0018667" lon="10.793035"><ele>49.0</ele><time>2026-05-03T07:49:43.913Z</time></trkpt><trkpt lat="43.00199" lon="10.7931017"><ele>49.0</ele><time>2026-05-03T07:49:44.913Z</time></trkpt><trkpt lat="43.0021167" lon="10.7931683"><ele>49.0</ele><time>2026-05-03T07:49:45.913Z</time></trkpt><trkpt lat="43.002245" lon="10.7932383"><ele>49.0</ele><time>2026-05-03T07:49:46.914Z</time></trkpt><trkpt lat="43.0023733" lon="10.79331"><ele>49.25</ele><time>2026-05-03T07:49:47.913Z</time></trkpt><trkpt lat="43.002505" lon="10.7933817"><ele>49.5</ele><time>2026-05-03T07:49:48.913Z</time></trkpt><trkpt lat="43.0026383" lon="10.7934533"><ele>49.75</ele><time>2026-05-03T07:49:49.913Z</time></trkpt><trkpt lat="43.0027717" lon="10.79352"><ele>50.0</ele><time>2026-05-03T07:49:50.914Z</time></trkpt><trkpt lat="43.0029083" lon="10.7935833"><ele>50.0</ele><time>2026-05-03T07:49:51.914Z</time></trkpt><trkpt lat="43.0030483" lon="10.793635"><ele>50.0</ele><time>2026-05-03T07:49:52.914Z</time></trkpt><trkpt lat="43.00319" lon="10.793675"><ele>50.0</ele><time>2026-05-03T07:49:53.911Z</time></trkpt><trkpt lat="43.0033317" lon="10.793715"><ele>50.0</ele><time>2026-05-03T07:49:54.913Z</time></trkpt><trkpt lat="43.0034783" lon="10.793755"><ele>50.25</ele><time>2026-05-03T07:49:55.913Z</time></trkpt><trkpt lat="43.003625" lon="10.793795"><ele>50.5</ele><time>2026-05-03T07:49:56.914Z</time></trkpt><trkpt lat="43.0037717" lon="10.7938333"><ele>50.75</ele><time>2026-05-03T07:49:57.91Z</time></trkpt><trkpt lat="43.0039183" lon="10.7938717"><ele>51.0</ele><time>2026-05-03T07:49:58.912Z</time></trkpt><trkpt lat="43.004065" lon="10.7939117"><ele>51.75</ele><time>2026-05-03T07:49:59.912Z</time></trkpt><trkpt lat="43.00421" lon="10.7939517"><ele>52.5</ele><time>2026-05-03T07:50:00.911Z</time></trkpt><trkpt lat="43.004355" lon="10.7939917"><ele>53.25</ele><time>2026-05-03T07:50:01.911Z</time></trkpt><trkpt lat="43.0045017" lon="10.794035"><ele>54.0</ele><time>2026-05-03T07:50:02.912Z</time></trkpt><trkpt lat="43.0046483" lon="10.79408"><ele>54.0</ele><time>2026-05-03T07:50:03.912Z</time></trkpt><trkpt lat="43.0047933" lon="10.794125"><ele>54.0</ele><time>2026-05-03T07:50:04.912Z</time></trkpt><trkpt lat="43.0049383" lon="10.7941667"><ele>54.0</ele><time>2026-05-03T07:50:05.911Z</time></trkpt><trkpt lat="43.0050817" lon="10.7942067"><ele>54.0</ele><time>2026-05-03T07:50:06.911Z</time></trkpt><trkpt lat="43.0052267" lon="10.7942467"><ele>55.25</ele><time>2026-05-03T07:50:07.91Z</time></trkpt><trkpt lat="43.0053733" lon="10.794285"><ele>56.5</ele><time>2026-05-03T07:50:08.912Z</time></trkpt><trkpt lat="43.0055183" lon="10.7943233"><ele>57.75</ele><time>2026-05-03T07:50:09.914Z</time></trkpt><trkpt lat="43.0056667" lon="10.79436"><ele>59.0</ele><time>2026-05-03T07:50:10.914Z</time></trkpt><trkpt lat="43.0058133" lon="10.7943967"><ele>64.0</ele><time>2026-05-03T07:50:11.913Z</time></trkpt><trkpt lat="43.0059617" lon="10.794435"><ele>69.0</ele><time>2026-05-03T07:50:12.915Z</time></trkpt><trkpt lat="43.00611" lon="10.794475"><ele>74.0</ele><time>2026-05-03T07:50:13.914Z</time></trkpt><trkpt lat="43.0062583" lon="10.7945183"><ele>74.0</ele><time>2026-05-03T07:50:14.914Z</time></trkpt><trkpt lat="43.006405" lon="10.7945567"><ele>74.0</ele><time>2026-05-03T07:50:15.914Z</time></trkpt><trkpt lat="43.0065517" lon="10.7945967"><ele>74.0</ele><time>2026-05-03T07:50:16.914Z</time></trkpt><trkpt lat="43.0066933" lon="10.794635"><ele>74.0</ele><time>2026-05-03T07:50:17.914Z</time></trkpt><trkpt lat="43.0068333" lon="10.7946683"><ele>74.75</ele><time>2026-05-03T07:50:18.915Z</time></trkpt><trkpt lat="43.0069717" lon="10.7947"><ele>75.5</ele><time>2026-05-03T07:50:19.914Z</time></trkpt><trkpt lat="43.0071083" lon="10.7947317"><ele>76.25</ele><time>2026-05-03T07:50:20.913Z</time></trkpt><trkpt lat="43.0072433" lon="10.7947617"><ele>77.0</ele><time>2026-05-03T07:50:21.914Z</time></trkpt><trkpt lat="43.0073767" lon="10.7947883"><ele>77.5</ele><time>2026-05-03T07:50:22.914Z</time></trkpt><trkpt lat="43.0075067" lon="10.794815"><ele>78.0</ele><time>2026-05-03T07:50:23.914Z</time></trkpt><trkpt lat="43.0076383" lon="10.7948433"><ele>78.5</ele><time>2026-05-03T07:50:24.914Z</time></trkpt><trkpt lat="43.0077733" lon="10.7948833"><ele>79.0</ele><time>2026-05-03T07:50:25.914Z</time></trkpt><trkpt lat="43.0079033" lon="10.7949383"><ele>79.0</ele><time>2026-05-03T07:50:26.914Z</time></trkpt><trkpt lat="43.0080367" lon="10.794995"><ele>79.0</ele><time>2026-05-03T07:50:27.91Z</time></trkpt><trkpt lat="43.0081767" lon="10.795045"><ele>79.0</ele><time>2026-05-03T07:50:28.912Z</time></trkpt><trkpt lat="43.0083167" lon="10.7950783"><ele>79.0</ele><time>2026-05-03T07:50:29.912Z</time></trkpt><trkpt lat="43.0084567" lon="10.795095"><ele>78.5</ele><time>2026-05-03T07:50:30.911Z</time></trkpt><trkpt lat="43.0085933" lon="10.7950983"><ele>78.0</ele><time>2026-05-03T07:50:31.912Z</time></trkpt><trkpt lat="43.0087267" lon="10.795065"><ele>77.5</ele><time>2026-05-03T07:50:32.912Z</time></trkpt><trkpt lat="43.008855" lon="10.7950067"><ele>77.0</ele><time>2026-05-03T07:50:33.914Z</time></trkpt><trkpt lat="43.0089867" lon="10.7949367"><ele>77.0</ele><time>2026-05-03T07:50:34.913Z</time></trkpt><trkpt lat="43.00912" lon="10.7948717"><ele>77.0</ele><time>2026-05-03T07:50:35.913Z</time></trkpt><trkpt lat="43.0092517" lon="10.79482"><ele>77.0</ele><time>2026-05-03T07:50:36.913Z</time></trkpt><trkpt lat="43.00939" lon="10.7947867"><ele>77.0</ele><time>2026-05-03T07:50:37.912Z</time></trkpt><trkpt lat="43.00952" lon="10.7947817"><ele>76.0</ele><time>2026-05-03T07:50:38.912Z</time></trkpt><trkpt lat="43.0096467" lon="10.79477"><ele>75.0</ele><time>2026-05-03T07:50:39.913Z</time></trkpt><trkpt lat="43.009775" lon="10.7947417"><ele>74.0</ele><time>2026-05-03T07:50:40.914Z</time></trkpt><trkpt lat="43.009905" lon="10.7946733"><ele>73.0</ele><time>2026-05-03T07:50:41.912Z</time></trkpt><trkpt lat="43.010035" lon="10.794595"><ele>70.66666666666666</ele><time>2026-05-03T07:50:42.915Z</time></trkpt><trkpt lat="43.0101717" lon="10.7945217"><ele>68.33333333333333</ele><time>2026-05-03T07:50:43.913Z</time></trkpt><trkpt lat="43.0103183" lon="10.79445"><ele>66.0</ele><time>2026-05-03T07:50:44.915Z</time></trkpt><trkpt lat="43.01047" lon="10.794375"><ele>66.0</ele><time>2026-05-03T07:50:45.915Z</time></trkpt><trkpt lat="43.0106283" lon="10.794295"><ele>66.0</ele><time>2026-05-03T07:50:46.914Z</time></trkpt><trkpt lat="43.010785" lon="10.7942233"><ele>66.0</ele><time>2026-05-03T07:50:47.914Z</time></trkpt><trkpt lat="43.0109333" lon="10.7941517"><ele>66.0</ele><time>2026-05-03T07:50:48.915Z</time></trkpt><trkpt lat="43.01107" lon="10.7940833"><ele>66.0</ele><time>2026-05-03T07:50:49.915Z</time></trkpt><trkpt lat="43.011195" lon="10.7940083"><ele>66.0</ele><time>2026-05-03T07:50:50.914Z</time></trkpt><trkpt lat="43.01131" lon="10.7939517"><ele>66.0</ele><time>2026-05-03T07:50:51.914Z</time></trkpt><trkpt lat="43.011425" lon="10.7939133"><ele>66.0</ele><time>2026-05-03T07:50:52.914Z</time></trkpt><trkpt lat="43.0115333" lon="10.793905"><ele>66.0</ele><time>2026-05-03T07:50:53.914Z</time></trkpt><trkpt lat="43.0116417" lon="10.7939417"><ele>66.0</ele><time>2026-05-03T07:50:54.915Z</time></trkpt><trkpt lat="43.01175" lon="10.7940233"><ele>66.0</ele><time>2026-05-03T07:50:55.914Z</time></trkpt><trkpt lat="43.011855" lon="10.794135"><ele>65.0</ele><time>2026-05-03T07:50:56.912Z</time></trkpt><trkpt lat="43.0119617" lon="10.7942567"><ele>64.0</ele><time>2026-05-03T07:50:57.913Z</time></trkpt><trkpt lat="43.0120717" lon="10.7943867"><ele>63.0</ele><time>2026-05-03T07:50:58.912Z</time></trkpt><trkpt lat="43.0121833" lon="10.7945183"><ele>62.0</ele><time>2026-05-03T07:50:59.914Z</time></trkpt><trkpt lat="43.0122983" lon="10.7946533"><ele>61.333333333333336</ele><time>2026-05-03T07:51:00.911Z</time></trkpt><trkpt lat="43.012415" lon="10.7947883"><ele>60.66666666666667</ele><time>2026-05-03T07:51:01.912Z</time></trkpt><trkpt lat="43.0125317" lon="10.7949233"><ele>60.0</ele><time>2026-05-03T07:51:02.913Z</time></trkpt><trkpt lat="43.0126467" lon="10.7950583"><ele>59.75</ele><time>2026-05-03T07:51:03.913Z</time></trkpt><trkpt lat="43.01276" lon="10.79519"><ele>59.5</ele><time>2026-05-03T07:51:04.912Z</time></trkpt><trkpt lat="43.012875" lon="10.7953217"><ele>59.25</ele><time>2026-05-03T07:51:05.911Z</time></trkpt><trkpt lat="43.0129917" lon="10.7954517"><ele>59.0</ele><time>2026-05-03T07:51:06.912Z</time></trkpt><trkpt lat="43.0131033" lon="10.7955867"><ele>59.0</ele><time>2026-05-03T07:51:07.912Z</time></trkpt><trkpt lat="43.01321" lon="10.7957267"><ele>59.0</ele><time>2026-05-03T07:51:08.915Z</time></trkpt><trkpt lat="43.0133117" lon="10.795865"><ele>59.0</ele><time>2026-05-03T07:51:09.91Z</time></trkpt><trkpt lat="43.01341" lon="10.795995"><ele>59.0</ele><time>2026-05-03T07:51:10.915Z</time></trkpt><trkpt lat="43.0135083" lon="10.7961017"><ele>60.0</ele><time>2026-05-03T07:51:11.914Z</time></trkpt><trkpt lat="43.0136133" lon="10.796175"><ele>61.0</ele><time>2026-05-03T07:51:12.914Z</time></trkpt><trkpt lat="43.0137267" lon="10.7962083"><ele>62.0</ele><time>2026-05-03T07:51:13.914Z</time></trkpt><trkpt lat="43.013845" lon="10.7961983"><ele>63.0</ele><time>2026-05-03T07:51:15.003Z</time></trkpt><trkpt lat="43.0139733" lon="10.7961567"><ele>63.0</ele><time>2026-05-03T07:51:15.91Z</time></trkpt><trkpt lat="43.0141017" lon="10.7961117"><ele>63.0</ele><time>2026-05-03T07:51:16.913Z</time></trkpt><trkpt lat="43.0142283" lon="10.7960633"><ele>63.0</ele><time>2026-05-03T07:51:17.914Z</time></trkpt><trkpt lat="43.0143583" lon="10.7960217"><ele>63.0</ele><time>2026-05-03T07:51:18.911Z</time></trkpt><trkpt lat="43.0144917" lon="10.79598"><ele>63.25</ele><time>2026-05-03T07:51:19.913Z</time></trkpt><trkpt lat="43.0146267" lon="10.7959433"><ele>63.5</ele><time>2026-05-03T07:51:20.916Z</time></trkpt><trkpt lat="43.0147633" lon="10.79591"><ele>63.75</ele><time>2026-05-03T07:51:21.914Z</time></trkpt><trkpt lat="43.014905" lon="10.7959"><ele>64.0</ele><time>2026-05-03T07:51:22.914Z</time></trkpt><trkpt lat="43.0150517" lon="10.79592"><ele>64.0</ele><time>2026-05-03T07:51:23.913Z</time></trkpt><trkpt lat="43.015195" lon="10.79596"><ele>64.0</ele><time>2026-05-03T07:51:24.911Z</time></trkpt><trkpt lat="43.0153383" lon="10.79602"><ele>64.0</ele><time>2026-05-03T07:51:25.914Z</time></trkpt><trkpt lat="43.0154767" lon="10.7961017"><ele>64.0</ele><time>2026-05-03T07:51:26.913Z</time></trkpt><trkpt lat="43.015615" lon="10.796195"><ele>69.0</ele><time>2026-05-03T07:51:27.914Z</time></trkpt><trkpt lat="43.01576" lon="10.796295"><ele>74.0</ele><time>2026-05-03T07:51:28.912Z</time></trkpt><trkpt lat="43.0159133" lon="10.7963983"><ele>79.0</ele><time>2026-05-03T07:51:29.913Z</time></trkpt><trkpt lat="43.016065" lon="10.7965033"><ele>79.0</ele><time>2026-05-03T07:51:30.911Z</time></trkpt><trkpt lat="43.016215" lon="10.7966067"><ele>79.0</ele><time>2026-05-03T07:51:31.911Z</time></trkpt><trkpt lat="43.0163633" lon="10.7967183"><ele>79.0</ele><time>2026-05-03T07:51:32.911Z</time></trkpt><trkpt lat="43.01651" lon="10.7968367"><ele>78.66666666666666</ele><time>2026-05-03T07:51:33.914Z</time></trkpt><trkpt lat="43.01666" lon="10.7969467"><ele>78.33333333333333</ele><time>2026-05-03T07:51:34.914Z</time></trkpt><trkpt lat="43.01681" lon="10.797055"><ele>78.0</ele><time>2026-05-03T07:51:35.915Z</time></trkpt><trkpt lat="43.0169583" lon="10.7971567"><ele>78.0</ele><time>2026-05-03T07:51:36.912Z</time></trkpt><trkpt lat="43.0170983" lon="10.7972583"><ele>78.0</ele><time>2026-05-03T07:51:37.914Z</time></trkpt><trkpt lat="43.017235" lon="10.7973483"><ele>78.0</ele><time>2026-05-03T07:51:38.914Z</time></trkpt><trkpt lat="43.0173683" lon="10.7974383"><ele>77.5</ele><time>2026-05-03T07:51:39.914Z</time></trkpt><trkpt lat="43.017495" lon="10.79752"><ele>77.0</ele><time>2026-05-03T07:51:40.914Z</time></trkpt><trkpt lat="43.0176133" lon="10.7976033"><ele>76.5</ele><time>2026-05-03T07:51:41.914Z</time></trkpt><trkpt lat="43.0177167" lon="10.7976883"><ele>76.0</ele><time>2026-05-03T07:51:42.914Z</time></trkpt><trkpt lat="43.0177917" lon="10.7977967"><ele>76.0</ele><time>2026-05-03T07:51:43.914Z</time></trkpt><trkpt lat="43.0178317" lon="10.797925"><ele>76.0</ele><time>2026-05-03T07:51:44.914Z</time></trkpt><trkpt lat="43.017825" lon="10.79806"><ele>76.0</ele><time>2026-05-03T07:51:45.915Z</time></trkpt><trkpt lat="43.0178" lon="10.7981917"><ele>76.0</ele><time>2026-05-03T07:51:46.917Z</time></trkpt><trkpt lat="43.0177883" lon="10.7983167"><ele>76.0</ele><time>2026-05-03T07:51:47.914Z</time></trkpt><trkpt lat="43.0177983" lon="10.7984417"><ele>76.0</ele><time>2026-05-03T07:51:48.915Z</time></trkpt><trkpt lat="43.0178517" lon="10.7985283"><ele>76.0</ele><time>2026-05-03T07:51:49.914Z</time></trkpt><trkpt lat="43.0179267" lon="10.7985817"><ele>76.0</ele><time>2026-05-03T07:51:50.914Z</time></trkpt><trkpt lat="43.0180117" lon="10.79859"><ele>76.0</ele><time>2026-05-03T07:51:51.914Z</time></trkpt><trkpt lat="43.0181183" lon="10.798525"><ele>76.0</ele><time>2026-05-03T07:51:52.914Z</time></trkpt><trkpt lat="43.018205" lon="10.7984033"><ele>76.0</ele><time>2026-05-03T07:51:53.915Z</time></trkpt><trkpt lat="43.018285" lon="10.798315"><ele>76.0</ele><time>2026-05-03T07:51:54.914Z</time></trkpt><trkpt lat="43.0183683" lon="10.7982217"><ele>76.0</ele><time>2026-05-03T07:51:55.913Z</time></trkpt><trkpt lat="43.0184767" lon="10.7981667"><ele>76.0</ele><time>2026-05-03T07:51:56.912Z</time></trkpt><trkpt lat="43.0185867" lon="10.7981733"><ele>76.0</ele><time>2026-05-03T07:51:57.912Z</time></trkpt><trkpt lat="43.0186933" lon="10.798225"><ele>75.75</ele><time>2026-05-03T07:51:58.912Z</time></trkpt><trkpt lat="43.0187983" lon="10.7983067"><ele>75.5</ele><time>2026-05-03T07:51:59.911Z</time></trkpt><trkpt lat="43.01889" lon="10.798415"><ele>75.25</ele><time>2026-05-03T07:52:00.911Z</time></trkpt><trkpt lat="43.0189817" lon="10.7985283"><ele>75.0</ele><time>2026-05-03T07:52:01.911Z</time></trkpt><trkpt lat="43.019075" lon="10.7986167"><ele>76.4</ele><time>2026-05-03T07:52:02.912Z</time></trkpt><trkpt lat="43.01918" lon="10.7986617"><ele>77.8</ele><time>2026-05-03T07:52:03.915Z</time></trkpt><trkpt lat="43.0192817" lon="10.798645"><ele>79.19999999999999</ele><time>2026-05-03T07:52:04.914Z</time></trkpt><trkpt lat="43.0193633" lon="10.79856"><ele>80.6</ele><time>2026-05-03T07:52:05.914Z</time></trkpt><trkpt lat="43.0194217" lon="10.7984283"><ele>82.0</ele><time>2026-05-03T07:52:06.914Z</time></trkpt><trkpt lat="43.0194817" lon="10.7983083"><ele>82.0</ele><time>2026-05-03T07:52:07.915Z</time></trkpt><trkpt lat="43.0195617" lon="10.7982133"><ele>82.0</ele><time>2026-05-03T07:52:08.913Z</time></trkpt><trkpt lat="43.0196583" lon="10.79816"><ele>82.0</ele><time>2026-05-03T07:52:09.914Z</time></trkpt><trkpt lat="43.019775" lon="10.7981467"><ele>82.0</ele><time>2026-05-03T07:52:10.913Z</time></trkpt><trkpt lat="43.0199" lon="10.7981567"><ele>85.0</ele><time>2026-05-03T07:52:11.913Z</time></trkpt><trkpt lat="43.0200317" lon="10.7981717"><ele>88.0</ele><time>2026-05-03T07:52:12.913Z</time></trkpt><trkpt lat="43.0201617" lon="10.7981867"><ele>91.0</ele><time>2026-05-03T07:52:13.914Z</time></trkpt><trkpt lat="43.0202933" lon="10.7982017"><ele>94.0</ele><time>2026-05-03T07:52:14.914Z</time></trkpt><trkpt lat="43.0204267" lon="10.79822"><ele>94.0</ele><time>2026-05-03T07:52:15.914Z</time></trkpt><trkpt lat="43.02056" lon="10.7982167"><ele>94.0</ele><time>2026-05-03T07:52:16.913Z</time></trkpt><trkpt lat="43.0206833" lon="10.798175"><ele>94.0</ele><time>2026-05-03T07:52:17.913Z</time></trkpt><trkpt lat="43.0207783" lon="10.7981017"><ele>94.0</ele><time>2026-05-03T07:52:18.917Z</time></trkpt><trkpt lat="43.0208433" lon="10.7979883"><ele>95.4</ele><time>2026-05-03T07:52:19.913Z</time></trkpt><trkpt lat="43.0208717" lon="10.79785"><ele>96.80000000000001</ele><time>2026-05-03T07:52:20.913Z</time></trkpt><trkpt lat="43.0208767" lon="10.7977"><ele>98.19999999999999</ele><time>2026-05-03T07:52:21.915Z</time></trkpt><trkpt lat="43.0208917" lon="10.7975483"><ele>99.6</ele><time>2026-05-03T07:52:22.912Z</time></trkpt><trkpt lat="43.0209317" lon="10.797415"><ele>101.0</ele><time>2026-05-03T07:52:23.914Z</time></trkpt><trkpt lat="43.020995" lon="10.797305"><ele>101.0</ele><time>2026-05-03T07:52:24.91Z</time></trkpt><trkpt lat="43.0210667" lon="10.7972383"><ele>101.0</ele><time>2026-05-03T07:52:25.911Z</time></trkpt><trkpt lat="43.0211333" lon="10.7972183"><ele>101.0</ele><time>2026-05-03T07:52:26.914Z</time></trkpt><trkpt lat="43.02121" lon="10.7972833"><ele>101.0</ele><time>2026-05-03T07:52:28.913Z</time></trkpt><trkpt lat="43.0211783" lon="10.7974217"><ele>101.0</ele><time>2026-05-03T07:52:29.911Z</time></trkpt><trkpt lat="43.021155" lon="10.797575"><ele>101.19999999999999</ele><time>2026-05-03T07:52:30.911Z</time></trkpt><trkpt lat="43.0211367" lon="10.7977133"><ele>101.39999999999999</ele><time>2026-05-03T07:52:31.914Z</time></trkpt><trkpt lat="43.0211383" lon="10.7978433"><ele>101.6</ele><time>2026-05-03T07:52:32.913Z</time></trkpt><trkpt lat="43.02115" lon="10.797955"><ele>101.8</ele><time>2026-05-03T07:52:33.914Z</time></trkpt><trkpt lat="43.0211567" lon="10.7980817"><ele>102.0</ele><time>2026-05-03T07:52:34.913Z</time></trkpt><trkpt lat="43.0211533" lon="10.798205"><ele>102.0</ele><time>2026-05-03T07:52:35.913Z</time></trkpt><trkpt lat="43.0211067" lon="10.7983117"><ele>102.0</ele><time>2026-05-03T07:52:36.913Z</time></trkpt><trkpt lat="43.0210583" lon="10.7984183"><ele>102.0</ele><time>2026-05-03T07:52:37.911Z</time></trkpt><trkpt lat="43.021005" lon="10.798515"><ele>102.0</ele><time>2026-05-03T07:52:38.912Z</time></trkpt><trkpt lat="43.02096" lon="10.79861"><ele>102.0</ele><time>2026-05-03T07:52:39.914Z</time></trkpt><trkpt lat="43.0209283" lon="10.798705"><ele>102.0</ele><time>2026-05-03T07:52:40.912Z</time></trkpt><trkpt lat="43.0209183" lon="10.7987933"><ele>103.0</ele><time>2026-05-03T07:52:41.914Z</time></trkpt><trkpt lat="43.0209517" lon="10.7989383"><ele>104.0</ele><time>2026-05-03T07:52:43.912Z</time></trkpt><trkpt lat="43.02105" lon="10.7989983"><ele>104.99999999999999</ele><time>2026-05-03T07:52:45.912Z</time></trkpt><trkpt lat="43.021115" lon="10.7989667"><ele>106.0</ele><time>2026-05-03T07:52:46.913Z</time></trkpt><trkpt lat="43.0211883" lon="10.7988817"><ele>107.0</ele><time>2026-05-03T07:52:47.913Z</time></trkpt><trkpt lat="43.0212583" lon="10.7987833"><ele>107.0</ele><time>2026-05-03T07:52:48.912Z</time></trkpt><trkpt lat="43.0213533" lon="10.798645"><ele>107.0</ele><time>2026-05-03T07:52:49.913Z</time></trkpt><trkpt lat="43.0214617" lon="10.7985133"><ele>107.0</ele><time>2026-05-03T07:52:50.914Z</time></trkpt><trkpt lat="43.0215867" lon="10.7983967"><ele>107.0</ele><time>2026-05-03T07:52:51.912Z</time></trkpt><trkpt lat="43.0217233" lon="10.79831"><ele>106.25</ele><time>2026-05-03T07:52:52.914Z</time></trkpt><trkpt lat="43.0218683" lon="10.7982433"><ele>105.5</ele><time>2026-05-03T07:52:53.914Z</time></trkpt><trkpt lat="43.0220083" lon="10.798195"><ele>104.75</ele><time>2026-05-03T07:52:54.913Z</time></trkpt><trkpt lat="43.0221467" lon="10.7981517"><ele>104.0</ele><time>2026-05-03T07:52:55.914Z</time></trkpt><trkpt lat="43.0222817" lon="10.7980833"><ele>104.0</ele><time>2026-05-03T07:52:56.914Z</time></trkpt><trkpt lat="43.0224183" lon="10.79798"><ele>104.0</ele><time>2026-05-03T07:52:57.913Z</time></trkpt><trkpt lat="43.02256" lon="10.7978517"><ele>104.0</ele><time>2026-05-03T07:52:58.913Z</time></trkpt><trkpt lat="43.02271" lon="10.7977133"><ele>105.66666666666666</ele><time>2026-05-03T07:52:59.916Z</time></trkpt><trkpt lat="43.0228617" lon="10.7975767"><ele>107.33333333333334</ele><time>2026-05-03T07:53:00.913Z</time></trkpt><trkpt lat="43.0230133" lon="10.797445"><ele>109.0</ele><time>2026-05-03T07:53:01.913Z</time></trkpt><trkpt lat="43.0231533" lon="10.79732"><ele>109.0</ele><time>2026-05-03T07:53:02.914Z</time></trkpt><trkpt lat="43.0232767" lon="10.7972083"><ele>109.0</ele><time>2026-05-03T07:53:03.915Z</time></trkpt><trkpt lat="43.023375" lon="10.797115"><ele>109.0</ele><time>2026-05-03T07:53:04.911Z</time></trkpt><trkpt lat="43.0234533" lon="10.7970383"><ele>109.0</ele><time>2026-05-03T07:53:05.914Z</time></trkpt><trkpt lat="43.0235167" lon="10.7969783"><ele>109.0</ele><time>2026-05-03T07:53:06.914Z</time></trkpt><trkpt lat="43.023575" lon="10.7969167"><ele>109.00000000000001</ele><time>2026-05-03T07:53:07.913Z</time></trkpt><trkpt lat="43.023625" lon="10.7968567"><ele>109.0</ele><time>2026-05-03T07:53:08.913Z</time></trkpt><trkpt lat="43.0236767" lon="10.7967983"><ele>109.0</ele><time>2026-05-03T07:53:09.913Z</time></trkpt><trkpt lat="43.0237367" lon="10.7967267"><ele>109.0</ele><time>2026-05-03T07:53:10.91Z</time></trkpt><trkpt lat="43.023805" lon="10.7966533"><ele>109.00000000000001</ele><time>2026-05-03T07:53:11.913Z</time></trkpt><trkpt lat="43.023885" lon="10.7965667"><ele>109.0</ele><time>2026-05-03T07:53:12.914Z</time></trkpt><trkpt lat="43.0239767" lon="10.7964767"><ele>109.0</ele><time>2026-05-03T07:53:13.915Z</time></trkpt><trkpt lat="43.0240717" lon="10.7963733"><ele>109.0</ele><time>2026-05-03T07:53:14.915Z</time></trkpt><trkpt lat="43.0241633" lon="10.7962683"><ele>109.0</ele><time>2026-05-03T07:53:15.913Z</time></trkpt><trkpt lat="43.0242517" lon="10.7961517"><ele>109.0</ele><time>2026-05-03T07:53:16.914Z</time></trkpt><trkpt lat="43.0243367" lon="10.7960233"><ele>107.25</ele><time>2026-05-03T07:53:17.914Z</time></trkpt><trkpt lat="43.02442" lon="10.7958983"><ele>105.5</ele><time>2026-05-03T07:53:18.911Z</time></trkpt><trkpt lat="43.0245117" lon="10.7957817"><ele>103.75</ele><time>2026-05-03T07:53:19.913Z</time></trkpt><trkpt lat="43.0246133" lon="10.79568"><ele>102.0</ele><time>2026-05-03T07:53:20.913Z</time></trkpt><trkpt lat="43.0247183" lon="10.7955717"><ele>102.0</ele><time>2026-05-03T07:53:21.915Z</time></trkpt><trkpt lat="43.0248233" lon="10.79545"><ele>102.0</ele><time>2026-05-03T07:53:22.914Z</time></trkpt><trkpt lat="43.0249283" lon="10.7953167"><ele>102.0</ele><time>2026-05-03T07:53:23.914Z</time></trkpt><trkpt lat="43.0250333" lon="10.7951717"><ele>102.0</ele><time>2026-05-03T07:53:24.914Z</time></trkpt><trkpt lat="43.0251383" lon="10.7950317"><ele>101.0</ele><time>2026-05-03T07:53:25.914Z</time></trkpt><trkpt lat="43.0252417" lon="10.7949033"><ele>100.0</ele><time>2026-05-03T07:53:26.915Z</time></trkpt><trkpt lat="43.0253433" lon="10.7947967"><ele>99.0</ele><time>2026-05-03T07:53:27.914Z</time></trkpt><trkpt lat="43.025445" lon="10.7947133"><ele>98.0</ele><time>2026-05-03T07:53:28.914Z</time></trkpt><trkpt lat="43.0255433" lon="10.7946733"><ele>98.0</ele><time>2026-05-03T07:53:29.917Z</time></trkpt><trkpt lat="43.025645" lon="10.794665"><ele>98.0</ele><time>2026-05-03T07:53:30.915Z</time></trkpt><trkpt lat="43.02575" lon="10.7946833"><ele>98.0</ele><time>2026-05-03T07:53:31.915Z</time></trkpt><trkpt lat="43.0258533" lon="10.794735"><ele>98.0</ele><time>2026-05-03T07:53:32.914Z</time></trkpt><trkpt lat="43.025945" lon="10.794815"><ele>98.0</ele><time>2026-05-03T07:53:33.913Z</time></trkpt><trkpt lat="43.0260167" lon="10.7949167"><ele>97.80000000000001</ele><time>2026-05-03T07:53:34.913Z</time></trkpt><trkpt lat="43.02607" lon="10.7950383"><ele>97.6</ele><time>2026-05-03T07:53:35.915Z</time></trkpt><trkpt lat="43.0260983" lon="10.795185"><ele>97.4</ele><time>2026-05-03T07:53:36.914Z</time></trkpt><trkpt lat="43.0260933" lon="10.7953417"><ele>97.19999999999999</ele><time>2026-05-03T07:53:37.914Z</time></trkpt><trkpt lat="43.0260667" lon="10.7955017"><ele>97.0</ele><time>2026-05-03T07:53:38.914Z</time></trkpt><trkpt lat="43.0260183" lon="10.79567"><ele>97.0</ele><time>2026-05-03T07:53:39.914Z</time></trkpt><trkpt lat="43.0259617" lon="10.7958367"><ele>97.0</ele><time>2026-05-03T07:53:40.915Z</time></trkpt><trkpt lat="43.0259" lon="10.796005"><ele>97.0</ele><time>2026-05-03T07:53:41.914Z</time></trkpt><trkpt lat="43.0258333" lon="10.7961783"><ele>97.0</ele><time>2026-05-03T07:53:42.914Z</time></trkpt><trkpt lat="43.0257717" lon="10.7963567"><ele>96.75</ele><time>2026-05-03T07:53:43.914Z</time></trkpt><trkpt lat="43.0257117" lon="10.79654"><ele>96.5</ele><time>2026-05-03T07:53:44.916Z</time></trkpt><trkpt lat="43.0256533" lon="10.7967283"><ele>96.25</ele><time>2026-05-03T07:53:45.914Z</time></trkpt><trkpt lat="43.0255933" lon="10.7969183"><ele>96.0</ele><time>2026-05-03T07:53:46.914Z</time></trkpt><trkpt lat="43.0255283" lon="10.797105"><ele>96.75</ele><time>2026-05-03T07:53:47.914Z</time></trkpt><trkpt lat="43.0254583" lon="10.797285"><ele>97.5</ele><time>2026-05-03T07:53:48.914Z</time></trkpt><trkpt lat="43.0253867" lon="10.7974633"><ele>98.25</ele><time>2026-05-03T07:53:49.914Z</time></trkpt><trkpt lat="43.0253167" lon="10.79764"><ele>99.0</ele><time>2026-05-03T07:53:50.914Z</time></trkpt><trkpt lat="43.0252517" lon="10.7978133"><ele>100.0</ele><time>2026-05-03T07:53:51.915Z</time></trkpt><trkpt lat="43.0251983" lon="10.7979833"><ele>101.0</ele><time>2026-05-03T07:53:52.914Z</time></trkpt><trkpt lat="43.0251633" lon="10.7981567"><ele>102.0</ele><time>2026-05-03T07:53:53.914Z</time></trkpt><trkpt lat="43.0251483" lon="10.798335"><ele>103.0</ele><time>2026-05-03T07:53:54.914Z</time></trkpt><trkpt lat="43.0251533" lon="10.79851"><ele>103.75</ele><time>2026-05-03T07:53:55.915Z</time></trkpt><trkpt lat="43.0251867" lon="10.7986833"><ele>104.5</ele><time>2026-05-03T07:53:56.914Z</time></trkpt><trkpt lat="43.0252483" lon="10.798835"><ele>105.25</ele><time>2026-05-03T07:53:57.915Z</time></trkpt><trkpt lat="43.0253267" lon="10.7989567"><ele>106.0</ele><time>2026-05-03T07:53:58.915Z</time></trkpt><trkpt lat="43.0254" lon="10.79906"><ele>106.00000000000001</ele><time>2026-05-03T07:53:59.914Z</time></trkpt><trkpt lat="43.0254517" lon="10.799175"><ele>106.0</ele><time>2026-05-03T07:54:00.914Z</time></trkpt><trkpt lat="43.0254683" lon="10.79929"><ele>106.0</ele><time>2026-05-03T07:54:01.915Z</time></trkpt><trkpt lat="43.025465" lon="10.79941"><ele>106.0</ele><time>2026-05-03T07:54:02.914Z</time></trkpt><trkpt lat="43.02545" lon="10.799525"><ele>106.00000000000001</ele><time>2026-05-03T07:54:03.914Z</time></trkpt><trkpt lat="43.0254233" lon="10.7996417"><ele>106.0</ele><time>2026-05-03T07:54:04.914Z</time></trkpt><trkpt lat="43.0253917" lon="10.7997667"><ele>107.19999999999999</ele><time>2026-05-03T07:54:05.914Z</time></trkpt><trkpt lat="43.0253617" lon="10.7999"><ele>108.39999999999999</ele><time>2026-05-03T07:54:06.916Z</time></trkpt><trkpt lat="43.0253333" lon="10.800045"><ele>109.6</ele><time>2026-05-03T07:54:07.914Z</time></trkpt><trkpt lat="43.0253133" lon="10.8001983"><ele>110.8</ele><time>2026-05-03T07:54:08.914Z</time></trkpt><trkpt lat="43.0252933" lon="10.80036"><ele>112.0</ele><time>2026-05-03T07:54:09.914Z</time></trkpt><trkpt lat="43.0252817" lon="10.800515"><ele>112.19999999999999</ele><time>2026-05-03T07:54:10.915Z</time></trkpt><trkpt lat="43.025285" lon="10.8006483"><ele>112.39999999999999</ele><time>2026-05-03T07:54:11.914Z</time></trkpt><trkpt lat="43.0253033" lon="10.8007683"><ele>112.60000000000001</ele><time>2026-05-03T07:54:12.914Z</time></trkpt><trkpt lat="43.0253483" lon="10.8008783"><ele>112.80000000000001</ele><time>2026-05-03T07:54:13.914Z</time></trkpt><trkpt lat="43.0254083" lon="10.8009883"><ele>113.0</ele><time>2026-05-03T07:54:14.915Z</time></trkpt><trkpt lat="43.0254867" lon="10.8010967"><ele>113.0</ele><time>2026-05-03T07:54:15.91Z</time></trkpt><trkpt lat="43.025575" lon="10.80121"><ele>113.0</ele><time>2026-05-03T07:54:16.914Z</time></trkpt><trkpt lat="43.0256733" lon="10.80133"><ele>113.0</ele><time>2026-05-03T07:54:17.914Z</time></trkpt><trkpt lat="43.0257717" lon="10.8014583"><ele>113.0</ele><time>2026-05-03T07:54:18.914Z</time></trkpt><trkpt lat="43.025875" lon="10.8015883"><ele>112.0</ele><time>2026-05-03T07:54:19.914Z</time></trkpt><trkpt lat="43.025975" lon="10.8017133"><ele>111.0</ele><time>2026-05-03T07:54:20.915Z</time></trkpt><trkpt lat="43.0260717" lon="10.8018333"><ele>110.0</ele><time>2026-05-03T07:54:21.915Z</time></trkpt><trkpt lat="43.0261617" lon="10.8019483"><ele>109.0</ele><time>2026-05-03T07:54:22.915Z</time></trkpt><trkpt lat="43.0262433" lon="10.802065"><ele>109.0</ele><time>2026-05-03T07:54:23.914Z</time></trkpt><trkpt lat="43.026325" lon="10.8021817"><ele>109.0</ele><time>2026-05-03T07:54:24.913Z</time></trkpt><trkpt lat="43.0264017" lon="10.8022933"><ele>109.0</ele><time>2026-05-03T07:54:25.915Z</time></trkpt><trkpt lat="43.0264733" lon="10.8024017"><ele>109.0</ele><time>2026-05-03T07:54:26.914Z</time></trkpt><trkpt lat="43.0265483" lon="10.8025017"><ele>109.0</ele><time>2026-05-03T07:54:27.912Z</time></trkpt><trkpt lat="43.02664" lon="10.8025817"><ele>108.5</ele><time>2026-05-03T07:54:28.915Z</time></trkpt><trkpt lat="43.0267467" lon="10.8026367"><ele>108.0</ele><time>2026-05-03T07:54:29.915Z</time></trkpt><trkpt lat="43.0268667" lon="10.8026717"><ele>107.5</ele><time>2026-05-03T07:54:30.914Z</time></trkpt><trkpt lat="43.0269983" lon="10.802695"><ele>107.0</ele><time>2026-05-03T07:54:31.914Z</time></trkpt><trkpt lat="43.027135" lon="10.8027133"><ele>107.0</ele><time>2026-05-03T07:54:32.914Z</time></trkpt><trkpt lat="43.0272867" lon="10.8027133"><ele>107.0</ele><time>2026-05-03T07:54:33.915Z</time></trkpt><trkpt lat="43.027435" lon="10.8026917"><ele>107.0</ele><time>2026-05-03T07:54:34.914Z</time></trkpt><trkpt lat="43.027565" lon="10.8026517"><ele>107.0</ele><time>2026-05-03T07:54:35.915Z</time></trkpt><trkpt lat="43.027675" lon="10.8026067"><ele>108.83333333333333</ele><time>2026-05-03T07:54:36.914Z</time></trkpt><trkpt lat="43.0277667" lon="10.802565"><ele>110.66666666666666</ele><time>2026-05-03T07:54:37.915Z</time></trkpt><trkpt lat="43.0278433" lon="10.8025283"><ele>112.5</ele><time>2026-05-03T07:54:38.914Z</time></trkpt><trkpt lat="43.0279167" lon="10.8024917"><ele>114.33333333333334</ele><time>2026-05-03T07:54:39.917Z</time></trkpt><trkpt lat="43.0279867" lon="10.8024567"><ele>116.16666666666667</ele><time>2026-05-03T07:54:40.914Z</time></trkpt><trkpt lat="43.0280517" lon="10.802425"><ele>118.0</ele><time>2026-05-03T07:54:41.914Z</time></trkpt><trkpt lat="43.0281667" lon="10.8023817"><ele>118.00000000000001</ele><time>2026-05-03T07:54:43.915Z</time></trkpt><trkpt lat="43.0282733" lon="10.8023417"><ele>118.0</ele><time>2026-05-03T07:54:45.914Z</time></trkpt><trkpt lat="43.028385" lon="10.80229"><ele>118.0</ele><time>2026-05-03T07:54:47.915Z</time></trkpt><trkpt lat="43.028445" lon="10.8022533"><ele>118.0</ele><time>2026-05-03T07:54:48.914Z</time></trkpt><trkpt lat="43.0285033" lon="10.8022117"><ele>118.00000000000001</ele><time>2026-05-03T07:54:49.914Z</time></trkpt><trkpt lat="43.0285633" lon="10.8021483"><ele>118.0</ele><time>2026-05-03T07:54:50.914Z</time></trkpt><trkpt lat="43.0286283" lon="10.8020633"><ele>117.83333333333334</ele><time>2026-05-03T07:54:51.915Z</time></trkpt><trkpt lat="43.0286933" lon="10.8019683"><ele>117.66666666666667</ele><time>2026-05-03T07:54:52.918Z</time></trkpt><trkpt lat="43.0287583" lon="10.801875"><ele>117.5</ele><time>2026-05-03T07:54:53.914Z</time></trkpt><trkpt lat="43.028825" lon="10.8017817"><ele>117.33333333333334</ele><time>2026-05-03T07:54:54.914Z</time></trkpt><trkpt lat="43.028885" lon="10.801705"><ele>117.16666666666667</ele><time>2026-05-03T07:54:55.914Z</time></trkpt><trkpt lat="43.02894" lon="10.8016433"><ele>117.0</ele><time>2026-05-03T07:54:56.914Z</time></trkpt><trkpt lat="43.0289967" lon="10.8015783"><ele>118.66666666666667</ele><time>2026-05-03T07:54:57.914Z</time></trkpt><trkpt lat="43.029055" lon="10.8015133"><ele>120.33333333333334</ele><time>2026-05-03T07:54:58.914Z</time></trkpt><trkpt lat="43.0291117" lon="10.8014417"><ele>122.0</ele><time>2026-05-03T07:54:59.914Z</time></trkpt><trkpt lat="43.0291683" lon="10.8013667"><ele>123.66666666666667</ele><time>2026-05-03T07:55:00.911Z</time></trkpt><trkpt lat="43.02923" lon="10.8012917"><ele>125.33333333333334</ele><time>2026-05-03T07:55:01.913Z</time></trkpt><trkpt lat="43.0293017" lon="10.8012167"><ele>127.0</ele><time>2026-05-03T07:55:02.913Z</time></trkpt><trkpt lat="43.02938" lon="10.8011367"><ele>127.39999999999999</ele><time>2026-05-03T07:55:03.912Z</time></trkpt><trkpt lat="43.029465" lon="10.8010483"><ele>127.79999999999998</ele><time>2026-05-03T07:55:04.912Z</time></trkpt><trkpt lat="43.029545" lon="10.8009567"><ele>128.2</ele><time>2026-05-03T07:55:05.913Z</time></trkpt><trkpt lat="43.029625" lon="10.800865"><ele>128.6</ele><time>2026-05-03T07:55:06.911Z</time></trkpt><trkpt lat="43.02971" lon="10.8007767"><ele>129.0</ele><time>2026-05-03T07:55:07.912Z</time></trkpt><trkpt lat="43.0298083" lon="10.8006833"><ele>131.5</ele><time>2026-05-03T07:55:08.912Z</time></trkpt><trkpt lat="43.029905" lon="10.8005983"><ele>134.0</ele><time>2026-05-03T07:55:09.912Z</time></trkpt><trkpt lat="43.0300033" lon="10.8005083"><ele>136.5</ele><time>2026-05-03T07:55:10.913Z</time></trkpt><trkpt lat="43.0300933" lon="10.8004167"><ele>139.0</ele><time>2026-05-03T07:55:11.913Z</time></trkpt><trkpt lat="43.03018" lon="10.8003317"><ele>139.6</ele><time>2026-05-03T07:55:12.915Z</time></trkpt><trkpt lat="43.0302567" lon="10.8002467"><ele>140.2</ele><time>2026-05-03T07:55:13.911Z</time></trkpt><trkpt lat="43.03033" lon="10.8001633"><ele>140.79999999999998</ele><time>2026-05-03T07:55:14.911Z</time></trkpt><trkpt lat="43.0304033" lon="10.8000967"><ele>141.4</ele><time>2026-05-03T07:55:15.911Z</time></trkpt><trkpt lat="43.030485" lon="10.8000267"><ele>142.0</ele><time>2026-05-03T07:55:16.912Z</time></trkpt><trkpt lat="43.03058" lon="10.7999867"><ele>144.0</ele><time>2026-05-03T07:55:17.913Z</time></trkpt><trkpt lat="43.0306867" lon="10.7999567"><ele>146.0</ele><time>2026-05-03T07:55:18.914Z</time></trkpt><trkpt lat="43.0308" lon="10.799935"><ele>148.0</ele><time>2026-05-03T07:55:19.911Z</time></trkpt><trkpt lat="43.0309133" lon="10.799915"><ele>150.0</ele><time>2026-05-03T07:55:20.913Z</time></trkpt><trkpt lat="43.0310283" lon="10.7998817"><ele>150.0</ele><time>2026-05-03T07:55:21.916Z</time></trkpt><trkpt lat="43.0311433" lon="10.79984"><ele>150.0</ele><time>2026-05-03T07:55:22.912Z</time></trkpt><trkpt lat="43.0312583" lon="10.7997983"><ele>150.0</ele><time>2026-05-03T07:55:23.912Z</time></trkpt><trkpt lat="43.03137" lon="10.799755"><ele>150.0</ele><time>2026-05-03T07:55:24.912Z</time></trkpt><trkpt lat="43.0314833" lon="10.7997"><ele>150.0</ele><time>2026-05-03T07:55:25.913Z</time></trkpt><trkpt lat="43.0315933" lon="10.799635"><ele>150.0</ele><time>2026-05-03T07:55:26.913Z</time></trkpt><trkpt lat="43.0316983" lon="10.799565"><ele>150.0</ele><time>2026-05-03T07:55:27.913Z</time></trkpt><trkpt lat="43.031795" lon="10.7994883"><ele>150.0</ele><time>2026-05-03T07:55:28.913Z</time></trkpt><trkpt lat="43.0319" lon="10.799425"><ele>151.0</ele><time>2026-05-03T07:55:29.913Z</time></trkpt><trkpt lat="43.0320067" lon="10.79938"><ele>152.0</ele><time>2026-05-03T07:55:30.912Z</time></trkpt><trkpt lat="43.0321133" lon="10.7993533"><ele>153.0</ele><time>2026-05-03T07:55:31.912Z</time></trkpt><trkpt lat="43.03222" lon="10.7993517"><ele>154.0</ele><time>2026-05-03T07:55:32.914Z</time></trkpt><trkpt lat="43.03233" lon="10.7993617"><ele>155.0</ele><time>2026-05-03T07:55:33.911Z</time></trkpt><trkpt lat="43.032435" lon="10.7993833"><ele>155.8</ele><time>2026-05-03T07:55:34.915Z</time></trkpt><trkpt lat="43.03253" lon="10.799425"><ele>156.6</ele><time>2026-05-03T07:55:35.914Z</time></trkpt><trkpt lat="43.032615" lon="10.7994967"><ele>157.4</ele><time>2026-05-03T07:55:36.912Z</time></trkpt><trkpt lat="43.032685" lon="10.7995933"><ele>158.2</ele><time>2026-05-03T07:55:37.912Z</time></trkpt><trkpt lat="43.0327483" lon="10.7996917"><ele>159.0</ele><time>2026-05-03T07:55:38.912Z</time></trkpt><trkpt lat="43.032815" lon="10.7997733"><ele>159.0</ele><time>2026-05-03T07:55:39.912Z</time></trkpt><trkpt lat="43.032885" lon="10.7998467"><ele>159.0</ele><time>2026-05-03T07:55:40.912Z</time></trkpt><trkpt lat="43.03297" lon="10.7999"><ele>159.0</ele><time>2026-05-03T07:55:41.915Z</time></trkpt><trkpt lat="43.033055" lon="10.7999483"><ele>159.0</ele><time>2026-05-03T07:55:42.915Z</time></trkpt><trkpt lat="43.0331467" lon="10.7999967"><ele>159.0</ele><time>2026-05-03T07:55:43.911Z</time></trkpt><trkpt lat="43.0332417" lon="10.8000417"><ele>159.6</ele><time>2026-05-03T07:55:44.914Z</time></trkpt><trkpt lat="43.03334" lon="10.80008"><ele>160.2</ele><time>2026-05-03T07:55:45.915Z</time></trkpt><trkpt lat="43.03344" lon="10.800105"><ele>160.79999999999998</ele><time>2026-05-03T07:55:46.914Z</time></trkpt><trkpt lat="43.033545" lon="10.8001167"><ele>161.4</ele><time>2026-05-03T07:55:47.914Z</time></trkpt><trkpt lat="43.03365" lon="10.8001183"><ele>162.0</ele><time>2026-05-03T07:55:48.914Z</time></trkpt><trkpt lat="43.033745" lon="10.8001"><ele>162.0</ele><time>2026-05-03T07:55:49.913Z</time></trkpt><trkpt lat="43.0338333" lon="10.8000817"><ele>162.0</ele><time>2026-05-03T07:55:50.913Z</time></trkpt><trkpt lat="43.0339233" lon="10.80007"><ele>162.0</ele><time>2026-05-03T07:55:51.913Z</time></trkpt><trkpt lat="43.0340067" lon="10.8000767"><ele>162.0</ele><time>2026-05-03T07:55:52.914Z</time></trkpt><trkpt lat="43.0340883" lon="10.8001"><ele>162.0</ele><time>2026-05-03T07:55:53.913Z</time></trkpt><trkpt lat="43.0341733" lon="10.8001433"><ele>162.0</ele><time>2026-05-03T07:55:54.913Z</time></trkpt><trkpt lat="43.0342633" lon="10.8001967"><ele>164.5</ele><time>2026-05-03T07:55:55.914Z</time></trkpt><trkpt lat="43.03436" lon="10.8002533"><ele>167.0</ele><time>2026-05-03T07:55:56.91Z</time></trkpt><trkpt lat="43.03446" lon="10.8003167"><ele>169.5</ele><time>2026-05-03T07:55:57.913Z</time></trkpt><trkpt lat="43.0345733" lon="10.80038"><ele>172.0</ele><time>2026-05-03T07:55:58.913Z</time></trkpt><trkpt lat="43.0346817" lon="10.8004317"><ele>172.0</ele><time>2026-05-03T07:55:59.912Z</time></trkpt><trkpt lat="43.0347867" lon="10.800475"><ele>172.0</ele><time>2026-05-03T07:56:00.913Z</time></trkpt><trkpt lat="43.0348867" lon="10.8005117"><ele>172.0</ele><time>2026-05-03T07:56:01.912Z</time></trkpt><trkpt lat="43.0349783" lon="10.8005167"><ele>172.0</ele><time>2026-05-03T07:56:02.913Z</time></trkpt><trkpt lat="43.0350583" lon="10.8005067"><ele>172.0</ele><time>2026-05-03T07:56:03.912Z</time></trkpt><trkpt lat="43.03513" lon="10.8005067"><ele>173.2857142857143</ele><time>2026-05-03T07:56:04.913Z</time></trkpt><trkpt lat="43.0352033" lon="10.8005183"><ele>174.57142857142858</ele><time>2026-05-03T07:56:05.913Z</time></trkpt><trkpt lat="43.035275" lon="10.800555"><ele>175.85714285714286</ele><time>2026-05-03T07:56:06.91Z</time></trkpt><trkpt lat="43.0353383" lon="10.800615"><ele>177.14285714285717</ele><time>2026-05-03T07:56:07.913Z</time></trkpt><trkpt lat="43.0353917" lon="10.8006833"><ele>178.42857142857142</ele><time>2026-05-03T07:56:08.913Z</time></trkpt><trkpt lat="43.0354417" lon="10.8007517"><ele>179.71428571428572</ele><time>2026-05-03T07:56:09.912Z</time></trkpt><trkpt lat="43.0354917" lon="10.8008067"><ele>181.0</ele><time>2026-05-03T07:56:10.913Z</time></trkpt><trkpt lat="43.0355833" lon="10.800845"><ele>181.0</ele><time>2026-05-03T07:56:12.91Z</time></trkpt><trkpt lat="43.03566" lon="10.8007733"><ele>181.0</ele><time>2026-05-03T07:56:14.913Z</time></trkpt><trkpt lat="43.0356817" lon="10.8006783"><ele>181.0</ele><time>2026-05-03T07:56:15.91Z</time></trkpt><trkpt lat="43.0357083" lon="10.80059"><ele>181.0</ele><time>2026-05-03T07:56:16.913Z</time></trkpt><trkpt lat="43.035735" lon="10.8004733"><ele>181.0</ele><time>2026-05-03T07:56:17.912Z</time></trkpt><trkpt lat="43.0357583" lon="10.8003333"><ele>181.0</ele><time>2026-05-03T07:56:18.913Z</time></trkpt><trkpt lat="43.0357867" lon="10.8001967"><ele>182.16666666666669</ele><time>2026-05-03T07:56:19.914Z</time></trkpt><trkpt lat="43.035815" lon="10.8000683"><ele>183.33333333333334</ele><time>2026-05-03T07:56:20.912Z</time></trkpt><trkpt lat="43.0358567" lon="10.79995"><ele>184.5</ele><time>2026-05-03T07:56:21.914Z</time></trkpt><trkpt lat="43.0359017" lon="10.79985"><ele>185.66666666666666</ele><time>2026-05-03T07:56:22.911Z</time></trkpt><trkpt lat="43.03595" lon="10.7997783"><ele>186.83333333333331</ele><time>2026-05-03T07:56:23.914Z</time></trkpt><trkpt lat="43.03601" lon="10.799745"><ele>188.0</ele><time>2026-05-03T07:56:24.914Z</time></trkpt><trkpt lat="43.036075" lon="10.79977"><ele>188.0</ele><time>2026-05-03T07:56:25.917Z</time></trkpt><trkpt lat="43.0361417" lon="10.7998233"><ele>188.0</ele><time>2026-05-03T07:56:26.912Z</time></trkpt><trkpt lat="43.0362017" lon="10.7998933"><ele>188.0</ele><time>2026-05-03T07:56:27.911Z</time></trkpt><trkpt lat="43.0362683" lon="10.80002"><ele>188.0</ele><time>2026-05-03T07:56:28.913Z</time></trkpt><trkpt lat="43.03633" lon="10.8001367"><ele>188.0</ele><time>2026-05-03T07:56:29.915Z</time></trkpt><trkpt lat="43.0363833" lon="10.8002533"><ele>188.4</ele><time>2026-05-03T07:56:30.91Z</time></trkpt><trkpt lat="43.03644" lon="10.8003667"><ele>188.8</ele><time>2026-05-03T07:56:31.911Z</time></trkpt><trkpt lat="43.0365033" lon="10.8004883"><ele>189.2</ele><time>2026-05-03T07:56:32.911Z</time></trkpt><trkpt lat="43.0365683" lon="10.80061"><ele>189.6</ele><time>2026-05-03T07:56:33.91Z</time></trkpt><trkpt lat="43.0366333" lon="10.80073"><ele>190.0</ele><time>2026-05-03T07:56:34.911Z</time></trkpt><trkpt lat="43.03669" lon="10.8008567"><ele>191.4</ele><time>2026-05-03T07:56:35.911Z</time></trkpt><trkpt lat="43.0367333" lon="10.8009883"><ele>192.8</ele><time>2026-05-03T07:56:36.911Z</time></trkpt><trkpt lat="43.0367717" lon="10.80112"><ele>194.2</ele><time>2026-05-03T07:56:37.914Z</time></trkpt><trkpt lat="43.0368083" lon="10.801255"><ele>195.6</ele><time>2026-05-03T07:56:38.913Z</time></trkpt><trkpt lat="43.0368517" lon="10.8013867"><ele>197.0</ele><time>2026-05-03T07:56:39.913Z</time></trkpt><trkpt lat="43.036895" lon="10.8015117"><ele>197.6</ele><time>2026-05-03T07:56:40.914Z</time></trkpt><trkpt lat="43.0369417" lon="10.8016267"><ele>198.2</ele><time>2026-05-03T07:56:41.915Z</time></trkpt><trkpt lat="43.037" lon="10.8017233"><ele>198.8</ele><time>2026-05-03T07:56:42.913Z</time></trkpt><trkpt lat="43.0370733" lon="10.8018067"><ele>199.4</ele><time>2026-05-03T07:56:43.911Z</time></trkpt><trkpt lat="43.0371583" lon="10.801885"><ele>200.0</ele><time>2026-05-03T07:56:44.915Z</time></trkpt><trkpt lat="43.0372433" lon="10.8019683"><ele>201.4</ele><time>2026-05-03T07:56:45.911Z</time></trkpt><trkpt lat="43.037325" lon="10.8020583"><ele>202.8</ele><time>2026-05-03T07:56:46.914Z</time></trkpt><trkpt lat="43.0374083" lon="10.802145"><ele>204.2</ele><time>2026-05-03T07:56:47.913Z</time></trkpt><trkpt lat="43.037495" lon="10.80222"><ele>205.6</ele><time>2026-05-03T07:56:48.914Z</time></trkpt><trkpt lat="43.037585" lon="10.80228"><ele>207.0</ele><time>2026-05-03T07:56:49.912Z</time></trkpt><trkpt lat="43.0376833" lon="10.80232"><ele>207.0</ele><time>2026-05-03T07:56:50.913Z</time></trkpt><trkpt lat="43.0377833" lon="10.8023333"><ele>207.0</ele><time>2026-05-03T07:56:51.915Z</time></trkpt><trkpt lat="43.0379" lon="10.8023233"><ele>207.0</ele><time>2026-05-03T07:56:52.913Z</time></trkpt><trkpt lat="43.0380167" lon="10.8023117"><ele>207.0</ele><time>2026-05-03T07:56:53.912Z</time></trkpt><trkpt lat="43.03813" lon="10.802285"><ele>207.0</ele><time>2026-05-03T07:56:54.912Z</time></trkpt><trkpt lat="43.038245" lon="10.8022617"><ele>206.39999999999998</ele><time>2026-05-03T07:56:55.914Z</time></trkpt><trkpt lat="43.0383533" lon="10.8022517"><ele>205.79999999999998</ele><time>2026-05-03T07:56:56.916Z</time></trkpt><trkpt lat="43.038455" lon="10.8022683"><ele>205.2</ele><time>2026-05-03T07:56:57.913Z</time></trkpt><trkpt lat="43.038555" lon="10.802305"><ele>204.6</ele><time>2026-05-03T07:56:58.913Z</time></trkpt><trkpt lat="43.0386567" lon="10.802355"><ele>204.0</ele><time>2026-05-03T07:56:59.914Z</time></trkpt><trkpt lat="43.03876" lon="10.8024"><ele>204.0</ele><time>2026-05-03T07:57:00.913Z</time></trkpt><trkpt lat="43.0388767" lon="10.802445"><ele>204.0</ele><time>2026-05-03T07:57:01.911Z</time></trkpt><trkpt lat="43.0389667" lon="10.802495"><ele>204.0</ele><time>2026-05-03T07:57:02.915Z</time></trkpt><trkpt lat="43.0390433" lon="10.8025633"><ele>204.0</ele><time>2026-05-03T07:57:03.915Z</time></trkpt><trkpt lat="43.0391217" lon="10.80264"><ele>204.0</ele><time>2026-05-03T07:57:04.914Z</time></trkpt><trkpt lat="43.0391883" lon="10.8027117"><ele>203.79999999999998</ele><time>2026-05-03T07:57:05.915Z</time></trkpt><trkpt lat="43.0392583" lon="10.8027683"><ele>203.6</ele><time>2026-05-03T07:57:06.915Z</time></trkpt><trkpt lat="43.0393467" lon="10.8028133"><ele>203.4</ele><time>2026-05-03T07:57:07.915Z</time></trkpt><trkpt lat="43.0394533" lon="10.8028483"><ele>203.2</ele><time>2026-05-03T07:57:08.914Z</time></trkpt><trkpt lat="43.0395667" lon="10.802875"><ele>203.0</ele><time>2026-05-03T07:57:09.914Z</time></trkpt><trkpt lat="43.03967" lon="10.8029083"><ele>203.0</ele><time>2026-05-03T07:57:10.914Z</time></trkpt><trkpt lat="43.0397767" lon="10.802955"><ele>203.0</ele><time>2026-05-03T07:57:11.915Z</time></trkpt><trkpt lat="43.039875" lon="10.803025"><ele>203.0</ele><time>2026-05-03T07:57:12.913Z</time></trkpt><trkpt lat="43.0399717" lon="10.8031083"><ele>203.0</ele><time>2026-05-03T07:57:13.915Z</time></trkpt><trkpt lat="43.0400683" lon="10.8031967"><ele>203.25</ele><time>2026-05-03T07:57:14.912Z</time></trkpt><trkpt lat="43.0401633" lon="10.803295"><ele>203.5</ele><time>2026-05-03T07:57:15.914Z</time></trkpt><trkpt lat="43.04026" lon="10.80339"><ele>203.75</ele><time>2026-05-03T07:57:16.912Z</time></trkpt><trkpt lat="43.040355" lon="10.8034817"><ele>204.0</ele><time>2026-05-03T07:57:17.915Z</time></trkpt><trkpt lat="43.0404567" lon="10.80356"><ele>204.75</ele><time>2026-05-03T07:57:18.914Z</time></trkpt><trkpt lat="43.0405717" lon="10.8036233"><ele>205.5</ele><time>2026-05-03T07:57:19.914Z</time></trkpt><trkpt lat="43.04069" lon="10.803675"><ele>206.25</ele><time>2026-05-03T07:57:20.914Z</time></trkpt><trkpt lat="43.04081" lon="10.8037167"><ele>207.0</ele><time>2026-05-03T07:57:21.913Z</time></trkpt><trkpt lat="43.0409233" lon="10.8037733"><ele>207.0</ele><time>2026-05-03T07:57:22.915Z</time></trkpt><trkpt lat="43.04102" lon="10.803855"><ele>207.0</ele><time>2026-05-03T07:57:23.914Z</time></trkpt><trkpt lat="43.0411033" lon="10.803965"><ele>207.0</ele><time>2026-05-03T07:57:24.914Z</time></trkpt><trkpt lat="43.0411733" lon="10.8040983"><ele>207.0</ele><time>2026-05-03T07:57:25.914Z</time></trkpt><trkpt lat="43.04123" lon="10.8042433"><ele>206.0</ele><time>2026-05-03T07:57:26.911Z</time></trkpt><trkpt lat="43.041275" lon="10.8043983"><ele>205.0</ele><time>2026-05-03T07:57:27.912Z</time></trkpt><trkpt lat="43.0413283" lon="10.8045583"><ele>204.0</ele><time>2026-05-03T07:57:28.912Z</time></trkpt><trkpt lat="43.0413967" lon="10.804705"><ele>203.0</ele><time>2026-05-03T07:57:29.912Z</time></trkpt><trkpt lat="43.0414817" lon="10.80484"><ele>203.0</ele><time>2026-05-03T07:57:30.911Z</time></trkpt><trkpt lat="43.04157" lon="10.804965"><ele>203.0</ele><time>2026-05-03T07:57:31.912Z</time></trkpt><trkpt lat="43.041655" lon="10.80509"><ele>203.0</ele><time>2026-05-03T07:57:32.913Z</time></trkpt><trkpt lat="43.0417267" lon="10.8052017"><ele>203.0</ele><time>2026-05-03T07:57:33.913Z</time></trkpt><trkpt lat="43.0417933" lon="10.8053"><ele>205.2</ele><time>2026-05-03T07:57:34.913Z</time></trkpt><trkpt lat="43.0418667" lon="10.805375"><ele>207.4</ele><time>2026-05-03T07:57:35.914Z</time></trkpt><trkpt lat="43.0419533" lon="10.8054333"><ele>209.59999999999997</ele><time>2026-05-03T07:57:36.913Z</time></trkpt><trkpt lat="43.0420367" lon="10.805475"><ele>211.79999999999998</ele><time>2026-05-03T07:57:37.914Z</time></trkpt><trkpt lat="43.042125" lon="10.805505"><ele>214.0</ele><time>2026-05-03T07:57:38.915Z</time></trkpt><trkpt lat="43.042215" lon="10.8055267"><ele>214.0</ele><time>2026-05-03T07:57:39.911Z</time></trkpt><trkpt lat="43.042315" lon="10.8055383"><ele>213.99999999999997</ele><time>2026-05-03T07:57:40.913Z</time></trkpt><trkpt lat="43.0424183" lon="10.8055533"><ele>213.99999999999997</ele><time>2026-05-03T07:57:41.913Z</time></trkpt><trkpt lat="43.0425117" lon="10.80558"><ele>214.0</ele><time>2026-05-03T07:57:42.912Z</time></trkpt><trkpt lat="43.042595" lon="10.80562"><ele>214.0</ele><time>2026-05-03T07:57:43.914Z</time></trkpt><trkpt lat="43.042675" lon="10.8056783"><ele>215.39999999999998</ele><time>2026-05-03T07:57:44.913Z</time></trkpt><trkpt lat="43.04274" lon="10.8057667"><ele>216.79999999999998</ele><time>2026-05-03T07:57:45.914Z</time></trkpt><trkpt lat="43.0428117" lon="10.80586"><ele>218.20000000000002</ele><time>2026-05-03T07:57:46.913Z</time></trkpt><trkpt lat="43.0428833" lon="10.80594"><ele>219.60000000000002</ele><time>2026-05-03T07:57:47.915Z</time></trkpt><trkpt lat="43.042965" lon="10.8060033"><ele>221.0</ele><time>2026-05-03T07:57:48.912Z</time></trkpt><trkpt lat="43.0430617" lon="10.8060533"><ele>223.25</ele><time>2026-05-03T07:57:49.913Z</time></trkpt><trkpt lat="43.043165" lon="10.8060917"><ele>225.5</ele><time>2026-05-03T07:57:50.913Z</time></trkpt><trkpt lat="43.0432833" lon="10.8060967"><ele>227.75</ele><time>2026-05-03T07:57:51.914Z</time></trkpt><trkpt lat="43.0434133" lon="10.80609"><ele>230.0</ele><time>2026-05-03T07:57:52.914Z</time></trkpt><trkpt lat="43.04353" lon="10.8060567"><ele>230.0</ele><time>2026-05-03T07:57:53.914Z</time></trkpt><trkpt lat="43.0436367" lon="10.8060017"><ele>230.0</ele><time>2026-05-03T07:57:54.914Z</time></trkpt><trkpt lat="43.0437167" lon="10.8059333"><ele>230.0</ele><time>2026-05-03T07:57:55.913Z</time></trkpt><trkpt lat="43.0437833" lon="10.80585"><ele>230.0</ele><time>2026-05-03T07:57:56.912Z</time></trkpt><trkpt lat="43.0438333" lon="10.8057417"><ele>230.0</ele><time>2026-05-03T07:57:57.912Z</time></trkpt><trkpt lat="43.0438717" lon="10.80562"><ele>228.33333333333334</ele><time>2026-05-03T07:57:58.913Z</time></trkpt><trkpt lat="43.0439133" lon="10.8055083"><ele>226.66666666666669</ele><time>2026-05-03T07:57:59.916Z</time></trkpt><trkpt lat="43.043965" lon="10.8054233"><ele>225.0</ele><time>2026-05-03T07:58:00.912Z</time></trkpt><trkpt lat="43.0440333" lon="10.8053667"><ele>223.33333333333331</ele><time>2026-05-03T07:58:01.913Z</time></trkpt><trkpt lat="43.0441167" lon="10.8053283"><ele>221.66666666666666</ele><time>2026-05-03T07:58:02.914Z</time></trkpt><trkpt lat="43.0442" lon="10.8053167"><ele>220.0</ele><time>2026-05-03T07:58:03.913Z</time></trkpt><trkpt lat="43.0442833" lon="10.805335"><ele>219.99999999999997</ele><time>2026-05-03T07:58:04.916Z</time></trkpt><trkpt lat="43.0443517" lon="10.8053883"><ele>220.0</ele><time>2026-05-03T07:58:05.914Z</time></trkpt><trkpt lat="43.0444133" lon="10.8054783"><ele>220.0</ele><time>2026-05-03T07:58:06.914Z</time></trkpt><trkpt lat="43.0444617" lon="10.8055683"><ele>220.0</ele><time>2026-05-03T07:58:07.911Z</time></trkpt><trkpt lat="43.0445333" lon="10.8056433"><ele>219.99999999999997</ele><time>2026-05-03T07:58:08.914Z</time></trkpt><trkpt lat="43.0446017" lon="10.8057033"><ele>220.0</ele><time>2026-05-03T07:58:09.91Z</time></trkpt><trkpt lat="43.0446683" lon="10.8057517"><ele>219.99999999999997</ele><time>2026-05-03T07:58:10.911Z</time></trkpt><trkpt lat="43.0447417" lon="10.8057767"><ele>220.0</ele><time>2026-05-03T07:58:11.912Z</time></trkpt><trkpt lat="43.044825" lon="10.805765"><ele>220.0</ele><time>2026-05-03T07:58:12.911Z</time></trkpt><trkpt lat="43.0449183" lon="10.805725"><ele>220.0</ele><time>2026-05-03T07:58:13.911Z</time></trkpt><trkpt lat="43.045005" lon="10.80569"><ele>219.99999999999997</ele><time>2026-05-03T07:58:14.912Z</time></trkpt><trkpt lat="43.045075" lon="10.8056117"><ele>220.0</ele><time>2026-05-03T07:58:15.912Z</time></trkpt><trkpt lat="43.0451283" lon="10.8054483"><ele>219.4</ele><time>2026-05-03T07:58:16.912Z</time></trkpt><trkpt lat="43.0451717" lon="10.8053167"><ele>218.8</ele><time>2026-05-03T07:58:17.912Z</time></trkpt><trkpt lat="43.0452017" lon="10.80518"><ele>218.2</ele><time>2026-05-03T07:58:18.91Z</time></trkpt><trkpt lat="43.0452233" lon="10.8050283"><ele>217.6</ele><time>2026-05-03T07:58:19.91Z</time></trkpt><trkpt lat="43.045255" lon="10.8048883"><ele>217.0</ele><time>2026-05-03T07:58:20.912Z</time></trkpt><trkpt lat="43.0452933" lon="10.8047517"><ele>215.75</ele><time>2026-05-03T07:58:21.912Z</time></trkpt><trkpt lat="43.0453517" lon="10.8046217"><ele>214.5</ele><time>2026-05-03T07:58:22.912Z</time></trkpt><trkpt lat="43.0454283" lon="10.8045067"><ele>213.25</ele><time>2026-05-03T07:58:23.911Z</time></trkpt><trkpt lat="43.0455217" lon="10.804405"><ele>212.0</ele><time>2026-05-03T07:58:24.915Z</time></trkpt><trkpt lat="43.0456183" lon="10.8043133"><ele>212.39999999999998</ele><time>2026-05-03T07:58:25.914Z</time></trkpt><trkpt lat="43.0457233" lon="10.8042333"><ele>212.79999999999998</ele><time>2026-05-03T07:58:26.915Z</time></trkpt><trkpt lat="43.0458283" lon="10.8041717"><ele>213.2</ele><time>2026-05-03T07:58:27.915Z</time></trkpt><trkpt lat="43.0459283" lon="10.804135"><ele>213.6</ele><time>2026-05-03T07:58:28.914Z</time></trkpt><trkpt lat="43.0460217" lon="10.8041283"><ele>214.0</ele><time>2026-05-03T07:58:29.914Z</time></trkpt><trkpt lat="43.0461117" lon="10.8041383"><ele>214.0</ele><time>2026-05-03T07:58:30.914Z</time></trkpt><trkpt lat="43.0462033" lon="10.804185"><ele>213.99999999999997</ele><time>2026-05-03T07:58:31.912Z</time></trkpt><trkpt lat="43.046295" lon="10.8042517"><ele>213.99999999999997</ele><time>2026-05-03T07:58:32.914Z</time></trkpt><trkpt lat="43.04638" lon="10.8043283"><ele>214.0</ele><time>2026-05-03T07:58:33.915Z</time></trkpt><trkpt lat="43.046465" lon="10.80442"><ele>214.0</ele><time>2026-05-03T07:58:34.911Z</time></trkpt><trkpt lat="43.04654" lon="10.8045133"><ele>213.6</ele><time>2026-05-03T07:58:35.914Z</time></trkpt><trkpt lat="43.0466133" lon="10.8045983"><ele>213.2</ele><time>2026-05-03T07:58:36.915Z</time></trkpt><trkpt lat="43.046695" lon="10.804665"><ele>212.79999999999998</ele><time>2026-05-03T07:58:37.911Z</time></trkpt><trkpt lat="43.0467833" lon="10.8047067"><ele>212.39999999999998</ele><time>2026-05-03T07:58:38.912Z</time></trkpt><trkpt lat="43.0468733" lon="10.8047233"><ele>212.0</ele><time>2026-05-03T07:58:39.914Z</time></trkpt><trkpt lat="43.0469767" lon="10.8047117"><ele>213.2</ele><time>2026-05-03T07:58:40.913Z</time></trkpt><trkpt lat="43.0470817" lon="10.8046817"><ele>214.39999999999998</ele><time>2026-05-03T07:58:41.912Z</time></trkpt><trkpt lat="43.047185" lon="10.8046433"><ele>215.60000000000002</ele><time>2026-05-03T07:58:42.912Z</time></trkpt><trkpt lat="43.0472933" lon="10.804595"><ele>216.8</ele><time>2026-05-03T07:58:43.911Z</time></trkpt><trkpt lat="43.0474017" lon="10.8045433"><ele>218.0</ele><time>2026-05-03T07:58:44.911Z</time></trkpt><trkpt lat="43.0475083" lon="10.80449"><ele>218.4</ele><time>2026-05-03T07:58:45.914Z</time></trkpt><trkpt lat="43.0476117" lon="10.8044333"><ele>218.8</ele><time>2026-05-03T07:58:46.914Z</time></trkpt><trkpt lat="43.0477167" lon="10.8043817"><ele>219.2</ele><time>2026-05-03T07:58:47.911Z</time></trkpt><trkpt lat="43.0478183" lon="10.804325"><ele>219.6</ele><time>2026-05-03T07:58:48.911Z</time></trkpt><trkpt lat="43.04792" lon="10.80427"><ele>220.0</ele><time>2026-05-03T07:58:49.913Z</time></trkpt><trkpt lat="43.0480183" lon="10.8042267"><ele>220.6</ele><time>2026-05-03T07:58:50.915Z</time></trkpt><trkpt lat="43.0481267" lon="10.8041867"><ele>221.2</ele><time>2026-05-03T07:58:51.914Z</time></trkpt><trkpt lat="43.0482367" lon="10.8041567"><ele>221.8</ele><time>2026-05-03T07:58:52.914Z</time></trkpt><trkpt lat="43.0483367" lon="10.8041367"><ele>222.4</ele><time>2026-05-03T07:58:53.914Z</time></trkpt><trkpt lat="43.048435" lon="10.804125"><ele>223.0</ele><time>2026-05-03T07:58:54.915Z</time></trkpt><trkpt lat="43.0485367" lon="10.8041083"><ele>223.0</ele><time>2026-05-03T07:58:55.914Z</time></trkpt><trkpt lat="43.0486433" lon="10.804085"><ele>223.0</ele><time>2026-05-03T07:58:56.915Z</time></trkpt><trkpt lat="43.0487433" lon="10.8040567"><ele>223.0</ele><time>2026-05-03T07:58:57.911Z</time></trkpt><trkpt lat="43.0488383" lon="10.8040333"><ele>223.0</ele><time>2026-05-03T07:58:58.912Z</time></trkpt><trkpt lat="43.04894" lon="10.804015"><ele>223.0</ele><time>2026-05-03T07:58:59.914Z</time></trkpt><trkpt lat="43.04905" lon="10.80402"><ele>222.0</ele><time>2026-05-03T07:59:00.913Z</time></trkpt><trkpt lat="43.049165" lon="10.8040433"><ele>221.0</ele><time>2026-05-03T07:59:01.914Z</time></trkpt><trkpt lat="43.0492817" lon="10.804075"><ele>220.0</ele><time>2026-05-03T07:59:02.914Z</time></trkpt><trkpt lat="43.0494017" lon="10.8041033"><ele>219.0</ele><time>2026-05-03T07:59:03.911Z</time></trkpt><trkpt lat="43.0495133" lon="10.8041383"><ele>219.0</ele><time>2026-05-03T07:59:04.914Z</time></trkpt><trkpt lat="43.049615" lon="10.80419"><ele>218.99999999999997</ele><time>2026-05-03T07:59:05.913Z</time></trkpt><trkpt lat="43.049705" lon="10.8042633"><ele>218.99999999999997</ele><time>2026-05-03T07:59:06.912Z</time></trkpt><trkpt lat="43.04978" lon="10.804355"><ele>219.0</ele><time>2026-05-03T07:59:07.912Z</time></trkpt><trkpt lat="43.049845" lon="10.8044633"><ele>219.0</ele><time>2026-05-03T07:59:08.913Z</time></trkpt><trkpt lat="43.0499117" lon="10.8045733"><ele>219.39999999999998</ele><time>2026-05-03T07:59:09.912Z</time></trkpt><trkpt lat="43.049985" lon="10.804675"><ele>219.79999999999998</ele><time>2026-05-03T07:59:10.914Z</time></trkpt><trkpt lat="43.0500667" lon="10.8047633"><ele>220.20000000000002</ele><time>2026-05-03T07:59:11.912Z</time></trkpt><trkpt lat="43.05016" lon="10.8048383"><ele>220.60000000000002</ele><time>2026-05-03T07:59:12.913Z</time></trkpt><trkpt lat="43.05025" lon="10.8049033"><ele>221.0</ele><time>2026-05-03T07:59:13.912Z</time></trkpt><trkpt lat="43.0503367" lon="10.8049633"><ele>221.00000000000003</ele><time>2026-05-03T07:59:14.912Z</time></trkpt><trkpt lat="43.050405" lon="10.8050283"><ele>221.0</ele><time>2026-05-03T07:59:15.914Z</time></trkpt><trkpt lat="43.0504583" lon="10.8051033"><ele>221.0</ele><time>2026-05-03T07:59:16.913Z</time></trkpt><trkpt lat="43.0504917" lon="10.805195"><ele>221.0</ele><time>2026-05-03T07:59:17.912Z</time></trkpt><trkpt lat="43.050505" lon="10.8053017"><ele>221.00000000000003</ele><time>2026-05-03T07:59:18.913Z</time></trkpt><trkpt lat="43.05052" lon="10.8054217"><ele>221.0</ele><time>2026-05-03T07:59:19.913Z</time></trkpt><trkpt lat="43.0505433" lon="10.805555"><ele>219.4</ele><time>2026-05-03T07:59:20.914Z</time></trkpt><trkpt lat="43.0505883" lon="10.8056817"><ele>217.8</ele><time>2026-05-03T07:59:21.916Z</time></trkpt><trkpt lat="43.050625" lon="10.805805"><ele>216.20000000000002</ele><time>2026-05-03T07:59:22.913Z</time></trkpt><trkpt lat="43.0506483" lon="10.8059283"><ele>214.60000000000002</ele><time>2026-05-03T07:59:23.914Z</time></trkpt><trkpt lat="43.050665" lon="10.8060483"><ele>213.0</ele><time>2026-05-03T07:59:24.915Z</time></trkpt><trkpt lat="43.050685" lon="10.8061467"><ele>212.2</ele><time>2026-05-03T07:59:25.915Z</time></trkpt><trkpt lat="43.0507167" lon="10.8062267"><ele>211.4</ele><time>2026-05-03T07:59:26.913Z</time></trkpt><trkpt lat="43.0508117" lon="10.8063283"><ele>210.6</ele><time>2026-05-03T07:59:28.913Z</time></trkpt><trkpt lat="43.0509467" lon="10.8063717"><ele>209.79999999999998</ele><time>2026-05-03T07:59:30.913Z</time></trkpt><trkpt lat="43.0510333" lon="10.8063933"><ele>209.0</ele><time>2026-05-03T07:59:31.914Z</time></trkpt><trkpt lat="43.0511367" lon="10.8064217"><ele>214.25</ele><time>2026-05-03T07:59:32.917Z</time></trkpt><trkpt lat="43.0512517" lon="10.8064633"><ele>219.5</ele><time>2026-05-03T07:59:33.915Z</time></trkpt><trkpt lat="43.0513583" lon="10.8065233"><ele>224.75</ele><time>2026-05-03T07:59:34.913Z</time></trkpt><trkpt lat="43.05147" lon="10.8065867"><ele>230.0</ele><time>2026-05-03T07:59:35.914Z</time></trkpt><trkpt lat="43.0515767" lon="10.8066717"><ele>230.25</ele><time>2026-05-03T07:59:36.915Z</time></trkpt><trkpt lat="43.0516817" lon="10.8067633"><ele>230.5</ele><time>2026-05-03T07:59:37.911Z</time></trkpt><trkpt lat="43.0517783" lon="10.8068717"><ele>230.75</ele><time>2026-05-03T07:59:38.911Z</time></trkpt><trkpt lat="43.0518683" lon="10.8069767"><ele>231.0</ele><time>2026-05-03T07:59:39.912Z</time></trkpt><trkpt lat="43.0519567" lon="10.8070667"><ele>229.8</ele><time>2026-05-03T07:59:40.911Z</time></trkpt><trkpt lat="43.0520517" lon="10.8071483"><ele>228.60000000000002</ele><time>2026-05-03T07:59:41.911Z</time></trkpt><trkpt lat="43.0521483" lon="10.8072233"><ele>227.4</ele><time>2026-05-03T07:59:42.91Z</time></trkpt><trkpt lat="43.0522533" lon="10.807285"><ele>226.2</ele><time>2026-05-03T07:59:43.91Z</time></trkpt><trkpt lat="43.0523517" lon="10.80734"><ele>225.0</ele><time>2026-05-03T07:59:44.913Z</time></trkpt><trkpt lat="43.052455" lon="10.807385"><ele>225.75</ele><time>2026-05-03T07:59:45.911Z</time></trkpt><trkpt lat="43.0525717" lon="10.80742"><ele>226.5</ele><time>2026-05-03T07:59:46.911Z</time></trkpt><trkpt lat="43.0526967" lon="10.8074367"><ele>227.25</ele><time>2026-05-03T07:59:47.913Z</time></trkpt><trkpt lat="43.0528183" lon="10.8074333"><ele>228.0</ele><time>2026-05-03T07:59:48.913Z</time></trkpt><trkpt lat="43.0529367" lon="10.80742"><ele>228.0</ele><time>2026-05-03T07:59:49.914Z</time></trkpt><trkpt lat="43.0530633" lon="10.8073983"><ele>228.0</ele><time>2026-05-03T07:59:50.913Z</time></trkpt><trkpt lat="43.0531867" lon="10.8073733"><ele>228.0</ele><time>2026-05-03T07:59:51.914Z</time></trkpt><trkpt lat="43.053315" lon="10.8073483"><ele>228.0</ele><time>2026-05-03T07:59:52.913Z</time></trkpt><trkpt lat="43.05344" lon="10.807325"><ele>227.75</ele><time>2026-05-03T07:59:53.913Z</time></trkpt><trkpt lat="43.05356" lon="10.807295"><ele>227.5</ele><time>2026-05-03T07:59:54.913Z</time></trkpt><trkpt lat="43.0536783" lon="10.8072483"><ele>227.25</ele><time>2026-05-03T07:59:55.913Z</time></trkpt><trkpt lat="43.0537933" lon="10.80719"><ele>227.0</ele><time>2026-05-03T07:59:56.913Z</time></trkpt><trkpt lat="43.0539017" lon="10.807125"><ele>227.0</ele><time>2026-05-03T07:59:57.913Z</time></trkpt><trkpt lat="43.0540083" lon="10.807065"><ele>227.0</ele><time>2026-05-03T07:59:58.914Z</time></trkpt><trkpt lat="43.0541183" lon="10.807025"><ele>227.0</ele><time>2026-05-03T07:59:59.914Z</time></trkpt><trkpt lat="43.0542267" lon="10.8070067"><ele>227.0</ele><time>2026-05-03T08:00:00.913Z</time></trkpt><trkpt lat="43.0543317" lon="10.80702"><ele>227.0</ele><time>2026-05-03T08:00:01.913Z</time></trkpt><trkpt lat="43.05443" lon="10.807065"><ele>228.5</ele><time>2026-05-03T08:00:02.914Z</time></trkpt><trkpt lat="43.054525" lon="10.8071317"><ele>230.0</ele><time>2026-05-03T08:00:03.913Z</time></trkpt><trkpt lat="43.0546217" lon="10.807215"><ele>231.5</ele><time>2026-05-03T08:00:04.913Z</time></trkpt><trkpt lat="43.054705" lon="10.8073233"><ele>233.0</ele><time>2026-05-03T08:00:05.914Z</time></trkpt><trkpt lat="43.0547833" lon="10.8074467"><ele>233.0</ele><time>2026-05-03T08:00:06.913Z</time></trkpt><trkpt lat="43.0548583" lon="10.8075717"><ele>233.0</ele><time>2026-05-03T08:00:07.913Z</time></trkpt><trkpt lat="43.0549333" lon="10.807705"><ele>233.0</ele><time>2026-05-03T08:00:08.91Z</time></trkpt><trkpt lat="43.055" lon="10.8078367"><ele>233.0</ele><time>2026-05-03T08:00:09.914Z</time></trkpt><trkpt lat="43.055055" lon="10.8079583"><ele>233.66666666666669</ele><time>2026-05-03T08:00:10.913Z</time></trkpt><trkpt lat="43.0551067" lon="10.8080533"><ele>234.33333333333334</ele><time>2026-05-03T08:00:11.915Z</time></trkpt><trkpt lat="43.055165" lon="10.8081217"><ele>235.0</ele><time>2026-05-03T08:00:12.915Z</time></trkpt><trkpt lat="43.0552267" lon="10.8081567"><ele>235.66666666666669</ele><time>2026-05-03T08:00:13.913Z</time></trkpt><trkpt lat="43.0553617" lon="10.80815"><ele>236.33333333333334</ele><time>2026-05-03T08:00:15.91Z</time></trkpt><trkpt lat="43.0554417" lon="10.8081167"><ele>237.0</ele><time>2026-05-03T08:00:16.912Z</time></trkpt><trkpt lat="43.0555217" lon="10.8081067"><ele>237.0</ele><time>2026-05-03T08:00:17.915Z</time></trkpt><trkpt lat="43.0556017" lon="10.8081283"><ele>237.0</ele><time>2026-05-03T08:00:18.913Z</time></trkpt><trkpt lat="43.0556683" lon="10.8081817"><ele>237.0</ele><time>2026-05-03T08:00:19.914Z</time></trkpt><trkpt lat="43.0557317" lon="10.8082617"><ele>237.0</ele><time>2026-05-03T08:00:20.914Z</time></trkpt><trkpt lat="43.0557933" lon="10.80836"><ele>237.0</ele><time>2026-05-03T08:00:21.914Z</time></trkpt><trkpt lat="43.05585" lon="10.8084733"><ele>237.0</ele><time>2026-05-03T08:00:22.913Z</time></trkpt><trkpt lat="43.0559167" lon="10.808585"><ele>240.0</ele><time>2026-05-03T08:00:23.913Z</time></trkpt><trkpt lat="43.0559917" lon="10.8086867"><ele>243.0</ele><time>2026-05-03T08:00:24.914Z</time></trkpt><trkpt lat="43.0560717" lon="10.80879"><ele>246.0</ele><time>2026-05-03T08:00:25.913Z</time></trkpt><trkpt lat="43.0561483" lon="10.808895"><ele>249.0</ele><time>2026-05-03T08:00:26.913Z</time></trkpt><trkpt lat="43.0562183" lon="10.809005"><ele>252.0</ele><time>2026-05-03T08:00:27.915Z</time></trkpt><trkpt lat="43.0562867" lon="10.8091167"><ele>252.0</ele><time>2026-05-03T08:00:28.911Z</time></trkpt><trkpt lat="43.056355" lon="10.8092317"><ele>252.0</ele><time>2026-05-03T08:00:29.916Z</time></trkpt><trkpt lat="43.0564217" lon="10.809355"><ele>252.0</ele><time>2026-05-03T08:00:30.913Z</time></trkpt><trkpt lat="43.0564883" lon="10.809475"><ele>252.0</ele><time>2026-05-03T08:00:31.914Z</time></trkpt><trkpt lat="43.05655" lon="10.8095867"><ele>252.0</ele><time>2026-05-03T08:00:32.913Z</time></trkpt><trkpt lat="43.0566067" lon="10.8096967"><ele>252.2</ele><time>2026-05-03T08:00:33.913Z</time></trkpt><trkpt lat="43.0566583" lon="10.80981"><ele>252.39999999999998</ele><time>2026-05-03T08:00:34.913Z</time></trkpt><trkpt lat="43.0567167" lon="10.80992"><ele>252.60000000000002</ele><time>2026-05-03T08:00:35.915Z</time></trkpt><trkpt lat="43.056785" lon="10.8100117"><ele>252.8</ele><time>2026-05-03T08:00:36.914Z</time></trkpt><trkpt lat="43.0568667" lon="10.8100967"><ele>253.0</ele><time>2026-05-03T08:00:37.91Z</time></trkpt><trkpt lat="43.0569467" lon="10.81018"><ele>253.0</ele><time>2026-05-03T08:00:38.916Z</time></trkpt><trkpt lat="43.0570233" lon="10.81027"><ele>253.0</ele><time>2026-05-03T08:00:39.913Z</time></trkpt><trkpt lat="43.057095" lon="10.8103717"><ele>253.0</ele><time>2026-05-03T08:00:40.914Z</time></trkpt><trkpt lat="43.05716" lon="10.81048"><ele>253.0</ele><time>2026-05-03T08:00:41.914Z</time></trkpt><trkpt lat="43.0572133" lon="10.81059"><ele>253.0</ele><time>2026-05-03T08:00:42.914Z</time></trkpt><trkpt lat="43.05726" lon="10.810695"><ele>252.99999999999997</ele><time>2026-05-03T08:00:43.91Z</time></trkpt><trkpt lat="43.0573083" lon="10.8108"><ele>253.0</ele><time>2026-05-03T08:00:44.912Z</time></trkpt><trkpt lat="43.0573617" lon="10.8108967"><ele>253.0</ele><time>2026-05-03T08:00:45.912Z</time></trkpt><trkpt lat="43.0574167" lon="10.8109783"><ele>253.0</ele><time>2026-05-03T08:00:46.91Z</time></trkpt><trkpt lat="43.057475" lon="10.81104"><ele>252.99999999999997</ele><time>2026-05-03T08:00:47.911Z</time></trkpt><trkpt lat="43.05754" lon="10.8110883"><ele>253.0</ele><time>2026-05-03T08:00:48.913Z</time></trkpt><trkpt lat="43.0576067" lon="10.8111217"><ele>253.4</ele><time>2026-05-03T08:00:49.914Z</time></trkpt><trkpt lat="43.0577133" lon="10.81116"><ele>253.8</ele><time>2026-05-03T08:00:51.913Z</time></trkpt><trkpt lat="43.0578133" lon="10.8111917"><ele>254.2</ele><time>2026-05-03T08:00:53.913Z</time></trkpt><trkpt lat="43.0579083" lon="10.81121"><ele>254.6</ele><time>2026-05-03T08:00:55.913Z</time></trkpt><trkpt lat="43.05803" lon="10.811215"><ele>255.0</ele><time>2026-05-03T08:00:57.913Z</time></trkpt><trkpt lat="43.058105" lon="10.8112133"><ele>255.0</ele><time>2026-05-03T08:00:58.913Z</time></trkpt><trkpt lat="43.0581867" lon="10.81121"><ele>255.0</ele><time>2026-05-03T08:00:59.913Z</time></trkpt><trkpt lat="43.058275" lon="10.8112133"><ele>255.0</ele><time>2026-05-03T08:01:00.914Z</time></trkpt><trkpt lat="43.05837" lon="10.81122"><ele>255.0</ele><time>2026-05-03T08:01:01.913Z</time></trkpt><trkpt lat="43.0584667" lon="10.8112267"><ele>255.0</ele><time>2026-05-03T08:01:02.913Z</time></trkpt><trkpt lat="43.058555" lon="10.8112317"><ele>256.0</ele><time>2026-05-03T08:01:03.913Z</time></trkpt><trkpt lat="43.05864" lon="10.8112367"><ele>257.0</ele><time>2026-05-03T08:01:04.913Z</time></trkpt><trkpt lat="43.0587267" lon="10.8112433"><ele>258.0</ele><time>2026-05-03T08:01:05.914Z</time></trkpt><trkpt lat="43.0588183" lon="10.8112517"><ele>259.0</ele><time>2026-05-03T08:01:06.914Z</time></trkpt><trkpt lat="43.058905" lon="10.8112567"><ele>260.0</ele><time>2026-05-03T08:01:07.91Z</time></trkpt><trkpt lat="43.05899" lon="10.8112633"><ele>261.0</ele><time>2026-05-03T08:01:08.913Z</time></trkpt><trkpt lat="43.05908" lon="10.8112683"><ele>262.1666666666667</ele><time>2026-05-03T08:01:09.912Z</time></trkpt><trkpt lat="43.0591783" lon="10.8112717"><ele>263.3333333333333</ele><time>2026-05-03T08:01:10.913Z</time></trkpt><trkpt lat="43.0592767" lon="10.811285"><ele>264.5</ele><time>2026-05-03T08:01:11.913Z</time></trkpt><trkpt lat="43.0593617" lon="10.811315"><ele>265.66666666666663</ele><time>2026-05-03T08:01:12.911Z</time></trkpt><trkpt lat="43.059435" lon="10.8113567"><ele>266.8333333333333</ele><time>2026-05-03T08:01:13.914Z</time></trkpt><trkpt lat="43.0594917" lon="10.81142"><ele>268.0</ele><time>2026-05-03T08:01:14.913Z</time></trkpt><trkpt lat="43.0595533" lon="10.8115017"><ele>268.0</ele><time>2026-05-03T08:01:15.914Z</time></trkpt><trkpt lat="43.0596217" lon="10.8115883"><ele>268.0</ele><time>2026-05-03T08:01:16.913Z</time></trkpt><trkpt lat="43.0597083" lon="10.8116533"><ele>268.0</ele><time>2026-05-03T08:01:17.911Z</time></trkpt><trkpt lat="43.059805" lon="10.8117033"><ele>268.0</ele><time>2026-05-03T08:01:18.912Z</time></trkpt><trkpt lat="43.059915" lon="10.81174"><ele>268.0</ele><time>2026-05-03T08:01:19.915Z</time></trkpt><trkpt lat="43.060025" lon="10.81176"><ele>268.5</ele><time>2026-05-03T08:01:20.915Z</time></trkpt><trkpt lat="43.06014" lon="10.811785"><ele>269.0</ele><time>2026-05-03T08:01:21.914Z</time></trkpt><trkpt lat="43.0602533" lon="10.8118033"><ele>269.5</ele><time>2026-05-03T08:01:22.915Z</time></trkpt><trkpt lat="43.0603633" lon="10.81182"><ele>270.0</ele><time>2026-05-03T08:01:23.914Z</time></trkpt><trkpt lat="43.0604783" lon="10.8118283"><ele>270.0</ele><time>2026-05-03T08:01:24.911Z</time></trkpt><trkpt lat="43.0605833" lon="10.8118417"><ele>270.0</ele><time>2026-05-03T08:01:25.915Z</time></trkpt><trkpt lat="43.0606933" lon="10.8118367"><ele>270.0</ele><time>2026-05-03T08:01:26.912Z</time></trkpt><trkpt lat="43.0608017" lon="10.8118233"><ele>270.0</ele><time>2026-05-03T08:01:27.911Z</time></trkpt><trkpt lat="43.0609133" lon="10.8118033"><ele>270.0</ele><time>2026-05-03T08:01:28.912Z</time></trkpt><trkpt lat="43.0610283" lon="10.81178"><ele>272.8</ele><time>2026-05-03T08:01:29.912Z</time></trkpt><trkpt lat="43.0611383" lon="10.81176"><ele>275.6</ele><time>2026-05-03T08:01:30.911Z</time></trkpt><trkpt lat="43.0612433" lon="10.81175"><ele>278.4</ele><time>2026-05-03T08:01:31.913Z</time></trkpt><trkpt lat="43.0613483" lon="10.8117467"><ele>281.2</ele><time>2026-05-03T08:01:32.912Z</time></trkpt><trkpt lat="43.0614467" lon="10.8117417"><ele>284.0</ele><time>2026-05-03T08:01:33.912Z</time></trkpt><trkpt lat="43.0615383" lon="10.8117333"><ele>285.0</ele><time>2026-05-03T08:01:34.912Z</time></trkpt><trkpt lat="43.06163" lon="10.8117117"><ele>286.0</ele><time>2026-05-03T08:01:35.912Z</time></trkpt><trkpt lat="43.0617183" lon="10.8116817"><ele>287.0</ele><time>2026-05-03T08:01:36.912Z</time></trkpt><trkpt lat="43.061805" lon="10.8116433"><ele>288.0</ele><time>2026-05-03T08:01:37.913Z</time></trkpt><trkpt lat="43.0618833" lon="10.8115883"><ele>289.0</ele><time>2026-05-03T08:01:38.914Z</time></trkpt><trkpt lat="43.0619533" lon="10.811525"><ele>290.0</ele><time>2026-05-03T08:01:39.911Z</time></trkpt><trkpt lat="43.0619983" lon="10.8114583"><ele>290.0</ele><time>2026-05-03T08:01:40.911Z</time></trkpt><trkpt lat="43.06206" lon="10.8113833"><ele>290.0</ele><time>2026-05-03T08:01:41.914Z</time></trkpt><trkpt lat="43.0621267" lon="10.8113033"><ele>290.0</ele><time>2026-05-03T08:01:42.917Z</time></trkpt><trkpt lat="43.0622067" lon="10.8112333"><ele>290.0</ele><time>2026-05-03T08:01:43.912Z</time></trkpt><trkpt lat="43.0623" lon="10.8111633"><ele>290.0</ele><time>2026-05-03T08:01:44.911Z</time></trkpt><trkpt lat="43.0624017" lon="10.8111033"><ele>290.0</ele><time>2026-05-03T08:01:45.914Z</time></trkpt><trkpt lat="43.0625017" lon="10.8110433"><ele>290.0</ele><time>2026-05-03T08:01:46.914Z</time></trkpt><trkpt lat="43.0625967" lon="10.8109667"><ele>290.0</ele><time>2026-05-03T08:01:47.913Z</time></trkpt><trkpt lat="43.0626833" lon="10.8108867"><ele>290.0</ele><time>2026-05-03T08:01:48.911Z</time></trkpt><trkpt lat="43.0627617" lon="10.81082"><ele>290.0</ele><time>2026-05-03T08:01:49.914Z</time></trkpt><trkpt lat="43.0628283" lon="10.810775"><ele>290.5</ele><time>2026-05-03T08:01:50.914Z</time></trkpt><trkpt lat="43.0629433" lon="10.8107117"><ele>291.0</ele><time>2026-05-03T08:01:52.914Z</time></trkpt><trkpt lat="43.0630117" lon="10.8106733"><ele>291.5</ele><time>2026-05-03T08:01:54.003Z</time></trkpt><trkpt lat="43.063085" lon="10.8106333"><ele>292.0</ele><time>2026-05-03T08:01:54.91Z</time></trkpt><trkpt lat="43.06316" lon="10.8105967"><ele>292.5</ele><time>2026-05-03T08:01:55.914Z</time></trkpt><trkpt lat="43.0632467" lon="10.8105867"><ele>293.0</ele><time>2026-05-03T08:01:56.912Z</time></trkpt><trkpt lat="43.0633417" lon="10.8105917"><ele>293.33333333333337</ele><time>2026-05-03T08:01:57.911Z</time></trkpt><trkpt lat="43.06343" lon="10.8106017"><ele>293.6666666666667</ele><time>2026-05-03T08:01:58.913Z</time></trkpt><trkpt lat="43.0635183" lon="10.8106067"><ele>294.0</ele><time>2026-05-03T08:01:59.912Z</time></trkpt><trkpt lat="43.063595" lon="10.81061"><ele>294.3333333333333</ele><time>2026-05-03T08:02:00.912Z</time></trkpt><trkpt lat="43.0636633" lon="10.810615"><ele>294.66666666666663</ele><time>2026-05-03T08:02:01.912Z</time></trkpt><trkpt lat="43.0637517" lon="10.81069"><ele>295.0</ele><time>2026-05-03T08:02:03.912Z</time></trkpt><trkpt lat="43.0638383" lon="10.8108067"><ele>295.0</ele><time>2026-05-03T08:02:05.913Z</time></trkpt><trkpt lat="43.06388" lon="10.8109017"><ele>295.0</ele><time>2026-05-03T08:02:06.911Z</time></trkpt><trkpt lat="43.0639167" lon="10.810995"><ele>295.0</ele><time>2026-05-03T08:02:07.911Z</time></trkpt><trkpt lat="43.0639483" lon="10.8110867"><ele>295.0</ele><time>2026-05-03T08:02:08.914Z</time></trkpt><trkpt lat="43.063985" lon="10.8111817"><ele>295.0</ele><time>2026-05-03T08:02:09.911Z</time></trkpt><trkpt lat="43.0640317" lon="10.8112683"><ele>295.0</ele><time>2026-05-03T08:02:10.912Z</time></trkpt><trkpt lat="43.0640867" lon="10.8113517"><ele>295.16666666666663</ele><time>2026-05-03T08:02:11.912Z</time></trkpt><trkpt lat="43.0641483" lon="10.811445"><ele>295.3333333333333</ele><time>2026-05-03T08:02:12.911Z</time></trkpt><trkpt lat="43.0642133" lon="10.8115317"><ele>295.5</ele><time>2026-05-03T08:02:13.912Z</time></trkpt><trkpt lat="43.0642783" lon="10.8116"><ele>295.6666666666667</ele><time>2026-05-03T08:02:14.914Z</time></trkpt><trkpt lat="43.064345" lon="10.8116333"><ele>295.83333333333337</ele><time>2026-05-03T08:02:15.914Z</time></trkpt><trkpt lat="43.0644117" lon="10.811645"><ele>296.0</ele><time>2026-05-03T08:02:16.915Z</time></trkpt><trkpt lat="43.0644783" lon="10.8116233"><ele>296.0</ele><time>2026-05-03T08:02:17.911Z</time></trkpt><trkpt lat="43.0645617" lon="10.811605"><ele>296.0</ele><time>2026-05-03T08:02:18.91Z</time></trkpt><trkpt lat="43.064655" lon="10.8115717"><ele>296.0</ele><time>2026-05-03T08:02:19.912Z</time></trkpt><trkpt lat="43.0647467" lon="10.8115383"><ele>296.0</ele><time>2026-05-03T08:02:20.912Z</time></trkpt><trkpt lat="43.0648383" lon="10.8115133"><ele>296.0</ele><time>2026-05-03T08:02:21.912Z</time></trkpt><trkpt lat="43.06494" lon="10.81149"><ele>297.2</ele><time>2026-05-03T08:02:22.913Z</time></trkpt><trkpt lat="43.0650417" lon="10.81146"><ele>298.40000000000003</ele><time>2026-05-03T08:02:23.911Z</time></trkpt><trkpt lat="43.0651483" lon="10.81143"><ele>299.6</ele><time>2026-05-03T08:02:24.91Z</time></trkpt><trkpt lat="43.0652467" lon="10.8114033"><ele>300.8</ele><time>2026-05-03T08:02:25.911Z</time></trkpt><trkpt lat="43.0653417" lon="10.81139"><ele>302.0</ele><time>2026-05-03T08:02:26.915Z</time></trkpt><trkpt lat="43.065425" lon="10.8113867"><ele>302.0</ele><time>2026-05-03T08:02:27.911Z</time></trkpt><trkpt lat="43.065515" lon="10.81139"><ele>302.0</ele><time>2026-05-03T08:02:28.913Z</time></trkpt><trkpt lat="43.0656033" lon="10.811395"><ele>302.0</ele><time>2026-05-03T08:02:29.914Z</time></trkpt><trkpt lat="43.0656817" lon="10.8114183"><ele>302.0</ele><time>2026-05-03T08:02:30.915Z</time></trkpt><trkpt lat="43.06577" lon="10.81145"><ele>302.0</ele><time>2026-05-03T08:02:31.912Z</time></trkpt><trkpt lat="43.06585" lon="10.8114967"><ele>302.0</ele><time>2026-05-03T08:02:32.913Z</time></trkpt><trkpt lat="43.0659283" lon="10.8115617"><ele>302.6</ele><time>2026-05-03T08:02:33.915Z</time></trkpt><trkpt lat="43.0660067" lon="10.8116517"><ele>303.2</ele><time>2026-05-03T08:02:34.913Z</time></trkpt><trkpt lat="43.0660867" lon="10.811755"><ele>303.8</ele><time>2026-05-03T08:02:35.913Z</time></trkpt><trkpt lat="43.06617" lon="10.8118617"><ele>304.4</ele><time>2026-05-03T08:02:36.913Z</time></trkpt><trkpt lat="43.0662517" lon="10.8119633"><ele>305.0</ele><time>2026-05-03T08:02:37.913Z</time></trkpt><trkpt lat="43.0663367" lon="10.8120567"><ele>305.0</ele><time>2026-05-03T08:02:38.913Z</time></trkpt><trkpt lat="43.0664267" lon="10.8121483"><ele>305.0</ele><time>2026-05-03T08:02:39.913Z</time></trkpt><trkpt lat="43.0665167" lon="10.8122317"><ele>305.0</ele><time>2026-05-03T08:02:40.913Z</time></trkpt><trkpt lat="43.0665967" lon="10.812315"><ele>305.0</ele><time>2026-05-03T08:02:41.915Z</time></trkpt><trkpt lat="43.0666633" lon="10.8124"><ele>305.0</ele><time>2026-05-03T08:02:42.914Z</time></trkpt><trkpt lat="43.0667267" lon="10.8124933"><ele>306.4</ele><time>2026-05-03T08:02:43.911Z</time></trkpt><trkpt lat="43.0667817" lon="10.812595"><ele>307.8</ele><time>2026-05-03T08:02:44.914Z</time></trkpt><trkpt lat="43.0668267" lon="10.812705"><ele>309.2</ele><time>2026-05-03T08:02:45.91Z</time></trkpt><trkpt lat="43.0668683" lon="10.8128233"><ele>310.6</ele><time>2026-05-03T08:02:46.911Z</time></trkpt><trkpt lat="43.0669083" lon="10.81294"><ele>312.0</ele><time>2026-05-03T08:02:47.917Z</time></trkpt><trkpt lat="43.066945" lon="10.81306"><ele>312.1666666666667</ele><time>2026-05-03T08:02:48.912Z</time></trkpt><trkpt lat="43.0669817" lon="10.8131733"><ele>312.3333333333333</ele><time>2026-05-03T08:02:49.913Z</time></trkpt><trkpt lat="43.0670217" lon="10.8132783"><ele>312.5</ele><time>2026-05-03T08:02:50.915Z</time></trkpt><trkpt lat="43.0670633" lon="10.8133683"><ele>312.66666666666663</ele><time>2026-05-03T08:02:51.915Z</time></trkpt><trkpt lat="43.0671117" lon="10.8134467"><ele>312.8333333333333</ele><time>2026-05-03T08:02:52.911Z</time></trkpt><trkpt lat="43.067165" lon="10.8135217"><ele>313.0</ele><time>2026-05-03T08:02:53.914Z</time></trkpt><trkpt lat="43.0672217" lon="10.8136033"><ele>313.2857142857143</ele><time>2026-05-03T08:02:54.912Z</time></trkpt><trkpt lat="43.0672717" lon="10.8136767"><ele>313.57142857142856</ele><time>2026-05-03T08:02:55.914Z</time></trkpt><trkpt lat="43.0673167" lon="10.8137483"><ele>313.8571428571429</ele><time>2026-05-03T08:02:56.915Z</time></trkpt><trkpt lat="43.0673583" lon="10.813815"><ele>314.1428571428571</ele><time>2026-05-03T08:02:57.911Z</time></trkpt><trkpt lat="43.0674033" lon="10.8139017"><ele>314.42857142857144</ele><time>2026-05-03T08:02:59.913Z</time></trkpt><trkpt lat="43.0674283" lon="10.8140133"><ele>314.7142857142857</ele><time>2026-05-03T08:03:59.912Z</time></trkpt><trkpt lat="43.0674517" lon="10.8141083"><ele>315.0</ele><time>2026-05-03T08:04:00.914Z</time></trkpt><trkpt lat="43.0674733" lon="10.814215"><ele>316.6</ele><time>2026-05-03T08:04:01.913Z</time></trkpt><trkpt lat="43.0674883" lon="10.814335"><ele>318.2</ele><time>2026-05-03T08:04:02.913Z</time></trkpt><trkpt lat="43.067505" lon="10.81447"><ele>319.79999999999995</ele><time>2026-05-03T08:04:03.913Z</time></trkpt><trkpt lat="43.0675267" lon="10.8146117"><ele>321.4</ele><time>2026-05-03T08:04:04.911Z</time></trkpt><trkpt lat="43.06755" lon="10.8147467"><ele>323.0</ele><time>2026-05-03T08:04:05.913Z</time></trkpt><trkpt lat="43.0675883" lon="10.8148917"><ele>323.0</ele><time>2026-05-03T08:04:06.915Z</time></trkpt><trkpt lat="43.06764" lon="10.815025"><ele>323.0</ele><time>2026-05-03T08:04:07.913Z</time></trkpt><trkpt lat="43.0677033" lon="10.8151417"><ele>323.0</ele><time>2026-05-03T08:04:08.913Z</time></trkpt><trkpt lat="43.0677767" lon="10.8152567"><ele>323.0</ele><time>2026-05-03T08:04:09.911Z</time></trkpt><trkpt lat="43.0678483" lon="10.8153683"><ele>323.0</ele><time>2026-05-03T08:04:10.911Z</time></trkpt><trkpt lat="43.0679183" lon="10.8154667"><ele>323.1666666666667</ele><time>2026-05-03T08:04:11.915Z</time></trkpt><trkpt lat="43.0679817" lon="10.8155533"><ele>323.33333333333337</ele><time>2026-05-03T08:04:12.911Z</time></trkpt><trkpt lat="43.0680417" lon="10.8156367"><ele>323.5</ele><time>2026-05-03T08:04:13.911Z</time></trkpt><trkpt lat="43.0680917" lon="10.8157083"><ele>323.6666666666667</ele><time>2026-05-03T08:04:14.913Z</time></trkpt><trkpt lat="43.0681483" lon="10.8157933"><ele>323.8333333333333</ele><time>2026-05-03T08:04:15.913Z</time></trkpt><trkpt lat="43.068215" lon="10.815875"><ele>324.0</ele><time>2026-05-03T08:04:16.913Z</time></trkpt><trkpt lat="43.0682983" lon="10.8159517"><ele>321.8</ele><time>2026-05-03T08:04:17.913Z</time></trkpt><trkpt lat="43.068395" lon="10.816015"><ele>319.59999999999997</ele><time>2026-05-03T08:04:18.913Z</time></trkpt><trkpt lat="43.0684983" lon="10.8160783"><ele>317.4</ele><time>2026-05-03T08:04:19.913Z</time></trkpt><trkpt lat="43.0686017" lon="10.8161367"><ele>315.2</ele><time>2026-05-03T08:04:20.913Z</time></trkpt><trkpt lat="43.06869" lon="10.8162033"><ele>313.0</ele><time>2026-05-03T08:04:21.914Z</time></trkpt><trkpt lat="43.0687733" lon="10.8162817"><ele>313.0</ele><time>2026-05-03T08:04:22.911Z</time></trkpt><trkpt lat="43.06884" lon="10.8163933"><ele>313.0</ele><time>2026-05-03T08:04:23.914Z</time></trkpt><trkpt lat="43.0688883" lon="10.8165267"><ele>313.0</ele><time>2026-05-03T08:04:24.913Z</time></trkpt><trkpt lat="43.0689183" lon="10.8166617"><ele>313.0</ele><time>2026-05-03T08:04:25.913Z</time></trkpt><trkpt lat="43.0689267" lon="10.8168017"><ele>313.0</ele><time>2026-05-03T08:04:26.914Z</time></trkpt><trkpt lat="43.0689067" lon="10.8169367"><ele>312.2</ele><time>2026-05-03T08:04:27.913Z</time></trkpt><trkpt lat="43.0688617" lon="10.8170667"><ele>311.4</ele><time>2026-05-03T08:04:28.914Z</time></trkpt><trkpt lat="43.068795" lon="10.8171833"><ele>310.59999999999997</ele><time>2026-05-03T08:04:29.914Z</time></trkpt><trkpt lat="43.0687317" lon="10.8172817"><ele>309.8</ele><time>2026-05-03T08:04:30.914Z</time></trkpt><trkpt lat="43.0686783" lon="10.8173767"><ele>309.0</ele><time>2026-05-03T08:04:31.913Z</time></trkpt><trkpt lat="43.06864" lon="10.8174717"><ele>309.0</ele><time>2026-05-03T08:04:32.913Z</time></trkpt><trkpt lat="43.0686183" lon="10.81758"><ele>309.0</ele><time>2026-05-03T08:04:33.913Z</time></trkpt><trkpt lat="43.0686233" lon="10.817705"><ele>309.0</ele><time>2026-05-03T08:04:34.913Z</time></trkpt><trkpt lat="43.0686583" lon="10.8178217"><ele>309.0</ele><time>2026-05-03T08:04:35.913Z</time></trkpt><trkpt lat="43.068725" lon="10.81794"><ele>309.0</ele><time>2026-05-03T08:04:36.914Z</time></trkpt><trkpt lat="43.0688117" lon="10.818045"><ele>308.0</ele><time>2026-05-03T08:04:37.911Z</time></trkpt><trkpt lat="43.06895" lon="10.8181467"><ele>307.0</ele><time>2026-05-03T08:04:38.913Z</time></trkpt><trkpt lat="43.0690767" lon="10.8182633"><ele>306.0</ele><time>2026-05-03T08:04:39.913Z</time></trkpt><trkpt lat="43.0692067" lon="10.81838"><ele>309.25</ele><time>2026-05-03T08:04:40.913Z</time></trkpt><trkpt lat="43.0693183" lon="10.8184983"><ele>312.5</ele><time>2026-05-03T08:04:41.913Z</time></trkpt><trkpt lat="43.0694083" lon="10.8186117"><ele>315.75</ele><time>2026-05-03T08:04:42.914Z</time></trkpt><trkpt lat="43.0694733" lon="10.8187233"><ele>319.0</ele><time>2026-05-03T08:04:43.913Z</time></trkpt><trkpt lat="43.0695167" lon="10.81885"><ele>319.0</ele><time>2026-05-03T08:04:44.911Z</time></trkpt><trkpt lat="43.0695533" lon="10.8189867"><ele>319.0</ele><time>2026-05-03T08:04:45.915Z</time></trkpt><trkpt lat="43.0695733" lon="10.8191283"><ele>319.0</ele><time>2026-05-03T08:04:46.91Z</time></trkpt><trkpt lat="43.0695717" lon="10.8192717"><ele>319.0</ele><time>2026-05-03T08:04:47.912Z</time></trkpt><trkpt lat="43.0695667" lon="10.8194183"><ele>319.0</ele><time>2026-05-03T08:04:48.91Z</time></trkpt><trkpt lat="43.06956" lon="10.8195733"><ele>318.4</ele><time>2026-05-03T08:04:49.911Z</time></trkpt><trkpt lat="43.0695583" lon="10.8197217"><ele>317.79999999999995</ele><time>2026-05-03T08:04:50.915Z</time></trkpt><trkpt lat="43.0695517" lon="10.819865"><ele>317.20000000000005</ele><time>2026-05-03T08:04:51.913Z</time></trkpt><trkpt lat="43.0695417" lon="10.8199983"><ele>316.6</ele><time>2026-05-03T08:04:52.914Z</time></trkpt><trkpt lat="43.0695283" lon="10.8201233"><ele>316.0</ele><time>2026-05-03T08:04:53.912Z</time></trkpt><trkpt lat="43.06952" lon="10.820245"><ele>314.5</ele><time>2026-05-03T08:04:54.913Z</time></trkpt><trkpt lat="43.0695133" lon="10.8203483"><ele>313.0</ele><time>2026-05-03T08:04:55.914Z</time></trkpt><trkpt lat="43.069525" lon="10.8204517"><ele>311.5</ele><time>2026-05-03T08:04:56.913Z</time></trkpt><trkpt lat="43.0695583" lon="10.8205467"><ele>310.0</ele><time>2026-05-03T08:04:57.914Z</time></trkpt><trkpt lat="43.0696117" lon="10.820625"><ele>308.5</ele><time>2026-05-03T08:04:58.914Z</time></trkpt><trkpt lat="43.0696833" lon="10.8206683"><ele>307.0</ele><time>2026-05-03T08:04:59.914Z</time></trkpt><trkpt lat="43.0697583" lon="10.8206933"><ele>307.0</ele><time>2026-05-03T08:05:00.915Z</time></trkpt><trkpt lat="43.0698267" lon="10.8207117"><ele>307.0</ele><time>2026-05-03T08:05:01.915Z</time></trkpt><trkpt lat="43.0698917" lon="10.820785"><ele>307.0</ele><time>2026-05-03T08:05:03.913Z</time></trkpt><trkpt lat="43.06985" lon="10.8208683"><ele>307.0</ele><time>2026-05-03T08:05:05.914Z</time></trkpt><trkpt lat="43.0697967" lon="10.82093"><ele>307.0</ele><time>2026-05-03T08:05:06.914Z</time></trkpt><trkpt lat="43.06971" lon="10.82104"><ele>307.0</ele><time>2026-05-03T08:05:07.912Z</time></trkpt><trkpt lat="43.069625" lon="10.8211783"><ele>306.75</ele><time>2026-05-03T08:05:08.911Z</time></trkpt><trkpt lat="43.06954" lon="10.8213283"><ele>306.5</ele><time>2026-05-03T08:05:09.912Z</time></trkpt><trkpt lat="43.06947" lon="10.8214833"><ele>306.25</ele><time>2026-05-03T08:05:10.913Z</time></trkpt><trkpt lat="43.0694183" lon="10.82166"><ele>306.0</ele><time>2026-05-03T08:05:11.913Z</time></trkpt><trkpt lat="43.0693917" lon="10.8218583"><ele>308.6666666666667</ele><time>2026-05-03T08:05:12.911Z</time></trkpt><trkpt lat="43.0693833" lon="10.8220733"><ele>311.33333333333337</ele><time>2026-05-03T08:05:13.912Z</time></trkpt><trkpt lat="43.0693783" lon="10.822295"><ele>314.0</ele><time>2026-05-03T08:05:14.913Z</time></trkpt><trkpt lat="43.0693683" lon="10.822515"><ele>317.0</ele><time>2026-05-03T08:05:15.912Z</time></trkpt><trkpt lat="43.0693433" lon="10.8227267"><ele>320.0</ele><time>2026-05-03T08:05:16.912Z</time></trkpt><trkpt lat="43.0692983" lon="10.8229383"><ele>323.0</ele><time>2026-05-03T08:05:17.912Z</time></trkpt><trkpt lat="43.06924" lon="10.82315"><ele>323.0</ele><time>2026-05-03T08:05:18.912Z</time></trkpt><trkpt lat="43.0691817" lon="10.8233667"><ele>323.0</ele><time>2026-05-03T08:05:19.912Z</time></trkpt><trkpt lat="43.0691267" lon="10.8235867"><ele>323.0</ele><time>2026-05-03T08:05:20.911Z</time></trkpt><trkpt lat="43.06907" lon="10.823805"><ele>328.6666666666667</ele><time>2026-05-03T08:05:21.912Z</time></trkpt><trkpt lat="43.0690117" lon="10.8240233"><ele>334.3333333333333</ele><time>2026-05-03T08:05:22.914Z</time></trkpt><trkpt lat="43.068955" lon="10.82423"><ele>340.0</ele><time>2026-05-03T08:05:23.912Z</time></trkpt><trkpt lat="43.0689" lon="10.824415"><ele>340.0</ele><time>2026-05-03T08:05:24.911Z</time></trkpt><trkpt lat="43.0688433" lon="10.82458"><ele>340.0</ele><time>2026-05-03T08:05:25.912Z</time></trkpt><trkpt lat="43.0687717" lon="10.8247283"><ele>340.0</ele><time>2026-05-03T08:05:26.912Z</time></trkpt><trkpt lat="43.0686917" lon="10.8248617"><ele>340.0</ele><time>2026-05-03T08:05:27.914Z</time></trkpt><trkpt lat="43.068615" lon="10.8249767"><ele>340.0</ele><time>2026-05-03T08:05:28.912Z</time></trkpt><trkpt lat="43.0685617" lon="10.8250983"><ele>340.0</ele><time>2026-05-03T08:05:29.912Z</time></trkpt><trkpt lat="43.0685483" lon="10.8252417"><ele>340.0</ele><time>2026-05-03T08:05:30.913Z</time></trkpt><trkpt lat="43.0685517" lon="10.8253867"><ele>340.0</ele><time>2026-05-03T08:05:31.911Z</time></trkpt><trkpt lat="43.06857" lon="10.825545"><ele>340.0</ele><time>2026-05-03T08:05:32.914Z</time></trkpt><trkpt lat="43.0685933" lon="10.8257167"><ele>340.0</ele><time>2026-05-03T08:05:33.914Z</time></trkpt><trkpt lat="43.0686133" lon="10.82589"><ele>340.0</ele><time>2026-05-03T08:05:34.915Z</time></trkpt><trkpt lat="43.06863" lon="10.826075"><ele>340.0</ele><time>2026-05-03T08:05:35.912Z</time></trkpt><trkpt lat="43.068635" lon="10.826265"><ele>340.0</ele><time>2026-05-03T08:05:36.913Z</time></trkpt><trkpt lat="43.0686367" lon="10.8264483"><ele>340.0</ele><time>2026-05-03T08:05:37.914Z</time></trkpt><trkpt lat="43.06864" lon="10.82662"><ele>340.0</ele><time>2026-05-03T08:05:38.913Z</time></trkpt><trkpt lat="43.0686533" lon="10.8267767"><ele>340.0</ele><time>2026-05-03T08:05:39.913Z</time></trkpt><trkpt lat="43.06869" lon="10.826915"><ele>340.0</ele><time>2026-05-03T08:05:40.911Z</time></trkpt><trkpt lat="43.0687433" lon="10.8270383"><ele>340.0</ele><time>2026-05-03T08:05:41.914Z</time></trkpt><trkpt lat="43.0688183" lon="10.8271433"><ele>340.0</ele><time>2026-05-03T08:05:42.91Z</time></trkpt><trkpt lat="43.068915" lon="10.82724"><ele>340.0</ele><time>2026-05-03T08:05:43.912Z</time></trkpt><trkpt lat="43.06902" lon="10.8273317"><ele>340.0</ele><time>2026-05-03T08:05:44.914Z</time></trkpt><trkpt lat="43.0691217" lon="10.8274167"><ele>340.0</ele><time>2026-05-03T08:05:45.914Z</time></trkpt><trkpt lat="43.0692183" lon="10.8275033"><ele>340.0</ele><time>2026-05-03T08:05:46.913Z</time></trkpt><trkpt lat="43.0693083" lon="10.8276033"><ele>340.0</ele><time>2026-05-03T08:05:47.915Z</time></trkpt><trkpt lat="43.0693917" lon="10.82773"><ele>340.0</ele><time>2026-05-03T08:05:48.914Z</time></trkpt><trkpt lat="43.0694683" lon="10.8278783"><ele>337.66666666666663</ele><time>2026-05-03T08:05:49.914Z</time></trkpt><trkpt lat="43.06955" lon="10.82804"><ele>335.3333333333333</ele><time>2026-05-03T08:05:50.914Z</time></trkpt><trkpt lat="43.0696317" lon="10.8282133"><ele>333.0</ele><time>2026-05-03T08:05:51.915Z</time></trkpt><trkpt lat="43.0697133" lon="10.8283983"><ele>331.3333333333333</ele><time>2026-05-03T08:05:52.915Z</time></trkpt><trkpt lat="43.0698" lon="10.828585"><ele>329.66666666666663</ele><time>2026-05-03T08:05:53.915Z</time></trkpt><trkpt lat="43.0698867" lon="10.8287683"><ele>328.0</ele><time>2026-05-03T08:05:54.914Z</time></trkpt><trkpt lat="43.06997" lon="10.8289417"><ele>331.25</ele><time>2026-05-03T08:05:55.915Z</time></trkpt><trkpt lat="43.0700433" lon="10.8291017"><ele>334.5</ele><time>2026-05-03T08:05:56.914Z</time></trkpt><trkpt lat="43.070105" lon="10.829255"><ele>337.75</ele><time>2026-05-03T08:05:57.914Z</time></trkpt><trkpt lat="43.070145" lon="10.8293983"><ele>341.0</ele><time>2026-05-03T08:05:58.915Z</time></trkpt><trkpt lat="43.0701617" lon="10.8295417"><ele>341.5</ele><time>2026-05-03T08:05:59.914Z</time></trkpt><trkpt lat="43.070155" lon="10.8297"><ele>342.0</ele><time>2026-05-03T08:06:00.914Z</time></trkpt><trkpt lat="43.0701333" lon="10.8298683"><ele>342.5</ele><time>2026-05-03T08:06:01.914Z</time></trkpt><trkpt lat="43.070105" lon="10.8300467"><ele>343.0</ele><time>2026-05-03T08:06:02.914Z</time></trkpt><trkpt lat="43.0700767" lon="10.8302283"><ele>344.0</ele><time>2026-05-03T08:06:03.913Z</time></trkpt><trkpt lat="43.0700567" lon="10.83042"><ele>345.0</ele><time>2026-05-03T08:06:04.914Z</time></trkpt><trkpt lat="43.0700533" lon="10.8306217"><ele>346.0</ele><time>2026-05-03T08:06:05.914Z</time></trkpt><trkpt lat="43.0700617" lon="10.8308267"><ele>347.0</ele><time>2026-05-03T08:06:06.914Z</time></trkpt><trkpt lat="43.0700733" lon="10.8310417"><ele>347.0</ele><time>2026-05-03T08:06:07.914Z</time></trkpt><trkpt lat="43.0700683" lon="10.8312583"><ele>347.0</ele><time>2026-05-03T08:06:08.914Z</time></trkpt><trkpt lat="43.0700533" lon="10.8314917"><ele>347.0</ele><time>2026-05-03T08:06:09.914Z</time></trkpt><trkpt lat="43.07006" lon="10.831745"><ele>347.0</ele><time>2026-05-03T08:06:10.915Z</time></trkpt><trkpt lat="43.0700783" lon="10.8320067"><ele>347.0</ele><time>2026-05-03T08:06:11.914Z</time></trkpt><trkpt lat="43.0701017" lon="10.832275"><ele>347.0</ele><time>2026-05-03T08:06:12.914Z</time></trkpt><trkpt lat="43.0701133" lon="10.832545"><ele>346.0</ele><time>2026-05-03T08:06:13.914Z</time></trkpt><trkpt lat="43.0701167" lon="10.83281"><ele>345.0</ele><time>2026-05-03T08:06:14.913Z</time></trkpt><trkpt lat="43.0701183" lon="10.8330583"><ele>344.0</ele><time>2026-05-03T08:06:15.915Z</time></trkpt><trkpt lat="43.070115" lon="10.8332883"><ele>344.33333333333337</ele><time>2026-05-03T08:06:16.914Z</time></trkpt><trkpt lat="43.07012" lon="10.8335017"><ele>344.6666666666667</ele><time>2026-05-03T08:06:17.914Z</time></trkpt><trkpt lat="43.0701317" lon="10.833705"><ele>345.0</ele><time>2026-05-03T08:06:18.914Z</time></trkpt><trkpt lat="43.07016" lon="10.8339083"><ele>345.0</ele><time>2026-05-03T08:06:19.915Z</time></trkpt><trkpt lat="43.07021" lon="10.8341183"><ele>345.0</ele><time>2026-05-03T08:06:20.911Z</time></trkpt><trkpt lat="43.070265" lon="10.83434"><ele>345.0</ele><time>2026-05-03T08:06:21.915Z</time></trkpt><trkpt lat="43.0703217" lon="10.8345633"><ele>345.0</ele><time>2026-05-03T08:06:22.915Z</time></trkpt><trkpt lat="43.0703733" lon="10.8347783"><ele>345.0</ele><time>2026-05-03T08:06:23.914Z</time></trkpt><trkpt lat="43.0704167" lon="10.834985"><ele>345.0</ele><time>2026-05-03T08:06:24.914Z</time></trkpt><trkpt lat="43.0704483" lon="10.8351683"><ele>343.4</ele><time>2026-05-03T08:06:25.914Z</time></trkpt><trkpt lat="43.0704717" lon="10.8353217"><ele>341.8</ele><time>2026-05-03T08:06:26.914Z</time></trkpt><trkpt lat="43.0704933" lon="10.83545"><ele>340.20000000000005</ele><time>2026-05-03T08:06:27.914Z</time></trkpt><trkpt lat="43.07051" lon="10.835555"><ele>338.6</ele><time>2026-05-03T08:06:28.914Z</time></trkpt><trkpt lat="43.0705333" lon="10.83568"><ele>337.0</ele><time>2026-05-03T08:06:30.914Z</time></trkpt><trkpt lat="43.070595" lon="10.8357233"><ele>337.0</ele><time>2026-05-03T08:06:34.914Z</time></trkpt><trkpt lat="43.070675" lon="10.83565"><ele>337.0</ele><time>2026-05-03T08:06:37.914Z</time></trkpt><trkpt lat="43.0707267" lon="10.8355733"><ele>337.0</ele><time>2026-05-03T08:06:39.911Z</time></trkpt><trkpt lat="43.0707967" lon="10.8355167"><ele>337.0</ele><time>2026-05-03T08:06:41.914Z</time></trkpt><trkpt lat="43.07091" lon="10.8354533"><ele>337.0</ele><time>2026-05-03T08:06:43.915Z</time></trkpt><trkpt lat="43.070975" lon="10.8354283"><ele>337.0</ele><time>2026-05-03T08:06:44.915Z</time></trkpt><trkpt lat="43.07109" lon="10.83545"><ele>340.0</ele><time>2026-05-03T08:06:46.915Z</time></trkpt><trkpt lat="43.071165" lon="10.8354867"><ele>343.0</ele><time>2026-05-03T08:06:47.914Z</time></trkpt><trkpt lat="43.071245" lon="10.83555"><ele>346.0</ele><time>2026-05-03T08:06:49.008Z</time></trkpt><trkpt lat="43.0713333" lon="10.835625"><ele>349.0</ele><time>2026-05-03T08:06:49.912Z</time></trkpt><trkpt lat="43.071425" lon="10.8356983"><ele>352.0</ele><time>2026-05-03T08:06:50.915Z</time></trkpt><trkpt lat="43.07152" lon="10.8357683"><ele>352.6</ele><time>2026-05-03T08:06:51.915Z</time></trkpt><trkpt lat="43.07162" lon="10.8358317"><ele>353.20000000000005</ele><time>2026-05-03T08:06:52.911Z</time></trkpt><trkpt lat="43.0717233" lon="10.8358867"><ele>353.8</ele><time>2026-05-03T08:06:53.915Z</time></trkpt><trkpt lat="43.071815" lon="10.8359533"><ele>354.4</ele><time>2026-05-03T08:06:54.914Z</time></trkpt><trkpt lat="43.0719" lon="10.8360333"><ele>355.0</ele><time>2026-05-03T08:06:55.914Z</time></trkpt><trkpt lat="43.07198" lon="10.8361233"><ele>356.75</ele><time>2026-05-03T08:06:56.914Z</time></trkpt><trkpt lat="43.07206" lon="10.8362267"><ele>358.5</ele><time>2026-05-03T08:06:57.915Z</time></trkpt><trkpt lat="43.0721417" lon="10.8363333"><ele>360.25</ele><time>2026-05-03T08:06:58.915Z</time></trkpt><trkpt lat="43.0722217" lon="10.8364483"><ele>362.0</ele><time>2026-05-03T08:06:59.915Z</time></trkpt><trkpt lat="43.072295" lon="10.8365667"><ele>362.0</ele><time>2026-05-03T08:07:00.914Z</time></trkpt><trkpt lat="43.0723683" lon="10.8366867"><ele>362.0</ele><time>2026-05-03T08:07:01.913Z</time></trkpt><trkpt lat="43.0724317" lon="10.8368"><ele>362.0</ele><time>2026-05-03T08:07:02.914Z</time></trkpt><trkpt lat="43.07249" lon="10.836895"><ele>362.0</ele><time>2026-05-03T08:07:03.911Z</time></trkpt><trkpt lat="43.0725417" lon="10.8369733"><ele>362.0</ele><time>2026-05-03T08:07:04.911Z</time></trkpt><trkpt lat="43.0725933" lon="10.837025"><ele>363.1666666666667</ele><time>2026-05-03T08:07:05.913Z</time></trkpt><trkpt lat="43.0727017" lon="10.83706"><ele>364.33333333333337</ele><time>2026-05-03T08:07:07.912Z</time></trkpt><trkpt lat="43.07276" lon="10.837015"><ele>365.5</ele><time>2026-05-03T08:07:08.912Z</time></trkpt><trkpt lat="43.0728217" lon="10.836965"><ele>366.6666666666667</ele><time>2026-05-03T08:07:09.912Z</time></trkpt><trkpt lat="43.072905" lon="10.83692"><ele>367.8333333333333</ele><time>2026-05-03T08:07:10.912Z</time></trkpt><trkpt lat="43.0730067" lon="10.8368733"><ele>369.0</ele><time>2026-05-03T08:07:11.913Z</time></trkpt><trkpt lat="43.0731483" lon="10.8368583"><ele>368.0</ele><time>2026-05-03T08:07:12.914Z</time></trkpt><trkpt lat="43.0732767" lon="10.8368583"><ele>367.0</ele><time>2026-05-03T08:07:13.915Z</time></trkpt><trkpt lat="43.073415" lon="10.8368583"><ele>366.0</ele><time>2026-05-03T08:07:14.911Z</time></trkpt><trkpt lat="43.0735483" lon="10.8368583"><ele>365.0</ele><time>2026-05-03T08:07:15.914Z</time></trkpt><trkpt lat="43.0736717" lon="10.8368583"><ele>365.0</ele><time>2026-05-03T08:07:16.912Z</time></trkpt><trkpt lat="43.07378" lon="10.8368583"><ele>365.0</ele><time>2026-05-03T08:07:17.914Z</time></trkpt><trkpt lat="43.073895" lon="10.83686"><ele>365.0</ele><time>2026-05-03T08:07:18.914Z</time></trkpt><trkpt lat="43.0740017" lon="10.8368333"><ele>365.0</ele><time>2026-05-03T08:07:19.913Z</time></trkpt><trkpt lat="43.0740983" lon="10.836785"><ele>365.0</ele><time>2026-05-03T08:07:20.914Z</time></trkpt><trkpt lat="43.07419" lon="10.8367117"><ele>361.25</ele><time>2026-05-03T08:07:21.914Z</time></trkpt><trkpt lat="43.07429" lon="10.836625"><ele>357.5</ele><time>2026-05-03T08:07:22.914Z</time></trkpt><trkpt lat="43.0743933" lon="10.8365383"><ele>353.75</ele><time>2026-05-03T08:07:23.914Z</time></trkpt><trkpt lat="43.0745017" lon="10.8364733"><ele>350.0</ele><time>2026-05-03T08:07:24.915Z</time></trkpt><trkpt lat="43.07461" lon="10.8364217"><ele>350.0</ele><time>2026-05-03T08:07:25.915Z</time></trkpt><trkpt lat="43.0747217" lon="10.8363783"><ele>350.0</ele><time>2026-05-03T08:07:26.913Z</time></trkpt><trkpt lat="43.0748383" lon="10.83635"><ele>350.0</ele><time>2026-05-03T08:07:27.914Z</time></trkpt><trkpt lat="43.0749583" lon="10.8363317"><ele>350.0</ele><time>2026-05-03T08:07:28.914Z</time></trkpt><trkpt lat="43.07508" lon="10.8363083"><ele>350.5</ele><time>2026-05-03T08:07:29.914Z</time></trkpt><trkpt lat="43.0751983" lon="10.8362933"><ele>351.0</ele><time>2026-05-03T08:07:30.915Z</time></trkpt><trkpt lat="43.0753217" lon="10.83627"><ele>351.5</ele><time>2026-05-03T08:07:31.914Z</time></trkpt><trkpt lat="43.0754467" lon="10.8362433"><ele>352.0</ele><time>2026-05-03T08:07:32.914Z</time></trkpt><trkpt lat="43.0755683" lon="10.8362133"><ele>352.0</ele><time>2026-05-03T08:07:33.914Z</time></trkpt><trkpt lat="43.0756917" lon="10.8361867"><ele>352.0</ele><time>2026-05-03T08:07:34.914Z</time></trkpt><trkpt lat="43.0758167" lon="10.8361633"><ele>352.0</ele><time>2026-05-03T08:07:35.913Z</time></trkpt><trkpt lat="43.075935" lon="10.8361417"><ele>352.0</ele><time>2026-05-03T08:07:36.914Z</time></trkpt><trkpt lat="43.0760467" lon="10.8361233"><ele>352.6</ele><time>2026-05-03T08:07:37.913Z</time></trkpt><trkpt lat="43.0761517" lon="10.836105"><ele>353.20000000000005</ele><time>2026-05-03T08:07:38.914Z</time></trkpt><trkpt lat="43.07626" lon="10.836085"><ele>353.8</ele><time>2026-05-03T08:07:39.913Z</time></trkpt><trkpt lat="43.0763683" lon="10.83606"><ele>354.4</ele><time>2026-05-03T08:07:40.913Z</time></trkpt><trkpt lat="43.076485" lon="10.8360183"><ele>355.0</ele><time>2026-05-03T08:07:41.913Z</time></trkpt><trkpt lat="43.0766" lon="10.8359817"><ele>353.5</ele><time>2026-05-03T08:07:42.913Z</time></trkpt><trkpt lat="43.0767217" lon="10.8359533"><ele>352.0</ele><time>2026-05-03T08:07:43.913Z</time></trkpt><trkpt lat="43.07684" lon="10.835945"><ele>350.5</ele><time>2026-05-03T08:07:44.913Z</time></trkpt><trkpt lat="43.0769633" lon="10.8359417"><ele>349.0</ele><time>2026-05-03T08:07:45.913Z</time></trkpt><trkpt lat="43.0770883" lon="10.8359367"><ele>349.0</ele><time>2026-05-03T08:07:46.913Z</time></trkpt><trkpt lat="43.0772133" lon="10.835935"><ele>349.0</ele><time>2026-05-03T08:07:47.913Z</time></trkpt><trkpt lat="43.0773333" lon="10.8359433"><ele>349.0</ele><time>2026-05-03T08:07:48.914Z</time></trkpt><trkpt lat="43.0774467" lon="10.83596"><ele>349.0</ele><time>2026-05-03T08:07:49.913Z</time></trkpt><trkpt lat="43.0775433" lon="10.8359817"><ele>351.3333333333333</ele><time>2026-05-03T08:07:50.913Z</time></trkpt><trkpt lat="43.0776217" lon="10.8360117"><ele>353.66666666666663</ele><time>2026-05-03T08:07:51.914Z</time></trkpt><trkpt lat="43.0776933" lon="10.8360567"><ele>356.0</ele><time>2026-05-03T08:07:52.913Z</time></trkpt><trkpt lat="43.077765" lon="10.8361183"><ele>358.3333333333333</ele><time>2026-05-03T08:07:53.915Z</time></trkpt><trkpt lat="43.07784" lon="10.8361867"><ele>360.6666666666667</ele><time>2026-05-03T08:07:54.913Z</time></trkpt><trkpt lat="43.0779117" lon="10.83625"><ele>363.0</ele><time>2026-05-03T08:07:55.913Z</time></trkpt><trkpt lat="43.0779817" lon="10.8362933"><ele>363.0</ele><time>2026-05-03T08:07:56.912Z</time></trkpt><trkpt lat="43.078045" lon="10.836315"><ele>363.0</ele><time>2026-05-03T08:07:57.911Z</time></trkpt><trkpt lat="43.0781167" lon="10.8363267"><ele>363.0</ele><time>2026-05-03T08:07:58.912Z</time></trkpt><trkpt lat="43.0781933" lon="10.8363317"><ele>363.0</ele><time>2026-05-03T08:07:59.913Z</time></trkpt><trkpt lat="43.0782817" lon="10.8363267"><ele>363.0</ele><time>2026-05-03T08:08:00.91Z</time></trkpt><trkpt lat="43.078375" lon="10.8363233"><ele>363.0</ele><time>2026-05-03T08:08:01.911Z</time></trkpt><trkpt lat="43.0784783" lon="10.836315"><ele>362.59999999999997</ele><time>2026-05-03T08:08:02.911Z</time></trkpt><trkpt lat="43.078585" lon="10.8363033"><ele>362.2</ele><time>2026-05-03T08:08:03.911Z</time></trkpt><trkpt lat="43.0786933" lon="10.8362983"><ele>361.8</ele><time>2026-05-03T08:08:04.912Z</time></trkpt><trkpt lat="43.0787933" lon="10.836315"><ele>361.4</ele><time>2026-05-03T08:08:05.911Z</time></trkpt><trkpt lat="43.078885" lon="10.836355"><ele>361.0</ele><time>2026-05-03T08:08:06.91Z</time></trkpt><trkpt lat="43.0789717" lon="10.8364"><ele>361.0</ele><time>2026-05-03T08:08:07.911Z</time></trkpt><trkpt lat="43.07905" lon="10.83645"><ele>361.0</ele><time>2026-05-03T08:08:08.911Z</time></trkpt><trkpt lat="43.0791283" lon="10.8365033"><ele>361.0</ele><time>2026-05-03T08:08:09.911Z</time></trkpt><trkpt lat="43.0792133" lon="10.836555"><ele>361.0</ele><time>2026-05-03T08:08:10.913Z</time></trkpt><trkpt lat="43.079305" lon="10.8366017"><ele>361.0</ele><time>2026-05-03T08:08:11.911Z</time></trkpt><trkpt lat="43.0793967" lon="10.8366483"><ele>359.0</ele><time>2026-05-03T08:08:12.913Z</time></trkpt><trkpt lat="43.0794833" lon="10.836695"><ele>357.0</ele><time>2026-05-03T08:08:13.911Z</time></trkpt><trkpt lat="43.0795733" lon="10.83673"><ele>355.0</ele><time>2026-05-03T08:08:14.912Z</time></trkpt><trkpt lat="43.0796583" lon="10.8367567"><ele>353.0</ele><time>2026-05-03T08:08:15.911Z</time></trkpt><trkpt lat="43.0797467" lon="10.8367683"><ele>351.0</ele><time>2026-05-03T08:08:16.913Z</time></trkpt><trkpt lat="43.0798383" lon="10.8367583"><ele>352.4</ele><time>2026-05-03T08:08:17.913Z</time></trkpt><trkpt lat="43.07995" lon="10.8367533"><ele>353.8</ele><time>2026-05-03T08:08:18.913Z</time></trkpt><trkpt lat="43.08007" lon="10.836755"><ele>355.2</ele><time>2026-05-03T08:08:19.912Z</time></trkpt><trkpt lat="43.0801783" lon="10.8367683"><ele>356.59999999999997</ele><time>2026-05-03T08:08:20.914Z</time></trkpt><trkpt lat="43.08028" lon="10.836795"><ele>358.0</ele><time>2026-05-03T08:08:21.912Z</time></trkpt><trkpt lat="43.080375" lon="10.8368533"><ele>358.0</ele><time>2026-05-03T08:08:22.913Z</time></trkpt><trkpt lat="43.0804517" lon="10.8369217"><ele>358.0</ele><time>2026-05-03T08:08:23.914Z</time></trkpt><trkpt lat="43.0805183" lon="10.83698"><ele>358.0</ele><time>2026-05-03T08:08:24.911Z</time></trkpt><trkpt lat="43.0805783" lon="10.8370317"><ele>358.0</ele><time>2026-05-03T08:08:25.911Z</time></trkpt><trkpt lat="43.0806433" lon="10.8370583"><ele>358.0</ele><time>2026-05-03T08:08:26.911Z</time></trkpt><trkpt lat="43.0807117" lon="10.8370817"><ele>358.0</ele><time>2026-05-03T08:08:27.911Z</time></trkpt><trkpt lat="43.0807817" lon="10.8371167"><ele>356.7142857142857</ele><time>2026-05-03T08:08:28.912Z</time></trkpt><trkpt lat="43.0808517" lon="10.8371683"><ele>355.42857142857144</ele><time>2026-05-03T08:08:29.912Z</time></trkpt><trkpt lat="43.0809183" lon="10.8372383"><ele>354.1428571428571</ele><time>2026-05-03T08:08:30.913Z</time></trkpt><trkpt lat="43.0809817" lon="10.8373017"><ele>352.8571428571429</ele><time>2026-05-03T08:08:31.914Z</time></trkpt><trkpt lat="43.0810383" lon="10.8373533"><ele>351.57142857142856</ele><time>2026-05-03T08:08:32.912Z</time></trkpt><trkpt lat="43.0811033" lon="10.837375"><ele>350.2857142857143</ele><time>2026-05-03T08:08:33.915Z</time></trkpt><trkpt lat="43.08117" lon="10.8373567"><ele>349.0</ele><time>2026-05-03T08:08:34.911Z</time></trkpt><trkpt lat="43.08125" lon="10.8373083"><ele>349.0</ele><time>2026-05-03T08:08:35.913Z</time></trkpt><trkpt lat="43.0813317" lon="10.8372883"><ele>349.0</ele><time>2026-05-03T08:08:36.914Z</time></trkpt><trkpt lat="43.0814183" lon="10.8372817"><ele>349.0</ele><time>2026-05-03T08:08:37.913Z</time></trkpt><trkpt lat="43.0815117" lon="10.8372883"><ele>349.0</ele><time>2026-05-03T08:08:38.913Z</time></trkpt><trkpt lat="43.0816117" lon="10.8373167"><ele>349.0</ele><time>2026-05-03T08:08:39.91Z</time></trkpt><trkpt lat="43.081715" lon="10.8373867"><ele>345.25</ele><time>2026-05-03T08:08:40.912Z</time></trkpt><trkpt lat="43.0818233" lon="10.8374583"><ele>341.5</ele><time>2026-05-03T08:08:41.913Z</time></trkpt><trkpt lat="43.08193" lon="10.8375317"><ele>337.75</ele><time>2026-05-03T08:08:42.911Z</time></trkpt><trkpt lat="43.0820367" lon="10.8375917"><ele>334.0</ele><time>2026-05-03T08:08:43.913Z</time></trkpt><trkpt lat="43.08215" lon="10.8376333"><ele>334.0</ele><time>2026-05-03T08:08:44.911Z</time></trkpt><trkpt lat="43.0822667" lon="10.8376483"><ele>334.0</ele><time>2026-05-03T08:08:45.914Z</time></trkpt><trkpt lat="43.0823917" lon="10.8376283"><ele>334.0</ele><time>2026-05-03T08:08:46.913Z</time></trkpt><trkpt lat="43.0825117" lon="10.8375833"><ele>334.0</ele><time>2026-05-03T08:08:47.911Z</time></trkpt><trkpt lat="43.0826283" lon="10.837525"><ele>331.5</ele><time>2026-05-03T08:08:48.911Z</time></trkpt><trkpt lat="43.0827383" lon="10.83748"><ele>329.0</ele><time>2026-05-03T08:08:49.911Z</time></trkpt><trkpt lat="43.082845" lon="10.837445"><ele>326.5</ele><time>2026-05-03T08:08:50.913Z</time></trkpt><trkpt lat="43.0829567" lon="10.8374083"><ele>324.0</ele><time>2026-05-03T08:08:51.91Z</time></trkpt><trkpt lat="43.0830767" lon="10.837375"><ele>324.0</ele><time>2026-05-03T08:08:53.007Z</time></trkpt><trkpt lat="43.0831967" lon="10.8373517"><ele>324.0</ele><time>2026-05-03T08:08:53.912Z</time></trkpt><trkpt lat="43.083325" lon="10.8373367"><ele>324.0</ele><time>2026-05-03T08:08:54.913Z</time></trkpt><trkpt lat="43.0834533" lon="10.837325"><ele>324.0</ele><time>2026-05-03T08:08:56.001Z</time></trkpt><trkpt lat="43.0835817" lon="10.8373"><ele>323.5</ele><time>2026-05-03T08:08:56.911Z</time></trkpt><trkpt lat="43.08371" lon="10.8372783"><ele>323.0</ele><time>2026-05-03T08:08:57.911Z</time></trkpt><trkpt lat="43.0838383" lon="10.8372683"><ele>322.5</ele><time>2026-05-03T08:08:58.914Z</time></trkpt><trkpt lat="43.0839667" lon="10.8372683"><ele>322.0</ele><time>2026-05-03T08:08:59.912Z</time></trkpt><trkpt lat="43.0840967" lon="10.8372717"><ele>320.25</ele><time>2026-05-03T08:09:00.91Z</time></trkpt><trkpt lat="43.08423" lon="10.8372867"><ele>318.5</ele><time>2026-05-03T08:09:01.911Z</time></trkpt><trkpt lat="43.0843633" lon="10.8373133"><ele>316.75</ele><time>2026-05-03T08:09:02.911Z</time></trkpt><trkpt lat="43.0844967" lon="10.837335"><ele>315.0</ele><time>2026-05-03T08:09:03.911Z</time></trkpt><trkpt lat="43.0846267" lon="10.8373483"><ele>315.0</ele><time>2026-05-03T08:09:04.914Z</time></trkpt><trkpt lat="43.0847417" lon="10.837355"><ele>315.0</ele><time>2026-05-03T08:09:05.913Z</time></trkpt><trkpt lat="43.0848467" lon="10.83735"><ele>315.0</ele><time>2026-05-03T08:09:06.914Z</time></trkpt><trkpt lat="43.0849517" lon="10.8373417"><ele>315.0</ele><time>2026-05-03T08:09:07.915Z</time></trkpt><trkpt lat="43.0850617" lon="10.8373267"><ele>315.0</ele><time>2026-05-03T08:09:08.915Z</time></trkpt><trkpt lat="43.085175" lon="10.837295"><ele>313.25</ele><time>2026-05-03T08:09:09.915Z</time></trkpt><trkpt lat="43.0852967" lon="10.8372583"><ele>311.5</ele><time>2026-05-03T08:09:10.914Z</time></trkpt><trkpt lat="43.0854183" lon="10.83722"><ele>309.75</ele><time>2026-05-03T08:09:11.915Z</time></trkpt><trkpt lat="43.0855317" lon="10.8371817"><ele>308.0</ele><time>2026-05-03T08:09:12.912Z</time></trkpt><trkpt lat="43.0856567" lon="10.8371483"><ele>306.75</ele><time>2026-05-03T08:09:13.913Z</time></trkpt><trkpt lat="43.0857867" lon="10.8371217"><ele>305.5</ele><time>2026-05-03T08:09:14.914Z</time></trkpt><trkpt lat="43.0859233" lon="10.8371017"><ele>304.25</ele><time>2026-05-03T08:09:15.913Z</time></trkpt><trkpt lat="43.0860633" lon="10.83708"><ele>303.0</ele><time>2026-05-03T08:09:16.912Z</time></trkpt><trkpt lat="43.08619" lon="10.8370533"><ele>303.0</ele><time>2026-05-03T08:09:17.916Z</time></trkpt><trkpt lat="43.086315" lon="10.8370317"><ele>303.0</ele><time>2026-05-03T08:09:18.914Z</time></trkpt><trkpt lat="43.0864233" lon="10.8370183"><ele>303.0</ele><time>2026-05-03T08:09:19.911Z</time></trkpt><trkpt lat="43.0865217" lon="10.8370217"><ele>303.0</ele><time>2026-05-03T08:09:20.911Z</time></trkpt><trkpt lat="43.086615" lon="10.8370583"><ele>303.0</ele><time>2026-05-03T08:09:21.914Z</time></trkpt><trkpt lat="43.0867017" lon="10.83712"><ele>301.8333333333333</ele><time>2026-05-03T08:09:22.914Z</time></trkpt><trkpt lat="43.0867733" lon="10.8372"><ele>300.6666666666667</ele><time>2026-05-03T08:09:23.914Z</time></trkpt><trkpt lat="43.0868267" lon="10.8372883"><ele>299.5</ele><time>2026-05-03T08:09:24.914Z</time></trkpt><trkpt lat="43.0868583" lon="10.8373767"><ele>298.33333333333337</ele><time>2026-05-03T08:09:25.914Z</time></trkpt><trkpt lat="43.0868617" lon="10.837465"><ele>297.1666666666667</ele><time>2026-05-03T08:09:26.911Z</time></trkpt><trkpt lat="43.0868383" lon="10.8375483"><ele>296.0</ele><time>2026-05-03T08:09:27.913Z</time></trkpt><trkpt lat="43.086785" lon="10.8376367"><ele>295.0</ele><time>2026-05-03T08:09:28.911Z</time></trkpt><trkpt lat="43.0867083" lon="10.837725"><ele>294.0</ele><time>2026-05-03T08:09:29.912Z</time></trkpt><trkpt lat="43.0866183" lon="10.8378333"><ele>293.0</ele><time>2026-05-03T08:09:30.913Z</time></trkpt><trkpt lat="43.0865317" lon="10.8379533"><ele>292.0</ele><time>2026-05-03T08:09:31.913Z</time></trkpt><trkpt lat="43.0864383" lon="10.8380917"><ele>292.0</ele><time>2026-05-03T08:09:32.912Z</time></trkpt><trkpt lat="43.0863517" lon="10.83822"><ele>292.0</ele><time>2026-05-03T08:09:33.915Z</time></trkpt><trkpt lat="43.08627" lon="10.8383417"><ele>292.0</ele><time>2026-05-03T08:09:34.913Z</time></trkpt><trkpt lat="43.086195" lon="10.8384533"><ele>292.0</ele><time>2026-05-03T08:09:35.914Z</time></trkpt><trkpt lat="43.086125" lon="10.838565"><ele>291.16666666666663</ele><time>2026-05-03T08:09:36.915Z</time></trkpt><trkpt lat="43.0860633" lon="10.8386667"><ele>290.3333333333333</ele><time>2026-05-03T08:09:37.915Z</time></trkpt><trkpt lat="43.0860117" lon="10.8387517"><ele>289.5</ele><time>2026-05-03T08:09:38.914Z</time></trkpt><trkpt lat="43.08598" lon="10.8388383"><ele>288.6666666666667</ele><time>2026-05-03T08:09:39.914Z</time></trkpt><trkpt lat="43.0859567" lon="10.83893"><ele>287.83333333333337</ele><time>2026-05-03T08:09:40.912Z</time></trkpt><trkpt lat="43.0859567" lon="10.8390317"><ele>287.0</ele><time>2026-05-03T08:09:41.912Z</time></trkpt><trkpt lat="43.0859533" lon="10.8391317"><ele>287.0</ele><time>2026-05-03T08:09:42.911Z</time></trkpt><trkpt lat="43.0859817" lon="10.8392567"><ele>287.0</ele><time>2026-05-03T08:09:43.916Z</time></trkpt><trkpt lat="43.08598" lon="10.839385"><ele>287.0</ele><time>2026-05-03T08:09:44.913Z</time></trkpt><trkpt lat="43.0859767" lon="10.8394983"><ele>287.0</ele><time>2026-05-03T08:09:45.914Z</time></trkpt><trkpt lat="43.0859817" lon="10.8396133"><ele>287.0</ele><time>2026-05-03T08:09:46.911Z</time></trkpt><trkpt lat="43.0859867" lon="10.8397383"><ele>287.0</ele><time>2026-05-03T08:09:47.912Z</time></trkpt><trkpt lat="43.086005" lon="10.8398717"><ele>286.4</ele><time>2026-05-03T08:09:48.912Z</time></trkpt><trkpt lat="43.0860283" lon="10.8400083"><ele>285.79999999999995</ele><time>2026-05-03T08:09:49.914Z</time></trkpt><trkpt lat="43.086045" lon="10.840155"><ele>285.2</ele><time>2026-05-03T08:09:50.912Z</time></trkpt><trkpt lat="43.086055" lon="10.8403217"><ele>284.59999999999997</ele><time>2026-05-03T08:09:51.911Z</time></trkpt><trkpt lat="43.0860617" lon="10.840475"><ele>284.0</ele><time>2026-05-03T08:09:52.912Z</time></trkpt><trkpt lat="43.0860433" lon="10.8406217"><ele>283.0</ele><time>2026-05-03T08:09:53.913Z</time></trkpt><trkpt lat="43.0860267" lon="10.8407467"><ele>282.0</ele><time>2026-05-03T08:09:54.912Z</time></trkpt><trkpt lat="43.0860117" lon="10.8408533"><ele>281.0</ele><time>2026-05-03T08:09:55.913Z</time></trkpt><trkpt lat="43.085995" lon="10.8409533"><ele>280.0</ele><time>2026-05-03T08:09:56.912Z</time></trkpt><trkpt lat="43.0860083" lon="10.84104"><ele>279.0</ele><time>2026-05-03T08:09:57.911Z</time></trkpt><trkpt lat="43.08608" lon="10.841135"><ele>278.0</ele><time>2026-05-03T08:09:59.914Z</time></trkpt><trkpt lat="43.0861717" lon="10.8411"><ele>278.0</ele><time>2026-05-03T08:10:00.913Z</time></trkpt><trkpt lat="43.0862667" lon="10.8410383"><ele>278.0</ele><time>2026-05-03T08:10:01.911Z</time></trkpt><trkpt lat="43.0863667" lon="10.84095"><ele>278.0</ele><time>2026-05-03T08:10:02.913Z</time></trkpt><trkpt lat="43.0864617" lon="10.84086"><ele>278.0</ele><time>2026-05-03T08:10:03.913Z</time></trkpt><trkpt lat="43.0865517" lon="10.8407817"><ele>278.0</ele><time>2026-05-03T08:10:04.913Z</time></trkpt><trkpt lat="43.08665" lon="10.8407167"><ele>273.5</ele><time>2026-05-03T08:10:05.912Z</time></trkpt><trkpt lat="43.0867667" lon="10.84066"><ele>269.0</ele><time>2026-05-03T08:10:06.911Z</time></trkpt><trkpt lat="43.0868983" lon="10.840625"><ele>264.5</ele><time>2026-05-03T08:10:07.911Z</time></trkpt><trkpt lat="43.0870367" lon="10.840605"><ele>260.0</ele><time>2026-05-03T08:10:08.912Z</time></trkpt><trkpt lat="43.0871617" lon="10.8406033"><ele>260.0</ele><time>2026-05-03T08:10:09.912Z</time></trkpt><trkpt lat="43.0872717" lon="10.8406217"><ele>260.0</ele><time>2026-05-03T08:10:10.912Z</time></trkpt><trkpt lat="43.0873667" lon="10.8406517"><ele>260.0</ele><time>2026-05-03T08:10:11.915Z</time></trkpt><trkpt lat="43.087445" lon="10.8406967"><ele>260.0</ele><time>2026-05-03T08:10:12.912Z</time></trkpt><trkpt lat="43.0875117" lon="10.8407617"><ele>260.0</ele><time>2026-05-03T08:10:13.912Z</time></trkpt><trkpt lat="43.08756" lon="10.8408367"><ele>260.0</ele><time>2026-05-03T08:10:14.914Z</time></trkpt><trkpt lat="43.0875983" lon="10.84091"><ele>256.8</ele><time>2026-05-03T08:10:15.915Z</time></trkpt><trkpt lat="43.0875883" lon="10.841005"><ele>253.6</ele><time>2026-05-03T08:10:16.914Z</time></trkpt><trkpt lat="43.0875617" lon="10.84111"><ele>250.39999999999998</ele><time>2026-05-03T08:10:17.911Z</time></trkpt><trkpt lat="43.0875167" lon="10.8412317"><ele>247.2</ele><time>2026-05-03T08:10:18.911Z</time></trkpt><trkpt lat="43.0874767" lon="10.841375"><ele>244.0</ele><time>2026-05-03T08:10:19.914Z</time></trkpt><trkpt lat="43.0874683" lon="10.8415317"><ele>244.0</ele><time>2026-05-03T08:10:20.915Z</time></trkpt><trkpt lat="43.08748" lon="10.8416933"><ele>243.99999999999997</ele><time>2026-05-03T08:10:21.91Z</time></trkpt><trkpt lat="43.087505" lon="10.841835"><ele>243.99999999999997</ele><time>2026-05-03T08:10:22.914Z</time></trkpt><trkpt lat="43.0875433" lon="10.8419467"><ele>244.0</ele><time>2026-05-03T08:10:23.913Z</time></trkpt><trkpt lat="43.0875883" lon="10.8420283"><ele>244.0</ele><time>2026-05-03T08:10:24.914Z</time></trkpt><trkpt lat="43.087645" lon="10.8420833"><ele>241.83333333333331</ele><time>2026-05-03T08:10:25.914Z</time></trkpt><trkpt lat="43.0877167" lon="10.84211"><ele>239.66666666666666</ele><time>2026-05-03T08:10:26.915Z</time></trkpt><trkpt lat="43.087805" lon="10.8421233"><ele>237.5</ele><time>2026-05-03T08:10:27.912Z</time></trkpt><trkpt lat="43.0878917" lon="10.8421317"><ele>235.33333333333331</ele><time>2026-05-03T08:10:28.912Z</time></trkpt><trkpt lat="43.0879783" lon="10.84213"><ele>233.16666666666666</ele><time>2026-05-03T08:10:29.913Z</time></trkpt><trkpt lat="43.0880617" lon="10.8421317"><ele>231.0</ele><time>2026-05-03T08:10:30.914Z</time></trkpt><trkpt lat="43.0881417" lon="10.842135"><ele>231.0</ele><time>2026-05-03T08:10:31.914Z</time></trkpt><trkpt lat="43.08822" lon="10.8421317"><ele>231.0</ele><time>2026-05-03T08:10:32.911Z</time></trkpt><trkpt lat="43.0882933" lon="10.8421133"><ele>231.0</ele><time>2026-05-03T08:10:33.913Z</time></trkpt><trkpt lat="43.0883617" lon="10.8420717"><ele>231.0</ele><time>2026-05-03T08:10:34.915Z</time></trkpt><trkpt lat="43.0884367" lon="10.8420083"><ele>231.0</ele><time>2026-05-03T08:10:35.914Z</time></trkpt><trkpt lat="43.0885117" lon="10.8419067"><ele>231.0</ele><time>2026-05-03T08:10:36.914Z</time></trkpt><trkpt lat="43.08857" lon="10.8417583"><ele>231.0</ele><time>2026-05-03T08:10:37.914Z</time></trkpt><trkpt lat="43.0886183" lon="10.84164"><ele>231.0</ele><time>2026-05-03T08:10:38.914Z</time></trkpt><trkpt lat="43.0886433" lon="10.8415383"><ele>231.0</ele><time>2026-05-03T08:10:39.91Z</time></trkpt><trkpt lat="43.0886633" lon="10.8414433"><ele>231.0</ele><time>2026-05-03T08:10:40.912Z</time></trkpt><trkpt lat="43.0887" lon="10.8413133"><ele>231.0</ele><time>2026-05-03T08:10:42.911Z</time></trkpt><trkpt lat="43.0887567" lon="10.841265"><ele>231.0</ele><time>2026-05-03T08:10:44.914Z</time></trkpt><trkpt lat="43.08882" lon="10.8413217"><ele>231.0</ele><time>2026-05-03T08:10:46.913Z</time></trkpt><trkpt lat="43.0888483" lon="10.84142"><ele>231.0</ele><time>2026-05-03T08:10:47.915Z</time></trkpt><trkpt lat="43.0888717" lon="10.841515"><ele>231.0</ele><time>2026-05-03T08:10:48.915Z</time></trkpt><trkpt lat="43.088885" lon="10.8416133"><ele>231.0</ele><time>2026-05-03T08:10:49.914Z</time></trkpt><trkpt lat="43.0888817" lon="10.8417233"><ele>231.0</ele><time>2026-05-03T08:10:50.91Z</time></trkpt><trkpt lat="43.0888767" lon="10.8418283"><ele>231.0</ele><time>2026-05-03T08:10:51.914Z</time></trkpt><trkpt lat="43.0888883" lon="10.84194"><ele>229.83333333333334</ele><time>2026-05-03T08:10:52.912Z</time></trkpt><trkpt lat="43.088905" lon="10.8420467"><ele>228.66666666666669</ele><time>2026-05-03T08:10:53.913Z</time></trkpt><trkpt lat="43.088945" lon="10.842145"><ele>227.5</ele><time>2026-05-03T08:10:54.912Z</time></trkpt><trkpt lat="43.0890067" lon="10.842225"><ele>226.33333333333334</ele><time>2026-05-03T08:10:55.911Z</time></trkpt><trkpt lat="43.089075" lon="10.8422917"><ele>225.16666666666669</ele><time>2026-05-03T08:10:56.914Z</time></trkpt><trkpt lat="43.08916" lon="10.8423483"><ele>224.0</ele><time>2026-05-03T08:10:57.91Z</time></trkpt><trkpt lat="43.0892333" lon="10.842395"><ele>220.39999999999998</ele><time>2026-05-03T08:10:58.913Z</time></trkpt><trkpt lat="43.0892867" lon="10.8424483"><ele>216.79999999999998</ele><time>2026-05-03T08:10:59.914Z</time></trkpt><trkpt lat="43.0893317" lon="10.8425967"><ele>213.2</ele><time>2026-05-03T08:11:01.914Z</time></trkpt><trkpt lat="43.0893117" lon="10.842705"><ele>209.60000000000002</ele><time>2026-05-03T08:11:02.914Z</time></trkpt><trkpt lat="43.0892667" lon="10.842825"><ele>206.0</ele><time>2026-05-03T08:11:03.914Z</time></trkpt><trkpt lat="43.0892033" lon="10.84296"><ele>204.60000000000002</ele><time>2026-05-03T08:11:04.915Z</time></trkpt><trkpt lat="43.0891633" lon="10.843095"><ele>203.2</ele><time>2026-05-03T08:11:05.914Z</time></trkpt><trkpt lat="43.0891317" lon="10.8432417"><ele>201.8</ele><time>2026-05-03T08:11:06.914Z</time></trkpt><trkpt lat="43.08911" lon="10.8433817"><ele>200.39999999999998</ele><time>2026-05-03T08:11:07.914Z</time></trkpt><trkpt lat="43.0890767" lon="10.8435183"><ele>199.0</ele><time>2026-05-03T08:11:08.911Z</time></trkpt><trkpt lat="43.0890383" lon="10.8436433"><ele>198.99999999999997</ele><time>2026-05-03T08:11:09.913Z</time></trkpt><trkpt lat="43.0890067" lon="10.8437533"><ele>199.0</ele><time>2026-05-03T08:11:10.911Z</time></trkpt><trkpt lat="43.08897" lon="10.8438517"><ele>199.0</ele><time>2026-05-03T08:11:11.913Z</time></trkpt><trkpt lat="43.0889483" lon="10.8439333"><ele>199.0</ele><time>2026-05-03T08:11:12.912Z</time></trkpt><trkpt lat="43.0889367" lon="10.844075"><ele>198.99999999999997</ele><time>2026-05-03T08:11:14.912Z</time></trkpt><trkpt lat="43.0890017" lon="10.8441633"><ele>199.0</ele><time>2026-05-03T08:11:16.914Z</time></trkpt><trkpt lat="43.0891417" lon="10.8441533"><ele>197.0</ele><time>2026-05-03T08:11:18.912Z</time></trkpt><trkpt lat="43.089235" lon="10.8441067"><ele>195.0</ele><time>2026-05-03T08:11:19.913Z</time></trkpt><trkpt lat="43.0893433" lon="10.84404"><ele>193.0</ele><time>2026-05-03T08:11:20.913Z</time></trkpt><trkpt lat="43.08943" lon="10.8439767"><ele>191.0</ele><time>2026-05-03T08:11:21.912Z</time></trkpt><trkpt lat="43.089515" lon="10.843915"><ele>189.0</ele><time>2026-05-03T08:11:22.913Z</time></trkpt><trkpt lat="43.0896033" lon="10.8438533"><ele>189.0</ele><time>2026-05-03T08:11:23.913Z</time></trkpt><trkpt lat="43.0897017" lon="10.8437933"><ele>189.0</ele><time>2026-05-03T08:11:24.912Z</time></trkpt><trkpt lat="43.0897917" lon="10.8437333"><ele>189.0</ele><time>2026-05-03T08:11:25.912Z</time></trkpt><trkpt lat="43.0898783" lon="10.8436683"><ele>189.0</ele><time>2026-05-03T08:11:26.913Z</time></trkpt><trkpt lat="43.0899617" lon="10.8435983"><ele>189.0</ele><time>2026-05-03T08:11:27.912Z</time></trkpt><trkpt lat="43.0900367" lon="10.8435283"><ele>187.79999999999998</ele><time>2026-05-03T08:11:28.913Z</time></trkpt><trkpt lat="43.0901183" lon="10.84344"><ele>186.6</ele><time>2026-05-03T08:11:29.912Z</time></trkpt><trkpt lat="43.0902017" lon="10.843355"><ele>185.4</ele><time>2026-05-03T08:11:30.912Z</time></trkpt><trkpt lat="43.09029" lon="10.8432617"><ele>184.2</ele><time>2026-05-03T08:11:31.913Z</time></trkpt><trkpt lat="43.0903733" lon="10.8431767"><ele>183.0</ele><time>2026-05-03T08:11:32.913Z</time></trkpt><trkpt lat="43.0904567" lon="10.8430817"><ele>183.0</ele><time>2026-05-03T08:11:33.913Z</time></trkpt><trkpt lat="43.0905283" lon="10.8429917"><ele>183.0</ele><time>2026-05-03T08:11:34.913Z</time></trkpt><trkpt lat="43.0905983" lon="10.842905"><ele>183.0</ele><time>2026-05-03T08:11:35.912Z</time></trkpt><trkpt lat="43.09066" lon="10.8428133"><ele>183.0</ele><time>2026-05-03T08:11:36.912Z</time></trkpt><trkpt lat="43.0907133" lon="10.8427233"><ele>183.0</ele><time>2026-05-03T08:11:37.913Z</time></trkpt><trkpt lat="43.0907617" lon="10.84264"><ele>183.0</ele><time>2026-05-03T08:11:38.913Z</time></trkpt><trkpt lat="43.09081" lon="10.8425583"><ele>181.83333333333334</ele><time>2026-05-03T08:11:39.913Z</time></trkpt><trkpt lat="43.0908583" lon="10.842485"><ele>180.66666666666666</ele><time>2026-05-03T08:11:40.915Z</time></trkpt><trkpt lat="43.0909117" lon="10.8424117"><ele>179.5</ele><time>2026-05-03T08:11:41.913Z</time></trkpt><trkpt lat="43.0909717" lon="10.84233"><ele>178.33333333333331</ele><time>2026-05-03T08:11:42.912Z</time></trkpt><trkpt lat="43.0910367" lon="10.842255"><ele>177.16666666666666</ele><time>2026-05-03T08:11:43.911Z</time></trkpt><trkpt lat="43.0910983" lon="10.842175"><ele>176.0</ele><time>2026-05-03T08:11:44.914Z</time></trkpt><trkpt lat="43.0911617" lon="10.84209"><ele>176.0</ele><time>2026-05-03T08:11:45.912Z</time></trkpt><trkpt lat="43.09122" lon="10.8420167"><ele>176.0</ele><time>2026-05-03T08:11:46.914Z</time></trkpt><trkpt lat="43.0912683" lon="10.8419483"><ele>176.0</ele><time>2026-05-03T08:11:47.913Z</time></trkpt><trkpt lat="43.0913433" lon="10.8418417"><ele>176.0</ele><time>2026-05-03T08:11:49.912Z</time></trkpt><trkpt lat="43.0913917" lon="10.8417667"><ele>176.0</ele><time>2026-05-03T08:11:51.912Z</time></trkpt><trkpt lat="43.0914483" lon="10.8416567"><ele>176.0</ele><time>2026-05-03T08:13:59.911Z</time></trkpt><trkpt lat="43.09151" lon="10.8415717"><ele>175.33333333333331</ele><time>2026-05-03T08:14:04.911Z</time></trkpt><trkpt lat="43.0915867" lon="10.8415117"><ele>174.66666666666666</ele><time>2026-05-03T08:14:06.911Z</time></trkpt><trkpt lat="43.0916883" lon="10.841435"><ele>174.0</ele><time>2026-05-03T08:14:08.914Z</time></trkpt><trkpt lat="43.0917467" lon="10.8413833"><ele>173.33333333333334</ele><time>2026-05-03T08:14:09.911Z</time></trkpt><trkpt lat="43.0918033" lon="10.8413283"><ele>172.66666666666669</ele><time>2026-05-03T08:14:11.007Z</time></trkpt><trkpt lat="43.09186" lon="10.8412633"><ele>172.0</ele><time>2026-05-03T08:14:11.913Z</time></trkpt><trkpt lat="43.0919167" lon="10.84118"><ele>172.0</ele><time>2026-05-03T08:14:12.914Z</time></trkpt><trkpt lat="43.09198" lon="10.8410867"><ele>172.0</ele><time>2026-05-03T08:14:13.911Z</time></trkpt><trkpt lat="43.0920417" lon="10.8409867"><ele>172.0</ele><time>2026-05-03T08:14:14.914Z</time></trkpt><trkpt lat="43.0921017" lon="10.8408867"><ele>172.0</ele><time>2026-05-03T08:14:15.911Z</time></trkpt><trkpt lat="43.0921633" lon="10.8407983"><ele>172.0</ele><time>2026-05-03T08:14:16.914Z</time></trkpt><trkpt lat="43.0922067" lon="10.84072"><ele>172.0</ele><time>2026-05-03T08:14:17.915Z</time></trkpt><trkpt lat="43.0922467" lon="10.8406517"><ele>171.16666666666669</ele><time>2026-05-03T08:14:18.915Z</time></trkpt><trkpt lat="43.092295" lon="10.84059"><ele>170.33333333333334</ele><time>2026-05-03T08:14:19.914Z</time></trkpt><trkpt lat="43.092335" lon="10.8405217"><ele>169.5</ele><time>2026-05-03T08:14:20.914Z</time></trkpt><trkpt lat="43.092405" lon="10.84043"><ele>168.66666666666666</ele><time>2026-05-03T08:14:22.912Z</time></trkpt><trkpt lat="43.09248" lon="10.840395"><ele>167.83333333333331</ele><time>2026-05-03T08:14:25.914Z</time></trkpt><trkpt lat="43.0925683" lon="10.8404567"><ele>167.0</ele><time>2026-05-03T08:14:28.912Z</time></trkpt><trkpt lat="43.0926433" lon="10.8405467"><ele>167.0</ele><time>2026-05-03T08:14:30.911Z</time></trkpt><trkpt lat="43.09271" lon="10.84067"><ele>167.0</ele><time>2026-05-03T08:14:32.912Z</time></trkpt><trkpt lat="43.09277" lon="10.84074"><ele>167.0</ele><time>2026-05-03T08:14:34.912Z</time></trkpt><trkpt lat="43.0928667" lon="10.840755"><ele>167.0</ele><time>2026-05-03T08:14:36.911Z</time></trkpt><trkpt lat="43.0929833" lon="10.8406867"><ele>167.0</ele><time>2026-05-03T08:14:38.914Z</time></trkpt><trkpt lat="43.0930417" lon="10.8406283"><ele>167.0</ele><time>2026-05-03T08:14:39.914Z</time></trkpt><trkpt lat="43.0930883" lon="10.8405533"><ele>167.0</ele><time>2026-05-03T08:14:40.914Z</time></trkpt><trkpt lat="43.0931333" lon="10.8404467"><ele>167.0</ele><time>2026-05-03T08:14:41.915Z</time></trkpt><trkpt lat="43.0931767" lon="10.8403267"><ele>167.0</ele><time>2026-05-03T08:14:42.914Z</time></trkpt><trkpt lat="43.093215" lon="10.8402083"><ele>167.0</ele><time>2026-05-03T08:14:43.914Z</time></trkpt><trkpt lat="43.09325" lon="10.8401083"><ele>167.0</ele><time>2026-05-03T08:14:44.911Z</time></trkpt><trkpt lat="43.09329" lon="10.840025"><ele>167.83333333333331</ele><time>2026-05-03T08:14:45.912Z</time></trkpt><trkpt lat="43.0933617" lon="10.8399"><ele>168.66666666666666</ele><time>2026-05-03T08:14:47.913Z</time></trkpt><trkpt lat="43.0934117" lon="10.8398183"><ele>169.5</ele><time>2026-05-03T08:14:49.913Z</time></trkpt><trkpt lat="43.0934867" lon="10.8397617"><ele>170.33333333333334</ele><time>2026-05-03T08:14:52.912Z</time></trkpt><trkpt lat="43.093575" lon="10.8397567"><ele>171.16666666666669</ele><time>2026-05-03T08:14:54.912Z</time></trkpt><trkpt lat="43.0936417" lon="10.83974"><ele>172.0</ele><time>2026-05-03T08:14:55.912Z</time></trkpt><trkpt lat="43.09372" lon="10.8397517"><ele>172.0</ele><time>2026-05-03T08:14:56.914Z</time></trkpt><trkpt lat="43.0938083" lon="10.8397583"><ele>172.0</ele><time>2026-05-03T08:14:57.912Z</time></trkpt><trkpt lat="43.0939" lon="10.8397633"><ele>172.0</ele><time>2026-05-03T08:14:58.912Z</time></trkpt><trkpt lat="43.09399" lon="10.8397617"><ele>172.0</ele><time>2026-05-03T08:14:59.913Z</time></trkpt><trkpt lat="43.094085" lon="10.83975"><ele>172.0</ele><time>2026-05-03T08:15:00.913Z</time></trkpt><trkpt lat="43.09418" lon="10.839735"><ele>174.0</ele><time>2026-05-03T08:15:01.912Z</time></trkpt><trkpt lat="43.0942717" lon="10.8397317"><ele>176.0</ele><time>2026-05-03T08:15:02.912Z</time></trkpt><trkpt lat="43.09436" lon="10.839735"><ele>178.0</ele><time>2026-05-03T08:15:03.914Z</time></trkpt><trkpt lat="43.0944467" lon="10.8397567"><ele>180.0</ele><time>2026-05-03T08:15:04.912Z</time></trkpt><trkpt lat="43.0945367" lon="10.839795"><ele>182.0</ele><time>2026-05-03T08:15:05.913Z</time></trkpt><trkpt lat="43.094635" lon="10.8398383"><ele>182.0</ele><time>2026-05-03T08:15:06.911Z</time></trkpt><trkpt lat="43.0947333" lon="10.8398917"><ele>182.0</ele><time>2026-05-03T08:15:07.912Z</time></trkpt><trkpt lat="43.0948283" lon="10.8399383"><ele>182.0</ele><time>2026-05-03T08:15:08.912Z</time></trkpt><trkpt lat="43.0949233" lon="10.8399783"><ele>182.0</ele><time>2026-05-03T08:15:09.912Z</time></trkpt><trkpt lat="43.0950233" lon="10.8400133"><ele>182.0</ele><time>2026-05-03T08:15:10.913Z</time></trkpt><trkpt lat="43.0951217" lon="10.8400217"><ele>183.6</ele><time>2026-05-03T08:15:11.913Z</time></trkpt><trkpt lat="43.0952117" lon="10.8400133"><ele>185.2</ele><time>2026-05-03T08:15:12.911Z</time></trkpt><trkpt lat="43.0952867" lon="10.8400083"><ele>186.8</ele><time>2026-05-03T08:15:13.912Z</time></trkpt><trkpt lat="43.0953733" lon="10.8399383"><ele>188.4</ele><time>2026-05-03T08:15:15.914Z</time></trkpt><trkpt lat="43.095365" lon="10.83983"><ele>190.0</ele><time>2026-05-03T08:15:18.913Z</time></trkpt><trkpt lat="43.0952633" lon="10.8397733"><ele>190.0</ele><time>2026-05-03T08:15:20.912Z</time></trkpt><trkpt lat="43.0952017" lon="10.839725"><ele>190.0</ele><time>2026-05-03T08:15:21.911Z</time></trkpt><trkpt lat="43.095135" lon="10.83966"><ele>190.0</ele><time>2026-05-03T08:15:22.911Z</time></trkpt><trkpt lat="43.0950733" lon="10.8396"><ele>190.0</ele><time>2026-05-03T08:15:23.913Z</time></trkpt><trkpt lat="43.0950167" lon="10.8395217"><ele>190.0</ele><time>2026-05-03T08:15:24.912Z</time></trkpt><trkpt lat="43.0949733" lon="10.8394417"><ele>190.0</ele><time>2026-05-03T08:15:25.913Z</time></trkpt><trkpt lat="43.094945" lon="10.8393567"><ele>189.5</ele><time>2026-05-03T08:15:26.912Z</time></trkpt><trkpt lat="43.0948967" lon="10.8392"><ele>189.0</ele><time>2026-05-03T08:15:28.911Z</time></trkpt><trkpt lat="43.0948767" lon="10.8391067"><ele>188.5</ele><time>2026-05-03T08:15:29.911Z</time></trkpt><trkpt lat="43.0948467" lon="10.8390117"><ele>188.0</ele><time>2026-05-03T08:15:30.911Z</time></trkpt><trkpt lat="43.0948317" lon="10.8389"><ele>187.5</ele><time>2026-05-03T08:15:31.91Z</time></trkpt><trkpt lat="43.0948133" lon="10.83878"><ele>187.0</ele><time>2026-05-03T08:15:32.911Z</time></trkpt><trkpt lat="43.094805" lon="10.8386617"><ele>187.0</ele><time>2026-05-03T08:15:33.913Z</time></trkpt><trkpt lat="43.0948117" lon="10.8385183"><ele>187.0</ele><time>2026-05-03T08:15:34.911Z</time></trkpt><trkpt lat="43.0948217" lon="10.8383833"><ele>187.0</ele><time>2026-05-03T08:15:35.912Z</time></trkpt><trkpt lat="43.0948417" lon="10.838245"><ele>187.0</ele><time>2026-05-03T08:15:36.91Z</time></trkpt><trkpt lat="43.0948567" lon="10.8381"><ele>187.0</ele><time>2026-05-03T08:15:37.91Z</time></trkpt><trkpt lat="43.0948783" lon="10.8379583"><ele>188.39999999999998</ele><time>2026-05-03T08:15:38.912Z</time></trkpt><trkpt lat="43.0949033" lon="10.8378217"><ele>189.79999999999998</ele><time>2026-05-03T08:15:39.911Z</time></trkpt><trkpt lat="43.094935" lon="10.837685"><ele>191.2</ele><time>2026-05-03T08:15:40.91Z</time></trkpt><trkpt lat="43.0949767" lon="10.8375533"><ele>192.6</ele><time>2026-05-03T08:15:41.911Z</time></trkpt><trkpt lat="43.0950217" lon="10.8374267"><ele>194.0</ele><time>2026-05-03T08:15:42.91Z</time></trkpt><trkpt lat="43.0950767" lon="10.8373117"><ele>198.33333333333334</ele><time>2026-05-03T08:15:43.91Z</time></trkpt><trkpt lat="43.0951417" lon="10.8372067"><ele>202.66666666666669</ele><time>2026-05-03T08:15:44.911Z</time></trkpt><trkpt lat="43.095205" lon="10.8371267"><ele>207.0</ele><time>2026-05-03T08:15:45.911Z</time></trkpt><trkpt lat="43.0952833" lon="10.8370517"><ele>211.33333333333331</ele><time>2026-05-03T08:15:46.912Z</time></trkpt><trkpt lat="43.0953617" lon="10.8370067"><ele>215.66666666666666</ele><time>2026-05-03T08:15:47.911Z</time></trkpt><trkpt lat="43.0954333" lon="10.8369517"><ele>220.0</ele><time>2026-05-03T08:15:48.911Z</time></trkpt><trkpt lat="43.095495" lon="10.8368867"><ele>219.99999999999997</ele><time>2026-05-03T08:15:49.911Z</time></trkpt><trkpt lat="43.0955483" lon="10.8368083"><ele>220.0</ele><time>2026-05-03T08:15:50.911Z</time></trkpt><trkpt lat="43.0956017" lon="10.8367183"><ele>220.0</ele><time>2026-05-03T08:15:51.912Z</time></trkpt><trkpt lat="43.09566" lon="10.8366467"><ele>220.0</ele><time>2026-05-03T08:15:52.911Z</time></trkpt><trkpt lat="43.095725" lon="10.836565"><ele>219.99999999999997</ele><time>2026-05-03T08:15:53.914Z</time></trkpt><trkpt lat="43.095795" lon="10.836485"><ele>220.0</ele><time>2026-05-03T08:15:54.911Z</time></trkpt><trkpt lat="43.0958633" lon="10.83639"><ele>222.66666666666666</ele><time>2026-05-03T08:15:55.913Z</time></trkpt><trkpt lat="43.0959333" lon="10.8362917"><ele>225.33333333333331</ele><time>2026-05-03T08:15:56.912Z</time></trkpt><trkpt lat="43.096005" lon="10.8362083"><ele>228.0</ele><time>2026-05-03T08:15:57.913Z</time></trkpt><trkpt lat="43.09608" lon="10.8361317"><ele>230.66666666666669</ele><time>2026-05-03T08:15:58.913Z</time></trkpt><trkpt lat="43.096155" lon="10.83607"><ele>233.33333333333334</ele><time>2026-05-03T08:15:59.913Z</time></trkpt><trkpt lat="43.09622" lon="10.836025"><ele>236.0</ele><time>2026-05-03T08:16:00.912Z</time></trkpt><trkpt lat="43.0963267" lon="10.8360133"><ele>236.0</ele><time>2026-05-03T08:16:02.914Z</time></trkpt><trkpt lat="43.0964183" lon="10.8360783"><ele>236.0</ele><time>2026-05-03T08:16:04.913Z</time></trkpt><trkpt lat="43.09647" lon="10.8362267"><ele>236.0</ele><time>2026-05-03T08:16:06.914Z</time></trkpt><trkpt lat="43.0965083" lon="10.8364367"><ele>236.0</ele><time>2026-05-03T08:16:08.914Z</time></trkpt><trkpt lat="43.0965317" lon="10.83653"><ele>239.8</ele><time>2026-05-03T08:16:09.913Z</time></trkpt><trkpt lat="43.0965867" lon="10.8366167"><ele>243.60000000000002</ele><time>2026-05-03T08:16:11.914Z</time></trkpt><trkpt lat="43.096705" lon="10.8365833"><ele>247.4</ele><time>2026-05-03T08:16:13.913Z</time></trkpt><trkpt lat="43.096795" lon="10.8365333"><ele>251.2</ele><time>2026-05-03T08:16:14.912Z</time></trkpt><trkpt lat="43.0968867" lon="10.8364917"><ele>255.0</ele><time>2026-05-03T08:16:15.913Z</time></trkpt><trkpt lat="43.09697" lon="10.8364433"><ele>255.0</ele><time>2026-05-03T08:16:16.913Z</time></trkpt><trkpt lat="43.0970467" lon="10.8363717"><ele>255.0</ele><time>2026-05-03T08:16:17.913Z</time></trkpt><trkpt lat="43.0971" lon="10.8362917"><ele>255.0</ele><time>2026-05-03T08:16:18.914Z</time></trkpt><trkpt lat="43.097145" lon="10.8362033"><ele>255.0</ele><time>2026-05-03T08:16:19.913Z</time></trkpt><trkpt lat="43.0971883" lon="10.8361067"><ele>255.0</ele><time>2026-05-03T08:16:20.915Z</time></trkpt><trkpt lat="43.0972367" lon="10.8360067"><ele>255.0</ele><time>2026-05-03T08:16:21.911Z</time></trkpt><trkpt lat="43.0972883" lon="10.8359117"><ele>255.83333333333334</ele><time>2026-05-03T08:16:22.917Z</time></trkpt><trkpt lat="43.09734" lon="10.8358267"><ele>256.6666666666667</ele><time>2026-05-03T08:16:23.915Z</time></trkpt><trkpt lat="43.0973867" lon="10.835765"><ele>257.5</ele><time>2026-05-03T08:16:24.913Z</time></trkpt><trkpt lat="43.097475" lon="10.8356967"><ele>258.33333333333337</ele><time>2026-05-03T08:16:26.913Z</time></trkpt><trkpt lat="43.0975633" lon="10.83572"><ele>259.1666666666667</ele><time>2026-05-03T08:16:28.913Z</time></trkpt><trkpt lat="43.09763" lon="10.8358033"><ele>260.0</ele><time>2026-05-03T08:16:30.914Z</time></trkpt><trkpt lat="43.097665" lon="10.8358767"><ele>260.6</ele><time>2026-05-03T08:16:31.914Z</time></trkpt><trkpt lat="43.0977017" lon="10.8359733"><ele>261.2</ele><time>2026-05-03T08:16:32.913Z</time></trkpt><trkpt lat="43.097735" lon="10.83609"><ele>261.8</ele><time>2026-05-03T08:16:33.91Z</time></trkpt><trkpt lat="43.0977733" lon="10.836215"><ele>262.4</ele><time>2026-05-03T08:16:34.916Z</time></trkpt><trkpt lat="43.09781" lon="10.8363417"><ele>263.0</ele><time>2026-05-03T08:16:35.914Z</time></trkpt><trkpt lat="43.097845" lon="10.8364683"><ele>263.0</ele><time>2026-05-03T08:16:36.915Z</time></trkpt><trkpt lat="43.09788" lon="10.8365883"><ele>263.0</ele><time>2026-05-03T08:16:37.913Z</time></trkpt><trkpt lat="43.097925" lon="10.8366933"><ele>263.0</ele><time>2026-05-03T08:16:38.915Z</time></trkpt><trkpt lat="43.0979833" lon="10.8367783"><ele>263.0</ele><time>2026-05-03T08:16:39.914Z</time></trkpt><trkpt lat="43.098045" lon="10.836855"><ele>263.0</ele><time>2026-05-03T08:16:40.914Z</time></trkpt><trkpt lat="43.098125" lon="10.8369433"><ele>261.75</ele><time>2026-05-03T08:16:41.914Z</time></trkpt><trkpt lat="43.09821" lon="10.8370283"><ele>260.5</ele><time>2026-05-03T08:16:42.911Z</time></trkpt><trkpt lat="43.0983067" lon="10.8371117"><ele>259.25</ele><time>2026-05-03T08:16:43.911Z</time></trkpt><trkpt lat="43.09841" lon="10.8371883"><ele>258.0</ele><time>2026-05-03T08:16:44.912Z</time></trkpt><trkpt lat="43.098515" lon="10.8372633"><ele>258.0</ele><time>2026-05-03T08:16:45.911Z</time></trkpt><trkpt lat="43.098625" lon="10.837335"><ele>258.0</ele><time>2026-05-03T08:16:46.911Z</time></trkpt><trkpt lat="43.0987417" lon="10.8373967"><ele>258.0</ele><time>2026-05-03T08:16:47.912Z</time></trkpt><trkpt lat="43.09886" lon="10.837455"><ele>258.0</ele><time>2026-05-03T08:16:48.914Z</time></trkpt><trkpt lat="43.0989733" lon="10.8375117"><ele>258.25</ele><time>2026-05-03T08:16:49.911Z</time></trkpt><trkpt lat="43.0990933" lon="10.8375717"><ele>258.5</ele><time>2026-05-03T08:16:50.913Z</time></trkpt><trkpt lat="43.0992083" lon="10.837635"><ele>258.75</ele><time>2026-05-03T08:16:51.914Z</time></trkpt><trkpt lat="43.09932" lon="10.8377"><ele>259.0</ele><time>2026-05-03T08:16:52.914Z</time></trkpt><trkpt lat="43.099425" lon="10.8377683"><ele>259.0</ele><time>2026-05-03T08:16:53.914Z</time></trkpt><trkpt lat="43.0995217" lon="10.8378433"><ele>259.0</ele><time>2026-05-03T08:16:54.914Z</time></trkpt><trkpt lat="43.099615" lon="10.8379233"><ele>259.0</ele><time>2026-05-03T08:16:55.914Z</time></trkpt><trkpt lat="43.0997083" lon="10.838005"><ele>259.0</ele><time>2026-05-03T08:16:56.914Z</time></trkpt><trkpt lat="43.0997967" lon="10.838085"><ele>259.0</ele><time>2026-05-03T08:16:57.913Z</time></trkpt><trkpt lat="43.099885" lon="10.8381633"><ele>259.4</ele><time>2026-05-03T08:16:58.914Z</time></trkpt><trkpt lat="43.0999767" lon="10.83825"><ele>259.79999999999995</ele><time>2026-05-03T08:16:59.914Z</time></trkpt><trkpt lat="43.100065" lon="10.8383383"><ele>260.20000000000005</ele><time>2026-05-03T08:17:00.914Z</time></trkpt><trkpt lat="43.1001467" lon="10.838425"><ele>260.6</ele><time>2026-05-03T08:17:01.913Z</time></trkpt><trkpt lat="43.1002267" lon="10.83851"><ele>261.0</ele><time>2026-05-03T08:17:02.914Z</time></trkpt><trkpt lat="43.1003083" lon="10.83859"><ele>261.0</ele><time>2026-05-03T08:17:03.914Z</time></trkpt><trkpt lat="43.1003933" lon="10.8386533"><ele>261.0</ele><time>2026-05-03T08:17:04.913Z</time></trkpt><trkpt lat="43.1004817" lon="10.8386983"><ele>261.0</ele><time>2026-05-03T08:17:05.914Z</time></trkpt><trkpt lat="43.100575" lon="10.83873"><ele>261.0</ele><time>2026-05-03T08:17:06.915Z</time></trkpt><trkpt lat="43.10067" lon="10.83876"><ele>261.0</ele><time>2026-05-03T08:17:07.914Z</time></trkpt><trkpt lat="43.1007617" lon="10.8387883"><ele>263.40000000000003</ele><time>2026-05-03T08:17:08.914Z</time></trkpt><trkpt lat="43.1008417" lon="10.8388367"><ele>265.8</ele><time>2026-05-03T08:17:09.914Z</time></trkpt><trkpt lat="43.1009183" lon="10.83891"><ele>268.20000000000005</ele><time>2026-05-03T08:17:10.915Z</time></trkpt><trkpt lat="43.100995" lon="10.8390017"><ele>270.6</ele><time>2026-05-03T08:17:11.914Z</time></trkpt><trkpt lat="43.10107" lon="10.8391067"><ele>273.0</ele><time>2026-05-03T08:17:12.914Z</time></trkpt><trkpt lat="43.1011533" lon="10.8392183"><ele>270.25</ele><time>2026-05-03T08:17:13.915Z</time></trkpt><trkpt lat="43.10124" lon="10.8393317"><ele>267.5</ele><time>2026-05-03T08:17:14.914Z</time></trkpt><trkpt lat="43.10133" lon="10.8394483"><ele>264.75</ele><time>2026-05-03T08:17:15.914Z</time></trkpt><trkpt lat="43.1014233" lon="10.8395667"><ele>262.0</ele><time>2026-05-03T08:17:16.919Z</time></trkpt><trkpt lat="43.10151" lon="10.8396967"><ele>262.75</ele><time>2026-05-03T08:17:17.914Z</time></trkpt><trkpt lat="43.101595" lon="10.8398233"><ele>263.5</ele><time>2026-05-03T08:17:18.915Z</time></trkpt><trkpt lat="43.1016867" lon="10.839945"><ele>264.25</ele><time>2026-05-03T08:17:19.913Z</time></trkpt><trkpt lat="43.1017833" lon="10.84006"><ele>265.0</ele><time>2026-05-03T08:17:20.914Z</time></trkpt><trkpt lat="43.101885" lon="10.84017"><ele>263.6</ele><time>2026-05-03T08:17:21.914Z</time></trkpt><trkpt lat="43.1019783" lon="10.8402767"><ele>262.2</ele><time>2026-05-03T08:17:22.914Z</time></trkpt><trkpt lat="43.102055" lon="10.8403833"><ele>260.8</ele><time>2026-05-03T08:17:23.914Z</time></trkpt><trkpt lat="43.1021233" lon="10.8404933"><ele>259.4</ele><time>2026-05-03T08:17:24.913Z</time></trkpt><trkpt lat="43.1021917" lon="10.8405933"><ele>258.0</ele><time>2026-05-03T08:17:25.914Z</time></trkpt><trkpt lat="43.102265" lon="10.840685"><ele>258.0</ele><time>2026-05-03T08:17:26.914Z</time></trkpt><trkpt lat="43.1023417" lon="10.8407617"><ele>258.0</ele><time>2026-05-03T08:17:27.914Z</time></trkpt><trkpt lat="43.102435" lon="10.84082"><ele>258.0</ele><time>2026-05-03T08:17:28.914Z</time></trkpt><trkpt lat="43.1025333" lon="10.8408617"><ele>258.0</ele><time>2026-05-03T08:17:29.915Z</time></trkpt><trkpt lat="43.1026467" lon="10.840885"><ele>258.0</ele><time>2026-05-03T08:17:30.914Z</time></trkpt><trkpt lat="43.102765" lon="10.8408967"><ele>258.0</ele><time>2026-05-03T08:17:31.914Z</time></trkpt><trkpt lat="43.102885" lon="10.840905"><ele>258.0</ele><time>2026-05-03T08:17:32.914Z</time></trkpt><trkpt lat="43.1029967" lon="10.840925"><ele>258.0</ele><time>2026-05-03T08:17:33.913Z</time></trkpt><trkpt lat="43.1030983" lon="10.8409717"><ele>258.0</ele><time>2026-05-03T08:17:34.914Z</time></trkpt><trkpt lat="43.1032" lon="10.8410367"><ele>259.75</ele><time>2026-05-03T08:17:35.912Z</time></trkpt><trkpt lat="43.1032933" lon="10.8411167"><ele>261.5</ele><time>2026-05-03T08:17:36.912Z</time></trkpt><trkpt lat="43.103385" lon="10.8412083"><ele>263.25</ele><time>2026-05-03T08:17:37.912Z</time></trkpt><trkpt lat="43.1034783" lon="10.841305"><ele>265.0</ele><time>2026-05-03T08:17:38.911Z</time></trkpt><trkpt lat="43.1035733" lon="10.8414067"><ele>265.0</ele><time>2026-05-03T08:17:39.911Z</time></trkpt><trkpt lat="43.10367" lon="10.8415167"><ele>265.0</ele><time>2026-05-03T08:17:40.912Z</time></trkpt><trkpt lat="43.1037583" lon="10.8416233"><ele>265.0</ele><time>2026-05-03T08:17:41.912Z</time></trkpt><trkpt lat="43.10385" lon="10.8417267"><ele>265.0</ele><time>2026-05-03T08:17:42.911Z</time></trkpt><trkpt lat="43.103955" lon="10.84181"><ele>266.0</ele><time>2026-05-03T08:17:43.912Z</time></trkpt><trkpt lat="43.104065" lon="10.841875"><ele>267.0</ele><time>2026-05-03T08:17:44.911Z</time></trkpt><trkpt lat="43.10417" lon="10.8419317"><ele>268.0</ele><time>2026-05-03T08:17:45.912Z</time></trkpt><trkpt lat="43.1042633" lon="10.8419983"><ele>269.0</ele><time>2026-05-03T08:17:46.912Z</time></trkpt><trkpt lat="43.1043567" lon="10.842055"><ele>270.0</ele><time>2026-05-03T08:17:47.912Z</time></trkpt><trkpt lat="43.104455" lon="10.8421117"><ele>270.0</ele><time>2026-05-03T08:17:48.911Z</time></trkpt><trkpt lat="43.1045517" lon="10.842165"><ele>270.0</ele><time>2026-05-03T08:17:49.912Z</time></trkpt><trkpt lat="43.1046467" lon="10.8422167"><ele>270.0</ele><time>2026-05-03T08:17:50.912Z</time></trkpt><trkpt lat="43.104735" lon="10.8422717"><ele>270.0</ele><time>2026-05-03T08:17:51.911Z</time></trkpt><trkpt lat="43.104805" lon="10.8423383"><ele>270.0</ele><time>2026-05-03T08:17:52.914Z</time></trkpt><trkpt lat="43.1048617" lon="10.84241"><ele>270.0</ele><time>2026-05-03T08:17:53.911Z</time></trkpt><trkpt lat="43.1049083" lon="10.8425033"><ele>270.0</ele><time>2026-05-03T08:17:54.914Z</time></trkpt><trkpt lat="43.1049567" lon="10.842615"><ele>270.0</ele><time>2026-05-03T08:17:55.915Z</time></trkpt><trkpt lat="43.1050133" lon="10.8427417"><ele>270.0</ele><time>2026-05-03T08:17:56.915Z</time></trkpt><trkpt lat="43.105075" lon="10.8428683"><ele>270.0</ele><time>2026-05-03T08:17:57.914Z</time></trkpt><trkpt lat="43.1051517" lon="10.84298"><ele>272.0</ele><time>2026-05-03T08:17:58.914Z</time></trkpt><trkpt lat="43.1052317" lon="10.8430817"><ele>274.0</ele><time>2026-05-03T08:17:59.914Z</time></trkpt><trkpt lat="43.1053033" lon="10.84318"><ele>276.0</ele><time>2026-05-03T08:18:00.915Z</time></trkpt><trkpt lat="43.1053733" lon="10.8432717"><ele>278.0</ele><time>2026-05-03T08:18:01.914Z</time></trkpt><trkpt lat="43.105455" lon="10.8433533"><ele>280.0</ele><time>2026-05-03T08:18:02.914Z</time></trkpt><trkpt lat="43.1055517" lon="10.84342"><ele>280.0</ele><time>2026-05-03T08:18:03.914Z</time></trkpt><trkpt lat="43.1056533" lon="10.8434783"><ele>280.0</ele><time>2026-05-03T08:18:04.915Z</time></trkpt><trkpt lat="43.1057533" lon="10.8435383"><ele>280.0</ele><time>2026-05-03T08:18:05.914Z</time></trkpt><trkpt lat="43.1058483" lon="10.8436083"><ele>280.0</ele><time>2026-05-03T08:18:06.915Z</time></trkpt><trkpt lat="43.1059417" lon="10.8436933"><ele>280.0</ele><time>2026-05-03T08:18:07.914Z</time></trkpt><trkpt lat="43.106025" lon="10.8437833"><ele>280.0</ele><time>2026-05-03T08:18:08.915Z</time></trkpt><trkpt lat="43.10609" lon="10.8438617"><ele>280.0</ele><time>2026-05-03T08:18:09.914Z</time></trkpt><trkpt lat="43.10615" lon="10.8439267"><ele>280.0</ele><time>2026-05-03T08:18:10.914Z</time></trkpt><trkpt lat="43.1062033" lon="10.8439767"><ele>280.0</ele><time>2026-05-03T08:18:11.916Z</time></trkpt><trkpt lat="43.1062567" lon="10.844025"><ele>280.0</ele><time>2026-05-03T08:18:12.912Z</time></trkpt><trkpt lat="43.1063117" lon="10.84407"><ele>280.0</ele><time>2026-05-03T08:18:13.914Z</time></trkpt><trkpt lat="43.106425" lon="10.8441683"><ele>280.0</ele><time>2026-05-03T08:18:15.914Z</time></trkpt><trkpt lat="43.1064883" lon="10.8442233"><ele>280.0</ele><time>2026-05-03T08:18:16.915Z</time></trkpt><trkpt lat="43.106555" lon="10.8442817"><ele>280.0</ele><time>2026-05-03T08:18:17.915Z</time></trkpt><trkpt lat="43.1066267" lon="10.8443433"><ele>280.0</ele><time>2026-05-03T08:18:18.911Z</time></trkpt><trkpt lat="43.106705" lon="10.8444"><ele>280.0</ele><time>2026-05-03T08:18:19.912Z</time></trkpt><trkpt lat="43.1067833" lon="10.844465"><ele>280.0</ele><time>2026-05-03T08:18:20.911Z</time></trkpt><trkpt lat="43.1068683" lon="10.8445317"><ele>283.4</ele><time>2026-05-03T08:18:21.912Z</time></trkpt><trkpt lat="43.106955" lon="10.8445983"><ele>286.8</ele><time>2026-05-03T08:18:22.911Z</time></trkpt><trkpt lat="43.1070483" lon="10.8446483"><ele>290.2</ele><time>2026-05-03T08:18:23.912Z</time></trkpt><trkpt lat="43.1071467" lon="10.8446833"><ele>293.6</ele><time>2026-05-03T08:18:24.911Z</time></trkpt><trkpt lat="43.1072433" lon="10.8447117"><ele>297.0</ele><time>2026-05-03T08:18:25.913Z</time></trkpt><trkpt lat="43.1073433" lon="10.8447567"><ele>296.8</ele><time>2026-05-03T08:18:26.912Z</time></trkpt><trkpt lat="43.107425" lon="10.8447917"><ele>296.6</ele><time>2026-05-03T08:18:27.913Z</time></trkpt><trkpt lat="43.10749" lon="10.8448317"><ele>296.40000000000003</ele><time>2026-05-03T08:18:28.914Z</time></trkpt><trkpt lat="43.1075683" lon="10.844905"><ele>296.2</ele><time>2026-05-03T08:18:30.914Z</time></trkpt><trkpt lat="43.10759" lon="10.84507"><ele>296.0</ele><time>2026-05-03T08:19:48.91Z</time></trkpt><trkpt lat="43.10759" lon="10.845175"><ele>296.0</ele><time>2026-05-03T08:19:50.914Z</time></trkpt><trkpt lat="43.1075983" lon="10.845335"><ele>296.0</ele><time>2026-05-03T08:19:52.911Z</time></trkpt><trkpt lat="43.107615" lon="10.8455133"><ele>296.0</ele><time>2026-05-03T08:19:54.911Z</time></trkpt><trkpt lat="43.1076333" lon="10.8456183"><ele>296.0</ele><time>2026-05-03T08:19:55.911Z</time></trkpt><trkpt lat="43.10766" lon="10.8457233"><ele>296.0</ele><time>2026-05-03T08:19:56.912Z</time></trkpt><trkpt lat="43.1076983" lon="10.845825"><ele>296.0</ele><time>2026-05-03T08:19:57.911Z</time></trkpt><trkpt lat="43.1077367" lon="10.8459117"><ele>296.0</ele><time>2026-05-03T08:19:58.913Z</time></trkpt><trkpt lat="43.10777" lon="10.845985"><ele>296.0</ele><time>2026-05-03T08:19:59.912Z</time></trkpt><trkpt lat="43.1078217" lon="10.8461117"><ele>296.0</ele><time>2026-05-03T08:20:01.911Z</time></trkpt><trkpt lat="43.1078783" lon="10.8462617"><ele>296.0</ele><time>2026-05-03T08:20:03.913Z</time></trkpt><trkpt lat="43.1079083" lon="10.8464283"><ele>296.5</ele><time>2026-05-03T08:20:05.914Z</time></trkpt><trkpt lat="43.1079033" lon="10.8465267"><ele>297.0</ele><time>2026-05-03T08:20:06.91Z</time></trkpt><trkpt lat="43.1078783" lon="10.8466217"><ele>297.5</ele><time>2026-05-03T08:20:07.914Z</time></trkpt><trkpt lat="43.1078383" lon="10.8467117"><ele>298.0</ele><time>2026-05-03T08:20:08.911Z</time></trkpt><trkpt lat="43.1077967" lon="10.8467983"><ele>298.5</ele><time>2026-05-03T08:20:09.914Z</time></trkpt><trkpt lat="43.10776" lon="10.8469567"><ele>299.0</ele><time>2026-05-03T08:20:11.912Z</time></trkpt><trkpt lat="43.10779" lon="10.84712"><ele>300.33333333333337</ele><time>2026-05-03T08:20:13.913Z</time></trkpt><trkpt lat="43.1078367" lon="10.8471933"><ele>301.6666666666667</ele><time>2026-05-03T08:20:14.911Z</time></trkpt><trkpt lat="43.1078983" lon="10.8472617"><ele>303.0</ele><time>2026-05-03T08:20:15.915Z</time></trkpt><trkpt lat="43.10797" lon="10.84732"><ele>304.3333333333333</ele><time>2026-05-03T08:20:16.914Z</time></trkpt><trkpt lat="43.10804" lon="10.8473833"><ele>305.66666666666663</ele><time>2026-05-03T08:20:17.915Z</time></trkpt><trkpt lat="43.1081133" lon="10.84746"><ele>307.0</ele><time>2026-05-03T08:20:18.914Z</time></trkpt><trkpt lat="43.1081833" lon="10.8475517"><ele>310.75</ele><time>2026-05-03T08:20:19.915Z</time></trkpt><trkpt lat="43.1082617" lon="10.8476483"><ele>314.5</ele><time>2026-05-03T08:20:20.914Z</time></trkpt><trkpt lat="43.1083417" lon="10.8477633"><ele>318.25</ele><time>2026-05-03T08:20:21.916Z</time></trkpt><trkpt lat="43.1084167" lon="10.8478917"><ele>322.0</ele><time>2026-05-03T08:20:22.914Z</time></trkpt><trkpt lat="43.1084867" lon="10.848025"><ele>322.0</ele><time>2026-05-03T08:20:23.914Z</time></trkpt><trkpt lat="43.1085583" lon="10.8481633"><ele>322.0</ele><time>2026-05-03T08:20:24.91Z</time></trkpt><trkpt lat="43.1086283" lon="10.8482983"><ele>322.0</ele><time>2026-05-03T08:20:25.911Z</time></trkpt><trkpt lat="43.1086917" lon="10.84843"><ele>322.0</ele><time>2026-05-03T08:20:26.914Z</time></trkpt><trkpt lat="43.1087517" lon="10.848555"><ele>322.8</ele><time>2026-05-03T08:20:27.914Z</time></trkpt><trkpt lat="43.1088017" lon="10.8486917"><ele>323.6</ele><time>2026-05-03T08:20:28.915Z</time></trkpt><trkpt lat="43.1088383" lon="10.8488267"><ele>324.40000000000003</ele><time>2026-05-03T08:20:29.915Z</time></trkpt><trkpt lat="43.1088617" lon="10.848965"><ele>325.20000000000005</ele><time>2026-05-03T08:20:30.911Z</time></trkpt><trkpt lat="43.1088733" lon="10.8491017"><ele>326.0</ele><time>2026-05-03T08:20:31.912Z</time></trkpt><trkpt lat="43.108875" lon="10.849235"><ele>323.8</ele><time>2026-05-03T08:20:32.911Z</time></trkpt><trkpt lat="43.108875" lon="10.84936"><ele>321.6</ele><time>2026-05-03T08:20:33.914Z</time></trkpt><trkpt lat="43.1088917" lon="10.84948"><ele>319.4</ele><time>2026-05-03T08:20:34.914Z</time></trkpt><trkpt lat="43.10893" lon="10.8495917"><ele>317.2</ele><time>2026-05-03T08:20:35.915Z</time></trkpt><trkpt lat="43.10899" lon="10.8496967"><ele>315.0</ele><time>2026-05-03T08:20:36.915Z</time></trkpt><trkpt lat="43.1090617" lon="10.8498017"><ele>315.6</ele><time>2026-05-03T08:20:37.914Z</time></trkpt><trkpt lat="43.1091433" lon="10.8499067"><ele>316.2</ele><time>2026-05-03T08:20:38.913Z</time></trkpt><trkpt lat="43.1092217" lon="10.85001"><ele>316.8</ele><time>2026-05-03T08:20:39.914Z</time></trkpt><trkpt lat="43.1092983" lon="10.85012"><ele>317.4</ele><time>2026-05-03T08:20:40.914Z</time></trkpt><trkpt lat="43.1093633" lon="10.8502417"><ele>318.0</ele><time>2026-05-03T08:20:41.915Z</time></trkpt><trkpt lat="43.1094183" lon="10.8503633"><ele>318.4</ele><time>2026-05-03T08:20:42.914Z</time></trkpt><trkpt lat="43.1094583" lon="10.8504933"><ele>318.8</ele><time>2026-05-03T08:20:43.915Z</time></trkpt><trkpt lat="43.10949" lon="10.8506267"><ele>319.2</ele><time>2026-05-03T08:20:44.914Z</time></trkpt><trkpt lat="43.1095167" lon="10.8507633"><ele>319.6</ele><time>2026-05-03T08:20:45.912Z</time></trkpt><trkpt lat="43.109535" lon="10.8508983"><ele>320.0</ele><time>2026-05-03T08:20:46.913Z</time></trkpt><trkpt lat="43.1095517" lon="10.851025"><ele>320.0</ele><time>2026-05-03T08:20:47.912Z</time></trkpt><trkpt lat="43.1095733" lon="10.8511433"><ele>320.0</ele><time>2026-05-03T08:20:48.915Z</time></trkpt><trkpt lat="43.1096017" lon="10.8512583"><ele>320.0</ele><time>2026-05-03T08:20:49.911Z</time></trkpt><trkpt lat="43.1096333" lon="10.851375"><ele>320.0</ele><time>2026-05-03T08:20:50.914Z</time></trkpt><trkpt lat="43.1096717" lon="10.8514783"><ele>320.0</ele><time>2026-05-03T08:20:51.915Z</time></trkpt><trkpt lat="43.1097167" lon="10.8515633"><ele>320.0</ele><time>2026-05-03T08:20:52.914Z</time></trkpt><trkpt lat="43.10978" lon="10.8516333"><ele>320.0</ele><time>2026-05-03T08:20:53.916Z</time></trkpt><trkpt lat="43.10985" lon="10.851685"><ele>320.0</ele><time>2026-05-03T08:20:54.914Z</time></trkpt><trkpt lat="43.1099217" lon="10.85172"><ele>320.0</ele><time>2026-05-03T08:20:55.914Z</time></trkpt><trkpt lat="43.109995" lon="10.8517467"><ele>320.0</ele><time>2026-05-03T08:20:56.914Z</time></trkpt><trkpt lat="43.1100683" lon="10.85178"><ele>320.0</ele><time>2026-05-03T08:20:57.914Z</time></trkpt><trkpt lat="43.1101483" lon="10.8518217"><ele>320.0</ele><time>2026-05-03T08:20:58.911Z</time></trkpt><trkpt lat="43.1102283" lon="10.8518783"><ele>324.6</ele><time>2026-05-03T08:20:59.915Z</time></trkpt><trkpt lat="43.1103083" lon="10.8519467"><ele>329.2</ele><time>2026-05-03T08:21:00.91Z</time></trkpt><trkpt lat="43.1103883" lon="10.852025"><ele>333.79999999999995</ele><time>2026-05-03T08:21:01.911Z</time></trkpt><trkpt lat="43.11047" lon="10.852105"><ele>338.4</ele><time>2026-05-03T08:21:02.91Z</time></trkpt><trkpt lat="43.1105567" lon="10.852175"><ele>343.0</ele><time>2026-05-03T08:21:03.912Z</time></trkpt><trkpt lat="43.1106483" lon="10.8522317"><ele>343.0</ele><time>2026-05-03T08:21:04.914Z</time></trkpt><trkpt lat="43.1107333" lon="10.8522817"><ele>343.0</ele><time>2026-05-03T08:21:05.915Z</time></trkpt><trkpt lat="43.110805" lon="10.85233"><ele>343.0</ele><time>2026-05-03T08:21:06.915Z</time></trkpt><trkpt lat="43.1108533" lon="10.8523883"><ele>343.0</ele><time>2026-05-03T08:21:07.914Z</time></trkpt><trkpt lat="43.1108817" lon="10.8525367"><ele>343.0</ele><time>2026-05-03T08:21:09.913Z</time></trkpt><trkpt lat="43.1108783" lon="10.852635"><ele>343.0</ele><time>2026-05-03T08:21:10.913Z</time></trkpt><trkpt lat="43.1108767" lon="10.8527483"><ele>343.66666666666663</ele><time>2026-05-03T08:21:11.915Z</time></trkpt><trkpt lat="43.1108817" lon="10.852865"><ele>344.3333333333333</ele><time>2026-05-03T08:21:12.914Z</time></trkpt><trkpt lat="43.1108883" lon="10.8529833"><ele>345.0</ele><time>2026-05-03T08:21:13.914Z</time></trkpt><trkpt lat="43.1108917" lon="10.8531017"><ele>345.6666666666667</ele><time>2026-05-03T08:21:14.915Z</time></trkpt><trkpt lat="43.1108783" lon="10.853215"><ele>346.33333333333337</ele><time>2026-05-03T08:21:15.91Z</time></trkpt><trkpt lat="43.1108533" lon="10.85333"><ele>347.0</ele><time>2026-05-03T08:21:16.914Z</time></trkpt><trkpt lat="43.1108133" lon="10.8534483"><ele>348.0</ele><time>2026-05-03T08:21:17.915Z</time></trkpt><trkpt lat="43.1107667" lon="10.8535617"><ele>349.0</ele><time>2026-05-03T08:21:18.916Z</time></trkpt><trkpt lat="43.110715" lon="10.8536717"><ele>350.0</ele><time>2026-05-03T08:21:19.914Z</time></trkpt><trkpt lat="43.1106667" lon="10.853765"><ele>351.0</ele><time>2026-05-03T08:21:20.914Z</time></trkpt><trkpt lat="43.110625" lon="10.8538383"><ele>352.0</ele><time>2026-05-03T08:21:21.914Z</time></trkpt><trkpt lat="43.1105467" lon="10.8539617"><ele>353.16666666666663</ele><time>2026-05-03T08:21:23.915Z</time></trkpt><trkpt lat="43.1104583" lon="10.8540933"><ele>354.3333333333333</ele><time>2026-05-03T08:21:25.915Z</time></trkpt><trkpt lat="43.1104067" lon="10.8541617"><ele>355.5</ele><time>2026-05-03T08:21:26.913Z</time></trkpt><trkpt lat="43.1103533" lon="10.854235"><ele>356.6666666666667</ele><time>2026-05-03T08:21:27.915Z</time></trkpt><trkpt lat="43.1102933" lon="10.8543017"><ele>357.83333333333337</ele><time>2026-05-03T08:21:28.915Z</time></trkpt><trkpt lat="43.1102367" lon="10.8543717"><ele>359.0</ele><time>2026-05-03T08:21:29.912Z</time></trkpt><trkpt lat="43.1101617" lon="10.854505"><ele>359.5</ele><time>2026-05-03T08:21:31.915Z</time></trkpt><trkpt lat="43.1101233" lon="10.8546183"><ele>360.0</ele><time>2026-05-03T08:21:33.915Z</time></trkpt><trkpt lat="43.1101083" lon="10.8547083"><ele>360.5</ele><time>2026-05-03T08:21:35.914Z</time></trkpt><trkpt lat="43.1101067" lon="10.8547983"><ele>361.0</ele><time>2026-05-03T08:21:38.914Z</time></trkpt><trkpt lat="43.110125" lon="10.854935"><ele>361.5</ele><time>2026-05-03T08:21:41.915Z</time></trkpt><trkpt lat="43.1101683" lon="10.8550467"><ele>362.0</ele><time>2026-05-03T08:21:43.914Z</time></trkpt><trkpt lat="43.1102383" lon="10.8551583"><ele>361.0</ele><time>2026-05-03T08:21:45.914Z</time></trkpt><trkpt lat="43.1102767" lon="10.8552283"><ele>360.0</ele><time>2026-05-03T08:21:46.914Z</time></trkpt><trkpt lat="43.1103083" lon="10.8553067"><ele>359.0</ele><time>2026-05-03T08:21:47.914Z</time></trkpt><trkpt lat="43.1103283" lon="10.8553933"><ele>358.0</ele><time>2026-05-03T08:21:48.914Z</time></trkpt><trkpt lat="43.1103383" lon="10.855495"><ele>357.0</ele><time>2026-05-03T08:21:49.914Z</time></trkpt><trkpt lat="43.110345" lon="10.8556067"><ele>356.0</ele><time>2026-05-03T08:21:50.914Z</time></trkpt><trkpt lat="43.1103533" lon="10.85572"><ele>355.0</ele><time>2026-05-03T08:21:51.914Z</time></trkpt><trkpt lat="43.11037" lon="10.8558283"><ele>355.0</ele><time>2026-05-03T08:21:52.914Z</time></trkpt><trkpt lat="43.11039" lon="10.85594"><ele>355.0</ele><time>2026-05-03T08:21:53.915Z</time></trkpt><trkpt lat="43.1104117" lon="10.8560567"><ele>355.0</ele><time>2026-05-03T08:21:54.91Z</time></trkpt><trkpt lat="43.110435" lon="10.8561833"><ele>355.0</ele><time>2026-05-03T08:21:55.914Z</time></trkpt><trkpt lat="43.1104583" lon="10.8563217"><ele>355.0</ele><time>2026-05-03T08:21:56.915Z</time></trkpt><trkpt lat="43.1104867" lon="10.8564683"><ele>353.25</ele><time>2026-05-03T08:21:57.914Z</time></trkpt><trkpt lat="43.11052" lon="10.8566167"><ele>351.5</ele><time>2026-05-03T08:21:58.914Z</time></trkpt><trkpt lat="43.1105583" lon="10.8567617"><ele>349.75</ele><time>2026-05-03T08:21:59.914Z</time></trkpt><trkpt lat="43.11061" lon="10.856905"><ele>348.0</ele><time>2026-05-03T08:22:00.915Z</time></trkpt><trkpt lat="43.1106683" lon="10.8570517"><ele>348.59999999999997</ele><time>2026-05-03T08:22:01.914Z</time></trkpt><trkpt lat="43.1107283" lon="10.8571917"><ele>349.2</ele><time>2026-05-03T08:22:02.914Z</time></trkpt><trkpt lat="43.11078" lon="10.8573217"><ele>349.8</ele><time>2026-05-03T08:22:03.914Z</time></trkpt><trkpt lat="43.1108267" lon="10.8574433"><ele>350.4</ele><time>2026-05-03T08:22:04.914Z</time></trkpt><trkpt lat="43.110865" lon="10.8575533"><ele>351.0</ele><time>2026-05-03T08:22:05.914Z</time></trkpt><trkpt lat="43.1108917" lon="10.8576717"><ele>351.4</ele><time>2026-05-03T08:22:06.914Z</time></trkpt><trkpt lat="43.1109133" lon="10.8577917"><ele>351.8</ele><time>2026-05-03T08:22:07.911Z</time></trkpt><trkpt lat="43.1109267" lon="10.8579233"><ele>352.2</ele><time>2026-05-03T08:22:08.911Z</time></trkpt><trkpt lat="43.110935" lon="10.858055"><ele>352.59999999999997</ele><time>2026-05-03T08:22:09.912Z</time></trkpt><trkpt lat="43.11095" lon="10.858195"><ele>353.0</ele><time>2026-05-03T08:22:10.914Z</time></trkpt><trkpt lat="43.1109533" lon="10.8583467"><ele>353.5</ele><time>2026-05-03T08:22:11.914Z</time></trkpt><trkpt lat="43.1109583" lon="10.8585067"><ele>354.0</ele><time>2026-05-03T08:22:12.913Z</time></trkpt><trkpt lat="43.110965" lon="10.858675"><ele>354.5</ele><time>2026-05-03T08:22:13.914Z</time></trkpt><trkpt lat="43.1109683" lon="10.8588467"><ele>355.0</ele><time>2026-05-03T08:22:14.913Z</time></trkpt><trkpt lat="43.1109733" lon="10.85902"><ele>355.0</ele><time>2026-05-03T08:22:15.914Z</time></trkpt><trkpt lat="43.1109717" lon="10.8591917"><ele>355.0</ele><time>2026-05-03T08:22:16.912Z</time></trkpt><trkpt lat="43.1109733" lon="10.8593683"><ele>355.0</ele><time>2026-05-03T08:22:17.913Z</time></trkpt><trkpt lat="43.110975" lon="10.8595417"><ele>355.0</ele><time>2026-05-03T08:22:18.915Z</time></trkpt><trkpt lat="43.1109783" lon="10.85972"><ele>356.25</ele><time>2026-05-03T08:22:19.914Z</time></trkpt><trkpt lat="43.1109867" lon="10.859895"><ele>357.5</ele><time>2026-05-03T08:22:20.912Z</time></trkpt><trkpt lat="43.11099" lon="10.8600667"><ele>358.75</ele><time>2026-05-03T08:22:21.912Z</time></trkpt><trkpt lat="43.11099" lon="10.860235"><ele>360.0</ele><time>2026-05-03T08:22:22.914Z</time></trkpt><trkpt lat="43.1109833" lon="10.8603983"><ele>361.75</ele><time>2026-05-03T08:22:23.914Z</time></trkpt><trkpt lat="43.1109883" lon="10.8605533"><ele>363.5</ele><time>2026-05-03T08:22:24.914Z</time></trkpt><trkpt lat="43.1109917" lon="10.8607133"><ele>365.25</ele><time>2026-05-03T08:22:25.914Z</time></trkpt><trkpt lat="43.1109917" lon="10.86087"><ele>367.0</ele><time>2026-05-03T08:22:26.912Z</time></trkpt><trkpt lat="43.110995" lon="10.861025"><ele>368.5</ele><time>2026-05-03T08:22:27.914Z</time></trkpt><trkpt lat="43.1109983" lon="10.861185"><ele>370.0</ele><time>2026-05-03T08:22:28.912Z</time></trkpt><trkpt lat="43.1110017" lon="10.8613467"><ele>371.5</ele><time>2026-05-03T08:22:29.911Z</time></trkpt><trkpt lat="43.1109983" lon="10.8614967"><ele>373.0</ele><time>2026-05-03T08:22:30.914Z</time></trkpt><trkpt lat="43.1109967" lon="10.8616433"><ele>373.79999999999995</ele><time>2026-05-03T08:22:31.911Z</time></trkpt><trkpt lat="43.1109967" lon="10.861785"><ele>374.6</ele><time>2026-05-03T08:22:32.911Z</time></trkpt><trkpt lat="43.1109967" lon="10.8619083"><ele>375.4</ele><time>2026-05-03T08:22:33.911Z</time></trkpt><trkpt lat="43.1109983" lon="10.862035"><ele>376.20000000000005</ele><time>2026-05-03T08:22:34.911Z</time></trkpt><trkpt lat="43.111" lon="10.86216"><ele>377.0</ele><time>2026-05-03T08:22:35.912Z</time></trkpt><trkpt lat="43.111" lon="10.8622833"><ele>377.0</ele><time>2026-05-03T08:22:36.911Z</time></trkpt><trkpt lat="43.111005" lon="10.862405"><ele>377.0</ele><time>2026-05-03T08:22:37.911Z</time></trkpt><trkpt lat="43.1110117" lon="10.86252"><ele>377.0</ele><time>2026-05-03T08:22:38.913Z</time></trkpt><trkpt lat="43.1110183" lon="10.8626333"><ele>377.0</ele><time>2026-05-03T08:22:39.911Z</time></trkpt><trkpt lat="43.111025" lon="10.862755"><ele>377.0</ele><time>2026-05-03T08:22:40.912Z</time></trkpt><trkpt lat="43.1110267" lon="10.8628783"><ele>377.0</ele><time>2026-05-03T08:22:41.911Z</time></trkpt><trkpt lat="43.1110283" lon="10.86301"><ele>378.20000000000005</ele><time>2026-05-03T08:22:42.911Z</time></trkpt><trkpt lat="43.11103" lon="10.86314"><ele>379.4</ele><time>2026-05-03T08:22:43.911Z</time></trkpt><trkpt lat="43.1110383" lon="10.86327"><ele>380.6</ele><time>2026-05-03T08:22:44.912Z</time></trkpt><trkpt lat="43.111045" lon="10.8634083"><ele>381.79999999999995</ele><time>2026-05-03T08:22:45.91Z</time></trkpt><trkpt lat="43.1110533" lon="10.86355"><ele>383.0</ele><time>2026-05-03T08:22:46.913Z</time></trkpt><trkpt lat="43.1110633" lon="10.8636967"><ele>384.5</ele><time>2026-05-03T08:22:47.913Z</time></trkpt><trkpt lat="43.1110683" lon="10.86385"><ele>386.0</ele><time>2026-05-03T08:22:48.91Z</time></trkpt><trkpt lat="43.1110733" lon="10.8640083"><ele>387.5</ele><time>2026-05-03T08:22:49.91Z</time></trkpt><trkpt lat="43.1110833" lon="10.8641733"><ele>389.0</ele><time>2026-05-03T08:22:50.913Z</time></trkpt><trkpt lat="43.1110917" lon="10.8643467"><ele>389.5</ele><time>2026-05-03T08:22:51.91Z</time></trkpt><trkpt lat="43.111095" lon="10.8645233"><ele>390.0</ele><time>2026-05-03T08:22:52.91Z</time></trkpt><trkpt lat="43.1111033" lon="10.8646917"><ele>390.5</ele><time>2026-05-03T08:22:53.914Z</time></trkpt><trkpt lat="43.1111033" lon="10.864845"><ele>391.0</ele><time>2026-05-03T08:22:54.913Z</time></trkpt><trkpt lat="43.1111067" lon="10.8649767"><ele>391.0</ele><time>2026-05-03T08:22:55.911Z</time></trkpt><trkpt lat="43.1111133" lon="10.865105"><ele>391.0</ele><time>2026-05-03T08:22:56.91Z</time></trkpt><trkpt lat="43.1111283" lon="10.8652383"><ele>391.0</ele><time>2026-05-03T08:22:57.913Z</time></trkpt><trkpt lat="43.1111667" lon="10.86537"><ele>391.0</ele><time>2026-05-03T08:22:58.913Z</time></trkpt><trkpt lat="43.1112167" lon="10.8655017"><ele>391.0</ele><time>2026-05-03T08:22:59.913Z</time></trkpt><trkpt lat="43.1112783" lon="10.8656317"><ele>390.75</ele><time>2026-05-03T08:23:00.913Z</time></trkpt><trkpt lat="43.1113367" lon="10.8657717"><ele>390.5</ele><time>2026-05-03T08:23:01.915Z</time></trkpt><trkpt lat="43.1114" lon="10.8659183"><ele>390.25</ele><time>2026-05-03T08:23:02.913Z</time></trkpt><trkpt lat="43.1114633" lon="10.86607"><ele>390.0</ele><time>2026-05-03T08:23:03.913Z</time></trkpt><trkpt lat="43.1115333" lon="10.8662233"><ele>393.0</ele><time>2026-05-03T08:23:04.913Z</time></trkpt><trkpt lat="43.111605" lon="10.8663817"><ele>396.0</ele><time>2026-05-03T08:23:05.913Z</time></trkpt><trkpt lat="43.1116783" lon="10.8665417"><ele>399.0</ele><time>2026-05-03T08:23:06.911Z</time></trkpt><trkpt lat="43.1117567" lon="10.8667017"><ele>402.0</ele><time>2026-05-03T08:23:07.917Z</time></trkpt><trkpt lat="43.1118367" lon="10.8668633"><ele>402.0</ele><time>2026-05-03T08:23:08.913Z</time></trkpt><trkpt lat="43.11192" lon="10.8670267"><ele>402.0</ele><time>2026-05-03T08:23:09.914Z</time></trkpt><trkpt lat="43.1119967" lon="10.8671867"><ele>402.0</ele><time>2026-05-03T08:23:10.913Z</time></trkpt><trkpt lat="43.1120717" lon="10.8673433"><ele>402.0</ele><time>2026-05-03T08:23:11.912Z</time></trkpt><trkpt lat="43.1121433" lon="10.8675017"><ele>403.5</ele><time>2026-05-03T08:23:12.913Z</time></trkpt><trkpt lat="43.112215" lon="10.8676633"><ele>405.0</ele><time>2026-05-03T08:23:13.91Z</time></trkpt><trkpt lat="43.11229" lon="10.8678133"><ele>406.5</ele><time>2026-05-03T08:23:14.91Z</time></trkpt><trkpt lat="43.1123633" lon="10.8679617"><ele>408.0</ele><time>2026-05-03T08:23:15.911Z</time></trkpt><trkpt lat="43.1124267" lon="10.8681133"><ele>411.0</ele><time>2026-05-03T08:23:16.911Z</time></trkpt><trkpt lat="43.1124783" lon="10.8682717"><ele>414.0</ele><time>2026-05-03T08:23:17.911Z</time></trkpt><trkpt lat="43.112515" lon="10.8684183"><ele>417.0</ele><time>2026-05-03T08:23:18.915Z</time></trkpt><trkpt lat="43.1125283" lon="10.8685583"><ele>420.0</ele><time>2026-05-03T08:23:19.911Z</time></trkpt><trkpt lat="43.1125133" lon="10.868685"><ele>423.0</ele><time>2026-05-03T08:23:20.91Z</time></trkpt><trkpt lat="43.1124983" lon="10.86883"><ele>423.0</ele><time>2026-05-03T08:23:21.911Z</time></trkpt><trkpt lat="43.1124683" lon="10.8689767"><ele>423.0</ele><time>2026-05-03T08:23:22.911Z</time></trkpt><trkpt lat="43.112435" lon="10.8691483"><ele>423.0</ele><time>2026-05-03T08:23:23.913Z</time></trkpt><trkpt lat="43.1123983" lon="10.8693317"><ele>423.0</ele><time>2026-05-03T08:23:24.914Z</time></trkpt><trkpt lat="43.1123567" lon="10.8695033"><ele>423.0</ele><time>2026-05-03T08:23:25.913Z</time></trkpt><trkpt lat="43.112305" lon="10.8696733"><ele>423.0</ele><time>2026-05-03T08:23:26.913Z</time></trkpt><trkpt lat="43.11226" lon="10.8698333"><ele>423.0</ele><time>2026-05-03T08:23:27.913Z</time></trkpt><trkpt lat="43.1122283" lon="10.8699817"><ele>423.0</ele><time>2026-05-03T08:23:28.913Z</time></trkpt><trkpt lat="43.1122133" lon="10.8701283"><ele>423.4</ele><time>2026-05-03T08:23:29.913Z</time></trkpt><trkpt lat="43.1122167" lon="10.8702683"><ele>423.79999999999995</ele><time>2026-05-03T08:23:30.915Z</time></trkpt><trkpt lat="43.11224" lon="10.87041"><ele>424.2</ele><time>2026-05-03T08:23:31.911Z</time></trkpt><trkpt lat="43.1122667" lon="10.8705533"><ele>424.6</ele><time>2026-05-03T08:23:32.913Z</time></trkpt><trkpt lat="43.1122917" lon="10.8707117"><ele>425.0</ele><time>2026-05-03T08:23:33.914Z</time></trkpt><trkpt lat="43.112315" lon="10.8708783"><ele>423.25</ele><time>2026-05-03T08:23:34.914Z</time></trkpt><trkpt lat="43.11234" lon="10.871055"><ele>421.5</ele><time>2026-05-03T08:23:35.913Z</time></trkpt><trkpt lat="43.1123617" lon="10.8712367"><ele>419.75</ele><time>2026-05-03T08:23:36.913Z</time></trkpt><trkpt lat="43.112385" lon="10.8714217"><ele>418.0</ele><time>2026-05-03T08:23:37.913Z</time></trkpt><trkpt lat="43.1124083" lon="10.8716067"><ele>421.25</ele><time>2026-05-03T08:23:38.914Z</time></trkpt><trkpt lat="43.1124333" lon="10.8717867"><ele>424.5</ele><time>2026-05-03T08:23:39.914Z</time></trkpt><trkpt lat="43.1124567" lon="10.8719733"><ele>427.75</ele><time>2026-05-03T08:23:40.913Z</time></trkpt><trkpt lat="43.1124767" lon="10.872155"><ele>431.0</ele><time>2026-05-03T08:23:41.913Z</time></trkpt><trkpt lat="43.112495" lon="10.872325"><ele>431.0</ele><time>2026-05-03T08:23:42.913Z</time></trkpt><trkpt lat="43.112515" lon="10.8724883"><ele>431.0</ele><time>2026-05-03T08:23:43.914Z</time></trkpt><trkpt lat="43.112535" lon="10.8726433"><ele>431.0</ele><time>2026-05-03T08:23:44.913Z</time></trkpt><trkpt lat="43.1125533" lon="10.8727917"><ele>431.0</ele><time>2026-05-03T08:23:45.914Z</time></trkpt><trkpt lat="43.1125733" lon="10.8729333"><ele>429.5</ele><time>2026-05-03T08:23:46.914Z</time></trkpt><trkpt lat="43.1125933" lon="10.873075"><ele>428.0</ele><time>2026-05-03T08:23:47.914Z</time></trkpt><trkpt lat="43.1126133" lon="10.8732283"><ele>426.5</ele><time>2026-05-03T08:23:48.913Z</time></trkpt><trkpt lat="43.11264" lon="10.8733833"><ele>425.0</ele><time>2026-05-03T08:23:49.914Z</time></trkpt><trkpt lat="43.112675" lon="10.87354"><ele>425.0</ele><time>2026-05-03T08:23:50.914Z</time></trkpt><trkpt lat="43.1126967" lon="10.8736833"><ele>425.0</ele><time>2026-05-03T08:23:51.914Z</time></trkpt><trkpt lat="43.112715" lon="10.8738133"><ele>425.0</ele><time>2026-05-03T08:23:52.914Z</time></trkpt><trkpt lat="43.1127317" lon="10.8739167"><ele>425.0</ele><time>2026-05-03T08:23:53.913Z</time></trkpt><trkpt lat="43.1127567" lon="10.87404"><ele>425.0</ele><time>2026-05-03T08:23:55.914Z</time></trkpt><trkpt lat="43.1128017" lon="10.87417"><ele>426.4</ele><time>2026-05-03T08:26:07.913Z</time></trkpt><trkpt lat="43.1128183" lon="10.8743033"><ele>427.8</ele><time>2026-05-03T08:26:09.914Z</time></trkpt><trkpt lat="43.112825" lon="10.87442"><ele>429.20000000000005</ele><time>2026-05-03T08:26:11.915Z</time></trkpt><trkpt lat="43.1128117" lon="10.8745417"><ele>430.6</ele><time>2026-05-03T08:26:13.914Z</time></trkpt><trkpt lat="43.1127667" lon="10.8746533"><ele>432.0</ele><time>2026-05-03T08:26:15.914Z</time></trkpt><trkpt lat="43.11269" lon="10.8747583"><ele>432.0</ele><time>2026-05-03T08:26:17.915Z</time></trkpt><trkpt lat="43.1126367" lon="10.8748167"><ele>432.0</ele><time>2026-05-03T08:26:18.914Z</time></trkpt><trkpt lat="43.11258" lon="10.874875"><ele>432.0</ele><time>2026-05-03T08:26:19.914Z</time></trkpt><trkpt lat="43.1125167" lon="10.8749433"><ele>432.0</ele><time>2026-05-03T08:26:20.915Z</time></trkpt><trkpt lat="43.1124517" lon="10.87501"><ele>432.0</ele><time>2026-05-03T08:26:21.914Z</time></trkpt><trkpt lat="43.1123833" lon="10.8750817"><ele>432.0</ele><time>2026-05-03T08:26:22.915Z</time></trkpt><trkpt lat="43.1123117" lon="10.875155"><ele>432.8333333333333</ele><time>2026-05-03T08:26:23.914Z</time></trkpt><trkpt lat="43.112245" lon="10.875225"><ele>433.66666666666663</ele><time>2026-05-03T08:26:25.004Z</time></trkpt><trkpt lat="43.1121817" lon="10.8752817"><ele>434.5</ele><time>2026-05-03T08:26:25.912Z</time></trkpt><trkpt lat="43.1121183" lon="10.8753233"><ele>435.3333333333333</ele><time>2026-05-03T08:26:26.914Z</time></trkpt><trkpt lat="43.1120517" lon="10.87535"><ele>436.16666666666663</ele><time>2026-05-03T08:26:27.91Z</time></trkpt><trkpt lat="43.1119717" lon="10.8753617"><ele>437.0</ele><time>2026-05-03T08:26:28.911Z</time></trkpt><trkpt lat="43.111885" lon="10.87537"><ele>437.0</ele><time>2026-05-03T08:26:29.913Z</time></trkpt><trkpt lat="43.11179" lon="10.87537"><ele>437.00000000000006</ele><time>2026-05-03T08:26:30.911Z</time></trkpt><trkpt lat="43.1116917" lon="10.875365"><ele>437.00000000000006</ele><time>2026-05-03T08:26:31.912Z</time></trkpt><trkpt lat="43.111585" lon="10.87537"><ele>437.0</ele><time>2026-05-03T08:26:32.912Z</time></trkpt><trkpt lat="43.1114783" lon="10.875375"><ele>437.0</ele><time>2026-05-03T08:26:33.911Z</time></trkpt><trkpt lat="43.1113783" lon="10.8753867"><ele>435.3333333333333</ele><time>2026-05-03T08:26:34.911Z</time></trkpt><trkpt lat="43.1112833" lon="10.8753883"><ele>433.66666666666663</ele><time>2026-05-03T08:26:35.912Z</time></trkpt><trkpt lat="43.111195" lon="10.87539"><ele>432.0</ele><time>2026-05-03T08:26:36.913Z</time></trkpt><trkpt lat="43.111115" lon="10.8753917"><ele>430.33333333333337</ele><time>2026-05-03T08:26:37.911Z</time></trkpt><trkpt lat="43.1110433" lon="10.8754"><ele>428.6666666666667</ele><time>2026-05-03T08:26:38.912Z</time></trkpt><trkpt lat="43.1109733" lon="10.8754117"><ele>427.0</ele><time>2026-05-03T08:26:39.911Z</time></trkpt><trkpt lat="43.110895" lon="10.8754217"><ele>427.0</ele><time>2026-05-03T08:26:40.913Z</time></trkpt><trkpt lat="43.1108183" lon="10.87544"><ele>427.00000000000006</ele><time>2026-05-03T08:26:41.913Z</time></trkpt><trkpt lat="43.1107283" lon="10.875475"><ele>427.00000000000006</ele><time>2026-05-03T08:26:42.913Z</time></trkpt><trkpt lat="43.1106367" lon="10.8755283"><ele>427.0</ele><time>2026-05-03T08:26:43.911Z</time></trkpt><trkpt lat="43.1105467" lon="10.8755867"><ele>427.0</ele><time>2026-05-03T08:26:44.914Z</time></trkpt><trkpt lat="43.1104583" lon="10.87565"><ele>425.00000000000006</ele><time>2026-05-03T08:26:45.911Z</time></trkpt><trkpt lat="43.1103717" lon="10.8757067"><ele>423.0</ele><time>2026-05-03T08:26:46.914Z</time></trkpt><trkpt lat="43.1102883" lon="10.87576"><ele>421.0</ele><time>2026-05-03T08:26:47.911Z</time></trkpt><trkpt lat="43.1102167" lon="10.8758133"><ele>419.0</ele><time>2026-05-03T08:26:48.913Z</time></trkpt><trkpt lat="43.11016" lon="10.8758633"><ele>417.00000000000006</ele><time>2026-05-03T08:26:49.914Z</time></trkpt><trkpt lat="43.110115" lon="10.8759283"><ele>415.0</ele><time>2026-05-03T08:26:50.913Z</time></trkpt><trkpt lat="43.1100783" lon="10.8760017"><ele>414.00000000000006</ele><time>2026-05-03T08:26:51.915Z</time></trkpt><trkpt lat="43.110065" lon="10.8760917"><ele>413.0</ele><time>2026-05-03T08:26:52.913Z</time></trkpt><trkpt lat="43.1100733" lon="10.8761817"><ele>412.0</ele><time>2026-05-03T08:26:53.913Z</time></trkpt><trkpt lat="43.110095" lon="10.87628"><ele>411.0</ele><time>2026-05-03T08:26:54.914Z</time></trkpt><trkpt lat="43.1101317" lon="10.87639"><ele>410.00000000000006</ele><time>2026-05-03T08:26:55.912Z</time></trkpt><trkpt lat="43.1101833" lon="10.8764883"><ele>409.0</ele><time>2026-05-03T08:26:56.911Z</time></trkpt><trkpt lat="43.11025" lon="10.87657"><ele>409.0</ele><time>2026-05-03T08:26:57.913Z</time></trkpt><trkpt lat="43.11034" lon="10.8766367"><ele>409.0</ele><time>2026-05-03T08:26:58.911Z</time></trkpt><trkpt lat="43.1104333" lon="10.8767"><ele>409.0</ele><time>2026-05-03T08:26:59.912Z</time></trkpt><trkpt lat="43.1105267" lon="10.8767717"><ele>409.0</ele><time>2026-05-03T08:27:00.913Z</time></trkpt><trkpt lat="43.1106183" lon="10.8768467"><ele>409.0</ele><time>2026-05-03T08:27:01.912Z</time></trkpt><trkpt lat="43.110715" lon="10.8769133"><ele>409.1666666666667</ele><time>2026-05-03T08:27:02.912Z</time></trkpt><trkpt lat="43.1108067" lon="10.87697"><ele>409.33333333333337</ele><time>2026-05-03T08:27:03.911Z</time></trkpt><trkpt lat="43.1108917" lon="10.8770233"><ele>409.5</ele><time>2026-05-03T08:27:04.913Z</time></trkpt><trkpt lat="43.1109717" lon="10.877075"><ele>409.66666666666663</ele><time>2026-05-03T08:27:05.913Z</time></trkpt><trkpt lat="43.1110433" lon="10.877135"><ele>409.8333333333333</ele><time>2026-05-03T08:27:06.911Z</time></trkpt><trkpt lat="43.1111017" lon="10.8772017"><ele>410.0</ele><time>2026-05-03T08:27:07.91Z</time></trkpt><trkpt lat="43.1111467" lon="10.877265"><ele>410.0</ele><time>2026-05-03T08:27:08.913Z</time></trkpt><trkpt lat="43.1111267" lon="10.8774217"><ele>410.0</ele><time>2026-05-03T08:27:10.913Z</time></trkpt><trkpt lat="43.1110917" lon="10.8775167"><ele>410.0</ele><time>2026-05-03T08:27:11.914Z</time></trkpt><trkpt lat="43.1110533" lon="10.8776383"><ele>410.0</ele><time>2026-05-03T08:27:12.913Z</time></trkpt><trkpt lat="43.1110217" lon="10.87777"><ele>410.0</ele><time>2026-05-03T08:27:13.915Z</time></trkpt><trkpt lat="43.1110083" lon="10.877905"><ele>408.6</ele><time>2026-05-03T08:27:14.913Z</time></trkpt><trkpt lat="43.1110167" lon="10.8780367"><ele>407.2</ele><time>2026-05-03T08:27:15.914Z</time></trkpt><trkpt lat="43.11105" lon="10.8781683"><ele>405.79999999999995</ele><time>2026-05-03T08:27:16.915Z</time></trkpt><trkpt lat="43.1110833" lon="10.8782983"><ele>404.4</ele><time>2026-05-03T08:27:17.914Z</time></trkpt><trkpt lat="43.1111117" lon="10.8784417"><ele>403.0</ele><time>2026-05-03T08:27:18.914Z</time></trkpt><trkpt lat="43.111125" lon="10.8785933"><ele>402.25</ele><time>2026-05-03T08:27:19.913Z</time></trkpt><trkpt lat="43.1111217" lon="10.8787517"><ele>401.5</ele><time>2026-05-03T08:27:20.914Z</time></trkpt><trkpt lat="43.1111067" lon="10.8789133"><ele>400.75</ele><time>2026-05-03T08:27:21.915Z</time></trkpt><trkpt lat="43.1110883" lon="10.879075"><ele>400.0</ele><time>2026-05-03T08:27:22.913Z</time></trkpt><trkpt lat="43.1110683" lon="10.8792267"><ele>398.4</ele><time>2026-05-03T08:27:23.914Z</time></trkpt><trkpt lat="43.1110633" lon="10.8793567"><ele>396.8</ele><time>2026-05-03T08:27:24.913Z</time></trkpt><trkpt lat="43.1110833" lon="10.8794867"><ele>395.20000000000005</ele><time>2026-05-03T08:27:25.914Z</time></trkpt><trkpt lat="43.11112" lon="10.8796133"><ele>393.6</ele><time>2026-05-03T08:27:26.911Z</time></trkpt><trkpt lat="43.1111717" lon="10.8797367"><ele>392.0</ele><time>2026-05-03T08:27:27.912Z</time></trkpt><trkpt lat="43.1112333" lon="10.8798567"><ele>392.0</ele><time>2026-05-03T08:27:28.911Z</time></trkpt><trkpt lat="43.1112933" lon="10.8799733"><ele>392.0</ele><time>2026-05-03T08:27:29.912Z</time></trkpt><trkpt lat="43.111345" lon="10.8800967"><ele>392.0</ele><time>2026-05-03T08:27:30.911Z</time></trkpt><trkpt lat="43.1113933" lon="10.8802183"><ele>392.0</ele><time>2026-05-03T08:27:31.911Z</time></trkpt><trkpt lat="43.1114517" lon="10.880325"><ele>392.0</ele><time>2026-05-03T08:27:32.911Z</time></trkpt><trkpt lat="43.1115233" lon="10.8804167"><ele>392.25</ele><time>2026-05-03T08:27:33.915Z</time></trkpt><trkpt lat="43.1116117" lon="10.8805"><ele>392.5</ele><time>2026-05-03T08:27:34.914Z</time></trkpt><trkpt lat="43.1117117" lon="10.880575"><ele>392.75</ele><time>2026-05-03T08:27:35.914Z</time></trkpt><trkpt lat="43.11182" lon="10.880645"><ele>393.0</ele><time>2026-05-03T08:27:36.913Z</time></trkpt><trkpt lat="43.1119333" lon="10.8807033"><ele>393.0</ele><time>2026-05-03T08:27:37.913Z</time></trkpt><trkpt lat="43.112055" lon="10.8807617"><ele>393.0</ele><time>2026-05-03T08:27:38.913Z</time></trkpt><trkpt lat="43.112165" lon="10.8808183"><ele>393.0</ele><time>2026-05-03T08:27:39.913Z</time></trkpt><trkpt lat="43.1122617" lon="10.88088"><ele>393.0</ele><time>2026-05-03T08:27:40.913Z</time></trkpt><trkpt lat="43.11235" lon="10.8809317"><ele>393.0</ele><time>2026-05-03T08:27:41.915Z</time></trkpt><trkpt lat="43.1110917" lon="10.8775167"><ele>395.0</ele><time>2026-05-03T08:27:11.914Z</time></trkpt><trkpt lat="43.1110533" lon="10.8776383"><ele>397.0</ele><time>2026-05-03T08:27:12.913Z</time></trkpt><trkpt lat="43.1110217" lon="10.87777"><ele>399.0</ele><time>2026-05-03T08:27:13.915Z</time></trkpt><trkpt lat="43.1110083" lon="10.877905"><ele>401.0</ele><time>2026-05-03T08:27:14.913Z</time></trkpt><trkpt lat="43.1110167" lon="10.8780367"><ele>403.0</ele><time>2026-05-03T08:27:15.914Z</time></trkpt><trkpt lat="43.11105" lon="10.8781683"><ele>403.0</ele><time>2026-05-03T08:27:16.915Z</time></trkpt><trkpt lat="43.1110833" lon="10.8782983"><ele>403.0</ele><time>2026-05-03T08:27:17.914Z</time></trkpt><trkpt lat="43.1111117" lon="10.8784417"><ele>403.0</ele><time>2026-05-03T08:27:18.914Z</time></trkpt><trkpt lat="43.111125" lon="10.8785933"><ele>403.0</ele><time>2026-05-03T08:27:19.913Z</time></trkpt><trkpt lat="43.1111217" lon="10.8787517"><ele>403.0</ele><time>2026-05-03T08:27:20.914Z</time></trkpt><trkpt lat="43.1111067" lon="10.8789133"><ele>402.4</ele><time>2026-05-03T08:27:21.915Z</time></trkpt><trkpt lat="43.1110883" lon="10.879075"><ele>401.79999999999995</ele><time>2026-05-03T08:27:22.913Z</time></trkpt><trkpt lat="43.1110683" lon="10.8792267"><ele>401.2</ele><time>2026-05-03T08:27:23.914Z</time></trkpt><trkpt lat="43.1110633" lon="10.8793567"><ele>400.6</ele><time>2026-05-03T08:27:24.913Z</time></trkpt><trkpt lat="43.1110833" lon="10.8794867"><ele>400.0</ele><time>2026-05-03T08:27:25.914Z</time></trkpt><trkpt lat="43.11112" lon="10.8796133"><ele>398.4</ele><time>2026-05-03T08:27:26.911Z</time></trkpt><trkpt lat="43.1111717" lon="10.8797367"><ele>396.8</ele><time>2026-05-03T08:27:27.912Z</time></trkpt><trkpt lat="43.1112333" lon="10.8798567"><ele>395.20000000000005</ele><time>2026-05-03T08:27:28.911Z</time></trkpt><trkpt lat="43.1112933" lon="10.8799733"><ele>393.6</ele><time>2026-05-03T08:27:29.912Z</time></trkpt><trkpt lat="43.111345" lon="10.8800967"><ele>392.0</ele><time>2026-05-03T08:27:30.911Z</time></trkpt><trkpt lat="43.1113933" lon="10.8802183"><ele>392.20000000000005</ele><time>2026-05-03T08:27:31.911Z</time></trkpt><trkpt lat="43.1114517" lon="10.880325"><ele>392.4</ele><time>2026-05-03T08:27:32.911Z</time></trkpt><trkpt lat="43.1115233" lon="10.8804167"><ele>392.6</ele><time>2026-05-03T08:27:33.915Z</time></trkpt><trkpt lat="43.1116117" lon="10.8805"><ele>392.79999999999995</ele><time>2026-05-03T08:27:34.914Z</time></trkpt><trkpt lat="43.1117117" lon="10.880575"><ele>393.0</ele><time>2026-05-03T08:27:35.914Z</time></trkpt><trkpt lat="43.11182" lon="10.880645"><ele>393.0</ele><time>2026-05-03T08:27:36.913Z</time></trkpt><trkpt lat="43.1119333" lon="10.8807033"><ele>393.0</ele><time>2026-05-03T08:27:37.913Z</time></trkpt><trkpt lat="43.112055" lon="10.8807617"><ele>393.0</ele><time>2026-05-03T08:27:38.913Z</time></trkpt><trkpt lat="43.112165" lon="10.8808183"><ele>393.0</ele><time>2026-05-03T08:27:39.913Z</time></trkpt><trkpt lat="43.1122617" lon="10.88088"><ele>393.0</ele><time>2026-05-03T08:27:40.913Z</time></trkpt><trkpt lat="43.11235" lon="10.8809317"><ele>393.0</ele><time>2026-05-03T08:27:41.915Z</time></trkpt><trkpt lat="43.112435" lon="10.8809633"><ele>393.0</ele><time>2026-05-03T08:27:42.913Z</time></trkpt><trkpt lat="43.1125133" lon="10.8809783"><ele>393.0</ele><time>2026-05-03T08:27:43.915Z</time></trkpt><trkpt lat="43.1125867" lon="10.8809683"><ele>393.0</ele><time>2026-05-03T08:27:44.913Z</time></trkpt><trkpt lat="43.1126567" lon="10.88092"><ele>393.0</ele><time>2026-05-03T08:27:45.913Z</time></trkpt><trkpt lat="43.112715" lon="10.880845"><ele>393.1666666666667</ele><time>2026-05-03T08:27:46.914Z</time></trkpt><trkpt lat="43.112765" lon="10.8807533"><ele>393.33333333333337</ele><time>2026-05-03T08:27:47.914Z</time></trkpt><trkpt lat="43.1128217" lon="10.8806733"><ele>393.5</ele><time>2026-05-03T08:27:48.915Z</time></trkpt><trkpt lat="43.1128783" lon="10.8806217"><ele>393.6666666666667</ele><time>2026-05-03T08:27:49.912Z</time></trkpt><trkpt lat="43.1129783" lon="10.8805567"><ele>393.83333333333337</ele><time>2026-05-03T08:27:51.911Z</time></trkpt><trkpt lat="43.1130617" lon="10.880635"><ele>394.0</ele><time>2026-05-03T08:27:53.914Z</time></trkpt><trkpt lat="43.1130883" lon="10.880755"><ele>394.0</ele><time>2026-05-03T08:27:54.914Z</time></trkpt><trkpt lat="43.1131217" lon="10.8808983"><ele>394.0</ele><time>2026-05-03T08:27:55.913Z</time></trkpt><trkpt lat="43.1131567" lon="10.88105"><ele>394.0</ele><time>2026-05-03T08:27:56.911Z</time></trkpt><trkpt lat="43.1131883" lon="10.881195"><ele>394.0</ele><time>2026-05-03T08:27:57.912Z</time></trkpt><trkpt lat="43.113215" lon="10.8813467"><ele>393.75</ele><time>2026-05-03T08:27:58.912Z</time></trkpt><trkpt lat="43.113245" lon="10.88151"><ele>393.5</ele><time>2026-05-03T08:27:59.912Z</time></trkpt><trkpt lat="43.113265" lon="10.8816917"><ele>393.25</ele><time>2026-05-03T08:28:00.912Z</time></trkpt><trkpt lat="43.1132933" lon="10.88187"><ele>393.0</ele><time>2026-05-03T08:28:01.913Z</time></trkpt><trkpt lat="43.113325" lon="10.8820383"><ele>391.25</ele><time>2026-05-03T08:28:02.915Z</time></trkpt><trkpt lat="43.1133517" lon="10.8822067"><ele>389.5</ele><time>2026-05-03T08:28:03.914Z</time></trkpt><trkpt lat="43.1133783" lon="10.882355"><ele>387.75</ele><time>2026-05-03T08:28:04.914Z</time></trkpt><trkpt lat="43.1134033" lon="10.8825017"><ele>386.0</ele><time>2026-05-03T08:28:05.914Z</time></trkpt><trkpt lat="43.113425" lon="10.8826417"><ele>385.66666666666663</ele><time>2026-05-03T08:28:06.912Z</time></trkpt><trkpt lat="43.113445" lon="10.88277"><ele>385.3333333333333</ele><time>2026-05-03T08:28:07.914Z</time></trkpt><trkpt lat="43.113465" lon="10.8828933"><ele>385.0</ele><time>2026-05-03T08:28:08.913Z</time></trkpt><trkpt lat="43.1134667" lon="10.8830133"><ele>384.66666666666663</ele><time>2026-05-03T08:28:09.913Z</time></trkpt><trkpt lat="43.1134583" lon="10.883125"><ele>384.3333333333333</ele><time>2026-05-03T08:28:10.913Z</time></trkpt><trkpt lat="43.1134367" lon="10.8832333"><ele>384.0</ele><time>2026-05-03T08:28:11.914Z</time></trkpt><trkpt lat="43.1134083" lon="10.8833283"><ele>384.0</ele><time>2026-05-03T08:28:12.912Z</time></trkpt><trkpt lat="43.1133617" lon="10.8834133"><ele>384.0</ele><time>2026-05-03T08:28:13.913Z</time></trkpt><trkpt lat="43.1133183" lon="10.8834817"><ele>384.0</ele><time>2026-05-03T08:28:14.913Z</time></trkpt><trkpt lat="43.1132667" lon="10.8835633"><ele>384.0</ele><time>2026-05-03T08:28:15.913Z</time></trkpt><trkpt lat="43.1132083" lon="10.8836633"><ele>384.0</ele><time>2026-05-03T08:28:16.914Z</time></trkpt><trkpt lat="43.1131533" lon="10.883785"><ele>384.0</ele><time>2026-05-03T08:28:17.914Z</time></trkpt><trkpt lat="43.1130933" lon="10.883925"><ele>385.0</ele><time>2026-05-03T08:28:18.912Z</time></trkpt><trkpt lat="43.1130317" lon="10.8840683"><ele>386.0</ele><time>2026-05-03T08:28:19.913Z</time></trkpt><trkpt lat="43.1129683" lon="10.8842167"><ele>387.0</ele><time>2026-05-03T08:28:20.914Z</time></trkpt><trkpt lat="43.112895" lon="10.8843517"><ele>388.0</ele><time>2026-05-03T08:28:21.912Z</time></trkpt><trkpt lat="43.11282" lon="10.8845067"><ele>388.75</ele><time>2026-05-03T08:28:22.913Z</time></trkpt><trkpt lat="43.11275" lon="10.884665"><ele>389.5</ele><time>2026-05-03T08:28:23.915Z</time></trkpt><trkpt lat="43.1126783" lon="10.8848167"><ele>390.25</ele><time>2026-05-03T08:28:24.911Z</time></trkpt><trkpt lat="43.1126017" lon="10.8849667"><ele>391.0</ele><time>2026-05-03T08:28:25.914Z</time></trkpt><trkpt lat="43.11253" lon="10.8851233"><ele>391.25</ele><time>2026-05-03T08:28:26.913Z</time></trkpt><trkpt lat="43.1124533" lon="10.8852733"><ele>391.5</ele><time>2026-05-03T08:28:27.914Z</time></trkpt><trkpt lat="43.1123783" lon="10.885415"><ele>391.75</ele><time>2026-05-03T08:28:28.915Z</time></trkpt><trkpt lat="43.1123233" lon="10.8855483"><ele>392.0</ele><time>2026-05-03T08:28:29.914Z</time></trkpt><trkpt lat="43.1122983" lon="10.8856817"><ele>392.0</ele><time>2026-05-03T08:28:30.914Z</time></trkpt><trkpt lat="43.1123133" lon="10.8858183"><ele>392.0</ele><time>2026-05-03T08:28:31.915Z</time></trkpt><trkpt lat="43.112345" lon="10.8859583"><ele>392.0</ele><time>2026-05-03T08:28:32.914Z</time></trkpt><trkpt lat="43.1123967" lon="10.88609"><ele>392.0</ele><time>2026-05-03T08:28:33.911Z</time></trkpt><trkpt lat="43.11246" lon="10.886215"><ele>392.0</ele><time>2026-05-03T08:28:34.911Z</time></trkpt><trkpt lat="43.1125417" lon="10.8863083"><ele>395.75</ele><time>2026-05-03T08:28:35.912Z</time></trkpt><trkpt lat="43.1126467" lon="10.88637"><ele>399.5</ele><time>2026-05-03T08:28:36.912Z</time></trkpt><trkpt lat="43.1127667" lon="10.88642"><ele>403.25</ele><time>2026-05-03T08:28:37.911Z</time></trkpt><trkpt lat="43.1128933" lon="10.8864633"><ele>407.0</ele><time>2026-05-03T08:28:38.913Z</time></trkpt><trkpt lat="43.11301" lon="10.886505"><ele>406.99999999999994</ele><time>2026-05-03T08:28:39.911Z</time></trkpt><trkpt lat="43.113105" lon="10.886545"><ele>407.0</ele><time>2026-05-03T08:28:40.911Z</time></trkpt><trkpt lat="43.1131817" lon="10.8865983"><ele>407.0</ele><time>2026-05-03T08:28:41.912Z</time></trkpt><trkpt lat="43.1132483" lon="10.8866617"><ele>407.0</ele><time>2026-05-03T08:28:42.912Z</time></trkpt><trkpt lat="43.1133117" lon="10.88674"><ele>406.99999999999994</ele><time>2026-05-03T08:28:43.911Z</time></trkpt><trkpt lat="43.1133733" lon="10.8868283"><ele>407.0</ele><time>2026-05-03T08:28:44.912Z</time></trkpt><trkpt lat="43.1134283" lon="10.88694"><ele>407.20000000000005</ele><time>2026-05-03T08:28:45.911Z</time></trkpt><trkpt lat="43.1134867" lon="10.887065"><ele>407.4</ele><time>2026-05-03T08:28:46.911Z</time></trkpt><trkpt lat="43.113545" lon="10.8872017"><ele>407.6</ele><time>2026-05-03T08:28:47.912Z</time></trkpt><trkpt lat="43.1136117" lon="10.8873183"><ele>407.79999999999995</ele><time>2026-05-03T08:28:48.912Z</time></trkpt><trkpt lat="43.1136767" lon="10.887435"><ele>408.0</ele><time>2026-05-03T08:28:49.911Z</time></trkpt><trkpt lat="43.1137333" lon="10.8875567"><ele>408.0</ele><time>2026-05-03T08:28:50.914Z</time></trkpt><trkpt lat="43.11378" lon="10.8876883"><ele>408.0</ele><time>2026-05-03T08:28:51.911Z</time></trkpt><trkpt lat="43.1138133" lon="10.88783"><ele>408.0</ele><time>2026-05-03T08:28:52.914Z</time></trkpt><trkpt lat="43.1138433" lon="10.887975"><ele>408.0</ele><time>2026-05-03T08:28:53.912Z</time></trkpt><trkpt lat="43.113865" lon="10.8881233"><ele>408.0</ele><time>2026-05-03T08:28:54.913Z</time></trkpt><trkpt lat="43.1138833" lon="10.8882617"><ele>408.0</ele><time>2026-05-03T08:28:55.915Z</time></trkpt><trkpt lat="43.11388" lon="10.8883817"><ele>408.0</ele><time>2026-05-03T08:28:56.911Z</time></trkpt><trkpt lat="43.1138583" lon="10.8884967"><ele>408.0</ele><time>2026-05-03T08:28:57.911Z</time></trkpt><trkpt lat="43.1138133" lon="10.8886083"><ele>408.0</ele><time>2026-05-03T08:28:58.911Z</time></trkpt><trkpt lat="43.1137667" lon="10.8887383"><ele>408.0</ele><time>2026-05-03T08:28:59.912Z</time></trkpt><trkpt lat="43.1137183" lon="10.888885"><ele>410.0</ele><time>2026-05-03T08:29:00.911Z</time></trkpt><trkpt lat="43.1136767" lon="10.8890383"><ele>412.0</ele><time>2026-05-03T08:29:01.914Z</time></trkpt><trkpt lat="43.1136667" lon="10.8891667"><ele>414.0</ele><time>2026-05-03T08:29:02.914Z</time></trkpt><trkpt lat="43.1136883" lon="10.8892917"><ele>416.0</ele><time>2026-05-03T08:29:03.911Z</time></trkpt><trkpt lat="43.1137367" lon="10.8894167"><ele>418.0</ele><time>2026-05-03T08:29:04.914Z</time></trkpt><trkpt lat="43.1138" lon="10.889535"><ele>421.0</ele><time>2026-05-03T08:29:05.914Z</time></trkpt><trkpt lat="43.1138667" lon="10.8896667"><ele>424.0</ele><time>2026-05-03T08:29:06.915Z</time></trkpt><trkpt lat="43.113935" lon="10.889795"><ele>427.0</ele><time>2026-05-03T08:29:07.913Z</time></trkpt><trkpt lat="43.1140067" lon="10.889925"><ele>430.0</ele><time>2026-05-03T08:29:08.912Z</time></trkpt><trkpt lat="43.114075" lon="10.8900517"><ele>432.50000000000006</ele><time>2026-05-03T08:29:09.913Z</time></trkpt><trkpt lat="43.1141333" lon="10.8901667"><ele>435.0</ele><time>2026-05-03T08:29:10.914Z</time></trkpt><trkpt lat="43.1141783" lon="10.8902717"><ele>437.5</ele><time>2026-05-03T08:29:11.917Z</time></trkpt><trkpt lat="43.1142033" lon="10.89038"><ele>440.0</ele><time>2026-05-03T08:29:12.912Z</time></trkpt><trkpt lat="43.1142117" lon="10.8904917"><ele>442.50000000000006</ele><time>2026-05-03T08:29:13.913Z</time></trkpt><trkpt lat="43.1142117" lon="10.8906067"><ele>445.0</ele><time>2026-05-03T08:29:14.913Z</time></trkpt><trkpt lat="43.1142083" lon="10.890735"><ele>445.0</ele><time>2026-05-03T08:29:15.912Z</time></trkpt><trkpt lat="43.114205" lon="10.8908783"><ele>445.0</ele><time>2026-05-03T08:29:16.913Z</time></trkpt><trkpt lat="43.1142017" lon="10.89103"><ele>445.0</ele><time>2026-05-03T08:29:17.914Z</time></trkpt><trkpt lat="43.114195" lon="10.8911867"><ele>445.0</ele><time>2026-05-03T08:29:18.913Z</time></trkpt><trkpt lat="43.1141867" lon="10.8913317"><ele>445.0</ele><time>2026-05-03T08:29:19.913Z</time></trkpt><trkpt lat="43.1141733" lon="10.8914517"><ele>446.4</ele><time>2026-05-03T08:29:20.916Z</time></trkpt><trkpt lat="43.114155" lon="10.89157"><ele>447.8</ele><time>2026-05-03T08:29:21.915Z</time></trkpt><trkpt lat="43.1141333" lon="10.8916683"><ele>449.20000000000005</ele><time>2026-05-03T08:29:22.911Z</time></trkpt><trkpt lat="43.1140867" lon="10.8917433"><ele>450.6</ele><time>2026-05-03T08:29:23.913Z</time></trkpt><trkpt lat="43.1139683" lon="10.8916967"><ele>452.0</ele><time>2026-05-03T08:29:24.912Z</time></trkpt><trkpt lat="43.1138517" lon="10.8916783"><ele>452.0</ele><time>2026-05-03T08:29:25.912Z</time></trkpt><trkpt lat="43.1137417" lon="10.8917033"><ele>452.00000000000006</ele><time>2026-05-03T08:29:26.914Z</time></trkpt><trkpt lat="43.1136483" lon="10.8917533"><ele>452.00000000000006</ele><time>2026-05-03T08:29:27.914Z</time></trkpt><trkpt lat="43.1135817" lon="10.8918583"><ele>452.0</ele><time>2026-05-03T08:29:28.914Z</time></trkpt><trkpt lat="43.11354" lon="10.892"><ele>452.0</ele><time>2026-05-03T08:29:29.911Z</time></trkpt><trkpt lat="43.1135017" lon="10.8921733"><ele>455.5</ele><time>2026-05-03T08:29:30.914Z</time></trkpt><trkpt lat="43.113465" lon="10.8923583"><ele>459.0</ele><time>2026-05-03T08:29:31.912Z</time></trkpt><trkpt lat="43.1134283" lon="10.8925483"><ele>462.5</ele><time>2026-05-03T08:29:32.914Z</time></trkpt><trkpt lat="43.1133833" lon="10.8927433"><ele>466.0</ele><time>2026-05-03T08:29:33.914Z</time></trkpt><trkpt lat="43.11334" lon="10.8929433"><ele>469.25</ele><time>2026-05-03T08:29:34.914Z</time></trkpt><trkpt lat="43.1132983" lon="10.8931217"><ele>472.5</ele><time>2026-05-03T08:29:35.914Z</time></trkpt><trkpt lat="43.1132667" lon="10.893275"><ele>475.75</ele><time>2026-05-03T08:29:36.914Z</time></trkpt><trkpt lat="43.1132433" lon="10.8934183"><ele>479.0</ele><time>2026-05-03T08:29:37.911Z</time></trkpt><trkpt lat="43.1132267" lon="10.89355"><ele>481.3333333333333</ele><time>2026-05-03T08:29:38.913Z</time></trkpt><trkpt lat="43.1132117" lon="10.8936567"><ele>483.66666666666663</ele><time>2026-05-03T08:29:39.913Z</time></trkpt><trkpt lat="43.11316" lon="10.8937933"><ele>486.0</ele><time>2026-05-03T08:29:41.914Z</time></trkpt><trkpt lat="43.11309" lon="10.89387"><ele>488.33333333333337</ele><time>2026-05-03T08:29:43.912Z</time></trkpt><trkpt lat="43.113015" lon="10.89384"><ele>490.6666666666667</ele><time>2026-05-03T08:29:45.913Z</time></trkpt><trkpt lat="43.1129633" lon="10.8937867"><ele>493.0</ele><time>2026-05-03T08:29:46.913Z</time></trkpt><trkpt lat="43.11291" lon="10.8937317"><ele>493.0</ele><time>2026-05-03T08:29:47.913Z</time></trkpt><trkpt lat="43.1128233" lon="10.8936333"><ele>493.0</ele><time>2026-05-03T08:29:48.912Z</time></trkpt><trkpt lat="43.1127317" lon="10.8935483"><ele>493.0</ele><time>2026-05-03T08:29:49.913Z</time></trkpt><trkpt lat="43.1126017" lon="10.893455"><ele>493.0</ele><time>2026-05-03T08:29:50.914Z</time></trkpt><trkpt lat="43.11249" lon="10.8933733"><ele>493.75</ele><time>2026-05-03T08:29:51.914Z</time></trkpt><trkpt lat="43.1123833" lon="10.893295"><ele>494.5</ele><time>2026-05-03T08:29:52.914Z</time></trkpt><trkpt lat="43.1122767" lon="10.8932183"><ele>495.25</ele><time>2026-05-03T08:29:53.913Z</time></trkpt><trkpt lat="43.1121783" lon="10.8931533"><ele>496.0</ele><time>2026-05-03T08:29:54.915Z</time></trkpt><trkpt lat="43.1120733" lon="10.8931017"><ele>496.0</ele><time>2026-05-03T08:29:55.911Z</time></trkpt><trkpt lat="43.111975" lon="10.893065"><ele>496.0</ele><time>2026-05-03T08:29:56.913Z</time></trkpt><trkpt lat="43.111865" lon="10.89304"><ele>496.0</ele><time>2026-05-03T08:29:57.913Z</time></trkpt><trkpt lat="43.11175" lon="10.893035"><ele>496.0</ele><time>2026-05-03T08:29:58.914Z</time></trkpt><trkpt lat="43.111625" lon="10.89305"><ele>495.25</ele><time>2026-05-03T08:29:59.912Z</time></trkpt><trkpt lat="43.111495" lon="10.893075"><ele>494.5</ele><time>2026-05-03T08:30:00.913Z</time></trkpt><trkpt lat="43.1113767" lon="10.893115"><ele>493.75</ele><time>2026-05-03T08:30:01.913Z</time></trkpt><trkpt lat="43.1112583" lon="10.893155"><ele>493.0</ele><time>2026-05-03T08:30:02.911Z</time></trkpt><trkpt lat="43.1111383" lon="10.8931933"><ele>493.0</ele><time>2026-05-03T08:30:03.912Z</time></trkpt><trkpt lat="43.1110233" lon="10.8932183"><ele>492.99999999999994</ele><time>2026-05-03T08:30:04.911Z</time></trkpt><trkpt lat="43.1109167" lon="10.89324"><ele>492.99999999999994</ele><time>2026-05-03T08:30:05.913Z</time></trkpt><trkpt lat="43.1108233" lon="10.8932717"><ele>493.0</ele><time>2026-05-03T08:30:06.913Z</time></trkpt><trkpt lat="43.1107467" lon="10.8933133"><ele>493.0</ele><time>2026-05-03T08:30:07.913Z</time></trkpt><trkpt lat="43.1106783" lon="10.8933683"><ele>490.1666666666667</ele><time>2026-05-03T08:30:08.911Z</time></trkpt><trkpt lat="43.110625" lon="10.8934483"><ele>487.33333333333337</ele><time>2026-05-03T08:30:09.911Z</time></trkpt><trkpt lat="43.110585" lon="10.8935483"><ele>484.5</ele><time>2026-05-03T08:30:10.912Z</time></trkpt><trkpt lat="43.1105717" lon="10.8936667"><ele>481.66666666666663</ele><time>2026-05-03T08:30:11.912Z</time></trkpt><trkpt lat="43.1105717" lon="10.893795"><ele>478.8333333333333</ele><time>2026-05-03T08:30:12.912Z</time></trkpt><trkpt lat="43.1106033" lon="10.8939283"><ele>476.0</ele><time>2026-05-03T08:30:13.911Z</time></trkpt><trkpt lat="43.1106317" lon="10.89406"><ele>476.0</ele><time>2026-05-03T08:30:14.912Z</time></trkpt><trkpt lat="43.110695" lon="10.8941833"><ele>476.0</ele><time>2026-05-03T08:30:15.912Z</time></trkpt><trkpt lat="43.1107833" lon="10.8942783"><ele>476.0</ele><time>2026-05-03T08:30:16.911Z</time></trkpt><trkpt lat="43.11087" lon="10.8943717"><ele>476.0</ele><time>2026-05-03T08:30:17.911Z</time></trkpt><trkpt lat="43.1109567" lon="10.8944633"><ele>476.0</ele><time>2026-05-03T08:30:18.911Z</time></trkpt><trkpt lat="43.111035" lon="10.8945533"><ele>480.0</ele><time>2026-05-03T08:30:19.911Z</time></trkpt><trkpt lat="43.1111117" lon="10.89464"><ele>484.0</ele><time>2026-05-03T08:30:20.912Z</time></trkpt><trkpt lat="43.1111883" lon="10.89473"><ele>488.0</ele><time>2026-05-03T08:30:21.912Z</time></trkpt><trkpt lat="43.1112633" lon="10.89482"><ele>492.0</ele><time>2026-05-03T08:30:22.912Z</time></trkpt><trkpt lat="43.1113467" lon="10.8949033"><ele>496.0</ele><time>2026-05-03T08:30:23.911Z</time></trkpt><trkpt lat="43.1114333" lon="10.8949867"><ele>496.0</ele><time>2026-05-03T08:30:24.911Z</time></trkpt><trkpt lat="43.1115083" lon="10.895075"><ele>496.0</ele><time>2026-05-03T08:30:25.913Z</time></trkpt><trkpt lat="43.111585" lon="10.895165"><ele>496.0</ele><time>2026-05-03T08:30:26.912Z</time></trkpt><trkpt lat="43.11165" lon="10.8952633"><ele>496.0</ele><time>2026-05-03T08:30:27.916Z</time></trkpt><trkpt lat="43.11171" lon="10.895365"><ele>496.0</ele><time>2026-05-03T08:30:28.912Z</time></trkpt><trkpt lat="43.11176" lon="10.89548"><ele>499.6</ele><time>2026-05-03T08:30:29.911Z</time></trkpt><trkpt lat="43.111795" lon="10.895605"><ele>503.20000000000005</ele><time>2026-05-03T08:30:30.912Z</time></trkpt><trkpt lat="43.1118317" lon="10.8957267"><ele>506.79999999999995</ele><time>2026-05-03T08:30:31.911Z</time></trkpt><trkpt lat="43.1118483" lon="10.89585"><ele>510.4</ele><time>2026-05-03T08:30:32.912Z</time></trkpt><trkpt lat="43.111855" lon="10.8959783"><ele>514.0</ele><time>2026-05-03T08:30:33.911Z</time></trkpt><trkpt lat="43.1118483" lon="10.8961083"><ele>515.2</ele><time>2026-05-03T08:30:34.912Z</time></trkpt><trkpt lat="43.1118233" lon="10.8962333"><ele>516.4</ele><time>2026-05-03T08:30:35.912Z</time></trkpt><trkpt lat="43.1117933" lon="10.896365"><ele>517.6</ele><time>2026-05-03T08:30:36.912Z</time></trkpt><trkpt lat="43.1117533" lon="10.8964933"><ele>518.8</ele><time>2026-05-03T08:30:37.911Z</time></trkpt><trkpt lat="43.1117067" lon="10.8966283"><ele>520.0</ele><time>2026-05-03T08:30:38.912Z</time></trkpt><trkpt lat="43.111645" lon="10.8967633"><ele>518.5</ele><time>2026-05-03T08:30:39.911Z</time></trkpt><trkpt lat="43.1115767" lon="10.8968933"><ele>517.0</ele><time>2026-05-03T08:30:40.911Z</time></trkpt><trkpt lat="43.1115117" lon="10.897015"><ele>515.5</ele><time>2026-05-03T08:30:41.914Z</time></trkpt><trkpt lat="43.1114417" lon="10.8971317"><ele>514.0</ele><time>2026-05-03T08:30:42.911Z</time></trkpt><trkpt lat="43.11137" lon="10.8972533"><ele>514.0</ele><time>2026-05-03T08:30:43.911Z</time></trkpt><trkpt lat="43.1112967" lon="10.89738"><ele>514.0</ele><time>2026-05-03T08:30:44.911Z</time></trkpt><trkpt lat="43.1112133" lon="10.897515"><ele>514.0</ele><time>2026-05-03T08:30:45.912Z</time></trkpt><trkpt lat="43.11113" lon="10.8976567"><ele>514.0</ele><time>2026-05-03T08:30:46.911Z</time></trkpt><trkpt lat="43.1110433" lon="10.8977983"><ele>515.75</ele><time>2026-05-03T08:30:47.911Z</time></trkpt><trkpt lat="43.1109683" lon="10.897945"><ele>517.5</ele><time>2026-05-03T08:30:48.914Z</time></trkpt><trkpt lat="43.1108967" lon="10.8981017"><ele>519.25</ele><time>2026-05-03T08:30:49.91Z</time></trkpt><trkpt lat="43.110845" lon="10.89827"><ele>521.0</ele><time>2026-05-03T08:30:50.913Z</time></trkpt><trkpt lat="43.110815" lon="10.8984333"><ele>522.3333333333333</ele><time>2026-05-03T08:30:51.913Z</time></trkpt><trkpt lat="43.1107967" lon="10.8985717"><ele>523.6666666666666</ele><time>2026-05-03T08:30:52.914Z</time></trkpt><trkpt lat="43.1107967" lon="10.8986917"><ele>525.0</ele><time>2026-05-03T08:30:53.914Z</time></trkpt><trkpt lat="43.1108117" lon="10.8987983"><ele>526.3333333333334</ele><time>2026-05-03T08:30:54.914Z</time></trkpt><trkpt lat="43.1108417" lon="10.8988967"><ele>527.6666666666667</ele><time>2026-05-03T08:30:55.911Z</time></trkpt><trkpt lat="43.11088" lon="10.8989883"><ele>529.0</ele><time>2026-05-03T08:30:56.911Z</time></trkpt><trkpt lat="43.1109833" lon="10.8990933"><ele>529.0</ele><time>2026-05-03T08:30:58.911Z</time></trkpt><trkpt lat="43.1111" lon="10.8991167"><ele>529.0</ele><time>2026-05-03T08:31:00.912Z</time></trkpt><trkpt lat="43.1111617" lon="10.8990983"><ele>529.0</ele><time>2026-05-03T08:31:01.911Z</time></trkpt><trkpt lat="43.111275" lon="10.8990267"><ele>529.0</ele><time>2026-05-03T08:31:03.912Z</time></trkpt><trkpt lat="43.1113283" lon="10.8989767"><ele>529.0</ele><time>2026-05-03T08:31:04.911Z</time></trkpt><trkpt lat="43.1113817" lon="10.8989083"><ele>529.0</ele><time>2026-05-03T08:31:05.912Z</time></trkpt><trkpt lat="43.111445" lon="10.8988067"><ele>529.0</ele><time>2026-05-03T08:31:06.911Z</time></trkpt><trkpt lat="43.11152" lon="10.8986933"><ele>529.0</ele><time>2026-05-03T08:31:07.912Z</time></trkpt><trkpt lat="43.1115983" lon="10.89859"><ele>529.0</ele><time>2026-05-03T08:31:08.911Z</time></trkpt><trkpt lat="43.111675" lon="10.8985167"><ele>529.0</ele><time>2026-05-03T08:31:09.914Z</time></trkpt><trkpt lat="43.1117583" lon="10.89846"><ele>529.0</ele><time>2026-05-03T08:31:10.911Z</time></trkpt><trkpt lat="43.1118417" lon="10.8984367"><ele>530.2</ele><time>2026-05-03T08:31:11.911Z</time></trkpt><trkpt lat="43.1119283" lon="10.898415"><ele>531.4</ele><time>2026-05-03T08:31:12.91Z</time></trkpt><trkpt lat="43.1120183" lon="10.8983967"><ele>532.6</ele><time>2026-05-03T08:31:13.91Z</time></trkpt><trkpt lat="43.1121167" lon="10.8983783"><ele>533.8</ele><time>2026-05-03T08:31:14.911Z</time></trkpt><trkpt lat="43.1122133" lon="10.8983617"><ele>535.0</ele><time>2026-05-03T08:31:15.912Z</time></trkpt><trkpt lat="43.112315" lon="10.8983333"><ele>537.5</ele><time>2026-05-03T08:31:16.912Z</time></trkpt><trkpt lat="43.1124217" lon="10.8983117"><ele>540.0</ele><time>2026-05-03T08:31:17.912Z</time></trkpt><trkpt lat="43.112535" lon="10.8982867"><ele>542.5</ele><time>2026-05-03T08:31:18.912Z</time></trkpt><trkpt lat="43.1126517" lon="10.89826"><ele>545.0</ele><time>2026-05-03T08:31:19.911Z</time></trkpt><trkpt lat="43.11277" lon="10.8982367"><ele>545.0</ele><time>2026-05-03T08:31:20.914Z</time></trkpt><trkpt lat="43.1128867" lon="10.8982117"><ele>545.0</ele><time>2026-05-03T08:31:21.913Z</time></trkpt><trkpt lat="43.112995" lon="10.89819"><ele>545.0</ele><time>2026-05-03T08:31:22.911Z</time></trkpt><trkpt lat="43.1130933" lon="10.898175"><ele>545.0</ele><time>2026-05-03T08:31:23.914Z</time></trkpt><trkpt lat="43.113175" lon="10.8981683"><ele>545.0</ele><time>2026-05-03T08:31:24.911Z</time></trkpt><trkpt lat="43.113255" lon="10.898185"><ele>546.3333333333333</ele><time>2026-05-03T08:31:25.914Z</time></trkpt><trkpt lat="43.1133267" lon="10.8982167"><ele>547.6666666666666</ele><time>2026-05-03T08:31:26.913Z</time></trkpt><trkpt lat="43.11339" lon="10.8982817"><ele>549.0</ele><time>2026-05-03T08:31:27.914Z</time></trkpt><trkpt lat="43.1134317" lon="10.898395"><ele>550.3333333333334</ele><time>2026-05-03T08:31:28.913Z</time></trkpt><trkpt lat="43.1134617" lon="10.8985217"><ele>551.6666666666667</ele><time>2026-05-03T08:31:29.917Z</time></trkpt><trkpt lat="43.113485" lon="10.8986533"><ele>553.0</ele><time>2026-05-03T08:31:30.913Z</time></trkpt><trkpt lat="43.1134917" lon="10.8987933"><ele>554.1999999999999</ele><time>2026-05-03T08:31:31.913Z</time></trkpt><trkpt lat="43.113495" lon="10.89893"><ele>555.4</ele><time>2026-05-03T08:31:32.914Z</time></trkpt><trkpt lat="43.1134917" lon="10.89907"><ele>556.5999999999999</ele><time>2026-05-03T08:31:33.913Z</time></trkpt><trkpt lat="43.11348" lon="10.8992083"><ele>557.8</ele><time>2026-05-03T08:31:34.917Z</time></trkpt><trkpt lat="43.1134583" lon="10.8993517"><ele>559.0</ele><time>2026-05-03T08:31:35.911Z</time></trkpt><trkpt lat="43.1134267" lon="10.899495"><ele>560.5</ele><time>2026-05-03T08:31:36.914Z</time></trkpt><trkpt lat="43.1133883" lon="10.8996417"><ele>562.0</ele><time>2026-05-03T08:31:37.913Z</time></trkpt><trkpt lat="43.11335" lon="10.8997867"><ele>563.5</ele><time>2026-05-03T08:31:38.911Z</time></trkpt><trkpt lat="43.1133083" lon="10.8999333"><ele>565.0</ele><time>2026-05-03T08:31:39.911Z</time></trkpt><trkpt lat="43.1132667" lon="10.9000967"><ele>565.75</ele><time>2026-05-03T08:31:40.911Z</time></trkpt><trkpt lat="43.1132233" lon="10.90025"><ele>566.5</ele><time>2026-05-03T08:31:41.913Z</time></trkpt><trkpt lat="43.1131767" lon="10.900405"><ele>567.25</ele><time>2026-05-03T08:31:42.911Z</time></trkpt><trkpt lat="43.113135" lon="10.9005617"><ele>568.0</ele><time>2026-05-03T08:31:43.91Z</time></trkpt><trkpt lat="43.113085" lon="10.9007167"><ele>568.0</ele><time>2026-05-03T08:31:44.911Z</time></trkpt><trkpt lat="43.1130383" lon="10.9008667"><ele>568.0</ele><time>2026-05-03T08:31:45.911Z</time></trkpt><trkpt lat="43.11299" lon="10.901005"><ele>568.0</ele><time>2026-05-03T08:31:46.911Z</time></trkpt><trkpt lat="43.1129517" lon="10.9011483"><ele>568.0</ele><time>2026-05-03T08:31:47.911Z</time></trkpt><trkpt lat="43.1129233" lon="10.901295"><ele>568.4</ele><time>2026-05-03T08:31:48.91Z</time></trkpt><trkpt lat="43.1129067" lon="10.9014333"><ele>568.8</ele><time>2026-05-03T08:31:49.912Z</time></trkpt><trkpt lat="43.1129067" lon="10.9015717"><ele>569.2</ele><time>2026-05-03T08:31:50.911Z</time></trkpt><trkpt lat="43.1129217" lon="10.9017083"><ele>569.6</ele><time>2026-05-03T08:31:51.911Z</time></trkpt><trkpt lat="43.1129417" lon="10.90185"><ele>570.0</ele><time>2026-05-03T08:31:52.911Z</time></trkpt><trkpt lat="43.11297" lon="10.901985"><ele>570.4</ele><time>2026-05-03T08:31:53.914Z</time></trkpt><trkpt lat="43.1130167" lon="10.90212"><ele>570.8</ele><time>2026-05-03T08:31:54.911Z</time></trkpt><trkpt lat="43.1130783" lon="10.902235"><ele>571.2</ele><time>2026-05-03T08:31:55.912Z</time></trkpt><trkpt lat="43.1131467" lon="10.90233"><ele>571.6</ele><time>2026-05-03T08:31:56.911Z</time></trkpt><trkpt lat="43.113205" lon="10.902395"><ele>572.0</ele><time>2026-05-03T08:31:57.911Z</time></trkpt><trkpt lat="43.1132667" lon="10.9024317"><ele>573.8571428571428</ele><time>2026-05-03T08:31:58.911Z</time></trkpt><trkpt lat="43.1133317" lon="10.90244"><ele>575.7142857142857</ele><time>2026-05-03T08:31:59.912Z</time></trkpt><trkpt lat="43.1133983" lon="10.9024317"><ele>577.5714285714286</ele><time>2026-05-03T08:32:00.912Z</time></trkpt><trkpt lat="43.1134717" lon="10.9023983"><ele>579.4285714285713</ele><time>2026-05-03T08:32:01.912Z</time></trkpt><trkpt lat="43.1135417" lon="10.90236"><ele>581.2857142857142</ele><time>2026-05-03T08:32:02.911Z</time></trkpt><trkpt lat="43.1136183" lon="10.9023233"><ele>583.1428571428571</ele><time>2026-05-03T08:32:03.911Z</time></trkpt><trkpt lat="43.1136917" lon="10.9022967"><ele>585.0</ele><time>2026-05-03T08:32:04.912Z</time></trkpt><trkpt lat="43.11376" lon="10.9022767"><ele>585.0</ele><time>2026-05-03T08:32:05.911Z</time></trkpt><trkpt lat="43.1138267" lon="10.9022717"><ele>585.0</ele><time>2026-05-03T08:32:06.91Z</time></trkpt><trkpt lat="43.1138933" lon="10.9022767"><ele>585.0</ele><time>2026-05-03T08:32:07.911Z</time></trkpt><trkpt lat="43.1139533" lon="10.9023033"><ele>585.0</ele><time>2026-05-03T08:32:08.912Z</time></trkpt><trkpt lat="43.1140133" lon="10.902335"><ele>585.0</ele><time>2026-05-03T08:32:09.911Z</time></trkpt><trkpt lat="43.1140633" lon="10.9023883"><ele>585.0</ele><time>2026-05-03T08:32:10.914Z</time></trkpt><trkpt lat="43.1141017" lon="10.90246"><ele>585.0</ele><time>2026-05-03T08:32:11.916Z</time></trkpt><trkpt lat="43.1141367" lon="10.90254"><ele>587.1666666666666</ele><time>2026-05-03T08:32:12.914Z</time></trkpt><trkpt lat="43.1141633" lon="10.90263"><ele>589.3333333333334</ele><time>2026-05-03T08:32:13.914Z</time></trkpt><trkpt lat="43.1141867" lon="10.902725"><ele>591.5</ele><time>2026-05-03T08:32:14.915Z</time></trkpt><trkpt lat="43.11421" lon="10.90281"><ele>593.6666666666667</ele><time>2026-05-03T08:32:15.911Z</time></trkpt><trkpt lat="43.1142233" lon="10.9029067"><ele>595.8333333333334</ele><time>2026-05-03T08:32:16.912Z</time></trkpt><trkpt lat="43.1142117" lon="10.903025"><ele>598.0</ele><time>2026-05-03T08:32:17.914Z</time></trkpt><trkpt lat="43.114195" lon="10.903145"><ele>598.0</ele><time>2026-05-03T08:32:18.912Z</time></trkpt><trkpt lat="43.1141717" lon="10.9032683"><ele>598.0</ele><time>2026-05-03T08:32:19.914Z</time></trkpt><trkpt lat="43.1141533" lon="10.9033933"><ele>598.0</ele><time>2026-05-03T08:32:20.915Z</time></trkpt><trkpt lat="43.1141433" lon="10.9035217"><ele>598.0</ele><time>2026-05-03T08:32:21.914Z</time></trkpt><trkpt lat="43.114155" lon="10.90366"><ele>598.0</ele><time>2026-05-03T08:32:22.914Z</time></trkpt><trkpt lat="43.114185" lon="10.9037983"><ele>597.5</ele><time>2026-05-03T08:32:23.916Z</time></trkpt><trkpt lat="43.114225" lon="10.9039383"><ele>597.0</ele><time>2026-05-03T08:32:24.914Z</time></trkpt><trkpt lat="43.1142733" lon="10.9040767"><ele>596.5</ele><time>2026-05-03T08:32:25.915Z</time></trkpt><trkpt lat="43.11432" lon="10.9042217"><ele>596.0</ele><time>2026-05-03T08:32:26.912Z</time></trkpt><trkpt lat="43.1143617" lon="10.9043733"><ele>595.0</ele><time>2026-05-03T08:32:27.912Z</time></trkpt><trkpt lat="43.1144" lon="10.904525"><ele>594.0</ele><time>2026-05-03T08:32:28.912Z</time></trkpt><trkpt lat="43.114435" lon="10.9046833"><ele>593.0</ele><time>2026-05-03T08:32:29.914Z</time></trkpt><trkpt lat="43.1144767" lon="10.9048433"><ele>592.0</ele><time>2026-05-03T08:32:30.913Z</time></trkpt><trkpt lat="43.1145117" lon="10.9049883"><ele>591.4</ele><time>2026-05-03T08:32:31.912Z</time></trkpt><trkpt lat="43.11455" lon="10.90512"><ele>590.8000000000001</ele><time>2026-05-03T08:32:32.912Z</time></trkpt><trkpt lat="43.1145933" lon="10.9052483"><ele>590.2</ele><time>2026-05-03T08:32:33.914Z</time></trkpt><trkpt lat="43.11465" lon="10.905365"><ele>589.6</ele><time>2026-05-03T08:32:34.915Z</time></trkpt><trkpt lat="43.1147233" lon="10.9054717"><ele>589.0</ele><time>2026-05-03T08:32:35.914Z</time></trkpt><trkpt lat="43.1148133" lon="10.9055583"><ele>592.25</ele><time>2026-05-03T08:32:36.915Z</time></trkpt><trkpt lat="43.1149217" lon="10.9056367"><ele>595.5</ele><time>2026-05-03T08:32:37.911Z</time></trkpt><trkpt lat="43.1150317" lon="10.9057133"><ele>598.75</ele><time>2026-05-03T08:32:38.914Z</time></trkpt><trkpt lat="43.1151367" lon="10.9057917"><ele>602.0</ele><time>2026-05-03T08:32:39.911Z</time></trkpt><trkpt lat="43.1152383" lon="10.9058717"><ele>598.6</ele><time>2026-05-03T08:32:40.912Z</time></trkpt><trkpt lat="43.1153367" lon="10.9059533"><ele>595.2</ele><time>2026-05-03T08:32:41.914Z</time></trkpt><trkpt lat="43.115435" lon="10.9060233"><ele>591.8</ele><time>2026-05-03T08:32:42.912Z</time></trkpt><trkpt lat="43.1155367" lon="10.9060783"><ele>588.4</ele><time>2026-05-03T08:32:43.912Z</time></trkpt><trkpt lat="43.115635" lon="10.9061117"><ele>585.0</ele><time>2026-05-03T08:32:44.914Z</time></trkpt><trkpt lat="43.1157217" lon="10.906135"><ele>585.8</ele><time>2026-05-03T08:32:45.912Z</time></trkpt><trkpt lat="43.1158117" lon="10.906145"><ele>586.6</ele><time>2026-05-03T08:32:46.914Z</time></trkpt><trkpt lat="43.115895" lon="10.906145"><ele>587.4</ele><time>2026-05-03T08:32:47.915Z</time></trkpt><trkpt lat="43.1159833" lon="10.9061383"><ele>588.2</ele><time>2026-05-03T08:32:48.912Z</time></trkpt><trkpt lat="43.1160733" lon="10.9061233"><ele>589.0</ele><time>2026-05-03T08:32:49.912Z</time></trkpt><trkpt lat="43.11617" lon="10.9060967"><ele>589.0</ele><time>2026-05-03T08:32:50.914Z</time></trkpt><trkpt lat="43.116275" lon="10.90606"><ele>589.0</ele><time>2026-05-03T08:32:51.914Z</time></trkpt><trkpt lat="43.1163917" lon="10.9060167"><ele>589.0</ele><time>2026-05-03T08:32:52.915Z</time></trkpt><trkpt lat="43.1165133" lon="10.9059633"><ele>589.0</ele><time>2026-05-03T08:32:53.914Z</time></trkpt><trkpt lat="43.11663" lon="10.905915"><ele>591.5</ele><time>2026-05-03T08:32:54.914Z</time></trkpt><trkpt lat="43.11675" lon="10.9058733"><ele>594.0</ele><time>2026-05-03T08:32:55.914Z</time></trkpt><trkpt lat="43.1168733" lon="10.9058283"><ele>596.5</ele><time>2026-05-03T08:32:56.913Z</time></trkpt><trkpt lat="43.11699" lon="10.90578"><ele>599.0</ele><time>2026-05-03T08:32:57.911Z</time></trkpt><trkpt lat="43.117105" lon="10.9057333"><ele>599.0</ele><time>2026-05-03T08:32:58.912Z</time></trkpt><trkpt lat="43.1172267" lon="10.9056833"><ele>599.0</ele><time>2026-05-03T08:32:59.914Z</time></trkpt><trkpt lat="43.1173483" lon="10.9056283"><ele>599.0</ele><time>2026-05-03T08:33:00.91Z</time></trkpt><trkpt lat="43.1174717" lon="10.9055783"><ele>599.0</ele><time>2026-05-03T08:33:01.911Z</time></trkpt><trkpt lat="43.1175867" lon="10.9055317"><ele>596.8</ele><time>2026-05-03T08:33:02.912Z</time></trkpt><trkpt lat="43.1176933" lon="10.9054817"><ele>594.5999999999999</ele><time>2026-05-03T08:33:03.913Z</time></trkpt><trkpt lat="43.11779" lon="10.9054383"><ele>592.4</ele><time>2026-05-03T08:33:04.913Z</time></trkpt><trkpt lat="43.117885" lon="10.9053983"><ele>590.1999999999999</ele><time>2026-05-03T08:33:05.911Z</time></trkpt><trkpt lat="43.1179717" lon="10.9053683"><ele>588.0</ele><time>2026-05-03T08:33:06.914Z</time></trkpt><trkpt lat="43.1180567" lon="10.9053517"><ele>588.0</ele><time>2026-05-03T08:33:07.912Z</time></trkpt><trkpt lat="43.1181467" lon="10.9053533"><ele>588.0</ele><time>2026-05-03T08:33:08.912Z</time></trkpt><trkpt lat="43.118235" lon="10.9053717"><ele>588.0</ele><time>2026-05-03T08:33:09.913Z</time></trkpt><trkpt lat="43.1183233" lon="10.90541"><ele>588.0</ele><time>2026-05-03T08:33:10.913Z</time></trkpt><trkpt lat="43.1184083" lon="10.905475"><ele>588.0</ele><time>2026-05-03T08:33:11.914Z</time></trkpt><trkpt lat="43.1184933" lon="10.9055633"><ele>588.5</ele><time>2026-05-03T08:33:12.914Z</time></trkpt><trkpt lat="43.1185767" lon="10.90566"><ele>589.0</ele><time>2026-05-03T08:33:13.911Z</time></trkpt><trkpt lat="43.118665" lon="10.905765"><ele>589.5</ele><time>2026-05-03T08:33:14.912Z</time></trkpt><trkpt lat="43.11875" lon="10.9058733"><ele>590.0</ele><time>2026-05-03T08:33:15.912Z</time></trkpt><trkpt lat="43.1188317" lon="10.9059817"><ele>588.75</ele><time>2026-05-03T08:33:16.911Z</time></trkpt><trkpt lat="43.1189067" lon="10.906105"><ele>587.5</ele><time>2026-05-03T08:33:17.914Z</time></trkpt><trkpt lat="43.118975" lon="10.9062367"><ele>586.25</ele><time>2026-05-03T08:33:18.914Z</time></trkpt><trkpt lat="43.1190317" lon="10.9063817"><ele>585.0</ele><time>2026-05-03T08:33:19.914Z</time></trkpt><trkpt lat="43.119095" lon="10.9065267"><ele>588.5</ele><time>2026-05-03T08:33:20.914Z</time></trkpt><trkpt lat="43.11916" lon="10.9066683"><ele>592.0</ele><time>2026-05-03T08:33:21.91Z</time></trkpt><trkpt lat="43.1192317" lon="10.9068"><ele>595.5</ele><time>2026-05-03T08:33:22.914Z</time></trkpt><trkpt lat="43.1193083" lon="10.9069133"><ele>599.0</ele><time>2026-05-03T08:33:23.913Z</time></trkpt><trkpt lat="43.119395" lon="10.9070183"><ele>599.0</ele><time>2026-05-03T08:33:24.912Z</time></trkpt><trkpt lat="43.1194833" lon="10.9071217"><ele>599.0</ele><time>2026-05-03T08:33:25.914Z</time></trkpt><trkpt lat="43.1195733" lon="10.9072233"><ele>599.0</ele><time>2026-05-03T08:33:26.912Z</time></trkpt><trkpt lat="43.1196617" lon="10.9073283"><ele>599.0</ele><time>2026-05-03T08:33:27.912Z</time></trkpt><trkpt lat="43.1197483" lon="10.90743"><ele>599.0</ele><time>2026-05-03T08:33:28.913Z</time></trkpt><trkpt lat="43.1198317" lon="10.9075267"><ele>599.0</ele><time>2026-05-03T08:33:29.914Z</time></trkpt><trkpt lat="43.1199117" lon="10.9076133"><ele>599.0</ele><time>2026-05-03T08:33:30.914Z</time></trkpt><trkpt lat="43.1200017" lon="10.907695"><ele>599.0</ele><time>2026-05-03T08:33:31.913Z</time></trkpt><trkpt lat="43.1201033" lon="10.9077733"><ele>599.0</ele><time>2026-05-03T08:33:32.913Z</time></trkpt><trkpt lat="43.12021" lon="10.9078383"><ele>599.5</ele><time>2026-05-03T08:33:33.915Z</time></trkpt><trkpt lat="43.1203183" lon="10.9078933"><ele>600.0</ele><time>2026-05-03T08:33:34.914Z</time></trkpt><trkpt lat="43.12043" lon="10.9079517"><ele>600.5</ele><time>2026-05-03T08:33:35.914Z</time></trkpt><trkpt lat="43.1205383" lon="10.9080083"><ele>601.0</ele><time>2026-05-03T08:33:36.914Z</time></trkpt><trkpt lat="43.12064" lon="10.9080617"><ele>600.0</ele><time>2026-05-03T08:33:37.914Z</time></trkpt><trkpt lat="43.1207383" lon="10.9081183"><ele>599.0</ele><time>2026-05-03T08:33:38.912Z</time></trkpt><trkpt lat="43.1208333" lon="10.908175"><ele>598.0</ele><time>2026-05-03T08:33:39.913Z</time></trkpt><trkpt lat="43.12092" lon="10.9082383"><ele>597.0</ele><time>2026-05-03T08:33:40.911Z</time></trkpt><trkpt lat="43.1209983" lon="10.908315"><ele>596.0</ele><time>2026-05-03T08:33:41.914Z</time></trkpt><trkpt lat="43.121065" lon="10.9084"><ele>596.1666666666666</ele><time>2026-05-03T08:33:42.914Z</time></trkpt><trkpt lat="43.1211167" lon="10.90848"><ele>596.3333333333333</ele><time>2026-05-03T08:33:43.915Z</time></trkpt><trkpt lat="43.121155" lon="10.9085783"><ele>596.5</ele><time>2026-05-03T08:33:44.915Z</time></trkpt><trkpt lat="43.1211783" lon="10.9086883"><ele>596.6666666666666</ele><time>2026-05-03T08:33:45.914Z</time></trkpt><trkpt lat="43.12119" lon="10.9088117"><ele>596.8333333333334</ele><time>2026-05-03T08:33:46.914Z</time></trkpt><trkpt lat="43.12119" lon="10.908945"><ele>597.0</ele><time>2026-05-03T08:33:47.915Z</time></trkpt><trkpt lat="43.12119" lon="10.9090867"><ele>597.0</ele><time>2026-05-03T08:33:48.912Z</time></trkpt><trkpt lat="43.12119" lon="10.90923"><ele>597.0</ele><time>2026-05-03T08:33:49.911Z</time></trkpt><trkpt lat="43.12119" lon="10.9093867"><ele>597.0</ele><time>2026-05-03T08:33:50.913Z</time></trkpt><trkpt lat="43.1211933" lon="10.90954"><ele>597.0</ele><time>2026-05-03T08:33:51.911Z</time></trkpt><trkpt lat="43.1212033" lon="10.9097117"><ele>596.8000000000001</ele><time>2026-05-03T08:33:52.912Z</time></trkpt><trkpt lat="43.1212117" lon="10.90988"><ele>596.6</ele><time>2026-05-03T08:33:53.912Z</time></trkpt><trkpt lat="43.1212183" lon="10.910035"><ele>596.4000000000001</ele><time>2026-05-03T08:33:54.911Z</time></trkpt><trkpt lat="43.121225" lon="10.9101717"><ele>596.2</ele><time>2026-05-03T08:33:55.911Z</time></trkpt><trkpt lat="43.12122" lon="10.9103183"><ele>596.0</ele><time>2026-05-03T08:33:56.914Z</time></trkpt><trkpt lat="43.1211983" lon="10.9104717"><ele>594.75</ele><time>2026-05-03T08:33:57.911Z</time></trkpt><trkpt lat="43.1211667" lon="10.9106317"><ele>593.5</ele><time>2026-05-03T08:33:58.915Z</time></trkpt><trkpt lat="43.121125" lon="10.9107933"><ele>592.25</ele><time>2026-05-03T08:33:59.912Z</time></trkpt><trkpt lat="43.1210783" lon="10.9109467"><ele>591.0</ele><time>2026-05-03T08:34:00.911Z</time></trkpt><trkpt lat="43.1210283" lon="10.9110833"><ele>590.6</ele><time>2026-05-03T08:34:01.914Z</time></trkpt><trkpt lat="43.120975" lon="10.9112117"><ele>590.2</ele><time>2026-05-03T08:34:02.914Z</time></trkpt><trkpt lat="43.120925" lon="10.911335"><ele>589.8</ele><time>2026-05-03T08:34:03.914Z</time></trkpt><trkpt lat="43.1208817" lon="10.91145"><ele>589.4</ele><time>2026-05-03T08:34:04.915Z</time></trkpt><trkpt lat="43.120845" lon="10.9115433"><ele>589.0</ele><time>2026-05-03T08:34:05.914Z</time></trkpt><trkpt lat="43.1208067" lon="10.911625"><ele>589.0</ele><time>2026-05-03T08:34:06.915Z</time></trkpt><trkpt lat="43.1207683" lon="10.9116983"><ele>589.0</ele><time>2026-05-03T08:34:07.913Z</time></trkpt><trkpt lat="43.12069" lon="10.911815"><ele>589.0</ele><time>2026-05-03T08:34:09.912Z</time></trkpt><trkpt lat="43.1205933" lon="10.9119017"><ele>589.0</ele><time>2026-05-03T08:34:11.912Z</time></trkpt><trkpt lat="43.12048" lon="10.91197"><ele>589.0</ele><time>2026-05-03T08:34:13.91Z</time></trkpt><trkpt lat="43.1204133" lon="10.9120017"><ele>591.8</ele><time>2026-05-03T08:34:14.914Z</time></trkpt><trkpt lat="43.1203283" lon="10.91203"><ele>594.5999999999999</ele><time>2026-05-03T08:34:15.91Z</time></trkpt><trkpt lat="43.12024" lon="10.9120517"><ele>597.4</ele><time>2026-05-03T08:34:16.912Z</time></trkpt><trkpt lat="43.1201467" lon="10.9120733"><ele>600.1999999999999</ele><time>2026-05-03T08:34:17.912Z</time></trkpt><trkpt lat="43.120045" lon="10.9121017"><ele>603.0</ele><time>2026-05-03T08:34:18.91Z</time></trkpt><trkpt lat="43.1199417" lon="10.9121383"><ele>601.6</ele><time>2026-05-03T08:34:19.91Z</time></trkpt><trkpt lat="43.1198317" lon="10.9121817"><ele>600.1999999999999</ele><time>2026-05-03T08:34:20.912Z</time></trkpt><trkpt lat="43.1197283" lon="10.91223"><ele>598.8</ele><time>2026-05-03T08:34:21.911Z</time></trkpt><trkpt lat="43.1196367" lon="10.9122867"><ele>597.4</ele><time>2026-05-03T08:34:22.91Z</time></trkpt><trkpt lat="43.1195533" lon="10.9123567"><ele>596.0</ele><time>2026-05-03T08:34:23.914Z</time></trkpt><trkpt lat="43.1194833" lon="10.9124417"><ele>596.0</ele><time>2026-05-03T08:34:24.913Z</time></trkpt><trkpt lat="43.1194283" lon="10.9125267"><ele>596.0</ele><time>2026-05-03T08:34:25.915Z</time></trkpt><trkpt lat="43.1193783" lon="10.912625"><ele>596.0</ele><time>2026-05-03T08:34:26.91Z</time></trkpt><trkpt lat="43.1193333" lon="10.91274"><ele>596.0</ele><time>2026-05-03T08:34:27.912Z</time></trkpt><trkpt lat="43.1192883" lon="10.9128683"><ele>596.0</ele><time>2026-05-03T08:34:28.911Z</time></trkpt><trkpt lat="43.119245" lon="10.912995"><ele>596.0</ele><time>2026-05-03T08:34:29.911Z</time></trkpt><trkpt lat="43.1192" lon="10.9131267"><ele>596.0</ele><time>2026-05-03T08:34:30.915Z</time></trkpt><trkpt lat="43.1191567" lon="10.9132667"><ele>596.0</ele><time>2026-05-03T08:34:31.91Z</time></trkpt><trkpt lat="43.1191167" lon="10.9134033"><ele>596.0</ele><time>2026-05-03T08:34:32.911Z</time></trkpt><trkpt lat="43.11908" lon="10.91354"><ele>596.0</ele><time>2026-05-03T08:34:33.912Z</time></trkpt><trkpt lat="43.1190533" lon="10.9136817"><ele>596.0</ele><time>2026-05-03T08:34:34.913Z</time></trkpt><trkpt lat="43.1190433" lon="10.9138217"><ele>596.0</ele><time>2026-05-03T08:34:35.913Z</time></trkpt><trkpt lat="43.1190483" lon="10.9139583"><ele>596.0</ele><time>2026-05-03T08:34:36.913Z</time></trkpt><trkpt lat="43.1190583" lon="10.9140733"><ele>596.0</ele><time>2026-05-03T08:34:37.91Z</time></trkpt><trkpt lat="43.11907" lon="10.9141633"><ele>596.0</ele><time>2026-05-03T08:34:38.912Z</time></trkpt><trkpt lat="43.1190917" lon="10.91428"><ele>596.0</ele><time>2026-05-03T08:34:40.914Z</time></trkpt><trkpt lat="43.1191183" lon="10.9143917"><ele>600.4</ele><time>2026-05-03T08:34:42.911Z</time></trkpt><trkpt lat="43.11916" lon="10.9145317"><ele>604.8</ele><time>2026-05-03T08:34:44.912Z</time></trkpt><trkpt lat="43.1192017" lon="10.91466"><ele>609.1999999999999</ele><time>2026-05-03T08:34:46.916Z</time></trkpt><trkpt lat="43.1192217" lon="10.9147567"><ele>613.6</ele><time>2026-05-03T08:34:48.912Z</time></trkpt><trkpt lat="43.1192267" lon="10.914855"><ele>618.0</ele><time>2026-05-03T08:48:08.913Z</time></trkpt><trkpt lat="43.1192567" lon="10.9149933"><ele>619.1666666666666</ele><time>2026-05-03T08:48:10.915Z</time></trkpt><trkpt lat="43.119275" lon="10.9150817"><ele>620.3333333333334</ele><time>2026-05-03T08:48:11.914Z</time></trkpt><trkpt lat="43.119295" lon="10.9151767"><ele>621.5</ele><time>2026-05-03T08:48:12.914Z</time></trkpt><trkpt lat="43.119315" lon="10.91528"><ele>622.6666666666667</ele><time>2026-05-03T08:48:13.914Z</time></trkpt><trkpt lat="43.1193383" lon="10.9153933"><ele>623.8333333333334</ele><time>2026-05-03T08:48:14.912Z</time></trkpt><trkpt lat="43.1193633" lon="10.9155133"><ele>625.0</ele><time>2026-05-03T08:48:15.913Z</time></trkpt><trkpt lat="43.1193883" lon="10.9156417"><ele>625.0</ele><time>2026-05-03T08:48:16.913Z</time></trkpt><trkpt lat="43.1194183" lon="10.91577"><ele>625.0</ele><time>2026-05-03T08:48:17.914Z</time></trkpt><trkpt lat="43.11945" lon="10.9159"><ele>625.0</ele><time>2026-05-03T08:48:18.914Z</time></trkpt><trkpt lat="43.1194833" lon="10.916025"><ele>625.0</ele><time>2026-05-03T08:48:19.911Z</time></trkpt><trkpt lat="43.11952" lon="10.9161517"><ele>625.0</ele><time>2026-05-03T08:48:20.914Z</time></trkpt><trkpt lat="43.1195517" lon="10.9162667"><ele>625.5</ele><time>2026-05-03T08:48:21.915Z</time></trkpt><trkpt lat="43.1195817" lon="10.91638"><ele>626.0</ele><time>2026-05-03T08:48:22.914Z</time></trkpt><trkpt lat="43.11961" lon="10.9164833"><ele>626.5</ele><time>2026-05-03T08:48:23.911Z</time></trkpt><trkpt lat="43.1196317" lon="10.9165933"><ele>627.0</ele><time>2026-05-03T08:48:24.91Z</time></trkpt><trkpt lat="43.11967" lon="10.916695"><ele>627.5</ele><time>2026-05-03T08:48:25.911Z</time></trkpt><trkpt lat="43.11973" lon="10.9168117"><ele>628.0</ele><time>2026-05-03T08:48:26.911Z</time></trkpt><trkpt lat="43.1197783" lon="10.9169183"><ele>628.1666666666667</ele><time>2026-05-03T08:48:27.911Z</time></trkpt><trkpt lat="43.1198183" lon="10.91702"><ele>628.3333333333334</ele><time>2026-05-03T08:48:28.911Z</time></trkpt><trkpt lat="43.11986" lon="10.917125"><ele>628.5</ele><time>2026-05-03T08:48:29.911Z</time></trkpt><trkpt lat="43.1199033" lon="10.9172333"><ele>628.6666666666666</ele><time>2026-05-03T08:48:30.911Z</time></trkpt><trkpt lat="43.1199483" lon="10.9173433"><ele>628.8333333333333</ele><time>2026-05-03T08:48:31.912Z</time></trkpt><trkpt lat="43.1199917" lon="10.917455"><ele>629.0</ele><time>2026-05-03T08:48:32.914Z</time></trkpt><trkpt lat="43.1200317" lon="10.9175667"><ele>630.4</ele><time>2026-05-03T08:48:33.912Z</time></trkpt><trkpt lat="43.1200767" lon="10.9176767"><ele>631.8</ele><time>2026-05-03T08:48:34.914Z</time></trkpt><trkpt lat="43.1201367" lon="10.9178"><ele>633.2</ele><time>2026-05-03T08:48:35.916Z</time></trkpt><trkpt lat="43.1201933" lon="10.9179083"><ele>634.6</ele><time>2026-05-03T08:48:36.911Z</time></trkpt><trkpt lat="43.1202483" lon="10.9180167"><ele>636.0</ele><time>2026-05-03T08:48:37.914Z</time></trkpt><trkpt lat="43.1203067" lon="10.9181283"><ele>636.0</ele><time>2026-05-03T08:48:39.005Z</time></trkpt><trkpt lat="43.1203567" lon="10.91824"><ele>636.0</ele><time>2026-05-03T08:48:39.911Z</time></trkpt><trkpt lat="43.1204117" lon="10.9183567"><ele>636.0</ele><time>2026-05-03T08:48:40.913Z</time></trkpt><trkpt lat="43.12047" lon="10.918485"><ele>636.0</ele><time>2026-05-03T08:48:41.915Z</time></trkpt><trkpt lat="43.1205283" lon="10.91861"><ele>636.0</ele><time>2026-05-03T08:48:42.914Z</time></trkpt><trkpt lat="43.1205783" lon="10.91873"><ele>636.6</ele><time>2026-05-03T08:48:43.914Z</time></trkpt><trkpt lat="43.1206333" lon="10.9188367"><ele>637.2</ele><time>2026-05-03T08:48:44.912Z</time></trkpt><trkpt lat="43.120705" lon="10.9189383"><ele>637.8</ele><time>2026-05-03T08:48:45.914Z</time></trkpt><trkpt lat="43.1207833" lon="10.91903"><ele>638.4</ele><time>2026-05-03T08:48:46.916Z</time></trkpt><trkpt lat="43.1208783" lon="10.9190983"><ele>639.0</ele><time>2026-05-03T08:48:47.915Z</time></trkpt><trkpt lat="43.1209833" lon="10.9191467"><ele>639.0</ele><time>2026-05-03T08:48:48.914Z</time></trkpt><trkpt lat="43.121095" lon="10.9191717"><ele>639.0</ele><time>2026-05-03T08:48:49.911Z</time></trkpt><trkpt lat="43.121215" lon="10.9191933"><ele>639.0</ele><time>2026-05-03T08:48:50.912Z</time></trkpt><trkpt lat="43.121335" lon="10.9192117"><ele>639.0</ele><time>2026-05-03T08:48:51.912Z</time></trkpt><trkpt lat="43.1214667" lon="10.9192283"><ele>643.5</ele><time>2026-05-03T08:48:52.911Z</time></trkpt><trkpt lat="43.1215933" lon="10.9192417"><ele>648.0</ele><time>2026-05-03T08:48:53.912Z</time></trkpt><trkpt lat="43.1217167" lon="10.9192567"><ele>652.5</ele><time>2026-05-03T08:48:54.912Z</time></trkpt><trkpt lat="43.1218333" lon="10.9192683"><ele>657.0</ele><time>2026-05-03T08:48:55.911Z</time></trkpt><trkpt lat="43.12194" lon="10.9192833"><ele>657.0</ele><time>2026-05-03T08:48:56.914Z</time></trkpt><trkpt lat="43.1220367" lon="10.919315"><ele>657.0</ele><time>2026-05-03T08:48:57.911Z</time></trkpt><trkpt lat="43.122125" lon="10.9193583"><ele>657.0</ele><time>2026-05-03T08:48:58.911Z</time></trkpt><trkpt lat="43.1222283" lon="10.9194233"><ele>657.0</ele><time>2026-05-03T08:48:59.911Z</time></trkpt><trkpt lat="43.1223367" lon="10.919505"><ele>657.0</ele><time>2026-05-03T08:49:00.911Z</time></trkpt><trkpt lat="43.1224533" lon="10.919585"><ele>656.25</ele><time>2026-05-03T08:49:01.914Z</time></trkpt><trkpt lat="43.1225767" lon="10.9196667"><ele>655.5</ele><time>2026-05-03T08:49:02.911Z</time></trkpt><trkpt lat="43.122705" lon="10.919745"><ele>654.75</ele><time>2026-05-03T08:49:03.911Z</time></trkpt><trkpt lat="43.1228417" lon="10.919875"><ele>654.0</ele><time>2026-05-03T08:49:04.912Z</time></trkpt><trkpt lat="43.1229583" lon="10.9199817"><ele>653.5</ele><time>2026-05-03T08:49:05.913Z</time></trkpt><trkpt lat="43.1230683" lon="10.9201033"><ele>653.0</ele><time>2026-05-03T08:49:06.91Z</time></trkpt><trkpt lat="43.12318" lon="10.9202283"><ele>652.5</ele><time>2026-05-03T08:49:07.911Z</time></trkpt><trkpt lat="43.1232867" lon="10.92035"><ele>652.0</ele><time>2026-05-03T08:49:08.911Z</time></trkpt><trkpt lat="43.123385" lon="10.920475"><ele>652.0</ele><time>2026-05-03T08:49:09.914Z</time></trkpt><trkpt lat="43.1234833" lon="10.9205883"><ele>652.0</ele><time>2026-05-03T08:49:10.912Z</time></trkpt><trkpt lat="43.123565" lon="10.92069"><ele>652.0</ele><time>2026-05-03T08:49:11.911Z</time></trkpt><trkpt lat="43.1236383" lon="10.920785"><ele>652.0</ele><time>2026-05-03T08:49:12.915Z</time></trkpt><trkpt lat="43.1237017" lon="10.920865"><ele>652.0</ele><time>2026-05-03T08:49:13.911Z</time></trkpt><trkpt lat="43.1237583" lon="10.9209433"><ele>653.2</ele><time>2026-05-03T08:49:14.911Z</time></trkpt><trkpt lat="43.123815" lon="10.9210233"><ele>654.4000000000001</ele><time>2026-05-03T08:49:15.911Z</time></trkpt><trkpt lat="43.1238683" lon="10.9211133"><ele>655.5999999999999</ele><time>2026-05-03T08:49:16.911Z</time></trkpt><trkpt lat="43.1239217" lon="10.9212167"><ele>656.8</ele><time>2026-05-03T08:49:17.915Z</time></trkpt><trkpt lat="43.12398" lon="10.921335"><ele>658.0</ele><time>2026-05-03T08:49:18.914Z</time></trkpt><trkpt lat="43.12404" lon="10.92145"><ele>654.75</ele><time>2026-05-03T08:49:19.914Z</time></trkpt><trkpt lat="43.1241017" lon="10.9215767"><ele>651.5</ele><time>2026-05-03T08:49:20.911Z</time></trkpt><trkpt lat="43.12417" lon="10.9217167"><ele>648.25</ele><time>2026-05-03T08:49:21.915Z</time></trkpt><trkpt lat="43.1242367" lon="10.9218533"><ele>645.0</ele><time>2026-05-03T08:49:22.914Z</time></trkpt><trkpt lat="43.1243133" lon="10.9220033"><ele>644.0</ele><time>2026-05-03T08:49:23.912Z</time></trkpt><trkpt lat="43.1243917" lon="10.9221583"><ele>643.0</ele><time>2026-05-03T08:49:24.915Z</time></trkpt><trkpt lat="43.124465" lon="10.9223067"><ele>642.0</ele><time>2026-05-03T08:49:25.914Z</time></trkpt><trkpt lat="43.1245433" lon="10.9224367"><ele>641.0</ele><time>2026-05-03T08:49:26.913Z</time></trkpt><trkpt lat="43.124625" lon="10.92257"><ele>639.5</ele><time>2026-05-03T08:49:27.911Z</time></trkpt><trkpt lat="43.124695" lon="10.9226733"><ele>638.0</ele><time>2026-05-03T08:49:28.914Z</time></trkpt><trkpt lat="43.124745" lon="10.922745"><ele>636.5</ele><time>2026-05-03T08:49:29.912Z</time></trkpt><trkpt lat="43.1247883" lon="10.9228433"><ele>635.0</ele><time>2026-05-03T08:49:31.914Z</time></trkpt><trkpt lat="43.124725" lon="10.922935"><ele>633.5</ele><time>2026-05-03T08:49:33.913Z</time></trkpt><trkpt lat="43.124665" lon="10.9229917"><ele>632.0</ele><time>2026-05-03T08:49:34.913Z</time></trkpt><trkpt lat="43.1245617" lon="10.92306"><ele>632.0</ele><time>2026-05-03T08:49:35.914Z</time></trkpt><trkpt lat="43.12443" lon="10.9231317"><ele>632.0</ele><time>2026-05-03T08:49:36.911Z</time></trkpt><trkpt lat="43.124205" lon="10.92325"><ele>632.0</ele><time>2026-05-03T08:49:37.912Z</time></trkpt><trkpt lat="43.1240117" lon="10.92339"><ele>628.0</ele><time>2026-05-03T08:49:38.911Z</time></trkpt><trkpt lat="43.1237783" lon="10.9235667"><ele>624.0</ele><time>2026-05-03T08:49:39.911Z</time></trkpt><trkpt lat="43.1235583" lon="10.92375"><ele>624.0</ele><time>2026-05-03T08:49:40.911Z</time></trkpt><trkpt lat="43.1233733" lon="10.9239283"><ele>624.0</ele><time>2026-05-03T08:49:41.914Z</time></trkpt><trkpt lat="43.12321" lon="10.9241133"><ele>624.0</ele><time>2026-05-03T08:49:42.913Z</time></trkpt><trkpt lat="43.1230617" lon="10.9243"><ele>622.6666666666666</ele><time>2026-05-03T08:49:43.912Z</time></trkpt><trkpt lat="43.1229367" lon="10.92449"><ele>621.3333333333333</ele><time>2026-05-03T08:49:44.913Z</time></trkpt><trkpt lat="43.1228267" lon="10.924695"><ele>620.0</ele><time>2026-05-03T08:49:45.911Z</time></trkpt><trkpt lat="43.122725" lon="10.9248967"><ele>619.6666666666666</ele><time>2026-05-03T08:49:46.913Z</time></trkpt><trkpt lat="43.12262" lon="10.9250867"><ele>619.3333333333334</ele><time>2026-05-03T08:49:47.915Z</time></trkpt><trkpt lat="43.1224967" lon="10.9252567"><ele>619.0</ele><time>2026-05-03T08:49:48.91Z</time></trkpt><trkpt lat="43.1223633" lon="10.9254117"><ele>619.0</ele><time>2026-05-03T08:49:49.913Z</time></trkpt><trkpt lat="43.1222317" lon="10.925545"><ele>619.0</ele><time>2026-05-03T08:49:50.91Z</time></trkpt><trkpt lat="43.1220967" lon="10.9256817"><ele>619.0</ele><time>2026-05-03T08:49:51.91Z</time></trkpt><trkpt lat="43.1219667" lon="10.925835"><ele>614.0</ele><time>2026-05-03T08:49:52.91Z</time></trkpt><trkpt lat="43.1218667" lon="10.9260233"><ele>609.0</ele><time>2026-05-03T08:49:53.915Z</time></trkpt><trkpt lat="43.1217833" lon="10.9262383"><ele>604.0</ele><time>2026-05-03T08:49:54.914Z</time></trkpt><trkpt lat="43.1217017" lon="10.9264567"><ele>604.0</ele><time>2026-05-03T08:49:55.913Z</time></trkpt><trkpt lat="43.121615" lon="10.9266767"><ele>604.0</ele><time>2026-05-03T08:49:56.91Z</time></trkpt><trkpt lat="43.1215267" lon="10.92689"><ele>604.0</ele><time>2026-05-03T08:49:57.913Z</time></trkpt><trkpt lat="43.1214517" lon="10.9270967"><ele>601.6666666666667</ele><time>2026-05-03T08:49:58.911Z</time></trkpt><trkpt lat="43.1213983" lon="10.9273033"><ele>599.3333333333334</ele><time>2026-05-03T08:49:59.911Z</time></trkpt><trkpt lat="43.1213783" lon="10.9275133"><ele>597.0</ele><time>2026-05-03T08:50:00.911Z</time></trkpt><trkpt lat="43.1213633" lon="10.92772"><ele>597.0</ele><time>2026-05-03T08:50:01.911Z</time></trkpt><trkpt lat="43.1213217" lon="10.92791"><ele>597.0</ele><time>2026-05-03T08:50:02.91Z</time></trkpt><trkpt lat="43.121265" lon="10.9280817"><ele>597.0</ele><time>2026-05-03T08:50:03.911Z</time></trkpt><trkpt lat="43.12117" lon="10.9282217"><ele>597.0</ele><time>2026-05-03T08:50:04.911Z</time></trkpt><trkpt lat="43.1210467" lon="10.9283317"><ele>598.6666666666666</ele><time>2026-05-03T08:50:05.91Z</time></trkpt><trkpt lat="43.1208983" lon="10.9284217"><ele>600.3333333333333</ele><time>2026-05-03T08:50:06.911Z</time></trkpt><trkpt lat="43.1207417" lon="10.928505"><ele>602.0</ele><time>2026-05-03T08:50:07.912Z</time></trkpt><trkpt lat="43.1205767" lon="10.9285817"><ele>598.3333333333333</ele><time>2026-05-03T08:50:08.911Z</time></trkpt><trkpt lat="43.120425" lon="10.9286567"><ele>594.6666666666666</ele><time>2026-05-03T08:50:09.911Z</time></trkpt><trkpt lat="43.1202867" lon="10.928735"><ele>591.0</ele><time>2026-05-03T08:50:10.912Z</time></trkpt><trkpt lat="43.1201683" lon="10.9288467"><ele>591.0</ele><time>2026-05-03T08:50:11.911Z</time></trkpt><trkpt lat="43.1200767" lon="10.9289983"><ele>591.0</ele><time>2026-05-03T08:50:12.913Z</time></trkpt><trkpt lat="43.12001" lon="10.92919"><ele>591.0</ele><time>2026-05-03T08:50:13.914Z</time></trkpt><trkpt lat="43.1199567" lon="10.9293917"><ele>590.3333333333334</ele><time>2026-05-03T08:50:14.911Z</time></trkpt><trkpt lat="43.1199083" lon="10.9295917"><ele>589.6666666666667</ele><time>2026-05-03T08:50:15.913Z</time></trkpt><trkpt lat="43.11985" lon="10.9297833"><ele>589.0</ele><time>2026-05-03T08:50:16.91Z</time></trkpt><trkpt lat="43.11977" lon="10.92995"><ele>585.75</ele><time>2026-05-03T08:50:17.911Z</time></trkpt><trkpt lat="43.1196783" lon="10.93009"><ele>582.5</ele><time>2026-05-03T08:50:18.91Z</time></trkpt><trkpt lat="43.1195833" lon="10.9302133"><ele>579.25</ele><time>2026-05-03T08:50:19.913Z</time></trkpt><trkpt lat="43.1194933" lon="10.9303133"><ele>576.0</ele><time>2026-05-03T08:50:20.913Z</time></trkpt><trkpt lat="43.1194183" lon="10.9303883"><ele>576.0</ele><time>2026-05-03T08:50:21.913Z</time></trkpt><trkpt lat="43.11936" lon="10.930455"><ele>576.0</ele><time>2026-05-03T08:50:22.913Z</time></trkpt><trkpt lat="43.1193183" lon="10.930525"><ele>576.0</ele><time>2026-05-03T08:50:23.913Z</time></trkpt><trkpt lat="43.119285" lon="10.9306783"><ele>576.0</ele><time>2026-05-03T08:50:25.913Z</time></trkpt><trkpt lat="43.11932" lon="10.9308433"><ele>576.0</ele><time>2026-05-03T08:50:27.911Z</time></trkpt><trkpt lat="43.1193683" lon="10.930945"><ele>578.5</ele><time>2026-05-03T08:50:28.912Z</time></trkpt><trkpt lat="43.1194433" lon="10.9310683"><ele>581.0</ele><time>2026-05-03T08:50:29.911Z</time></trkpt><trkpt lat="43.1195383" lon="10.9312083"><ele>583.5</ele><time>2026-05-03T08:50:30.911Z</time></trkpt><trkpt lat="43.11965" lon="10.9313267"><ele>586.0</ele><time>2026-05-03T08:50:31.911Z</time></trkpt><trkpt lat="43.1197733" lon="10.9314117"><ele>587.25</ele><time>2026-05-03T08:50:32.912Z</time></trkpt><trkpt lat="43.1199067" lon="10.9314617"><ele>588.5</ele><time>2026-05-03T08:50:33.911Z</time></trkpt><trkpt lat="43.1200433" lon="10.931495"><ele>589.75</ele><time>2026-05-03T08:50:34.912Z</time></trkpt><trkpt lat="43.1201867" lon="10.9315267"><ele>591.0</ele><time>2026-05-03T08:50:35.911Z</time></trkpt><trkpt lat="43.1203333" lon="10.9315633"><ele>591.0</ele><time>2026-05-03T08:50:36.912Z</time></trkpt><trkpt lat="43.1204767" lon="10.9316183"><ele>591.0</ele><time>2026-05-03T08:50:37.911Z</time></trkpt><trkpt lat="43.1206233" lon="10.9316867"><ele>591.0</ele><time>2026-05-03T08:50:38.911Z</time></trkpt><trkpt lat="43.1207717" lon="10.9317767"><ele>592.75</ele><time>2026-05-03T08:50:39.911Z</time></trkpt><trkpt lat="43.1208983" lon="10.9318633"><ele>594.5</ele><time>2026-05-03T08:50:40.914Z</time></trkpt><trkpt lat="43.1210133" lon="10.931945"><ele>596.25</ele><time>2026-05-03T08:50:41.914Z</time></trkpt><trkpt lat="43.1211333" lon="10.932025"><ele>598.0</ele><time>2026-05-03T08:50:42.913Z</time></trkpt><trkpt lat="43.1212583" lon="10.9320983"><ele>598.0</ele><time>2026-05-03T08:50:43.914Z</time></trkpt><trkpt lat="43.1213883" lon="10.9321633"><ele>598.0</ele><time>2026-05-03T08:50:44.915Z</time></trkpt><trkpt lat="43.1215183" lon="10.932245"><ele>598.0</ele><time>2026-05-03T08:50:45.914Z</time></trkpt><trkpt lat="43.121765" lon="10.9324283"><ele>599.0</ele><time>2026-05-03T08:50:47.913Z</time></trkpt><trkpt lat="43.1218817" lon="10.9325467"><ele>600.0</ele><time>2026-05-03T08:50:48.914Z</time></trkpt><trkpt lat="43.1219783" lon="10.932695"><ele>601.0</ele><time>2026-05-03T08:50:49.914Z</time></trkpt><trkpt lat="43.1220483" lon="10.9328733"><ele>602.0</ele><time>2026-05-03T08:50:50.915Z</time></trkpt><trkpt lat="43.1220917" lon="10.933065"><ele>602.0</ele><time>2026-05-03T08:50:51.914Z</time></trkpt><trkpt lat="43.12212" lon="10.9332683"><ele>602.0</ele><time>2026-05-03T08:50:52.911Z</time></trkpt><trkpt lat="43.1221367" lon="10.9334833"><ele>602.0</ele><time>2026-05-03T08:50:53.914Z</time></trkpt><trkpt lat="43.12214" lon="10.9337083"><ele>602.3333333333333</ele><time>2026-05-03T08:50:54.913Z</time></trkpt><trkpt lat="43.1221367" lon="10.933935"><ele>602.6666666666666</ele><time>2026-05-03T08:50:55.914Z</time></trkpt><trkpt lat="43.1221217" lon="10.934155"><ele>603.0</ele><time>2026-05-03T08:50:56.911Z</time></trkpt><trkpt lat="43.1220833" lon="10.9343633"><ele>603.0</ele><time>2026-05-03T08:50:57.911Z</time></trkpt><trkpt lat="43.12202" lon="10.9345617"><ele>603.0</ele><time>2026-05-03T08:50:58.911Z</time></trkpt><trkpt lat="43.1219317" lon="10.9347483"><ele>603.0</ele><time>2026-05-03T08:50:59.911Z</time></trkpt><trkpt lat="43.121845" lon="10.93494"><ele>597.6666666666666</ele><time>2026-05-03T08:51:00.911Z</time></trkpt><trkpt lat="43.121775" lon="10.9351417"><ele>592.3333333333333</ele><time>2026-05-03T08:51:01.911Z</time></trkpt><trkpt lat="43.1217367" lon="10.93535"><ele>587.0</ele><time>2026-05-03T08:51:02.912Z</time></trkpt><trkpt lat="43.1217" lon="10.9355467"><ele>587.0</ele><time>2026-05-03T08:51:03.913Z</time></trkpt><trkpt lat="43.121635" lon="10.935725"><ele>587.0</ele><time>2026-05-03T08:51:04.911Z</time></trkpt><trkpt lat="43.121535" lon="10.9358717"><ele>587.0</ele><time>2026-05-03T08:51:05.912Z</time></trkpt><trkpt lat="43.1213883" lon="10.9359667"><ele>583.6666666666666</ele><time>2026-05-03T08:51:06.911Z</time></trkpt><trkpt lat="43.121205" lon="10.9360183"><ele>580.3333333333334</ele><time>2026-05-03T08:51:07.912Z</time></trkpt><trkpt lat="43.1210017" lon="10.93601"><ele>577.0</ele><time>2026-05-03T08:51:08.914Z</time></trkpt><trkpt lat="43.120805" lon="10.9360033"><ele>580.3333333333334</ele><time>2026-05-03T08:51:09.913Z</time></trkpt><trkpt lat="43.120615" lon="10.9359933"><ele>583.6666666666666</ele><time>2026-05-03T08:51:10.91Z</time></trkpt><trkpt lat="43.1204467" lon="10.9359867"><ele>587.0</ele><time>2026-05-03T08:51:11.912Z</time></trkpt><trkpt lat="43.1203017" lon="10.93598"><ele>587.0</ele><time>2026-05-03T08:51:12.914Z</time></trkpt><trkpt lat="43.120175" lon="10.936005"><ele>587.0</ele><time>2026-05-03T08:51:13.914Z</time></trkpt><trkpt lat="43.120065" lon="10.9360683"><ele>587.0</ele><time>2026-05-03T08:51:14.91Z</time></trkpt><trkpt lat="43.1199667" lon="10.93618"><ele>587.0</ele><time>2026-05-03T08:51:15.911Z</time></trkpt><trkpt lat="43.1198983" lon="10.9363333"><ele>594.0</ele><time>2026-05-03T08:51:16.912Z</time></trkpt><trkpt lat="43.1198617" lon="10.93655"><ele>601.0</ele><time>2026-05-03T08:51:17.911Z</time></trkpt><trkpt lat="43.11986" lon="10.936865"><ele>608.0</ele><time>2026-05-03T08:51:18.911Z</time></trkpt><trkpt lat="43.1198467" lon="10.9371783"><ele>608.0</ele><time>2026-05-03T08:51:19.914Z</time></trkpt><trkpt lat="43.1198383" lon="10.9375133"><ele>608.0</ele><time>2026-05-03T08:51:20.911Z</time></trkpt><trkpt lat="43.1198233" lon="10.9378333"><ele>605.6666666666666</ele><time>2026-05-03T08:51:21.915Z</time></trkpt><trkpt lat="43.1198083" lon="10.9381417"><ele>603.3333333333334</ele><time>2026-05-03T08:51:22.915Z</time></trkpt><trkpt lat="43.119795" lon="10.9384333"><ele>601.0</ele><time>2026-05-03T08:51:23.913Z</time></trkpt><trkpt lat="43.1197833" lon="10.9386933"><ele>595.6666666666667</ele><time>2026-05-03T08:51:24.914Z</time></trkpt><trkpt lat="43.11978" lon="10.9389317"><ele>590.3333333333334</ele><time>2026-05-03T08:51:26.001Z</time></trkpt><trkpt lat="43.1197983" lon="10.9391633"><ele>585.0</ele><time>2026-05-03T08:51:26.911Z</time></trkpt><trkpt lat="43.1198533" lon="10.9394067"><ele>579.3333333333334</ele><time>2026-05-03T08:51:27.91Z</time></trkpt><trkpt lat="43.1199367" lon="10.939655"><ele>573.6666666666667</ele><time>2026-05-03T08:51:28.911Z</time></trkpt><trkpt lat="43.1200417" lon="10.9399167"><ele>568.0</ele><time>2026-05-03T08:51:29.912Z</time></trkpt><trkpt lat="43.1201567" lon="10.9401967"><ele>565.5</ele><time>2026-05-03T08:51:30.91Z</time></trkpt><trkpt lat="43.1202817" lon="10.940495"><ele>563.0</ele><time>2026-05-03T08:51:31.912Z</time></trkpt><trkpt lat="43.1204167" lon="10.9408133"><ele>561.5</ele><time>2026-05-03T08:51:32.911Z</time></trkpt><trkpt lat="43.12056" lon="10.94114"><ele>560.0</ele><time>2026-05-03T08:51:33.914Z</time></trkpt><trkpt lat="43.1206983" lon="10.9414683"><ele>562.5</ele><time>2026-05-03T08:51:34.912Z</time></trkpt><trkpt lat="43.1208283" lon="10.9417817"><ele>565.0</ele><time>2026-05-03T08:51:35.914Z</time></trkpt><trkpt lat="43.1209483" lon="10.9420767"><ele>565.0</ele><time>2026-05-03T08:51:36.914Z</time></trkpt><trkpt lat="43.1210517" lon="10.9423667"><ele>565.0</ele><time>2026-05-03T08:51:38.006Z</time></trkpt><trkpt lat="43.121145" lon="10.942655"><ele>565.3333333333334</ele><time>2026-05-03T08:51:38.911Z</time></trkpt><trkpt lat="43.1212183" lon="10.9429433"><ele>565.6666666666666</ele><time>2026-05-03T08:51:39.914Z</time></trkpt><trkpt lat="43.1212733" lon="10.9432117"><ele>566.0</ele><time>2026-05-03T08:51:40.914Z</time></trkpt><trkpt lat="43.121305" lon="10.943445"><ele>567.3333333333333</ele><time>2026-05-03T08:51:41.913Z</time></trkpt><trkpt lat="43.1213" lon="10.94367"><ele>568.6666666666666</ele><time>2026-05-03T08:51:42.914Z</time></trkpt><trkpt lat="43.12126" lon="10.943905"><ele>570.0</ele><time>2026-05-03T08:51:43.914Z</time></trkpt><trkpt lat="43.1212133" lon="10.94414"><ele>570.0</ele><time>2026-05-03T08:51:44.915Z</time></trkpt><trkpt lat="43.1211817" lon="10.944365"><ele>570.0</ele><time>2026-05-03T08:51:45.913Z</time></trkpt><trkpt lat="43.1211933" lon="10.9446017"><ele>570.0</ele><time>2026-05-03T08:51:46.914Z</time></trkpt><trkpt lat="43.1212483" lon="10.944855"><ele>570.3333333333334</ele><time>2026-05-03T08:51:47.915Z</time></trkpt><trkpt lat="43.1213267" lon="10.9451183"><ele>570.6666666666667</ele><time>2026-05-03T08:51:48.914Z</time></trkpt><trkpt lat="43.1214133" lon="10.94538"><ele>571.0</ele><time>2026-05-03T08:51:49.913Z</time></trkpt><trkpt lat="43.1214917" lon="10.9456283"><ele>571.0</ele><time>2026-05-03T08:51:50.915Z</time></trkpt><trkpt lat="43.1215467" lon="10.9458733"><ele>571.0</ele><time>2026-05-03T08:51:51.915Z</time></trkpt><trkpt lat="43.12157" lon="10.9461333"><ele>571.0</ele><time>2026-05-03T08:51:52.914Z</time></trkpt><trkpt lat="43.1215567" lon="10.9464017"><ele>572.6666666666667</ele><time>2026-05-03T08:51:53.913Z</time></trkpt><trkpt lat="43.1215233" lon="10.9466733"><ele>574.3333333333334</ele><time>2026-05-03T08:51:54.913Z</time></trkpt><trkpt lat="43.1214967" lon="10.9469517"><ele>576.0</ele><time>2026-05-03T08:51:55.914Z</time></trkpt><trkpt lat="43.1214917" lon="10.9472367"><ele>576.3333333333334</ele><time>2026-05-03T08:51:56.911Z</time></trkpt><trkpt lat="43.1215267" lon="10.9475233"><ele>576.6666666666667</ele><time>2026-05-03T08:51:57.911Z</time></trkpt><trkpt lat="43.1215733" lon="10.947785"><ele>577.0</ele><time>2026-05-03T08:51:58.911Z</time></trkpt><trkpt lat="43.1215983" lon="10.948045"><ele>579.3333333333334</ele><time>2026-05-03T08:51:59.914Z</time></trkpt><trkpt lat="43.1215917" lon="10.9483167"><ele>581.6666666666666</ele><time>2026-05-03T08:52:00.911Z</time></trkpt><trkpt lat="43.1215483" lon="10.9486"><ele>584.0</ele><time>2026-05-03T08:52:01.915Z</time></trkpt><trkpt lat="43.12148" lon="10.9489"><ele>584.0</ele><time>2026-05-03T08:52:02.913Z</time></trkpt><trkpt lat="43.121405" lon="10.949205"><ele>584.0</ele><time>2026-05-03T08:52:03.915Z</time></trkpt><trkpt lat="43.1213317" lon="10.9495133"><ele>587.5</ele><time>2026-05-03T08:52:04.914Z</time></trkpt><trkpt lat="43.121255" lon="10.949825"><ele>591.0</ele><time>2026-05-03T08:52:05.914Z</time></trkpt><trkpt lat="43.12116" lon="10.950125"><ele>593.5</ele><time>2026-05-03T08:52:06.911Z</time></trkpt><trkpt lat="43.1210467" lon="10.95043"><ele>596.0</ele><time>2026-05-03T08:52:07.912Z</time></trkpt><trkpt lat="43.1209267" lon="10.9507167"><ele>596.5</ele><time>2026-05-03T08:52:08.914Z</time></trkpt><trkpt lat="43.120815" lon="10.9509933"><ele>597.0</ele><time>2026-05-03T08:52:09.915Z</time></trkpt><trkpt lat="43.1207133" lon="10.95127"><ele>597.6666666666666</ele><time>2026-05-03T08:52:10.914Z</time></trkpt><trkpt lat="43.1206333" lon="10.9515433"><ele>598.3333333333333</ele><time>2026-05-03T08:52:11.914Z</time></trkpt><trkpt lat="43.1205683" lon="10.9518033"><ele>599.0</ele><time>2026-05-03T08:52:12.914Z</time></trkpt><trkpt lat="43.1205117" lon="10.95204"><ele>599.0</ele><time>2026-05-03T08:52:13.914Z</time></trkpt><trkpt lat="43.1204533" lon="10.9522583"><ele>599.0</ele><time>2026-05-03T08:52:14.914Z</time></trkpt><trkpt lat="43.120385" lon="10.9524417"><ele>599.0</ele><time>2026-05-03T08:52:15.914Z</time></trkpt><trkpt lat="43.1203117" lon="10.9526033"><ele>596.75</ele><time>2026-05-03T08:52:16.912Z</time></trkpt><trkpt lat="43.1202233" lon="10.9527333"><ele>594.5</ele><time>2026-05-03T08:52:17.915Z</time></trkpt><trkpt lat="43.1201" lon="10.9528"><ele>592.25</ele><time>2026-05-03T08:52:18.914Z</time></trkpt><trkpt lat="43.1199333" lon="10.952815"><ele>590.0</ele><time>2026-05-03T08:52:19.914Z</time></trkpt><trkpt lat="43.1197533" lon="10.95281"><ele>590.0</ele><time>2026-05-03T08:52:20.914Z</time></trkpt><trkpt lat="43.1195467" lon="10.95279"><ele>590.0</ele><time>2026-05-03T08:52:21.915Z</time></trkpt><trkpt lat="43.1193383" lon="10.9527583"><ele>590.0</ele><time>2026-05-03T08:52:22.914Z</time></trkpt><trkpt lat="43.1191383" lon="10.9527317"><ele>592.6666666666666</ele><time>2026-05-03T08:52:23.915Z</time></trkpt><trkpt lat="43.1189533" lon="10.9527167"><ele>595.3333333333334</ele><time>2026-05-03T08:52:24.915Z</time></trkpt><trkpt lat="43.11879" lon="10.9527483"><ele>598.0</ele><time>2026-05-03T08:52:25.914Z</time></trkpt><trkpt lat="43.118645" lon="10.95283"><ele>598.0</ele><time>2026-05-03T08:52:26.914Z</time></trkpt><trkpt lat="43.1185217" lon="10.9529833"><ele>598.0</ele><time>2026-05-03T08:52:27.914Z</time></trkpt><trkpt lat="43.1184083" lon="10.9531933"><ele>598.0</ele><time>2026-05-03T08:52:28.914Z</time></trkpt><trkpt lat="43.1183117" lon="10.9534517"><ele>600.5</ele><time>2026-05-03T08:52:29.915Z</time></trkpt><trkpt lat="43.11821" lon="10.9537383"><ele>603.0</ele><time>2026-05-03T08:52:30.914Z</time></trkpt><trkpt lat="43.1181183" lon="10.9540317"><ele>601.0</ele><time>2026-05-03T08:52:31.914Z</time></trkpt><trkpt lat="43.1180433" lon="10.9543467"><ele>599.0</ele><time>2026-05-03T08:52:32.914Z</time></trkpt><trkpt lat="43.1179883" lon="10.9546733"><ele>599.0</ele><time>2026-05-03T08:52:33.914Z</time></trkpt><trkpt lat="43.1179433" lon="10.9550033"><ele>599.0</ele><time>2026-05-03T08:52:34.914Z</time></trkpt><trkpt lat="43.1179" lon="10.9553317"><ele>597.0</ele><time>2026-05-03T08:52:35.914Z</time></trkpt><trkpt lat="43.1178583" lon="10.9556567"><ele>595.0</ele><time>2026-05-03T08:52:36.914Z</time></trkpt><trkpt lat="43.1178217" lon="10.9559767"><ele>594.0</ele><time>2026-05-03T08:52:37.914Z</time></trkpt><trkpt lat="43.1177783" lon="10.956295"><ele>593.0</ele><time>2026-05-03T08:52:38.914Z</time></trkpt><trkpt lat="43.117735" lon="10.9566117"><ele>595.0</ele><time>2026-05-03T08:52:39.914Z</time></trkpt><trkpt lat="43.1176917" lon="10.956935"><ele>597.0</ele><time>2026-05-03T08:52:40.914Z</time></trkpt><trkpt lat="43.1176483" lon="10.9572533"><ele>596.5</ele><time>2026-05-03T08:52:41.915Z</time></trkpt><trkpt lat="43.1176017" lon="10.95757"><ele>596.0</ele><time>2026-05-03T08:52:42.914Z</time></trkpt><trkpt lat="43.1175583" lon="10.9578883"><ele>596.0</ele><time>2026-05-03T08:52:43.914Z</time></trkpt><trkpt lat="43.117515" lon="10.9582"><ele>596.0</ele><time>2026-05-03T08:52:44.914Z</time></trkpt><trkpt lat="43.11747" lon="10.9585167"><ele>594.5</ele><time>2026-05-03T08:52:45.914Z</time></trkpt><trkpt lat="43.1174283" lon="10.95883"><ele>593.0</ele><time>2026-05-03T08:52:46.915Z</time></trkpt><trkpt lat="43.1173733" lon="10.95912"><ele>593.0</ele><time>2026-05-03T08:52:47.915Z</time></trkpt><trkpt lat="43.1172933" lon="10.9593833"><ele>593.0</ele><time>2026-05-03T08:52:48.914Z</time></trkpt><trkpt lat="43.1172" lon="10.95962"><ele>593.0</ele><time>2026-05-03T08:52:49.914Z</time></trkpt><trkpt lat="43.1170833" lon="10.9598283"><ele>593.0</ele><time>2026-05-03T08:52:50.914Z</time></trkpt><trkpt lat="43.116955" lon="10.960015"><ele>593.0</ele><time>2026-05-03T08:52:51.914Z</time></trkpt><trkpt lat="43.1168233" lon="10.9601767"><ele>593.0</ele><time>2026-05-03T08:52:52.915Z</time></trkpt><trkpt lat="43.1166867" lon="10.960325"><ele>592.6666666666666</ele><time>2026-05-03T08:52:53.916Z</time></trkpt><trkpt lat="43.11656" lon="10.96047"><ele>592.3333333333334</ele><time>2026-05-03T08:52:54.914Z</time></trkpt><trkpt lat="43.116455" lon="10.9606167"><ele>592.0</ele><time>2026-05-03T08:52:55.914Z</time></trkpt><trkpt lat="43.1163717" lon="10.96079"><ele>595.0</ele><time>2026-05-03T08:52:56.915Z</time></trkpt><trkpt lat="43.1163" lon="10.961015"><ele>598.0</ele><time>2026-05-03T08:52:57.914Z</time></trkpt><trkpt lat="43.1162233" lon="10.9612683"><ele>601.0</ele><time>2026-05-03T08:52:58.914Z</time></trkpt><trkpt lat="43.1161417" lon="10.9615467"><ele>604.0</ele><time>2026-05-03T08:52:59.914Z</time></trkpt><trkpt lat="43.1160433" lon="10.96184"><ele>607.0</ele><time>2026-05-03T08:53:00.916Z</time></trkpt><trkpt lat="43.1159183" lon="10.9621333"><ele>607.0</ele><time>2026-05-03T08:53:01.914Z</time></trkpt><trkpt lat="43.1157617" lon="10.9624133"><ele>607.0</ele><time>2026-05-03T08:53:02.916Z</time></trkpt><trkpt lat="43.1155933" lon="10.9626783"><ele>606.0</ele><time>2026-05-03T08:53:03.914Z</time></trkpt><trkpt lat="43.115435" lon="10.9629267"><ele>605.0</ele><time>2026-05-03T08:53:04.914Z</time></trkpt><trkpt lat="43.115305" lon="10.9631583"><ele>606.0</ele><time>2026-05-03T08:53:05.914Z</time></trkpt><trkpt lat="43.1152" lon="10.9633983"><ele>607.0</ele><time>2026-05-03T08:53:06.914Z</time></trkpt><trkpt lat="43.1151283" lon="10.9636617"><ele>608.0</ele><time>2026-05-03T08:53:07.915Z</time></trkpt><trkpt lat="43.1151083" lon="10.9639567"><ele>607.6666666666666</ele><time>2026-05-03T08:53:08.914Z</time></trkpt><trkpt lat="43.1151333" lon="10.9642617"><ele>607.3333333333334</ele><time>2026-05-03T08:53:09.916Z</time></trkpt><trkpt lat="43.1151783" lon="10.9645433"><ele>607.0</ele><time>2026-05-03T08:53:10.914Z</time></trkpt><trkpt lat="43.1152233" lon="10.9648117"><ele>606.0</ele><time>2026-05-03T08:53:11.91Z</time></trkpt><trkpt lat="43.1152733" lon="10.9650717"><ele>605.0</ele><time>2026-05-03T08:53:12.914Z</time></trkpt><trkpt lat="43.1153317" lon="10.9653167"><ele>604.0</ele><time>2026-05-03T08:53:13.913Z</time></trkpt><trkpt lat="43.115405" lon="10.9655567"><ele>604.0</ele><time>2026-05-03T08:53:14.913Z</time></trkpt><trkpt lat="43.1154867" lon="10.9657833"><ele>604.0</ele><time>2026-05-03T08:53:15.91Z</time></trkpt><trkpt lat="43.11557" lon="10.9659983"><ele>604.0</ele><time>2026-05-03T08:53:16.914Z</time></trkpt><trkpt lat="43.1156433" lon="10.9662067"><ele>604.6666666666667</ele><time>2026-05-03T08:53:17.913Z</time></trkpt><trkpt lat="43.1157133" lon="10.9664083"><ele>605.3333333333334</ele><time>2026-05-03T08:53:18.913Z</time></trkpt><trkpt lat="43.1157817" lon="10.9665967"><ele>606.0</ele><time>2026-05-03T08:53:19.914Z</time></trkpt><trkpt lat="43.1158467" lon="10.966775"><ele>609.5</ele><time>2026-05-03T08:53:20.913Z</time></trkpt><trkpt lat="43.1159117" lon="10.9669433"><ele>613.0</ele><time>2026-05-03T08:53:21.913Z</time></trkpt><trkpt lat="43.1159783" lon="10.967105"><ele>616.5</ele><time>2026-05-03T08:53:22.913Z</time></trkpt><trkpt lat="43.11605" lon="10.967245"><ele>620.0</ele><time>2026-05-03T08:53:23.913Z</time></trkpt><trkpt lat="43.1161333" lon="10.9673683"><ele>620.0</ele><time>2026-05-03T08:53:24.911Z</time></trkpt><trkpt lat="43.1162167" lon="10.9674633"><ele>620.0</ele><time>2026-05-03T08:53:25.913Z</time></trkpt><trkpt lat="43.1162967" lon="10.9675383"><ele>620.0</ele><time>2026-05-03T08:53:26.913Z</time></trkpt><trkpt lat="43.1163683" lon="10.9676"><ele>620.0</ele><time>2026-05-03T08:53:27.913Z</time></trkpt><trkpt lat="43.116425" lon="10.9676483"><ele>620.0</ele><time>2026-05-03T08:53:28.913Z</time></trkpt><trkpt lat="43.1164667" lon="10.96774"><ele>620.0</ele><time>2026-05-03T08:53:30.914Z</time></trkpt><trkpt lat="43.11639" lon="10.967785"><ele>621.3333333333333</ele><time>2026-05-03T08:53:33.913Z</time></trkpt><trkpt lat="43.1163233" lon="10.967755"><ele>622.6666666666666</ele><time>2026-05-03T08:53:35.914Z</time></trkpt><trkpt lat="43.1162367" lon="10.9677183"><ele>624.0</ele><time>2026-05-03T08:53:38.913Z</time></trkpt><trkpt lat="43.1161567" lon="10.9676933"><ele>625.3333333333334</ele><time>2026-05-03T08:53:58.913Z</time></trkpt><trkpt lat="43.11615" lon="10.96782"><ele>626.6666666666667</ele><time>2026-05-03T08:54:09.914Z</time></trkpt><trkpt lat="43.1160833" lon="10.967945"><ele>628.0</ele><time>2026-05-03T08:54:11.913Z</time></trkpt><trkpt lat="43.116045" lon="10.968045"><ele>628.0</ele><time>2026-05-03T08:54:12.913Z</time></trkpt><trkpt lat="43.1160117" lon="10.9681583"><ele>628.0</ele><time>2026-05-03T08:54:13.914Z</time></trkpt><trkpt lat="43.1159917" lon="10.9682933"><ele>628.0</ele><time>2026-05-03T08:54:14.913Z</time></trkpt><trkpt lat="43.1159867" lon="10.968435"><ele>628.0</ele><time>2026-05-03T08:54:15.914Z</time></trkpt><trkpt lat="43.11599" lon="10.9685733"><ele>628.0</ele><time>2026-05-03T08:54:16.914Z</time></trkpt><trkpt lat="43.1160017" lon="10.96872"><ele>631.0</ele><time>2026-05-03T08:54:17.913Z</time></trkpt><trkpt lat="43.1160133" lon="10.968865"><ele>634.0</ele><time>2026-05-03T08:54:18.914Z</time></trkpt><trkpt lat="43.1160167" lon="10.9690033"><ele>637.0</ele><time>2026-05-03T08:54:19.911Z</time></trkpt><trkpt lat="43.1160033" lon="10.9691383"><ele>640.0</ele><time>2026-05-03T08:54:20.913Z</time></trkpt><trkpt lat="43.1159683" lon="10.96927"><ele>643.0</ele><time>2026-05-03T08:54:21.913Z</time></trkpt><trkpt lat="43.1159283" lon="10.9694067"><ele>645.0</ele><time>2026-05-03T08:54:22.914Z</time></trkpt><trkpt lat="43.115895" lon="10.9695483"><ele>647.0</ele><time>2026-05-03T08:54:23.914Z</time></trkpt><trkpt lat="43.1158583" lon="10.969675"><ele>649.0</ele><time>2026-05-03T08:54:24.914Z</time></trkpt><trkpt lat="43.1158167" lon="10.9698"><ele>651.0</ele><time>2026-05-03T08:54:25.913Z</time></trkpt><trkpt lat="43.11578" lon="10.9699283"><ele>653.0</ele><time>2026-05-03T08:54:26.913Z</time></trkpt><trkpt lat="43.115735" lon="10.9700583"><ele>653.4</ele><time>2026-05-03T08:54:27.913Z</time></trkpt><trkpt lat="43.11569" lon="10.9701833"><ele>653.8</ele><time>2026-05-03T08:54:28.913Z</time></trkpt><trkpt lat="43.115645" lon="10.9703117"><ele>654.2</ele><time>2026-05-03T08:54:29.914Z</time></trkpt><trkpt lat="43.1155967" lon="10.9704367"><ele>654.6</ele><time>2026-05-03T08:54:30.914Z</time></trkpt><trkpt lat="43.11555" lon="10.9705783"><ele>655.0</ele><time>2026-05-03T08:54:31.911Z</time></trkpt><trkpt lat="43.1155133" lon="10.97071"><ele>655.0</ele><time>2026-05-03T08:54:32.913Z</time></trkpt><trkpt lat="43.1154767" lon="10.97082"><ele>655.0</ele><time>2026-05-03T08:54:33.913Z</time></trkpt><trkpt lat="43.115455" lon="10.9709233"><ele>655.0</ele><time>2026-05-03T08:54:34.915Z</time></trkpt><trkpt lat="43.11545" lon="10.9710233"><ele>655.0</ele><time>2026-05-03T08:54:35.913Z</time></trkpt><trkpt lat="43.11546" lon="10.9711183"><ele>655.0</ele><time>2026-05-03T08:54:36.91Z</time></trkpt><trkpt lat="43.1154783" lon="10.97121"><ele>655.0</ele><time>2026-05-03T08:54:37.914Z</time></trkpt><trkpt lat="43.1155017" lon="10.971305"><ele>657.5</ele><time>2026-05-03T08:54:38.91Z</time></trkpt><trkpt lat="43.11552" lon="10.971395"><ele>660.0</ele><time>2026-05-03T08:54:39.917Z</time></trkpt><trkpt lat="43.11554" lon="10.9714933"><ele>662.5</ele><time>2026-05-03T08:54:40.914Z</time></trkpt><trkpt lat="43.115555" lon="10.9716"><ele>665.0</ele><time>2026-05-03T08:54:41.913Z</time></trkpt><trkpt lat="43.1155533" lon="10.97171"><ele>667.5</ele><time>2026-05-03T08:54:42.914Z</time></trkpt><trkpt lat="43.1155517" lon="10.9718183"><ele>670.0</ele><time>2026-05-03T08:54:43.912Z</time></trkpt><trkpt lat="43.1155333" lon="10.971925"><ele>670.8333333333334</ele><time>2026-05-03T08:54:44.912Z</time></trkpt><trkpt lat="43.1155117" lon="10.97203"><ele>671.6666666666667</ele><time>2026-05-03T08:54:45.914Z</time></trkpt><trkpt lat="43.115485" lon="10.9721317"><ele>672.5</ele><time>2026-05-03T08:54:46.91Z</time></trkpt><trkpt lat="43.1154633" lon="10.9722467"><ele>673.3333333333334</ele><time>2026-05-03T08:54:47.911Z</time></trkpt><trkpt lat="43.1154433" lon="10.9723733"><ele>674.1666666666666</ele><time>2026-05-03T08:54:48.91Z</time></trkpt><trkpt lat="43.1154233" lon="10.9725067"><ele>675.0</ele><time>2026-05-03T08:54:49.914Z</time></trkpt><trkpt lat="43.1154" lon="10.972635"><ele>677.0</ele><time>2026-05-03T08:54:50.913Z</time></trkpt><trkpt lat="43.1153717" lon="10.9727667"><ele>679.0</ele><time>2026-05-03T08:54:51.911Z</time></trkpt><trkpt lat="43.11533" lon="10.9728967"><ele>681.0</ele><time>2026-05-03T08:54:52.913Z</time></trkpt><trkpt lat="43.1152783" lon="10.9730083"><ele>683.0</ele><time>2026-05-03T08:54:53.914Z</time></trkpt><trkpt lat="43.1152167" lon="10.9731067"><ele>685.0</ele><time>2026-05-03T08:54:54.915Z</time></trkpt><trkpt lat="43.1151483" lon="10.973195"><ele>685.0</ele><time>2026-05-03T08:54:55.914Z</time></trkpt><trkpt lat="43.11507" lon="10.9732917"><ele>685.0</ele><time>2026-05-03T08:54:56.913Z</time></trkpt><trkpt lat="43.1149933" lon="10.97339"><ele>685.0</ele><time>2026-05-03T08:54:57.914Z</time></trkpt><trkpt lat="43.1149367" lon="10.9734933"><ele>685.0</ele><time>2026-05-03T08:54:58.914Z</time></trkpt><trkpt lat="43.1149067" lon="10.9735967"><ele>685.0</ele><time>2026-05-03T08:54:59.913Z</time></trkpt><trkpt lat="43.1149017" lon="10.9737017"><ele>686.0</ele><time>2026-05-03T08:55:00.911Z</time></trkpt><trkpt lat="43.1149167" lon="10.9738"><ele>687.0</ele><time>2026-05-03T08:55:01.913Z</time></trkpt><trkpt lat="43.1149583" lon="10.9739033"><ele>688.0</ele><time>2026-05-03T08:55:02.914Z</time></trkpt><trkpt lat="43.1150267" lon="10.9739883"><ele>689.0</ele><time>2026-05-03T08:55:03.913Z</time></trkpt><trkpt lat="43.1151133" lon="10.9740633"><ele>690.0</ele><time>2026-05-03T08:55:04.913Z</time></trkpt><trkpt lat="43.1152067" lon="10.9741333"><ele>691.4</ele><time>2026-05-03T08:55:05.913Z</time></trkpt><trkpt lat="43.1153017" lon="10.9742167"><ele>692.8</ele><time>2026-05-03T08:55:06.914Z</time></trkpt><trkpt lat="43.11539" lon="10.9743167"><ele>694.2</ele><time>2026-05-03T08:55:07.91Z</time></trkpt><trkpt lat="43.1154683" lon="10.9744117"><ele>695.6</ele><time>2026-05-03T08:55:08.911Z</time></trkpt><trkpt lat="43.1155367" lon="10.974505"><ele>697.0</ele><time>2026-05-03T08:55:09.91Z</time></trkpt><trkpt lat="43.1156" lon="10.9746017"><ele>697.0</ele><time>2026-05-03T08:55:10.91Z</time></trkpt><trkpt lat="43.115645" lon="10.974705"><ele>697.0</ele><time>2026-05-03T08:55:11.911Z</time></trkpt><trkpt lat="43.1156683" lon="10.97481"><ele>697.0</ele><time>2026-05-03T08:55:12.911Z</time></trkpt><trkpt lat="43.1156717" lon="10.9749183"><ele>697.0</ele><time>2026-05-03T08:55:13.91Z</time></trkpt><trkpt lat="43.115655" lon="10.9750383"><ele>697.0</ele><time>2026-05-03T08:55:14.91Z</time></trkpt><trkpt lat="43.1156283" lon="10.97516"><ele>697.0</ele><time>2026-05-03T08:55:15.91Z</time></trkpt><trkpt lat="43.115595" lon="10.9752883"><ele>698.0</ele><time>2026-05-03T08:55:16.912Z</time></trkpt><trkpt lat="43.11556" lon="10.9754233"><ele>699.0</ele><time>2026-05-03T08:55:17.911Z</time></trkpt><trkpt lat="43.1155167" lon="10.9755567"><ele>700.0</ele><time>2026-05-03T08:55:18.912Z</time></trkpt><trkpt lat="43.1154783" lon="10.9757017"><ele>701.0</ele><time>2026-05-03T08:55:19.911Z</time></trkpt><trkpt lat="43.1154367" lon="10.9758433"><ele>702.0</ele><time>2026-05-03T08:55:20.911Z</time></trkpt><trkpt lat="43.1153917" lon="10.9759917"><ele>702.75</ele><time>2026-05-03T08:55:21.91Z</time></trkpt><trkpt lat="43.115345" lon="10.97614"><ele>703.5</ele><time>2026-05-03T08:55:22.912Z</time></trkpt><trkpt lat="43.115295" lon="10.9762867"><ele>704.25</ele><time>2026-05-03T08:55:23.911Z</time></trkpt><trkpt lat="43.115245" lon="10.9764433"><ele>705.0</ele><time>2026-05-03T08:55:24.915Z</time></trkpt><trkpt lat="43.1151967" lon="10.97659"><ele>705.8</ele><time>2026-05-03T08:55:25.913Z</time></trkpt><trkpt lat="43.115155" lon="10.9767333"><ele>706.6</ele><time>2026-05-03T08:55:26.913Z</time></trkpt><trkpt lat="43.1151183" lon="10.976865"><ele>707.4000000000001</ele><time>2026-05-03T08:55:27.913Z</time></trkpt><trkpt lat="43.1150817" lon="10.976995"><ele>708.2</ele><time>2026-05-03T08:55:28.914Z</time></trkpt><trkpt lat="43.1150417" lon="10.9771183"><ele>709.0</ele><time>2026-05-03T08:55:29.915Z</time></trkpt><trkpt lat="43.115005" lon="10.977235"><ele>709.0</ele><time>2026-05-03T08:55:30.915Z</time></trkpt><trkpt lat="43.1149667" lon="10.97735"><ele>709.0</ele><time>2026-05-03T08:55:31.91Z</time></trkpt><trkpt lat="43.1149267" lon="10.9774533"><ele>709.0</ele><time>2026-05-03T08:55:32.915Z</time></trkpt><trkpt lat="43.11488" lon="10.9775433"><ele>709.0</ele><time>2026-05-03T08:55:33.913Z</time></trkpt><trkpt lat="43.11482" lon="10.9776167"><ele>709.0</ele><time>2026-05-03T08:55:34.913Z</time></trkpt><trkpt lat="43.11476" lon="10.9776667"><ele>709.0</ele><time>2026-05-03T08:55:35.911Z</time></trkpt><trkpt lat="43.1146383" lon="10.9776783"><ele>709.0</ele><time>2026-05-03T08:55:37.911Z</time></trkpt><trkpt lat="43.11456" lon="10.9776317"><ele>709.0</ele><time>2026-05-03T08:55:38.914Z</time></trkpt><trkpt lat="43.1144867" lon="10.977545"><ele>709.0</ele><time>2026-05-03T08:55:39.91Z</time></trkpt><trkpt lat="43.1144317" lon="10.97743"><ele>709.0</ele><time>2026-05-03T08:55:40.915Z</time></trkpt><trkpt lat="43.114375" lon="10.97733"><ele>709.0</ele><time>2026-05-03T08:55:41.914Z</time></trkpt><trkpt lat="43.114315" lon="10.9772483"><ele>707.6666666666667</ele><time>2026-05-03T08:55:42.914Z</time></trkpt><trkpt lat="43.1142583" lon="10.9771783"><ele>706.3333333333334</ele><time>2026-05-03T08:55:43.91Z</time></trkpt><trkpt lat="43.1141917" lon="10.97712"><ele>705.0</ele><time>2026-05-03T08:55:44.913Z</time></trkpt><trkpt lat="43.1141233" lon="10.977085"><ele>703.6666666666666</ele><time>2026-05-03T08:55:45.913Z</time></trkpt><trkpt lat="43.11405" lon="10.9770783"><ele>702.3333333333333</ele><time>2026-05-03T08:55:46.913Z</time></trkpt><trkpt lat="43.1139717" lon="10.977105"><ele>701.0</ele><time>2026-05-03T08:55:47.913Z</time></trkpt><trkpt lat="43.1138867" lon="10.97719"><ele>699.25</ele><time>2026-05-03T08:55:48.914Z</time></trkpt><trkpt lat="43.1138017" lon="10.9772883"><ele>697.5</ele><time>2026-05-03T08:55:49.913Z</time></trkpt><trkpt lat="43.113725" lon="10.9774183"><ele>695.75</ele><time>2026-05-03T08:55:50.914Z</time></trkpt><trkpt lat="43.113655" lon="10.97754"><ele>694.0</ele><time>2026-05-03T08:55:51.914Z</time></trkpt><trkpt lat="43.1135867" lon="10.977655"><ele>693.8333333333334</ele><time>2026-05-03T08:55:52.911Z</time></trkpt><trkpt lat="43.1135183" lon="10.97775"><ele>693.6666666666667</ele><time>2026-05-03T08:55:53.915Z</time></trkpt><trkpt lat="43.11345" lon="10.9778167"><ele>693.5</ele><time>2026-05-03T08:55:54.911Z</time></trkpt><trkpt lat="43.11338" lon="10.9778583"><ele>693.3333333333334</ele><time>2026-05-03T08:55:55.911Z</time></trkpt><trkpt lat="43.11331" lon="10.97788"><ele>693.1666666666666</ele><time>2026-05-03T08:55:56.912Z</time></trkpt><trkpt lat="43.1132217" lon="10.977875"><ele>693.0</ele><time>2026-05-03T08:55:57.911Z</time></trkpt><trkpt lat="43.1131217" lon="10.9778517"><ele>696.0</ele><time>2026-05-03T08:55:58.912Z</time></trkpt><trkpt lat="43.1130217" lon="10.9778233"><ele>699.0</ele><time>2026-05-03T08:55:59.911Z</time></trkpt><trkpt lat="43.1129117" lon="10.9777883"><ele>702.0</ele><time>2026-05-03T08:56:00.911Z</time></trkpt><trkpt lat="43.1127933" lon="10.9777567"><ele>705.0</ele><time>2026-05-03T08:56:01.911Z</time></trkpt><trkpt lat="43.1126717" lon="10.9777267"><ele>705.0</ele><time>2026-05-03T08:56:02.912Z</time></trkpt><trkpt lat="43.1125567" lon="10.9776883"><ele>705.0</ele><time>2026-05-03T08:56:03.915Z</time></trkpt><trkpt lat="43.1124383" lon="10.9776517"><ele>705.0</ele><time>2026-05-03T08:56:04.913Z</time></trkpt><trkpt lat="43.112315" lon="10.9776167"><ele>705.0</ele><time>2026-05-03T08:56:05.911Z</time></trkpt><trkpt lat="43.11219" lon="10.9775883"><ele>707.5</ele><time>2026-05-03T08:56:06.91Z</time></trkpt><trkpt lat="43.1120617" lon="10.9775583"><ele>710.0</ele><time>2026-05-03T08:56:07.91Z</time></trkpt><trkpt lat="43.1119383" lon="10.97754"><ele>712.5</ele><time>2026-05-03T08:56:08.912Z</time></trkpt><trkpt lat="43.1118117" lon="10.97755"><ele>715.0</ele><time>2026-05-03T08:56:09.914Z</time></trkpt><trkpt lat="43.111685" lon="10.9775833"><ele>719.0</ele><time>2026-05-03T08:56:10.914Z</time></trkpt><trkpt lat="43.1115583" lon="10.9776283"><ele>723.0</ele><time>2026-05-03T08:56:11.912Z</time></trkpt><trkpt lat="43.1114317" lon="10.9776733"><ele>727.0</ele><time>2026-05-03T08:56:12.913Z</time></trkpt><trkpt lat="43.1113217" lon="10.9777083"><ele>731.0</ele><time>2026-05-03T08:56:13.91Z</time></trkpt><trkpt lat="43.1112" lon="10.977745"><ele>731.0</ele><time>2026-05-03T08:56:14.914Z</time></trkpt><trkpt lat="43.11108" lon="10.9777583"><ele>731.0</ele><time>2026-05-03T08:56:15.912Z</time></trkpt><trkpt lat="43.11096" lon="10.9777633"><ele>731.0</ele><time>2026-05-03T08:56:16.914Z</time></trkpt><trkpt lat="43.1108417" lon="10.9777567"><ele>731.0</ele><time>2026-05-03T08:56:17.913Z</time></trkpt><trkpt lat="43.11073" lon="10.97773"><ele>734.5</ele><time>2026-05-03T08:56:18.911Z</time></trkpt><trkpt lat="43.1106167" lon="10.9776783"><ele>738.0</ele><time>2026-05-03T08:56:19.913Z</time></trkpt><trkpt lat="43.1105033" lon="10.9776117"><ele>741.5</ele><time>2026-05-03T08:56:20.914Z</time></trkpt><trkpt lat="43.110385" lon="10.97753"><ele>745.0</ele><time>2026-05-03T08:56:21.912Z</time></trkpt><trkpt lat="43.11027" lon="10.97744"><ele>745.0</ele><time>2026-05-03T08:56:22.913Z</time></trkpt><trkpt lat="43.110165" lon="10.9773483"><ele>745.0</ele><time>2026-05-03T08:56:23.912Z</time></trkpt><trkpt lat="43.110065" lon="10.9772483"><ele>745.0</ele><time>2026-05-03T08:56:24.911Z</time></trkpt><trkpt lat="43.1099567" lon="10.9771467"><ele>745.0</ele><time>2026-05-03T08:56:25.912Z</time></trkpt><trkpt lat="43.1098467" lon="10.9770483"><ele>745.75</ele><time>2026-05-03T08:56:26.917Z</time></trkpt><trkpt lat="43.10974" lon="10.97694"><ele>746.5</ele><time>2026-05-03T08:56:27.911Z</time></trkpt><trkpt lat="43.1096367" lon="10.9768233"><ele>747.25</ele><time>2026-05-03T08:56:28.914Z</time></trkpt><trkpt lat="43.1095333" lon="10.9767033"><ele>748.0</ele><time>2026-05-03T08:56:29.913Z</time></trkpt><trkpt lat="43.1094283" lon="10.9765867"><ele>748.0</ele><time>2026-05-03T08:56:30.912Z</time></trkpt><trkpt lat="43.1091383" lon="10.9764"><ele>748.0</ele><time>2026-05-03T08:56:32.569Z</time></trkpt><trkpt lat="43.1090833" lon="10.9762117"><ele>750.4</ele><time>2026-05-03T08:56:33.91Z</time></trkpt><trkpt lat="43.109" lon="10.9761283"><ele>752.8</ele><time>2026-05-03T08:56:34.911Z</time></trkpt><trkpt lat="43.1089217" lon="10.97605"><ele>755.2</ele><time>2026-05-03T08:56:35.91Z</time></trkpt><trkpt lat="43.10885" lon="10.9759817"><ele>757.6</ele><time>2026-05-03T08:56:36.91Z</time></trkpt><trkpt lat="43.1087683" lon="10.9759033"><ele>760.0</ele><time>2026-05-03T08:56:37.91Z</time></trkpt><trkpt lat="43.1086817" lon="10.9758183"><ele>760.0</ele><time>2026-05-03T08:56:38.911Z</time></trkpt><trkpt lat="43.1085917" lon="10.97573"><ele>760.0</ele><time>2026-05-03T08:56:39.911Z</time></trkpt><trkpt lat="43.1085067" lon="10.9756283"><ele>760.0</ele><time>2026-05-03T08:56:40.91Z</time></trkpt><trkpt lat="43.1084333" lon="10.975525"><ele>760.0</ele><time>2026-05-03T08:56:41.91Z</time></trkpt><trkpt lat="43.1083667" lon="10.9754283"><ele>760.0</ele><time>2026-05-03T08:56:42.911Z</time></trkpt><trkpt lat="43.1083117" lon="10.975335"><ele>760.0</ele><time>2026-05-03T08:56:43.913Z</time></trkpt><trkpt lat="43.1082533" lon="10.97525"><ele>760.0</ele><time>2026-05-03T08:56:44.911Z</time></trkpt><trkpt lat="43.1081917" lon="10.9751883"><ele>760.0</ele><time>2026-05-03T08:56:45.912Z</time></trkpt><trkpt lat="43.1081317" lon="10.97515"><ele>760.0</ele><time>2026-05-03T08:56:46.911Z</time></trkpt><trkpt lat="43.1080683" lon="10.9751367"><ele>760.0</ele><time>2026-05-03T08:56:47.911Z</time></trkpt><trkpt lat="43.107995" lon="10.9751417"><ele>760.0</ele><time>2026-05-03T08:56:48.911Z</time></trkpt><trkpt lat="43.107925" lon="10.97514"><ele>760.0</ele><time>2026-05-03T08:56:49.911Z</time></trkpt><trkpt lat="43.1078533" lon="10.9751417"><ele>757.8</ele><time>2026-05-03T08:56:50.912Z</time></trkpt><trkpt lat="43.1077717" lon="10.97513"><ele>755.6</ele><time>2026-05-03T08:56:51.911Z</time></trkpt><trkpt lat="43.107685" lon="10.9750917"><ele>753.4000000000001</ele><time>2026-05-03T08:56:52.912Z</time></trkpt><trkpt lat="43.1076" lon="10.9750417"><ele>751.2</ele><time>2026-05-03T08:56:53.911Z</time></trkpt><trkpt lat="43.1075183" lon="10.97492"><ele>749.0</ele><time>2026-05-03T08:56:54.91Z</time></trkpt><trkpt lat="43.1074467" lon="10.9747967"><ele>750.25</ele><time>2026-05-03T08:56:55.91Z</time></trkpt><trkpt lat="43.10736" lon="10.974665"><ele>751.5</ele><time>2026-05-03T08:56:56.912Z</time></trkpt><trkpt lat="43.1073033" lon="10.9745333"><ele>752.75</ele><time>2026-05-03T08:56:57.912Z</time></trkpt><trkpt lat="43.1072667" lon="10.9744017"><ele>754.0</ele><time>2026-05-03T08:56:58.912Z</time></trkpt><trkpt lat="43.107245" lon="10.9742567"><ele>751.6</ele><time>2026-05-03T08:56:59.911Z</time></trkpt><trkpt lat="43.1072283" lon="10.9741133"><ele>749.2</ele><time>2026-05-03T08:57:00.912Z</time></trkpt><trkpt lat="43.1072217" lon="10.9739733"><ele>746.8000000000001</ele><time>2026-05-03T08:57:01.913Z</time></trkpt><trkpt lat="43.107215" lon="10.9738433"><ele>744.4000000000001</ele><time>2026-05-03T08:57:02.913Z</time></trkpt><trkpt lat="43.1072017" lon="10.9737233"><ele>742.0</ele><time>2026-05-03T08:57:03.911Z</time></trkpt><trkpt lat="43.1071883" lon="10.973615"><ele>742.0</ele><time>2026-05-03T08:57:04.911Z</time></trkpt><trkpt lat="43.1071533" lon="10.9735217"><ele>742.0</ele><time>2026-05-03T08:57:05.912Z</time></trkpt><trkpt lat="43.1071083" lon="10.9734417"><ele>742.0</ele><time>2026-05-03T08:57:06.911Z</time></trkpt><trkpt lat="43.10705" lon="10.97337"><ele>742.0</ele><time>2026-05-03T08:57:07.912Z</time></trkpt><trkpt lat="43.10699" lon="10.97331"><ele>742.0</ele><time>2026-05-03T08:57:08.912Z</time></trkpt><trkpt lat="43.1069283" lon="10.9732683"><ele>742.0</ele><time>2026-05-03T08:57:09.911Z</time></trkpt><trkpt lat="43.1068433" lon="10.9732417"><ele>741.5</ele><time>2026-05-03T08:57:10.911Z</time></trkpt><trkpt lat="43.106745" lon="10.9732133"><ele>741.0</ele><time>2026-05-03T08:57:11.913Z</time></trkpt><trkpt lat="43.1066333" lon="10.9731917"><ele>740.5</ele><time>2026-05-03T08:57:12.911Z</time></trkpt><trkpt lat="43.1065117" lon="10.9731717"><ele>740.0</ele><time>2026-05-03T08:57:13.911Z</time></trkpt><trkpt lat="43.1063933" lon="10.9731383"><ele>740.0</ele><time>2026-05-03T08:57:14.911Z</time></trkpt><trkpt lat="43.1062667" lon="10.9730983"><ele>740.0</ele><time>2026-05-03T08:57:15.91Z</time></trkpt><trkpt lat="43.10614" lon="10.973065"><ele>740.0</ele><time>2026-05-03T08:57:16.91Z</time></trkpt><trkpt lat="43.1059783" lon="10.9730433"><ele>740.0</ele><time>2026-05-03T08:57:17.911Z</time></trkpt><trkpt lat="43.1058567" lon="10.9729833"><ele>742.75</ele><time>2026-05-03T08:57:18.91Z</time></trkpt><trkpt lat="43.1057317" lon="10.9729083"><ele>745.5</ele><time>2026-05-03T08:57:19.912Z</time></trkpt><trkpt lat="43.10562" lon="10.972825"><ele>748.25</ele><time>2026-05-03T08:57:20.91Z</time></trkpt><trkpt lat="43.10551" lon="10.972735"><ele>751.0</ele><time>2026-05-03T08:57:21.912Z</time></trkpt><trkpt lat="43.105405" lon="10.9726367"><ele>751.0</ele><time>2026-05-03T08:57:22.91Z</time></trkpt><trkpt lat="43.1052933" lon="10.9725383"><ele>751.0</ele><time>2026-05-03T08:57:23.91Z</time></trkpt><trkpt lat="43.1051917" lon="10.9724333"><ele>751.0</ele><time>2026-05-03T08:57:24.911Z</time></trkpt><trkpt lat="43.1050967" lon="10.9723333"><ele>751.0</ele><time>2026-05-03T08:57:25.911Z</time></trkpt><trkpt lat="43.105" lon="10.9722317"><ele>748.5999999999999</ele><time>2026-05-03T08:57:26.91Z</time></trkpt><trkpt lat="43.1049033" lon="10.9721317"><ele>746.2</ele><time>2026-05-03T08:57:27.91Z</time></trkpt><trkpt lat="43.10481" lon="10.972035"><ele>743.8</ele><time>2026-05-03T08:57:28.91Z</time></trkpt><trkpt lat="43.1047283" lon="10.971955"><ele>741.4000000000001</ele><time>2026-05-03T08:57:29.91Z</time></trkpt><trkpt lat="43.1046533" lon="10.9718983"><ele>739.0</ele><time>2026-05-03T08:57:30.91Z</time></trkpt><trkpt lat="43.1045733" lon="10.9718617"><ele>739.0</ele><time>2026-05-03T08:57:31.91Z</time></trkpt><trkpt lat="43.1044933" lon="10.971845"><ele>739.0</ele><time>2026-05-03T08:57:32.91Z</time></trkpt><trkpt lat="43.1044133" lon="10.9718483"><ele>739.0</ele><time>2026-05-03T08:57:33.911Z</time></trkpt><trkpt lat="43.1043183" lon="10.971875"><ele>739.0</ele><time>2026-05-03T08:57:34.91Z</time></trkpt><trkpt lat="43.104235" lon="10.971905"><ele>739.0</ele><time>2026-05-03T08:57:35.91Z</time></trkpt><trkpt lat="43.1041417" lon="10.97198"><ele>741.75</ele><time>2026-05-03T08:57:36.91Z</time></trkpt><trkpt lat="43.1040317" lon="10.9720567"><ele>744.5</ele><time>2026-05-03T08:57:37.912Z</time></trkpt><trkpt lat="43.103925" lon="10.9721483"><ele>747.25</ele><time>2026-05-03T08:57:38.911Z</time></trkpt><trkpt lat="43.10381" lon="10.9722217"><ele>750.0</ele><time>2026-05-03T08:57:39.913Z</time></trkpt><trkpt lat="43.103695" lon="10.9722933"><ele>750.0</ele><time>2026-05-03T08:57:40.912Z</time></trkpt><trkpt lat="43.10357" lon="10.97237"><ele>750.0</ele><time>2026-05-03T08:57:41.911Z</time></trkpt><trkpt lat="43.103445" lon="10.9724433"><ele>750.0</ele><time>2026-05-03T08:57:42.91Z</time></trkpt><trkpt lat="43.1033233" lon="10.972515"><ele>750.0</ele><time>2026-05-03T08:57:43.911Z</time></trkpt><trkpt lat="43.1031967" lon="10.9725833"><ele>752.75</ele><time>2026-05-03T08:57:44.91Z</time></trkpt><trkpt lat="43.103075" lon="10.97265"><ele>755.5</ele><time>2026-05-03T08:57:45.91Z</time></trkpt><trkpt lat="43.1029483" lon="10.9727183"><ele>758.25</ele><time>2026-05-03T08:57:46.91Z</time></trkpt><trkpt lat="43.10282" lon="10.9727933"><ele>761.0</ele><time>2026-05-03T08:57:47.911Z</time></trkpt><trkpt lat="43.1026867" lon="10.97287"><ele>761.0</ele><time>2026-05-03T08:57:48.912Z</time></trkpt><trkpt lat="43.1025567" lon="10.972945"><ele>761.0</ele><time>2026-05-03T08:57:49.911Z</time></trkpt><trkpt lat="43.102425" lon="10.9730183"><ele>761.0</ele><time>2026-05-03T08:57:50.91Z</time></trkpt><trkpt lat="43.1022983" lon="10.9730867"><ele>761.0</ele><time>2026-05-03T08:57:51.911Z</time></trkpt><trkpt lat="43.1021733" lon="10.9731633"><ele>764.75</ele><time>2026-05-03T08:57:52.912Z</time></trkpt><trkpt lat="43.10205" lon="10.97324"><ele>768.5</ele><time>2026-05-03T08:57:53.911Z</time></trkpt><trkpt lat="43.101935" lon="10.973325"><ele>772.25</ele><time>2026-05-03T08:57:54.91Z</time></trkpt><trkpt lat="43.1018233" lon="10.973425"><ele>776.0</ele><time>2026-05-03T08:57:55.911Z</time></trkpt><trkpt lat="43.10172" lon="10.9735217"><ele>777.1999999999999</ele><time>2026-05-03T08:57:56.912Z</time></trkpt><trkpt lat="43.1016383" lon="10.973625"><ele>778.4</ele><time>2026-05-03T08:57:57.911Z</time></trkpt><trkpt lat="43.1015667" lon="10.97374"><ele>779.6</ele><time>2026-05-03T08:57:58.91Z</time></trkpt><trkpt lat="43.1015167" lon="10.97387"><ele>780.8</ele><time>2026-05-03T08:57:59.911Z</time></trkpt><trkpt lat="43.101475" lon="10.9740217"><ele>782.0</ele><time>2026-05-03T08:58:00.909Z</time></trkpt><trkpt lat="43.10145" lon="10.974185"><ele>784.6</ele><time>2026-05-03T08:58:01.911Z</time></trkpt><trkpt lat="43.1014283" lon="10.974335"><ele>787.2</ele><time>2026-05-03T08:58:02.913Z</time></trkpt><trkpt lat="43.10141" lon="10.97447"><ele>789.8</ele><time>2026-05-03T08:58:03.91Z</time></trkpt><trkpt lat="43.1013767" lon="10.9745967"><ele>792.4</ele><time>2026-05-03T08:58:04.913Z</time></trkpt><trkpt lat="43.101325" lon="10.97472"><ele>795.0</ele><time>2026-05-03T08:58:05.91Z</time></trkpt><trkpt lat="43.101255" lon="10.9748517"><ele>795.0</ele><time>2026-05-03T08:58:06.911Z</time></trkpt><trkpt lat="43.1011833" lon="10.9749933"><ele>795.0</ele><time>2026-05-03T08:58:07.912Z</time></trkpt><trkpt lat="43.1011067" lon="10.9751483"><ele>795.0</ele><time>2026-05-03T08:58:08.912Z</time></trkpt><trkpt lat="43.101025" lon="10.9753083"><ele>795.0</ele><time>2026-05-03T08:58:09.91Z</time></trkpt><trkpt lat="43.1009383" lon="10.9754833"><ele>793.6666666666667</ele><time>2026-05-03T08:58:10.912Z</time></trkpt><trkpt lat="43.10085" lon="10.975665"><ele>792.3333333333334</ele><time>2026-05-03T08:58:11.912Z</time></trkpt><trkpt lat="43.1007633" lon="10.9758467"><ele>791.0</ele><time>2026-05-03T08:58:12.91Z</time></trkpt><trkpt lat="43.1006783" lon="10.976025"><ele>794.0</ele><time>2026-05-03T08:58:13.913Z</time></trkpt><trkpt lat="43.10059" lon="10.97621"><ele>797.0</ele><time>2026-05-03T08:58:14.91Z</time></trkpt><trkpt lat="43.1004967" lon="10.9764067"><ele>800.0</ele><time>2026-05-03T08:58:15.91Z</time></trkpt><trkpt lat="43.1003933" lon="10.97661"><ele>800.0</ele><time>2026-05-03T08:58:16.91Z</time></trkpt><trkpt lat="43.10029" lon="10.976805"><ele>800.0</ele><time>2026-05-03T08:58:17.911Z</time></trkpt><trkpt lat="43.1001967" lon="10.976985"><ele>800.0</ele><time>2026-05-03T08:58:18.91Z</time></trkpt><trkpt lat="43.1001083" lon="10.9771483"><ele>800.0</ele><time>2026-05-03T08:58:19.911Z</time></trkpt><trkpt lat="43.1000333" lon="10.97729"><ele>800.0</ele><time>2026-05-03T08:58:20.912Z</time></trkpt><trkpt lat="43.0999583" lon="10.977415"><ele>800.0</ele><time>2026-05-03T08:58:21.91Z</time></trkpt><trkpt lat="43.09989" lon="10.9775233"><ele>800.0</ele><time>2026-05-03T08:58:22.912Z</time></trkpt><trkpt lat="43.0998217" lon="10.9776183"><ele>800.0</ele><time>2026-05-03T08:58:23.911Z</time></trkpt><trkpt lat="43.0997383" lon="10.9776817"><ele>802.1666666666667</ele><time>2026-05-03T08:58:24.912Z</time></trkpt><trkpt lat="43.0996517" lon="10.9777133"><ele>804.3333333333334</ele><time>2026-05-03T08:58:25.911Z</time></trkpt><trkpt lat="43.0995717" lon="10.9777217"><ele>806.5</ele><time>2026-05-03T08:58:26.913Z</time></trkpt><trkpt lat="43.0994867" lon="10.977705"><ele>808.6666666666667</ele><time>2026-05-03T08:58:27.913Z</time></trkpt><trkpt lat="43.099405" lon="10.97768"><ele>810.8333333333334</ele><time>2026-05-03T08:58:28.914Z</time></trkpt><trkpt lat="43.0993283" lon="10.9776267"><ele>813.0</ele><time>2026-05-03T08:58:29.913Z</time></trkpt><trkpt lat="43.0992517" lon="10.9775533"><ele>812.0</ele><time>2026-05-03T08:58:30.911Z</time></trkpt><trkpt lat="43.0991683" lon="10.9774467"><ele>811.0</ele><time>2026-05-03T08:58:31.911Z</time></trkpt><trkpt lat="43.09908" lon="10.97733"><ele>810.0</ele><time>2026-05-03T08:58:32.911Z</time></trkpt><trkpt lat="43.0989883" lon="10.9771883"><ele>809.0</ele><time>2026-05-03T08:58:33.912Z</time></trkpt><trkpt lat="43.0988967" lon="10.977045"><ele>810.75</ele><time>2026-05-03T08:58:34.911Z</time></trkpt><trkpt lat="43.0988" lon="10.97691"><ele>812.5</ele><time>2026-05-03T08:58:35.913Z</time></trkpt><trkpt lat="43.09871" lon="10.9767917"><ele>814.25</ele><time>2026-05-03T08:58:36.913Z</time></trkpt><trkpt lat="43.0986433" lon="10.97667"><ele>816.0</ele><time>2026-05-03T08:58:37.913Z</time></trkpt><trkpt lat="43.0986033" lon="10.9765617"><ele>816.0</ele><time>2026-05-03T08:58:38.912Z</time></trkpt><trkpt lat="43.0985883" lon="10.9764617"><ele>816.0</ele><time>2026-05-03T08:58:39.911Z</time></trkpt><trkpt lat="43.098525" lon="10.97636"><ele>816.0</ele><time>2026-05-03T08:58:41.912Z</time></trkpt><trkpt lat="43.0984567" lon="10.9764217"><ele>816.0</ele><time>2026-05-03T08:58:44.914Z</time></trkpt><trkpt lat="43.0984217" lon="10.9765833"><ele>816.0</ele><time>2026-05-03T08:58:46.912Z</time></trkpt><trkpt lat="43.0984217" lon="10.9766783"><ele>816.0</ele><time>2026-05-03T08:58:47.913Z</time></trkpt><trkpt lat="43.098435" lon="10.976775"><ele>818.5</ele><time>2026-05-03T08:58:48.914Z</time></trkpt><trkpt lat="43.0984467" lon="10.9768733"><ele>821.0</ele><time>2026-05-03T08:58:49.911Z</time></trkpt><trkpt lat="43.0984683" lon="10.976985"><ele>823.5</ele><time>2026-05-03T08:58:50.911Z</time></trkpt><trkpt lat="43.0984867" lon="10.9770917"><ele>826.0</ele><time>2026-05-03T08:58:51.911Z</time></trkpt><trkpt lat="43.09851" lon="10.977195"><ele>828.5</ele><time>2026-05-03T08:58:52.912Z</time></trkpt><trkpt lat="43.09853" lon="10.977295"><ele>831.0</ele><time>2026-05-03T08:58:53.912Z</time></trkpt><trkpt lat="43.098555" lon="10.9773933"><ele>831.0</ele><time>2026-05-03T08:58:54.912Z</time></trkpt><trkpt lat="43.098585" lon="10.977505"><ele>831.0</ele><time>2026-05-03T08:58:55.913Z</time></trkpt><trkpt lat="43.0986083" lon="10.9776233"><ele>831.0</ele><time>2026-05-03T08:58:56.911Z</time></trkpt><trkpt lat="43.09862" lon="10.97774"><ele>831.0</ele><time>2026-05-03T08:58:57.912Z</time></trkpt><trkpt lat="43.0986267" lon="10.9778433"><ele>831.0</ele><time>2026-05-03T08:58:58.913Z</time></trkpt><trkpt lat="43.0986267" lon="10.977935"><ele>831.0</ele><time>2026-05-03T08:58:59.912Z</time></trkpt><trkpt lat="43.0986217" lon="10.9780267"><ele>830.8333333333334</ele><time>2026-05-03T08:59:00.911Z</time></trkpt><trkpt lat="43.0985967" lon="10.9781167"><ele>830.6666666666667</ele><time>2026-05-03T08:59:01.915Z</time></trkpt><trkpt lat="43.0985717" lon="10.9782033"><ele>830.5</ele><time>2026-05-03T08:59:02.913Z</time></trkpt><trkpt lat="43.0985383" lon="10.9782883"><ele>830.3333333333334</ele><time>2026-05-03T08:59:03.911Z</time></trkpt><trkpt lat="43.098495" lon="10.9783667"><ele>830.1666666666667</ele><time>2026-05-03T08:59:04.912Z</time></trkpt><trkpt lat="43.0984217" lon="10.9785033"><ele>830.0</ele><time>2026-05-03T08:59:06.911Z</time></trkpt><trkpt lat="43.0983717" lon="10.9786633"><ele>830.0000000000001</ele><time>2026-05-03T08:59:08.912Z</time></trkpt><trkpt lat="43.0983467" lon="10.978755"><ele>830.0</ele><time>2026-05-03T08:59:09.913Z</time></trkpt><trkpt lat="43.0983233" lon="10.9788583"><ele>830.0</ele><time>2026-05-03T08:59:10.916Z</time></trkpt><trkpt lat="43.0983133" lon="10.9789717"><ele>830.0</ele><time>2026-05-03T08:59:11.912Z</time></trkpt><trkpt lat="43.0983167" lon="10.9790967"><ele>830.0000000000001</ele><time>2026-05-03T08:59:12.911Z</time></trkpt><trkpt lat="43.0983283" lon="10.9792183"><ele>830.0</ele><time>2026-05-03T08:59:13.912Z</time></trkpt><trkpt lat="43.0983467" lon="10.97932"><ele>828.2</ele><time>2026-05-03T08:59:14.911Z</time></trkpt><trkpt lat="43.0983817" lon="10.9794783"><ele>826.4</ele><time>2026-05-03T08:59:16.912Z</time></trkpt><trkpt lat="43.0983933" lon="10.9796067"><ele>824.5999999999999</ele><time>2026-05-03T08:59:18.911Z</time></trkpt><trkpt lat="43.0984033" lon="10.979735"><ele>822.8</ele><time>2026-05-03T08:59:20.912Z</time></trkpt><trkpt lat="43.0983833" lon="10.9798433"><ele>821.0</ele><time>2026-05-03T08:59:22.913Z</time></trkpt><trkpt lat="43.0983783" lon="10.9799633"><ele>818.6666666666667</ele><time>2026-05-03T08:59:24.914Z</time></trkpt><trkpt lat="43.0984033" lon="10.98009"><ele>816.3333333333334</ele><time>2026-05-03T08:59:26.913Z</time></trkpt><trkpt lat="43.0984467" lon="10.9801667"><ele>814.0</ele><time>2026-05-03T08:59:27.912Z</time></trkpt><trkpt lat="43.098495" lon="10.9802467"><ele>811.6666666666667</ele><time>2026-05-03T08:59:28.913Z</time></trkpt><trkpt lat="43.0985367" lon="10.9803367"><ele>809.3333333333334</ele><time>2026-05-03T08:59:29.913Z</time></trkpt><trkpt lat="43.0985717" lon="10.9804367"><ele>807.0</ele><time>2026-05-03T08:59:30.911Z</time></trkpt><trkpt lat="43.0985967" lon="10.9805383"><ele>807.0</ele><time>2026-05-03T08:59:31.913Z</time></trkpt><trkpt lat="43.0986233" lon="10.9806417"><ele>807.0</ele><time>2026-05-03T08:59:32.911Z</time></trkpt><trkpt lat="43.0986517" lon="10.9807467"><ele>807.0</ele><time>2026-05-03T08:59:33.911Z</time></trkpt><trkpt lat="43.09868" lon="10.9808533"><ele>807.0</ele><time>2026-05-03T08:59:34.912Z</time></trkpt><trkpt lat="43.098705" lon="10.9809717"><ele>807.0</ele><time>2026-05-03T08:59:35.913Z</time></trkpt><trkpt lat="43.0987167" lon="10.9810883"><ele>807.0</ele><time>2026-05-03T08:59:36.913Z</time></trkpt><trkpt lat="43.0987233" lon="10.9812017"><ele>806.2857142857143</ele><time>2026-05-03T08:59:37.912Z</time></trkpt><trkpt lat="43.0987233" lon="10.9813067"><ele>805.5714285714286</ele><time>2026-05-03T08:59:38.913Z</time></trkpt><trkpt lat="43.0987117" lon="10.9814117"><ele>804.8571428571429</ele><time>2026-05-03T08:59:39.912Z</time></trkpt><trkpt lat="43.0986967" lon="10.9815"><ele>804.1428571428571</ele><time>2026-05-03T08:59:40.911Z</time></trkpt><trkpt lat="43.0986533" lon="10.9815717"><ele>803.4285714285714</ele><time>2026-05-03T08:59:41.912Z</time></trkpt><trkpt lat="43.0986017" lon="10.9816267"><ele>802.7142857142858</ele><time>2026-05-03T08:59:42.912Z</time></trkpt><trkpt lat="43.09854" lon="10.9816633"><ele>802.0</ele><time>2026-05-03T08:59:43.912Z</time></trkpt><trkpt lat="43.098465" lon="10.9816883"><ele>801.9999999999999</ele><time>2026-05-03T08:59:44.912Z</time></trkpt><trkpt lat="43.0983983" lon="10.9816867"><ele>802.0</ele><time>2026-05-03T08:59:45.911Z</time></trkpt><trkpt lat="43.0983133" lon="10.9816617"><ele>802.0</ele><time>2026-05-03T08:59:46.914Z</time></trkpt><trkpt lat="43.0982233" lon="10.9816417"><ele>802.0</ele><time>2026-05-03T08:59:47.913Z</time></trkpt><trkpt lat="43.0981517" lon="10.9816433"><ele>801.9999999999999</ele><time>2026-05-03T08:59:48.912Z</time></trkpt><trkpt lat="43.098085" lon="10.9816683"><ele>802.0</ele><time>2026-05-03T08:59:49.913Z</time></trkpt><trkpt lat="43.0980117" lon="10.9817117"><ele>800.4999999999999</ele><time>2026-05-03T08:59:50.914Z</time></trkpt><trkpt lat="43.0979333" lon="10.9817683"><ele>799.0</ele><time>2026-05-03T08:59:51.914Z</time></trkpt><trkpt lat="43.097855" lon="10.9818167"><ele>797.5</ele><time>2026-05-03T08:59:52.911Z</time></trkpt><trkpt lat="43.0977733" lon="10.9818583"><ele>796.0</ele><time>2026-05-03T08:59:53.913Z</time></trkpt><trkpt lat="43.0977033" lon="10.981915"><ele>794.4999999999999</ele><time>2026-05-03T08:59:54.913Z</time></trkpt><trkpt lat="43.097645" lon="10.9819967"><ele>793.0</ele><time>2026-05-03T08:59:55.91Z</time></trkpt><trkpt lat="43.0975917" lon="10.982095"><ele>793.0</ele><time>2026-05-03T08:59:56.914Z</time></trkpt><trkpt lat="43.0975517" lon="10.982225"><ele>793.0</ele><time>2026-05-03T08:59:57.91Z</time></trkpt><trkpt lat="43.097525" lon="10.982375"><ele>793.0</ele><time>2026-05-03T08:59:58.914Z</time></trkpt><trkpt lat="43.0975167" lon="10.982535"><ele>793.0</ele><time>2026-05-03T08:59:59.913Z</time></trkpt><trkpt lat="43.0975017" lon="10.9826817"><ele>793.0</ele><time>2026-05-03T09:00:00.913Z</time></trkpt><trkpt lat="43.0974783" lon="10.9827917"><ele>792.4999999999999</ele><time>2026-05-03T09:00:01.91Z</time></trkpt><trkpt lat="43.0974467" lon="10.9828783"><ele>792.0</ele><time>2026-05-03T09:00:02.914Z</time></trkpt><trkpt lat="43.0974117" lon="10.982955"><ele>791.5</ele><time>2026-05-03T09:00:03.914Z</time></trkpt><trkpt lat="43.0973633" lon="10.983035"><ele>791.0</ele><time>2026-05-03T09:00:04.914Z</time></trkpt><trkpt lat="43.0973117" lon="10.9831117"><ele>790.4999999999999</ele><time>2026-05-03T09:00:05.911Z</time></trkpt><trkpt lat="43.0972533" lon="10.9831967"><ele>790.0</ele><time>2026-05-03T09:00:06.915Z</time></trkpt><trkpt lat="43.0971983" lon="10.9832983"><ele>789.0</ele><time>2026-05-03T09:00:07.912Z</time></trkpt><trkpt lat="43.0971617" lon="10.98341"><ele>788.0</ele><time>2026-05-03T09:00:08.912Z</time></trkpt><trkpt lat="43.097145" lon="10.9835383"><ele>787.0</ele><time>2026-05-03T09:00:09.912Z</time></trkpt><trkpt lat="43.0971633" lon="10.98368"><ele>786.0</ele><time>2026-05-03T09:00:10.915Z</time></trkpt><trkpt lat="43.0971983" lon="10.983815"><ele>785.0</ele><time>2026-05-03T09:00:11.91Z</time></trkpt><trkpt lat="43.0972183" lon="10.9839367"><ele>785.0</ele><time>2026-05-03T09:00:12.911Z</time></trkpt><trkpt lat="43.0972367" lon="10.9840517"><ele>785.0</ele><time>2026-05-03T09:00:13.911Z</time></trkpt><trkpt lat="43.0972617" lon="10.9841583"><ele>785.0</ele><time>2026-05-03T09:00:14.913Z</time></trkpt><trkpt lat="43.0972717" lon="10.9842517"><ele>785.0</ele><time>2026-05-03T09:00:15.913Z</time></trkpt><trkpt lat="43.0972417" lon="10.984405"><ele>785.0</ele><time>2026-05-03T09:00:17.911Z</time></trkpt><trkpt lat="43.0971533" lon="10.9845033"><ele>781.8</ele><time>2026-05-03T09:00:19.912Z</time></trkpt><trkpt lat="43.0970733" lon="10.9845367"><ele>778.6</ele><time>2026-05-03T09:00:20.913Z</time></trkpt><trkpt lat="43.0969517" lon="10.98457"><ele>775.4000000000001</ele><time>2026-05-03T09:00:21.912Z</time></trkpt><trkpt lat="43.096835" lon="10.9845917"><ele>772.2</ele><time>2026-05-03T09:00:22.912Z</time></trkpt><trkpt lat="43.0967333" lon="10.984615"><ele>769.0</ele><time>2026-05-03T09:00:23.913Z</time></trkpt><trkpt lat="43.0966317" lon="10.9846433"><ele>769.4000000000001</ele><time>2026-05-03T09:00:24.913Z</time></trkpt><trkpt lat="43.0965383" lon="10.98468"><ele>769.8</ele><time>2026-05-03T09:00:25.914Z</time></trkpt><trkpt lat="43.096445" lon="10.9847333"><ele>770.2</ele><time>2026-05-03T09:00:26.912Z</time></trkpt><trkpt lat="43.0963567" lon="10.9847967"><ele>770.5999999999999</ele><time>2026-05-03T09:00:27.912Z</time></trkpt><trkpt lat="43.0962667" lon="10.9848683"><ele>771.0</ele><time>2026-05-03T09:00:28.912Z</time></trkpt><trkpt lat="43.0961717" lon="10.9849533"><ele>769.0</ele><time>2026-05-03T09:00:29.912Z</time></trkpt><trkpt lat="43.09609" lon="10.9850333"><ele>767.0</ele><time>2026-05-03T09:00:30.914Z</time></trkpt><trkpt lat="43.0960083" lon="10.9851117"><ele>765.0</ele><time>2026-05-03T09:00:31.913Z</time></trkpt><trkpt lat="43.0959333" lon="10.9851767"><ele>763.0</ele><time>2026-05-03T09:00:32.913Z</time></trkpt><trkpt lat="43.0958733" lon="10.9852283"><ele>761.0</ele><time>2026-05-03T09:00:33.914Z</time></trkpt><trkpt lat="43.0958117" lon="10.9852933"><ele>759.0</ele><time>2026-05-03T09:00:35.914Z</time></trkpt><trkpt lat="43.095855" lon="10.9853867"><ele>759.0</ele><time>2026-05-03T09:00:39.911Z</time></trkpt><trkpt lat="43.0959783" lon="10.985405"><ele>759.0</ele><time>2026-05-03T09:00:41.912Z</time></trkpt><trkpt lat="43.0960467" lon="10.9853967"><ele>759.0</ele><time>2026-05-03T09:00:42.912Z</time></trkpt><trkpt lat="43.0961133" lon="10.9853717"><ele>759.0</ele><time>2026-05-03T09:00:43.911Z</time></trkpt><trkpt lat="43.09618" lon="10.9853383"><ele>759.0</ele><time>2026-05-03T09:00:44.911Z</time></trkpt><trkpt lat="43.0963033" lon="10.9852933"><ele>759.0</ele><time>2026-05-03T09:00:46.911Z</time></trkpt><trkpt lat="43.0963717" lon="10.98531"><ele>759.0</ele><time>2026-05-03T09:00:47.911Z</time></trkpt><trkpt lat="43.0964467" lon="10.98536"><ele>759.0</ele><time>2026-05-03T09:00:48.914Z</time></trkpt><trkpt lat="43.0965333" lon="10.9854"><ele>759.0</ele><time>2026-05-03T09:00:49.911Z</time></trkpt><trkpt lat="43.09661" lon="10.9854233"><ele>759.0</ele><time>2026-05-03T09:00:50.914Z</time></trkpt><trkpt lat="43.096695" lon="10.985445"><ele>759.0</ele><time>2026-05-03T09:00:51.914Z</time></trkpt><trkpt lat="43.096775" lon="10.9854733"><ele>757.2857142857142</ele><time>2026-05-03T09:00:52.913Z</time></trkpt><trkpt lat="43.0968383" lon="10.9855133"><ele>755.5714285714286</ele><time>2026-05-03T09:00:53.91Z</time></trkpt><trkpt lat="43.09689" lon="10.9855783"><ele>753.8571428571429</ele><time>2026-05-03T09:00:54.912Z</time></trkpt><trkpt lat="43.0969383" lon="10.98564"><ele>752.1428571428571</ele><time>2026-05-03T09:00:55.915Z</time></trkpt><trkpt lat="43.0969933" lon="10.9856933"><ele>750.4285714285714</ele><time>2026-05-03T09:00:56.911Z</time></trkpt><trkpt lat="43.0970567" lon="10.9857333"><ele>748.7142857142857</ele><time>2026-05-03T09:00:57.914Z</time></trkpt><trkpt lat="43.097125" lon="10.9857617"><ele>747.0</ele><time>2026-05-03T09:00:58.912Z</time></trkpt><trkpt lat="43.0971917" lon="10.9857967"><ele>747.0</ele><time>2026-05-03T09:00:59.914Z</time></trkpt><trkpt lat="43.09725" lon="10.9858383"><ele>747.0</ele><time>2026-05-03T09:01:00.914Z</time></trkpt><trkpt lat="43.097345" lon="10.9859633"><ele>747.0</ele><time>2026-05-03T09:01:02.911Z</time></trkpt><trkpt lat="43.097385" lon="10.9860733"><ele>747.0</ele><time>2026-05-03T09:01:03.91Z</time></trkpt><trkpt lat="43.097415" lon="10.9862283"><ele>747.0</ele><time>2026-05-03T09:01:04.914Z</time></trkpt><trkpt lat="43.0974567" lon="10.9863767"><ele>742.4000000000001</ele><time>2026-05-03T09:01:05.915Z</time></trkpt><trkpt lat="43.0975" lon="10.986525"><ele>737.8000000000001</ele><time>2026-05-03T09:01:06.913Z</time></trkpt><trkpt lat="43.0975533" lon="10.9866533"><ele>733.2</ele><time>2026-05-03T09:01:07.912Z</time></trkpt><trkpt lat="43.0976133" lon="10.9867733"><ele>728.6</ele><time>2026-05-03T09:01:08.912Z</time></trkpt><trkpt lat="43.0976783" lon="10.9868817"><ele>724.0</ele><time>2026-05-03T09:01:09.912Z</time></trkpt><trkpt lat="43.097755" lon="10.98697"><ele>722.0</ele><time>2026-05-03T09:01:10.912Z</time></trkpt><trkpt lat="43.0978417" lon="10.987035"><ele>720.0</ele><time>2026-05-03T09:01:11.914Z</time></trkpt><trkpt lat="43.09793" lon="10.9870833"><ele>718.0</ele><time>2026-05-03T09:01:12.914Z</time></trkpt><trkpt lat="43.0980033" lon="10.98712"><ele>716.0</ele><time>2026-05-03T09:01:13.914Z</time></trkpt><trkpt lat="43.09807" lon="10.98716"><ele>714.0</ele><time>2026-05-03T09:01:14.913Z</time></trkpt><trkpt lat="43.0981217" lon="10.9872133"><ele>712.0</ele><time>2026-05-03T09:01:15.912Z</time></trkpt><trkpt lat="43.0981683" lon="10.987275"><ele>712.0</ele><time>2026-05-03T09:01:16.912Z</time></trkpt><trkpt lat="43.0981933" lon="10.9873583"><ele>712.0</ele><time>2026-05-03T09:01:17.912Z</time></trkpt><trkpt lat="43.098225" lon="10.9874733"><ele>712.0</ele><time>2026-05-03T09:01:18.912Z</time></trkpt><trkpt lat="43.0982683" lon="10.9876217"><ele>712.0</ele><time>2026-05-03T09:01:19.911Z</time></trkpt><trkpt lat="43.098315" lon="10.987755"><ele>712.0</ele><time>2026-05-03T09:01:20.912Z</time></trkpt><trkpt lat="43.0983817" lon="10.987865"><ele>709.0</ele><time>2026-05-03T09:01:21.912Z</time></trkpt><trkpt lat="43.0984467" lon="10.9879533"><ele>706.0</ele><time>2026-05-03T09:01:22.915Z</time></trkpt><trkpt lat="43.0984933" lon="10.988025"><ele>703.0</ele><time>2026-05-03T09:01:23.914Z</time></trkpt><trkpt lat="43.0985083" lon="10.9881333"><ele>700.0</ele><time>2026-05-03T09:01:25.916Z</time></trkpt><trkpt lat="43.0984233" lon="10.9881117"><ele>697.0</ele><time>2026-05-03T09:01:27.912Z</time></trkpt><trkpt lat="43.098295" lon="10.9880317"><ele>696.2</ele><time>2026-05-03T09:01:29.912Z</time></trkpt><trkpt lat="43.0981983" lon="10.9879433"><ele>695.4000000000001</ele><time>2026-05-03T09:01:30.91Z</time></trkpt><trkpt lat="43.09811" lon="10.98785"><ele>694.5999999999999</ele><time>2026-05-03T09:01:31.91Z</time></trkpt><trkpt lat="43.09803" lon="10.9877717"><ele>693.8</ele><time>2026-05-03T09:01:32.911Z</time></trkpt><trkpt lat="43.0979533" lon="10.9877167"><ele>693.0</ele><time>2026-05-03T09:01:33.911Z</time></trkpt><trkpt lat="43.09787" lon="10.98769"><ele>693.0</ele><time>2026-05-03T09:01:34.912Z</time></trkpt><trkpt lat="43.0978" lon="10.9876917"><ele>693.0</ele><time>2026-05-03T09:01:35.912Z</time></trkpt><trkpt lat="43.0977267" lon="10.98773"><ele>693.0</ele><time>2026-05-03T09:01:36.912Z</time></trkpt><trkpt lat="43.0976633" lon="10.98782"><ele>693.0</ele><time>2026-05-03T09:01:37.911Z</time></trkpt><trkpt lat="43.09762" lon="10.9879483"><ele>693.0</ele><time>2026-05-03T09:01:38.911Z</time></trkpt><trkpt lat="43.0975633" lon="10.98804"><ele>693.0</ele><time>2026-05-03T09:01:39.913Z</time></trkpt><trkpt lat="43.09752" lon="10.9881533"><ele>693.0</ele><time>2026-05-03T09:01:40.911Z</time></trkpt><trkpt lat="43.097455" lon="10.9882467"><ele>693.0</ele><time>2026-05-03T09:01:41.911Z</time></trkpt><trkpt lat="43.09737" lon="10.98832"><ele>693.0</ele><time>2026-05-03T09:01:42.913Z</time></trkpt><trkpt lat="43.0972917" lon="10.9883817"><ele>693.0</ele><time>2026-05-03T09:01:43.911Z</time></trkpt><trkpt lat="43.0972083" lon="10.98843"><ele>693.0</ele><time>2026-05-03T09:01:44.911Z</time></trkpt><trkpt lat="43.0971183" lon="10.9884533"><ele>694.5</ele><time>2026-05-03T09:01:45.911Z</time></trkpt><trkpt lat="43.0970367" lon="10.9884533"><ele>696.0</ele><time>2026-05-03T09:01:46.912Z</time></trkpt><trkpt lat="43.0969583" lon="10.98845"><ele>697.5</ele><time>2026-05-03T09:01:47.911Z</time></trkpt><trkpt lat="43.09688" lon="10.98845"><ele>699.0</ele><time>2026-05-03T09:01:48.912Z</time></trkpt><trkpt lat="43.0968183" lon="10.98847"><ele>700.5</ele><time>2026-05-03T09:01:49.912Z</time></trkpt><trkpt lat="43.0967933" lon="10.9885933"><ele>702.0</ele><time>2026-05-03T09:01:51.911Z</time></trkpt><trkpt lat="43.0968033" lon="10.9886883"><ele>702.0</ele><time>2026-05-03T09:01:52.912Z</time></trkpt><trkpt lat="43.0969217" lon="10.988835"><ele>702.0</ele><time>2026-05-03T09:01:53.911Z</time></trkpt><trkpt lat="43.09698" lon="10.9889583"><ele>702.0</ele><time>2026-05-03T09:01:54.91Z</time></trkpt><trkpt lat="43.0970133" lon="10.9890783"><ele>702.0</ele><time>2026-05-03T09:01:55.91Z</time></trkpt><trkpt lat="43.0970317" lon="10.9891883"><ele>702.0</ele><time>2026-05-03T09:01:56.911Z</time></trkpt><trkpt lat="43.09704" lon="10.989295"><ele>700.3333333333334</ele><time>2026-05-03T09:01:57.911Z</time></trkpt><trkpt lat="43.0970483" lon="10.9893933"><ele>698.6666666666666</ele><time>2026-05-03T09:01:58.913Z</time></trkpt><trkpt lat="43.0970617" lon="10.9894783"><ele>697.0</ele><time>2026-05-03T09:01:59.911Z</time></trkpt><trkpt lat="43.0970717" lon="10.9896483"><ele>695.3333333333333</ele><time>2026-05-03T09:02:01.911Z</time></trkpt><trkpt lat="43.097045" lon="10.9897333"><ele>693.6666666666666</ele><time>2026-05-03T09:02:02.913Z</time></trkpt><trkpt lat="43.0970067" lon="10.9898717"><ele>692.0</ele><time>2026-05-03T09:02:04.911Z</time></trkpt><trkpt lat="43.0969383" lon="10.9899567"><ele>692.0</ele><time>2026-05-03T09:02:06.912Z</time></trkpt><trkpt lat="43.0968733" lon="10.9900067"><ele>692.0</ele><time>2026-05-03T09:02:08.911Z</time></trkpt><trkpt lat="43.0968033" lon="10.9900333"><ele>692.0</ele><time>2026-05-03T09:02:10.911Z</time></trkpt><trkpt lat="43.09672" lon="10.9901017"><ele>692.0</ele><time>2026-05-03T09:02:12.911Z</time></trkpt><trkpt lat="43.0966367" lon="10.990155"><ele>692.0</ele><time>2026-05-03T09:02:14.912Z</time></trkpt><trkpt lat="43.0965717" lon="10.99021"><ele>692.0</ele><time>2026-05-03T09:02:17.913Z</time></trkpt><trkpt lat="43.0966617" lon="10.99017"><ele>689.5</ele><time>2026-05-03T09:02:23.911Z</time></trkpt><trkpt lat="43.0967483" lon="10.9901117"><ele>687.0</ele><time>2026-05-03T09:02:25.914Z</time></trkpt><trkpt lat="43.0968317" lon="10.9900933"><ele>684.5</ele><time>2026-05-03T09:02:27.91Z</time></trkpt><trkpt lat="43.0969333" lon="10.9900833"><ele>682.0</ele><time>2026-05-03T09:02:29.911Z</time></trkpt><trkpt lat="43.0969967" lon="10.9900983"><ele>679.5</ele><time>2026-05-03T09:02:30.912Z</time></trkpt><trkpt lat="43.0970583" lon="10.9901383"><ele>677.0</ele><time>2026-05-03T09:02:31.91Z</time></trkpt><trkpt lat="43.097115" lon="10.9901983"><ele>677.0</ele><time>2026-05-03T09:02:32.91Z</time></trkpt><trkpt lat="43.0971817" lon="10.99026"><ele>677.0</ele><time>2026-05-03T09:02:33.91Z</time></trkpt><trkpt lat="43.09724" lon="10.9903367"><ele>677.0</ele><time>2026-05-03T09:02:34.913Z</time></trkpt><trkpt lat="43.0972883" lon="10.9904183"><ele>677.0</ele><time>2026-05-03T09:02:35.911Z</time></trkpt><trkpt lat="43.0973333" lon="10.9904917"><ele>677.0</ele><time>2026-05-03T09:02:36.91Z</time></trkpt><trkpt lat="43.0974033" lon="10.9906317"><ele>677.0</ele><time>2026-05-03T09:02:38.91Z</time></trkpt><trkpt lat="43.0974367" lon="10.9907117"><ele>677.6666666666666</ele><time>2026-05-03T09:02:39.911Z</time></trkpt><trkpt lat="43.09747" lon="10.9908"><ele>678.3333333333333</ele><time>2026-05-03T09:02:40.914Z</time></trkpt><trkpt lat="43.0975017" lon="10.9908983"><ele>679.0</ele><time>2026-05-03T09:02:41.911Z</time></trkpt><trkpt lat="43.0975417" lon="10.9910017"><ele>679.6666666666666</ele><time>2026-05-03T09:02:42.913Z</time></trkpt><trkpt lat="43.09759" lon="10.9910967"><ele>680.3333333333334</ele><time>2026-05-03T09:02:43.914Z</time></trkpt><trkpt lat="43.09765" lon="10.991195"><ele>681.0</ele><time>2026-05-03T09:02:44.911Z</time></trkpt><trkpt lat="43.09772" lon="10.9912867"><ele>681.1666666666666</ele><time>2026-05-03T09:02:45.912Z</time></trkpt><trkpt lat="43.0977867" lon="10.9913733"><ele>681.3333333333334</ele><time>2026-05-03T09:02:46.912Z</time></trkpt><trkpt lat="43.0978467" lon="10.9914567"><ele>681.5</ele><time>2026-05-03T09:02:47.912Z</time></trkpt><trkpt lat="43.0979" lon="10.991535"><ele>681.6666666666667</ele><time>2026-05-03T09:02:48.911Z</time></trkpt><trkpt lat="43.0979433" lon="10.991605"><ele>681.8333333333334</ele><time>2026-05-03T09:02:49.912Z</time></trkpt><trkpt lat="43.09799" lon="10.9916783"><ele>682.0</ele><time>2026-05-03T09:02:50.912Z</time></trkpt><trkpt lat="43.098045" lon="10.9917933"><ele>679.0</ele><time>2026-05-03T09:02:52.912Z</time></trkpt><trkpt lat="43.0980617" lon="10.991925"><ele>676.0</ele><time>2026-05-03T09:02:54.913Z</time></trkpt><trkpt lat="43.0980617" lon="10.9921"><ele>673.0</ele><time>2026-05-03T09:02:56.911Z</time></trkpt><trkpt lat="43.0980583" lon="10.992205"><ele>670.0</ele><time>2026-05-03T09:02:57.911Z</time></trkpt><trkpt lat="43.0980533" lon="10.992325"><ele>667.0</ele><time>2026-05-03T09:02:58.91Z</time></trkpt><trkpt lat="43.098045" lon="10.9924417"><ele>667.3333333333334</ele><time>2026-05-03T09:02:59.911Z</time></trkpt><trkpt lat="43.098045" lon="10.992565"><ele>667.6666666666667</ele><time>2026-05-03T09:03:00.91Z</time></trkpt><trkpt lat="43.0980433" lon="10.9926867"><ele>668.0</ele><time>2026-05-03T09:03:01.911Z</time></trkpt><trkpt lat="43.09804" lon="10.9928017"><ele>668.3333333333334</ele><time>2026-05-03T09:03:02.911Z</time></trkpt><trkpt lat="43.0980317" lon="10.9929267"><ele>668.6666666666666</ele><time>2026-05-03T09:03:03.912Z</time></trkpt><trkpt lat="43.0980117" lon="10.9930533"><ele>669.0</ele><time>2026-05-03T09:03:04.912Z</time></trkpt><trkpt lat="43.0979717" lon="10.993175"><ele>669.0</ele><time>2026-05-03T09:03:05.911Z</time></trkpt><trkpt lat="43.0979183" lon="10.9932933"><ele>669.0</ele><time>2026-05-03T09:03:06.91Z</time></trkpt><trkpt lat="43.0978567" lon="10.9934017"><ele>669.0</ele><time>2026-05-03T09:03:07.911Z</time></trkpt><trkpt lat="43.0977917" lon="10.9934983"><ele>669.0</ele><time>2026-05-03T09:03:08.91Z</time></trkpt><trkpt lat="43.0977233" lon="10.9935867"><ele>669.0</ele><time>2026-05-03T09:03:09.91Z</time></trkpt><trkpt lat="43.09766" lon="10.9936517"><ele>668.6666666666666</ele><time>2026-05-03T09:03:10.911Z</time></trkpt><trkpt lat="43.0976017" lon="10.9936883"><ele>668.3333333333334</ele><time>2026-05-03T09:03:11.911Z</time></trkpt><trkpt lat="43.0975317" lon="10.9936983"><ele>668.0</ele><time>2026-05-03T09:03:12.91Z</time></trkpt><trkpt lat="43.0974467" lon="10.993705"><ele>667.6666666666667</ele><time>2026-05-03T09:03:13.911Z</time></trkpt><trkpt lat="43.0973517" lon="10.9937233"><ele>667.3333333333334</ele><time>2026-05-03T09:03:14.911Z</time></trkpt><trkpt lat="43.0972633" lon="10.9937483"><ele>667.0</ele><time>2026-05-03T09:03:15.912Z</time></trkpt><trkpt lat="43.0971867" lon="10.993775"><ele>667.0</ele><time>2026-05-03T09:03:16.911Z</time></trkpt><trkpt lat="43.097115" lon="10.9938133"><ele>667.0</ele><time>2026-05-03T09:03:17.914Z</time></trkpt><trkpt lat="43.0970467" lon="10.993865"><ele>667.0</ele><time>2026-05-03T09:03:18.911Z</time></trkpt><trkpt lat="43.0969783" lon="10.9939267"><ele>667.0</ele><time>2026-05-03T09:03:19.914Z</time></trkpt><trkpt lat="43.096915" lon="10.9939933"><ele>667.0</ele><time>2026-05-03T09:03:20.911Z</time></trkpt><trkpt lat="43.096845" lon="10.9940733"><ele>667.0</ele><time>2026-05-03T09:03:21.911Z</time></trkpt><trkpt lat="43.096775" lon="10.9941617"><ele>666.6</ele><time>2026-05-03T09:03:22.913Z</time></trkpt><trkpt lat="43.0966983" lon="10.9942583"><ele>666.2</ele><time>2026-05-03T09:03:23.915Z</time></trkpt><trkpt lat="43.096625" lon="10.99436"><ele>665.8</ele><time>2026-05-03T09:03:24.915Z</time></trkpt><trkpt lat="43.09656" lon="10.9944633"><ele>665.4</ele><time>2026-05-03T09:03:25.91Z</time></trkpt><trkpt lat="43.0964983" lon="10.994575"><ele>665.0</ele><time>2026-05-03T09:03:26.91Z</time></trkpt><trkpt lat="43.0964633" lon="10.994685"><ele>666.2</ele><time>2026-05-03T09:03:27.91Z</time></trkpt><trkpt lat="43.0964333" lon="10.994795"><ele>667.4</ele><time>2026-05-03T09:03:28.911Z</time></trkpt><trkpt lat="43.0964083" lon="10.9949133"><ele>668.5999999999999</ele><time>2026-05-03T09:03:29.912Z</time></trkpt><trkpt lat="43.09639" lon="10.99504"><ele>669.8</ele><time>2026-05-03T09:03:30.91Z</time></trkpt><trkpt lat="43.0963833" lon="10.995185"><ele>671.0</ele><time>2026-05-03T09:03:31.913Z</time></trkpt><trkpt lat="43.0963817" lon="10.995345"><ele>672.5</ele><time>2026-05-03T09:03:32.912Z</time></trkpt><trkpt lat="43.0963817" lon="10.995505"><ele>674.0</ele><time>2026-05-03T09:03:33.912Z</time></trkpt><trkpt lat="43.0963867" lon="10.9956717"><ele>675.5</ele><time>2026-05-03T09:03:34.911Z</time></trkpt><trkpt lat="43.0963933" lon="10.9958367"><ele>677.0</ele><time>2026-05-03T09:03:35.912Z</time></trkpt><trkpt lat="43.096395" lon="10.996"><ele>677.3333333333333</ele><time>2026-05-03T09:03:36.911Z</time></trkpt><trkpt lat="43.0963917" lon="10.9961467"><ele>677.6666666666666</ele><time>2026-05-03T09:03:37.911Z</time></trkpt><trkpt lat="43.09639" lon="10.9962517"><ele>678.0</ele><time>2026-05-03T09:03:38.911Z</time></trkpt><trkpt lat="43.096375" lon="10.9963583"><ele>678.3333333333334</ele><time>2026-05-03T09:03:40.911Z</time></trkpt><trkpt lat="43.096335" lon="10.9964583"><ele>678.6666666666667</ele><time>2026-05-03T09:03:46.911Z</time></trkpt><trkpt lat="43.0962817" lon="10.9965233"><ele>679.0</ele><time>2026-05-03T09:03:48.911Z</time></trkpt><trkpt lat="43.096225" lon="10.996565"><ele>679.0</ele><time>2026-05-03T09:03:49.91Z</time></trkpt><trkpt lat="43.0961633" lon="10.996605"><ele>679.0</ele><time>2026-05-03T09:03:50.91Z</time></trkpt><trkpt lat="43.0961" lon="10.9966383"><ele>679.0</ele><time>2026-05-03T09:03:51.912Z</time></trkpt><trkpt lat="43.0960283" lon="10.9966617"><ele>679.0</ele><time>2026-05-03T09:03:52.911Z</time></trkpt><trkpt lat="43.095935" lon="10.99667"><ele>679.0</ele><time>2026-05-03T09:03:53.914Z</time></trkpt><trkpt lat="43.0958417" lon="10.996665"><ele>679.0</ele><time>2026-05-03T09:03:54.913Z</time></trkpt><trkpt lat="43.09576" lon="10.9966517"><ele>679.8000000000001</ele><time>2026-05-03T09:03:55.91Z</time></trkpt><trkpt lat="43.0956867" lon="10.9966383"><ele>680.6</ele><time>2026-05-03T09:03:56.912Z</time></trkpt><trkpt lat="43.0955617" lon="10.996615"><ele>681.4</ele><time>2026-05-03T09:03:58.915Z</time></trkpt><trkpt lat="43.095465" lon="10.9966867"><ele>682.2</ele><time>2026-05-03T09:04:05.912Z</time></trkpt><trkpt lat="43.095395" lon="10.9967917"><ele>683.0</ele><time>2026-05-03T09:04:07.911Z</time></trkpt><trkpt lat="43.0952717" lon="10.9969083"><ele>681.5</ele><time>2026-05-03T09:04:09.911Z</time></trkpt><trkpt lat="43.0951933" lon="10.9969783"><ele>680.0</ele><time>2026-05-03T09:04:10.915Z</time></trkpt><trkpt lat="43.09513" lon="10.9970467"><ele>678.5</ele><time>2026-05-03T09:04:11.911Z</time></trkpt><trkpt lat="43.09508" lon="10.9971233"><ele>677.0</ele><time>2026-05-03T09:04:12.912Z</time></trkpt><trkpt lat="43.0950333" lon="10.9972083"><ele>675.5</ele><time>2026-05-03T09:04:13.911Z</time></trkpt><trkpt lat="43.094985" lon="10.99729"><ele>674.0</ele><time>2026-05-03T09:04:14.912Z</time></trkpt><trkpt lat="43.0949283" lon="10.9973633"><ele>674.5</ele><time>2026-05-03T09:04:15.915Z</time></trkpt><trkpt lat="43.0948667" lon="10.9974333"><ele>675.0</ele><time>2026-05-03T09:04:16.91Z</time></trkpt><trkpt lat="43.0948017" lon="10.9974983"><ele>675.5</ele><time>2026-05-03T09:04:17.913Z</time></trkpt><trkpt lat="43.09473" lon="10.997555"><ele>676.0</ele><time>2026-05-03T09:04:18.91Z</time></trkpt><trkpt lat="43.0946583" lon="10.9976017"><ele>676.5</ele><time>2026-05-03T09:04:19.912Z</time></trkpt><trkpt lat="43.094585" lon="10.99766"><ele>677.0</ele><time>2026-05-03T09:04:20.911Z</time></trkpt><trkpt lat="43.0945167" lon="10.9977167"><ele>674.8333333333333</ele><time>2026-05-03T09:04:21.911Z</time></trkpt><trkpt lat="43.09445" lon="10.9977767"><ele>672.6666666666666</ele><time>2026-05-03T09:04:22.91Z</time></trkpt><trkpt lat="43.094395" lon="10.9978283"><ele>670.5</ele><time>2026-05-03T09:04:23.911Z</time></trkpt><trkpt lat="43.0942933" lon="10.9979"><ele>668.3333333333334</ele><time>2026-05-03T09:04:25.911Z</time></trkpt><trkpt lat="43.0941867" lon="10.997955"><ele>666.1666666666667</ele><time>2026-05-03T09:04:27.91Z</time></trkpt><trkpt lat="43.09412" lon="10.99799"><ele>664.0</ele><time>2026-05-03T09:04:28.915Z</time></trkpt><trkpt lat="43.0940117" lon="10.9980317"><ele>662.8333333333334</ele><time>2026-05-03T09:04:30.914Z</time></trkpt><trkpt lat="43.0939417" lon="10.9980517"><ele>661.6666666666667</ele><time>2026-05-03T09:04:32.91Z</time></trkpt><trkpt lat="43.09386" lon="10.9980083"><ele>660.5</ele><time>2026-05-03T09:04:35.911Z</time></trkpt><trkpt lat="43.0937767" lon="10.9979367"><ele>659.3333333333334</ele><time>2026-05-03T09:04:38.912Z</time></trkpt><trkpt lat="43.0936767" lon="10.9978817"><ele>658.1666666666666</ele><time>2026-05-03T09:04:40.911Z</time></trkpt><trkpt lat="43.0936133" lon="10.9978533"><ele>657.0</ele><time>2026-05-03T09:04:41.91Z</time></trkpt><trkpt lat="43.093545" lon="10.9978233"><ele>657.0</ele><time>2026-05-03T09:04:42.911Z</time></trkpt><trkpt lat="43.09347" lon="10.9977867"><ele>657.0</ele><time>2026-05-03T09:04:43.91Z</time></trkpt><trkpt lat="43.093395" lon="10.997735"><ele>657.0</ele><time>2026-05-03T09:04:44.911Z</time></trkpt><trkpt lat="43.0933317" lon="10.9976917"><ele>657.0</ele><time>2026-05-03T09:04:45.911Z</time></trkpt><trkpt lat="43.093275" lon="10.9976283"><ele>657.0</ele><time>2026-05-03T09:04:46.912Z</time></trkpt><trkpt lat="43.0932233" lon="10.99754"><ele>657.0</ele><time>2026-05-03T09:04:47.911Z</time></trkpt><trkpt lat="43.09317" lon="10.9974533"><ele>654.3333333333334</ele><time>2026-05-03T09:04:48.91Z</time></trkpt><trkpt lat="43.0931117" lon="10.9973733"><ele>651.6666666666666</ele><time>2026-05-03T09:04:49.911Z</time></trkpt><trkpt lat="43.0930533" lon="10.9973267"><ele>649.0</ele><time>2026-05-03T09:04:50.914Z</time></trkpt><trkpt lat="43.0929367" lon="10.9972633"><ele>646.3333333333333</ele><time>2026-05-03T09:04:52.914Z</time></trkpt><trkpt lat="43.0928767" lon="10.9972333"><ele>643.6666666666666</ele><time>2026-05-03T09:04:53.914Z</time></trkpt><trkpt lat="43.0928017" lon="10.9972183"><ele>641.0</ele><time>2026-05-03T09:04:54.914Z</time></trkpt><trkpt lat="43.0927333" lon="10.9972233"><ele>641.0</ele><time>2026-05-03T09:04:55.915Z</time></trkpt><trkpt lat="43.0926567" lon="10.9972317"><ele>641.0</ele><time>2026-05-03T09:04:56.912Z</time></trkpt><trkpt lat="43.09258" lon="10.9972567"><ele>641.0</ele><time>2026-05-03T09:04:57.914Z</time></trkpt><trkpt lat="43.0924967" lon="10.9972917"><ele>641.0</ele><time>2026-05-03T09:04:58.912Z</time></trkpt><trkpt lat="43.0924017" lon="10.9973433"><ele>641.0</ele><time>2026-05-03T09:04:59.914Z</time></trkpt><trkpt lat="43.092315" lon="10.997385"><ele>641.0</ele><time>2026-05-03T09:05:00.914Z</time></trkpt><trkpt lat="43.092215" lon="10.99741"><ele>641.1999999999999</ele><time>2026-05-03T09:05:01.914Z</time></trkpt><trkpt lat="43.0921167" lon="10.997425"><ele>641.4</ele><time>2026-05-03T09:05:02.914Z</time></trkpt><trkpt lat="43.0920267" lon="10.9974367"><ele>641.6</ele><time>2026-05-03T09:05:03.914Z</time></trkpt><trkpt lat="43.0919383" lon="10.9974567"><ele>641.8</ele><time>2026-05-03T09:05:04.914Z</time></trkpt><trkpt lat="43.0918567" lon="10.9974767"><ele>642.0</ele><time>2026-05-03T09:05:05.914Z</time></trkpt><trkpt lat="43.09176" lon="10.99751"><ele>642.0</ele><time>2026-05-03T09:05:06.915Z</time></trkpt><trkpt lat="43.0916733" lon="10.99755"><ele>642.0</ele><time>2026-05-03T09:05:07.912Z</time></trkpt><trkpt lat="43.0915883" lon="10.997595"><ele>642.0</ele><time>2026-05-03T09:05:08.912Z</time></trkpt><trkpt lat="43.09151" lon="10.99764"><ele>642.0</ele><time>2026-05-03T09:05:09.914Z</time></trkpt><trkpt lat="43.0914317" lon="10.997685"><ele>642.0</ele><time>2026-05-03T09:05:10.912Z</time></trkpt><trkpt lat="43.0913533" lon="10.9977217"><ele>642.0</ele><time>2026-05-03T09:05:11.915Z</time></trkpt><trkpt lat="43.0912833" lon="10.9977717"><ele>639.5</ele><time>2026-05-03T09:05:12.914Z</time></trkpt><trkpt lat="43.0912167" lon="10.9978267"><ele>637.0</ele><time>2026-05-03T09:05:13.918Z</time></trkpt><trkpt lat="43.0911483" lon="10.9978833"><ele>634.5</ele><time>2026-05-03T09:05:14.912Z</time></trkpt><trkpt lat="43.0910883" lon="10.9979267"><ele>632.0</ele><time>2026-05-03T09:05:15.912Z</time></trkpt><trkpt lat="43.0910283" lon="10.99796"><ele>629.5</ele><time>2026-05-03T09:05:16.916Z</time></trkpt><trkpt lat="43.0909617" lon="10.9979783"><ele>627.0</ele><time>2026-05-03T09:05:17.912Z</time></trkpt><trkpt lat="43.0908517" lon="10.9980083"><ele>627.0</ele><time>2026-05-03T09:05:19.913Z</time></trkpt><trkpt lat="43.090795" lon="10.9980483"><ele>627.0</ele><time>2026-05-03T09:05:20.914Z</time></trkpt><trkpt lat="43.0907367" lon="10.9981083"><ele>627.0</ele><time>2026-05-03T09:05:21.915Z</time></trkpt><trkpt lat="43.0906883" lon="10.9981867"><ele>627.0</ele><time>2026-05-03T09:05:22.914Z</time></trkpt><trkpt lat="43.0906467" lon="10.998285"><ele>627.0</ele><time>2026-05-03T09:05:23.914Z</time></trkpt><trkpt lat="43.09061" lon="10.9983833"><ele>627.0</ele><time>2026-05-03T09:05:24.917Z</time></trkpt><trkpt lat="43.0906017" lon="10.9984783"><ele>627.0</ele><time>2026-05-03T09:05:25.914Z</time></trkpt><trkpt lat="43.090605" lon="10.9985667"><ele>626.5</ele><time>2026-05-03T09:05:26.914Z</time></trkpt><trkpt lat="43.0906383" lon="10.9987083"><ele>626.0</ele><time>2026-05-03T09:05:28.914Z</time></trkpt><trkpt lat="43.0906883" lon="10.9988333"><ele>625.5</ele><time>2026-05-03T09:05:30.912Z</time></trkpt><trkpt lat="43.090755" lon="10.9989217"><ele>625.0</ele><time>2026-05-03T09:05:32.914Z</time></trkpt><trkpt lat="43.0908117" lon="10.998965"><ele>624.5</ele><time>2026-05-03T09:05:34.912Z</time></trkpt><trkpt lat="43.0908383" lon="10.9990567"><ele>624.0</ele><time>2026-05-03T09:05:43.911Z</time></trkpt><trkpt lat="43.0907967" lon="10.99914"><ele>620.8333333333334</ele><time>2026-05-03T09:05:45.915Z</time></trkpt><trkpt lat="43.090725" lon="10.9992117"><ele>617.6666666666666</ele><time>2026-05-03T09:05:47.911Z</time></trkpt><trkpt lat="43.0906417" lon="10.9992633"><ele>614.5</ele><time>2026-05-03T09:05:49.911Z</time></trkpt><trkpt lat="43.0905533" lon="10.99934"><ele>611.3333333333333</ele><time>2026-05-03T09:05:51.915Z</time></trkpt><trkpt lat="43.0905083" lon="10.9994217"><ele>608.1666666666666</ele><time>2026-05-03T09:05:52.914Z</time></trkpt><trkpt lat="43.0904633" lon="10.9995033"><ele>605.0</ele><time>2026-05-03T09:05:53.915Z</time></trkpt><trkpt lat="43.0904233" lon="10.9995767"><ele>605.0</ele><time>2026-05-03T09:05:54.914Z</time></trkpt><trkpt lat="43.0903867" lon="10.9996533"><ele>605.0</ele><time>2026-05-03T09:05:55.915Z</time></trkpt><trkpt lat="43.0903483" lon="10.9997333"><ele>605.0</ele><time>2026-05-03T09:05:56.91Z</time></trkpt><trkpt lat="43.0903083" lon="10.999815"><ele>605.0</ele><time>2026-05-03T09:05:57.915Z</time></trkpt><trkpt lat="43.0902633" lon="10.99988"><ele>605.0</ele><time>2026-05-03T09:05:58.915Z</time></trkpt><trkpt lat="43.0901583" lon="10.9999867"><ele>605.0</ele><time>2026-05-03T09:06:00.915Z</time></trkpt><trkpt lat="43.0900967" lon="11.00004"><ele>605.0</ele><time>2026-05-03T09:06:01.914Z</time></trkpt><trkpt lat="43.0900367" lon="11.0000833"><ele>605.0</ele><time>2026-05-03T09:06:02.914Z</time></trkpt><trkpt lat="43.08998" lon="11.0001233"><ele>605.0</ele><time>2026-05-03T09:06:03.914Z</time></trkpt><trkpt lat="43.089905" lon="11.0001333"><ele>605.0</ele><time>2026-05-03T09:06:05.915Z</time></trkpt><trkpt lat="43.0898583" lon="11.0000717"><ele>605.0</ele><time>2026-05-03T09:06:07.913Z</time></trkpt><trkpt lat="43.0898017" lon="11.000025"><ele>605.0</ele><time>2026-05-03T09:06:09.912Z</time></trkpt><trkpt lat="43.08973" lon="11.0000717"><ele>605.0</ele><time>2026-05-03T09:06:11.914Z</time></trkpt><trkpt lat="43.0896967" lon="11.0002017"><ele>601.6</ele><time>2026-05-03T09:06:13.913Z</time></trkpt><trkpt lat="43.08967" lon="11.0003433"><ele>598.2</ele><time>2026-05-03T09:06:15.913Z</time></trkpt><trkpt lat="43.0896117" lon="11.000485"><ele>594.8</ele><time>2026-05-03T09:06:17.915Z</time></trkpt><trkpt lat="43.0895117" lon="11.000585"><ele>591.4</ele><time>2026-05-03T09:06:19.911Z</time></trkpt><trkpt lat="43.0894467" lon="11.0006217"><ele>588.0</ele><time>2026-05-03T09:06:20.911Z</time></trkpt><trkpt lat="43.0893733" lon="11.000655"><ele>588.0</ele><time>2026-05-03T09:06:21.917Z</time></trkpt><trkpt lat="43.0893017" lon="11.0006783"><ele>588.0</ele><time>2026-05-03T09:06:22.915Z</time></trkpt><trkpt lat="43.0892367" lon="11.0007017"><ele>588.0</ele><time>2026-05-03T09:06:23.915Z</time></trkpt><trkpt lat="43.0891433" lon="11.00074"><ele>588.0</ele><time>2026-05-03T09:06:25.915Z</time></trkpt><trkpt lat="43.0890733" lon="11.0007433"><ele>588.0</ele><time>2026-05-03T09:06:27.914Z</time></trkpt><trkpt lat="43.0890083" lon="11.0007867"><ele>588.0</ele><time>2026-05-03T09:06:29.917Z</time></trkpt><trkpt lat="43.0889067" lon="11.0008433"><ele>586.3333333333334</ele><time>2026-05-03T09:06:31.914Z</time></trkpt><trkpt lat="43.0888367" lon="11.0008283"><ele>584.6666666666666</ele><time>2026-05-03T09:06:33.914Z</time></trkpt><trkpt lat="43.0887933" lon="11.0007617"><ele>583.0</ele><time>2026-05-03T09:07:30.913Z</time></trkpt><trkpt lat="43.0887533" lon="11.0006217"><ele>581.3333333333333</ele><time>2026-05-03T09:07:33.914Z</time></trkpt><trkpt lat="43.088755" lon="11.00046"><ele>579.6666666666666</ele><time>2026-05-03T09:07:35.916Z</time></trkpt><trkpt lat="43.088775" lon="11.00035"><ele>578.0</ele><time>2026-05-03T09:07:36.913Z</time></trkpt><trkpt lat="43.08881" lon="11.0002333"><ele>578.0</ele><time>2026-05-03T09:07:37.911Z</time></trkpt><trkpt lat="43.0888433" lon="11.000135"><ele>578.0</ele><time>2026-05-03T09:07:38.911Z</time></trkpt><trkpt lat="43.08888" lon="11.0000483"><ele>578.0</ele><time>2026-05-03T09:07:39.914Z</time></trkpt><trkpt lat="43.0889467" lon="10.9999217"><ele>578.0</ele><time>2026-05-03T09:07:41.911Z</time></trkpt><trkpt lat="43.08899" lon="10.99979"><ele>578.0</ele><time>2026-05-03T09:07:43.91Z</time></trkpt><trkpt lat="43.088975" lon="10.9996967"><ele>578.0</ele><time>2026-05-03T09:07:45.911Z</time></trkpt><trkpt lat="43.0888867" lon="10.9996433"><ele>578.0</ele><time>2026-05-03T09:07:47.911Z</time></trkpt><trkpt lat="43.0888183" lon="10.9996167"><ele>578.0</ele><time>2026-05-03T09:07:48.911Z</time></trkpt><trkpt lat="43.0887467" lon="10.9995817"><ele>578.0</ele><time>2026-05-03T09:07:49.911Z</time></trkpt><trkpt lat="43.0886567" lon="10.9995517"><ele>578.0</ele><time>2026-05-03T09:07:50.912Z</time></trkpt><trkpt lat="43.088585" lon="10.999525"><ele>578.0</ele><time>2026-05-03T09:07:51.911Z</time></trkpt><trkpt lat="43.0885183" lon="10.999515"><ele>578.0</ele><time>2026-05-03T09:07:52.912Z</time></trkpt><trkpt lat="43.088455" lon="10.9995233"><ele>578.0</ele><time>2026-05-03T09:07:53.912Z</time></trkpt><trkpt lat="43.0883917" lon="10.9995417"><ele>578.0</ele><time>2026-05-03T09:07:54.915Z</time></trkpt><trkpt lat="43.0883217" lon="10.999575"><ele>578.0</ele><time>2026-05-03T09:07:55.915Z</time></trkpt><trkpt lat="43.0882433" lon="10.9996167"><ele>578.0</ele><time>2026-05-03T09:07:56.911Z</time></trkpt><trkpt lat="43.0881633" lon="10.99967"><ele>578.0</ele><time>2026-05-03T09:07:57.911Z</time></trkpt><trkpt lat="43.0880817" lon="10.9997333"><ele>578.0</ele><time>2026-05-03T09:07:58.911Z</time></trkpt><trkpt lat="43.0879933" lon="10.99981"><ele>578.0</ele><time>2026-05-03T09:07:59.912Z</time></trkpt><trkpt lat="43.0879033" lon="10.9998867"><ele>578.1999999999999</ele><time>2026-05-03T09:08:00.911Z</time></trkpt><trkpt lat="43.0878283" lon="10.9999533"><ele>578.4</ele><time>2026-05-03T09:08:01.912Z</time></trkpt><trkpt lat="43.0877617" lon="11.00001"><ele>578.5999999999999</ele><time>2026-05-03T09:08:02.912Z</time></trkpt><trkpt lat="43.087685" lon="11.000115"><ele>578.8</ele><time>2026-05-03T09:08:04.914Z</time></trkpt><trkpt lat="43.087655" lon="11.0002617"><ele>579.0</ele><time>2026-05-03T09:08:06.915Z</time></trkpt><trkpt lat="43.0876367" lon="11.00035"><ele>579.0</ele><time>2026-05-03T09:08:07.912Z</time></trkpt><trkpt lat="43.087625" lon="11.0004433"><ele>579.0</ele><time>2026-05-03T09:08:08.914Z</time></trkpt><trkpt lat="43.0876017" lon="11.000535"><ele>579.0</ele><time>2026-05-03T09:08:09.914Z</time></trkpt><trkpt lat="43.08758" lon="11.0006217"><ele>579.0</ele><time>2026-05-03T09:08:10.911Z</time></trkpt><trkpt lat="43.0875183" lon="11.00076"><ele>579.0</ele><time>2026-05-03T09:08:12.911Z</time></trkpt><trkpt lat="43.0874267" lon="11.0008467"><ele>579.0</ele><time>2026-05-03T09:08:14.912Z</time></trkpt><trkpt lat="43.0873383" lon="11.0009083"><ele>577.1666666666666</ele><time>2026-05-03T09:08:16.914Z</time></trkpt><trkpt lat="43.0872683" lon="11.0009083"><ele>575.3333333333334</ele><time>2026-05-03T09:08:18.911Z</time></trkpt><trkpt lat="43.0871867" lon="11.0008583"><ele>573.5</ele><time>2026-05-03T09:08:21.912Z</time></trkpt><trkpt lat="43.0870767" lon="11.0008033"><ele>571.6666666666667</ele><time>2026-05-03T09:08:23.916Z</time></trkpt><trkpt lat="43.0870133" lon="11.0007983"><ele>569.8333333333334</ele><time>2026-05-03T09:08:24.915Z</time></trkpt><trkpt lat="43.0869483" lon="11.0008083"><ele>568.0</ele><time>2026-05-03T09:08:25.914Z</time></trkpt><trkpt lat="43.0868567" lon="11.000915"><ele>568.0</ele><time>2026-05-03T09:08:27.912Z</time></trkpt><trkpt lat="43.08682" lon="11.0010033"><ele>568.0</ele><time>2026-05-03T09:08:28.911Z</time></trkpt><trkpt lat="43.086785" lon="11.00109"><ele>568.0</ele><time>2026-05-03T09:08:29.912Z</time></trkpt><trkpt lat="43.0866917" lon="11.0012083"><ele>568.0</ele><time>2026-05-03T09:08:31.913Z</time></trkpt><trkpt lat="43.0866233" lon="11.0012617"><ele>568.0</ele><time>2026-05-03T09:08:32.911Z</time></trkpt><trkpt lat="43.0865467" lon="11.0013067"><ele>568.0</ele><time>2026-05-03T09:08:33.913Z</time></trkpt><trkpt lat="43.0864683" lon="11.00134"><ele>565.3333333333334</ele><time>2026-05-03T09:08:34.914Z</time></trkpt><trkpt lat="43.086385" lon="11.0013617"><ele>562.6666666666667</ele><time>2026-05-03T09:08:35.913Z</time></trkpt><trkpt lat="43.086305" lon="11.0013883"><ele>560.0</ele><time>2026-05-03T09:08:36.913Z</time></trkpt><trkpt lat="43.0862283" lon="11.00141"><ele>557.3333333333334</ele><time>2026-05-03T09:08:37.914Z</time></trkpt><trkpt lat="43.0861633" lon="11.0014317"><ele>554.6666666666666</ele><time>2026-05-03T09:08:38.914Z</time></trkpt><trkpt lat="43.0860967" lon="11.00146"><ele>552.0</ele><time>2026-05-03T09:08:39.913Z</time></trkpt><trkpt lat="43.08603" lon="11.0014917"><ele>552.0</ele><time>2026-05-03T09:08:40.913Z</time></trkpt><trkpt lat="43.0859183" lon="11.0015033"><ele>552.0</ele><time>2026-05-03T09:08:42.91Z</time></trkpt><trkpt lat="43.0858167" lon="11.0014183"><ele>552.0</ele><time>2026-05-03T09:08:44.912Z</time></trkpt><trkpt lat="43.0857667" lon="11.0013117"><ele>552.0</ele><time>2026-05-03T09:08:45.911Z</time></trkpt><trkpt lat="43.0857083" lon="11.0012017"><ele>552.0</ele><time>2026-05-03T09:08:46.915Z</time></trkpt><trkpt lat="43.0856517" lon="11.0011217"><ele>552.2857142857143</ele><time>2026-05-03T09:08:47.913Z</time></trkpt><trkpt lat="43.0855817" lon="11.00107"><ele>552.5714285714287</ele><time>2026-05-03T09:08:48.913Z</time></trkpt><trkpt lat="43.0855117" lon="11.00105"><ele>552.8571428571429</ele><time>2026-05-03T09:08:49.914Z</time></trkpt><trkpt lat="43.08544" lon="11.0010717"><ele>553.1428571428571</ele><time>2026-05-03T09:08:50.913Z</time></trkpt><trkpt lat="43.0853817" lon="11.0011233"><ele>553.4285714285713</ele><time>2026-05-03T09:08:51.914Z</time></trkpt><trkpt lat="43.0853367" lon="11.0011983"><ele>553.7142857142857</ele><time>2026-05-03T09:08:52.914Z</time></trkpt><trkpt lat="43.08529" lon="11.0012867"><ele>554.0</ele><time>2026-05-03T09:08:53.913Z</time></trkpt><trkpt lat="43.08525" lon="11.0013783"><ele>554.0</ele><time>2026-05-03T09:08:54.914Z</time></trkpt><trkpt lat="43.0852183" lon="11.0014583"><ele>554.0</ele><time>2026-05-03T09:08:55.914Z</time></trkpt><trkpt lat="43.0851783" lon="11.00153"><ele>554.0</ele><time>2026-05-03T09:08:56.91Z</time></trkpt><trkpt lat="43.0851433" lon="11.0016017"><ele>554.0</ele><time>2026-05-03T09:08:57.911Z</time></trkpt><trkpt lat="43.0851017" lon="11.0016783"><ele>554.0</ele><time>2026-05-03T09:08:58.911Z</time></trkpt><trkpt lat="43.08505" lon="11.001745"><ele>554.0</ele><time>2026-05-03T09:08:59.911Z</time></trkpt><trkpt lat="43.084995" lon="11.0018"><ele>554.0</ele><time>2026-05-03T09:09:00.912Z</time></trkpt><trkpt lat="43.0849317" lon="11.0018283"><ele>553.6666666666666</ele><time>2026-05-03T09:09:01.912Z</time></trkpt><trkpt lat="43.08486" lon="11.0018467"><ele>553.3333333333333</ele><time>2026-05-03T09:09:02.912Z</time></trkpt><trkpt lat="43.084785" lon="11.0018483"><ele>553.0</ele><time>2026-05-03T09:09:03.913Z</time></trkpt><trkpt lat="43.0847067" lon="11.001845"><ele>552.6666666666666</ele><time>2026-05-03T09:09:04.913Z</time></trkpt><trkpt lat="43.0846383" lon="11.001835"><ele>552.3333333333334</ele><time>2026-05-03T09:09:05.918Z</time></trkpt><trkpt lat="43.0845167" lon="11.0018333"><ele>552.0</ele><time>2026-05-03T09:09:07.911Z</time></trkpt><trkpt lat="43.0844533" lon="11.0018417"><ele>552.0</ele><time>2026-05-03T09:09:08.911Z</time></trkpt><trkpt lat="43.0843367" lon="11.001895"><ele>552.0</ele><time>2026-05-03T09:09:10.912Z</time></trkpt><trkpt lat="43.084225" lon="11.0019717"><ele>552.0</ele><time>2026-05-03T09:09:12.914Z</time></trkpt><trkpt lat="43.0841017" lon="11.00202"><ele>552.0</ele><time>2026-05-03T09:09:14.915Z</time></trkpt><trkpt lat="43.0840233" lon="11.002035"><ele>549.1666666666666</ele><time>2026-05-03T09:09:15.911Z</time></trkpt><trkpt lat="43.0839383" lon="11.0020417"><ele>546.3333333333334</ele><time>2026-05-03T09:09:16.912Z</time></trkpt><trkpt lat="43.0838483" lon="11.0020483"><ele>543.5</ele><time>2026-05-03T09:09:17.915Z</time></trkpt><trkpt lat="43.0837617" lon="11.0020467"><ele>540.6666666666667</ele><time>2026-05-03T09:09:18.913Z</time></trkpt><trkpt lat="43.08367" lon="11.002045"><ele>537.8333333333334</ele><time>2026-05-03T09:09:19.914Z</time></trkpt><trkpt lat="43.0835883" lon="11.002045"><ele>535.0</ele><time>2026-05-03T09:09:20.91Z</time></trkpt><trkpt lat="43.0835217" lon="11.0020483"><ele>535.0</ele><time>2026-05-03T09:09:21.912Z</time></trkpt><trkpt lat="43.0834233" lon="11.0020833"><ele>535.0</ele><time>2026-05-03T09:09:23.913Z</time></trkpt><trkpt lat="43.0833117" lon="11.0021367"><ele>535.0</ele><time>2026-05-03T09:09:25.915Z</time></trkpt><trkpt lat="43.08325" lon="11.00217"><ele>535.0</ele><time>2026-05-03T09:09:26.912Z</time></trkpt><trkpt lat="43.0831333" lon="11.002225"><ele>535.0</ele><time>2026-05-03T09:09:28.912Z</time></trkpt><trkpt lat="43.0830233" lon="11.00231"><ele>534.3333333333334</ele><time>2026-05-03T09:09:30.912Z</time></trkpt><trkpt lat="43.0829717" lon="11.0023833"><ele>533.6666666666667</ele><time>2026-05-03T09:09:31.911Z</time></trkpt><trkpt lat="43.0829167" lon="11.0024667"><ele>533.0</ele><time>2026-05-03T09:09:32.911Z</time></trkpt><trkpt lat="43.08286" lon="11.0025417"><ele>532.3333333333334</ele><time>2026-05-03T09:09:33.914Z</time></trkpt><trkpt lat="43.082795" lon="11.0026133"><ele>531.6666666666666</ele><time>2026-05-03T09:09:34.915Z</time></trkpt><trkpt lat="43.08272" lon="11.0026833"><ele>531.0</ele><time>2026-05-03T09:09:35.91Z</time></trkpt><trkpt lat="43.0826417" lon="11.0027533"><ele>531.0</ele><time>2026-05-03T09:09:36.913Z</time></trkpt><trkpt lat="43.08257" lon="11.0028233"><ele>531.0</ele><time>2026-05-03T09:09:37.911Z</time></trkpt><trkpt lat="43.0825083" lon="11.0029083"><ele>531.0</ele><time>2026-05-03T09:09:38.912Z</time></trkpt><trkpt lat="43.0824517" lon="11.003"><ele>531.0</ele><time>2026-05-03T09:09:39.912Z</time></trkpt><trkpt lat="43.0824033" lon="11.0031"><ele>531.0</ele><time>2026-05-03T09:09:40.912Z</time></trkpt><trkpt lat="43.0823583" lon="11.0032033"><ele>531.0</ele><time>2026-05-03T09:09:41.913Z</time></trkpt><trkpt lat="43.082315" lon="11.0033067"><ele>530.0</ele><time>2026-05-03T09:09:42.912Z</time></trkpt><trkpt lat="43.0822767" lon="11.0034067"><ele>529.0</ele><time>2026-05-03T09:09:43.911Z</time></trkpt><trkpt lat="43.0822433" lon="11.0035083"><ele>528.0</ele><time>2026-05-03T09:09:44.911Z</time></trkpt><trkpt lat="43.0822133" lon="11.0036083"><ele>527.0</ele><time>2026-05-03T09:09:45.915Z</time></trkpt><trkpt lat="43.082185" lon="11.0037033"><ele>526.0</ele><time>2026-05-03T09:09:46.911Z</time></trkpt><trkpt lat="43.08215" lon="11.0037867"><ele>525.0</ele><time>2026-05-03T09:09:47.912Z</time></trkpt><trkpt lat="43.082115" lon="11.00386"><ele>525.0</ele><time>2026-05-03T09:09:48.914Z</time></trkpt><trkpt lat="43.0820733" lon="11.0039267"><ele>525.0</ele><time>2026-05-03T09:09:49.911Z</time></trkpt><trkpt lat="43.08201" lon="11.00406"><ele>525.0</ele><time>2026-05-03T09:09:51.915Z</time></trkpt><trkpt lat="43.08198" lon="11.0041983"><ele>525.0</ele><time>2026-05-03T09:09:53.915Z</time></trkpt><trkpt lat="43.0819817" lon="11.00437"><ele>525.0</ele><time>2026-05-03T09:09:55.914Z</time></trkpt><trkpt lat="43.0819867" lon="11.0044667"><ele>525.2857142857143</ele><time>2026-05-03T09:09:56.914Z</time></trkpt><trkpt lat="43.0819817" lon="11.0045617"><ele>525.5714285714286</ele><time>2026-05-03T09:09:57.914Z</time></trkpt><trkpt lat="43.081965" lon="11.0046583"><ele>525.8571428571429</ele><time>2026-05-03T09:09:58.914Z</time></trkpt><trkpt lat="43.0819367" lon="11.00474"><ele>526.1428571428571</ele><time>2026-05-03T09:09:59.914Z</time></trkpt><trkpt lat="43.0818917" lon="11.0048067"><ele>526.4285714285714</ele><time>2026-05-03T09:10:00.914Z</time></trkpt><trkpt lat="43.0818383" lon="11.00486"><ele>526.7142857142858</ele><time>2026-05-03T09:10:01.914Z</time></trkpt><trkpt lat="43.081785" lon="11.0049117"><ele>527.0</ele><time>2026-05-03T09:10:02.918Z</time></trkpt><trkpt lat="43.0816917" lon="11.00503"><ele>525.8000000000001</ele><time>2026-05-03T09:10:04.913Z</time></trkpt><trkpt lat="43.0815917" lon="11.0051333"><ele>524.6</ele><time>2026-05-03T09:10:06.914Z</time></trkpt><trkpt lat="43.0814833" lon="11.0052133"><ele>523.4000000000001</ele><time>2026-05-03T09:10:08.917Z</time></trkpt><trkpt lat="43.0814233" lon="11.0052533"><ele>522.2</ele><time>2026-05-03T09:10:09.912Z</time></trkpt><trkpt lat="43.0813617" lon="11.0052917"><ele>521.0</ele><time>2026-05-03T09:10:10.911Z</time></trkpt><trkpt lat="43.0812933" lon="11.0053283"><ele>521.0</ele><time>2026-05-03T09:10:11.913Z</time></trkpt><trkpt lat="43.0811933" lon="11.0053833"><ele>521.0</ele><time>2026-05-03T09:10:13.912Z</time></trkpt><trkpt lat="43.0811267" lon="11.0054333"><ele>521.0</ele><time>2026-05-03T09:10:16.913Z</time></trkpt><trkpt lat="43.08106" lon="11.005405"><ele>521.0</ele><time>2026-05-03T09:10:47.912Z</time></trkpt><trkpt lat="43.0810533" lon="11.005295"><ele>521.0</ele><time>2026-05-03T09:10:50.913Z</time></trkpt><trkpt lat="43.0810417" lon="11.0052033"><ele>521.0</ele><time>2026-05-03T09:10:52.912Z</time></trkpt><trkpt lat="43.0810167" lon="11.0051183"><ele>521.0</ele><time>2026-05-03T09:10:54.91Z</time></trkpt><trkpt lat="43.0809583" lon="11.005005"><ele>521.0</ele><time>2026-05-03T09:10:56.913Z</time></trkpt><trkpt lat="43.0808833" lon="11.004885"><ele>521.0</ele><time>2026-05-03T09:10:58.912Z</time></trkpt><trkpt lat="43.0808067" lon="11.0047667"><ele>521.0</ele><time>2026-05-03T09:11:00.912Z</time></trkpt><trkpt lat="43.0807367" lon="11.0046517"><ele>521.0</ele><time>2026-05-03T09:11:02.912Z</time></trkpt><trkpt lat="43.0806733" lon="11.0045483"><ele>519.8333333333333</ele><time>2026-05-03T09:11:04.911Z</time></trkpt><trkpt lat="43.080625" lon="11.0044867"><ele>518.6666666666666</ele><time>2026-05-03T09:11:06.914Z</time></trkpt><trkpt lat="43.0805433" lon="11.0044967"><ele>517.5</ele><time>2026-05-03T09:11:08.911Z</time></trkpt><trkpt lat="43.0804417" lon="11.0045833"><ele>516.3333333333334</ele><time>2026-05-03T09:11:10.912Z</time></trkpt><trkpt lat="43.0803883" lon="11.00464"><ele>515.1666666666667</ele><time>2026-05-03T09:11:11.912Z</time></trkpt><trkpt lat="43.080295" lon="11.0047117"><ele>514.0</ele><time>2026-05-03T09:11:13.911Z</time></trkpt><trkpt lat="43.0802333" lon="11.0047333"><ele>514.0</ele><time>2026-05-03T09:11:15.915Z</time></trkpt><trkpt lat="43.0801633" lon="11.00469"><ele>514.0</ele><time>2026-05-03T09:11:18.912Z</time></trkpt><trkpt lat="43.0801083" lon="11.0046067"><ele>514.0</ele><time>2026-05-03T09:11:20.914Z</time></trkpt><trkpt lat="43.0800183" lon="11.0045167"><ele>514.0</ele><time>2026-05-03T09:11:22.912Z</time></trkpt><trkpt lat="43.0799283" lon="11.0044733"><ele>514.0</ele><time>2026-05-03T09:11:24.914Z</time></trkpt><trkpt lat="43.0798433" lon="11.00446"><ele>511.0</ele><time>2026-05-03T09:11:26.914Z</time></trkpt><trkpt lat="43.0797433" lon="11.0044883"><ele>508.0</ele><time>2026-05-03T09:11:47.912Z</time></trkpt><trkpt lat="43.0796283" lon="11.00455"><ele>505.0</ele><time>2026-05-03T09:11:49.911Z</time></trkpt><trkpt lat="43.0795517" lon="11.004605"><ele>502.0</ele><time>2026-05-03T09:11:50.915Z</time></trkpt><trkpt lat="43.0794583" lon="11.0046733"><ele>499.0</ele><time>2026-05-03T09:11:51.914Z</time></trkpt><trkpt lat="43.079365" lon="11.0047333"><ele>499.00000000000006</ele><time>2026-05-03T09:11:52.916Z</time></trkpt><trkpt lat="43.0792883" lon="11.0047783"><ele>499.0</ele><time>2026-05-03T09:11:53.914Z</time></trkpt><trkpt lat="43.0792267" lon="11.00482"><ele>499.0</ele><time>2026-05-03T09:11:54.915Z</time></trkpt><trkpt lat="43.079145" lon="11.00493"><ele>499.0</ele><time>2026-05-03T09:11:56.914Z</time></trkpt><trkpt lat="43.0791183" lon="11.00501"><ele>499.00000000000006</ele><time>2026-05-03T09:11:57.918Z</time></trkpt><trkpt lat="43.07909" lon="11.0050883"><ele>499.0</ele><time>2026-05-03T09:11:58.914Z</time></trkpt><trkpt lat="43.0790267" lon="11.005205"><ele>496.4</ele><time>2026-05-03T09:12:00.914Z</time></trkpt><trkpt lat="43.0789433" lon="11.0052367"><ele>493.79999999999995</ele><time>2026-05-03T09:12:02.914Z</time></trkpt><trkpt lat="43.0788633" lon="11.0051817"><ele>491.20000000000005</ele><time>2026-05-03T09:12:04.914Z</time></trkpt><trkpt lat="43.07876" lon="11.0051417"><ele>488.6</ele><time>2026-05-03T09:12:06.914Z</time></trkpt><trkpt lat="43.0786567" lon="11.0051717"><ele>486.0</ele><time>2026-05-03T09:12:08.917Z</time></trkpt><trkpt lat="43.0785517" lon="11.0052483"><ele>486.0</ele><time>2026-05-03T09:12:10.911Z</time></trkpt><trkpt lat="43.0784833" lon="11.0052783"><ele>486.0</ele><time>2026-05-03T09:12:11.915Z</time></trkpt><trkpt lat="43.07841" lon="11.0053017"><ele>486.0</ele><time>2026-05-03T09:12:12.915Z</time></trkpt><trkpt lat="43.0783433" lon="11.0053217"><ele>486.0</ele><time>2026-05-03T09:12:13.911Z</time></trkpt><trkpt lat="43.07825" lon="11.0053417"><ele>486.0</ele><time>2026-05-03T09:12:15.912Z</time></trkpt><trkpt lat="43.0781867" lon="11.0053517"><ele>486.0</ele><time>2026-05-03T09:12:18.913Z</time></trkpt><trkpt lat="43.0780933" lon="11.005325"><ele>485.6</ele><time>2026-05-03T09:13:27.914Z</time></trkpt><trkpt lat="43.078015" lon="11.005285"><ele>485.20000000000005</ele><time>2026-05-03T09:13:38.913Z</time></trkpt><trkpt lat="43.0779417" lon="11.0052433"><ele>484.79999999999995</ele><time>2026-05-03T09:13:40.915Z</time></trkpt><trkpt lat="43.0778633" lon="11.005245"><ele>484.4</ele><time>2026-05-03T09:13:42.912Z</time></trkpt><trkpt lat="43.0777733" lon="11.005315"><ele>484.0</ele><time>2026-05-03T09:13:44.914Z</time></trkpt><trkpt lat="43.0776767" lon="11.0054083"><ele>484.00000000000006</ele><time>2026-05-03T09:13:46.913Z</time></trkpt><trkpt lat="43.0776183" lon="11.0054517"><ele>484.0</ele><time>2026-05-03T09:13:47.915Z</time></trkpt><trkpt lat="43.0775533" lon="11.005495"><ele>484.0</ele><time>2026-05-03T09:13:48.914Z</time></trkpt><trkpt lat="43.077485" lon="11.00555"><ele>484.0</ele><time>2026-05-03T09:13:49.915Z</time></trkpt><trkpt lat="43.0774267" lon="11.0056217"><ele>484.00000000000006</ele><time>2026-05-03T09:13:50.913Z</time></trkpt><trkpt lat="43.0773683" lon="11.00571"><ele>484.0</ele><time>2026-05-03T09:13:51.913Z</time></trkpt><trkpt lat="43.077315" lon="11.0058033"><ele>483.6666666666667</ele><time>2026-05-03T09:13:52.914Z</time></trkpt><trkpt lat="43.0772667" lon="11.005895"><ele>483.33333333333337</ele><time>2026-05-03T09:13:53.914Z</time></trkpt><trkpt lat="43.0772267" lon="11.005985"><ele>483.0</ele><time>2026-05-03T09:13:54.914Z</time></trkpt><trkpt lat="43.0771883" lon="11.006065"><ele>482.66666666666663</ele><time>2026-05-03T09:13:55.913Z</time></trkpt><trkpt lat="43.0771467" lon="11.00613"><ele>482.3333333333333</ele><time>2026-05-03T09:13:56.913Z</time></trkpt><trkpt lat="43.0770867" lon="11.0062083"><ele>482.0</ele><time>2026-05-03T09:13:58.911Z</time></trkpt><trkpt lat="43.077035" lon="11.0062917"><ele>481.99999999999994</ele><time>2026-05-03T09:14:02.911Z</time></trkpt><trkpt lat="43.0770283" lon="11.0064283"><ele>482.0</ele><time>2026-05-03T09:14:04.911Z</time></trkpt><trkpt lat="43.0770433" lon="11.0065217"><ele>482.0</ele><time>2026-05-03T09:14:05.912Z</time></trkpt><trkpt lat="43.07706" lon="11.0066217"><ele>482.0</ele><time>2026-05-03T09:14:06.911Z</time></trkpt><trkpt lat="43.077075" lon="11.006735"><ele>481.99999999999994</ele><time>2026-05-03T09:14:07.91Z</time></trkpt><trkpt lat="43.0770867" lon="11.0068583"><ele>482.0</ele><time>2026-05-03T09:14:08.913Z</time></trkpt><trkpt lat="43.0771017" lon="11.00699"><ele>482.0</ele><time>2026-05-03T09:14:09.914Z</time></trkpt><trkpt lat="43.0771217" lon="11.0071283"><ele>482.00000000000006</ele><time>2026-05-03T09:14:10.914Z</time></trkpt><trkpt lat="43.0771433" lon="11.007275"><ele>482.00000000000006</ele><time>2026-05-03T09:14:11.915Z</time></trkpt><trkpt lat="43.0771633" lon="11.007425"><ele>482.0</ele><time>2026-05-03T09:14:12.913Z</time></trkpt><trkpt lat="43.0771833" lon="11.0075817"><ele>482.0</ele><time>2026-05-03T09:14:13.915Z</time></trkpt><trkpt lat="43.077205" lon="11.00774"><ele>481.75</ele><time>2026-05-03T09:14:14.914Z</time></trkpt><trkpt lat="43.0772267" lon="11.0079017"><ele>481.5</ele><time>2026-05-03T09:14:15.914Z</time></trkpt><trkpt lat="43.0772483" lon="11.0080617"><ele>481.25</ele><time>2026-05-03T09:14:16.913Z</time></trkpt><trkpt lat="43.07727" lon="11.0082217"><ele>481.0</ele><time>2026-05-03T09:14:17.914Z</time></trkpt><trkpt lat="43.0772917" lon="11.00838"><ele>480.25</ele><time>2026-05-03T09:14:18.914Z</time></trkpt><trkpt lat="43.0773133" lon="11.0085367"><ele>479.5</ele><time>2026-05-03T09:14:19.914Z</time></trkpt><trkpt lat="43.077335" lon="11.0086933"><ele>478.75</ele><time>2026-05-03T09:14:20.913Z</time></trkpt><trkpt lat="43.0773583" lon="11.0088483"><ele>478.0</ele><time>2026-05-03T09:14:21.913Z</time></trkpt><trkpt lat="43.0773817" lon="11.008995"><ele>478.0</ele><time>2026-05-03T09:14:22.914Z</time></trkpt><trkpt lat="43.0774017" lon="11.0091433"><ele>478.0</ele><time>2026-05-03T09:14:23.917Z</time></trkpt><trkpt lat="43.0774217" lon="11.0092967"><ele>478.0</ele><time>2026-05-03T09:14:24.913Z</time></trkpt><trkpt lat="43.0774433" lon="11.0094583"><ele>478.0</ele><time>2026-05-03T09:14:25.914Z</time></trkpt><trkpt lat="43.0774667" lon="11.0096283"><ele>477.75</ele><time>2026-05-03T09:14:26.914Z</time></trkpt><trkpt lat="43.07749" lon="11.0097983"><ele>477.5</ele><time>2026-05-03T09:14:27.911Z</time></trkpt><trkpt lat="43.0775133" lon="11.0099683"><ele>477.25</ele><time>2026-05-03T09:14:28.911Z</time></trkpt><trkpt lat="43.0775367" lon="11.0101383"><ele>477.0</ele><time>2026-05-03T09:14:29.912Z</time></trkpt><trkpt lat="43.0775633" lon="11.0103083"><ele>477.0</ele><time>2026-05-03T09:14:30.911Z</time></trkpt><trkpt lat="43.0775883" lon="11.0104833"><ele>477.0</ele><time>2026-05-03T09:14:31.912Z</time></trkpt><trkpt lat="43.0776133" lon="11.0106583"><ele>477.0</ele><time>2026-05-03T09:14:32.911Z</time></trkpt><trkpt lat="43.0776383" lon="11.01084"><ele>477.0</ele><time>2026-05-03T09:14:33.911Z</time></trkpt><trkpt lat="43.077665" lon="11.0110217"><ele>476.75</ele><time>2026-05-03T09:14:34.911Z</time></trkpt><trkpt lat="43.0776917" lon="11.0112067"><ele>476.5</ele><time>2026-05-03T09:14:35.911Z</time></trkpt><trkpt lat="43.0777183" lon="11.0113933"><ele>476.25</ele><time>2026-05-03T09:14:36.912Z</time></trkpt><trkpt lat="43.077745" lon="11.0115833"><ele>476.0</ele><time>2026-05-03T09:14:37.911Z</time></trkpt><trkpt lat="43.0777683" lon="11.011775"><ele>475.25</ele><time>2026-05-03T09:14:38.913Z</time></trkpt><trkpt lat="43.0777933" lon="11.0119683"><ele>474.5</ele><time>2026-05-03T09:14:39.914Z</time></trkpt><trkpt lat="43.07782" lon="11.0121683"><ele>473.75</ele><time>2026-05-03T09:14:40.913Z</time></trkpt><trkpt lat="43.077845" lon="11.0123667"><ele>473.0</ele><time>2026-05-03T09:14:41.917Z</time></trkpt><trkpt lat="43.0778717" lon="11.0125667"><ele>473.0</ele><time>2026-05-03T09:14:42.913Z</time></trkpt><trkpt lat="43.0778967" lon="11.012765"><ele>473.0</ele><time>2026-05-03T09:14:43.913Z</time></trkpt><trkpt lat="43.0779233" lon="11.0129633"><ele>473.0</ele><time>2026-05-03T09:14:44.914Z</time></trkpt><trkpt lat="43.0779483" lon="11.013155"><ele>473.0</ele><time>2026-05-03T09:14:45.913Z</time></trkpt><trkpt lat="43.0779717" lon="11.01333"><ele>473.0</ele><time>2026-05-03T09:14:46.914Z</time></trkpt><trkpt lat="43.077995" lon="11.0134967"><ele>473.0</ele><time>2026-05-03T09:14:47.921Z</time></trkpt><trkpt lat="43.0780167" lon="11.0136617"><ele>473.0</ele><time>2026-05-03T09:14:48.915Z</time></trkpt><trkpt lat="43.07804" lon="11.0138283"><ele>473.0</ele><time>2026-05-03T09:14:49.916Z</time></trkpt><trkpt lat="43.0780633" lon="11.01399"><ele>473.0</ele><time>2026-05-03T09:14:50.913Z</time></trkpt><trkpt lat="43.0780817" lon="11.0141483"><ele>472.99999999999994</ele><time>2026-05-03T09:14:51.916Z</time></trkpt><trkpt lat="43.0781" lon="11.0142983"><ele>472.99999999999994</ele><time>2026-05-03T09:14:52.915Z</time></trkpt><trkpt lat="43.0781183" lon="11.0144433"><ele>473.0</ele><time>2026-05-03T09:14:53.914Z</time></trkpt><trkpt lat="43.0781367" lon="11.0145867"><ele>473.0</ele><time>2026-05-03T09:14:54.913Z</time></trkpt><trkpt lat="43.0781533" lon="11.0147267"><ele>472.99999999999994</ele><time>2026-05-03T09:14:55.915Z</time></trkpt><trkpt lat="43.07817" lon="11.014855"><ele>473.0</ele><time>2026-05-03T09:14:56.912Z</time></trkpt><trkpt lat="43.078185" lon="11.0149683"><ele>473.0</ele><time>2026-05-03T09:14:57.911Z</time></trkpt><trkpt lat="43.0782" lon="11.015065"><ele>473.0</ele><time>2026-05-03T09:14:58.911Z</time></trkpt><trkpt lat="43.07822" lon="11.01521"><ele>472.99999999999994</ele><time>2026-05-03T09:15:00.912Z</time></trkpt><trkpt lat="43.07826" lon="11.0152967"><ele>473.0</ele><time>2026-05-03T09:15:02.912Z</time></trkpt><trkpt lat="43.0783133" lon="11.0153567"><ele>473.0</ele><time>2026-05-03T09:15:04.912Z</time></trkpt></trkseg><trkseg><trkpt lat="43.078876" lon="11.0187708"><ele>473.0</ele><time>2026-05-03T09:39:46.221Z</time></trkpt><trkpt lat="43.0789322" lon="11.0188499"><ele>473.0</ele><time>2026-05-03T09:39:50.223Z</time></trkpt><trkpt lat="43.0789572" lon="11.0189666"><ele>473.0</ele><time>2026-05-03T09:39:53.068Z</time></trkpt><trkpt lat="43.078928" lon="11.0191932"><ele>473.0</ele><time>2026-05-03T09:39:56.824Z</time></trkpt><trkpt lat="43.0791309" lon="11.0193471"><ele>473.25</ele><time>2026-05-03T09:39:57.85Z</time></trkpt><trkpt lat="43.0791445" lon="11.0194992"><ele>473.5</ele><time>2026-05-03T09:40:00.129Z</time></trkpt><trkpt lat="43.0790602" lon="11.0196969"><ele>473.75</ele><time>2026-05-03T09:40:02.166Z</time></trkpt><trkpt lat="43.0790136" lon="11.0197763"><ele>474.0</ele><time>2026-05-03T09:40:03.165Z</time></trkpt><trkpt lat="43.0789344" lon="11.019884"><ele>474.0</ele><time>2026-05-03T09:40:05.165Z</time></trkpt><trkpt lat="43.0788513" lon="11.0199301"><ele>474.0</ele><time>2026-05-03T09:40:07.165Z</time></trkpt><trkpt lat="43.0787549" lon="11.0199302"><ele>474.0</ele><time>2026-05-03T09:40:09.166Z</time></trkpt><trkpt lat="43.0786783" lon="11.0198585"><ele>474.0</ele><time>2026-05-03T09:40:11.166Z</time></trkpt><trkpt lat="43.0786173" lon="11.019774"><ele>474.0</ele><time>2026-05-03T09:40:13.162Z</time></trkpt><trkpt lat="43.0784941" lon="11.0197258"><ele>474.0</ele><time>2026-05-03T09:40:15.165Z</time></trkpt><trkpt lat="43.0784156" lon="11.0197059"><ele>474.0</ele><time>2026-05-03T09:40:16.165Z</time></trkpt><trkpt lat="43.0783322" lon="11.0196915"><ele>474.0</ele><time>2026-05-03T09:40:17.165Z</time></trkpt><trkpt lat="43.0782598" lon="11.0196861"><ele>474.0</ele><time>2026-05-03T09:40:18.164Z</time></trkpt><trkpt lat="43.0781492" lon="11.0197077"><ele>474.0</ele><time>2026-05-03T09:40:20.165Z</time></trkpt><trkpt lat="43.0780687" lon="11.0197295"><ele>474.0</ele><time>2026-05-03T09:40:22.164Z</time></trkpt><trkpt lat="43.0781862" lon="11.0197309"><ele>474.0</ele><time>2026-05-03T09:43:36.166Z</time></trkpt><trkpt lat="43.078277" lon="11.0197087"><ele>474.0</ele><time>2026-05-03T09:43:37.166Z</time></trkpt><trkpt lat="43.0783586" lon="11.0196979"><ele>474.0</ele><time>2026-05-03T09:43:38.167Z</time></trkpt><trkpt lat="43.0784505" lon="11.0197079"><ele>474.0</ele><time>2026-05-03T09:43:39.163Z</time></trkpt><trkpt lat="43.0785536" lon="11.0197474"><ele>474.0</ele><time>2026-05-03T09:43:40.168Z</time></trkpt><trkpt lat="43.0786547" lon="11.0198059"><ele>474.0</ele><time>2026-05-03T09:43:41.164Z</time></trkpt><trkpt lat="43.0787579" lon="11.0198677"><ele>474.0</ele><time>2026-05-03T09:43:42.168Z</time></trkpt><trkpt lat="43.0788613" lon="11.0199023"><ele>474.0</ele><time>2026-05-03T09:43:43.166Z</time></trkpt><trkpt lat="43.0789589" lon="11.0198937"><ele>474.0</ele><time>2026-05-03T09:43:44.162Z</time></trkpt><trkpt lat="43.0790495" lon="11.0198425"><ele>474.0</ele><time>2026-05-03T09:43:45.165Z</time></trkpt><trkpt lat="43.0791759" lon="11.0196283"><ele>474.2</ele><time>2026-05-03T09:43:47.163Z</time></trkpt><trkpt lat="43.0792085" lon="11.0194839"><ele>474.4</ele><time>2026-05-03T09:43:48.165Z</time></trkpt><trkpt lat="43.0792302" lon="11.0193541"><ele>474.6</ele><time>2026-05-03T09:43:49.165Z</time></trkpt><trkpt lat="43.0792483" lon="11.0192567"><ele>474.8</ele><time>2026-05-03T09:43:50.165Z</time></trkpt><trkpt lat="43.0792833" lon="11.01915"><ele>475.0</ele><time>2026-05-03T09:43:52.167Z</time></trkpt><trkpt lat="43.0793867" lon="11.0191033"><ele>475.0</ele><time>2026-05-03T09:43:55.165Z</time></trkpt><trkpt lat="43.079455" lon="11.01912"><ele>475.0</ele><time>2026-05-03T09:43:56.163Z</time></trkpt><trkpt lat="43.0795367" lon="11.0191517"><ele>475.0</ele><time>2026-05-03T09:43:57.163Z</time></trkpt><trkpt lat="43.07963" lon="11.0191883"><ele>475.0</ele><time>2026-05-03T09:43:58.164Z</time></trkpt><trkpt lat="43.0797383" lon="11.0192367"><ele>475.0</ele><time>2026-05-03T09:43:59.164Z</time></trkpt><trkpt lat="43.0799667" lon="11.0193433"><ele>475.0</ele><time>2026-05-03T09:44:01.163Z</time></trkpt><trkpt lat="43.08009" lon="11.0194"><ele>475.0</ele><time>2026-05-03T09:44:02.163Z</time></trkpt><trkpt lat="43.0802183" lon="11.0194583"><ele>475.0</ele><time>2026-05-03T09:44:03.166Z</time></trkpt><trkpt lat="43.08035" lon="11.01952"><ele>475.0</ele><time>2026-05-03T09:44:04.166Z</time></trkpt><trkpt lat="43.0804833" lon="11.0195867"><ele>475.0</ele><time>2026-05-03T09:44:05.166Z</time></trkpt><trkpt lat="43.0806133" lon="11.0196583"><ele>475.0</ele><time>2026-05-03T09:44:06.162Z</time></trkpt><trkpt lat="43.080745" lon="11.0197367"><ele>475.0</ele><time>2026-05-03T09:44:07.164Z</time></trkpt><trkpt lat="43.0808767" lon="11.01983"><ele>475.0</ele><time>2026-05-03T09:44:08.163Z</time></trkpt><trkpt lat="43.08101" lon="11.019925"><ele>477.0</ele><time>2026-05-03T09:44:09.163Z</time></trkpt><trkpt lat="43.0811483" lon="11.0200233"><ele>479.0</ele><time>2026-05-03T09:44:10.163Z</time></trkpt><trkpt lat="43.0812817" lon="11.02013"><ele>481.0</ele><time>2026-05-03T09:44:11.163Z</time></trkpt><trkpt lat="43.0814183" lon="11.0202333"><ele>481.0</ele><time>2026-05-03T09:44:12.165Z</time></trkpt><trkpt lat="43.0815517" lon="11.020355"><ele>481.0</ele><time>2026-05-03T09:44:13.163Z</time></trkpt><trkpt lat="43.0816717" lon="11.0204933"><ele>481.0</ele><time>2026-05-03T09:44:14.165Z</time></trkpt><trkpt lat="43.0817767" lon="11.0206467"><ele>481.33333333333337</ele><time>2026-05-03T09:44:15.164Z</time></trkpt><trkpt lat="43.0818633" lon="11.02082"><ele>481.66666666666663</ele><time>2026-05-03T09:44:16.162Z</time></trkpt><trkpt lat="43.0819383" lon="11.0210133"><ele>482.0</ele><time>2026-05-03T09:44:17.165Z</time></trkpt><trkpt lat="43.0819933" lon="11.0212167"><ele>482.0</ele><time>2026-05-03T09:44:18.162Z</time></trkpt><trkpt lat="43.082035" lon="11.0214333"><ele>482.0</ele><time>2026-05-03T09:44:19.165Z</time></trkpt><trkpt lat="43.0820767" lon="11.0216483"><ele>482.0</ele><time>2026-05-03T09:44:20.164Z</time></trkpt><trkpt lat="43.08213" lon="11.0218567"><ele>482.66666666666663</ele><time>2026-05-03T09:44:21.164Z</time></trkpt><trkpt lat="43.0821983" lon="11.0220683"><ele>483.33333333333337</ele><time>2026-05-03T09:44:22.161Z</time></trkpt><trkpt lat="43.0822817" lon="11.0222733"><ele>484.0</ele><time>2026-05-03T09:44:23.164Z</time></trkpt><trkpt lat="43.0823667" lon="11.0224817"><ele>484.6666666666667</ele><time>2026-05-03T09:44:24.161Z</time></trkpt><trkpt lat="43.0824533" lon="11.02269"><ele>485.33333333333337</ele><time>2026-05-03T09:44:25.164Z</time></trkpt><trkpt lat="43.082535" lon="11.0229033"><ele>486.0</ele><time>2026-05-03T09:44:26.162Z</time></trkpt><trkpt lat="43.082615" lon="11.0231183"><ele>485.0</ele><time>2026-05-03T09:44:27.162Z</time></trkpt><trkpt lat="43.0826917" lon="11.0233333"><ele>484.0</ele><time>2026-05-03T09:44:28.163Z</time></trkpt><trkpt lat="43.0827667" lon="11.023545"><ele>483.0</ele><time>2026-05-03T09:44:29.162Z</time></trkpt><trkpt lat="43.0828417" lon="11.0237567"><ele>483.0</ele><time>2026-05-03T09:44:30.162Z</time></trkpt><trkpt lat="43.0829133" lon="11.0239717"><ele>483.0</ele><time>2026-05-03T09:44:31.161Z</time></trkpt><trkpt lat="43.0829817" lon="11.024185"><ele>483.0</ele><time>2026-05-03T09:44:32.169Z</time></trkpt><trkpt lat="43.08305" lon="11.0243933"><ele>483.0</ele><time>2026-05-03T09:44:33.162Z</time></trkpt><trkpt lat="43.0831117" lon="11.0246033"><ele>483.0</ele><time>2026-05-03T09:44:34.162Z</time></trkpt><trkpt lat="43.0831667" lon="11.0248117"><ele>483.0</ele><time>2026-05-03T09:44:35.163Z</time></trkpt><trkpt lat="43.0832067" lon="11.0250033"><ele>483.4</ele><time>2026-05-03T09:44:36.162Z</time></trkpt><trkpt lat="43.0832367" lon="11.0251767"><ele>483.79999999999995</ele><time>2026-05-03T09:44:37.162Z</time></trkpt><trkpt lat="43.0832567" lon="11.02533"><ele>484.2</ele><time>2026-05-03T09:44:38.164Z</time></trkpt><trkpt lat="43.083285" lon="11.025465"><ele>484.6</ele><time>2026-05-03T09:44:39.164Z</time></trkpt><trkpt lat="43.083335" lon="11.02558"><ele>485.0</ele><time>2026-05-03T09:44:40.165Z</time></trkpt><trkpt lat="43.0834133" lon="11.02566"><ele>484.16666666666663</ele><time>2026-05-03T09:44:41.165Z</time></trkpt><trkpt lat="43.08351" lon="11.0257067"><ele>483.3333333333333</ele><time>2026-05-03T09:44:42.165Z</time></trkpt><trkpt lat="43.0836083" lon="11.0257333"><ele>482.5</ele><time>2026-05-03T09:44:43.168Z</time></trkpt><trkpt lat="43.0836983" lon="11.0257467"><ele>481.66666666666663</ele><time>2026-05-03T09:44:44.166Z</time></trkpt><trkpt lat="43.0837767" lon="11.025755"><ele>480.8333333333333</ele><time>2026-05-03T09:44:45.165Z</time></trkpt><trkpt lat="43.0838433" lon="11.02576"><ele>480.0</ele><time>2026-05-03T09:44:46.165Z</time></trkpt><trkpt lat="43.0839533" lon="11.0257683"><ele>480.0</ele><time>2026-05-03T09:44:48.165Z</time></trkpt><trkpt lat="43.0840317" lon="11.025775"><ele>480.0</ele><time>2026-05-03T09:44:50.165Z</time></trkpt><trkpt lat="43.08413" lon="11.025785"><ele>480.0</ele><time>2026-05-03T09:44:52.165Z</time></trkpt><trkpt lat="43.0841967" lon="11.0257867"><ele>480.0</ele><time>2026-05-03T09:44:53.164Z</time></trkpt><trkpt lat="43.08428" lon="11.0258"><ele>480.0</ele><time>2026-05-03T09:44:54.165Z</time></trkpt><trkpt lat="43.0843967" lon="11.0258167"><ele>480.0</ele><time>2026-05-03T09:44:55.163Z</time></trkpt><trkpt lat="43.084535" lon="11.0258467"><ele>478.0</ele><time>2026-05-03T09:44:56.163Z</time></trkpt><trkpt lat="43.08469" lon="11.025895"><ele>476.0</ele><time>2026-05-03T09:44:57.162Z</time></trkpt><trkpt lat="43.0848633" lon="11.0259517"><ele>474.0</ele><time>2026-05-03T09:44:58.163Z</time></trkpt><trkpt lat="43.0850467" lon="11.0260167"><ele>474.0</ele><time>2026-05-03T09:44:59.163Z</time></trkpt><trkpt lat="43.085235" lon="11.026085"><ele>474.0</ele><time>2026-05-03T09:45:00.162Z</time></trkpt><trkpt lat="43.0854267" lon="11.0261467"><ele>474.0</ele><time>2026-05-03T09:45:01.162Z</time></trkpt><trkpt lat="43.0856233" lon="11.0261983"><ele>474.0</ele><time>2026-05-03T09:45:02.162Z</time></trkpt><trkpt lat="43.0858233" lon="11.0262217"><ele>474.0</ele><time>2026-05-03T09:45:03.162Z</time></trkpt><trkpt lat="43.086025" lon="11.026215"><ele>474.0</ele><time>2026-05-03T09:45:04.162Z</time></trkpt><trkpt lat="43.0862283" lon="11.026195"><ele>474.0</ele><time>2026-05-03T09:45:05.162Z</time></trkpt><trkpt lat="43.0864267" lon="11.026155"><ele>474.0</ele><time>2026-05-03T09:45:06.164Z</time></trkpt><trkpt lat="43.0866183" lon="11.0261017"><ele>474.0</ele><time>2026-05-03T09:45:07.163Z</time></trkpt><trkpt lat="43.0868" lon="11.0260283"><ele>473.66666666666663</ele><time>2026-05-03T09:45:08.162Z</time></trkpt><trkpt lat="43.0869683" lon="11.0259283"><ele>473.3333333333333</ele><time>2026-05-03T09:45:09.162Z</time></trkpt><trkpt lat="43.0871183" lon="11.025795"><ele>473.0</ele><time>2026-05-03T09:45:10.163Z</time></trkpt><trkpt lat="43.0872517" lon="11.025625"><ele>474.66666666666663</ele><time>2026-05-03T09:45:11.163Z</time></trkpt><trkpt lat="43.0873733" lon="11.0254383"><ele>476.33333333333337</ele><time>2026-05-03T09:45:12.161Z</time></trkpt><trkpt lat="43.0874817" lon="11.0252283"><ele>478.0</ele><time>2026-05-03T09:45:13.163Z</time></trkpt><trkpt lat="43.0875883" lon="11.0250183"><ele>479.6666666666667</ele><time>2026-05-03T09:45:14.163Z</time></trkpt><trkpt lat="43.0877017" lon="11.02483"><ele>481.33333333333337</ele><time>2026-05-03T09:45:15.163Z</time></trkpt><trkpt lat="43.0878217" lon="11.02467"><ele>483.0</ele><time>2026-05-03T09:45:16.162Z</time></trkpt><trkpt lat="43.0879383" lon="11.024535"><ele>483.0</ele><time>2026-05-03T09:45:17.163Z</time></trkpt><trkpt lat="43.0880617" lon="11.0244467"><ele>483.0</ele><time>2026-05-03T09:45:18.162Z</time></trkpt><trkpt lat="43.0881783" lon="11.0243933"><ele>483.0</ele><time>2026-05-03T09:45:19.163Z</time></trkpt><trkpt lat="43.0883117" lon="11.024395"><ele>483.0</ele><time>2026-05-03T09:45:20.165Z</time></trkpt><trkpt lat="43.0884717" lon="11.0244883"><ele>476.66666666666663</ele><time>2026-05-03T09:45:21.165Z</time></trkpt><trkpt lat="43.0886067" lon="11.0245833"><ele>470.3333333333333</ele><time>2026-05-03T09:45:22.163Z</time></trkpt><trkpt lat="43.088735" lon="11.0246967"><ele>464.0</ele><time>2026-05-03T09:45:23.164Z</time></trkpt><trkpt lat="43.0888633" lon="11.0248217"><ele>464.0</ele><time>2026-05-03T09:45:24.163Z</time></trkpt><trkpt lat="43.0890033" lon="11.02495"><ele>464.0</ele><time>2026-05-03T09:45:25.163Z</time></trkpt><trkpt lat="43.08914" lon="11.0250833"><ele>464.0</ele><time>2026-05-03T09:45:26.163Z</time></trkpt><trkpt lat="43.089285" lon="11.02523"><ele>467.0</ele><time>2026-05-03T09:45:27.163Z</time></trkpt><trkpt lat="43.0894317" lon="11.0253833"><ele>470.0</ele><time>2026-05-03T09:45:28.165Z</time></trkpt><trkpt lat="43.0895833" lon="11.0255333"><ele>473.0</ele><time>2026-05-03T09:45:29.163Z</time></trkpt><trkpt lat="43.0897333" lon="11.0256733"><ele>473.0</ele><time>2026-05-03T09:45:30.163Z</time></trkpt><trkpt lat="43.0898833" lon="11.025775"><ele>473.0</ele><time>2026-05-03T09:45:31.163Z</time></trkpt><trkpt lat="43.090045" lon="11.02584"><ele>473.0</ele><time>2026-05-03T09:45:32.163Z</time></trkpt><trkpt lat="43.0902083" lon="11.0258783"><ele>472.0</ele><time>2026-05-03T09:45:33.163Z</time></trkpt><trkpt lat="43.0903767" lon="11.0259183"><ele>471.0</ele><time>2026-05-03T09:45:34.163Z</time></trkpt><trkpt lat="43.0905433" lon="11.0259583"><ele>470.0</ele><time>2026-05-03T09:45:35.164Z</time></trkpt><trkpt lat="43.0907067" lon="11.0259917"><ele>468.3333333333333</ele><time>2026-05-03T09:45:36.163Z</time></trkpt><trkpt lat="43.0908733" lon="11.0260267"><ele>466.66666666666663</ele><time>2026-05-03T09:45:37.165Z</time></trkpt><trkpt lat="43.0910367" lon="11.0260783"><ele>465.0</ele><time>2026-05-03T09:45:38.163Z</time></trkpt><trkpt lat="43.091195" lon="11.0261617"><ele>465.0</ele><time>2026-05-03T09:45:39.167Z</time></trkpt><trkpt lat="43.091345" lon="11.026265"><ele>465.0</ele><time>2026-05-03T09:45:40.162Z</time></trkpt><trkpt lat="43.0914917" lon="11.0263933"><ele>465.0</ele><time>2026-05-03T09:45:41.164Z</time></trkpt><trkpt lat="43.0916333" lon="11.0265283"><ele>463.0</ele><time>2026-05-03T09:45:42.165Z</time></trkpt><trkpt lat="43.091785" lon="11.0266617"><ele>461.0</ele><time>2026-05-03T09:45:43.165Z</time></trkpt><trkpt lat="43.09194" lon="11.0267683"><ele>459.0</ele><time>2026-05-03T09:45:44.169Z</time></trkpt><trkpt lat="43.0920967" lon="11.0268533"><ele>459.0</ele><time>2026-05-03T09:45:45.162Z</time></trkpt><trkpt lat="43.09225" lon="11.0269183"><ele>459.0</ele><time>2026-05-03T09:45:46.165Z</time></trkpt><trkpt lat="43.0924017" lon="11.0269817"><ele>459.0</ele><time>2026-05-03T09:45:47.165Z</time></trkpt><trkpt lat="43.0925367" lon="11.02707"><ele>460.0</ele><time>2026-05-03T09:45:48.161Z</time></trkpt><trkpt lat="43.0926267" lon="11.0272317"><ele>461.0</ele><time>2026-05-03T09:45:49.165Z</time></trkpt><trkpt lat="43.0926983" lon="11.0274217"><ele>462.0</ele><time>2026-05-03T09:45:50.162Z</time></trkpt><trkpt lat="43.0927633" lon="11.02762"><ele>462.0</ele><time>2026-05-03T09:45:51.163Z</time></trkpt><trkpt lat="43.0928133" lon="11.0278517"><ele>462.0</ele><time>2026-05-03T09:45:52.164Z</time></trkpt><trkpt lat="43.0928867" lon="11.0280633"><ele>462.0</ele><time>2026-05-03T09:45:53.165Z</time></trkpt><trkpt lat="43.0929883" lon="11.0282417"><ele>462.0</ele><time>2026-05-03T09:45:54.165Z</time></trkpt><trkpt lat="43.0931083" lon="11.028385"><ele>462.0</ele><time>2026-05-03T09:45:55.166Z</time></trkpt><trkpt lat="43.0932583" lon="11.0284833"><ele>462.0</ele><time>2026-05-03T09:45:56.165Z</time></trkpt><trkpt lat="43.0934283" lon="11.028555"><ele>462.0</ele><time>2026-05-03T09:45:57.166Z</time></trkpt><trkpt lat="43.093595" lon="11.0286233"><ele>462.0</ele><time>2026-05-03T09:45:58.166Z</time></trkpt><trkpt lat="43.0937483" lon="11.0287117"><ele>462.0</ele><time>2026-05-03T09:45:59.165Z</time></trkpt><trkpt lat="43.0938867" lon="11.028825"><ele>462.0</ele><time>2026-05-03T09:46:00.167Z</time></trkpt><trkpt lat="43.0940167" lon="11.0289733"><ele>462.0</ele><time>2026-05-03T09:46:01.165Z</time></trkpt><trkpt lat="43.09414" lon="11.0291467"><ele>462.0</ele><time>2026-05-03T09:46:02.163Z</time></trkpt><trkpt lat="43.0942767" lon="11.02934"><ele>460.0</ele><time>2026-05-03T09:46:03.162Z</time></trkpt><trkpt lat="43.09442" lon="11.0295383"><ele>458.0</ele><time>2026-05-03T09:46:04.162Z</time></trkpt><trkpt lat="43.0945683" lon="11.0297383"><ele>456.0</ele><time>2026-05-03T09:46:05.162Z</time></trkpt><trkpt lat="43.0947217" lon="11.0299483"><ele>455.66666666666663</ele><time>2026-05-03T09:46:06.162Z</time></trkpt><trkpt lat="43.0948667" lon="11.0301733"><ele>455.3333333333333</ele><time>2026-05-03T09:46:07.163Z</time></trkpt><trkpt lat="43.0949967" lon="11.0304017"><ele>455.0</ele><time>2026-05-03T09:46:08.163Z</time></trkpt><trkpt lat="43.0951083" lon="11.0306333"><ele>459.0</ele><time>2026-05-03T09:46:09.162Z</time></trkpt><trkpt lat="43.095215" lon="11.0308567"><ele>463.0</ele><time>2026-05-03T09:46:10.163Z</time></trkpt><trkpt lat="43.0953417" lon="11.0310467"><ele>467.0</ele><time>2026-05-03T09:46:11.163Z</time></trkpt><trkpt lat="43.0954867" lon="11.031215"><ele>467.0</ele><time>2026-05-03T09:46:12.163Z</time></trkpt><trkpt lat="43.0956533" lon="11.0313533"><ele>467.0</ele><time>2026-05-03T09:46:13.162Z</time></trkpt><trkpt lat="43.0958483" lon="11.0314667"><ele>467.0</ele><time>2026-05-03T09:46:14.162Z</time></trkpt><trkpt lat="43.09606" lon="11.0315617"><ele>468.0</ele><time>2026-05-03T09:46:15.162Z</time></trkpt><trkpt lat="43.0962783" lon="11.0316567"><ele>469.0</ele><time>2026-05-03T09:46:16.162Z</time></trkpt><trkpt lat="43.0964983" lon="11.0317483"><ele>462.5</ele><time>2026-05-03T09:46:17.164Z</time></trkpt><trkpt lat="43.0967183" lon="11.0318433"><ele>456.0</ele><time>2026-05-03T09:46:18.162Z</time></trkpt><trkpt lat="43.0969283" lon="11.0319417"><ele>456.0</ele><time>2026-05-03T09:46:19.163Z</time></trkpt><trkpt lat="43.09713" lon="11.0320417"><ele>456.0</ele><time>2026-05-03T09:46:20.162Z</time></trkpt><trkpt lat="43.09732" lon="11.03214"><ele>456.0</ele><time>2026-05-03T09:46:21.163Z</time></trkpt><trkpt lat="43.0975033" lon="11.0322417"><ele>455.33333333333337</ele><time>2026-05-03T09:46:22.163Z</time></trkpt><trkpt lat="43.0976833" lon="11.03235"><ele>454.6666666666667</ele><time>2026-05-03T09:46:23.17Z</time></trkpt><trkpt lat="43.0978517" lon="11.0324717"><ele>454.0</ele><time>2026-05-03T09:46:24.162Z</time></trkpt><trkpt lat="43.0979967" lon="11.0326033"><ele>454.0</ele><time>2026-05-03T09:46:25.163Z</time></trkpt><trkpt lat="43.098115" lon="11.0327533"><ele>454.0</ele><time>2026-05-03T09:46:26.163Z</time></trkpt><trkpt lat="43.0981983" lon="11.032915"><ele>454.0</ele><time>2026-05-03T09:46:27.162Z</time></trkpt><trkpt lat="43.09826" lon="11.0330933"><ele>454.0</ele><time>2026-05-03T09:46:28.162Z</time></trkpt><trkpt lat="43.098305" lon="11.0332883"><ele>454.0</ele><time>2026-05-03T09:46:29.166Z</time></trkpt><trkpt lat="43.098345" lon="11.0335017"><ele>454.0</ele><time>2026-05-03T09:46:30.165Z</time></trkpt><trkpt lat="43.0983817" lon="11.0337267"><ele>452.6666666666667</ele><time>2026-05-03T09:46:31.166Z</time></trkpt><trkpt lat="43.0984167" lon="11.0339583"><ele>451.33333333333337</ele><time>2026-05-03T09:46:32.162Z</time></trkpt><trkpt lat="43.09845" lon="11.034195"><ele>450.0</ele><time>2026-05-03T09:46:33.163Z</time></trkpt><trkpt lat="43.0984733" lon="11.0344333"><ele>448.33333333333337</ele><time>2026-05-03T09:46:34.165Z</time></trkpt><trkpt lat="43.0984967" lon="11.034665"><ele>446.6666666666667</ele><time>2026-05-03T09:46:35.165Z</time></trkpt><trkpt lat="43.09853" lon="11.034895"><ele>445.0</ele><time>2026-05-03T09:46:36.165Z</time></trkpt><trkpt lat="43.098575" lon="11.0351117"><ele>450.6666666666667</ele><time>2026-05-03T09:46:37.163Z</time></trkpt><trkpt lat="43.09864" lon="11.0352967"><ele>456.33333333333337</ele><time>2026-05-03T09:46:38.163Z</time></trkpt><trkpt lat="43.098745" lon="11.0354483"><ele>462.0</ele><time>2026-05-03T09:46:39.163Z</time></trkpt><trkpt lat="43.0988817" lon="11.035555"><ele>462.0</ele><time>2026-05-03T09:46:40.163Z</time></trkpt><trkpt lat="43.0990267" lon="11.0356117"><ele>462.0</ele><time>2026-05-03T09:46:41.163Z</time></trkpt><trkpt lat="43.09919" lon="11.0356233"><ele>462.0</ele><time>2026-05-03T09:46:42.163Z</time></trkpt><trkpt lat="43.0993733" lon="11.0356233"><ele>456.33333333333337</ele><time>2026-05-03T09:46:43.162Z</time></trkpt><trkpt lat="43.0995617" lon="11.0356083"><ele>450.6666666666667</ele><time>2026-05-03T09:46:44.163Z</time></trkpt><trkpt lat="43.0997517" lon="11.03562"><ele>445.0</ele><time>2026-05-03T09:46:45.163Z</time></trkpt><trkpt lat="43.09994" lon="11.0356533"><ele>445.0</ele><time>2026-05-03T09:46:46.162Z</time></trkpt><trkpt lat="43.1001217" lon="11.0356783"><ele>445.0</ele><time>2026-05-03T09:46:47.164Z</time></trkpt><trkpt lat="43.10029" lon="11.03566"><ele>445.0</ele><time>2026-05-03T09:46:48.162Z</time></trkpt><trkpt lat="43.1004383" lon="11.0355933"><ele>445.0</ele><time>2026-05-03T09:46:49.165Z</time></trkpt><trkpt lat="43.1005633" lon="11.0354883"><ele>445.0</ele><time>2026-05-03T09:46:50.165Z</time></trkpt><trkpt lat="43.100675" lon="11.0353467"><ele>445.0</ele><time>2026-05-03T09:46:51.256Z</time></trkpt><trkpt lat="43.1007733" lon="11.0351933"><ele>445.0</ele><time>2026-05-03T09:46:52.164Z</time></trkpt><trkpt lat="43.1008833" lon="11.0350467"><ele>444.33333333333337</ele><time>2026-05-03T09:46:53.163Z</time></trkpt><trkpt lat="43.10099" lon="11.0349317"><ele>443.66666666666663</ele><time>2026-05-03T09:46:54.164Z</time></trkpt><trkpt lat="43.1011183" lon="11.0348567"><ele>443.0</ele><time>2026-05-03T09:46:55.163Z</time></trkpt><trkpt lat="43.1013083" lon="11.034875"><ele>443.0</ele><time>2026-05-03T09:46:56.163Z</time></trkpt><trkpt lat="43.1014933" lon="11.0348883"><ele>443.0</ele><time>2026-05-03T09:46:57.162Z</time></trkpt><trkpt lat="43.101675" lon="11.034865"><ele>443.0</ele><time>2026-05-03T09:46:58.162Z</time></trkpt><trkpt lat="43.1018583" lon="11.0348233"><ele>440.3333333333333</ele><time>2026-05-03T09:46:59.163Z</time></trkpt><trkpt lat="43.1020183" lon="11.0347283"><ele>437.66666666666663</ele><time>2026-05-03T09:47:00.163Z</time></trkpt><trkpt lat="43.1021517" lon="11.034625"><ele>435.0</ele><time>2026-05-03T09:47:01.163Z</time></trkpt><trkpt lat="43.102275" lon="11.0345617"><ele>435.0</ele><time>2026-05-03T09:47:02.162Z</time></trkpt><trkpt lat="43.102395" lon="11.034555"><ele>435.0</ele><time>2026-05-03T09:47:03.162Z</time></trkpt><trkpt lat="43.1025033" lon="11.0345917"><ele>435.0</ele><time>2026-05-03T09:47:04.164Z</time></trkpt><trkpt lat="43.102625" lon="11.0347033"><ele>435.0</ele><time>2026-05-03T09:47:05.163Z</time></trkpt><trkpt lat="43.1027533" lon="11.0348517"><ele>440.33333333333337</ele><time>2026-05-03T09:47:06.162Z</time></trkpt><trkpt lat="43.1028917" lon="11.0349883"><ele>445.6666666666667</ele><time>2026-05-03T09:47:07.162Z</time></trkpt><trkpt lat="43.1030417" lon="11.0350833"><ele>451.0</ele><time>2026-05-03T09:47:08.165Z</time></trkpt><trkpt lat="43.1031983" lon="11.0351483"><ele>447.0</ele><time>2026-05-03T09:47:09.164Z</time></trkpt><trkpt lat="43.1033533" lon="11.03519"><ele>443.0</ele><time>2026-05-03T09:47:10.164Z</time></trkpt><trkpt lat="43.1035067" lon="11.03523"><ele>439.0</ele><time>2026-05-03T09:47:11.162Z</time></trkpt><trkpt lat="43.10365" lon="11.035275"><ele>439.0</ele><time>2026-05-03T09:47:12.163Z</time></trkpt><trkpt lat="43.103795" lon="11.0353417"><ele>439.0</ele><time>2026-05-03T09:47:13.163Z</time></trkpt><trkpt lat="43.1039317" lon="11.0354033"><ele>439.0</ele><time>2026-05-03T09:47:14.165Z</time></trkpt><trkpt lat="43.1040583" lon="11.035455"><ele>439.0</ele><time>2026-05-03T09:47:15.165Z</time></trkpt><trkpt lat="43.10417" lon="11.0354933"><ele>436.33333333333337</ele><time>2026-05-03T09:47:16.165Z</time></trkpt><trkpt lat="43.104265" lon="11.035525"><ele>433.6666666666667</ele><time>2026-05-03T09:47:17.165Z</time></trkpt><trkpt lat="43.104345" lon="11.0355533"><ele>431.0</ele><time>2026-05-03T09:47:18.161Z</time></trkpt><trkpt lat="43.1044117" lon="11.035565"><ele>428.33333333333337</ele><time>2026-05-03T09:47:19.165Z</time></trkpt><trkpt lat="43.1045183" lon="11.0355017"><ele>425.6666666666667</ele><time>2026-05-03T09:47:21.162Z</time></trkpt><trkpt lat="43.1045633" lon="11.0354133"><ele>423.0</ele><time>2026-05-03T09:47:22.165Z</time></trkpt><trkpt lat="43.104625" lon="11.035295"><ele>423.0</ele><time>2026-05-03T09:47:23.163Z</time></trkpt><trkpt lat="43.1046867" lon="11.0351767"><ele>423.0</ele><time>2026-05-03T09:47:24.165Z</time></trkpt><trkpt lat="43.104755" lon="11.0350467"><ele>423.0</ele><time>2026-05-03T09:47:25.164Z</time></trkpt><trkpt lat="43.10483" lon="11.0349083"><ele>423.0</ele><time>2026-05-03T09:47:26.161Z</time></trkpt><trkpt lat="43.1049117" lon="11.0347617"><ele>422.5</ele><time>2026-05-03T09:47:27.162Z</time></trkpt><trkpt lat="43.1050033" lon="11.0346117"><ele>422.0</ele><time>2026-05-03T09:47:28.162Z</time></trkpt><trkpt lat="43.1051083" lon="11.0344783"><ele>421.5</ele><time>2026-05-03T09:47:29.164Z</time></trkpt><trkpt lat="43.1052233" lon="11.034365"><ele>421.0</ele><time>2026-05-03T09:47:30.162Z</time></trkpt><trkpt lat="43.1053467" lon="11.0342833"><ele>421.0</ele><time>2026-05-03T09:47:31.164Z</time></trkpt><trkpt lat="43.10548" lon="11.0342467"><ele>421.0</ele><time>2026-05-03T09:47:32.164Z</time></trkpt><trkpt lat="43.1056367" lon="11.03426"><ele>421.0</ele><time>2026-05-03T09:47:33.166Z</time></trkpt><trkpt lat="43.1058117" lon="11.0343117"><ele>426.0</ele><time>2026-05-03T09:47:34.164Z</time></trkpt><trkpt lat="43.1059817" lon="11.0344033"><ele>431.0</ele><time>2026-05-03T09:47:35.165Z</time></trkpt><trkpt lat="43.1061317" lon="11.0345183"><ele>436.0</ele><time>2026-05-03T09:47:36.165Z</time></trkpt><trkpt lat="43.1062567" lon="11.03466"><ele>436.0</ele><time>2026-05-03T09:47:37.165Z</time></trkpt><trkpt lat="43.1063633" lon="11.0348183"><ele>436.0</ele><time>2026-05-03T09:47:38.165Z</time></trkpt><trkpt lat="43.1064783" lon="11.0349433"><ele>436.0</ele><time>2026-05-03T09:47:39.165Z</time></trkpt><trkpt lat="43.1066117" lon="11.0350017"><ele>436.0</ele><time>2026-05-03T09:47:40.162Z</time></trkpt><trkpt lat="43.1067583" lon="11.0349917"><ele>442.0</ele><time>2026-05-03T09:47:41.163Z</time></trkpt><trkpt lat="43.1069067" lon="11.0349283"><ele>448.0</ele><time>2026-05-03T09:47:42.165Z</time></trkpt><trkpt lat="43.107055" lon="11.0348467"><ele>454.0</ele><time>2026-05-03T09:47:43.165Z</time></trkpt><trkpt lat="43.1072067" lon="11.034765"><ele>454.0</ele><time>2026-05-03T09:47:44.168Z</time></trkpt><trkpt lat="43.1073483" lon="11.0346883"><ele>454.0</ele><time>2026-05-03T09:47:45.161Z</time></trkpt><trkpt lat="43.1074683" lon="11.03463"><ele>454.0</ele><time>2026-05-03T09:47:46.164Z</time></trkpt><trkpt lat="43.1075733" lon="11.0346167"><ele>454.0</ele><time>2026-05-03T09:47:47.165Z</time></trkpt><trkpt lat="43.1076683" lon="11.0346533"><ele>454.2</ele><time>2026-05-03T09:47:48.164Z</time></trkpt><trkpt lat="43.1077367" lon="11.034715"><ele>454.4</ele><time>2026-05-03T09:47:49.164Z</time></trkpt><trkpt lat="43.1077983" lon="11.0347917"><ele>454.6</ele><time>2026-05-03T09:47:50.166Z</time></trkpt><trkpt lat="43.10782" lon="11.0349417"><ele>454.8</ele><time>2026-05-03T09:47:51.164Z</time></trkpt><trkpt lat="43.10781" lon="11.0350983"><ele>455.0</ele><time>2026-05-03T09:47:52.165Z</time></trkpt><trkpt lat="43.1077417" lon="11.0353017"><ele>452.3333333333333</ele><time>2026-05-03T09:47:53.165Z</time></trkpt><trkpt lat="43.107625" lon="11.03551"><ele>449.66666666666663</ele><time>2026-05-03T09:47:54.162Z</time></trkpt><trkpt lat="43.1075433" lon="11.03569"><ele>447.0</ele><time>2026-05-03T09:47:55.162Z</time></trkpt><trkpt lat="43.1074683" lon="11.03587"><ele>447.0</ele><time>2026-05-03T09:47:56.162Z</time></trkpt><trkpt lat="43.107465" lon="11.036035"><ele>447.0</ele><time>2026-05-03T09:47:57.167Z</time></trkpt><trkpt lat="43.1075117" lon="11.0361983"><ele>447.0</ele><time>2026-05-03T09:47:58.162Z</time></trkpt><trkpt lat="43.1076" lon="11.0363233"><ele>447.0</ele><time>2026-05-03T09:47:59.163Z</time></trkpt><trkpt lat="43.1077233" lon="11.0363967"><ele>447.0</ele><time>2026-05-03T09:48:00.165Z</time></trkpt><trkpt lat="43.1078717" lon="11.0364133"><ele>447.0</ele><time>2026-05-03T09:48:01.165Z</time></trkpt><trkpt lat="43.1080317" lon="11.0363967"><ele>447.0</ele><time>2026-05-03T09:48:02.164Z</time></trkpt><trkpt lat="43.1082017" lon="11.0363667"><ele>454.66666666666663</ele><time>2026-05-03T09:48:03.164Z</time></trkpt><trkpt lat="43.1083733" lon="11.0363617"><ele>462.3333333333333</ele><time>2026-05-03T09:48:04.165Z</time></trkpt><trkpt lat="43.1085267" lon="11.03637"><ele>470.0</ele><time>2026-05-03T09:48:05.163Z</time></trkpt><trkpt lat="43.10865" lon="11.03641"><ele>470.0</ele><time>2026-05-03T09:48:06.162Z</time></trkpt><trkpt lat="43.1087267" lon="11.0364933"><ele>470.0</ele><time>2026-05-03T09:48:07.162Z</time></trkpt><trkpt lat="43.1087733" lon="11.0366233"><ele>470.0</ele><time>2026-05-03T09:48:08.162Z</time></trkpt><trkpt lat="43.1087967" lon="11.0367767"><ele>470.0</ele><time>2026-05-03T09:48:09.162Z</time></trkpt><trkpt lat="43.1087933" lon="11.0369717"><ele>465.66666666666663</ele><time>2026-05-03T09:48:10.163Z</time></trkpt><trkpt lat="43.1087983" lon="11.0371867"><ele>461.33333333333337</ele><time>2026-05-03T09:48:11.162Z</time></trkpt><trkpt lat="43.108835" lon="11.0373967"><ele>457.0</ele><time>2026-05-03T09:48:12.165Z</time></trkpt><trkpt lat="43.1089067" lon="11.0375767"><ele>455.0</ele><time>2026-05-03T09:48:13.163Z</time></trkpt><trkpt lat="43.1090067" lon="11.0377"><ele>453.0</ele><time>2026-05-03T09:48:14.164Z</time></trkpt><trkpt lat="43.109155" lon="11.03778"><ele>451.0</ele><time>2026-05-03T09:48:15.164Z</time></trkpt><trkpt lat="43.109315" lon="11.0378417"><ele>455.6666666666667</ele><time>2026-05-03T09:48:16.164Z</time></trkpt><trkpt lat="43.109475" lon="11.0379"><ele>460.33333333333337</ele><time>2026-05-03T09:48:17.165Z</time></trkpt><trkpt lat="43.109625" lon="11.03797"><ele>465.0</ele><time>2026-05-03T09:48:18.165Z</time></trkpt><trkpt lat="43.1097583" lon="11.0380183"><ele>465.0</ele><time>2026-05-03T09:48:19.164Z</time></trkpt><trkpt lat="43.109895" lon="11.0380217"><ele>465.0</ele><time>2026-05-03T09:48:20.163Z</time></trkpt><trkpt lat="43.1100483" lon="11.037965"><ele>465.0</ele><time>2026-05-03T09:48:21.166Z</time></trkpt><trkpt lat="43.1102067" lon="11.0378917"><ele>468.0</ele><time>2026-05-03T09:48:22.164Z</time></trkpt><trkpt lat="43.1103783" lon="11.0378317"><ele>471.0</ele><time>2026-05-03T09:48:23.166Z</time></trkpt><trkpt lat="43.1105617" lon="11.037785"><ele>474.0</ele><time>2026-05-03T09:48:24.162Z</time></trkpt><trkpt lat="43.1107367" lon="11.037765"><ele>475.0</ele><time>2026-05-03T09:48:25.166Z</time></trkpt><trkpt lat="43.1109017" lon="11.0377683"><ele>476.0</ele><time>2026-05-03T09:48:26.166Z</time></trkpt><trkpt lat="43.1110583" lon="11.0377783"><ele>477.0</ele><time>2026-05-03T09:48:27.165Z</time></trkpt><trkpt lat="43.1112067" lon="11.0377383"><ele>477.0</ele><time>2026-05-03T09:48:28.164Z</time></trkpt><trkpt lat="43.1113383" lon="11.0376417"><ele>477.0</ele><time>2026-05-03T09:48:29.165Z</time></trkpt><trkpt lat="43.1114417" lon="11.0375033"><ele>477.0</ele><time>2026-05-03T09:48:30.165Z</time></trkpt><trkpt lat="43.111535" lon="11.037385"><ele>477.0</ele><time>2026-05-03T09:48:31.165Z</time></trkpt><trkpt lat="43.111635" lon="11.0373117"><ele>480.25</ele><time>2026-05-03T09:48:32.165Z</time></trkpt><trkpt lat="43.11176" lon="11.0372883"><ele>483.5</ele><time>2026-05-03T09:48:33.165Z</time></trkpt><trkpt lat="43.1119" lon="11.03731"><ele>486.75</ele><time>2026-05-03T09:48:34.17Z</time></trkpt><trkpt lat="43.1120383" lon="11.0373083"><ele>490.0</ele><time>2026-05-03T09:48:35.165Z</time></trkpt><trkpt lat="43.1121733" lon="11.0372633"><ele>490.0</ele><time>2026-05-03T09:48:36.163Z</time></trkpt><trkpt lat="43.1123067" lon="11.0371617"><ele>490.0</ele><time>2026-05-03T09:48:37.165Z</time></trkpt><trkpt lat="43.1124317" lon="11.03701"><ele>490.0</ele><time>2026-05-03T09:48:38.165Z</time></trkpt><trkpt lat="43.11255" lon="11.03685"><ele>488.33333333333337</ele><time>2026-05-03T09:48:39.165Z</time></trkpt><trkpt lat="43.1126767" lon="11.036695"><ele>486.66666666666663</ele><time>2026-05-03T09:48:40.166Z</time></trkpt><trkpt lat="43.1128067" lon="11.036575"><ele>485.0</ele><time>2026-05-03T09:48:41.165Z</time></trkpt><trkpt lat="43.112925" lon="11.0365"><ele>485.0</ele><time>2026-05-03T09:48:42.165Z</time></trkpt><trkpt lat="43.1130317" lon="11.036475"><ele>485.0</ele><time>2026-05-03T09:48:43.165Z</time></trkpt><trkpt lat="43.1131233" lon="11.03652"><ele>485.0</ele><time>2026-05-03T09:48:44.162Z</time></trkpt><trkpt lat="43.1131917" lon="11.03661"><ele>485.0</ele><time>2026-05-03T09:48:45.165Z</time></trkpt><trkpt lat="43.1132317" lon="11.0367717"><ele>485.0</ele><time>2026-05-03T09:48:46.163Z</time></trkpt><trkpt lat="43.11322" lon="11.0369867"><ele>485.0</ele><time>2026-05-03T09:48:47.164Z</time></trkpt><trkpt lat="43.1132167" lon="11.037215"><ele>485.0</ele><time>2026-05-03T09:48:48.167Z</time></trkpt><trkpt lat="43.1132217" lon="11.0374683"><ele>485.0</ele><time>2026-05-03T09:48:49.165Z</time></trkpt><trkpt lat="43.1132333" lon="11.0377183"><ele>480.0</ele><time>2026-05-03T09:48:50.165Z</time></trkpt><trkpt lat="43.1132317" lon="11.0379617"><ele>475.0</ele><time>2026-05-03T09:48:51.162Z</time></trkpt><trkpt lat="43.1132183" lon="11.0381767"><ele>470.0</ele><time>2026-05-03T09:48:52.164Z</time></trkpt><trkpt lat="43.1131967" lon="11.0383533"><ele>468.8</ele><time>2026-05-03T09:48:53.165Z</time></trkpt><trkpt lat="43.113195" lon="11.0384967"><ele>467.6</ele><time>2026-05-03T09:48:54.165Z</time></trkpt><trkpt lat="43.1132367" lon="11.0386033"><ele>466.4</ele><time>2026-05-03T09:48:55.165Z</time></trkpt><trkpt lat="43.1133117" lon="11.0386833"><ele>465.2</ele><time>2026-05-03T09:48:56.162Z</time></trkpt><trkpt lat="43.1134067" lon="11.0387333"><ele>464.0</ele><time>2026-05-03T09:48:57.165Z</time></trkpt><trkpt lat="43.1134917" lon="11.0387917"><ele>467.79999999999995</ele><time>2026-05-03T09:48:58.164Z</time></trkpt><trkpt lat="43.113535" lon="11.038875"><ele>471.59999999999997</ele><time>2026-05-03T09:48:59.166Z</time></trkpt><trkpt lat="43.1135567" lon="11.0389683"><ele>475.4</ele><time>2026-05-03T09:49:00.163Z</time></trkpt><trkpt lat="43.1135467" lon="11.0390867"><ele>479.2</ele><time>2026-05-03T09:49:01.163Z</time></trkpt><trkpt lat="43.1134983" lon="11.0392333"><ele>483.0</ele><time>2026-05-03T09:49:02.165Z</time></trkpt><trkpt lat="43.1134333" lon="11.03942"><ele>483.0</ele><time>2026-05-03T09:49:03.165Z</time></trkpt><trkpt lat="43.1133883" lon="11.039605"><ele>483.0</ele><time>2026-05-03T09:49:04.165Z</time></trkpt><trkpt lat="43.1133817" lon="11.0397617"><ele>483.0</ele><time>2026-05-03T09:49:05.166Z</time></trkpt><trkpt lat="43.1134417" lon="11.0398583"><ele>483.0</ele><time>2026-05-03T09:49:06.165Z</time></trkpt><trkpt lat="43.1135417" lon="11.0399183"><ele>483.0</ele><time>2026-05-03T09:49:07.163Z</time></trkpt><trkpt lat="43.1136567" lon="11.0399367"><ele>483.0</ele><time>2026-05-03T09:49:08.165Z</time></trkpt><trkpt lat="43.1138033" lon="11.039895"><ele>483.0</ele><time>2026-05-03T09:49:09.165Z</time></trkpt><trkpt lat="43.113985" lon="11.0397967"><ele>487.0</ele><time>2026-05-03T09:49:10.165Z</time></trkpt><trkpt lat="43.11418" lon="11.0396967"><ele>491.0</ele><time>2026-05-03T09:49:11.165Z</time></trkpt><trkpt lat="43.1143883" lon="11.0396017"><ele>495.0</ele><time>2026-05-03T09:49:12.166Z</time></trkpt><trkpt lat="43.1146067" lon="11.0395033"><ele>495.0</ele><time>2026-05-03T09:49:13.165Z</time></trkpt><trkpt lat="43.114825" lon="11.039395"><ele>495.0</ele><time>2026-05-03T09:49:14.166Z</time></trkpt><trkpt lat="43.1150517" lon="11.039255"><ele>502.5</ele><time>2026-05-03T09:49:15.165Z</time></trkpt><trkpt lat="43.1152567" lon="11.0391033"><ele>510.0</ele><time>2026-05-03T09:49:16.166Z</time></trkpt><trkpt lat="43.11545" lon="11.03896"><ele>510.0</ele><time>2026-05-03T09:49:17.166Z</time></trkpt><trkpt lat="43.115625" lon="11.0388367"><ele>510.0</ele><time>2026-05-03T09:49:18.17Z</time></trkpt><trkpt lat="43.1157783" lon="11.0387217"><ele>510.0</ele><time>2026-05-03T09:49:19.165Z</time></trkpt><trkpt lat="43.1159133" lon="11.0386183"><ele>510.0</ele><time>2026-05-03T09:49:20.165Z</time></trkpt><trkpt lat="43.1160483" lon="11.0385533"><ele>510.0</ele><time>2026-05-03T09:49:21.165Z</time></trkpt><trkpt lat="43.1161883" lon="11.0385417"><ele>510.0</ele><time>2026-05-03T09:49:22.167Z</time></trkpt><trkpt lat="43.1163217" lon="11.038585"><ele>510.0</ele><time>2026-05-03T09:49:23.165Z</time></trkpt><trkpt lat="43.1164283" lon="11.0386717"><ele>510.0</ele><time>2026-05-03T09:49:24.166Z</time></trkpt><trkpt lat="43.1165317" lon="11.038745"><ele>510.0</ele><time>2026-05-03T09:49:25.165Z</time></trkpt><trkpt lat="43.1166317" lon="11.03879"><ele>510.0</ele><time>2026-05-03T09:49:26.165Z</time></trkpt><trkpt lat="43.11674" lon="11.0387683"><ele>510.0</ele><time>2026-05-03T09:49:27.165Z</time></trkpt><trkpt lat="43.11684" lon="11.0386867"><ele>510.0</ele><time>2026-05-03T09:49:28.166Z</time></trkpt><trkpt lat="43.1169067" lon="11.0385483"><ele>510.0</ele><time>2026-05-03T09:49:29.164Z</time></trkpt><trkpt lat="43.1169383" lon="11.0384133"><ele>510.0</ele><time>2026-05-03T09:49:30.163Z</time></trkpt><trkpt lat="43.11691" lon="11.0382883"><ele>510.0</ele><time>2026-05-03T09:49:31.165Z</time></trkpt><trkpt lat="43.1168483" lon="11.0381783"><ele>510.0</ele><time>2026-05-03T09:49:32.164Z</time></trkpt><trkpt lat="43.1167333" lon="11.03808"><ele>510.0</ele><time>2026-05-03T09:49:33.165Z</time></trkpt><trkpt lat="43.116605" lon="11.0379783"><ele>514.0</ele><time>2026-05-03T09:49:34.165Z</time></trkpt><trkpt lat="43.116475" lon="11.0378767"><ele>518.0</ele><time>2026-05-03T09:49:35.164Z</time></trkpt><trkpt lat="43.116345" lon="11.0378067"><ele>522.0</ele><time>2026-05-03T09:49:36.164Z</time></trkpt><trkpt lat="43.11621" lon="11.0378017"><ele>526.0</ele><time>2026-05-03T09:49:37.164Z</time></trkpt><trkpt lat="43.116065" lon="11.0378583"><ele>526.0</ele><time>2026-05-03T09:49:38.164Z</time></trkpt><trkpt lat="43.1159217" lon="11.0379483"><ele>526.0</ele><time>2026-05-03T09:49:39.165Z</time></trkpt><trkpt lat="43.115775" lon="11.0380417"><ele>526.0</ele><time>2026-05-03T09:49:40.166Z</time></trkpt><trkpt lat="43.1156183" lon="11.0381117"><ele>524.75</ele><time>2026-05-03T09:49:41.165Z</time></trkpt><trkpt lat="43.11546" lon="11.03814"><ele>523.5</ele><time>2026-05-03T09:49:42.162Z</time></trkpt><trkpt lat="43.115315" lon="11.0381367"><ele>522.25</ele><time>2026-05-03T09:49:43.163Z</time></trkpt><trkpt lat="43.115185" lon="11.0381067"><ele>521.0</ele><time>2026-05-03T09:49:44.163Z</time></trkpt><trkpt lat="43.115085" lon="11.0380517"><ele>521.0</ele><time>2026-05-03T09:49:45.164Z</time></trkpt><trkpt lat="43.115015" lon="11.0379733"><ele>521.0</ele><time>2026-05-03T09:49:46.17Z</time></trkpt><trkpt lat="43.11499" lon="11.03786"><ele>521.0</ele><time>2026-05-03T09:49:47.162Z</time></trkpt><trkpt lat="43.1150267" lon="11.0377017"><ele>521.0</ele><time>2026-05-03T09:49:48.166Z</time></trkpt><trkpt lat="43.1150733" lon="11.0375283"><ele>521.0</ele><time>2026-05-03T09:49:49.165Z</time></trkpt><trkpt lat="43.1151067" lon="11.0373467"><ele>522.5</ele><time>2026-05-03T09:49:50.165Z</time></trkpt><trkpt lat="43.1151" lon="11.0371767"><ele>524.0</ele><time>2026-05-03T09:49:51.165Z</time></trkpt><trkpt lat="43.1150467" lon="11.0370433"><ele>525.5</ele><time>2026-05-03T09:49:52.166Z</time></trkpt><trkpt lat="43.1149467" lon="11.036965"><ele>527.0</ele><time>2026-05-03T09:49:53.167Z</time></trkpt><trkpt lat="43.1148333" lon="11.0369367"><ele>523.8000000000001</ele><time>2026-05-03T09:49:54.164Z</time></trkpt><trkpt lat="43.1147267" lon="11.0369033"><ele>520.6</ele><time>2026-05-03T09:49:55.165Z</time></trkpt><trkpt lat="43.1146483" lon="11.03684"><ele>517.4000000000001</ele><time>2026-05-03T09:49:56.164Z</time></trkpt><trkpt lat="43.1145933" lon="11.03676"><ele>514.2</ele><time>2026-05-03T09:49:57.162Z</time></trkpt><trkpt lat="43.11458" lon="11.0366567"><ele>511.0</ele><time>2026-05-03T09:49:58.162Z</time></trkpt><trkpt lat="43.1146133" lon="11.0365333"><ele>511.0</ele><time>2026-05-03T09:49:59.163Z</time></trkpt><trkpt lat="43.114715" lon="11.0363483"><ele>511.0</ele><time>2026-05-03T09:50:00.163Z</time></trkpt><trkpt lat="43.1148367" lon="11.0361017"><ele>511.0</ele><time>2026-05-03T09:50:01.164Z</time></trkpt><trkpt lat="43.1149317" lon="11.0358367"><ele>520.5</ele><time>2026-05-03T09:50:02.162Z</time></trkpt><trkpt lat="43.1149983" lon="11.0355433"><ele>530.0</ele><time>2026-05-03T09:50:03.163Z</time></trkpt><trkpt lat="43.1150533" lon="11.0352383"><ele>533.6666666666666</ele><time>2026-05-03T09:50:04.162Z</time></trkpt><trkpt lat="43.1151033" lon="11.0349617"><ele>537.3333333333334</ele><time>2026-05-03T09:50:05.163Z</time></trkpt><trkpt lat="43.1151467" lon="11.0347333"><ele>541.0</ele><time>2026-05-03T09:50:06.163Z</time></trkpt><trkpt lat="43.115195" lon="11.03455"><ele>541.0</ele><time>2026-05-03T09:50:07.162Z</time></trkpt><trkpt lat="43.1152467" lon="11.0344233"><ele>541.0</ele><time>2026-05-03T09:50:08.164Z</time></trkpt><trkpt lat="43.1153133" lon="11.0343667"><ele>541.0</ele><time>2026-05-03T09:50:09.165Z</time></trkpt><trkpt lat="43.1154283" lon="11.034465"><ele>541.0</ele><time>2026-05-03T09:50:11.165Z</time></trkpt><trkpt lat="43.1154683" lon="11.0346167"><ele>541.0</ele><time>2026-05-03T09:50:12.166Z</time></trkpt><trkpt lat="43.1155133" lon="11.034825"><ele>542.3333333333334</ele><time>2026-05-03T09:50:13.165Z</time></trkpt><trkpt lat="43.1155833" lon="11.03504"><ele>543.6666666666666</ele><time>2026-05-03T09:50:14.164Z</time></trkpt><trkpt lat="43.1156683" lon="11.0352817"><ele>545.0</ele><time>2026-05-03T09:50:15.164Z</time></trkpt><trkpt lat="43.11576" lon="11.0355333"><ele>545.0</ele><time>2026-05-03T09:50:16.164Z</time></trkpt><trkpt lat="43.115855" lon="11.0357783"><ele>545.0</ele><time>2026-05-03T09:50:17.165Z</time></trkpt><trkpt lat="43.1159417" lon="11.0359883"><ele>545.0</ele><time>2026-05-03T09:50:18.164Z</time></trkpt><trkpt lat="43.116035" lon="11.0361483"><ele>544.5</ele><time>2026-05-03T09:50:19.165Z</time></trkpt><trkpt lat="43.1161433" lon="11.0362583"><ele>544.0</ele><time>2026-05-03T09:50:20.165Z</time></trkpt><trkpt lat="43.11627" lon="11.0363117"><ele>543.5</ele><time>2026-05-03T09:50:21.164Z</time></trkpt><trkpt lat="43.1164033" lon="11.03631"><ele>543.0</ele><time>2026-05-03T09:50:22.165Z</time></trkpt><trkpt lat="43.116535" lon="11.0362417"><ele>544.75</ele><time>2026-05-03T09:50:23.165Z</time></trkpt><trkpt lat="43.1166517" lon="11.0361283"><ele>546.5</ele><time>2026-05-03T09:50:24.163Z</time></trkpt><trkpt lat="43.11674" lon="11.03597"><ele>548.25</ele><time>2026-05-03T09:50:25.165Z</time></trkpt><trkpt lat="43.1168067" lon="11.035795"><ele>550.0</ele><time>2026-05-03T09:50:26.165Z</time></trkpt><trkpt lat="43.1168767" lon="11.0356383"><ele>552.25</ele><time>2026-05-03T09:50:27.162Z</time></trkpt><trkpt lat="43.1169733" lon="11.0355233"><ele>554.5</ele><time>2026-05-03T09:50:28.163Z</time></trkpt><trkpt lat="43.1171033" lon="11.0354433"><ele>556.75</ele><time>2026-05-03T09:50:29.163Z</time></trkpt><trkpt lat="43.1172483" lon="11.03537"><ele>559.0</ele><time>2026-05-03T09:50:30.166Z</time></trkpt><trkpt lat="43.117375" lon="11.0352567"><ele>558.0</ele><time>2026-05-03T09:50:31.166Z</time></trkpt><trkpt lat="43.1174833" lon="11.0351"><ele>557.0</ele><time>2026-05-03T09:50:32.165Z</time></trkpt><trkpt lat="43.1175867" lon="11.03492"><ele>556.0</ele><time>2026-05-03T09:50:33.164Z</time></trkpt><trkpt lat="43.1176833" lon="11.0347367"><ele>560.0</ele><time>2026-05-03T09:50:34.165Z</time></trkpt><trkpt lat="43.1177817" lon="11.0345667"><ele>564.0</ele><time>2026-05-03T09:50:35.164Z</time></trkpt><trkpt lat="43.1178817" lon="11.034405"><ele>568.0</ele><time>2026-05-03T09:50:36.162Z</time></trkpt><trkpt lat="43.1179933" lon="11.0342567"><ele>570.3333333333334</ele><time>2026-05-03T09:50:37.167Z</time></trkpt><trkpt lat="43.1181133" lon="11.0341167"><ele>572.6666666666666</ele><time>2026-05-03T09:50:38.165Z</time></trkpt><trkpt lat="43.1182433" lon="11.0339933"><ele>575.0</ele><time>2026-05-03T09:50:39.164Z</time></trkpt><trkpt lat="43.118375" lon="11.0339133"><ele>575.0</ele><time>2026-05-03T09:50:40.165Z</time></trkpt><trkpt lat="43.1185" lon="11.03388"><ele>575.0</ele><time>2026-05-03T09:50:41.165Z</time></trkpt><trkpt lat="43.1186083" lon="11.0338767"><ele>575.0</ele><time>2026-05-03T09:50:42.164Z</time></trkpt><trkpt lat="43.1186983" lon="11.0338633"><ele>575.0</ele><time>2026-05-03T09:50:43.165Z</time></trkpt><trkpt lat="43.1187733" lon="11.03381"><ele>575.0</ele><time>2026-05-03T09:50:44.164Z</time></trkpt><trkpt lat="43.1188233" lon="11.033725"><ele>575.0</ele><time>2026-05-03T09:50:45.165Z</time></trkpt><trkpt lat="43.118835" lon="11.0336"><ele>575.0</ele><time>2026-05-03T09:50:46.165Z</time></trkpt><trkpt lat="43.11884" lon="11.0334867"><ele>575.0</ele><time>2026-05-03T09:50:47.166Z</time></trkpt><trkpt lat="43.1187967" lon="11.033365"><ele>575.0</ele><time>2026-05-03T09:50:48.165Z</time></trkpt><trkpt lat="43.1188" lon="11.033265"><ele>575.0</ele><time>2026-05-03T09:50:49.163Z</time></trkpt><trkpt lat="43.1188083" lon="11.03317"><ele>575.0</ele><time>2026-05-03T09:50:50.169Z</time></trkpt><trkpt lat="43.1188917" lon="11.03306"><ele>576.0</ele><time>2026-05-03T09:50:52.164Z</time></trkpt><trkpt lat="43.11896" lon="11.0330417"><ele>577.0</ele><time>2026-05-03T09:50:53.165Z</time></trkpt><trkpt lat="43.11905" lon="11.0330517"><ele>578.0</ele><time>2026-05-03T09:50:54.167Z</time></trkpt><trkpt lat="43.1191533" lon="11.0330683"><ele>579.0</ele><time>2026-05-03T09:50:55.165Z</time></trkpt><trkpt lat="43.1192467" lon="11.0330533"><ele>580.0</ele><time>2026-05-03T09:50:56.163Z</time></trkpt><trkpt lat="43.11932" lon="11.03301"><ele>581.0</ele><time>2026-05-03T09:50:57.164Z</time></trkpt><trkpt lat="43.11938" lon="11.0328867"><ele>581.0</ele><time>2026-05-03T09:50:58.165Z</time></trkpt><trkpt lat="43.1194583" lon="11.032705"><ele>581.0</ele><time>2026-05-03T09:50:59.167Z</time></trkpt><trkpt lat="43.1195633" lon="11.0325017"><ele>581.0</ele><time>2026-05-03T09:51:00.164Z</time></trkpt><trkpt lat="43.119665" lon="11.032355"><ele>583.75</ele><time>2026-05-03T09:51:01.164Z</time></trkpt><trkpt lat="43.1197667" lon="11.0322633"><ele>586.5</ele><time>2026-05-03T09:51:02.165Z</time></trkpt><trkpt lat="43.11987" lon="11.0322217"><ele>589.25</ele><time>2026-05-03T09:51:03.164Z</time></trkpt><trkpt lat="43.1199867" lon="11.0322517"><ele>592.0</ele><time>2026-05-03T09:51:04.164Z</time></trkpt><trkpt lat="43.1201083" lon="11.0322867"><ele>592.0</ele><time>2026-05-03T09:51:05.166Z</time></trkpt><trkpt lat="43.1202367" lon="11.0323067"><ele>592.0</ele><time>2026-05-03T09:51:06.164Z</time></trkpt><trkpt lat="43.120355" lon="11.0322833"><ele>592.0</ele><time>2026-05-03T09:51:07.165Z</time></trkpt><trkpt lat="43.1204767" lon="11.0322133"><ele>592.0</ele><time>2026-05-03T09:51:08.165Z</time></trkpt><trkpt lat="43.120575" lon="11.032075"><ele>592.0</ele><time>2026-05-03T09:51:09.165Z</time></trkpt><trkpt lat="43.120645" lon="11.0318967"><ele>592.0</ele><time>2026-05-03T09:51:10.166Z</time></trkpt><trkpt lat="43.1206967" lon="11.03171"><ele>592.0</ele><time>2026-05-03T09:51:11.165Z</time></trkpt><trkpt lat="43.1207633" lon="11.031545"><ele>592.0</ele><time>2026-05-03T09:51:12.164Z</time></trkpt><trkpt lat="43.1208533" lon="11.0314333"><ele>596.5</ele><time>2026-05-03T09:51:13.164Z</time></trkpt><trkpt lat="43.1209733" lon="11.0313633"><ele>601.0</ele><time>2026-05-03T09:51:14.164Z</time></trkpt><trkpt lat="43.1211167" lon="11.0313433"><ele>605.5</ele><time>2026-05-03T09:51:15.164Z</time></trkpt><trkpt lat="43.1212733" lon="11.0313783"><ele>610.0</ele><time>2026-05-03T09:51:16.165Z</time></trkpt><trkpt lat="43.1214217" lon="11.0314517"><ele>609.0</ele><time>2026-05-03T09:51:17.165Z</time></trkpt><trkpt lat="43.1215667" lon="11.03156"><ele>608.0</ele><time>2026-05-03T09:51:18.165Z</time></trkpt><trkpt lat="43.1217167" lon="11.031665"><ele>607.0</ele><time>2026-05-03T09:51:19.165Z</time></trkpt><trkpt lat="43.1218767" lon="11.031745"><ele>602.0</ele><time>2026-05-03T09:51:20.167Z</time></trkpt><trkpt lat="43.1220417" lon="11.031785"><ele>597.0</ele><time>2026-05-03T09:51:21.165Z</time></trkpt><trkpt lat="43.122215" lon="11.0317933"><ele>592.0</ele><time>2026-05-03T09:51:22.164Z</time></trkpt><trkpt lat="43.1223783" lon="11.0317917"><ele>593.75</ele><time>2026-05-03T09:51:23.165Z</time></trkpt><trkpt lat="43.1225267" lon="11.0317717"><ele>595.5</ele><time>2026-05-03T09:51:24.262Z</time></trkpt><trkpt lat="43.1226617" lon="11.0316983"><ele>597.25</ele><time>2026-05-03T09:51:25.163Z</time></trkpt><trkpt lat="43.1227767" lon="11.0315967"><ele>599.0</ele><time>2026-05-03T09:51:26.162Z</time></trkpt><trkpt lat="43.1228933" lon="11.0314833"><ele>602.25</ele><time>2026-05-03T09:51:27.163Z</time></trkpt><trkpt lat="43.1230267" lon="11.0313833"><ele>605.5</ele><time>2026-05-03T09:51:28.165Z</time></trkpt><trkpt lat="43.123165" lon="11.0313367"><ele>608.75</ele><time>2026-05-03T09:51:29.164Z</time></trkpt><trkpt lat="43.1232967" lon="11.0313567"><ele>612.0</ele><time>2026-05-03T09:51:30.165Z</time></trkpt><trkpt lat="43.1234133" lon="11.031405"><ele>612.0</ele><time>2026-05-03T09:51:31.164Z</time></trkpt><trkpt lat="43.123525" lon="11.031425"><ele>612.0</ele><time>2026-05-03T09:51:32.164Z</time></trkpt><trkpt lat="43.1236317" lon="11.0313833"><ele>612.0</ele><time>2026-05-03T09:51:33.165Z</time></trkpt><trkpt lat="43.1237233" lon="11.0312767"><ele>612.0</ele><time>2026-05-03T09:51:34.165Z</time></trkpt><trkpt lat="43.12379" lon="11.031115"><ele>612.0</ele><time>2026-05-03T09:51:35.166Z</time></trkpt><trkpt lat="43.1238367" lon="11.030915"><ele>612.0</ele><time>2026-05-03T09:51:36.165Z</time></trkpt><trkpt lat="43.12384" lon="11.0306867"><ele>612.0</ele><time>2026-05-03T09:51:37.165Z</time></trkpt><trkpt lat="43.123835" lon="11.0304633"><ele>615.5</ele><time>2026-05-03T09:51:38.165Z</time></trkpt><trkpt lat="43.1238383" lon="11.030245"><ele>619.0</ele><time>2026-05-03T09:51:39.165Z</time></trkpt><trkpt lat="43.1238817" lon="11.0300617"><ele>622.5</ele><time>2026-05-03T09:51:40.166Z</time></trkpt><trkpt lat="43.1239533" lon="11.0299"><ele>626.0</ele><time>2026-05-03T09:51:41.167Z</time></trkpt><trkpt lat="43.124025" lon="11.0297333"><ele>621.0</ele><time>2026-05-03T09:51:42.165Z</time></trkpt><trkpt lat="43.1240633" lon="11.0295467"><ele>616.0</ele><time>2026-05-03T09:51:43.165Z</time></trkpt><trkpt lat="43.1240783" lon="11.0293383"><ele>611.0</ele><time>2026-05-03T09:51:44.165Z</time></trkpt><trkpt lat="43.1240617" lon="11.029115"><ele>626.6666666666666</ele><time>2026-05-03T09:51:45.165Z</time></trkpt><trkpt lat="43.124035" lon="11.0288917"><ele>642.3333333333334</ele><time>2026-05-03T09:51:46.165Z</time></trkpt><trkpt lat="43.124" lon="11.0286817"><ele>658.0</ele><time>2026-05-03T09:51:47.165Z</time></trkpt><trkpt lat="43.1239667" lon="11.0284983"><ele>658.0</ele><time>2026-05-03T09:51:48.165Z</time></trkpt><trkpt lat="43.1239367" lon="11.0283267"><ele>658.0</ele><time>2026-05-03T09:51:49.163Z</time></trkpt><trkpt lat="43.123925" lon="11.0281567"><ele>658.0</ele><time>2026-05-03T09:51:50.163Z</time></trkpt><trkpt lat="43.1239333" lon="11.02799"><ele>658.0</ele><time>2026-05-03T09:51:51.166Z</time></trkpt><trkpt lat="43.123965" lon="11.0278333"><ele>656.0</ele><time>2026-05-03T09:51:52.165Z</time></trkpt><trkpt lat="43.1240133" lon="11.0277017"><ele>654.0</ele><time>2026-05-03T09:51:53.162Z</time></trkpt><trkpt lat="43.1240967" lon="11.02759"><ele>652.0</ele><time>2026-05-03T09:51:54.163Z</time></trkpt><trkpt lat="43.1242217" lon="11.027485"><ele>650.0</ele><time>2026-05-03T09:51:55.166Z</time></trkpt><trkpt lat="43.1243683" lon="11.0274033"><ele>650.0</ele><time>2026-05-03T09:51:56.163Z</time></trkpt><trkpt lat="43.1245017" lon="11.027325"><ele>650.0</ele><time>2026-05-03T09:51:57.164Z</time></trkpt><trkpt lat="43.1246083" lon="11.027225"><ele>650.0</ele><time>2026-05-03T09:51:58.164Z</time></trkpt><trkpt lat="43.1246833" lon="11.027085"><ele>650.0</ele><time>2026-05-03T09:51:59.165Z</time></trkpt><trkpt lat="43.1247267" lon="11.02691"><ele>650.0</ele><time>2026-05-03T09:52:00.163Z</time></trkpt><trkpt lat="43.12475" lon="11.0267217"><ele>650.0</ele><time>2026-05-03T09:52:01.164Z</time></trkpt><trkpt lat="43.1248" lon="11.0265433"><ele>650.0</ele><time>2026-05-03T09:52:02.169Z</time></trkpt><trkpt lat="43.12488" lon="11.0263917"><ele>650.0</ele><time>2026-05-03T09:52:03.165Z</time></trkpt><trkpt lat="43.1249783" lon="11.026275"><ele>646.5</ele><time>2026-05-03T09:52:04.168Z</time></trkpt><trkpt lat="43.1250517" lon="11.0261517"><ele>643.0</ele><time>2026-05-03T09:52:05.166Z</time></trkpt><trkpt lat="43.1250833" lon="11.0260067"><ele>639.5</ele><time>2026-05-03T09:52:06.165Z</time></trkpt><trkpt lat="43.125075" lon="11.0258483"><ele>636.0</ele><time>2026-05-03T09:52:07.166Z</time></trkpt><trkpt lat="43.12502" lon="11.0256783"><ele>636.0</ele><time>2026-05-03T09:52:08.165Z</time></trkpt><trkpt lat="43.1249367" lon="11.0255117"><ele>636.0</ele><time>2026-05-03T09:52:09.165Z</time></trkpt><trkpt lat="43.1248483" lon="11.0253467"><ele>636.0</ele><time>2026-05-03T09:52:10.165Z</time></trkpt><trkpt lat="43.1247683" lon="11.02519"><ele>636.0</ele><time>2026-05-03T09:52:11.165Z</time></trkpt><trkpt lat="43.124725" lon="11.0250483"><ele>639.2</ele><time>2026-05-03T09:52:12.165Z</time></trkpt><trkpt lat="43.1247067" lon="11.0249333"><ele>642.4000000000001</ele><time>2026-05-03T09:52:13.165Z</time></trkpt><trkpt lat="43.12471" lon="11.024785"><ele>645.6</ele><time>2026-05-03T09:52:15.165Z</time></trkpt><trkpt lat="43.1247783" lon="11.0247533"><ele>648.8000000000001</ele><time>2026-05-03T09:52:16.165Z</time></trkpt><trkpt lat="43.12489" lon="11.0247517"><ele>652.0</ele><time>2026-05-03T09:52:17.167Z</time></trkpt><trkpt lat="43.12503" lon="11.0247383"><ele>652.0</ele><time>2026-05-03T09:52:18.164Z</time></trkpt><trkpt lat="43.1251467" lon="11.024695"><ele>652.0</ele><time>2026-05-03T09:52:19.166Z</time></trkpt><trkpt lat="43.1252533" lon="11.0245867"><ele>652.0</ele><time>2026-05-03T09:52:20.167Z</time></trkpt><trkpt lat="43.1253333" lon="11.0244567"><ele>652.0</ele><time>2026-05-03T09:52:21.165Z</time></trkpt><trkpt lat="43.1254133" lon="11.02433"><ele>652.0</ele><time>2026-05-03T09:52:22.163Z</time></trkpt><trkpt lat="43.125505" lon="11.02423"><ele>652.0</ele><time>2026-05-03T09:52:23.164Z</time></trkpt><trkpt lat="43.1256033" lon="11.0241733"><ele>652.0</ele><time>2026-05-03T09:52:24.165Z</time></trkpt><trkpt lat="43.1257117" lon="11.0241567"><ele>652.0</ele><time>2026-05-03T09:52:25.165Z</time></trkpt><trkpt lat="43.12585" lon="11.024205"><ele>649.6666666666667</ele><time>2026-05-03T09:52:26.163Z</time></trkpt><trkpt lat="43.1260117" lon="11.0242717"><ele>647.3333333333334</ele><time>2026-05-03T09:52:27.165Z</time></trkpt><trkpt lat="43.1261833" lon="11.024295"><ele>645.0</ele><time>2026-05-03T09:52:28.165Z</time></trkpt><trkpt lat="43.1263583" lon="11.0242633"><ele>645.0</ele><time>2026-05-03T09:52:29.165Z</time></trkpt><trkpt lat="43.1265333" lon="11.0241983"><ele>645.0</ele><time>2026-05-03T09:52:30.164Z</time></trkpt><trkpt lat="43.126705" lon="11.0241117"><ele>645.0</ele><time>2026-05-03T09:52:31.165Z</time></trkpt><trkpt lat="43.1268733" lon="11.0240167"><ele>650.5</ele><time>2026-05-03T09:52:32.165Z</time></trkpt><trkpt lat="43.1270217" lon="11.02393"><ele>656.0</ele><time>2026-05-03T09:52:33.165Z</time></trkpt><trkpt lat="43.1271483" lon="11.0238467"><ele>661.5</ele><time>2026-05-03T09:52:34.164Z</time></trkpt><trkpt lat="43.1272567" lon="11.02373"><ele>667.0</ele><time>2026-05-03T09:52:35.165Z</time></trkpt><trkpt lat="43.1273467" lon="11.0235667"><ele>665.3333333333334</ele><time>2026-05-03T09:52:36.164Z</time></trkpt><trkpt lat="43.1274233" lon="11.0233767"><ele>663.6666666666666</ele><time>2026-05-03T09:52:37.164Z</time></trkpt><trkpt lat="43.1274917" lon="11.0231567"><ele>662.0</ele><time>2026-05-03T09:52:38.167Z</time></trkpt><trkpt lat="43.12754" lon="11.0229167"><ele>662.0</ele><time>2026-05-03T09:52:39.165Z</time></trkpt><trkpt lat="43.1275833" lon="11.0226667"><ele>662.0</ele><time>2026-05-03T09:52:40.164Z</time></trkpt><trkpt lat="43.127625" lon="11.0224217"><ele>662.0</ele><time>2026-05-03T09:52:41.166Z</time></trkpt><trkpt lat="43.1276583" lon="11.0221933"><ele>664.25</ele><time>2026-05-03T09:52:42.165Z</time></trkpt><trkpt lat="43.1276833" lon="11.02199"><ele>666.5</ele><time>2026-05-03T09:52:43.164Z</time></trkpt><trkpt lat="43.1277183" lon="11.0218083"><ele>668.75</ele><time>2026-05-03T09:52:44.162Z</time></trkpt><trkpt lat="43.1277733" lon="11.0216517"><ele>671.0</ele><time>2026-05-03T09:52:45.162Z</time></trkpt><trkpt lat="43.12786" lon="11.02151"><ele>676.3333333333333</ele><time>2026-05-03T09:52:46.165Z</time></trkpt><trkpt lat="43.1279367" lon="11.0213483"><ele>681.6666666666666</ele><time>2026-05-03T09:52:47.165Z</time></trkpt><trkpt lat="43.1279833" lon="11.0211533"><ele>687.0</ele><time>2026-05-03T09:52:48.164Z</time></trkpt><trkpt lat="43.12802" lon="11.0209367"><ele>691.3333333333334</ele><time>2026-05-03T09:52:49.164Z</time></trkpt><trkpt lat="43.1280617" lon="11.020715"><ele>695.6666666666667</ele><time>2026-05-03T09:52:50.165Z</time></trkpt><trkpt lat="43.1280933" lon="11.0204767"><ele>700.0</ele><time>2026-05-03T09:52:51.165Z</time></trkpt><trkpt lat="43.1281217" lon="11.02025"><ele>700.0</ele><time>2026-05-03T09:52:52.165Z</time></trkpt><trkpt lat="43.128155" lon="11.02004"><ele>700.0</ele><time>2026-05-03T09:52:53.165Z</time></trkpt><trkpt lat="43.1282083" lon="11.0198517"><ele>700.0</ele><time>2026-05-03T09:52:54.163Z</time></trkpt><trkpt lat="43.1282983" lon="11.0196733"><ele>697.3333333333334</ele><time>2026-05-03T09:52:55.163Z</time></trkpt><trkpt lat="43.12842" lon="11.019515"><ele>694.6666666666666</ele><time>2026-05-03T09:52:56.164Z</time></trkpt><trkpt lat="43.1285567" lon="11.01938"><ele>692.0</ele><time>2026-05-03T09:52:57.165Z</time></trkpt><trkpt lat="43.12868" lon="11.0192633"><ele>692.0</ele><time>2026-05-03T09:52:58.166Z</time></trkpt><trkpt lat="43.1287983" lon="11.0191833"><ele>692.0</ele><time>2026-05-03T09:52:59.164Z</time></trkpt><trkpt lat="43.1289283" lon="11.01913"><ele>692.0</ele><time>2026-05-03T09:53:00.164Z</time></trkpt><trkpt lat="43.1290617" lon="11.0191017"><ele>692.0</ele><time>2026-05-03T09:53:01.164Z</time></trkpt><trkpt lat="43.1291917" lon="11.019085"><ele>691.5</ele><time>2026-05-03T09:53:02.17Z</time></trkpt><trkpt lat="43.129315" lon="11.0190467"><ele>691.0</ele><time>2026-05-03T09:53:03.164Z</time></trkpt><trkpt lat="43.1294183" lon="11.01896"><ele>690.5</ele><time>2026-05-03T09:53:04.164Z</time></trkpt><trkpt lat="43.1295083" lon="11.01883"><ele>690.0</ele><time>2026-05-03T09:53:05.165Z</time></trkpt><trkpt lat="43.129585" lon="11.018675"><ele>690.0</ele><time>2026-05-03T09:53:06.164Z</time></trkpt><trkpt lat="43.1296533" lon="11.0185183"><ele>690.0</ele><time>2026-05-03T09:53:07.165Z</time></trkpt><trkpt lat="43.1297233" lon="11.01837"><ele>690.0</ele><time>2026-05-03T09:53:08.164Z</time></trkpt><trkpt lat="43.1298017" lon="11.0182283"><ele>690.0</ele><time>2026-05-03T09:53:09.164Z</time></trkpt><trkpt lat="43.1298867" lon="11.018105"><ele>688.25</ele><time>2026-05-03T09:53:10.165Z</time></trkpt><trkpt lat="43.1299717" lon="11.0179883"><ele>686.5</ele><time>2026-05-03T09:53:11.162Z</time></trkpt><trkpt lat="43.13004" lon="11.0178667"><ele>684.75</ele><time>2026-05-03T09:53:12.161Z</time></trkpt><trkpt lat="43.13009" lon="11.0177267"><ele>683.0</ele><time>2026-05-03T09:53:13.165Z</time></trkpt><trkpt lat="43.1301233" lon="11.0175717"><ele>684.3333333333333</ele><time>2026-05-03T09:53:14.165Z</time></trkpt><trkpt lat="43.130135" lon="11.01742"><ele>685.6666666666666</ele><time>2026-05-03T09:53:15.164Z</time></trkpt><trkpt lat="43.1301417" lon="11.01728"><ele>687.0</ele><time>2026-05-03T09:53:16.165Z</time></trkpt><trkpt lat="43.130155" lon="11.0171567"><ele>688.3333333333334</ele><time>2026-05-03T09:53:17.165Z</time></trkpt><trkpt lat="43.1301667" lon="11.0170583"><ele>689.6666666666667</ele><time>2026-05-03T09:53:18.164Z</time></trkpt><trkpt lat="43.1301817" lon="11.01697"><ele>691.0</ele><time>2026-05-03T09:53:19.166Z</time></trkpt><trkpt lat="43.1302" lon="11.0168733"><ele>691.0</ele><time>2026-05-03T09:53:20.165Z</time></trkpt><trkpt lat="43.1302217" lon="11.0167633"><ele>691.0</ele><time>2026-05-03T09:53:21.166Z</time></trkpt><trkpt lat="43.13025" lon="11.016655"><ele>691.0</ele><time>2026-05-03T09:53:22.165Z</time></trkpt><trkpt lat="43.1302817" lon="11.01655"><ele>691.0</ele><time>2026-05-03T09:53:23.165Z</time></trkpt><trkpt lat="43.1303117" lon="11.0164533"><ele>691.0</ele><time>2026-05-03T09:53:24.165Z</time></trkpt><trkpt lat="43.1303417" lon="11.0163733"><ele>691.0</ele><time>2026-05-03T09:53:25.165Z</time></trkpt><trkpt lat="43.130405" lon="11.0162483"><ele>691.5</ele><time>2026-05-03T09:53:27.257Z</time></trkpt><trkpt lat="43.1304517" lon="11.016175"><ele>692.0</ele><time>2026-05-03T09:53:29.165Z</time></trkpt><trkpt lat="43.1305183" lon="11.0161583"><ele>692.5</ele><time>2026-05-03T09:53:32.164Z</time></trkpt><trkpt lat="43.1305883" lon="11.0162333"><ele>693.0</ele><time>2026-05-03T09:53:34.167Z</time></trkpt><trkpt lat="43.1306683" lon="11.0163083"><ele>693.5</ele><time>2026-05-03T09:53:36.164Z</time></trkpt><trkpt lat="43.1307517" lon="11.0163833"><ele>694.0</ele><time>2026-05-03T09:53:38.165Z</time></trkpt><trkpt lat="43.1308317" lon="11.0164733"><ele>694.0</ele><time>2026-05-03T09:53:40.162Z</time></trkpt><trkpt lat="43.1309267" lon="11.0165583"><ele>694.0</ele><time>2026-05-03T09:53:42.162Z</time></trkpt><trkpt lat="43.1309867" lon="11.016595"><ele>694.0</ele><time>2026-05-03T09:53:43.165Z</time></trkpt><trkpt lat="43.1310533" lon="11.0166267"><ele>694.0</ele><time>2026-05-03T09:53:44.164Z</time></trkpt><trkpt lat="43.1311667" lon="11.0166583"><ele>694.0</ele><time>2026-05-03T09:53:46.166Z</time></trkpt><trkpt lat="43.13129" lon="11.01662"><ele>694.0</ele><time>2026-05-03T09:53:48.165Z</time></trkpt><trkpt lat="43.1313517" lon="11.016585"><ele>694.0</ele><time>2026-05-03T09:53:49.163Z</time></trkpt><trkpt lat="43.1314183" lon="11.0165467"><ele>694.0</ele><time>2026-05-03T09:53:50.164Z</time></trkpt><trkpt lat="43.1314883" lon="11.0165033"><ele>694.0</ele><time>2026-05-03T09:53:51.164Z</time></trkpt><trkpt lat="43.1315517" lon="11.01646"><ele>694.0</ele><time>2026-05-03T09:53:52.165Z</time></trkpt><trkpt lat="43.1316217" lon="11.01642"><ele>694.0</ele><time>2026-05-03T09:53:53.165Z</time></trkpt><trkpt lat="43.1316933" lon="11.016375"><ele>694.0</ele><time>2026-05-03T09:53:54.163Z</time></trkpt><trkpt lat="43.131755" lon="11.0163167"><ele>694.0</ele><time>2026-05-03T09:53:55.164Z</time></trkpt><trkpt lat="43.1318117" lon="11.0162583"><ele>694.0</ele><time>2026-05-03T09:53:56.166Z</time></trkpt><trkpt lat="43.1318883" lon="11.01616"><ele>694.0</ele><time>2026-05-03T09:53:58.165Z</time></trkpt><trkpt lat="43.1319683" lon="11.016055"><ele>694.0</ele><time>2026-05-03T09:54:00.162Z</time></trkpt><trkpt lat="43.1320483" lon="11.0159467"><ele>694.0</ele><time>2026-05-03T09:54:02.165Z</time></trkpt><trkpt lat="43.1321" lon="11.0158917"><ele>694.0</ele><time>2026-05-03T09:54:03.162Z</time></trkpt><trkpt lat="43.13216" lon="11.015835"><ele>694.0</ele><time>2026-05-03T09:54:04.165Z</time></trkpt><trkpt lat="43.132225" lon="11.01579"><ele>694.0</ele><time>2026-05-03T09:54:05.165Z</time></trkpt><trkpt lat="43.1322933" lon="11.01577"><ele>694.0</ele><time>2026-05-03T09:54:06.165Z</time></trkpt><trkpt lat="43.1323617" lon="11.0157917"><ele>694.0</ele><time>2026-05-03T09:54:07.165Z</time></trkpt><trkpt lat="43.1324333" lon="11.01585"><ele>694.0</ele><time>2026-05-03T09:54:08.165Z</time></trkpt><trkpt lat="43.1325033" lon="11.0159333"><ele>692.5</ele><time>2026-05-03T09:54:09.165Z</time></trkpt><trkpt lat="43.1325633" lon="11.0160217"><ele>691.0</ele><time>2026-05-03T09:54:10.165Z</time></trkpt><trkpt lat="43.1326217" lon="11.016105"><ele>689.5</ele><time>2026-05-03T09:54:11.169Z</time></trkpt><trkpt lat="43.1326783" lon="11.0161883"><ele>688.0</ele><time>2026-05-03T09:54:12.165Z</time></trkpt><trkpt lat="43.1327367" lon="11.0162617"><ele>686.5</ele><time>2026-05-03T09:54:13.165Z</time></trkpt><trkpt lat="43.1327933" lon="11.0163283"><ele>685.0</ele><time>2026-05-03T09:54:14.165Z</time></trkpt><trkpt lat="43.1328517" lon="11.0163883"><ele>685.0</ele><time>2026-05-03T09:54:15.166Z</time></trkpt><trkpt lat="43.132915" lon="11.01644"><ele>685.0</ele><time>2026-05-03T09:54:16.165Z</time></trkpt><trkpt lat="43.132985" lon="11.016475"><ele>685.0</ele><time>2026-05-03T09:54:17.166Z</time></trkpt><trkpt lat="43.1330567" lon="11.016485"><ele>685.0</ele><time>2026-05-03T09:54:18.165Z</time></trkpt><trkpt lat="43.1331383" lon="11.0164567"><ele>685.0</ele><time>2026-05-03T09:54:19.165Z</time></trkpt><trkpt lat="43.13323" lon="11.0163933"><ele>685.0</ele><time>2026-05-03T09:54:20.165Z</time></trkpt><trkpt lat="43.1333283" lon="11.0163417"><ele>685.6</ele><time>2026-05-03T09:54:21.165Z</time></trkpt><trkpt lat="43.1334333" lon="11.0163167"><ele>686.2</ele><time>2026-05-03T09:54:22.165Z</time></trkpt><trkpt lat="43.13354" lon="11.0163283"><ele>686.8</ele><time>2026-05-03T09:54:23.165Z</time></trkpt><trkpt lat="43.1336467" lon="11.0163633"><ele>687.4</ele><time>2026-05-03T09:54:24.165Z</time></trkpt><trkpt lat="43.1337467" lon="11.0164083"><ele>688.0</ele><time>2026-05-03T09:54:25.165Z</time></trkpt><trkpt lat="43.13384" lon="11.016455"><ele>688.0</ele><time>2026-05-03T09:54:26.165Z</time></trkpt><trkpt lat="43.1339217" lon="11.0165033"><ele>688.0</ele><time>2026-05-03T09:54:27.167Z</time></trkpt><trkpt lat="43.1339983" lon="11.0165617"><ele>688.0</ele><time>2026-05-03T09:54:28.165Z</time></trkpt><trkpt lat="43.1340733" lon="11.016635"><ele>688.0</ele><time>2026-05-03T09:54:29.166Z</time></trkpt><trkpt lat="43.134155" lon="11.0167067"><ele>688.0</ele><time>2026-05-03T09:54:30.165Z</time></trkpt><trkpt lat="43.1342517" lon="11.0167517"><ele>685.0</ele><time>2026-05-03T09:54:31.165Z</time></trkpt><trkpt lat="43.1343583" lon="11.0167667"><ele>682.0</ele><time>2026-05-03T09:54:32.165Z</time></trkpt><trkpt lat="43.1344633" lon="11.01677"><ele>679.0</ele><time>2026-05-03T09:54:33.167Z</time></trkpt><trkpt lat="43.134565" lon="11.01677"><ele>676.0</ele><time>2026-05-03T09:54:34.165Z</time></trkpt><trkpt lat="43.1346633" lon="11.01677"><ele>673.0</ele><time>2026-05-03T09:54:35.166Z</time></trkpt><trkpt lat="43.1347517" lon="11.0167717"><ele>673.0</ele><time>2026-05-03T09:54:36.165Z</time></trkpt><trkpt lat="43.1348383" lon="11.01677"><ele>673.0</ele><time>2026-05-03T09:54:37.168Z</time></trkpt><trkpt lat="43.1349233" lon="11.016775"><ele>673.0</ele><time>2026-05-03T09:54:38.165Z</time></trkpt><trkpt lat="43.1350033" lon="11.01679"><ele>673.0</ele><time>2026-05-03T09:54:39.165Z</time></trkpt><trkpt lat="43.13508" lon="11.016825"><ele>673.0</ele><time>2026-05-03T09:54:40.165Z</time></trkpt><trkpt lat="43.1351483" lon="11.0168817"><ele>673.0</ele><time>2026-05-03T09:54:41.165Z</time></trkpt><trkpt lat="43.1352117" lon="11.016985"><ele>673.0</ele><time>2026-05-03T09:54:42.166Z</time></trkpt><trkpt lat="43.1352667" lon="11.0171283"><ele>673.0</ele><time>2026-05-03T09:54:43.165Z</time></trkpt><trkpt lat="43.1353017" lon="11.0172917"><ele>673.0</ele><time>2026-05-03T09:54:44.165Z</time></trkpt><trkpt lat="43.1353367" lon="11.0174367"><ele>673.0</ele><time>2026-05-03T09:54:45.165Z</time></trkpt><trkpt lat="43.1353733" lon="11.0175617"><ele>673.0</ele><time>2026-05-03T09:54:46.165Z</time></trkpt><trkpt lat="43.1354133" lon="11.0176817"><ele>673.0</ele><time>2026-05-03T09:54:47.166Z</time></trkpt><trkpt lat="43.1354567" lon="11.0177967"><ele>673.0</ele><time>2026-05-03T09:54:48.165Z</time></trkpt><trkpt lat="43.13551" lon="11.01791"><ele>673.0</ele><time>2026-05-03T09:54:49.165Z</time></trkpt><trkpt lat="43.1355667" lon="11.0180067"><ele>673.0</ele><time>2026-05-03T09:54:50.163Z</time></trkpt><trkpt lat="43.1356217" lon="11.018085"><ele>673.0</ele><time>2026-05-03T09:54:51.166Z</time></trkpt><trkpt lat="43.13568" lon="11.0181517"><ele>673.0</ele><time>2026-05-03T09:54:52.165Z</time></trkpt><trkpt lat="43.1357383" lon="11.01821"><ele>673.0</ele><time>2026-05-03T09:54:53.166Z</time></trkpt><trkpt lat="43.1358183" lon="11.0182767"><ele>673.0</ele><time>2026-05-03T09:54:54.165Z</time></trkpt><trkpt lat="43.1358967" lon="11.01836"><ele>673.0</ele><time>2026-05-03T09:54:55.166Z</time></trkpt><trkpt lat="43.1359633" lon="11.0184667"><ele>673.0</ele><time>2026-05-03T09:54:56.165Z</time></trkpt><trkpt lat="43.1360083" lon="11.0186"><ele>672.75</ele><time>2026-05-03T09:54:57.165Z</time></trkpt><trkpt lat="43.136025" lon="11.0187567"><ele>672.5</ele><time>2026-05-03T09:54:58.165Z</time></trkpt><trkpt lat="43.1360317" lon="11.0189267"><ele>672.25</ele><time>2026-05-03T09:54:59.167Z</time></trkpt><trkpt lat="43.1360283" lon="11.0190917"><ele>672.0</ele><time>2026-05-03T09:55:00.165Z</time></trkpt><trkpt lat="43.136015" lon="11.01924"><ele>672.0</ele><time>2026-05-03T09:55:01.167Z</time></trkpt><trkpt lat="43.136005" lon="11.0193883"><ele>672.0</ele><time>2026-05-03T09:55:02.163Z</time></trkpt><trkpt lat="43.13601" lon="11.0195383"><ele>672.0</ele><time>2026-05-03T09:55:03.167Z</time></trkpt><trkpt lat="43.1360417" lon="11.0196817"><ele>672.0</ele><time>2026-05-03T09:55:04.163Z</time></trkpt><trkpt lat="43.1361" lon="11.0198067"><ele>672.0</ele><time>2026-05-03T09:55:05.166Z</time></trkpt><trkpt lat="43.1361833" lon="11.0198933"><ele>672.0</ele><time>2026-05-03T09:55:06.165Z</time></trkpt><trkpt lat="43.1362783" lon="11.019945"><ele>672.0</ele><time>2026-05-03T09:55:07.165Z</time></trkpt><trkpt lat="43.136375" lon="11.0199417"><ele>672.0</ele><time>2026-05-03T09:55:08.165Z</time></trkpt><trkpt lat="43.1364783" lon="11.0199083"><ele>672.0</ele><time>2026-05-03T09:55:09.166Z</time></trkpt><trkpt lat="43.1365967" lon="11.0198617"><ele>672.0</ele><time>2026-05-03T09:55:10.165Z</time></trkpt><trkpt lat="43.1367317" lon="11.0198133"><ele>676.75</ele><time>2026-05-03T09:55:11.164Z</time></trkpt><trkpt lat="43.136875" lon="11.01976"><ele>681.5</ele><time>2026-05-03T09:55:12.168Z</time></trkpt><trkpt lat="43.1370167" lon="11.0197033"><ele>686.25</ele><time>2026-05-03T09:55:13.164Z</time></trkpt><trkpt lat="43.1371517" lon="11.01963"><ele>691.0</ele><time>2026-05-03T09:55:14.164Z</time></trkpt><trkpt lat="43.1372733" lon="11.0195483"><ele>689.0</ele><time>2026-05-03T09:55:15.165Z</time></trkpt><trkpt lat="43.137395" lon="11.0194767"><ele>687.0</ele><time>2026-05-03T09:55:16.164Z</time></trkpt><trkpt lat="43.137515" lon="11.0194333"><ele>685.0</ele><time>2026-05-03T09:55:17.165Z</time></trkpt><trkpt lat="43.13763" lon="11.0194267"><ele>683.0</ele><time>2026-05-03T09:55:18.165Z</time></trkpt><trkpt lat="43.1377367" lon="11.019455"><ele>683.0</ele><time>2026-05-03T09:55:19.165Z</time></trkpt><trkpt lat="43.1378267" lon="11.0195183"><ele>683.0</ele><time>2026-05-03T09:55:20.165Z</time></trkpt><trkpt lat="43.1378967" lon="11.0196167"><ele>683.0</ele><time>2026-05-03T09:55:21.164Z</time></trkpt><trkpt lat="43.137955" lon="11.0197517"><ele>683.0</ele><time>2026-05-03T09:55:22.166Z</time></trkpt><trkpt lat="43.1380117" lon="11.019905"><ele>683.0</ele><time>2026-05-03T09:55:23.165Z</time></trkpt><trkpt lat="43.1380817" lon="11.0200383"><ele>684.0</ele><time>2026-05-03T09:55:24.164Z</time></trkpt><trkpt lat="43.1381667" lon="11.0201583"><ele>685.0</ele><time>2026-05-03T09:55:25.164Z</time></trkpt><trkpt lat="43.1382517" lon="11.02026"><ele>686.0</ele><time>2026-05-03T09:55:26.165Z</time></trkpt><trkpt lat="43.1383433" lon="11.0203583"><ele>687.0</ele><time>2026-05-03T09:55:27.164Z</time></trkpt><trkpt lat="43.1384433" lon="11.0204333"><ele>687.0</ele><time>2026-05-03T09:55:28.164Z</time></trkpt><trkpt lat="43.13855" lon="11.0204867"><ele>687.0</ele><time>2026-05-03T09:55:29.165Z</time></trkpt><trkpt lat="43.1386617" lon="11.0205167"><ele>687.0</ele><time>2026-05-03T09:55:30.166Z</time></trkpt><trkpt lat="43.1387717" lon="11.0205317"><ele>687.0</ele><time>2026-05-03T09:55:31.164Z</time></trkpt><trkpt lat="43.1388767" lon="11.0205617"><ele>687.0</ele><time>2026-05-03T09:55:32.164Z</time></trkpt><trkpt lat="43.1389717" lon="11.0206233"><ele>687.75</ele><time>2026-05-03T09:55:33.165Z</time></trkpt><trkpt lat="43.1390583" lon="11.02071"><ele>688.5</ele><time>2026-05-03T09:55:34.164Z</time></trkpt><trkpt lat="43.13916" lon="11.0208183"><ele>689.25</ele><time>2026-05-03T09:55:35.166Z</time></trkpt><trkpt lat="43.1392817" lon="11.0209383"><ele>690.0</ele><time>2026-05-03T09:55:36.161Z</time></trkpt><trkpt lat="43.1394317" lon="11.0210717"><ele>689.0</ele><time>2026-05-03T09:55:37.164Z</time></trkpt><trkpt lat="43.1396017" lon="11.02122"><ele>688.0</ele><time>2026-05-03T09:55:38.165Z</time></trkpt><trkpt lat="43.1397917" lon="11.0213733"><ele>687.0</ele><time>2026-05-03T09:55:39.165Z</time></trkpt><trkpt lat="43.1399883" lon="11.021525"><ele>684.3333333333334</ele><time>2026-05-03T09:55:40.164Z</time></trkpt><trkpt lat="43.1401783" lon="11.0216883"><ele>681.6666666666667</ele><time>2026-05-03T09:55:41.165Z</time></trkpt><trkpt lat="43.14034" lon="11.0218783"><ele>679.0</ele><time>2026-05-03T09:55:42.165Z</time></trkpt><trkpt lat="43.140465" lon="11.0220833"><ele>679.0</ele><time>2026-05-03T09:55:43.165Z</time></trkpt><trkpt lat="43.1405817" lon="11.022275"><ele>679.0</ele><time>2026-05-03T09:55:44.165Z</time></trkpt><trkpt lat="43.1406917" lon="11.0224317"><ele>679.0</ele><time>2026-05-03T09:55:45.164Z</time></trkpt><trkpt lat="43.14079" lon="11.02255"><ele>679.0</ele><time>2026-05-03T09:55:46.164Z</time></trkpt><trkpt lat="43.1408617" lon="11.0226283"><ele>679.0</ele><time>2026-05-03T09:55:47.165Z</time></trkpt><trkpt lat="43.140935" lon="11.0227033"><ele>679.0</ele><time>2026-05-03T09:55:49.165Z</time></trkpt><trkpt lat="43.1408967" lon="11.0225833"><ele>679.0</ele><time>2026-05-03T09:55:55.165Z</time></trkpt><trkpt lat="43.140765" lon="11.02247"><ele>679.0</ele><time>2026-05-03T09:55:57.165Z</time></trkpt><trkpt lat="43.1406817" lon="11.0224383"><ele>679.0</ele><time>2026-05-03T09:55:58.162Z</time></trkpt><trkpt lat="43.1406117" lon="11.0224417"><ele>679.0</ele><time>2026-05-03T09:55:59.162Z</time></trkpt><trkpt lat="43.140535" lon="11.02251"><ele>679.0</ele><time>2026-05-03T09:56:00.162Z</time></trkpt><trkpt lat="43.14046" lon="11.0226183"><ele>679.0</ele><time>2026-05-03T09:56:01.162Z</time></trkpt><trkpt lat="43.1403917" lon="11.022735"><ele>679.0</ele><time>2026-05-03T09:56:02.162Z</time></trkpt><trkpt lat="43.1403533" lon="11.0229267"><ele>677.0</ele><time>2026-05-03T09:56:03.166Z</time></trkpt><trkpt lat="43.1403467" lon="11.02312"><ele>675.0</ele><time>2026-05-03T09:56:04.161Z</time></trkpt><trkpt lat="43.14037" lon="11.023325"><ele>673.0</ele><time>2026-05-03T09:56:05.165Z</time></trkpt><trkpt lat="43.1404133" lon="11.0235283"><ele>671.0</ele><time>2026-05-03T09:56:06.165Z</time></trkpt><trkpt lat="43.1405133" lon="11.0237267"><ele>670.25</ele><time>2026-05-03T09:56:07.164Z</time></trkpt><trkpt lat="43.1405833" lon="11.023905"><ele>669.5</ele><time>2026-05-03T09:56:08.164Z</time></trkpt><trkpt lat="43.1406483" lon="11.0240867"><ele>668.75</ele><time>2026-05-03T09:56:09.163Z</time></trkpt><trkpt lat="43.14067" lon="11.024255"><ele>668.0</ele><time>2026-05-03T09:56:10.163Z</time></trkpt><trkpt lat="43.140615" lon="11.0244083"><ele>667.25</ele><time>2026-05-03T09:56:11.165Z</time></trkpt><trkpt lat="43.1405017" lon="11.0245567"><ele>666.5</ele><time>2026-05-03T09:56:12.161Z</time></trkpt><trkpt lat="43.14039" lon="11.0246883"><ele>665.75</ele><time>2026-05-03T09:56:13.165Z</time></trkpt><trkpt lat="43.14028" lon="11.02481"><ele>665.0</ele><time>2026-05-03T09:56:14.164Z</time></trkpt><trkpt lat="43.140175" lon="11.024925"><ele>666.0</ele><time>2026-05-03T09:56:15.165Z</time></trkpt><trkpt lat="43.14007" lon="11.0250433"><ele>667.0</ele><time>2026-05-03T09:56:16.168Z</time></trkpt><trkpt lat="43.1399667" lon="11.025155"><ele>668.0</ele><time>2026-05-03T09:56:17.165Z</time></trkpt><trkpt lat="43.13987" lon="11.02526"><ele>669.0</ele><time>2026-05-03T09:56:18.164Z</time></trkpt><trkpt lat="43.13978" lon="11.0253667"><ele>666.0</ele><time>2026-05-03T09:56:19.162Z</time></trkpt><trkpt lat="43.139695" lon="11.0254633"><ele>663.0</ele><time>2026-05-03T09:56:20.163Z</time></trkpt><trkpt lat="43.1396167" lon="11.0255617"><ele>660.0</ele><time>2026-05-03T09:56:21.163Z</time></trkpt><trkpt lat="43.1395383" lon="11.02566"><ele>657.0</ele><time>2026-05-03T09:56:22.163Z</time></trkpt><trkpt lat="43.1394633" lon="11.025765"><ele>654.0</ele><time>2026-05-03T09:56:23.165Z</time></trkpt><trkpt lat="43.1393967" lon="11.0258667"><ele>654.0</ele><time>2026-05-03T09:56:24.165Z</time></trkpt><trkpt lat="43.1393367" lon="11.0259967"><ele>654.0</ele><time>2026-05-03T09:56:25.164Z</time></trkpt><trkpt lat="43.13927" lon="11.0261567"><ele>654.0</ele><time>2026-05-03T09:56:26.162Z</time></trkpt><trkpt lat="43.1391983" lon="11.0263433"><ele>654.0</ele><time>2026-05-03T09:56:27.162Z</time></trkpt><trkpt lat="43.13911" lon="11.026545"><ele>647.6666666666666</ele><time>2026-05-03T09:56:28.162Z</time></trkpt><trkpt lat="43.1390183" lon="11.0267633"><ele>641.3333333333333</ele><time>2026-05-03T09:56:29.163Z</time></trkpt><trkpt lat="43.138925" lon="11.02698"><ele>635.0</ele><time>2026-05-03T09:56:30.162Z</time></trkpt><trkpt lat="43.1388383" lon="11.02719"><ele>635.0</ele><time>2026-05-03T09:56:31.162Z</time></trkpt><trkpt lat="43.1387633" lon="11.0273967"><ele>635.0</ele><time>2026-05-03T09:56:32.163Z</time></trkpt><trkpt lat="43.1387067" lon="11.027605"><ele>635.0</ele><time>2026-05-03T09:56:33.165Z</time></trkpt><trkpt lat="43.1386733" lon="11.02783"><ele>636.0</ele><time>2026-05-03T09:56:34.165Z</time></trkpt><trkpt lat="43.13866" lon="11.0280617"><ele>637.0</ele><time>2026-05-03T09:56:35.165Z</time></trkpt><trkpt lat="43.1386533" lon="11.0282833"><ele>638.0</ele><time>2026-05-03T09:56:36.164Z</time></trkpt><trkpt lat="43.1386467" lon="11.0284933"><ele>638.0</ele><time>2026-05-03T09:56:37.165Z</time></trkpt><trkpt lat="43.1386317" lon="11.0287"><ele>638.0</ele><time>2026-05-03T09:56:38.165Z</time></trkpt><trkpt lat="43.13859" lon="11.0288867"><ele>638.0</ele><time>2026-05-03T09:56:39.165Z</time></trkpt><trkpt lat="43.13853" lon="11.0290583"><ele>638.0</ele><time>2026-05-03T09:56:40.165Z</time></trkpt><trkpt lat="43.13843" lon="11.0292033"><ele>639.3333333333333</ele><time>2026-05-03T09:56:41.166Z</time></trkpt><trkpt lat="43.1383167" lon="11.0293433"><ele>640.6666666666666</ele><time>2026-05-03T09:56:42.165Z</time></trkpt><trkpt lat="43.1381933" lon="11.0294867"><ele>642.0</ele><time>2026-05-03T09:56:43.165Z</time></trkpt><trkpt lat="43.13807" lon="11.0296183"><ele>639.5</ele><time>2026-05-03T09:56:44.165Z</time></trkpt><trkpt lat="43.1379517" lon="11.029745"><ele>637.0</ele><time>2026-05-03T09:56:45.162Z</time></trkpt><trkpt lat="43.1378317" lon="11.0298683"><ele>634.5</ele><time>2026-05-03T09:56:46.163Z</time></trkpt><trkpt lat="43.1377233" lon="11.029975"><ele>632.0</ele><time>2026-05-03T09:56:47.164Z</time></trkpt><trkpt lat="43.1376283" lon="11.0300817"><ele>632.0</ele><time>2026-05-03T09:56:48.165Z</time></trkpt><trkpt lat="43.1375617" lon="11.0302"><ele>632.0</ele><time>2026-05-03T09:56:49.165Z</time></trkpt><trkpt lat="43.1375233" lon="11.030315"><ele>632.0</ele><time>2026-05-03T09:56:50.162Z</time></trkpt><trkpt lat="43.1375117" lon="11.030435"><ele>632.0</ele><time>2026-05-03T09:56:51.163Z</time></trkpt><trkpt lat="43.137525" lon="11.0305467"><ele>632.0</ele><time>2026-05-03T09:56:52.163Z</time></trkpt><trkpt lat="43.13754" lon="11.0306517"><ele>632.0</ele><time>2026-05-03T09:56:53.165Z</time></trkpt><trkpt lat="43.1376033" lon="11.030745"><ele>632.0</ele><time>2026-05-03T09:56:54.165Z</time></trkpt><trkpt lat="43.1377383" lon="11.0308"><ele>632.0</ele><time>2026-05-03T09:56:55.165Z</time></trkpt><trkpt lat="43.1378533" lon="11.03084"><ele>632.0</ele><time>2026-05-03T09:56:56.163Z</time></trkpt><trkpt lat="43.1379383" lon="11.0309133"><ele>632.2</ele><time>2026-05-03T09:56:57.162Z</time></trkpt><trkpt lat="43.13798" lon="11.03103"><ele>632.4000000000001</ele><time>2026-05-03T09:56:58.163Z</time></trkpt><trkpt lat="43.13798" lon="11.031155"><ele>632.5999999999999</ele><time>2026-05-03T09:56:59.163Z</time></trkpt><trkpt lat="43.1379333" lon="11.03128"><ele>632.8</ele><time>2026-05-03T09:57:00.162Z</time></trkpt><trkpt lat="43.1378733" lon="11.0314067"><ele>633.0</ele><time>2026-05-03T09:57:01.162Z</time></trkpt><trkpt lat="43.1377617" lon="11.031495"><ele>633.0</ele><time>2026-05-03T09:57:02.163Z</time></trkpt><trkpt lat="43.1375967" lon="11.0315533"><ele>633.0</ele><time>2026-05-03T09:57:03.162Z</time></trkpt><trkpt lat="43.1374733" lon="11.0316817"><ele>633.0</ele><time>2026-05-03T09:57:04.162Z</time></trkpt><trkpt lat="43.1373917" lon="11.0318467"><ele>623.6666666666666</ele><time>2026-05-03T09:57:05.163Z</time></trkpt><trkpt lat="43.1373417" lon="11.0320483"><ele>614.3333333333333</ele><time>2026-05-03T09:57:06.162Z</time></trkpt><trkpt lat="43.1373" lon="11.0322683"><ele>605.0</ele><time>2026-05-03T09:57:07.165Z</time></trkpt><trkpt lat="43.1372567" lon="11.0324867"><ele>604.6666666666666</ele><time>2026-05-03T09:57:08.165Z</time></trkpt><trkpt lat="43.137225" lon="11.032695"><ele>604.3333333333334</ele><time>2026-05-03T09:57:09.165Z</time></trkpt><trkpt lat="43.1372217" lon="11.0329017"><ele>604.0</ele><time>2026-05-03T09:57:10.165Z</time></trkpt><trkpt lat="43.1372633" lon="11.0331033"><ele>604.0</ele><time>2026-05-03T09:57:11.165Z</time></trkpt><trkpt lat="43.1373433" lon="11.0332917"><ele>604.0</ele><time>2026-05-03T09:57:12.165Z</time></trkpt><trkpt lat="43.137435" lon="11.0334783"><ele>604.0</ele><time>2026-05-03T09:57:13.165Z</time></trkpt><trkpt lat="43.1375183" lon="11.0336883"><ele>609.0</ele><time>2026-05-03T09:57:14.165Z</time></trkpt><trkpt lat="43.1375683" lon="11.0339283"><ele>614.0</ele><time>2026-05-03T09:57:15.165Z</time></trkpt><trkpt lat="43.1375733" lon="11.0341733"><ele>619.0</ele><time>2026-05-03T09:57:16.165Z</time></trkpt><trkpt lat="43.137575" lon="11.034405"><ele>619.0</ele><time>2026-05-03T09:57:17.165Z</time></trkpt><trkpt lat="43.1375767" lon="11.0346033"><ele>619.0</ele><time>2026-05-03T09:57:18.165Z</time></trkpt><trkpt lat="43.1376083" lon="11.034775"><ele>619.0</ele><time>2026-05-03T09:57:19.165Z</time></trkpt><trkpt lat="43.1376883" lon="11.0349467"><ele>619.0</ele><time>2026-05-03T09:57:20.166Z</time></trkpt><trkpt lat="43.1377983" lon="11.0351167"><ele>616.0</ele><time>2026-05-03T09:57:21.165Z</time></trkpt><trkpt lat="43.1379083" lon="11.035295"><ele>613.0</ele><time>2026-05-03T09:57:22.165Z</time></trkpt><trkpt lat="43.1379983" lon="11.0354983"><ele>610.0</ele><time>2026-05-03T09:57:23.165Z</time></trkpt><trkpt lat="43.138055" lon="11.03573"><ele>608.0</ele><time>2026-05-03T09:57:24.162Z</time></trkpt><trkpt lat="43.1380867" lon="11.03597"><ele>606.0</ele><time>2026-05-03T09:57:25.163Z</time></trkpt><trkpt lat="43.1380783" lon="11.03621"><ele>604.0</ele><time>2026-05-03T09:57:26.162Z</time></trkpt><trkpt lat="43.1380167" lon="11.0364567"><ele>603.0</ele><time>2026-05-03T09:57:27.163Z</time></trkpt><trkpt lat="43.13795" lon="11.0366983"><ele>602.0</ele><time>2026-05-03T09:57:28.163Z</time></trkpt><trkpt lat="43.137905" lon="11.036945"><ele>601.0</ele><time>2026-05-03T09:57:29.163Z</time></trkpt><trkpt lat="43.137885" lon="11.03718"><ele>601.0</ele><time>2026-05-03T09:57:30.162Z</time></trkpt><trkpt lat="43.13785" lon="11.0373967"><ele>601.0</ele><time>2026-05-03T09:57:31.164Z</time></trkpt><trkpt lat="43.137795" lon="11.0376017"><ele>601.0</ele><time>2026-05-03T09:57:32.162Z</time></trkpt><trkpt lat="43.137695" lon="11.03778"><ele>600.0</ele><time>2026-05-03T09:57:33.165Z</time></trkpt><trkpt lat="43.1375833" lon="11.0379433"><ele>599.0</ele><time>2026-05-03T09:57:34.163Z</time></trkpt><trkpt lat="43.1374967" lon="11.0381267"><ele>598.0</ele><time>2026-05-03T09:57:35.166Z</time></trkpt><trkpt lat="43.1374383" lon="11.0383417"><ele>592.3333333333334</ele><time>2026-05-03T09:57:36.165Z</time></trkpt><trkpt lat="43.137385" lon="11.0385983"><ele>586.6666666666666</ele><time>2026-05-03T09:57:37.164Z</time></trkpt><trkpt lat="43.1373233" lon="11.0388683"><ele>581.0</ele><time>2026-05-03T09:57:38.162Z</time></trkpt><trkpt lat="43.1372567" lon="11.039135"><ele>581.0</ele><time>2026-05-03T09:57:39.162Z</time></trkpt><trkpt lat="43.1372067" lon="11.0394167"><ele>581.0</ele><time>2026-05-03T09:57:40.162Z</time></trkpt><trkpt lat="43.13718" lon="11.0397367"><ele>581.0</ele><time>2026-05-03T09:57:41.163Z</time></trkpt><trkpt lat="43.1371683" lon="11.0400667"><ele>581.5</ele><time>2026-05-03T09:57:42.162Z</time></trkpt><trkpt lat="43.1371667" lon="11.040385"><ele>582.0</ele><time>2026-05-03T09:57:43.163Z</time></trkpt><trkpt lat="43.1371617" lon="11.0407"><ele>582.5</ele><time>2026-05-03T09:57:44.163Z</time></trkpt><trkpt lat="43.1371533" lon="11.0410183"><ele>583.0</ele><time>2026-05-03T09:57:45.163Z</time></trkpt><trkpt lat="43.1371283" lon="11.0413383"><ele>584.5</ele><time>2026-05-03T09:57:46.162Z</time></trkpt><trkpt lat="43.1370983" lon="11.0416533"><ele>586.0</ele><time>2026-05-03T09:57:47.163Z</time></trkpt><trkpt lat="43.137065" lon="11.0419617"><ele>586.0</ele><time>2026-05-03T09:57:48.162Z</time></trkpt><trkpt lat="43.1370367" lon="11.04225"><ele>586.0</ele><time>2026-05-03T09:57:49.163Z</time></trkpt><trkpt lat="43.13701" lon="11.04251"><ele>586.0</ele><time>2026-05-03T09:57:50.163Z</time></trkpt><trkpt lat="43.136905" lon="11.042975"><ele>586.0</ele><time>2026-05-03T09:57:52.163Z</time></trkpt><trkpt lat="43.1368" lon="11.0432083"><ele>586.0</ele><time>2026-05-03T09:57:53.164Z</time></trkpt><trkpt lat="43.136665" lon="11.0434567"><ele>586.0</ele><time>2026-05-03T09:57:54.165Z</time></trkpt><trkpt lat="43.13653" lon="11.0437"><ele>582.3333333333334</ele><time>2026-05-03T09:57:55.165Z</time></trkpt><trkpt lat="43.1364083" lon="11.0439183"><ele>578.6666666666666</ele><time>2026-05-03T09:57:56.162Z</time></trkpt><trkpt lat="43.1362983" lon="11.0441017"><ele>575.0</ele><time>2026-05-03T09:57:57.165Z</time></trkpt><trkpt lat="43.136215" lon="11.0442767"><ele>575.0</ele><time>2026-05-03T09:57:58.166Z</time></trkpt><trkpt lat="43.1361733" lon="11.0444517"><ele>575.0</ele><time>2026-05-03T09:57:59.166Z</time></trkpt><trkpt lat="43.1361783" lon="11.04465"><ele>575.0</ele><time>2026-05-03T09:58:00.165Z</time></trkpt><trkpt lat="43.1362267" lon="11.0448867"><ele>573.6666666666666</ele><time>2026-05-03T09:58:01.164Z</time></trkpt><trkpt lat="43.1363033" lon="11.0451483"><ele>572.3333333333334</ele><time>2026-05-03T09:58:02.165Z</time></trkpt><trkpt lat="43.13637" lon="11.0453817"><ele>571.0</ele><time>2026-05-03T09:58:03.165Z</time></trkpt><trkpt lat="43.13641" lon="11.0455917"><ele>571.0</ele><time>2026-05-03T09:58:04.164Z</time></trkpt><trkpt lat="43.1364117" lon="11.0457733"><ele>571.0</ele><time>2026-05-03T09:58:05.162Z</time></trkpt><trkpt lat="43.1363883" lon="11.0459533"><ele>571.0</ele><time>2026-05-03T09:58:06.165Z</time></trkpt><trkpt lat="43.13633" lon="11.04613"><ele>571.0</ele><time>2026-05-03T09:58:07.161Z</time></trkpt><trkpt lat="43.1362333" lon="11.0463067"><ele>569.5</ele><time>2026-05-03T09:58:08.162Z</time></trkpt><trkpt lat="43.1360883" lon="11.0465083"><ele>568.0</ele><time>2026-05-03T09:58:09.162Z</time></trkpt><trkpt lat="43.1359017" lon="11.0467383"><ele>572.5</ele><time>2026-05-03T09:58:10.165Z</time></trkpt><trkpt lat="43.135725" lon="11.046975"><ele>577.0</ele><time>2026-05-03T09:58:11.161Z</time></trkpt><trkpt lat="43.135555" lon="11.0471967"><ele>573.3333333333334</ele><time>2026-05-03T09:58:12.161Z</time></trkpt><trkpt lat="43.1354133" lon="11.047395"><ele>569.6666666666666</ele><time>2026-05-03T09:58:13.161Z</time></trkpt><trkpt lat="43.1352883" lon="11.047605"><ele>566.0</ele><time>2026-05-03T09:58:14.162Z</time></trkpt><trkpt lat="43.1351883" lon="11.0478667"><ele>566.0</ele><time>2026-05-03T09:58:15.162Z</time></trkpt><trkpt lat="43.1350967" lon="11.0481733"><ele>566.0</ele><time>2026-05-03T09:58:16.161Z</time></trkpt><trkpt lat="43.1350167" lon="11.0484967"><ele>568.3333333333333</ele><time>2026-05-03T09:58:17.163Z</time></trkpt><trkpt lat="43.1349467" lon="11.0487867"><ele>570.6666666666666</ele><time>2026-05-03T09:58:18.161Z</time></trkpt><trkpt lat="43.13489" lon="11.0490433"><ele>573.0</ele><time>2026-05-03T09:58:19.161Z</time></trkpt><trkpt lat="43.134855" lon="11.0492817"><ele>573.6666666666666</ele><time>2026-05-03T09:58:20.164Z</time></trkpt><trkpt lat="43.134855" lon="11.0495033"><ele>574.3333333333333</ele><time>2026-05-03T09:58:21.164Z</time></trkpt><trkpt lat="43.13489" lon="11.0497217"><ele>575.0</ele><time>2026-05-03T09:58:22.164Z</time></trkpt><trkpt lat="43.1349683" lon="11.0499617"><ele>575.0</ele><time>2026-05-03T09:58:23.165Z</time></trkpt><trkpt lat="43.1350717" lon="11.0502117"><ele>575.0</ele><time>2026-05-03T09:58:24.164Z</time></trkpt><trkpt lat="43.13518" lon="11.05044"><ele>575.0</ele><time>2026-05-03T09:58:25.164Z</time></trkpt><trkpt lat="43.135315" lon="11.0506467"><ele>578.0</ele><time>2026-05-03T09:58:26.165Z</time></trkpt><trkpt lat="43.135465" lon="11.0508267"><ele>581.0</ele><time>2026-05-03T09:58:27.164Z</time></trkpt><trkpt lat="43.135735" lon="11.0511467"><ele>581.0</ele><time>2026-05-03T09:58:29.165Z</time></trkpt><trkpt lat="43.13582" lon="11.05132"><ele>581.0</ele><time>2026-05-03T09:58:30.165Z</time></trkpt><trkpt lat="43.1358783" lon="11.0515117"><ele>581.0</ele><time>2026-05-03T09:58:31.163Z</time></trkpt><trkpt lat="43.1359317" lon="11.05172"><ele>577.0</ele><time>2026-05-03T09:58:32.164Z</time></trkpt><trkpt lat="43.135985" lon="11.051925"><ele>573.0</ele><time>2026-05-03T09:58:33.164Z</time></trkpt><trkpt lat="43.1360617" lon="11.052105"><ele>569.0</ele><time>2026-05-03T09:58:34.164Z</time></trkpt><trkpt lat="43.136175" lon="11.0522683"><ele>569.0</ele><time>2026-05-03T09:58:35.166Z</time></trkpt><trkpt lat="43.1363283" lon="11.0524317"><ele>569.0</ele><time>2026-05-03T09:58:36.165Z</time></trkpt><trkpt lat="43.1364967" lon="11.0525867"><ele>569.0</ele><time>2026-05-03T09:58:37.162Z</time></trkpt><trkpt lat="43.13665" lon="11.05273"><ele>572.0</ele><time>2026-05-03T09:58:38.162Z</time></trkpt><trkpt lat="43.13678" lon="11.0528833"><ele>575.0</ele><time>2026-05-03T09:58:39.162Z</time></trkpt><trkpt lat="43.1368783" lon="11.053075"><ele>578.0</ele><time>2026-05-03T09:58:40.162Z</time></trkpt><trkpt lat="43.1369533" lon="11.0532967"><ele>572.0</ele><time>2026-05-03T09:58:41.163Z</time></trkpt><trkpt lat="43.137025" lon="11.0535517"><ele>566.0</ele><time>2026-05-03T09:58:42.162Z</time></trkpt><trkpt lat="43.1371233" lon="11.0537933"><ele>560.0</ele><time>2026-05-03T09:58:43.162Z</time></trkpt><trkpt lat="43.1372317" lon="11.054015"><ele>554.3333333333333</ele><time>2026-05-03T09:58:44.162Z</time></trkpt><trkpt lat="43.13732" lon="11.05423"><ele>548.6666666666666</ele><time>2026-05-03T09:58:45.162Z</time></trkpt><trkpt lat="43.1373817" lon="11.0544417"><ele>543.0</ele><time>2026-05-03T09:58:46.162Z</time></trkpt><trkpt lat="43.1374083" lon="11.054645"><ele>543.0</ele><time>2026-05-03T09:58:47.162Z</time></trkpt><trkpt lat="43.1373817" lon="11.0548567"><ele>543.0</ele><time>2026-05-03T09:58:48.162Z</time></trkpt><trkpt lat="43.1373817" lon="11.055065"><ele>543.0</ele><time>2026-05-03T09:58:49.163Z</time></trkpt><trkpt lat="43.1374183" lon="11.0552683"><ele>548.6666666666666</ele><time>2026-05-03T09:58:50.165Z</time></trkpt><trkpt lat="43.1375033" lon="11.0554667"><ele>554.3333333333333</ele><time>2026-05-03T09:58:51.165Z</time></trkpt><trkpt lat="43.137625" lon="11.0556717"><ele>560.0</ele><time>2026-05-03T09:58:52.164Z</time></trkpt><trkpt lat="43.1377533" lon="11.0559"><ele>560.0</ele><time>2026-05-03T09:58:53.165Z</time></trkpt><trkpt lat="43.13788" lon="11.05615"><ele>560.0</ele><time>2026-05-03T09:58:54.162Z</time></trkpt><trkpt lat="43.1379917" lon="11.0564167"><ele>560.0</ele><time>2026-05-03T09:58:55.165Z</time></trkpt><trkpt lat="43.13811" lon="11.0566733"><ele>564.3333333333333</ele><time>2026-05-03T09:58:56.171Z</time></trkpt><trkpt lat="43.138235" lon="11.056905"><ele>568.6666666666666</ele><time>2026-05-03T09:58:57.161Z</time></trkpt><trkpt lat="43.13835" lon="11.057115"><ele>573.0</ele><time>2026-05-03T09:58:58.166Z</time></trkpt><trkpt lat="43.1384567" lon="11.05729"><ele>573.0</ele><time>2026-05-03T09:58:59.165Z</time></trkpt><trkpt lat="43.138585" lon="11.057445"><ele>573.0</ele><time>2026-05-03T09:59:00.162Z</time></trkpt><trkpt lat="43.1387517" lon="11.0575817"><ele>573.0</ele><time>2026-05-03T09:59:01.163Z</time></trkpt><trkpt lat="43.13892" lon="11.0576983"><ele>573.6666666666666</ele><time>2026-05-03T09:59:02.165Z</time></trkpt><trkpt lat="43.1390733" lon="11.0577917"><ele>574.3333333333333</ele><time>2026-05-03T09:59:03.165Z</time></trkpt><trkpt lat="43.13922" lon="11.05785"><ele>575.0</ele><time>2026-05-03T09:59:04.165Z</time></trkpt><trkpt lat="43.1393717" lon="11.0578533"><ele>575.0</ele><time>2026-05-03T09:59:05.165Z</time></trkpt><trkpt lat="43.139535" lon="11.05782"><ele>575.0</ele><time>2026-05-03T09:59:06.161Z</time></trkpt><trkpt lat="43.13972" lon="11.0577667"><ele>575.0</ele><time>2026-05-03T09:59:07.165Z</time></trkpt><trkpt lat="43.1399183" lon="11.0577083"><ele>574.6666666666666</ele><time>2026-05-03T09:59:08.163Z</time></trkpt><trkpt lat="43.1401233" lon="11.057645"><ele>574.3333333333334</ele><time>2026-05-03T09:59:09.162Z</time></trkpt><trkpt lat="43.1403333" lon="11.0576017"><ele>574.0</ele><time>2026-05-03T09:59:10.162Z</time></trkpt><trkpt lat="43.1405517" lon="11.0575833"><ele>574.3333333333334</ele><time>2026-05-03T09:59:11.166Z</time></trkpt><trkpt lat="43.1407717" lon="11.0575983"><ele>574.6666666666666</ele><time>2026-05-03T09:59:12.162Z</time></trkpt><trkpt lat="43.1409817" lon="11.0576167"><ele>575.0</ele><time>2026-05-03T09:59:13.165Z</time></trkpt><trkpt lat="43.1411783" lon="11.0576217"><ele>575.0</ele><time>2026-05-03T09:59:14.162Z</time></trkpt><trkpt lat="43.141365" lon="11.0576017"><ele>575.0</ele><time>2026-05-03T09:59:15.162Z</time></trkpt><trkpt lat="43.1415383" lon="11.0575383"><ele>575.0</ele><time>2026-05-03T09:59:16.162Z</time></trkpt><trkpt lat="43.14169" lon="11.0574383"><ele>577.0</ele><time>2026-05-03T09:59:17.162Z</time></trkpt><trkpt lat="43.1418117" lon="11.0573017"><ele>579.0</ele><time>2026-05-03T09:59:18.162Z</time></trkpt><trkpt lat="43.1418883" lon="11.05714"><ele>581.0</ele><time>2026-05-03T09:59:19.162Z</time></trkpt><trkpt lat="43.14193" lon="11.0569567"><ele>583.0</ele><time>2026-05-03T09:59:20.162Z</time></trkpt><trkpt lat="43.141965" lon="11.0567733"><ele>586.25</ele><time>2026-05-03T09:59:21.165Z</time></trkpt><trkpt lat="43.14202" lon="11.0566133"><ele>589.5</ele><time>2026-05-03T09:59:22.167Z</time></trkpt><trkpt lat="43.1420983" lon="11.05648"><ele>592.75</ele><time>2026-05-03T09:59:23.164Z</time></trkpt><trkpt lat="43.142225" lon="11.056385"><ele>596.0</ele><time>2026-05-03T09:59:24.162Z</time></trkpt><trkpt lat="43.142365" lon="11.05627"><ele>587.6666666666666</ele><time>2026-05-03T09:59:25.165Z</time></trkpt><trkpt lat="43.1425017" lon="11.0561333"><ele>579.3333333333334</ele><time>2026-05-03T09:59:26.162Z</time></trkpt><trkpt lat="43.142625" lon="11.0559583"><ele>571.0</ele><time>2026-05-03T09:59:27.163Z</time></trkpt><trkpt lat="43.1427283" lon="11.0557583"><ele>570.6666666666667</ele><time>2026-05-03T09:59:28.163Z</time></trkpt><trkpt lat="43.1428083" lon="11.0555433"><ele>570.3333333333334</ele><time>2026-05-03T09:59:29.163Z</time></trkpt><trkpt lat="43.1428633" lon="11.05532"><ele>570.0</ele><time>2026-05-03T09:59:30.162Z</time></trkpt><trkpt lat="43.142885" lon="11.05511"><ele>569.25</ele><time>2026-05-03T09:59:31.163Z</time></trkpt><trkpt lat="43.1428667" lon="11.05492"><ele>568.5</ele><time>2026-05-03T09:59:32.163Z</time></trkpt><trkpt lat="43.142815" lon="11.0547433"><ele>567.75</ele><time>2026-05-03T09:59:33.165Z</time></trkpt><trkpt lat="43.1427283" lon="11.0545933"><ele>567.0</ele><time>2026-05-03T09:59:34.165Z</time></trkpt><trkpt lat="43.1426317" lon="11.0544533"><ele>567.0</ele><time>2026-05-03T09:59:35.165Z</time></trkpt><trkpt lat="43.1425633" lon="11.054325"><ele>567.0</ele><time>2026-05-03T09:59:36.165Z</time></trkpt><trkpt lat="43.1425433" lon="11.054215"><ele>567.0</ele><time>2026-05-03T09:59:37.165Z</time></trkpt><trkpt lat="43.1425517" lon="11.054115"><ele>567.0</ele><time>2026-05-03T09:59:38.162Z</time></trkpt><trkpt lat="43.1425783" lon="11.0540267"><ele>567.0</ele><time>2026-05-03T09:59:39.165Z</time></trkpt><trkpt lat="43.1426267" lon="11.053955"><ele>567.0</ele><time>2026-05-03T09:59:40.163Z</time></trkpt><trkpt lat="43.1427267" lon="11.0539167"><ele>568.0</ele><time>2026-05-03T09:59:41.165Z</time></trkpt><trkpt lat="43.1428983" lon="11.05398"><ele>569.0</ele><time>2026-05-03T09:59:42.163Z</time></trkpt><trkpt lat="43.1430867" lon="11.054065"><ele>570.0</ele><time>2026-05-03T09:59:43.162Z</time></trkpt><trkpt lat="43.14325" lon="11.0542367"><ele>570.0</ele><time>2026-05-03T09:59:44.165Z</time></trkpt><trkpt lat="43.1434033" lon="11.05442"><ele>570.0</ele><time>2026-05-03T09:59:45.163Z</time></trkpt><trkpt lat="43.1435367" lon="11.0546333"><ele>570.0</ele><time>2026-05-03T09:59:46.165Z</time></trkpt><trkpt lat="43.143645" lon="11.0548333"><ele>564.6666666666666</ele><time>2026-05-03T09:59:47.165Z</time></trkpt><trkpt lat="43.1437417" lon="11.0550483"><ele>559.3333333333333</ele><time>2026-05-03T09:59:48.162Z</time></trkpt><trkpt lat="43.1438167" lon="11.055265"><ele>554.0</ele><time>2026-05-03T09:59:49.165Z</time></trkpt><trkpt lat="43.1438683" lon="11.0554833"><ele>554.0</ele><time>2026-05-03T09:59:50.165Z</time></trkpt><trkpt lat="43.1438983" lon="11.0556983"><ele>554.0</ele><time>2026-05-03T09:59:51.162Z</time></trkpt><trkpt lat="43.1439317" lon="11.05591"><ele>554.0</ele><time>2026-05-03T09:59:52.165Z</time></trkpt><trkpt lat="43.143985" lon="11.056085"><ele>553.0</ele><time>2026-05-03T09:59:53.165Z</time></trkpt><trkpt lat="43.144065" lon="11.0562067"><ele>552.0</ele><time>2026-05-03T09:59:54.165Z</time></trkpt><trkpt lat="43.1441733" lon="11.0562767"><ele>551.0</ele><time>2026-05-03T09:59:55.166Z</time></trkpt><trkpt lat="43.1443" lon="11.0563"><ele>550.0</ele><time>2026-05-03T09:59:56.165Z</time></trkpt><trkpt lat="43.1444267" lon="11.0563283"><ele>550.0</ele><time>2026-05-03T09:59:57.165Z</time></trkpt><trkpt lat="43.1445383" lon="11.056405"><ele>550.0</ele><time>2026-05-03T09:59:58.164Z</time></trkpt><trkpt lat="43.1446333" lon="11.0565333"><ele>550.0</ele><time>2026-05-03T09:59:59.166Z</time></trkpt><trkpt lat="43.1447183" lon="11.0566783"><ele>550.0</ele><time>2026-05-03T10:00:00.162Z</time></trkpt><trkpt lat="43.1448117" lon="11.056805"><ele>547.0</ele><time>2026-05-03T10:00:01.165Z</time></trkpt><trkpt lat="43.144925" lon="11.0568917"><ele>544.0</ele><time>2026-05-03T10:00:02.165Z</time></trkpt><trkpt lat="43.1450367" lon="11.05698"><ele>541.0</ele><time>2026-05-03T10:00:03.162Z</time></trkpt><trkpt lat="43.1451217" lon="11.0570883"><ele>538.0</ele><time>2026-05-03T10:00:04.162Z</time></trkpt><trkpt lat="43.1451867" lon="11.05723"><ele>538.0</ele><time>2026-05-03T10:00:05.163Z</time></trkpt><trkpt lat="43.1452217" lon="11.0574067"><ele>538.0</ele><time>2026-05-03T10:00:06.162Z</time></trkpt><trkpt lat="43.14519" lon="11.0576267"><ele>538.0</ele><time>2026-05-03T10:00:07.163Z</time></trkpt><trkpt lat="43.1451117" lon="11.0578467"><ele>534.3333333333334</ele><time>2026-05-03T10:00:08.163Z</time></trkpt><trkpt lat="43.14503" lon="11.0580417"><ele>530.6666666666666</ele><time>2026-05-03T10:00:09.162Z</time></trkpt><trkpt lat="43.1449517" lon="11.058225"><ele>527.0</ele><time>2026-05-03T10:00:10.163Z</time></trkpt><trkpt lat="43.144915" lon="11.0584"><ele>525.5</ele><time>2026-05-03T10:00:11.164Z</time></trkpt><trkpt lat="43.1449383" lon="11.0585633"><ele>524.0</ele><time>2026-05-03T10:00:12.162Z</time></trkpt><trkpt lat="43.1450283" lon="11.0587117"><ele>522.5</ele><time>2026-05-03T10:00:13.164Z</time></trkpt><trkpt lat="43.1451833" lon="11.0588367"><ele>521.0</ele><time>2026-05-03T10:00:14.164Z</time></trkpt><trkpt lat="43.1453483" lon="11.05892"><ele>521.0</ele><time>2026-05-03T10:00:15.163Z</time></trkpt><trkpt lat="43.1454983" lon="11.05899"><ele>521.0</ele><time>2026-05-03T10:00:16.162Z</time></trkpt><trkpt lat="43.14563" lon="11.05907"><ele>521.0</ele><time>2026-05-03T10:00:17.164Z</time></trkpt><trkpt lat="43.1457333" lon="11.059185"><ele>521.0</ele><time>2026-05-03T10:00:18.164Z</time></trkpt><trkpt lat="43.145795" lon="11.0593433"><ele>519.0</ele><time>2026-05-03T10:00:19.164Z</time></trkpt><trkpt lat="43.1458283" lon="11.059535"><ele>517.0</ele><time>2026-05-03T10:00:20.165Z</time></trkpt><trkpt lat="43.1458117" lon="11.0597567"><ele>515.0</ele><time>2026-05-03T10:00:21.165Z</time></trkpt><trkpt lat="43.1457433" lon="11.0599933"><ele>512.6666666666666</ele><time>2026-05-03T10:00:22.165Z</time></trkpt><trkpt lat="43.1456333" lon="11.06023"><ele>510.33333333333337</ele><time>2026-05-03T10:00:23.165Z</time></trkpt><trkpt lat="43.145515" lon="11.0604533"><ele>508.0</ele><time>2026-05-03T10:00:24.165Z</time></trkpt><trkpt lat="43.1453967" lon="11.06065"><ele>513.6666666666667</ele><time>2026-05-03T10:00:25.165Z</time></trkpt><trkpt lat="43.1452767" lon="11.060815"><ele>519.3333333333334</ele><time>2026-05-03T10:00:26.165Z</time></trkpt><trkpt lat="43.1451533" lon="11.0609467"><ele>525.0</ele><time>2026-05-03T10:00:27.161Z</time></trkpt><trkpt lat="43.145025" lon="11.0610333"><ele>525.6666666666666</ele><time>2026-05-03T10:00:28.162Z</time></trkpt><trkpt lat="43.144865" lon="11.061055"><ele>526.3333333333333</ele><time>2026-05-03T10:00:29.164Z</time></trkpt><trkpt lat="43.1447017" lon="11.06106"><ele>527.0</ele><time>2026-05-03T10:00:30.165Z</time></trkpt><trkpt lat="43.1445633" lon="11.0610817"><ele>527.0</ele><time>2026-05-03T10:00:31.165Z</time></trkpt><trkpt lat="43.144465" lon="11.061165"><ele>527.0</ele><time>2026-05-03T10:00:32.167Z</time></trkpt><trkpt lat="43.144385" lon="11.0612833"><ele>527.0</ele><time>2026-05-03T10:00:33.165Z</time></trkpt><trkpt lat="43.1443367" lon="11.061425"><ele>527.0</ele><time>2026-05-03T10:00:34.166Z</time></trkpt><trkpt lat="43.1443217" lon="11.0616"><ele>529.6666666666666</ele><time>2026-05-03T10:00:35.165Z</time></trkpt><trkpt lat="43.1443" lon="11.0617867"><ele>532.3333333333334</ele><time>2026-05-03T10:00:36.165Z</time></trkpt><trkpt lat="43.144285" lon="11.0620083"><ele>535.0</ele><time>2026-05-03T10:00:37.163Z</time></trkpt><trkpt lat="43.1442883" lon="11.0622983"><ele>534.6666666666667</ele><time>2026-05-03T10:00:38.165Z</time></trkpt><trkpt lat="43.1442833" lon="11.0625683"><ele>534.3333333333334</ele><time>2026-05-03T10:00:39.162Z</time></trkpt><trkpt lat="43.1442717" lon="11.0628367"><ele>534.0</ele><time>2026-05-03T10:00:40.163Z</time></trkpt><trkpt lat="43.1442333" lon="11.06311"><ele>534.0</ele><time>2026-05-03T10:00:41.163Z</time></trkpt><trkpt lat="43.1441633" lon="11.06337"><ele>534.0</ele><time>2026-05-03T10:00:42.162Z</time></trkpt><trkpt lat="43.1440767" lon="11.0636183"><ele>534.0</ele><time>2026-05-03T10:00:43.162Z</time></trkpt><trkpt lat="43.14399" lon="11.0638333"><ele>532.0</ele><time>2026-05-03T10:00:44.163Z</time></trkpt><trkpt lat="43.1438933" lon="11.063985"><ele>530.0</ele><time>2026-05-03T10:00:45.163Z</time></trkpt><trkpt lat="43.14377" lon="11.0640733"><ele>528.0</ele><time>2026-05-03T10:00:46.163Z</time></trkpt><trkpt lat="43.1436133" lon="11.0641267"><ele>526.0</ele><time>2026-05-03T10:00:47.164Z</time></trkpt><trkpt lat="43.1434417" lon="11.0641633"><ele>526.0</ele><time>2026-05-03T10:00:48.163Z</time></trkpt><trkpt lat="43.1432783" lon="11.0642267"><ele>526.0</ele><time>2026-05-03T10:00:49.162Z</time></trkpt><trkpt lat="43.1431383" lon="11.064325"><ele>526.0</ele><time>2026-05-03T10:00:50.164Z</time></trkpt><trkpt lat="43.1430233" lon="11.0644967"><ele>522.3333333333334</ele><time>2026-05-03T10:00:51.166Z</time></trkpt><trkpt lat="43.1429217" lon="11.0647167"><ele>518.6666666666666</ele><time>2026-05-03T10:00:52.165Z</time></trkpt><trkpt lat="43.1428183" lon="11.0649517"><ele>515.0</ele><time>2026-05-03T10:00:53.165Z</time></trkpt><trkpt lat="43.1427183" lon="11.0651733"><ele>515.0</ele><time>2026-05-03T10:00:54.164Z</time></trkpt><trkpt lat="43.1426383" lon="11.065365"><ele>515.0</ele><time>2026-05-03T10:00:55.164Z</time></trkpt><trkpt lat="43.142575" lon="11.06557"><ele>515.0</ele><time>2026-05-03T10:00:56.164Z</time></trkpt><trkpt lat="43.14252" lon="11.0658067"><ele>520.0</ele><time>2026-05-03T10:00:57.165Z</time></trkpt><trkpt lat="43.1424717" lon="11.0660533"><ele>525.0</ele><time>2026-05-03T10:00:58.164Z</time></trkpt><trkpt lat="43.1424283" lon="11.0663017"><ele>530.0</ele><time>2026-05-03T10:00:59.166Z</time></trkpt><trkpt lat="43.1423817" lon="11.0665517"><ele>522.3333333333333</ele><time>2026-05-03T10:01:00.165Z</time></trkpt><trkpt lat="43.1423333" lon="11.0667967"><ele>514.6666666666666</ele><time>2026-05-03T10:01:01.164Z</time></trkpt><trkpt lat="43.1422883" lon="11.0670333"><ele>507.0</ele><time>2026-05-03T10:01:02.164Z</time></trkpt><trkpt lat="43.14225" lon="11.0672717"><ele>505.33333333333337</ele><time>2026-05-03T10:01:03.164Z</time></trkpt><trkpt lat="43.1422117" lon="11.0675"><ele>503.6666666666667</ele><time>2026-05-03T10:01:04.166Z</time></trkpt><trkpt lat="43.1421733" lon="11.0677167"><ele>502.0</ele><time>2026-05-03T10:01:05.164Z</time></trkpt><trkpt lat="43.14213" lon="11.0679133"><ele>502.0</ele><time>2026-05-03T10:01:06.164Z</time></trkpt><trkpt lat="43.1420683" lon="11.0680917"><ele>502.0</ele><time>2026-05-03T10:01:07.163Z</time></trkpt><trkpt lat="43.14197" lon="11.068235"><ele>502.0</ele><time>2026-05-03T10:01:08.166Z</time></trkpt><trkpt lat="43.1418467" lon="11.0683517"><ele>502.0</ele><time>2026-05-03T10:01:09.164Z</time></trkpt><trkpt lat="43.1417" lon="11.0684483"><ele>501.25</ele><time>2026-05-03T10:01:10.162Z</time></trkpt><trkpt lat="43.1415583" lon="11.068535"><ele>500.5</ele><time>2026-05-03T10:01:11.163Z</time></trkpt><trkpt lat="43.1414367" lon="11.0686183"><ele>499.75</ele><time>2026-05-03T10:01:12.165Z</time></trkpt><trkpt lat="43.1413383" lon="11.068715"><ele>499.0</ele><time>2026-05-03T10:01:13.162Z</time></trkpt><trkpt lat="43.1412683" lon="11.0688417"><ele>499.0</ele><time>2026-05-03T10:01:14.163Z</time></trkpt><trkpt lat="43.1412233" lon="11.0689983"><ele>499.0</ele><time>2026-05-03T10:01:15.163Z</time></trkpt><trkpt lat="43.1411967" lon="11.0691917"><ele>499.0</ele><time>2026-05-03T10:01:16.164Z</time></trkpt><trkpt lat="43.1411733" lon="11.06941"><ele>499.0</ele><time>2026-05-03T10:01:17.164Z</time></trkpt><trkpt lat="43.1411517" lon="11.0696317"><ele>499.0</ele><time>2026-05-03T10:01:18.164Z</time></trkpt><trkpt lat="43.1411267" lon="11.069845"><ele>499.0</ele><time>2026-05-03T10:01:19.162Z</time></trkpt><trkpt lat="43.141105" lon="11.0700483"><ele>499.0</ele><time>2026-05-03T10:01:20.164Z</time></trkpt><trkpt lat="43.1410883" lon="11.0702333"><ele>499.0</ele><time>2026-05-03T10:01:21.162Z</time></trkpt><trkpt lat="43.141075" lon="11.0703783"><ele>499.00000000000006</ele><time>2026-05-03T10:01:22.164Z</time></trkpt><trkpt lat="43.1410667" lon="11.0704733"><ele>499.0</ele><time>2026-05-03T10:01:23.165Z</time></trkpt><trkpt lat="43.1410633" lon="11.07058"><ele>499.0</ele><time>2026-05-03T10:01:25.165Z</time></trkpt><trkpt lat="43.1410817" lon="11.0707"><ele>499.0</ele><time>2026-05-03T10:01:27.162Z</time></trkpt><trkpt lat="43.1411233" lon="11.0708283"><ele>499.00000000000006</ele><time>2026-05-03T10:01:29.164Z</time></trkpt><trkpt lat="43.1411533" lon="11.0709267"><ele>499.0</ele><time>2026-05-03T10:01:51.163Z</time></trkpt><trkpt lat="43.1412167" lon="11.0710467"><ele>498.6666666666667</ele><time>2026-05-03T10:01:53.165Z</time></trkpt><trkpt lat="43.1413083" lon="11.0711233"><ele>498.33333333333337</ele><time>2026-05-03T10:01:55.165Z</time></trkpt><trkpt lat="43.14137" lon="11.0711433"><ele>498.0</ele><time>2026-05-03T10:01:56.165Z</time></trkpt><trkpt lat="43.1414383" lon="11.07114"><ele>497.66666666666663</ele><time>2026-05-03T10:01:57.162Z</time></trkpt><trkpt lat="43.1415067" lon="11.0711033"><ele>497.3333333333333</ele><time>2026-05-03T10:01:58.164Z</time></trkpt><trkpt lat="43.141575" lon="11.0710633"><ele>497.0</ele><time>2026-05-03T10:01:59.164Z</time></trkpt><trkpt lat="43.141655" lon="11.071035"><ele>500.6</ele><time>2026-05-03T10:02:00.165Z</time></trkpt><trkpt lat="43.141735" lon="11.0710317"><ele>504.20000000000005</ele><time>2026-05-03T10:02:01.165Z</time></trkpt><trkpt lat="43.141805" lon="11.0710483"><ele>507.8</ele><time>2026-05-03T10:02:02.162Z</time></trkpt><trkpt lat="43.14187" lon="11.0710833"><ele>511.4</ele><time>2026-05-03T10:02:03.162Z</time></trkpt><trkpt lat="43.14197" lon="11.0711783"><ele>515.0</ele><time>2026-05-03T10:02:05.162Z</time></trkpt><trkpt lat="43.1420617" lon="11.0713"><ele>515.0</ele><time>2026-05-03T10:02:07.162Z</time></trkpt><trkpt lat="43.1421133" lon="11.0713567"><ele>515.0</ele><time>2026-05-03T10:02:08.162Z</time></trkpt><trkpt lat="43.1421733" lon="11.071405"><ele>515.0</ele><time>2026-05-03T10:02:09.162Z</time></trkpt><trkpt lat="43.1422417" lon="11.071435"><ele>515.0</ele><time>2026-05-03T10:02:10.162Z</time></trkpt><trkpt lat="43.1423117" lon="11.071455"><ele>515.0</ele><time>2026-05-03T10:02:11.163Z</time></trkpt><trkpt lat="43.1423783" lon="11.0714583"><ele>515.0</ele><time>2026-05-03T10:02:12.162Z</time></trkpt><trkpt lat="43.1424483" lon="11.0714467"><ele>515.0</ele><time>2026-05-03T10:02:13.163Z</time></trkpt><trkpt lat="43.1425267" lon="11.0714317"><ele>515.8333333333333</ele><time>2026-05-03T10:02:14.162Z</time></trkpt><trkpt lat="43.142605" lon="11.0714167"><ele>516.6666666666666</ele><time>2026-05-03T10:02:15.162Z</time></trkpt><trkpt lat="43.1426817" lon="11.0714083"><ele>517.5</ele><time>2026-05-03T10:02:16.163Z</time></trkpt><trkpt lat="43.14276" lon="11.0713883"><ele>518.3333333333334</ele><time>2026-05-03T10:02:17.163Z</time></trkpt><trkpt lat="43.14284" lon="11.0713633"><ele>519.1666666666667</ele><time>2026-05-03T10:02:18.162Z</time></trkpt><trkpt lat="43.1429183" lon="11.0713233"><ele>520.0</ele><time>2026-05-03T10:02:19.162Z</time></trkpt><trkpt lat="43.14299" lon="11.07126"><ele>520.0</ele><time>2026-05-03T10:02:20.162Z</time></trkpt><trkpt lat="43.14306" lon="11.0711833"><ele>520.0</ele><time>2026-05-03T10:02:21.163Z</time></trkpt><trkpt lat="43.1431267" lon="11.0711033"><ele>520.0</ele><time>2026-05-03T10:02:22.163Z</time></trkpt><trkpt lat="43.1431967" lon="11.0710167"><ele>520.0</ele><time>2026-05-03T10:02:23.165Z</time></trkpt><trkpt lat="43.143275" lon="11.0709417"><ele>520.0</ele><time>2026-05-03T10:02:24.165Z</time></trkpt><trkpt lat="43.1433733" lon="11.0709033"><ele>520.8</ele><time>2026-05-03T10:02:25.165Z</time></trkpt><trkpt lat="43.1434767" lon="11.0709183"><ele>521.6</ele><time>2026-05-03T10:02:26.165Z</time></trkpt><trkpt lat="43.1435733" lon="11.0709767"><ele>522.4</ele><time>2026-05-03T10:02:27.162Z</time></trkpt><trkpt lat="43.1436717" lon="11.0710517"><ele>523.2</ele><time>2026-05-03T10:02:28.162Z</time></trkpt><trkpt lat="43.1437617" lon="11.0711467"><ele>524.0</ele><time>2026-05-03T10:02:29.163Z</time></trkpt><trkpt lat="43.1438367" lon="11.0712667"><ele>524.0</ele><time>2026-05-03T10:02:30.161Z</time></trkpt><trkpt lat="43.14389" lon="11.071415"><ele>524.0</ele><time>2026-05-03T10:02:31.162Z</time></trkpt><trkpt lat="43.143935" lon="11.071585"><ele>524.0</ele><time>2026-05-03T10:02:32.162Z</time></trkpt><trkpt lat="43.1439783" lon="11.071775"><ele>524.0</ele><time>2026-05-03T10:02:33.162Z</time></trkpt><trkpt lat="43.1440233" lon="11.0719733"><ele>524.5</ele><time>2026-05-03T10:02:34.163Z</time></trkpt><trkpt lat="43.1440717" lon="11.0721667"><ele>525.0</ele><time>2026-05-03T10:02:35.163Z</time></trkpt><trkpt lat="43.1441167" lon="11.072355"><ele>525.5</ele><time>2026-05-03T10:02:36.162Z</time></trkpt><trkpt lat="43.14416" lon="11.0725333"><ele>526.0</ele><time>2026-05-03T10:02:37.162Z</time></trkpt><trkpt lat="43.1442183" lon="11.072685"><ele>521.75</ele><time>2026-05-03T10:02:38.162Z</time></trkpt><trkpt lat="43.1442967" lon="11.0728017"><ele>517.5</ele><time>2026-05-03T10:02:39.162Z</time></trkpt><trkpt lat="43.1444083" lon="11.072865"><ele>513.25</ele><time>2026-05-03T10:02:40.163Z</time></trkpt><trkpt lat="43.1445367" lon="11.072885"><ele>509.0</ele><time>2026-05-03T10:02:41.162Z</time></trkpt><trkpt lat="43.1446683" lon="11.0728417"><ele>509.0</ele><time>2026-05-03T10:02:42.162Z</time></trkpt><trkpt lat="43.1447867" lon="11.07274"><ele>509.0</ele><time>2026-05-03T10:02:43.163Z</time></trkpt><trkpt lat="43.1448933" lon="11.0725983"><ele>509.0</ele><time>2026-05-03T10:02:44.163Z</time></trkpt><trkpt lat="43.145005" lon="11.0724317"><ele>515.0</ele><time>2026-05-03T10:02:45.162Z</time></trkpt><trkpt lat="43.1451317" lon="11.0722733"><ele>521.0</ele><time>2026-05-03T10:02:46.163Z</time></trkpt><trkpt lat="43.14527" lon="11.0721267"><ele>527.0</ele><time>2026-05-03T10:02:47.162Z</time></trkpt><trkpt lat="43.14541" lon="11.0720283"><ele>527.0</ele><time>2026-05-03T10:02:48.162Z</time></trkpt><trkpt lat="43.14554" lon="11.0719783"><ele>527.0</ele><time>2026-05-03T10:02:49.162Z</time></trkpt><trkpt lat="43.145655" lon="11.0719683"><ele>527.0</ele><time>2026-05-03T10:02:50.165Z</time></trkpt><trkpt lat="43.1457667" lon="11.0720133"><ele>527.0</ele><time>2026-05-03T10:02:51.165Z</time></trkpt><trkpt lat="43.1458767" lon="11.0720733"><ele>525.0</ele><time>2026-05-03T10:02:52.165Z</time></trkpt><trkpt lat="43.1459867" lon="11.0721017"><ele>523.0</ele><time>2026-05-03T10:02:53.166Z</time></trkpt><trkpt lat="43.14609" lon="11.0720783"><ele>521.0</ele><time>2026-05-03T10:02:54.165Z</time></trkpt><trkpt lat="43.1461917" lon="11.0719883"><ele>519.0</ele><time>2026-05-03T10:02:55.162Z</time></trkpt><trkpt lat="43.1463033" lon="11.0718933"><ele>519.0</ele><time>2026-05-03T10:02:56.166Z</time></trkpt><trkpt lat="43.14643" lon="11.07179"><ele>519.0</ele><time>2026-05-03T10:02:57.162Z</time></trkpt><trkpt lat="43.1465683" lon="11.071715"><ele>519.0</ele><time>2026-05-03T10:02:58.162Z</time></trkpt><trkpt lat="43.146725" lon="11.071675"><ele>517.0</ele><time>2026-05-03T10:02:59.163Z</time></trkpt><trkpt lat="43.1468867" lon="11.071655"><ele>515.0</ele><time>2026-05-03T10:03:00.163Z</time></trkpt><trkpt lat="43.1470333" lon="11.0716183"><ele>513.0</ele><time>2026-05-03T10:03:01.163Z</time></trkpt><trkpt lat="43.1471533" lon="11.0715517"><ele>511.0</ele><time>2026-05-03T10:03:02.164Z</time></trkpt><trkpt lat="43.1472567" lon="11.071435"><ele>513.0</ele><time>2026-05-03T10:03:03.162Z</time></trkpt><trkpt lat="43.14734" lon="11.071275"><ele>515.0</ele><time>2026-05-03T10:03:04.162Z</time></trkpt><trkpt lat="43.1474067" lon="11.0711033"><ele>517.0</ele><time>2026-05-03T10:03:05.165Z</time></trkpt><trkpt lat="43.1474733" lon="11.0709633"><ele>519.0</ele><time>2026-05-03T10:03:06.163Z</time></trkpt><trkpt lat="43.1475533" lon="11.0708683"><ele>519.0</ele><time>2026-05-03T10:03:07.163Z</time></trkpt><trkpt lat="43.1476433" lon="11.07083"><ele>519.0</ele><time>2026-05-03T10:03:08.163Z</time></trkpt><trkpt lat="43.14774" lon="11.0708583"><ele>519.0</ele><time>2026-05-03T10:03:09.162Z</time></trkpt><trkpt lat="43.1478233" lon="11.07096"><ele>519.0</ele><time>2026-05-03T10:03:10.165Z</time></trkpt><trkpt lat="43.1478983" lon="11.07111"><ele>519.0</ele><time>2026-05-03T10:03:11.162Z</time></trkpt><trkpt lat="43.14797" lon="11.0712617"><ele>519.0</ele><time>2026-05-03T10:03:12.162Z</time></trkpt><trkpt lat="43.148045" lon="11.0713967"><ele>519.0</ele><time>2026-05-03T10:03:13.166Z</time></trkpt><trkpt lat="43.1481267" lon="11.071495"><ele>519.0</ele><time>2026-05-03T10:03:14.165Z</time></trkpt><trkpt lat="43.148225" lon="11.0715483"><ele>519.0</ele><time>2026-05-03T10:03:15.165Z</time></trkpt><trkpt lat="43.14832" lon="11.071545"><ele>519.0</ele><time>2026-05-03T10:03:16.163Z</time></trkpt><trkpt lat="43.1484083" lon="11.0714683"><ele>515.25</ele><time>2026-05-03T10:03:17.162Z</time></trkpt><trkpt lat="43.1484783" lon="11.0713317"><ele>511.5</ele><time>2026-05-03T10:03:18.162Z</time></trkpt><trkpt lat="43.14853" lon="11.0711767"><ele>507.75</ele><time>2026-05-03T10:03:19.163Z</time></trkpt><trkpt lat="43.148575" lon="11.071"><ele>504.0</ele><time>2026-05-03T10:03:20.162Z</time></trkpt><trkpt lat="43.1486367" lon="11.0708683"><ele>503.2</ele><time>2026-05-03T10:03:21.162Z</time></trkpt><trkpt lat="43.148715" lon="11.0707617"><ele>502.4</ele><time>2026-05-03T10:03:22.163Z</time></trkpt><trkpt lat="43.1488067" lon="11.0707017"><ele>501.6</ele><time>2026-05-03T10:03:23.163Z</time></trkpt><trkpt lat="43.1488917" lon="11.070635"><ele>500.8</ele><time>2026-05-03T10:03:24.162Z</time></trkpt><trkpt lat="43.14896" lon="11.0706667"><ele>500.0</ele><time>2026-05-03T10:03:25.163Z</time></trkpt><trkpt lat="43.14908" lon="11.0708733"><ele>500.0</ele><time>2026-05-03T10:03:26.164Z</time></trkpt><trkpt lat="43.1491267" lon="11.0711133"><ele>500.0</ele><time>2026-05-03T10:03:27.162Z</time></trkpt><trkpt lat="43.14918" lon="11.07128"><ele>500.0</ele><time>2026-05-03T10:03:28.163Z</time></trkpt><trkpt lat="43.149215" lon="11.0716667"><ele>496.0</ele><time>2026-05-03T10:03:29.164Z</time></trkpt><trkpt lat="43.1492767" lon="11.0719567"><ele>492.0</ele><time>2026-05-03T10:03:30.162Z</time></trkpt><trkpt lat="43.1493283" lon="11.0722283"><ele>488.0</ele><time>2026-05-03T10:03:31.163Z</time></trkpt><trkpt lat="43.1493833" lon="11.07248"><ele>485.25</ele><time>2026-05-03T10:03:32.163Z</time></trkpt><trkpt lat="43.1494333" lon="11.0727067"><ele>482.5</ele><time>2026-05-03T10:03:33.163Z</time></trkpt><trkpt lat="43.14949" lon="11.072895"><ele>479.75</ele><time>2026-05-03T10:03:34.164Z</time></trkpt><trkpt lat="43.1495533" lon="11.0730367"><ele>477.0</ele><time>2026-05-03T10:03:35.166Z</time></trkpt><trkpt lat="43.149635" lon="11.0731233"><ele>477.0</ele><time>2026-05-03T10:03:36.165Z</time></trkpt><trkpt lat="43.1497317" lon="11.0731467"><ele>477.00000000000006</ele><time>2026-05-03T10:03:37.166Z</time></trkpt><trkpt lat="43.1498167" lon="11.073115"><ele>477.00000000000006</ele><time>2026-05-03T10:03:38.162Z</time></trkpt><trkpt lat="43.1498933" lon="11.07302"><ele>477.0</ele><time>2026-05-03T10:03:39.163Z</time></trkpt><trkpt lat="43.1499417" lon="11.0728733"><ele>477.0</ele><time>2026-05-03T10:03:40.166Z</time></trkpt><trkpt lat="43.149955" lon="11.0727067"><ele>478.0</ele><time>2026-05-03T10:03:41.163Z</time></trkpt><trkpt lat="43.1500033" lon="11.0724933"><ele>479.0</ele><time>2026-05-03T10:03:42.162Z</time></trkpt><trkpt lat="43.15007" lon="11.0723117"><ele>480.0</ele><time>2026-05-03T10:03:43.164Z</time></trkpt><trkpt lat="43.1501583" lon="11.0721633"><ele>480.75</ele><time>2026-05-03T10:03:44.164Z</time></trkpt><trkpt lat="43.1502683" lon="11.0720733"><ele>481.5</ele><time>2026-05-03T10:03:45.166Z</time></trkpt><trkpt lat="43.1503817" lon="11.0720283"><ele>482.25</ele><time>2026-05-03T10:03:46.165Z</time></trkpt><trkpt lat="43.1505367" lon="11.07215"><ele>483.0</ele><time>2026-05-03T10:03:47.165Z</time></trkpt><trkpt lat="43.15067" lon="11.0722883"><ele>480.33333333333337</ele><time>2026-05-03T10:03:48.161Z</time></trkpt><trkpt lat="43.15081" lon="11.0724517"><ele>477.6666666666667</ele><time>2026-05-03T10:03:49.164Z</time></trkpt><trkpt lat="43.15095" lon="11.072615"><ele>475.0</ele><time>2026-05-03T10:03:50.164Z</time></trkpt><trkpt lat="43.15108" lon="11.0727883"><ele>475.0</ele><time>2026-05-03T10:03:51.165Z</time></trkpt><trkpt lat="43.1511983" lon="11.0729817"><ele>475.0</ele><time>2026-05-03T10:03:52.163Z</time></trkpt><trkpt lat="43.1512867" lon="11.0731967"><ele>475.0</ele><time>2026-05-03T10:03:53.167Z</time></trkpt><trkpt lat="43.1513467" lon="11.073435"><ele>473.33333333333337</ele><time>2026-05-03T10:03:54.165Z</time></trkpt><trkpt lat="43.1513967" lon="11.0736717"><ele>471.66666666666663</ele><time>2026-05-03T10:03:55.165Z</time></trkpt><trkpt lat="43.151455" lon="11.07389"><ele>470.0</ele><time>2026-05-03T10:03:56.257Z</time></trkpt><trkpt lat="43.151535" lon="11.0740783"><ele>471.66666666666663</ele><time>2026-05-03T10:03:57.162Z</time></trkpt><trkpt lat="43.1516483" lon="11.0742367"><ele>473.33333333333337</ele><time>2026-05-03T10:03:58.162Z</time></trkpt><trkpt lat="43.151785" lon="11.0743633"><ele>475.0</ele><time>2026-05-03T10:03:59.163Z</time></trkpt><trkpt lat="43.1519433" lon="11.0744417"><ele>475.0</ele><time>2026-05-03T10:04:00.163Z</time></trkpt><trkpt lat="43.1521133" lon="11.07447"><ele>475.0</ele><time>2026-05-03T10:04:01.162Z</time></trkpt><trkpt lat="43.1522817" lon="11.0744367"><ele>475.0</ele><time>2026-05-03T10:04:02.162Z</time></trkpt><trkpt lat="43.15245" lon="11.0743783"><ele>475.75</ele><time>2026-05-03T10:04:03.162Z</time></trkpt><trkpt lat="43.152605" lon="11.074335"><ele>476.5</ele><time>2026-05-03T10:04:04.163Z</time></trkpt><trkpt lat="43.1527367" lon="11.0743217"><ele>477.25</ele><time>2026-05-03T10:04:05.164Z</time></trkpt><trkpt lat="43.15283" lon="11.0743517"><ele>478.0</ele><time>2026-05-03T10:04:06.165Z</time></trkpt><trkpt lat="43.1528883" lon="11.074415"><ele>478.0</ele><time>2026-05-03T10:04:07.162Z</time></trkpt><trkpt lat="43.1528783" lon="11.0745233"><ele>477.99999999999994</ele><time>2026-05-03T10:04:09.164Z</time></trkpt><trkpt lat="43.1527633" lon="11.07457"><ele>477.99999999999994</ele><time>2026-05-03T10:04:11.163Z</time></trkpt><trkpt lat="43.1526667" lon="11.0745883"><ele>478.0</ele><time>2026-05-03T10:04:12.161Z</time></trkpt><trkpt lat="43.152545" lon="11.0746383"><ele>478.0</ele><time>2026-05-03T10:04:13.164Z</time></trkpt><trkpt lat="43.1523633" lon="11.07471"><ele>478.6666666666667</ele><time>2026-05-03T10:04:14.162Z</time></trkpt><trkpt lat="43.152225" lon="11.0748167"><ele>479.33333333333337</ele><time>2026-05-03T10:04:15.163Z</time></trkpt><trkpt lat="43.1521" lon="11.0749433"><ele>480.0</ele><time>2026-05-03T10:04:16.162Z</time></trkpt><trkpt lat="43.1519917" lon="11.075105"><ele>480.0</ele><time>2026-05-03T10:04:17.163Z</time></trkpt><trkpt lat="43.151935" lon="11.0753133"><ele>480.0</ele><time>2026-05-03T10:04:18.162Z</time></trkpt><trkpt lat="43.1519233" lon="11.075545"><ele>480.0</ele><time>2026-05-03T10:04:19.163Z</time></trkpt><trkpt lat="43.1519433" lon="11.075795"><ele>481.5</ele><time>2026-05-03T10:04:20.168Z</time></trkpt><trkpt lat="43.1519967" lon="11.076015"><ele>483.0</ele><time>2026-05-03T10:04:21.162Z</time></trkpt><trkpt lat="43.15206" lon="11.0761683"><ele>484.5</ele><time>2026-05-03T10:04:22.17Z</time></trkpt><trkpt lat="43.1521033" lon="11.0762733"><ele>486.0</ele><time>2026-05-03T10:04:23.165Z</time></trkpt><trkpt lat="43.1521867" lon="11.0763417"><ele>486.0</ele><time>2026-05-03T10:04:24.164Z</time></trkpt><trkpt lat="43.1523483" lon="11.0763283"><ele>486.0</ele><time>2026-05-03T10:04:25.163Z</time></trkpt><trkpt lat="43.1524883" lon="11.0763467"><ele>486.0</ele><time>2026-05-03T10:04:26.162Z</time></trkpt><trkpt lat="43.15262" lon="11.0764217"><ele>486.0</ele><time>2026-05-03T10:04:27.165Z</time></trkpt><trkpt lat="43.1527433" lon="11.076535"><ele>489.25</ele><time>2026-05-03T10:04:28.165Z</time></trkpt><trkpt lat="43.152865" lon="11.0766567"><ele>492.5</ele><time>2026-05-03T10:04:29.165Z</time></trkpt><trkpt lat="43.1529583" lon="11.0767983"><ele>495.75</ele><time>2026-05-03T10:04:30.165Z</time></trkpt><trkpt lat="43.1530217" lon="11.0769567"><ele>499.0</ele><time>2026-05-03T10:04:31.164Z</time></trkpt><trkpt lat="43.1530567" lon="11.0771317"><ele>499.0</ele><time>2026-05-03T10:04:32.162Z</time></trkpt><trkpt lat="43.1530633" lon="11.077315"><ele>499.0</ele><time>2026-05-03T10:04:33.166Z</time></trkpt><trkpt lat="43.1530483" lon="11.0775017"><ele>499.0</ele><time>2026-05-03T10:04:34.165Z</time></trkpt><trkpt lat="43.1530117" lon="11.0776917"><ele>499.0</ele><time>2026-05-03T10:04:35.165Z</time></trkpt><trkpt lat="43.1529567" lon="11.0778767"><ele>498.75</ele><time>2026-05-03T10:04:36.168Z</time></trkpt><trkpt lat="43.1529033" lon="11.0780583"><ele>498.5</ele><time>2026-05-03T10:04:37.165Z</time></trkpt><trkpt lat="43.1528567" lon="11.0782433"><ele>498.25</ele><time>2026-05-03T10:04:38.165Z</time></trkpt><trkpt lat="43.152815" lon="11.078435"><ele>498.0</ele><time>2026-05-03T10:04:39.164Z</time></trkpt><trkpt lat="43.1527833" lon="11.0786333"><ele>498.75</ele><time>2026-05-03T10:04:40.164Z</time></trkpt><trkpt lat="43.1527517" lon="11.0788333"><ele>499.5</ele><time>2026-05-03T10:04:41.163Z</time></trkpt><trkpt lat="43.1527267" lon="11.079025"><ele>500.25</ele><time>2026-05-03T10:04:42.165Z</time></trkpt><trkpt lat="43.1527133" lon="11.0792067"><ele>501.0</ele><time>2026-05-03T10:04:43.163Z</time></trkpt><trkpt lat="43.1527217" lon="11.0793817"><ele>502.25</ele><time>2026-05-03T10:04:44.162Z</time></trkpt><trkpt lat="43.1527567" lon="11.0795517"><ele>503.5</ele><time>2026-05-03T10:04:45.165Z</time></trkpt><trkpt lat="43.1527933" lon="11.0797217"><ele>504.75</ele><time>2026-05-03T10:04:46.163Z</time></trkpt><trkpt lat="43.1528217" lon="11.0799"><ele>506.0</ele><time>2026-05-03T10:04:47.165Z</time></trkpt><trkpt lat="43.1528283" lon="11.0800817"><ele>507.25</ele><time>2026-05-03T10:04:48.164Z</time></trkpt><trkpt lat="43.152825" lon="11.080265"><ele>508.5</ele><time>2026-05-03T10:04:49.165Z</time></trkpt><trkpt lat="43.1528217" lon="11.0804533"><ele>509.75</ele><time>2026-05-03T10:04:50.165Z</time></trkpt><trkpt lat="43.1528067" lon="11.0806367"><ele>511.0</ele><time>2026-05-03T10:04:51.164Z</time></trkpt><trkpt lat="43.1527683" lon="11.0807983"><ele>513.0</ele><time>2026-05-03T10:04:52.165Z</time></trkpt><trkpt lat="43.1526983" lon="11.0809417"><ele>515.0</ele><time>2026-05-03T10:04:53.165Z</time></trkpt><trkpt lat="43.15261" lon="11.0810667"><ele>517.0</ele><time>2026-05-03T10:04:54.162Z</time></trkpt><trkpt lat="43.1525167" lon="11.0811967"><ele>519.0</ele><time>2026-05-03T10:04:55.165Z</time></trkpt><trkpt lat="43.152425" lon="11.0813367"><ele>519.0</ele><time>2026-05-03T10:04:56.165Z</time></trkpt><trkpt lat="43.152375" lon="11.0815083"><ele>519.0</ele><time>2026-05-03T10:04:57.162Z</time></trkpt><trkpt lat="43.1523533" lon="11.081685"><ele>519.0</ele><time>2026-05-03T10:04:58.165Z</time></trkpt><trkpt lat="43.1523633" lon="11.0818633"><ele>519.0</ele><time>2026-05-03T10:04:59.166Z</time></trkpt><trkpt lat="43.1524267" lon="11.0820233"><ele>520.25</ele><time>2026-05-03T10:05:00.165Z</time></trkpt><trkpt lat="43.15253" lon="11.082145"><ele>521.5</ele><time>2026-05-03T10:05:01.166Z</time></trkpt><trkpt lat="43.1526567" lon="11.0822217"><ele>522.75</ele><time>2026-05-03T10:05:02.165Z</time></trkpt><trkpt lat="43.1527933" lon="11.08225"><ele>524.0</ele><time>2026-05-03T10:05:03.162Z</time></trkpt><trkpt lat="43.1529367" lon="11.082255"><ele>524.0</ele><time>2026-05-03T10:05:04.165Z</time></trkpt><trkpt lat="43.1530833" lon="11.082265"><ele>524.0</ele><time>2026-05-03T10:05:05.165Z</time></trkpt><trkpt lat="43.1532183" lon="11.08232"><ele>524.0</ele><time>2026-05-03T10:05:06.166Z</time></trkpt><trkpt lat="43.15334" lon="11.08242"><ele>524.0</ele><time>2026-05-03T10:05:07.165Z</time></trkpt><trkpt lat="43.1534383" lon="11.0825517"><ele>526.5</ele><time>2026-05-03T10:05:08.166Z</time></trkpt><trkpt lat="43.1535217" lon="11.0826983"><ele>529.0</ele><time>2026-05-03T10:05:09.161Z</time></trkpt><trkpt lat="43.1536017" lon="11.0828517"><ele>531.5</ele><time>2026-05-03T10:05:10.164Z</time></trkpt><trkpt lat="43.15367" lon="11.0830167"><ele>534.0</ele><time>2026-05-03T10:05:11.166Z</time></trkpt><trkpt lat="43.1537317" lon="11.0831817"><ele>531.0</ele><time>2026-05-03T10:05:12.166Z</time></trkpt><trkpt lat="43.1537917" lon="11.0833433"><ele>528.0</ele><time>2026-05-03T10:05:13.165Z</time></trkpt><trkpt lat="43.153855" lon="11.0835033"><ele>525.0</ele><time>2026-05-03T10:05:14.165Z</time></trkpt><trkpt lat="43.153915" lon="11.0836567"><ele>522.0</ele><time>2026-05-03T10:05:15.164Z</time></trkpt><trkpt lat="43.1539733" lon="11.083805"><ele>522.0</ele><time>2026-05-03T10:05:16.164Z</time></trkpt><trkpt lat="43.1540333" lon="11.0839467"><ele>522.0</ele><time>2026-05-03T10:05:17.166Z</time></trkpt><trkpt lat="43.154085" lon="11.0840867"><ele>522.0</ele><time>2026-05-03T10:05:18.165Z</time></trkpt><trkpt lat="43.154135" lon="11.0842233"><ele>522.0</ele><time>2026-05-03T10:05:19.162Z</time></trkpt><trkpt lat="43.1541817" lon="11.0843583"><ele>524.2</ele><time>2026-05-03T10:05:20.165Z</time></trkpt><trkpt lat="43.154225" lon="11.084495"><ele>526.4000000000001</ele><time>2026-05-03T10:05:21.166Z</time></trkpt><trkpt lat="43.1542633" lon="11.0846333"><ele>528.5999999999999</ele><time>2026-05-03T10:05:22.162Z</time></trkpt><trkpt lat="43.15429" lon="11.0847783"><ele>530.8</ele><time>2026-05-03T10:05:23.165Z</time></trkpt><trkpt lat="43.1543" lon="11.0849267"><ele>533.0</ele><time>2026-05-03T10:05:24.166Z</time></trkpt><trkpt lat="43.1543083" lon="11.08508"><ele>533.0</ele><time>2026-05-03T10:05:25.165Z</time></trkpt><trkpt lat="43.1543117" lon="11.0852367"><ele>533.0</ele><time>2026-05-03T10:05:26.165Z</time></trkpt><trkpt lat="43.1543183" lon="11.0853933"><ele>533.0</ele><time>2026-05-03T10:05:27.165Z</time></trkpt><trkpt lat="43.154315" lon="11.0855433"><ele>533.0</ele><time>2026-05-03T10:05:28.165Z</time></trkpt><trkpt lat="43.15431" lon="11.085685"><ele>533.0</ele><time>2026-05-03T10:05:29.165Z</time></trkpt><trkpt lat="43.1542983" lon="11.0858067"><ele>533.5</ele><time>2026-05-03T10:05:30.164Z</time></trkpt><trkpt lat="43.154285" lon="11.0859167"><ele>534.0</ele><time>2026-05-03T10:05:31.162Z</time></trkpt><trkpt lat="43.1542633" lon="11.0860217"><ele>534.5</ele><time>2026-05-03T10:05:32.165Z</time></trkpt><trkpt lat="43.1542467" lon="11.0861117"><ele>535.0</ele><time>2026-05-03T10:05:33.165Z</time></trkpt><trkpt lat="43.1542583" lon="11.08625"><ele>535.5</ele><time>2026-05-03T10:05:35.165Z</time></trkpt><trkpt lat="43.1543333" lon="11.0862717"><ele>536.0</ele><time>2026-05-03T10:05:37.168Z</time></trkpt><trkpt lat="43.1544183" lon="11.0862217"><ele>536.0</ele><time>2026-05-03T10:05:39.162Z</time></trkpt><trkpt lat="43.1544733" lon="11.0860667"><ele>536.0</ele><time>2026-05-03T10:05:41.165Z</time></trkpt><trkpt lat="43.1544967" lon="11.0859733"><ele>536.0</ele><time>2026-05-03T10:05:42.163Z</time></trkpt><trkpt lat="43.1545183" lon="11.0858767"><ele>536.0</ele><time>2026-05-03T10:05:43.163Z</time></trkpt><trkpt lat="43.1545483" lon="11.0857817"><ele>536.0</ele><time>2026-05-03T10:05:44.164Z</time></trkpt><trkpt lat="43.154575" lon="11.0856867"><ele>536.0</ele><time>2026-05-03T10:05:45.164Z</time></trkpt><trkpt lat="43.1546117" lon="11.0855933"><ele>535.5</ele><time>2026-05-03T10:05:46.164Z</time></trkpt><trkpt lat="43.1546467" lon="11.0855"><ele>535.0</ele><time>2026-05-03T10:05:47.166Z</time></trkpt><trkpt lat="43.1546833" lon="11.0854083"><ele>534.5</ele><time>2026-05-03T10:05:48.165Z</time></trkpt><trkpt lat="43.15472" lon="11.085315"><ele>534.0</ele><time>2026-05-03T10:05:49.166Z</time></trkpt><trkpt lat="43.1547583" lon="11.0852117"><ele>533.5</ele><time>2026-05-03T10:05:50.166Z</time></trkpt><trkpt lat="43.15481" lon="11.0851033"><ele>533.0</ele><time>2026-05-03T10:05:51.161Z</time></trkpt><trkpt lat="43.1548583" lon="11.0849867"><ele>537.6</ele><time>2026-05-03T10:05:52.163Z</time></trkpt><trkpt lat="43.15491" lon="11.0848683"><ele>542.1999999999999</ele><time>2026-05-03T10:05:53.166Z</time></trkpt><trkpt lat="43.1549617" lon="11.084745"><ele>546.8</ele><time>2026-05-03T10:05:54.165Z</time></trkpt><trkpt lat="43.1550133" lon="11.0846067"><ele>551.4</ele><time>2026-05-03T10:05:55.162Z</time></trkpt><trkpt lat="43.15506" lon="11.0844633"><ele>556.0</ele><time>2026-05-03T10:05:56.162Z</time></trkpt><trkpt lat="43.15512" lon="11.0843167"><ele>556.0</ele><time>2026-05-03T10:05:57.163Z</time></trkpt><trkpt lat="43.1551917" lon="11.0841633"><ele>556.0</ele><time>2026-05-03T10:05:58.165Z</time></trkpt><trkpt lat="43.1552533" lon="11.084015"><ele>556.0</ele><time>2026-05-03T10:05:59.165Z</time></trkpt><trkpt lat="43.155315" lon="11.08387"><ele>556.0</ele><time>2026-05-03T10:06:00.165Z</time></trkpt><trkpt lat="43.1553767" lon="11.08374"><ele>556.4</ele><time>2026-05-03T10:06:01.166Z</time></trkpt><trkpt lat="43.1554417" lon="11.0836183"><ele>556.8</ele><time>2026-05-03T10:06:02.166Z</time></trkpt><trkpt lat="43.15552" lon="11.0835033"><ele>557.1999999999999</ele><time>2026-05-03T10:06:03.165Z</time></trkpt><trkpt lat="43.1556033" lon="11.0834217"><ele>557.6</ele><time>2026-05-03T10:06:04.165Z</time></trkpt><trkpt lat="43.1556867" lon="11.0833733"><ele>558.0</ele><time>2026-05-03T10:06:05.167Z</time></trkpt><trkpt lat="43.1557717" lon="11.08338"><ele>555.6</ele><time>2026-05-03T10:06:06.166Z</time></trkpt><trkpt lat="43.15586" lon="11.0834083"><ele>553.1999999999999</ele><time>2026-05-03T10:06:07.165Z</time></trkpt><trkpt lat="43.1559367" lon="11.0834583"><ele>550.8</ele><time>2026-05-03T10:06:08.166Z</time></trkpt><trkpt lat="43.1559733" lon="11.0835517"><ele>548.4</ele><time>2026-05-03T10:06:09.165Z</time></trkpt><trkpt lat="43.1559883" lon="11.08369"><ele>546.0</ele><time>2026-05-03T10:06:10.165Z</time></trkpt><trkpt lat="43.1559817" lon="11.0838767"><ele>546.0</ele><time>2026-05-03T10:06:11.168Z</time></trkpt><trkpt lat="43.1559833" lon="11.08406"><ele>546.0</ele><time>2026-05-03T10:06:12.166Z</time></trkpt><trkpt lat="43.155995" lon="11.0842533"><ele>546.0</ele><time>2026-05-03T10:06:13.163Z</time></trkpt><trkpt lat="43.156035" lon="11.0844183"><ele>546.0</ele><time>2026-05-03T10:06:14.168Z</time></trkpt><trkpt lat="43.1561117" lon="11.08454"><ele>545.5</ele><time>2026-05-03T10:06:15.166Z</time></trkpt><trkpt lat="43.1562133" lon="11.0846117"><ele>545.0</ele><time>2026-05-03T10:06:16.162Z</time></trkpt><trkpt lat="43.1563283" lon="11.0846133"><ele>544.5</ele><time>2026-05-03T10:06:17.163Z</time></trkpt><trkpt lat="43.1564433" lon="11.084575"><ele>544.0</ele><time>2026-05-03T10:06:18.162Z</time></trkpt><trkpt lat="43.156555" lon="11.084535"><ele>544.0</ele><time>2026-05-03T10:06:19.163Z</time></trkpt><trkpt lat="43.1566667" lon="11.0845233"><ele>544.0</ele><time>2026-05-03T10:06:20.165Z</time></trkpt><trkpt lat="43.1567683" lon="11.0845633"><ele>544.0</ele><time>2026-05-03T10:06:21.165Z</time></trkpt><trkpt lat="43.1568483" lon="11.08465"><ele>544.0</ele><time>2026-05-03T10:06:22.165Z</time></trkpt><trkpt lat="43.156905" lon="11.0847967"><ele>544.0</ele><time>2026-05-03T10:06:23.165Z</time></trkpt><trkpt lat="43.1569433" lon="11.0849933"><ele>539.0</ele><time>2026-05-03T10:06:24.166Z</time></trkpt><trkpt lat="43.1569967" lon="11.0851733"><ele>534.0</ele><time>2026-05-03T10:06:25.167Z</time></trkpt><trkpt lat="43.1570867" lon="11.08533"><ele>529.0</ele><time>2026-05-03T10:06:26.165Z</time></trkpt><trkpt lat="43.1572" lon="11.0854783"><ele>524.0</ele><time>2026-05-03T10:06:27.163Z</time></trkpt><trkpt lat="43.1573233" lon="11.08564"><ele>523.3333333333333</ele><time>2026-05-03T10:06:28.165Z</time></trkpt><trkpt lat="43.1574633" lon="11.0858033"><ele>522.6666666666666</ele><time>2026-05-03T10:06:29.165Z</time></trkpt><trkpt lat="43.1576183" lon="11.085945"><ele>522.0</ele><time>2026-05-03T10:06:30.165Z</time></trkpt><trkpt lat="43.1577817" lon="11.0860583"><ele>522.0</ele><time>2026-05-03T10:06:31.164Z</time></trkpt><trkpt lat="43.1579467" lon="11.0861667"><ele>522.0</ele><time>2026-05-03T10:06:32.165Z</time></trkpt><trkpt lat="43.158095" lon="11.0862883"><ele>522.0</ele><time>2026-05-03T10:06:33.164Z</time></trkpt><trkpt lat="43.158235" lon="11.0864067"><ele>526.3333333333334</ele><time>2026-05-03T10:06:34.164Z</time></trkpt><trkpt lat="43.1583717" lon="11.086515"><ele>530.6666666666667</ele><time>2026-05-03T10:06:35.165Z</time></trkpt><trkpt lat="43.1585033" lon="11.0866083"><ele>535.0</ele><time>2026-05-03T10:06:36.165Z</time></trkpt><trkpt lat="43.1586367" lon="11.086695"><ele>528.5</ele><time>2026-05-03T10:06:37.165Z</time></trkpt><trkpt lat="43.1587683" lon="11.0867633"><ele>522.0</ele><time>2026-05-03T10:06:38.164Z</time></trkpt><trkpt lat="43.1588983" lon="11.086815"><ele>515.5</ele><time>2026-05-03T10:06:39.164Z</time></trkpt><trkpt lat="43.1590183" lon="11.0868317"><ele>509.0</ele><time>2026-05-03T10:06:40.162Z</time></trkpt><trkpt lat="43.1591183" lon="11.0868067"><ele>508.75</ele><time>2026-05-03T10:06:41.164Z</time></trkpt><trkpt lat="43.1592083" lon="11.0867467"><ele>508.5</ele><time>2026-05-03T10:06:42.162Z</time></trkpt><trkpt lat="43.1592833" lon="11.086625"><ele>508.25</ele><time>2026-05-03T10:06:43.163Z</time></trkpt><trkpt lat="43.1593333" lon="11.086435"><ele>508.0</ele><time>2026-05-03T10:06:44.161Z</time></trkpt><trkpt lat="43.1593567" lon="11.0861833"><ele>511.6666666666667</ele><time>2026-05-03T10:06:45.163Z</time></trkpt><trkpt lat="43.159385" lon="11.0859583"><ele>515.3333333333334</ele><time>2026-05-03T10:06:46.161Z</time></trkpt><trkpt lat="43.159425" lon="11.0857333"><ele>519.0</ele><time>2026-05-03T10:06:47.163Z</time></trkpt><trkpt lat="43.1594733" lon="11.0855117"><ele>522.6666666666666</ele><time>2026-05-03T10:06:48.161Z</time></trkpt><trkpt lat="43.1595367" lon="11.0852933"><ele>526.3333333333333</ele><time>2026-05-03T10:06:49.161Z</time></trkpt><trkpt lat="43.159615" lon="11.0850933"><ele>530.0</ele><time>2026-05-03T10:06:50.165Z</time></trkpt><trkpt lat="43.1597" lon="11.084905"><ele>532.25</ele><time>2026-05-03T10:06:51.161Z</time></trkpt><trkpt lat="43.1597917" lon="11.08473"><ele>534.5</ele><time>2026-05-03T10:06:52.162Z</time></trkpt><trkpt lat="43.159885" lon="11.0845867"><ele>536.75</ele><time>2026-05-03T10:06:53.163Z</time></trkpt><trkpt lat="43.1599867" lon="11.0844817"><ele>539.0</ele><time>2026-05-03T10:06:54.165Z</time></trkpt><trkpt lat="43.1600983" lon="11.084425"><ele>531.75</ele><time>2026-05-03T10:06:55.164Z</time></trkpt><trkpt lat="43.160215" lon="11.0844267"><ele>524.5</ele><time>2026-05-03T10:06:56.164Z</time></trkpt><trkpt lat="43.1603233" lon="11.0844833"><ele>517.25</ele><time>2026-05-03T10:06:57.164Z</time></trkpt><trkpt lat="43.1604" lon="11.0846033"><ele>510.0</ele><time>2026-05-03T10:06:58.164Z</time></trkpt><trkpt lat="43.1604533" lon="11.0847733"><ele>506.33333333333337</ele><time>2026-05-03T10:06:59.165Z</time></trkpt><trkpt lat="43.1605067" lon="11.0849633"><ele>502.6666666666667</ele><time>2026-05-03T10:07:00.164Z</time></trkpt><trkpt lat="43.1605883" lon="11.0851617"><ele>499.0</ele><time>2026-05-03T10:07:01.164Z</time></trkpt><trkpt lat="43.1607017" lon="11.0853617"><ele>499.0</ele><time>2026-05-03T10:07:02.165Z</time></trkpt><trkpt lat="43.1608167" lon="11.08557"><ele>499.0</ele><time>2026-05-03T10:07:03.165Z</time></trkpt><trkpt lat="43.1609233" lon="11.0858"><ele>499.0</ele><time>2026-05-03T10:07:04.166Z</time></trkpt><trkpt lat="43.1610267" lon="11.0860417"><ele>494.33333333333337</ele><time>2026-05-03T10:07:05.166Z</time></trkpt><trkpt lat="43.1611283" lon="11.0862717"><ele>489.66666666666663</ele><time>2026-05-03T10:07:06.164Z</time></trkpt><trkpt lat="43.16122" lon="11.086495"><ele>485.0</ele><time>2026-05-03T10:07:07.165Z</time></trkpt><trkpt lat="43.161305" lon="11.0867133"><ele>480.3333333333333</ele><time>2026-05-03T10:07:08.165Z</time></trkpt><trkpt lat="43.1613717" lon="11.086945"><ele>475.66666666666663</ele><time>2026-05-03T10:07:09.161Z</time></trkpt><trkpt lat="43.161415" lon="11.08718"><ele>471.0</ele><time>2026-05-03T10:07:10.162Z</time></trkpt><trkpt lat="43.16144" lon="11.0874133"><ele>466.66666666666663</ele><time>2026-05-03T10:07:11.162Z</time></trkpt><trkpt lat="43.1614667" lon="11.087655"><ele>462.3333333333333</ele><time>2026-05-03T10:07:12.164Z</time></trkpt><trkpt lat="43.1615133" lon="11.0878867"><ele>458.0</ele><time>2026-05-03T10:07:13.164Z</time></trkpt><trkpt lat="43.16158" lon="11.08809"><ele>463.66666666666663</ele><time>2026-05-03T10:07:14.164Z</time></trkpt><trkpt lat="43.1616717" lon="11.0882617"><ele>469.33333333333337</ele><time>2026-05-03T10:07:15.164Z</time></trkpt><trkpt lat="43.161785" lon="11.0883933"><ele>475.0</ele><time>2026-05-03T10:07:16.165Z</time></trkpt><trkpt lat="43.1619133" lon="11.0884883"><ele>475.0</ele><time>2026-05-03T10:07:17.165Z</time></trkpt><trkpt lat="43.16205" lon="11.0885517"><ele>475.0</ele><time>2026-05-03T10:07:18.161Z</time></trkpt><trkpt lat="43.1622017" lon="11.0885767"><ele>475.0</ele><time>2026-05-03T10:07:19.164Z</time></trkpt><trkpt lat="43.1623733" lon="11.08857"><ele>478.6666666666667</ele><time>2026-05-03T10:07:20.165Z</time></trkpt><trkpt lat="43.16256" lon="11.0885517"><ele>482.33333333333337</ele><time>2026-05-03T10:07:21.164Z</time></trkpt><trkpt lat="43.162745" lon="11.0885417"><ele>486.0</ele><time>2026-05-03T10:07:22.165Z</time></trkpt><trkpt lat="43.16292" lon="11.0885483"><ele>486.0</ele><time>2026-05-03T10:07:23.166Z</time></trkpt><trkpt lat="43.163085" lon="11.0885767"><ele>486.0</ele><time>2026-05-03T10:07:24.164Z</time></trkpt><trkpt lat="43.1632383" lon="11.088635"><ele>486.0</ele><time>2026-05-03T10:07:25.165Z</time></trkpt><trkpt lat="43.163375" lon="11.08873"><ele>481.66666666666663</ele><time>2026-05-03T10:07:26.165Z</time></trkpt><trkpt lat="43.1634983" lon="11.0888617"><ele>477.3333333333333</ele><time>2026-05-03T10:07:27.165Z</time></trkpt><trkpt lat="43.1636117" lon="11.0890233"><ele>473.0</ele><time>2026-05-03T10:07:28.164Z</time></trkpt><trkpt lat="43.1636967" lon="11.0892267"><ele>467.3333333333333</ele><time>2026-05-03T10:07:29.165Z</time></trkpt><trkpt lat="43.163775" lon="11.08946"><ele>461.66666666666663</ele><time>2026-05-03T10:07:30.164Z</time></trkpt><trkpt lat="43.1638317" lon="11.0896933"><ele>456.0</ele><time>2026-05-03T10:07:31.162Z</time></trkpt><trkpt lat="43.163875" lon="11.0899217"><ele>453.66666666666663</ele><time>2026-05-03T10:07:32.163Z</time></trkpt><trkpt lat="43.163925" lon="11.0901433"><ele>451.3333333333333</ele><time>2026-05-03T10:07:33.165Z</time></trkpt><trkpt lat="43.1639817" lon="11.0903333"><ele>449.0</ele><time>2026-05-03T10:07:34.165Z</time></trkpt><trkpt lat="43.1640683" lon="11.0905017"><ele>449.0</ele><time>2026-05-03T10:07:35.165Z</time></trkpt><trkpt lat="43.1641817" lon="11.0906467"><ele>449.0</ele><time>2026-05-03T10:07:36.165Z</time></trkpt><trkpt lat="43.16431" lon="11.0907617"><ele>449.0</ele><time>2026-05-03T10:07:37.161Z</time></trkpt><trkpt lat="43.1644383" lon="11.09083"><ele>449.0</ele><time>2026-05-03T10:07:38.162Z</time></trkpt><trkpt lat="43.1645617" lon="11.0908533"><ele>449.0</ele><time>2026-05-03T10:07:39.162Z</time></trkpt><trkpt lat="43.164685" lon="11.09081"><ele>449.0</ele><time>2026-05-03T10:07:40.162Z</time></trkpt><trkpt lat="43.1647983" lon="11.0907133"><ele>449.0</ele><time>2026-05-03T10:07:41.163Z</time></trkpt><trkpt lat="43.16491" lon="11.09057"><ele>449.0</ele><time>2026-05-03T10:07:42.162Z</time></trkpt><trkpt lat="43.16502" lon="11.0904183"><ele>451.75</ele><time>2026-05-03T10:07:43.164Z</time></trkpt><trkpt lat="43.1651367" lon="11.090275"><ele>454.5</ele><time>2026-05-03T10:07:44.163Z</time></trkpt><trkpt lat="43.1652583" lon="11.0901683"><ele>457.25</ele><time>2026-05-03T10:07:45.165Z</time></trkpt><trkpt lat="43.1653933" lon="11.0901017"><ele>460.0</ele><time>2026-05-03T10:07:46.165Z</time></trkpt><trkpt lat="43.1655483" lon="11.0900817"><ele>456.6666666666667</ele><time>2026-05-03T10:07:47.165Z</time></trkpt><trkpt lat="43.1657183" lon="11.0900967"><ele>453.33333333333337</ele><time>2026-05-03T10:07:48.164Z</time></trkpt><trkpt lat="43.1659017" lon="11.0901183"><ele>450.0</ele><time>2026-05-03T10:07:49.162Z</time></trkpt><trkpt lat="43.16608" lon="11.090145"><ele>450.0</ele><time>2026-05-03T10:07:50.165Z</time></trkpt><trkpt lat="43.1662433" lon="11.0901933"><ele>450.0</ele><time>2026-05-03T10:07:51.165Z</time></trkpt><trkpt lat="43.16641" lon="11.0902767"><ele>450.0</ele><time>2026-05-03T10:07:52.165Z</time></trkpt><trkpt lat="43.1665617" lon="11.0903983"><ele>450.33333333333337</ele><time>2026-05-03T10:07:53.165Z</time></trkpt><trkpt lat="43.1666917" lon="11.0905617"><ele>450.6666666666667</ele><time>2026-05-03T10:07:54.165Z</time></trkpt><trkpt lat="43.166805" lon="11.0907633"><ele>451.0</ele><time>2026-05-03T10:07:55.166Z</time></trkpt><trkpt lat="43.16691" lon="11.09097"><ele>448.0</ele><time>2026-05-03T10:07:56.162Z</time></trkpt><trkpt lat="43.16702" lon="11.0911617"><ele>445.0</ele><time>2026-05-03T10:07:57.162Z</time></trkpt><trkpt lat="43.1671517" lon="11.0913367"><ele>442.0</ele><time>2026-05-03T10:07:58.162Z</time></trkpt><trkpt lat="43.167295" lon="11.091485"><ele>439.6666666666667</ele><time>2026-05-03T10:07:59.162Z</time></trkpt><trkpt lat="43.1674383" lon="11.0916233"><ele>437.33333333333337</ele><time>2026-05-03T10:08:00.162Z</time></trkpt><trkpt lat="43.167585" lon="11.0917433"><ele>435.0</ele><time>2026-05-03T10:08:01.162Z</time></trkpt><trkpt lat="43.1677367" lon="11.091825"><ele>435.0</ele><time>2026-05-03T10:08:02.164Z</time></trkpt><trkpt lat="43.167885" lon="11.0918617"><ele>435.0</ele><time>2026-05-03T10:08:03.165Z</time></trkpt><trkpt lat="43.1680317" lon="11.0918717"><ele>435.0</ele><time>2026-05-03T10:08:04.164Z</time></trkpt><trkpt lat="43.1681733" lon="11.0918967"><ele>435.0</ele><time>2026-05-03T10:08:05.166Z</time></trkpt><trkpt lat="43.1682983" lon="11.0919833"><ele>435.25</ele><time>2026-05-03T10:08:06.165Z</time></trkpt><trkpt lat="43.16839" lon="11.0921167"><ele>435.5</ele><time>2026-05-03T10:08:07.166Z</time></trkpt><trkpt lat="43.168455" lon="11.09229"><ele>435.75</ele><time>2026-05-03T10:08:08.166Z</time></trkpt><trkpt lat="43.1685133" lon="11.09247"><ele>436.0</ele><time>2026-05-03T10:08:09.166Z</time></trkpt><trkpt lat="43.1685883" lon="11.0926183"><ele>433.25</ele><time>2026-05-03T10:08:10.165Z</time></trkpt><trkpt lat="43.1686933" lon="11.09272"><ele>430.5</ele><time>2026-05-03T10:08:11.163Z</time></trkpt><trkpt lat="43.1688233" lon="11.0927683"><ele>427.75</ele><time>2026-05-03T10:08:12.165Z</time></trkpt><trkpt lat="43.168975" lon="11.0927733"><ele>425.0</ele><time>2026-05-03T10:08:13.162Z</time></trkpt><trkpt lat="43.1691367" lon="11.0927633"><ele>424.0</ele><time>2026-05-03T10:08:14.165Z</time></trkpt><trkpt lat="43.1693017" lon="11.0927633"><ele>423.0</ele><time>2026-05-03T10:08:15.162Z</time></trkpt><trkpt lat="43.1694633" lon="11.0927917"><ele>422.0</ele><time>2026-05-03T10:08:16.162Z</time></trkpt><trkpt lat="43.1696083" lon="11.092885"><ele>422.0</ele><time>2026-05-03T10:08:17.165Z</time></trkpt><trkpt lat="43.1697367" lon="11.09303"><ele>422.0</ele><time>2026-05-03T10:08:18.165Z</time></trkpt><trkpt lat="43.169865" lon="11.093215"><ele>422.0</ele><time>2026-05-03T10:08:19.165Z</time></trkpt><trkpt lat="43.1699933" lon="11.0934067"><ele>423.0</ele><time>2026-05-03T10:08:20.165Z</time></trkpt><trkpt lat="43.170125" lon="11.0935967"><ele>424.0</ele><time>2026-05-03T10:08:21.165Z</time></trkpt><trkpt lat="43.1702483" lon="11.0937833"><ele>425.0</ele><time>2026-05-03T10:08:22.166Z</time></trkpt><trkpt lat="43.1703517" lon="11.0939767"><ele>420.3333333333333</ele><time>2026-05-03T10:08:23.166Z</time></trkpt><trkpt lat="43.1704417" lon="11.0941933"><ele>415.66666666666663</ele><time>2026-05-03T10:08:24.161Z</time></trkpt><trkpt lat="43.1705167" lon="11.094425"><ele>411.0</ele><time>2026-05-03T10:08:25.165Z</time></trkpt><trkpt lat="43.1705783" lon="11.0946667"><ele>411.0</ele><time>2026-05-03T10:08:26.163Z</time></trkpt><trkpt lat="43.1706383" lon="11.094915"><ele>411.0</ele><time>2026-05-03T10:08:27.163Z</time></trkpt><trkpt lat="43.170695" lon="11.0951567"><ele>411.0</ele><time>2026-05-03T10:08:28.163Z</time></trkpt><trkpt lat="43.1707467" lon="11.0953833"><ele>413.0</ele><time>2026-05-03T10:08:29.166Z</time></trkpt><trkpt lat="43.1707967" lon="11.0955917"><ele>415.0</ele><time>2026-05-03T10:08:30.163Z</time></trkpt><trkpt lat="43.1708533" lon="11.0957833"><ele>417.0</ele><time>2026-05-03T10:08:31.163Z</time></trkpt><trkpt lat="43.1709183" lon="11.0959717"><ele>417.0</ele><time>2026-05-03T10:08:32.164Z</time></trkpt><trkpt lat="43.1710017" lon="11.09613"><ele>417.0</ele><time>2026-05-03T10:08:33.166Z</time></trkpt><trkpt lat="43.1710967" lon="11.0962233"><ele>417.0</ele><time>2026-05-03T10:08:34.165Z</time></trkpt><trkpt lat="43.1712083" lon="11.0962533"><ele>417.0</ele><time>2026-05-03T10:08:35.165Z</time></trkpt><trkpt lat="43.1713383" lon="11.096225"><ele>417.0</ele><time>2026-05-03T10:08:36.165Z</time></trkpt><trkpt lat="43.17148" lon="11.0961467"><ele>417.0</ele><time>2026-05-03T10:08:37.162Z</time></trkpt><trkpt lat="43.1716283" lon="11.0960417"><ele>417.0</ele><time>2026-05-03T10:08:38.165Z</time></trkpt><trkpt lat="43.171785" lon="11.0959217"><ele>416.33333333333337</ele><time>2026-05-03T10:08:39.162Z</time></trkpt><trkpt lat="43.1719517" lon="11.0958067"><ele>415.6666666666667</ele><time>2026-05-03T10:08:40.162Z</time></trkpt><trkpt lat="43.1721283" lon="11.0956867"><ele>415.0</ele><time>2026-05-03T10:08:41.162Z</time></trkpt><trkpt lat="43.1722983" lon="11.0955783"><ele>412.33333333333337</ele><time>2026-05-03T10:08:42.162Z</time></trkpt><trkpt lat="43.1724583" lon="11.0954833"><ele>409.66666666666663</ele><time>2026-05-03T10:08:43.163Z</time></trkpt><trkpt lat="43.1726167" lon="11.0954217"><ele>407.0</ele><time>2026-05-03T10:08:44.165Z</time></trkpt><trkpt lat="43.17277" lon="11.0954017"><ele>407.0</ele><time>2026-05-03T10:08:45.162Z</time></trkpt><trkpt lat="43.17292" lon="11.0954317"><ele>407.0</ele><time>2026-05-03T10:08:46.162Z</time></trkpt><trkpt lat="43.1730683" lon="11.095485"><ele>407.0</ele><time>2026-05-03T10:08:47.163Z</time></trkpt><trkpt lat="43.173215" lon="11.095545"><ele>404.0</ele><time>2026-05-03T10:08:48.162Z</time></trkpt><trkpt lat="43.1733617" lon="11.0956083"><ele>401.0</ele><time>2026-05-03T10:08:49.165Z</time></trkpt><trkpt lat="43.173515" lon="11.0956867"><ele>398.0</ele><time>2026-05-03T10:08:50.165Z</time></trkpt><trkpt lat="43.1736733" lon="11.0958"><ele>398.0</ele><time>2026-05-03T10:08:51.168Z</time></trkpt><trkpt lat="43.1738283" lon="11.095925"><ele>398.0</ele><time>2026-05-03T10:08:52.165Z</time></trkpt><trkpt lat="43.17397" lon="11.096055"><ele>398.0</ele><time>2026-05-03T10:08:53.165Z</time></trkpt><trkpt lat="43.1741" lon="11.0962033"><ele>398.0</ele><time>2026-05-03T10:08:54.165Z</time></trkpt><trkpt lat="43.17421" lon="11.0963733"><ele>398.0</ele><time>2026-05-03T10:08:55.165Z</time></trkpt><trkpt lat="43.17429" lon="11.0965683"><ele>398.0</ele><time>2026-05-03T10:08:56.163Z</time></trkpt><trkpt lat="43.17436" lon="11.096785"><ele>398.0</ele><time>2026-05-03T10:08:57.162Z</time></trkpt><trkpt lat="43.1744267" lon="11.097015"><ele>398.0</ele><time>2026-05-03T10:08:58.163Z</time></trkpt><trkpt lat="43.174495" lon="11.0972483"><ele>398.0</ele><time>2026-05-03T10:08:59.163Z</time></trkpt><trkpt lat="43.1745667" lon="11.0974867"><ele>394.3333333333333</ele><time>2026-05-03T10:09:00.162Z</time></trkpt><trkpt lat="43.1746367" lon="11.097725"><ele>390.66666666666663</ele><time>2026-05-03T10:09:01.162Z</time></trkpt><trkpt lat="43.1747017" lon="11.09796"><ele>387.0</ele><time>2026-05-03T10:09:02.163Z</time></trkpt><trkpt lat="43.174775" lon="11.0982017"><ele>384.6666666666667</ele><time>2026-05-03T10:09:03.165Z</time></trkpt><trkpt lat="43.1748467" lon="11.098435"><ele>382.33333333333337</ele><time>2026-05-03T10:09:04.166Z</time></trkpt><trkpt lat="43.1749183" lon="11.098665"><ele>380.0</ele><time>2026-05-03T10:09:05.166Z</time></trkpt><trkpt lat="43.1749867" lon="11.09889"><ele>385.33333333333337</ele><time>2026-05-03T10:09:06.165Z</time></trkpt><trkpt lat="43.17505" lon="11.0991033"><ele>390.6666666666667</ele><time>2026-05-03T10:09:07.165Z</time></trkpt><trkpt lat="43.1751117" lon="11.0993017"><ele>396.0</ele><time>2026-05-03T10:09:08.165Z</time></trkpt><trkpt lat="43.1751717" lon="11.0994933"><ele>396.0</ele><time>2026-05-03T10:09:09.165Z</time></trkpt><trkpt lat="43.1752233" lon="11.09967"><ele>396.0</ele><time>2026-05-03T10:09:10.165Z</time></trkpt><trkpt lat="43.1752683" lon="11.099835"><ele>396.0</ele><time>2026-05-03T10:09:11.166Z</time></trkpt><trkpt lat="43.175315" lon="11.1000067"><ele>396.0</ele><time>2026-05-03T10:09:12.165Z</time></trkpt><trkpt lat="43.1753633" lon="11.1001967"><ele>396.0</ele><time>2026-05-03T10:09:13.165Z</time></trkpt><trkpt lat="43.175415" lon="11.1003983"><ele>396.0</ele><time>2026-05-03T10:09:14.165Z</time></trkpt><trkpt lat="43.1754717" lon="11.1006083"><ele>396.0</ele><time>2026-05-03T10:09:15.162Z</time></trkpt><trkpt lat="43.175535" lon="11.100815"><ele>394.66666666666663</ele><time>2026-05-03T10:09:16.163Z</time></trkpt><trkpt lat="43.1755967" lon="11.1010267"><ele>393.3333333333333</ele><time>2026-05-03T10:09:17.163Z</time></trkpt><trkpt lat="43.1756633" lon="11.101245"><ele>392.0</ele><time>2026-05-03T10:09:18.162Z</time></trkpt><trkpt lat="43.175735" lon="11.1014683"><ele>391.0</ele><time>2026-05-03T10:09:19.164Z</time></trkpt><trkpt lat="43.175805" lon="11.1017033"><ele>390.0</ele><time>2026-05-03T10:09:20.161Z</time></trkpt><trkpt lat="43.1758767" lon="11.1019367"><ele>389.0</ele><time>2026-05-03T10:09:21.164Z</time></trkpt><trkpt lat="43.1759433" lon="11.1021683"><ele>389.0</ele><time>2026-05-03T10:09:22.161Z</time></trkpt><trkpt lat="43.17601" lon="11.1023933"><ele>389.0</ele><time>2026-05-03T10:09:23.164Z</time></trkpt><trkpt lat="43.1760767" lon="11.10261"><ele>389.0</ele><time>2026-05-03T10:09:24.164Z</time></trkpt><trkpt lat="43.1761433" lon="11.1028233"><ele>388.3333333333333</ele><time>2026-05-03T10:09:25.164Z</time></trkpt><trkpt lat="43.17622" lon="11.1030367"><ele>387.66666666666663</ele><time>2026-05-03T10:09:26.161Z</time></trkpt><trkpt lat="43.1763017" lon="11.1032433"><ele>387.0</ele><time>2026-05-03T10:09:27.162Z</time></trkpt><trkpt lat="43.176395" lon="11.1034433"><ele>385.0</ele><time>2026-05-03T10:09:28.161Z</time></trkpt><trkpt lat="43.1764967" lon="11.1036317"><ele>383.0</ele><time>2026-05-03T10:09:29.162Z</time></trkpt><trkpt lat="43.1765983" lon="11.10381"><ele>381.0</ele><time>2026-05-03T10:09:30.161Z</time></trkpt><trkpt lat="43.1767033" lon="11.103985"><ele>383.0</ele><time>2026-05-03T10:09:31.162Z</time></trkpt><trkpt lat="43.1768083" lon="11.1041633"><ele>385.0</ele><time>2026-05-03T10:09:32.162Z</time></trkpt><trkpt lat="43.1769167" lon="11.1043417"><ele>387.0</ele><time>2026-05-03T10:09:33.165Z</time></trkpt><trkpt lat="43.17702" lon="11.1045167"><ele>387.0</ele><time>2026-05-03T10:09:34.164Z</time></trkpt><trkpt lat="43.17712" lon="11.104695"><ele>387.0</ele><time>2026-05-03T10:09:35.164Z</time></trkpt><trkpt lat="43.1772233" lon="11.1048717"><ele>387.0</ele><time>2026-05-03T10:09:36.164Z</time></trkpt><trkpt lat="43.1773333" lon="11.1050483"><ele>384.6666666666667</ele><time>2026-05-03T10:09:37.162Z</time></trkpt><trkpt lat="43.1774367" lon="11.10523"><ele>382.33333333333337</ele><time>2026-05-03T10:09:38.165Z</time></trkpt><trkpt lat="43.1775433" lon="11.1054133"><ele>380.0</ele><time>2026-05-03T10:09:39.165Z</time></trkpt><trkpt lat="43.17765" lon="11.1056"><ele>378.33333333333337</ele><time>2026-05-03T10:09:40.164Z</time></trkpt><trkpt lat="43.1777633" lon="11.105785"><ele>376.6666666666667</ele><time>2026-05-03T10:09:41.162Z</time></trkpt><trkpt lat="43.1778817" lon="11.105965"><ele>375.0</ele><time>2026-05-03T10:09:42.162Z</time></trkpt><trkpt lat="43.1780067" lon="11.1061383"><ele>375.0</ele><time>2026-05-03T10:09:43.162Z</time></trkpt><trkpt lat="43.178135" lon="11.1063033"><ele>375.0</ele><time>2026-05-03T10:09:44.165Z</time></trkpt><trkpt lat="43.1782617" lon="11.1064683"><ele>375.0</ele><time>2026-05-03T10:09:45.164Z</time></trkpt><trkpt lat="43.1783867" lon="11.10663"><ele>375.0</ele><time>2026-05-03T10:09:46.163Z</time></trkpt><trkpt lat="43.1785133" lon="11.10679"><ele>375.0</ele><time>2026-05-03T10:09:47.166Z</time></trkpt><trkpt lat="43.1786483" lon="11.1069483"><ele>375.0</ele><time>2026-05-03T10:09:48.166Z</time></trkpt><trkpt lat="43.1787933" lon="11.1070883"><ele>375.0</ele><time>2026-05-03T10:09:49.162Z</time></trkpt><trkpt lat="43.1789517" lon="11.1072117"><ele>375.0</ele><time>2026-05-03T10:09:50.165Z</time></trkpt><trkpt lat="43.179105" lon="11.1073267"><ele>375.0</ele><time>2026-05-03T10:09:51.164Z</time></trkpt><trkpt lat="43.1792617" lon="11.1074367"><ele>374.6666666666667</ele><time>2026-05-03T10:09:52.164Z</time></trkpt><trkpt lat="43.1794183" lon="11.10755"><ele>374.33333333333337</ele><time>2026-05-03T10:09:53.166Z</time></trkpt><trkpt lat="43.17958" lon="11.1076667"><ele>374.0</ele><time>2026-05-03T10:09:54.164Z</time></trkpt><trkpt lat="43.1797433" lon="11.107785"><ele>373.0</ele><time>2026-05-03T10:09:55.164Z</time></trkpt><trkpt lat="43.1799033" lon="11.1079017"><ele>372.0</ele><time>2026-05-03T10:09:56.164Z</time></trkpt><trkpt lat="43.1800633" lon="11.1080183"><ele>371.0</ele><time>2026-05-03T10:09:57.164Z</time></trkpt><trkpt lat="43.18022" lon="11.108135"><ele>372.0</ele><time>2026-05-03T10:09:58.167Z</time></trkpt><trkpt lat="43.1803767" lon="11.1082483"><ele>373.0</ele><time>2026-05-03T10:09:59.167Z</time></trkpt><trkpt lat="43.18053" lon="11.10836"><ele>374.0</ele><time>2026-05-03T10:10:00.165Z</time></trkpt><trkpt lat="43.1806833" lon="11.10848"><ele>371.6666666666667</ele><time>2026-05-03T10:10:01.164Z</time></trkpt><trkpt lat="43.1808317" lon="11.1086033"><ele>369.3333333333333</ele><time>2026-05-03T10:10:02.165Z</time></trkpt><trkpt lat="43.1809667" lon="11.1087417"><ele>367.0</ele><time>2026-05-03T10:10:03.164Z</time></trkpt><trkpt lat="43.1810917" lon="11.108895"><ele>367.0</ele><time>2026-05-03T10:10:04.165Z</time></trkpt><trkpt lat="43.181205" lon="11.109075"><ele>367.0</ele><time>2026-05-03T10:10:05.166Z</time></trkpt><trkpt lat="43.1813133" lon="11.1092717"><ele>367.0</ele><time>2026-05-03T10:10:06.164Z</time></trkpt><trkpt lat="43.1814167" lon="11.1094717"><ele>365.0</ele><time>2026-05-03T10:10:07.162Z</time></trkpt><trkpt lat="43.1815067" lon="11.1096767"><ele>363.0</ele><time>2026-05-03T10:10:08.163Z</time></trkpt><trkpt lat="43.18158" lon="11.1098883"><ele>361.0</ele><time>2026-05-03T10:10:09.163Z</time></trkpt><trkpt lat="43.1816367" lon="11.1101067"><ele>360.3333333333333</ele><time>2026-05-03T10:10:10.164Z</time></trkpt><trkpt lat="43.1816767" lon="11.11033"><ele>359.6666666666667</ele><time>2026-05-03T10:10:11.164Z</time></trkpt><trkpt lat="43.1817067" lon="11.1105633"><ele>359.0</ele><time>2026-05-03T10:10:12.162Z</time></trkpt><trkpt lat="43.1817367" lon="11.11081"><ele>359.0</ele><time>2026-05-03T10:10:13.162Z</time></trkpt><trkpt lat="43.181765" lon="11.1110633"><ele>359.0</ele><time>2026-05-03T10:10:14.163Z</time></trkpt><trkpt lat="43.1817917" lon="11.1113117"><ele>359.0</ele><time>2026-05-03T10:10:15.163Z</time></trkpt><trkpt lat="43.1818267" lon="11.1115667"><ele>358.33333333333337</ele><time>2026-05-03T10:10:16.163Z</time></trkpt><trkpt lat="43.1818733" lon="11.1118267"><ele>357.6666666666667</ele><time>2026-05-03T10:10:17.164Z</time></trkpt><trkpt lat="43.1819267" lon="11.1120833"><ele>357.0</ele><time>2026-05-03T10:10:18.163Z</time></trkpt><trkpt lat="43.181985" lon="11.1123317"><ele>355.3333333333333</ele><time>2026-05-03T10:10:19.164Z</time></trkpt><trkpt lat="43.1820417" lon="11.11257"><ele>353.66666666666663</ele><time>2026-05-03T10:10:20.164Z</time></trkpt><trkpt lat="43.1820883" lon="11.1128067"><ele>352.0</ele><time>2026-05-03T10:10:21.163Z</time></trkpt><trkpt lat="43.1821183" lon="11.113045"><ele>350.3333333333333</ele><time>2026-05-03T10:10:22.163Z</time></trkpt><trkpt lat="43.1821267" lon="11.1132817"><ele>348.6666666666667</ele><time>2026-05-03T10:10:23.163Z</time></trkpt><trkpt lat="43.1821183" lon="11.11351"><ele>347.0</ele><time>2026-05-03T10:10:24.163Z</time></trkpt><trkpt lat="43.1821033" lon="11.11373"><ele>347.0</ele><time>2026-05-03T10:10:25.164Z</time></trkpt><trkpt lat="43.1820983" lon="11.11394"><ele>347.0</ele><time>2026-05-03T10:10:26.164Z</time></trkpt><trkpt lat="43.182115" lon="11.114135"><ele>347.0</ele><time>2026-05-03T10:10:27.165Z</time></trkpt><trkpt lat="43.1821683" lon="11.1143133"><ele>347.0</ele><time>2026-05-03T10:10:28.165Z</time></trkpt><trkpt lat="43.1822517" lon="11.11447"><ele>349.75</ele><time>2026-05-03T10:10:29.164Z</time></trkpt><trkpt lat="43.1823633" lon="11.11459"><ele>352.5</ele><time>2026-05-03T10:10:30.165Z</time></trkpt><trkpt lat="43.182495" lon="11.1146767"><ele>355.25</ele><time>2026-05-03T10:10:31.165Z</time></trkpt><trkpt lat="43.182645" lon="11.1147183"><ele>358.0</ele><time>2026-05-03T10:10:32.165Z</time></trkpt><trkpt lat="43.182805" lon="11.1147317"><ele>358.0</ele><time>2026-05-03T10:10:33.166Z</time></trkpt><trkpt lat="43.1829767" lon="11.11474"><ele>358.0</ele><time>2026-05-03T10:10:34.168Z</time></trkpt><trkpt lat="43.1831567" lon="11.1147533"><ele>358.0</ele><time>2026-05-03T10:10:35.165Z</time></trkpt><trkpt lat="43.183345" lon="11.1147667"><ele>357.66666666666663</ele><time>2026-05-03T10:10:36.164Z</time></trkpt><trkpt lat="43.1835317" lon="11.1147767"><ele>357.3333333333333</ele><time>2026-05-03T10:10:37.165Z</time></trkpt><trkpt lat="43.1837133" lon="11.1147833"><ele>357.0</ele><time>2026-05-03T10:10:38.165Z</time></trkpt><trkpt lat="43.1838933" lon="11.11479"><ele>354.3333333333333</ele><time>2026-05-03T10:10:39.165Z</time></trkpt><trkpt lat="43.184065" lon="11.1148133"><ele>351.66666666666663</ele><time>2026-05-03T10:10:40.162Z</time></trkpt><trkpt lat="43.1842317" lon="11.1148567"><ele>349.0</ele><time>2026-05-03T10:10:41.166Z</time></trkpt><trkpt lat="43.1843933" lon="11.1149467"><ele>346.3333333333333</ele><time>2026-05-03T10:10:42.165Z</time></trkpt><trkpt lat="43.1845333" lon="11.1150567"><ele>343.6666666666667</ele><time>2026-05-03T10:10:43.164Z</time></trkpt><trkpt lat="43.1846517" lon="11.1151933"><ele>341.0</ele><time>2026-05-03T10:10:44.165Z</time></trkpt><trkpt lat="43.1847383" lon="11.11536"><ele>341.0</ele><time>2026-05-03T10:10:45.165Z</time></trkpt><trkpt lat="43.1848" lon="11.1155567"><ele>341.0</ele><time>2026-05-03T10:10:46.165Z</time></trkpt><trkpt lat="43.1848383" lon="11.115775"><ele>341.0</ele><time>2026-05-03T10:10:47.165Z</time></trkpt><trkpt lat="43.1848633" lon="11.1160067"><ele>340.33333333333337</ele><time>2026-05-03T10:10:48.165Z</time></trkpt><trkpt lat="43.1848867" lon="11.1162467"><ele>339.6666666666667</ele><time>2026-05-03T10:10:49.165Z</time></trkpt><trkpt lat="43.1849" lon="11.11649"><ele>339.0</ele><time>2026-05-03T10:10:50.165Z</time></trkpt><trkpt lat="43.1849033" lon="11.11674"><ele>339.0</ele><time>2026-05-03T10:10:51.165Z</time></trkpt><trkpt lat="43.1848967" lon="11.116995"><ele>339.0</ele><time>2026-05-03T10:10:52.165Z</time></trkpt><trkpt lat="43.1848817" lon="11.1172483"><ele>339.0</ele><time>2026-05-03T10:10:53.165Z</time></trkpt><trkpt lat="43.18486" lon="11.1175"><ele>337.6666666666667</ele><time>2026-05-03T10:10:54.162Z</time></trkpt><trkpt lat="43.1848367" lon="11.1177533"><ele>336.33333333333337</ele><time>2026-05-03T10:10:55.162Z</time></trkpt><trkpt lat="43.18482" lon="11.1180067"><ele>335.0</ele><time>2026-05-03T10:10:56.164Z</time></trkpt><trkpt lat="43.18481" lon="11.11826"><ele>335.0</ele><time>2026-05-03T10:10:57.165Z</time></trkpt><trkpt lat="43.1848117" lon="11.1185133"><ele>335.0</ele><time>2026-05-03T10:10:58.164Z</time></trkpt><trkpt lat="43.1848333" lon="11.11877"><ele>335.0</ele><time>2026-05-03T10:10:59.165Z</time></trkpt><trkpt lat="43.18486" lon="11.1190317"><ele>335.0</ele><time>2026-05-03T10:11:00.164Z</time></trkpt><trkpt lat="43.184895" lon="11.119295"><ele>335.0</ele><time>2026-05-03T10:11:01.164Z</time></trkpt><trkpt lat="43.1849283" lon="11.1195567"><ele>335.0</ele><time>2026-05-03T10:11:02.165Z</time></trkpt><trkpt lat="43.18496" lon="11.11981"><ele>333.6666666666667</ele><time>2026-05-03T10:11:03.161Z</time></trkpt><trkpt lat="43.1849917" lon="11.1200583"><ele>332.3333333333333</ele><time>2026-05-03T10:11:04.165Z</time></trkpt><trkpt lat="43.1850233" lon="11.12032"><ele>331.0</ele><time>2026-05-03T10:11:05.166Z</time></trkpt><trkpt lat="43.1850517" lon="11.1205867"><ele>328.66666666666663</ele><time>2026-05-03T10:11:06.162Z</time></trkpt><trkpt lat="43.1850633" lon="11.1208483"><ele>326.3333333333333</ele><time>2026-05-03T10:11:07.163Z</time></trkpt><trkpt lat="43.185065" lon="11.1211117"><ele>324.0</ele><time>2026-05-03T10:11:08.165Z</time></trkpt><trkpt lat="43.1850533" lon="11.1213717"><ele>323.6666666666667</ele><time>2026-05-03T10:11:09.165Z</time></trkpt><trkpt lat="43.185035" lon="11.1216117"><ele>323.33333333333337</ele><time>2026-05-03T10:11:10.164Z</time></trkpt><trkpt lat="43.1850167" lon="11.1218533"><ele>323.0</ele><time>2026-05-03T10:11:11.165Z</time></trkpt><trkpt lat="43.1850133" lon="11.1220933"><ele>323.0</ele><time>2026-05-03T10:11:12.165Z</time></trkpt><trkpt lat="43.18504" lon="11.12233"><ele>323.0</ele><time>2026-05-03T10:11:13.166Z</time></trkpt><trkpt lat="43.1850933" lon="11.1225633"><ele>323.0</ele><time>2026-05-03T10:11:14.165Z</time></trkpt><trkpt lat="43.1851683" lon="11.1227983"><ele>322.6666666666667</ele><time>2026-05-03T10:11:15.166Z</time></trkpt><trkpt lat="43.1852433" lon="11.1230367"><ele>322.3333333333333</ele><time>2026-05-03T10:11:16.165Z</time></trkpt><trkpt lat="43.1853167" lon="11.1232817"><ele>322.0</ele><time>2026-05-03T10:11:17.163Z</time></trkpt><trkpt lat="43.1854017" lon="11.1235367"><ele>321.66666666666663</ele><time>2026-05-03T10:11:18.163Z</time></trkpt><trkpt lat="43.1854917" lon="11.1237883"><ele>321.3333333333333</ele><time>2026-05-03T10:11:19.165Z</time></trkpt><trkpt lat="43.1855833" lon="11.1240433"><ele>321.0</ele><time>2026-05-03T10:11:20.167Z</time></trkpt><trkpt lat="43.18567" lon="11.1243"><ele>320.3333333333333</ele><time>2026-05-03T10:11:21.165Z</time></trkpt><trkpt lat="43.1857517" lon="11.1245517"><ele>319.66666666666663</ele><time>2026-05-03T10:11:22.165Z</time></trkpt><trkpt lat="43.185835" lon="11.1248083"><ele>319.0</ele><time>2026-05-03T10:11:23.166Z</time></trkpt><trkpt lat="43.1859167" lon="11.1250633"><ele>318.0</ele><time>2026-05-03T10:11:24.168Z</time></trkpt><trkpt lat="43.186" lon="11.12532"><ele>317.0</ele><time>2026-05-03T10:11:25.165Z</time></trkpt><trkpt lat="43.186085" lon="11.1255783"><ele>316.0</ele><time>2026-05-03T10:11:26.162Z</time></trkpt><trkpt lat="43.1861683" lon="11.1258383"><ele>315.0</ele><time>2026-05-03T10:11:27.162Z</time></trkpt><trkpt lat="43.1862533" lon="11.1261"><ele>314.0</ele><time>2026-05-03T10:11:28.162Z</time></trkpt><trkpt lat="43.1863383" lon="11.1263667"><ele>313.0</ele><time>2026-05-03T10:11:29.163Z</time></trkpt><trkpt lat="43.1864233" lon="11.1266367"><ele>311.3333333333333</ele><time>2026-05-03T10:11:30.162Z</time></trkpt><trkpt lat="43.1865083" lon="11.1269067"><ele>309.6666666666667</ele><time>2026-05-03T10:11:31.165Z</time></trkpt><trkpt lat="43.186595" lon="11.1271783"><ele>308.0</ele><time>2026-05-03T10:11:32.162Z</time></trkpt><trkpt lat="43.1866867" lon="11.12745"><ele>307.33333333333337</ele><time>2026-05-03T10:11:33.165Z</time></trkpt><trkpt lat="43.18678" lon="11.1277183"><ele>306.6666666666667</ele><time>2026-05-03T10:11:34.165Z</time></trkpt><trkpt lat="43.18687" lon="11.1279817"><ele>306.0</ele><time>2026-05-03T10:11:35.167Z</time></trkpt><trkpt lat="43.186955" lon="11.1282367"><ele>306.0</ele><time>2026-05-03T10:11:36.166Z</time></trkpt><trkpt lat="43.1870383" lon="11.1284817"><ele>306.0</ele><time>2026-05-03T10:11:37.165Z</time></trkpt><trkpt lat="43.1871167" lon="11.1287183"><ele>306.0</ele><time>2026-05-03T10:11:38.165Z</time></trkpt><trkpt lat="43.1871933" lon="11.12894"><ele>306.3333333333333</ele><time>2026-05-03T10:11:39.165Z</time></trkpt><trkpt lat="43.1872617" lon="11.1291417"><ele>306.66666666666663</ele><time>2026-05-03T10:11:40.165Z</time></trkpt><trkpt lat="43.1873217" lon="11.1293367"><ele>307.0</ele><time>2026-05-03T10:11:41.165Z</time></trkpt><trkpt lat="43.1873533" lon="11.1295267"><ele>307.25</ele><time>2026-05-03T10:11:42.165Z</time></trkpt><trkpt lat="43.1873517" lon="11.1297183"><ele>307.5</ele><time>2026-05-03T10:11:43.162Z</time></trkpt><trkpt lat="43.18731" lon="11.1299167"><ele>307.75</ele><time>2026-05-03T10:11:44.165Z</time></trkpt><trkpt lat="43.1872433" lon="11.130115"><ele>308.0</ele><time>2026-05-03T10:11:45.165Z</time></trkpt><trkpt lat="43.1871617" lon="11.1303183"><ele>308.0</ele><time>2026-05-03T10:11:46.165Z</time></trkpt><trkpt lat="43.1870933" lon="11.1305367"><ele>308.0</ele><time>2026-05-03T10:11:47.165Z</time></trkpt><trkpt lat="43.18705" lon="11.130775"><ele>308.0</ele><time>2026-05-03T10:11:48.165Z</time></trkpt><trkpt lat="43.1870183" lon="11.131015"><ele>307.33333333333337</ele><time>2026-05-03T10:11:49.166Z</time></trkpt><trkpt lat="43.18698" lon="11.1312617"><ele>306.6666666666667</ele><time>2026-05-03T10:11:50.162Z</time></trkpt><trkpt lat="43.1869217" lon="11.1315033"><ele>306.0</ele><time>2026-05-03T10:11:51.165Z</time></trkpt><trkpt lat="43.1868433" lon="11.131735"><ele>305.0</ele><time>2026-05-03T10:11:52.165Z</time></trkpt><trkpt lat="43.18676" lon="11.13196"><ele>304.0</ele><time>2026-05-03T10:11:53.165Z</time></trkpt><trkpt lat="43.1866767" lon="11.13218"><ele>303.0</ele><time>2026-05-03T10:11:54.165Z</time></trkpt><trkpt lat="43.1865933" lon="11.13239"><ele>303.3333333333333</ele><time>2026-05-03T10:11:55.166Z</time></trkpt><trkpt lat="43.1865033" lon="11.132585"><ele>303.66666666666663</ele><time>2026-05-03T10:11:56.162Z</time></trkpt><trkpt lat="43.1864017" lon="11.1327683"><ele>304.0</ele><time>2026-05-03T10:11:57.163Z</time></trkpt><trkpt lat="43.1862983" lon="11.13293"><ele>304.0</ele><time>2026-05-03T10:11:58.162Z</time></trkpt><trkpt lat="43.18621" lon="11.1330833"><ele>304.0</ele><time>2026-05-03T10:11:59.165Z</time></trkpt><trkpt lat="43.186145" lon="11.1332467"><ele>304.0</ele><time>2026-05-03T10:12:00.165Z</time></trkpt><trkpt lat="43.18612" lon="11.1334283"><ele>304.0</ele><time>2026-05-03T10:12:01.163Z</time></trkpt><trkpt lat="43.18614" lon="11.1336233"><ele>300.0</ele><time>2026-05-03T10:12:02.166Z</time></trkpt><trkpt lat="43.1861917" lon="11.1338283"><ele>296.0</ele><time>2026-05-03T10:12:03.165Z</time></trkpt><trkpt lat="43.1862567" lon="11.1340433"><ele>292.0</ele><time>2026-05-03T10:12:04.163Z</time></trkpt><trkpt lat="43.1863233" lon="11.13426"><ele>292.3333333333333</ele><time>2026-05-03T10:12:05.165Z</time></trkpt><trkpt lat="43.1863883" lon="11.1344683"><ele>292.6666666666667</ele><time>2026-05-03T10:12:06.162Z</time></trkpt><trkpt lat="43.1864533" lon="11.13469"><ele>293.0</ele><time>2026-05-03T10:12:07.166Z</time></trkpt><trkpt lat="43.1865183" lon="11.1349217"><ele>293.0</ele><time>2026-05-03T10:12:08.163Z</time></trkpt><trkpt lat="43.18659" lon="11.13516"><ele>293.0</ele><time>2026-05-03T10:12:09.162Z</time></trkpt><trkpt lat="43.186665" lon="11.13541"><ele>293.0</ele><time>2026-05-03T10:12:10.163Z</time></trkpt><trkpt lat="43.1867433" lon="11.1356633"><ele>291.33333333333337</ele><time>2026-05-03T10:12:11.163Z</time></trkpt><trkpt lat="43.186825" lon="11.1359233"><ele>289.6666666666667</ele><time>2026-05-03T10:12:12.166Z</time></trkpt><trkpt lat="43.1869067" lon="11.136185"><ele>288.0</ele><time>2026-05-03T10:12:13.161Z</time></trkpt><trkpt lat="43.186985" lon="11.1364483"><ele>287.6666666666667</ele><time>2026-05-03T10:12:14.162Z</time></trkpt><trkpt lat="43.1870633" lon="11.1367083"><ele>287.33333333333337</ele><time>2026-05-03T10:12:15.161Z</time></trkpt><trkpt lat="43.18714" lon="11.1369683"><ele>287.0</ele><time>2026-05-03T10:12:16.162Z</time></trkpt><trkpt lat="43.187215" lon="11.1372183"><ele>287.33333333333337</ele><time>2026-05-03T10:12:17.162Z</time></trkpt><trkpt lat="43.18729" lon="11.13746"><ele>287.6666666666667</ele><time>2026-05-03T10:12:18.161Z</time></trkpt><trkpt lat="43.18736" lon="11.13769"><ele>288.0</ele><time>2026-05-03T10:12:19.161Z</time></trkpt><trkpt lat="43.1874283" lon="11.13792"><ele>288.0</ele><time>2026-05-03T10:12:20.165Z</time></trkpt><trkpt lat="43.1875" lon="11.1381483"><ele>288.0</ele><time>2026-05-03T10:12:21.166Z</time></trkpt><trkpt lat="43.1875717" lon="11.138375"><ele>288.0</ele><time>2026-05-03T10:12:22.166Z</time></trkpt><trkpt lat="43.1876433" lon="11.1386"><ele>287.3333333333333</ele><time>2026-05-03T10:12:23.165Z</time></trkpt><trkpt lat="43.1877117" lon="11.13882"><ele>286.66666666666663</ele><time>2026-05-03T10:12:24.164Z</time></trkpt><trkpt lat="43.1877717" lon="11.13903"><ele>286.0</ele><time>2026-05-03T10:12:25.164Z</time></trkpt><trkpt lat="43.1878283" lon="11.1392333"><ele>285.3333333333333</ele><time>2026-05-03T10:12:26.162Z</time></trkpt><trkpt lat="43.1878833" lon="11.139435"><ele>284.6666666666667</ele><time>2026-05-03T10:12:27.165Z</time></trkpt><trkpt lat="43.187945" lon="11.1396333"><ele>284.0</ele><time>2026-05-03T10:12:28.161Z</time></trkpt><trkpt lat="43.1880117" lon="11.13983"><ele>283.33333333333337</ele><time>2026-05-03T10:12:29.162Z</time></trkpt><trkpt lat="43.1880917" lon="11.1400183"><ele>282.6666666666667</ele><time>2026-05-03T10:12:30.161Z</time></trkpt><trkpt lat="43.18819" lon="11.1401933"><ele>282.0</ele><time>2026-05-03T10:12:31.164Z</time></trkpt><trkpt lat="43.188305" lon="11.14035"><ele>282.0</ele><time>2026-05-03T10:12:32.162Z</time></trkpt><trkpt lat="43.1884333" lon="11.1404867"><ele>282.0</ele><time>2026-05-03T10:12:33.164Z</time></trkpt><trkpt lat="43.18857" lon="11.14061"><ele>282.0</ele><time>2026-05-03T10:12:34.164Z</time></trkpt><trkpt lat="43.1887117" lon="11.140715"><ele>281.6666666666667</ele><time>2026-05-03T10:12:35.165Z</time></trkpt><trkpt lat="43.188855" lon="11.1408083"><ele>281.33333333333337</ele><time>2026-05-03T10:12:36.164Z</time></trkpt><trkpt lat="43.1889933" lon="11.1408933"><ele>281.0</ele><time>2026-05-03T10:12:37.162Z</time></trkpt><trkpt lat="43.1891283" lon="11.1409733"><ele>280.75</ele><time>2026-05-03T10:12:38.163Z</time></trkpt><trkpt lat="43.1892517" lon="11.1410467"><ele>280.5</ele><time>2026-05-03T10:12:39.163Z</time></trkpt><trkpt lat="43.18936" lon="11.14111"><ele>280.25</ele><time>2026-05-03T10:12:40.162Z</time></trkpt><trkpt lat="43.1894617" lon="11.1411683"><ele>280.0</ele><time>2026-05-03T10:12:41.165Z</time></trkpt><trkpt lat="43.1895617" lon="11.14123"><ele>280.0</ele><time>2026-05-03T10:12:42.164Z</time></trkpt><trkpt lat="43.1896617" lon="11.1412917"><ele>280.0</ele><time>2026-05-03T10:12:43.164Z</time></trkpt><trkpt lat="43.18975" lon="11.1413517"><ele>280.0</ele><time>2026-05-03T10:12:44.165Z</time></trkpt><trkpt lat="43.1898333" lon="11.1414133"><ele>280.0</ele><time>2026-05-03T10:12:45.164Z</time></trkpt><trkpt lat="43.189915" lon="11.1414767"><ele>280.0</ele><time>2026-05-03T10:12:46.165Z</time></trkpt><trkpt lat="43.1900033" lon="11.14154"><ele>280.0</ele><time>2026-05-03T10:12:47.165Z</time></trkpt><trkpt lat="43.190105" lon="11.1416"><ele>280.0</ele><time>2026-05-03T10:12:48.164Z</time></trkpt><trkpt lat="43.1902233" lon="11.141655"><ele>280.0</ele><time>2026-05-03T10:12:49.164Z</time></trkpt><trkpt lat="43.19036" lon="11.1417183"><ele>280.0</ele><time>2026-05-03T10:12:50.164Z</time></trkpt><trkpt lat="43.1905167" lon="11.1417967"><ele>279.0</ele><time>2026-05-03T10:12:51.164Z</time></trkpt><trkpt lat="43.1906833" lon="11.141895"><ele>278.0</ele><time>2026-05-03T10:12:52.165Z</time></trkpt><trkpt lat="43.1908633" lon="11.1420067"><ele>277.0</ele><time>2026-05-03T10:12:53.165Z</time></trkpt><trkpt lat="43.1910467" lon="11.14212"><ele>277.0</ele><time>2026-05-03T10:12:54.165Z</time></trkpt><trkpt lat="43.191245" lon="11.142235"><ele>277.0</ele><time>2026-05-03T10:12:55.164Z</time></trkpt><trkpt lat="43.19145" lon="11.1423617"><ele>277.0</ele><time>2026-05-03T10:12:56.162Z</time></trkpt><trkpt lat="43.191665" lon="11.1424933"><ele>276.5</ele><time>2026-05-03T10:12:57.165Z</time></trkpt><trkpt lat="43.1918883" lon="11.1426283"><ele>276.0</ele><time>2026-05-03T10:12:58.164Z</time></trkpt><trkpt lat="43.192115" lon="11.1427617"><ele>275.0</ele><time>2026-05-03T10:12:59.164Z</time></trkpt><trkpt lat="43.1923433" lon="11.1428917"><ele>274.0</ele><time>2026-05-03T10:13:00.164Z</time></trkpt><trkpt lat="43.192575" lon="11.143025"><ele>274.0</ele><time>2026-05-03T10:13:01.165Z</time></trkpt><trkpt lat="43.1928033" lon="11.143165"><ele>274.0</ele><time>2026-05-03T10:13:02.164Z</time></trkpt><trkpt lat="43.193035" lon="11.1433067"><ele>275.0</ele><time>2026-05-03T10:13:03.164Z</time></trkpt><trkpt lat="43.1932583" lon="11.1434567"><ele>276.0</ele><time>2026-05-03T10:13:04.164Z</time></trkpt><trkpt lat="43.1934783" lon="11.1435983"><ele>276.0</ele><time>2026-05-03T10:13:05.164Z</time></trkpt><trkpt lat="43.1936933" lon="11.143735"><ele>276.0</ele><time>2026-05-03T10:13:06.164Z</time></trkpt><trkpt lat="43.1939067" lon="11.1438683"><ele>274.5</ele><time>2026-05-03T10:13:07.165Z</time></trkpt><trkpt lat="43.1941233" lon="11.144"><ele>273.0</ele><time>2026-05-03T10:13:08.164Z</time></trkpt><trkpt lat="43.19434" lon="11.1441333"><ele>273.0</ele><time>2026-05-03T10:13:09.161Z</time></trkpt><trkpt lat="43.1945617" lon="11.1442667"><ele>273.0</ele><time>2026-05-03T10:13:10.165Z</time></trkpt><trkpt lat="43.1947883" lon="11.1443967"><ele>273.0</ele><time>2026-05-03T10:13:11.165Z</time></trkpt><trkpt lat="43.1950283" lon="11.1445333"><ele>273.0</ele><time>2026-05-03T10:13:12.162Z</time></trkpt><trkpt lat="43.195275" lon="11.1446783"><ele>273.0</ele><time>2026-05-03T10:13:13.162Z</time></trkpt><trkpt lat="43.1955217" lon="11.144825"><ele>273.0</ele><time>2026-05-03T10:13:14.162Z</time></trkpt><trkpt lat="43.1957733" lon="11.144965"><ele>275.0</ele><time>2026-05-03T10:13:15.162Z</time></trkpt><trkpt lat="43.1960333" lon="11.1450917"><ele>277.0</ele><time>2026-05-03T10:13:16.163Z</time></trkpt><trkpt lat="43.1963" lon="11.1452067"><ele>278.5</ele><time>2026-05-03T10:13:17.162Z</time></trkpt><trkpt lat="43.1965667" lon="11.1453117"><ele>280.0</ele><time>2026-05-03T10:13:18.162Z</time></trkpt><trkpt lat="43.196815" lon="11.1454033"><ele>280.0</ele><time>2026-05-03T10:13:19.163Z</time></trkpt><trkpt lat="43.1970517" lon="11.145475"><ele>280.0</ele><time>2026-05-03T10:13:20.165Z</time></trkpt><trkpt lat="43.19728" lon="11.1455233"><ele>283.0</ele><time>2026-05-03T10:13:21.164Z</time></trkpt><trkpt lat="43.19751" lon="11.1455367"><ele>286.0</ele><time>2026-05-03T10:13:22.165Z</time></trkpt><trkpt lat="43.197745" lon="11.1455067"><ele>286.0</ele><time>2026-05-03T10:13:23.165Z</time></trkpt><trkpt lat="43.1979683" lon="11.1454483"><ele>286.0</ele><time>2026-05-03T10:13:24.165Z</time></trkpt><trkpt lat="43.198185" lon="11.1453783"><ele>287.3333333333333</ele><time>2026-05-03T10:13:25.164Z</time></trkpt><trkpt lat="43.1983983" lon="11.1453267"><ele>288.6666666666667</ele><time>2026-05-03T10:13:26.165Z</time></trkpt><trkpt lat="43.198605" lon="11.145305"><ele>290.0</ele><time>2026-05-03T10:13:27.161Z</time></trkpt><trkpt lat="43.1988017" lon="11.1453183"><ele>290.0</ele><time>2026-05-03T10:13:28.162Z</time></trkpt><trkpt lat="43.1989967" lon="11.14535"><ele>290.0</ele><time>2026-05-03T10:13:29.162Z</time></trkpt><trkpt lat="43.19919" lon="11.1453933"><ele>290.0</ele><time>2026-05-03T10:13:30.162Z</time></trkpt><trkpt lat="43.1993867" lon="11.145435"><ele>291.0</ele><time>2026-05-03T10:13:31.163Z</time></trkpt><trkpt lat="43.1995833" lon="11.1454783"><ele>292.0</ele><time>2026-05-03T10:13:32.162Z</time></trkpt><trkpt lat="43.1997733" lon="11.1455267"><ele>293.0</ele><time>2026-05-03T10:13:33.162Z</time></trkpt><trkpt lat="43.1999517" lon="11.145595"><ele>294.0</ele><time>2026-05-03T10:13:34.162Z</time></trkpt><trkpt lat="43.2001167" lon="11.1456817"><ele>295.0</ele><time>2026-05-03T10:13:35.162Z</time></trkpt><trkpt lat="43.2002717" lon="11.14578"><ele>296.0</ele><time>2026-05-03T10:13:36.162Z</time></trkpt><trkpt lat="43.2004183" lon="11.1458917"><ele>296.0</ele><time>2026-05-03T10:13:37.165Z</time></trkpt><trkpt lat="43.2005583" lon="11.146015"><ele>296.0</ele><time>2026-05-03T10:13:38.162Z</time></trkpt><trkpt lat="43.2006917" lon="11.1461467"><ele>296.0</ele><time>2026-05-03T10:13:39.165Z</time></trkpt><trkpt lat="43.2008283" lon="11.1462717"><ele>296.0</ele><time>2026-05-03T10:13:40.162Z</time></trkpt><trkpt lat="43.2009717" lon="11.14639"><ele>296.0</ele><time>2026-05-03T10:13:41.165Z</time></trkpt><trkpt lat="43.2011133" lon="11.1464933"><ele>296.0</ele><time>2026-05-03T10:13:42.161Z</time></trkpt><trkpt lat="43.2012567" lon="11.1465867"><ele>295.5</ele><time>2026-05-03T10:13:43.162Z</time></trkpt><trkpt lat="43.2013917" lon="11.146675"><ele>295.0</ele><time>2026-05-03T10:13:44.168Z</time></trkpt><trkpt lat="43.2015233" lon="11.1467567"><ele>294.5</ele><time>2026-05-03T10:13:45.162Z</time></trkpt><trkpt lat="43.2016517" lon="11.146835"><ele>294.0</ele><time>2026-05-03T10:13:46.162Z</time></trkpt><trkpt lat="43.2017783" lon="11.1469067"><ele>295.75</ele><time>2026-05-03T10:13:47.162Z</time></trkpt><trkpt lat="43.2019017" lon="11.1469567"><ele>297.5</ele><time>2026-05-03T10:13:48.162Z</time></trkpt><trkpt lat="43.202025" lon="11.1469783"><ele>299.25</ele><time>2026-05-03T10:13:49.162Z</time></trkpt><trkpt lat="43.2021417" lon="11.146985"><ele>301.0</ele><time>2026-05-03T10:13:50.164Z</time></trkpt><trkpt lat="43.202255" lon="11.1469917"><ele>303.5</ele><time>2026-05-03T10:13:51.165Z</time></trkpt><trkpt lat="43.20237" lon="11.1470033"><ele>306.0</ele><time>2026-05-03T10:13:52.165Z</time></trkpt><trkpt lat="43.2024767" lon="11.1470417"><ele>308.5</ele><time>2026-05-03T10:13:53.165Z</time></trkpt><trkpt lat="43.2025817" lon="11.147105"><ele>311.0</ele><time>2026-05-03T10:13:54.161Z</time></trkpt><trkpt lat="43.2026817" lon="11.1471917"><ele>311.0</ele><time>2026-05-03T10:13:55.165Z</time></trkpt><trkpt lat="43.2027667" lon="11.1473067"><ele>311.0</ele><time>2026-05-03T10:13:56.164Z</time></trkpt><trkpt lat="43.2028333" lon="11.1474383"><ele>311.0</ele><time>2026-05-03T10:13:57.161Z</time></trkpt><trkpt lat="43.2028817" lon="11.1475717"><ele>311.0</ele><time>2026-05-03T10:13:58.162Z</time></trkpt><trkpt lat="43.2029267" lon="11.14771"><ele>310.25</ele><time>2026-05-03T10:13:59.163Z</time></trkpt><trkpt lat="43.202975" lon="11.14785"><ele>309.5</ele><time>2026-05-03T10:14:00.162Z</time></trkpt><trkpt lat="43.203035" lon="11.1479983"><ele>308.75</ele><time>2026-05-03T10:14:01.163Z</time></trkpt><trkpt lat="43.20311" lon="11.14816"><ele>308.0</ele><time>2026-05-03T10:14:02.162Z</time></trkpt><trkpt lat="43.2032167" lon="11.1483333"><ele>308.0</ele><time>2026-05-03T10:14:03.163Z</time></trkpt><trkpt lat="43.2033467" lon="11.1485167"><ele>308.0</ele><time>2026-05-03T10:14:04.162Z</time></trkpt><trkpt lat="43.203485" lon="11.1487217"><ele>308.0</ele><time>2026-05-03T10:14:05.163Z</time></trkpt><trkpt lat="43.2036233" lon="11.1489483"><ele>309.33333333333337</ele><time>2026-05-03T10:14:06.162Z</time></trkpt><trkpt lat="43.2037567" lon="11.14918"><ele>310.6666666666667</ele><time>2026-05-03T10:14:07.163Z</time></trkpt><trkpt lat="43.20389" lon="11.1493917"><ele>312.0</ele><time>2026-05-03T10:14:08.162Z</time></trkpt><trkpt lat="43.20402" lon="11.1495817"><ele>312.0</ele><time>2026-05-03T10:14:09.162Z</time></trkpt><trkpt lat="43.2041467" lon="11.1497467"><ele>312.0</ele><time>2026-05-03T10:14:10.165Z</time></trkpt><trkpt lat="43.2042733" lon="11.149875"><ele>312.0</ele><time>2026-05-03T10:14:11.163Z</time></trkpt><trkpt lat="43.2044067" lon="11.14996"><ele>314.0</ele><time>2026-05-03T10:14:12.162Z</time></trkpt><trkpt lat="43.204545" lon="11.1499933"><ele>316.0</ele><time>2026-05-03T10:14:13.162Z</time></trkpt><trkpt lat="43.2046833" lon="11.1499733"><ele>318.0</ele><time>2026-05-03T10:14:14.165Z</time></trkpt><trkpt lat="43.2048133" lon="11.14989"><ele>320.0</ele><time>2026-05-03T10:14:15.164Z</time></trkpt><trkpt lat="43.2050083" lon="11.1495933"><ele>320.0</ele><time>2026-05-03T10:14:17.165Z</time></trkpt><trkpt lat="43.2051067" lon="11.1494333"><ele>320.0</ele><time>2026-05-03T10:14:18.162Z</time></trkpt><trkpt lat="43.20522" lon="11.14931"><ele>320.0</ele><time>2026-05-03T10:14:19.163Z</time></trkpt><trkpt lat="43.2053367" lon="11.1492217"><ele>320.0</ele><time>2026-05-03T10:14:20.165Z</time></trkpt><trkpt lat="43.2054417" lon="11.14913"><ele>321.75</ele><time>2026-05-03T10:14:21.165Z</time></trkpt><trkpt lat="43.20551" lon="11.149005"><ele>323.5</ele><time>2026-05-03T10:14:22.165Z</time></trkpt><trkpt lat="43.205525" lon="11.1488483"><ele>325.25</ele><time>2026-05-03T10:14:23.166Z</time></trkpt><trkpt lat="43.20549" lon="11.1486883"><ele>327.0</ele><time>2026-05-03T10:14:24.165Z</time></trkpt><trkpt lat="43.20541" lon="11.1485517"><ele>327.0</ele><time>2026-05-03T10:14:25.163Z</time></trkpt><trkpt lat="43.2052883" lon="11.1484583"><ele>327.0</ele><time>2026-05-03T10:14:26.166Z</time></trkpt><trkpt lat="43.20515" lon="11.148405"><ele>327.0</ele><time>2026-05-03T10:14:27.162Z</time></trkpt><trkpt lat="43.2050267" lon="11.14836"><ele>327.0</ele><time>2026-05-03T10:14:28.162Z</time></trkpt><trkpt lat="43.204925" lon="11.1482883"><ele>329.1666666666667</ele><time>2026-05-03T10:14:29.163Z</time></trkpt><trkpt lat="43.2048583" lon="11.148185"><ele>331.3333333333333</ele><time>2026-05-03T10:14:30.162Z</time></trkpt><trkpt lat="43.20484" lon="11.1480667"><ele>333.5</ele><time>2026-05-03T10:14:31.163Z</time></trkpt><trkpt lat="43.2048517" lon="11.1479533"><ele>335.66666666666663</ele><time>2026-05-03T10:14:32.163Z</time></trkpt><trkpt lat="43.2049" lon="11.1478467"><ele>337.8333333333333</ele><time>2026-05-03T10:14:33.163Z</time></trkpt><trkpt lat="43.2049517" lon="11.14776"><ele>340.0</ele><time>2026-05-03T10:14:34.163Z</time></trkpt><trkpt lat="43.205055" lon="11.14772"><ele>340.0</ele><time>2026-05-03T10:14:35.163Z</time></trkpt><trkpt lat="43.2051917" lon="11.14771"><ele>340.0</ele><time>2026-05-03T10:14:36.162Z</time></trkpt><trkpt lat="43.2053717" lon="11.14775"><ele>340.0</ele><time>2026-05-03T10:14:37.163Z</time></trkpt><trkpt lat="43.2055967" lon="11.14789"><ele>340.66666666666663</ele><time>2026-05-03T10:14:38.162Z</time></trkpt><trkpt lat="43.2057733" lon="11.14801"><ele>341.3333333333333</ele><time>2026-05-03T10:14:39.165Z</time></trkpt><trkpt lat="43.2059417" lon="11.1481283"><ele>342.0</ele><time>2026-05-03T10:14:40.163Z</time></trkpt><trkpt lat="43.2060883" lon="11.1482483"><ele>340.5</ele><time>2026-05-03T10:14:41.163Z</time></trkpt><trkpt lat="43.206225" lon="11.14836"><ele>339.0</ele><time>2026-05-03T10:14:42.162Z</time></trkpt><trkpt lat="43.2063467" lon="11.148465"><ele>337.5</ele><time>2026-05-03T10:14:43.165Z</time></trkpt><trkpt lat="43.2064717" lon="11.1485683"><ele>336.0</ele><time>2026-05-03T10:14:44.164Z</time></trkpt><trkpt lat="43.2065967" lon="11.1486717"><ele>340.0</ele><time>2026-05-03T10:14:45.164Z</time></trkpt><trkpt lat="43.2067283" lon="11.1487817"><ele>344.0</ele><time>2026-05-03T10:14:46.163Z</time></trkpt><trkpt lat="43.206865" lon="11.1489"><ele>348.0</ele><time>2026-05-03T10:14:47.163Z</time></trkpt><trkpt lat="43.2070167" lon="11.149025"><ele>349.6666666666667</ele><time>2026-05-03T10:14:48.163Z</time></trkpt><trkpt lat="43.20718" lon="11.1491617"><ele>351.33333333333337</ele><time>2026-05-03T10:14:49.164Z</time></trkpt><trkpt lat="43.2073483" lon="11.149305"><ele>353.0</ele><time>2026-05-03T10:14:50.165Z</time></trkpt><trkpt lat="43.207525" lon="11.149455"><ele>353.0</ele><time>2026-05-03T10:14:51.165Z</time></trkpt><trkpt lat="43.2077083" lon="11.149615"><ele>353.0</ele><time>2026-05-03T10:14:52.165Z</time></trkpt><trkpt lat="43.2078867" lon="11.1497933"><ele>353.0</ele><time>2026-05-03T10:14:53.165Z</time></trkpt><trkpt lat="43.2080467" lon="11.149995"><ele>354.33333333333337</ele><time>2026-05-03T10:14:54.162Z</time></trkpt><trkpt lat="43.208185" lon="11.15023"><ele>355.6666666666667</ele><time>2026-05-03T10:14:55.167Z</time></trkpt><trkpt lat="43.20829" lon="11.15049"><ele>357.0</ele><time>2026-05-03T10:14:56.164Z</time></trkpt><trkpt lat="43.2083833" lon="11.15074"><ele>360.0</ele><time>2026-05-03T10:14:57.163Z</time></trkpt><trkpt lat="43.2084783" lon="11.150965"><ele>363.0</ele><time>2026-05-03T10:14:58.164Z</time></trkpt><trkpt lat="43.208585" lon="11.1511583"><ele>366.0</ele><time>2026-05-03T10:14:59.163Z</time></trkpt><trkpt lat="43.2087117" lon="11.15131"><ele>366.0</ele><time>2026-05-03T10:15:00.163Z</time></trkpt><trkpt lat="43.2088633" lon="11.1514133"><ele>366.0</ele><time>2026-05-03T10:15:01.164Z</time></trkpt><trkpt lat="43.2090333" lon="11.1514633"><ele>366.0</ele><time>2026-05-03T10:15:02.162Z</time></trkpt><trkpt lat="43.20922" lon="11.1514617"><ele>366.0</ele><time>2026-05-03T10:15:03.162Z</time></trkpt><trkpt lat="43.209415" lon="11.1514183"><ele>366.0</ele><time>2026-05-03T10:15:04.162Z</time></trkpt><trkpt lat="43.2096133" lon="11.1513567"><ele>366.0</ele><time>2026-05-03T10:15:05.163Z</time></trkpt><trkpt lat="43.2098083" lon="11.1513"><ele>367.6666666666667</ele><time>2026-05-03T10:15:06.161Z</time></trkpt><trkpt lat="43.2100017" lon="11.1512483"><ele>369.33333333333337</ele><time>2026-05-03T10:15:07.162Z</time></trkpt><trkpt lat="43.2101967" lon="11.1512017"><ele>371.0</ele><time>2026-05-03T10:15:08.165Z</time></trkpt><trkpt lat="43.2103933" lon="11.1511633"><ele>371.0</ele><time>2026-05-03T10:15:09.164Z</time></trkpt><trkpt lat="43.2105967" lon="11.1511383"><ele>371.0</ele><time>2026-05-03T10:15:10.161Z</time></trkpt><trkpt lat="43.210805" lon="11.1511283"><ele>371.0</ele><time>2026-05-03T10:15:11.164Z</time></trkpt><trkpt lat="43.211015" lon="11.1511333"><ele>372.33333333333337</ele><time>2026-05-03T10:15:12.164Z</time></trkpt><trkpt lat="43.21123" lon="11.1511417"><ele>373.6666666666667</ele><time>2026-05-03T10:15:13.162Z</time></trkpt><trkpt lat="43.2114417" lon="11.1511533"><ele>375.0</ele><time>2026-05-03T10:15:14.164Z</time></trkpt><trkpt lat="43.2116483" lon="11.1511683"><ele>376.6666666666667</ele><time>2026-05-03T10:15:15.164Z</time></trkpt><trkpt lat="43.2118433" lon="11.151185"><ele>378.33333333333337</ele><time>2026-05-03T10:15:16.164Z</time></trkpt><trkpt lat="43.2120267" lon="11.151215"><ele>380.0</ele><time>2026-05-03T10:15:17.163Z</time></trkpt><trkpt lat="43.2122017" lon="11.1512717"><ele>381.33333333333337</ele><time>2026-05-03T10:15:18.169Z</time></trkpt><trkpt lat="43.2123633" lon="11.151365"><ele>382.6666666666667</ele><time>2026-05-03T10:15:19.161Z</time></trkpt><trkpt lat="43.2125083" lon="11.1514933"><ele>384.0</ele><time>2026-05-03T10:15:20.164Z</time></trkpt><trkpt lat="43.2126383" lon="11.1516567"><ele>386.66666666666663</ele><time>2026-05-03T10:15:21.165Z</time></trkpt><trkpt lat="43.2127467" lon="11.1518617"><ele>389.3333333333333</ele><time>2026-05-03T10:15:22.164Z</time></trkpt><trkpt lat="43.2128467" lon="11.1520933"><ele>392.0</ele><time>2026-05-03T10:15:23.165Z</time></trkpt><trkpt lat="43.2129367" lon="11.1523567"><ele>391.3333333333333</ele><time>2026-05-03T10:15:24.164Z</time></trkpt><trkpt lat="43.2130217" lon="11.1526383"><ele>390.66666666666663</ele><time>2026-05-03T10:15:25.165Z</time></trkpt><trkpt lat="43.2131067" lon="11.1529167"><ele>390.0</ele><time>2026-05-03T10:15:26.163Z</time></trkpt><trkpt lat="43.2131933" lon="11.15318"><ele>393.33333333333337</ele><time>2026-05-03T10:15:27.163Z</time></trkpt><trkpt lat="43.213285" lon="11.1534167"><ele>396.6666666666667</ele><time>2026-05-03T10:15:28.163Z</time></trkpt><trkpt lat="43.2133917" lon="11.15362"><ele>400.0</ele><time>2026-05-03T10:15:29.162Z</time></trkpt><trkpt lat="43.2135217" lon="11.1537883"><ele>400.0</ele><time>2026-05-03T10:15:30.162Z</time></trkpt><trkpt lat="43.2136717" lon="11.1539067"><ele>400.0</ele><time>2026-05-03T10:15:31.162Z</time></trkpt><trkpt lat="43.213835" lon="11.153965"><ele>400.0</ele><time>2026-05-03T10:15:32.163Z</time></trkpt><trkpt lat="43.2140083" lon="11.153985"><ele>400.33333333333337</ele><time>2026-05-03T10:15:33.165Z</time></trkpt><trkpt lat="43.214185" lon="11.1539717"><ele>400.66666666666663</ele><time>2026-05-03T10:15:34.165Z</time></trkpt><trkpt lat="43.21435" lon="11.15394"><ele>401.0</ele><time>2026-05-03T10:15:35.166Z</time></trkpt><trkpt lat="43.2144983" lon="11.1539067"><ele>401.0</ele><time>2026-05-03T10:15:36.164Z</time></trkpt><trkpt lat="43.2146333" lon="11.1538833"><ele>401.0</ele><time>2026-05-03T10:15:37.163Z</time></trkpt><trkpt lat="43.214765" lon="11.15386"><ele>401.0</ele><time>2026-05-03T10:15:38.167Z</time></trkpt><trkpt lat="43.21489" lon="11.1538367"><ele>401.0</ele><time>2026-05-03T10:15:39.164Z</time></trkpt><trkpt lat="43.21501" lon="11.1538183"><ele>401.75</ele><time>2026-05-03T10:15:40.166Z</time></trkpt><trkpt lat="43.2151283" lon="11.1538017"><ele>402.5</ele><time>2026-05-03T10:15:41.164Z</time></trkpt><trkpt lat="43.2152483" lon="11.153795"><ele>403.25</ele><time>2026-05-03T10:15:42.165Z</time></trkpt><trkpt lat="43.2153717" lon="11.1537983"><ele>404.0</ele><time>2026-05-03T10:15:43.162Z</time></trkpt><trkpt lat="43.2155" lon="11.15382"><ele>404.0</ele><time>2026-05-03T10:15:44.164Z</time></trkpt><trkpt lat="43.2156333" lon="11.1538683"><ele>404.0</ele><time>2026-05-03T10:15:45.162Z</time></trkpt><trkpt lat="43.215765" lon="11.1539467"><ele>404.0</ele><time>2026-05-03T10:15:46.164Z</time></trkpt><trkpt lat="43.21589" lon="11.1540583"><ele>404.0</ele><time>2026-05-03T10:15:47.166Z</time></trkpt><trkpt lat="43.2160033" lon="11.1542017"><ele>406.0</ele><time>2026-05-03T10:15:48.165Z</time></trkpt><trkpt lat="43.2161117" lon="11.15436"><ele>408.0</ele><time>2026-05-03T10:15:49.163Z</time></trkpt><trkpt lat="43.2162117" lon="11.1545183"><ele>410.0</ele><time>2026-05-03T10:15:50.165Z</time></trkpt><trkpt lat="43.21629" lon="11.1546633"><ele>412.0</ele><time>2026-05-03T10:15:51.165Z</time></trkpt><trkpt lat="43.21634" lon="11.1548017"><ele>413.00000000000006</ele><time>2026-05-03T10:15:52.164Z</time></trkpt><trkpt lat="43.2163767" lon="11.1549367"><ele>414.0</ele><time>2026-05-03T10:15:53.166Z</time></trkpt><trkpt lat="43.2163867" lon="11.15507"><ele>415.0</ele><time>2026-05-03T10:15:54.161Z</time></trkpt><trkpt lat="43.2163767" lon="11.155195"><ele>416.0</ele><time>2026-05-03T10:15:55.165Z</time></trkpt><trkpt lat="43.21638" lon="11.1552983"><ele>417.00000000000006</ele><time>2026-05-03T10:15:56.162Z</time></trkpt><trkpt lat="43.2164" lon="11.155395"><ele>418.0</ele><time>2026-05-03T10:15:57.164Z</time></trkpt><trkpt lat="43.2164417" lon="11.155475"><ele>418.50000000000006</ele><time>2026-05-03T10:15:58.163Z</time></trkpt><trkpt lat="43.2165033" lon="11.1555383"><ele>419.0</ele><time>2026-05-03T10:15:59.163Z</time></trkpt><trkpt lat="43.2165883" lon="11.1555783"><ele>419.5</ele><time>2026-05-03T10:16:00.163Z</time></trkpt><trkpt lat="43.2166717" lon="11.1556267"><ele>420.0</ele><time>2026-05-03T10:16:01.165Z</time></trkpt><trkpt lat="43.2167533" lon="11.155685"><ele>420.50000000000006</ele><time>2026-05-03T10:16:02.165Z</time></trkpt><trkpt lat="43.2168067" lon="11.1557733"><ele>421.0</ele><time>2026-05-03T10:16:03.165Z</time></trkpt><trkpt lat="43.2168267" lon="11.1558767"><ele>421.00000000000006</ele><time>2026-05-03T10:16:04.164Z</time></trkpt><trkpt lat="43.21682" lon="11.1559967"><ele>421.0</ele><time>2026-05-03T10:16:05.165Z</time></trkpt><trkpt lat="43.2168083" lon="11.1561133"><ele>421.0</ele><time>2026-05-03T10:16:06.165Z</time></trkpt><trkpt lat="43.2168" lon="11.1562183"><ele>421.0</ele><time>2026-05-03T10:16:07.166Z</time></trkpt><trkpt lat="43.2168" lon="11.1563233"><ele>421.00000000000006</ele><time>2026-05-03T10:16:08.163Z</time></trkpt><trkpt lat="43.21682" lon="11.156415"><ele>421.0</ele><time>2026-05-03T10:16:09.163Z</time></trkpt><trkpt lat="43.2169067" lon="11.1565267"><ele>421.0</ele><time>2026-05-03T10:16:11.164Z</time></trkpt><trkpt lat="43.2169883" lon="11.1565367"><ele>421.0</ele><time>2026-05-03T10:16:12.165Z</time></trkpt><trkpt lat="43.2170867" lon="11.15649"><ele>421.0</ele><time>2026-05-03T10:16:13.165Z</time></trkpt><trkpt lat="43.2171833" lon="11.156435"><ele>421.0</ele><time>2026-05-03T10:16:14.165Z</time></trkpt><trkpt lat="43.2172733" lon="11.1564067"><ele>421.0</ele><time>2026-05-03T10:16:15.165Z</time></trkpt><trkpt lat="43.21736" lon="11.1564133"><ele>420.28571428571433</ele><time>2026-05-03T10:16:16.165Z</time></trkpt><trkpt lat="43.217425" lon="11.1564633"><ele>419.57142857142856</ele><time>2026-05-03T10:16:17.165Z</time></trkpt><trkpt lat="43.2174767" lon="11.1565483"><ele>418.8571428571429</ele><time>2026-05-03T10:16:18.164Z</time></trkpt><trkpt lat="43.2175133" lon="11.15664"><ele>418.14285714285717</ele><time>2026-05-03T10:16:19.163Z</time></trkpt><trkpt lat="43.2175567" lon="11.156725"><ele>417.42857142857144</ele><time>2026-05-03T10:16:20.166Z</time></trkpt><trkpt lat="43.2176083" lon="11.1567883"><ele>416.7142857142857</ele><time>2026-05-03T10:16:21.161Z</time></trkpt><trkpt lat="43.217675" lon="11.156825"><ele>416.0</ele><time>2026-05-03T10:16:22.164Z</time></trkpt><trkpt lat="43.2177617" lon="11.1568267"><ele>418.25</ele><time>2026-05-03T10:16:23.166Z</time></trkpt><trkpt lat="43.217855" lon="11.15677"><ele>420.5</ele><time>2026-05-03T10:16:24.165Z</time></trkpt><trkpt lat="43.21796" lon="11.1566933"><ele>422.75</ele><time>2026-05-03T10:16:25.165Z</time></trkpt><trkpt lat="43.2181017" lon="11.156545"><ele>425.0</ele><time>2026-05-03T10:16:26.165Z</time></trkpt><trkpt lat="43.2182717" lon="11.1563633"><ele>425.0</ele><time>2026-05-03T10:16:27.161Z</time></trkpt><trkpt lat="43.2184267" lon="11.1562317"><ele>425.0</ele><time>2026-05-03T10:16:28.165Z</time></trkpt><trkpt lat="43.2185633" lon="11.1561317"><ele>425.0</ele><time>2026-05-03T10:16:29.166Z</time></trkpt><trkpt lat="43.2186883" lon="11.1561017"><ele>425.0</ele><time>2026-05-03T10:16:30.164Z</time></trkpt><trkpt lat="43.2188083" lon="11.1561367"><ele>425.0</ele><time>2026-05-03T10:16:31.165Z</time></trkpt><trkpt lat="43.2189183" lon="11.1562417"><ele>425.0</ele><time>2026-05-03T10:16:32.165Z</time></trkpt><trkpt lat="43.2190333" lon="11.1563833"><ele>425.0</ele><time>2026-05-03T10:16:33.166Z</time></trkpt><trkpt lat="43.21916" lon="11.156505"><ele>427.25</ele><time>2026-05-03T10:16:34.165Z</time></trkpt><trkpt lat="43.2193017" lon="11.15657"><ele>429.5</ele><time>2026-05-03T10:16:35.165Z</time></trkpt><trkpt lat="43.2194483" lon="11.1566133"><ele>431.75</ele><time>2026-05-03T10:16:36.165Z</time></trkpt><trkpt lat="43.21959" lon="11.156675"><ele>434.0</ele><time>2026-05-03T10:16:37.162Z</time></trkpt><trkpt lat="43.2197233" lon="11.156775"><ele>431.0</ele><time>2026-05-03T10:16:38.163Z</time></trkpt><trkpt lat="43.21984" lon="11.1569183"><ele>428.0</ele><time>2026-05-03T10:16:39.163Z</time></trkpt><trkpt lat="43.2199417" lon="11.1570967"><ele>425.0</ele><time>2026-05-03T10:16:40.164Z</time></trkpt><trkpt lat="43.220035" lon="11.1572767"><ele>427.5</ele><time>2026-05-03T10:16:41.165Z</time></trkpt><trkpt lat="43.2201217" lon="11.1574467"><ele>430.0</ele><time>2026-05-03T10:16:42.164Z</time></trkpt><trkpt lat="43.22018" lon="11.1576167"><ele>432.5</ele><time>2026-05-03T10:16:43.166Z</time></trkpt><trkpt lat="43.2202133" lon="11.1577917"><ele>435.0</ele><time>2026-05-03T10:16:44.162Z</time></trkpt><trkpt lat="43.2202067" lon="11.1579633"><ele>435.0</ele><time>2026-05-03T10:16:45.169Z</time></trkpt><trkpt lat="43.2201433" lon="11.15812"><ele>435.0</ele><time>2026-05-03T10:16:46.162Z</time></trkpt><trkpt lat="43.2200583" lon="11.1582633"><ele>435.0</ele><time>2026-05-03T10:16:47.163Z</time></trkpt><trkpt lat="43.21997" lon="11.1583867"><ele>435.0</ele><time>2026-05-03T10:16:48.161Z</time></trkpt><trkpt lat="43.2198883" lon="11.158505"><ele>438.0</ele><time>2026-05-03T10:16:49.163Z</time></trkpt><trkpt lat="43.219815" lon="11.158625"><ele>441.0</ele><time>2026-05-03T10:16:50.163Z</time></trkpt><trkpt lat="43.2197533" lon="11.158755"><ele>444.0</ele><time>2026-05-03T10:16:51.165Z</time></trkpt><trkpt lat="43.2197033" lon="11.15889"><ele>447.0</ele><time>2026-05-03T10:16:52.165Z</time></trkpt><trkpt lat="43.2196683" lon="11.1590433"><ele>447.0</ele><time>2026-05-03T10:16:53.165Z</time></trkpt><trkpt lat="43.21965" lon="11.1592067"><ele>447.0</ele><time>2026-05-03T10:16:54.165Z</time></trkpt><trkpt lat="43.219645" lon="11.1593867"><ele>447.0</ele><time>2026-05-03T10:16:55.165Z</time></trkpt><trkpt lat="43.21966" lon="11.1595717"><ele>447.0</ele><time>2026-05-03T10:16:56.165Z</time></trkpt><trkpt lat="43.2196917" lon="11.15976"><ele>447.0</ele><time>2026-05-03T10:16:57.165Z</time></trkpt><trkpt lat="43.2197317" lon="11.1599467"><ele>447.0</ele><time>2026-05-03T10:16:58.165Z</time></trkpt><trkpt lat="43.2197767" lon="11.1601333"><ele>447.0</ele><time>2026-05-03T10:16:59.165Z</time></trkpt><trkpt lat="43.2198267" lon="11.1603117"><ele>447.0</ele><time>2026-05-03T10:17:00.165Z</time></trkpt><trkpt lat="43.21989" lon="11.1604833"><ele>444.5</ele><time>2026-05-03T10:17:01.166Z</time></trkpt><trkpt lat="43.2199717" lon="11.1606383"><ele>442.0</ele><time>2026-05-03T10:17:02.165Z</time></trkpt><trkpt lat="43.2200683" lon="11.1607867"><ele>439.5</ele><time>2026-05-03T10:17:03.166Z</time></trkpt><trkpt lat="43.22017" lon="11.1609317"><ele>437.0</ele><time>2026-05-03T10:17:04.165Z</time></trkpt><trkpt lat="43.220275" lon="11.1610717"><ele>437.0</ele><time>2026-05-03T10:17:05.165Z</time></trkpt><trkpt lat="43.2203833" lon="11.1612167"><ele>437.0</ele><time>2026-05-03T10:17:06.165Z</time></trkpt><trkpt lat="43.2204933" lon="11.1613683"><ele>437.0</ele><time>2026-05-03T10:17:07.162Z</time></trkpt><trkpt lat="43.2205967" lon="11.1615283"><ele>435.66666666666663</ele><time>2026-05-03T10:17:08.163Z</time></trkpt><trkpt lat="43.2206917" lon="11.161705"><ele>434.33333333333337</ele><time>2026-05-03T10:17:09.162Z</time></trkpt><trkpt lat="43.2207683" lon="11.1618983"><ele>433.0</ele><time>2026-05-03T10:17:10.163Z</time></trkpt><trkpt lat="43.2208217" lon="11.1621067"><ele>433.0</ele><time>2026-05-03T10:17:11.166Z</time></trkpt><trkpt lat="43.2208633" lon="11.1623267"><ele>433.0</ele><time>2026-05-03T10:17:12.162Z</time></trkpt><trkpt lat="43.220905" lon="11.1625417"><ele>433.0</ele><time>2026-05-03T10:17:13.163Z</time></trkpt><trkpt lat="43.2209467" lon="11.16275"><ele>433.25</ele><time>2026-05-03T10:17:14.163Z</time></trkpt><trkpt lat="43.2209883" lon="11.1629483"><ele>433.5</ele><time>2026-05-03T10:17:15.164Z</time></trkpt><trkpt lat="43.2210233" lon="11.16314"><ele>433.75</ele><time>2026-05-03T10:17:16.164Z</time></trkpt><trkpt lat="43.2210567" lon="11.1633117"><ele>434.0</ele><time>2026-05-03T10:17:17.164Z</time></trkpt><trkpt lat="43.221085" lon="11.1634633"><ele>433.6</ele><time>2026-05-03T10:17:18.163Z</time></trkpt><trkpt lat="43.221115" lon="11.163605"><ele>433.2</ele><time>2026-05-03T10:17:19.162Z</time></trkpt><trkpt lat="43.2211517" lon="11.163745"><ele>432.80000000000007</ele><time>2026-05-03T10:17:20.257Z</time></trkpt><trkpt lat="43.2212" lon="11.1638783"><ele>432.40000000000003</ele><time>2026-05-03T10:17:21.162Z</time></trkpt><trkpt lat="43.2212667" lon="11.1639867"><ele>432.0</ele><time>2026-05-03T10:17:22.163Z</time></trkpt><trkpt lat="43.2213517" lon="11.1640533"><ele>432.25</ele><time>2026-05-03T10:17:23.166Z</time></trkpt><trkpt lat="43.22146" lon="11.16407"><ele>432.5</ele><time>2026-05-03T10:17:24.166Z</time></trkpt><trkpt lat="43.22158" lon="11.1640533"><ele>432.75</ele><time>2026-05-03T10:17:25.165Z</time></trkpt><trkpt lat="43.2217033" lon="11.1640233"><ele>433.0</ele><time>2026-05-03T10:17:26.165Z</time></trkpt><trkpt lat="43.2218267" lon="11.164"><ele>433.0</ele><time>2026-05-03T10:17:27.165Z</time></trkpt><trkpt lat="43.2219483" lon="11.1640067"><ele>433.0</ele><time>2026-05-03T10:17:28.163Z</time></trkpt><trkpt lat="43.2220767" lon="11.1640417"><ele>433.0</ele><time>2026-05-03T10:17:29.166Z</time></trkpt><trkpt lat="43.222205" lon="11.1641017"><ele>433.0</ele><time>2026-05-03T10:17:30.167Z</time></trkpt><trkpt lat="43.2223367" lon="11.1641817"><ele>433.5</ele><time>2026-05-03T10:17:31.165Z</time></trkpt><trkpt lat="43.2224633" lon="11.164265"><ele>434.0</ele><time>2026-05-03T10:17:32.165Z</time></trkpt><trkpt lat="43.2225817" lon="11.1643467"><ele>434.5</ele><time>2026-05-03T10:17:33.165Z</time></trkpt><trkpt lat="43.2227" lon="11.1644233"><ele>435.0</ele><time>2026-05-03T10:17:34.165Z</time></trkpt><trkpt lat="43.2228167" lon="11.1644933"><ele>435.0</ele><time>2026-05-03T10:17:35.165Z</time></trkpt><trkpt lat="43.222935" lon="11.1645633"><ele>435.0</ele><time>2026-05-03T10:17:36.165Z</time></trkpt><trkpt lat="43.2230483" lon="11.164645"><ele>435.0</ele><time>2026-05-03T10:17:37.162Z</time></trkpt><trkpt lat="43.2231533" lon="11.164745"><ele>435.0</ele><time>2026-05-03T10:17:38.169Z</time></trkpt><trkpt lat="43.2232467" lon="11.1648717"><ele>434.5</ele><time>2026-05-03T10:17:39.163Z</time></trkpt><trkpt lat="43.2233283" lon="11.1650233"><ele>434.0</ele><time>2026-05-03T10:17:40.165Z</time></trkpt><trkpt lat="43.2233967" lon="11.165195"><ele>433.5</ele><time>2026-05-03T10:17:41.163Z</time></trkpt><trkpt lat="43.22345" lon="11.1653767"><ele>433.0</ele><time>2026-05-03T10:17:42.162Z</time></trkpt><trkpt lat="43.2234817" lon="11.165565"><ele>432.75</ele><time>2026-05-03T10:17:43.165Z</time></trkpt><trkpt lat="43.223495" lon="11.1657633"><ele>432.5</ele><time>2026-05-03T10:17:44.162Z</time></trkpt><trkpt lat="43.2234883" lon="11.1659533"><ele>432.25</ele><time>2026-05-03T10:17:45.163Z</time></trkpt><trkpt lat="43.2234667" lon="11.166135"><ele>432.0</ele><time>2026-05-03T10:17:46.163Z</time></trkpt><trkpt lat="43.223445" lon="11.1663167"><ele>432.0</ele><time>2026-05-03T10:17:47.164Z</time></trkpt><trkpt lat="43.2234483" lon="11.1665033"><ele>432.0</ele><time>2026-05-03T10:17:48.162Z</time></trkpt><trkpt lat="43.2234817" lon="11.1666883"><ele>432.0</ele><time>2026-05-03T10:17:49.162Z</time></trkpt><trkpt lat="43.2235333" lon="11.1668567"><ele>432.0</ele><time>2026-05-03T10:17:50.164Z</time></trkpt><trkpt lat="43.2236117" lon="11.16701"><ele>431.6</ele><time>2026-05-03T10:17:51.161Z</time></trkpt><trkpt lat="43.2237" lon="11.1671317"><ele>431.20000000000005</ele><time>2026-05-03T10:17:52.163Z</time></trkpt><trkpt lat="43.2237933" lon="11.1672217"><ele>430.8</ele><time>2026-05-03T10:17:53.163Z</time></trkpt><trkpt lat="43.22389" lon="11.16727"><ele>430.4</ele><time>2026-05-03T10:17:54.162Z</time></trkpt><trkpt lat="43.2239867" lon="11.16727"><ele>430.0</ele><time>2026-05-03T10:17:55.164Z</time></trkpt><trkpt lat="43.224075" lon="11.1672317"><ele>429.6</ele><time>2026-05-03T10:17:56.164Z</time></trkpt><trkpt lat="43.22415" lon="11.167125"><ele>429.2</ele><time>2026-05-03T10:17:57.165Z</time></trkpt><trkpt lat="43.2242067" lon="11.167"><ele>428.79999999999995</ele><time>2026-05-03T10:17:58.165Z</time></trkpt><trkpt lat="43.2242567" lon="11.166865"><ele>428.4</ele><time>2026-05-03T10:17:59.166Z</time></trkpt><trkpt lat="43.2243033" lon="11.1667317"><ele>428.0</ele><time>2026-05-03T10:18:00.164Z</time></trkpt><trkpt lat="43.22435" lon="11.1666"><ele>428.66666666666663</ele><time>2026-05-03T10:18:01.164Z</time></trkpt><trkpt lat="43.2243983" lon="11.1664867"><ele>429.3333333333333</ele><time>2026-05-03T10:18:02.166Z</time></trkpt><trkpt lat="43.2244617" lon="11.1663967"><ele>430.0</ele><time>2026-05-03T10:18:03.165Z</time></trkpt><trkpt lat="43.22454" lon="11.1663483"><ele>430.66666666666663</ele><time>2026-05-03T10:18:04.17Z</time></trkpt><trkpt lat="43.2246217" lon="11.1663283"><ele>431.3333333333333</ele><time>2026-05-03T10:18:05.164Z</time></trkpt><trkpt lat="43.2246967" lon="11.1663533"><ele>432.0</ele><time>2026-05-03T10:18:06.165Z</time></trkpt><trkpt lat="43.2247533" lon="11.1664367"><ele>432.0</ele><time>2026-05-03T10:18:07.163Z</time></trkpt><trkpt lat="43.2248017" lon="11.166515"><ele>432.0</ele><time>2026-05-03T10:18:08.164Z</time></trkpt><trkpt lat="43.2248283" lon="11.1667083"><ele>432.0</ele><time>2026-05-03T10:18:09.161Z</time></trkpt><trkpt lat="43.2248483" lon="11.1669517"><ele>432.0</ele><time>2026-05-03T10:18:10.162Z</time></trkpt><trkpt lat="43.2248717" lon="11.167185"><ele>426.66666666666663</ele><time>2026-05-03T10:18:11.162Z</time></trkpt><trkpt lat="43.2248933" lon="11.16742"><ele>421.3333333333333</ele><time>2026-05-03T10:18:12.161Z</time></trkpt><trkpt lat="43.2249183" lon="11.1676633"><ele>416.0</ele><time>2026-05-03T10:18:13.165Z</time></trkpt><trkpt lat="43.2249533" lon="11.1679167"><ele>416.0</ele><time>2026-05-03T10:18:14.165Z</time></trkpt><trkpt lat="43.2249883" lon="11.168185"><ele>416.0</ele><time>2026-05-03T10:18:15.164Z</time></trkpt><trkpt lat="43.2250233" lon="11.1684467"><ele>416.0</ele><time>2026-05-03T10:18:16.165Z</time></trkpt><trkpt lat="43.225065" lon="11.1686883"><ele>416.0</ele><time>2026-05-03T10:18:17.164Z</time></trkpt><trkpt lat="43.22512" lon="11.1689117"><ele>416.0</ele><time>2026-05-03T10:18:18.165Z</time></trkpt><trkpt lat="43.2251817" lon="11.1691167"><ele>416.0</ele><time>2026-05-03T10:18:19.17Z</time></trkpt><trkpt lat="43.2252467" lon="11.1693083"><ele>417.66666666666663</ele><time>2026-05-03T10:18:20.165Z</time></trkpt><trkpt lat="43.2253033" lon="11.169495"><ele>419.33333333333337</ele><time>2026-05-03T10:18:21.165Z</time></trkpt><trkpt lat="43.2253583" lon="11.1696867"><ele>421.0</ele><time>2026-05-03T10:18:22.164Z</time></trkpt><trkpt lat="43.2254067" lon="11.1698933"><ele>421.33333333333337</ele><time>2026-05-03T10:18:23.165Z</time></trkpt><trkpt lat="43.2254467" lon="11.1701083"><ele>421.66666666666663</ele><time>2026-05-03T10:18:24.164Z</time></trkpt><trkpt lat="43.2254817" lon="11.1703417"><ele>422.0</ele><time>2026-05-03T10:18:25.165Z</time></trkpt><trkpt lat="43.225515" lon="11.1706067"><ele>421.3333333333333</ele><time>2026-05-03T10:18:26.164Z</time></trkpt><trkpt lat="43.2255367" lon="11.1708917"><ele>420.66666666666663</ele><time>2026-05-03T10:18:27.165Z</time></trkpt><trkpt lat="43.225535" lon="11.1711667"><ele>420.0</ele><time>2026-05-03T10:18:28.164Z</time></trkpt><trkpt lat="43.2255317" lon="11.171425"><ele>419.0</ele><time>2026-05-03T10:18:29.162Z</time></trkpt><trkpt lat="43.22554" lon="11.17167"><ele>418.0</ele><time>2026-05-03T10:18:30.164Z</time></trkpt><trkpt lat="43.22557" lon="11.1718983"><ele>417.0</ele><time>2026-05-03T10:18:31.165Z</time></trkpt><trkpt lat="43.2256233" lon="11.17211"><ele>414.5</ele><time>2026-05-03T10:18:32.165Z</time></trkpt><trkpt lat="43.22568" lon="11.1722917"><ele>412.0</ele><time>2026-05-03T10:18:33.164Z</time></trkpt><trkpt lat="43.2257517" lon="11.1724367"><ele>409.5</ele><time>2026-05-03T10:18:34.165Z</time></trkpt><trkpt lat="43.2258467" lon="11.172535"><ele>407.0</ele><time>2026-05-03T10:18:35.165Z</time></trkpt><trkpt lat="43.22597" lon="11.1725967"><ele>406.3333333333333</ele><time>2026-05-03T10:18:36.165Z</time></trkpt><trkpt lat="43.2261183" lon="11.1726433"><ele>405.66666666666663</ele><time>2026-05-03T10:18:37.164Z</time></trkpt><trkpt lat="43.2262817" lon="11.1727"><ele>405.0</ele><time>2026-05-03T10:18:38.165Z</time></trkpt><trkpt lat="43.2264533" lon="11.1727667"><ele>401.33333333333337</ele><time>2026-05-03T10:18:39.165Z</time></trkpt><trkpt lat="43.226625" lon="11.17284"><ele>397.6666666666667</ele><time>2026-05-03T10:18:40.165Z</time></trkpt><trkpt lat="43.2268033" lon="11.1729167"><ele>394.0</ele><time>2026-05-03T10:18:41.165Z</time></trkpt><trkpt lat="43.2269817" lon="11.1729967"><ele>394.0</ele><time>2026-05-03T10:18:42.165Z</time></trkpt><trkpt lat="43.2271667" lon="11.1730767"><ele>394.0</ele><time>2026-05-03T10:18:43.165Z</time></trkpt><trkpt lat="43.227355" lon="11.1731567"><ele>394.0</ele><time>2026-05-03T10:18:44.165Z</time></trkpt><trkpt lat="43.22754" lon="11.173225"><ele>393.33333333333337</ele><time>2026-05-03T10:18:45.164Z</time></trkpt><trkpt lat="43.227715" lon="11.1733017"><ele>392.66666666666663</ele><time>2026-05-03T10:18:46.168Z</time></trkpt><trkpt lat="43.22789" lon="11.17339"><ele>392.0</ele><time>2026-05-03T10:18:47.165Z</time></trkpt><trkpt lat="43.2280683" lon="11.1735"><ele>388.3333333333333</ele><time>2026-05-03T10:18:48.165Z</time></trkpt><trkpt lat="43.2282383" lon="11.17362"><ele>384.66666666666663</ele><time>2026-05-03T10:18:49.164Z</time></trkpt><trkpt lat="43.2284017" lon="11.1737483"><ele>381.0</ele><time>2026-05-03T10:18:50.165Z</time></trkpt><trkpt lat="43.2285567" lon="11.1739017"><ele>382.33333333333337</ele><time>2026-05-03T10:18:51.165Z</time></trkpt><trkpt lat="43.2287" lon="11.1740717"><ele>383.6666666666667</ele><time>2026-05-03T10:18:52.166Z</time></trkpt><trkpt lat="43.2288233" lon="11.1742417"><ele>385.0</ele><time>2026-05-03T10:18:53.165Z</time></trkpt><trkpt lat="43.2289167" lon="11.1743983"><ele>383.75</ele><time>2026-05-03T10:18:54.164Z</time></trkpt><trkpt lat="43.2289817" lon="11.1745567"><ele>382.5</ele><time>2026-05-03T10:18:55.165Z</time></trkpt><trkpt lat="43.2290167" lon="11.17472"><ele>381.25</ele><time>2026-05-03T10:18:56.163Z</time></trkpt><trkpt lat="43.22902" lon="11.1748833"><ele>380.0</ele><time>2026-05-03T10:18:57.163Z</time></trkpt><trkpt lat="43.2289667" lon="11.1750483"><ele>380.0</ele><time>2026-05-03T10:18:58.162Z</time></trkpt><trkpt lat="43.2288733" lon="11.175205"><ele>380.0</ele><time>2026-05-03T10:18:59.166Z</time></trkpt><trkpt lat="43.22876" lon="11.1753433"><ele>380.0</ele><time>2026-05-03T10:19:00.164Z</time></trkpt><trkpt lat="43.2286317" lon="11.17547"><ele>380.0</ele><time>2026-05-03T10:19:01.165Z</time></trkpt><trkpt lat="43.2284917" lon="11.1755983"><ele>380.0</ele><time>2026-05-03T10:19:02.165Z</time></trkpt><trkpt lat="43.228355" lon="11.1757183"><ele>380.0</ele><time>2026-05-03T10:19:03.165Z</time></trkpt><trkpt lat="43.228235" lon="11.1758333"><ele>379.25</ele><time>2026-05-03T10:19:04.165Z</time></trkpt><trkpt lat="43.2281317" lon="11.1759533"><ele>378.5</ele><time>2026-05-03T10:19:05.168Z</time></trkpt><trkpt lat="43.22806" lon="11.1760917"><ele>377.75</ele><time>2026-05-03T10:19:06.161Z</time></trkpt><trkpt lat="43.2280167" lon="11.1762483"><ele>377.0</ele><time>2026-05-03T10:19:07.162Z</time></trkpt><trkpt lat="43.22802" lon="11.17641"><ele>376.5</ele><time>2026-05-03T10:19:08.165Z</time></trkpt><trkpt lat="43.228075" lon="11.1765683"><ele>376.0</ele><time>2026-05-03T10:19:09.165Z</time></trkpt><trkpt lat="43.2281733" lon="11.1766983"><ele>375.5</ele><time>2026-05-03T10:19:10.165Z</time></trkpt><trkpt lat="43.2283" lon="11.1767867"><ele>375.0</ele><time>2026-05-03T10:19:11.165Z</time></trkpt><trkpt lat="43.2284483" lon="11.1768233"><ele>372.0</ele><time>2026-05-03T10:19:12.166Z</time></trkpt><trkpt lat="43.228605" lon="11.1768133"><ele>369.0</ele><time>2026-05-03T10:19:13.165Z</time></trkpt><trkpt lat="43.2287717" lon="11.17678"><ele>366.0</ele><time>2026-05-03T10:19:14.164Z</time></trkpt><trkpt lat="43.228945" lon="11.1767367"><ele>363.3333333333333</ele><time>2026-05-03T10:19:15.165Z</time></trkpt><trkpt lat="43.22912" lon="11.176695"><ele>360.66666666666663</ele><time>2026-05-03T10:19:16.165Z</time></trkpt><trkpt lat="43.2292933" lon="11.17666"><ele>358.0</ele><time>2026-05-03T10:19:17.165Z</time></trkpt><trkpt lat="43.2294633" lon="11.17663"><ele>358.0</ele><time>2026-05-03T10:19:18.165Z</time></trkpt><trkpt lat="43.2296283" lon="11.1765983"><ele>358.0</ele><time>2026-05-03T10:19:19.165Z</time></trkpt><trkpt lat="43.22979" lon="11.176565"><ele>358.0</ele><time>2026-05-03T10:19:20.165Z</time></trkpt><trkpt lat="43.2299467" lon="11.17651"><ele>358.66666666666663</ele><time>2026-05-03T10:19:21.162Z</time></trkpt><trkpt lat="43.2300933" lon="11.17642"><ele>359.3333333333333</ele><time>2026-05-03T10:19:22.165Z</time></trkpt><trkpt lat="43.2302233" lon="11.1762817"><ele>360.0</ele><time>2026-05-03T10:19:23.163Z</time></trkpt><trkpt lat="43.23035" lon="11.1760933"><ele>360.0</ele><time>2026-05-03T10:19:24.165Z</time></trkpt><trkpt lat="43.2304667" lon="11.1758617"><ele>360.0</ele><time>2026-05-03T10:19:25.165Z</time></trkpt><trkpt lat="43.2305833" lon="11.1756217"><ele>360.0</ele><time>2026-05-03T10:19:26.162Z</time></trkpt><trkpt lat="43.2306983" lon="11.17539"><ele>356.0</ele><time>2026-05-03T10:19:27.162Z</time></trkpt><trkpt lat="43.2308" lon="11.17517"><ele>352.0</ele><time>2026-05-03T10:19:28.162Z</time></trkpt><trkpt lat="43.2308967" lon="11.174975"><ele>348.0</ele><time>2026-05-03T10:19:29.161Z</time></trkpt><trkpt lat="43.2309783" lon="11.1747817"><ele>347.6666666666667</ele><time>2026-05-03T10:19:30.165Z</time></trkpt><trkpt lat="43.23102" lon="11.1746"><ele>347.33333333333337</ele><time>2026-05-03T10:19:31.165Z</time></trkpt><trkpt lat="43.2310283" lon="11.17439"><ele>347.0</ele><time>2026-05-03T10:19:32.165Z</time></trkpt><trkpt lat="43.2310433" lon="11.1741517"><ele>346.33333333333337</ele><time>2026-05-03T10:19:33.161Z</time></trkpt><trkpt lat="43.231065" lon="11.1738867"><ele>345.6666666666667</ele><time>2026-05-03T10:19:34.165Z</time></trkpt><trkpt lat="43.2310883" lon="11.1735933"><ele>345.0</ele><time>2026-05-03T10:19:35.165Z</time></trkpt><trkpt lat="43.2311133" lon="11.1733017"><ele>344.6666666666667</ele><time>2026-05-03T10:19:36.165Z</time></trkpt><trkpt lat="43.231145" lon="11.1730417"><ele>344.33333333333337</ele><time>2026-05-03T10:19:37.165Z</time></trkpt><trkpt lat="43.2311883" lon="11.172825"><ele>344.0</ele><time>2026-05-03T10:19:38.163Z</time></trkpt><trkpt lat="43.2312233" lon="11.1726383"><ele>344.0</ele><time>2026-05-03T10:19:39.166Z</time></trkpt><trkpt lat="43.23125" lon="11.17249"><ele>344.0</ele><time>2026-05-03T10:19:40.165Z</time></trkpt><trkpt lat="43.23129" lon="11.1723783"><ele>344.0</ele><time>2026-05-03T10:19:41.163Z</time></trkpt><trkpt lat="43.2313467" lon="11.1722983"><ele>344.0</ele><time>2026-05-03T10:19:42.163Z</time></trkpt><trkpt lat="43.2314117" lon="11.1722733"><ele>344.0</ele><time>2026-05-03T10:19:43.165Z</time></trkpt><trkpt lat="43.2314717" lon="11.17224"><ele>344.0</ele><time>2026-05-03T10:19:44.165Z</time></trkpt><trkpt lat="43.2315617" lon="11.1723917"><ele>339.33333333333337</ele><time>2026-05-03T10:19:46.162Z</time></trkpt><trkpt lat="43.2315683" lon="11.1726133"><ele>334.6666666666667</ele><time>2026-05-03T10:19:47.163Z</time></trkpt><trkpt lat="43.2315583" lon="11.1729817"><ele>330.0</ele><time>2026-05-03T10:19:48.163Z</time></trkpt><trkpt lat="43.2316267" lon="11.1733283"><ele>329.3333333333333</ele><time>2026-05-03T10:19:49.163Z</time></trkpt><trkpt lat="43.2316517" lon="11.1736133"><ele>328.66666666666663</ele><time>2026-05-03T10:19:50.163Z</time></trkpt><trkpt lat="43.2317" lon="11.173865"><ele>328.0</ele><time>2026-05-03T10:19:51.163Z</time></trkpt><trkpt lat="43.2317367" lon="11.1740767"><ele>327.66666666666663</ele><time>2026-05-03T10:19:52.163Z</time></trkpt><trkpt lat="43.2318" lon="11.1742617"><ele>327.3333333333333</ele><time>2026-05-03T10:19:53.162Z</time></trkpt><trkpt lat="43.2319017" lon="11.1744217"><ele>327.0</ele><time>2026-05-03T10:19:54.165Z</time></trkpt><trkpt lat="43.23203" lon="11.1745567"><ele>327.0</ele><time>2026-05-03T10:19:55.162Z</time></trkpt><trkpt lat="43.2321683" lon="11.1746683"><ele>327.0</ele><time>2026-05-03T10:19:56.162Z</time></trkpt><trkpt lat="43.2323033" lon="11.1747717"><ele>327.0</ele><time>2026-05-03T10:19:57.163Z</time></trkpt><trkpt lat="43.2324283" lon="11.1748817"><ele>323.6666666666667</ele><time>2026-05-03T10:19:58.163Z</time></trkpt><trkpt lat="43.2325433" lon="11.1750033"><ele>320.33333333333337</ele><time>2026-05-03T10:19:59.164Z</time></trkpt><trkpt lat="43.23264" lon="11.17516"><ele>317.0</ele><time>2026-05-03T10:20:00.163Z</time></trkpt><trkpt lat="43.23272" lon="11.1753667"><ele>317.0</ele><time>2026-05-03T10:20:01.162Z</time></trkpt><trkpt lat="43.2327783" lon="11.17562"><ele>317.0</ele><time>2026-05-03T10:20:02.162Z</time></trkpt><trkpt lat="43.232815" lon="11.1759"><ele>317.0</ele><time>2026-05-03T10:20:03.165Z</time></trkpt><trkpt lat="43.232875" lon="11.1761733"><ele>316.6666666666667</ele><time>2026-05-03T10:20:04.165Z</time></trkpt><trkpt lat="43.232955" lon="11.176415"><ele>316.3333333333333</ele><time>2026-05-03T10:20:05.166Z</time></trkpt><trkpt lat="43.2330283" lon="11.1766283"><ele>316.0</ele><time>2026-05-03T10:20:06.165Z</time></trkpt><trkpt lat="43.2330767" lon="11.1768283"><ele>315.66666666666663</ele><time>2026-05-03T10:20:07.165Z</time></trkpt><trkpt lat="43.2330917" lon="11.1770317"><ele>315.3333333333333</ele><time>2026-05-03T10:20:08.165Z</time></trkpt><trkpt lat="43.23307" lon="11.1772533"><ele>315.0</ele><time>2026-05-03T10:20:09.165Z</time></trkpt><trkpt lat="43.2330017" lon="11.177495"><ele>314.3333333333333</ele><time>2026-05-03T10:20:10.165Z</time></trkpt><trkpt lat="43.2329083" lon="11.1777533"><ele>313.66666666666663</ele><time>2026-05-03T10:20:11.166Z</time></trkpt><trkpt lat="43.2328067" lon="11.1780267"><ele>313.0</ele><time>2026-05-03T10:20:12.165Z</time></trkpt><trkpt lat="43.2327083" lon="11.1782933"><ele>312.0</ele><time>2026-05-03T10:20:13.165Z</time></trkpt><trkpt lat="43.2326167" lon="11.17855"><ele>311.0</ele><time>2026-05-03T10:20:14.162Z</time></trkpt><trkpt lat="43.2325267" lon="11.1788"><ele>310.0</ele><time>2026-05-03T10:20:15.162Z</time></trkpt><trkpt lat="43.2324383" lon="11.17904"><ele>309.0</ele><time>2026-05-03T10:20:16.166Z</time></trkpt><trkpt lat="43.232355" lon="11.1792783"><ele>308.0</ele><time>2026-05-03T10:20:17.163Z</time></trkpt><trkpt lat="43.2322683" lon="11.1795167"><ele>307.0</ele><time>2026-05-03T10:20:18.165Z</time></trkpt><trkpt lat="43.2321783" lon="11.1797617"><ele>304.3333333333333</ele><time>2026-05-03T10:20:19.165Z</time></trkpt><trkpt lat="43.2320883" lon="11.180015"><ele>301.6666666666667</ele><time>2026-05-03T10:20:20.163Z</time></trkpt><trkpt lat="43.232" lon="11.180275"><ele>299.0</ele><time>2026-05-03T10:20:21.163Z</time></trkpt><trkpt lat="43.23191" lon="11.18054"><ele>298.33333333333337</ele><time>2026-05-03T10:20:22.164Z</time></trkpt><trkpt lat="43.23182" lon="11.1808067"><ele>297.6666666666667</ele><time>2026-05-03T10:20:23.167Z</time></trkpt><trkpt lat="43.23173" lon="11.181075"><ele>297.0</ele><time>2026-05-03T10:20:24.165Z</time></trkpt><trkpt lat="43.2316383" lon="11.1813417"><ele>297.0</ele><time>2026-05-03T10:20:25.165Z</time></trkpt><trkpt lat="43.2315433" lon="11.1816"><ele>297.0</ele><time>2026-05-03T10:20:26.164Z</time></trkpt><trkpt lat="43.2314533" lon="11.1818467"><ele>297.0</ele><time>2026-05-03T10:20:27.163Z</time></trkpt><trkpt lat="43.231365" lon="11.1820867"><ele>297.0</ele><time>2026-05-03T10:20:28.162Z</time></trkpt><trkpt lat="43.2312817" lon="11.1823233"><ele>297.0</ele><time>2026-05-03T10:20:29.164Z</time></trkpt><trkpt lat="43.2312033" lon="11.1825583"><ele>297.0</ele><time>2026-05-03T10:20:30.163Z</time></trkpt><trkpt lat="43.2311333" lon="11.1827883"><ele>295.3333333333333</ele><time>2026-05-03T10:20:31.162Z</time></trkpt><trkpt lat="43.2310717" lon="11.1830167"><ele>293.66666666666663</ele><time>2026-05-03T10:20:32.162Z</time></trkpt><trkpt lat="43.23102" lon="11.18324"><ele>292.0</ele><time>2026-05-03T10:20:33.165Z</time></trkpt><trkpt lat="43.2309883" lon="11.1834717"><ele>292.0</ele><time>2026-05-03T10:20:34.164Z</time></trkpt><trkpt lat="43.23099" lon="11.1837067"><ele>292.0</ele><time>2026-05-03T10:20:35.162Z</time></trkpt><trkpt lat="43.2310067" lon="11.1839367"><ele>292.0</ele><time>2026-05-03T10:20:36.163Z</time></trkpt><trkpt lat="43.2310033" lon="11.1841633"><ele>292.0</ele><time>2026-05-03T10:20:37.163Z</time></trkpt><trkpt lat="43.2309783" lon="11.1843917"><ele>292.0</ele><time>2026-05-03T10:20:38.162Z</time></trkpt><trkpt lat="43.2309167" lon="11.18461"><ele>292.0</ele><time>2026-05-03T10:20:39.162Z</time></trkpt><trkpt lat="43.2308417" lon="11.1848167"><ele>290.3333333333333</ele><time>2026-05-03T10:20:40.164Z</time></trkpt><trkpt lat="43.230785" lon="11.1850317"><ele>288.6666666666667</ele><time>2026-05-03T10:20:41.164Z</time></trkpt><trkpt lat="43.2307633" lon="11.1852633"><ele>287.0</ele><time>2026-05-03T10:20:42.164Z</time></trkpt><trkpt lat="43.2307767" lon="11.1855"><ele>284.6666666666667</ele><time>2026-05-03T10:20:43.165Z</time></trkpt><trkpt lat="43.230825" lon="11.1857367"><ele>282.3333333333333</ele><time>2026-05-03T10:20:44.164Z</time></trkpt><trkpt lat="43.230895" lon="11.18596"><ele>280.0</ele><time>2026-05-03T10:20:45.165Z</time></trkpt><trkpt lat="43.2309583" lon="11.18617"><ele>280.0</ele><time>2026-05-03T10:20:46.164Z</time></trkpt><trkpt lat="43.2309883" lon="11.1863733"><ele>280.0</ele><time>2026-05-03T10:20:47.162Z</time></trkpt><trkpt lat="43.2309917" lon="11.1865833"><ele>280.0</ele><time>2026-05-03T10:20:48.164Z</time></trkpt><trkpt lat="43.230985" lon="11.1867967"><ele>279.75</ele><time>2026-05-03T10:20:49.164Z</time></trkpt><trkpt lat="43.2309467" lon="11.1870017"><ele>279.5</ele><time>2026-05-03T10:20:50.163Z</time></trkpt><trkpt lat="43.230925" lon="11.1871817"><ele>279.25</ele><time>2026-05-03T10:20:51.164Z</time></trkpt><trkpt lat="43.2309517" lon="11.1873517"><ele>279.0</ele><time>2026-05-03T10:20:52.164Z</time></trkpt><trkpt lat="43.2310317" lon="11.18752"><ele>279.0</ele><time>2026-05-03T10:20:53.165Z</time></trkpt><trkpt lat="43.2311533" lon="11.1876867"><ele>279.0</ele><time>2026-05-03T10:20:54.165Z</time></trkpt><trkpt lat="43.2312667" lon="11.18787"><ele>279.0</ele><time>2026-05-03T10:20:55.164Z</time></trkpt><trkpt lat="43.231365" lon="11.18807"><ele>280.3333333333333</ele><time>2026-05-03T10:20:56.162Z</time></trkpt><trkpt lat="43.2314533" lon="11.1882783"><ele>281.66666666666663</ele><time>2026-05-03T10:20:57.163Z</time></trkpt><trkpt lat="43.231545" lon="11.18848"><ele>283.0</ele><time>2026-05-03T10:20:58.163Z</time></trkpt><trkpt lat="43.231665" lon="11.1886617"><ele>283.3333333333333</ele><time>2026-05-03T10:20:59.163Z</time></trkpt><trkpt lat="43.2318233" lon="11.188825"><ele>283.6666666666667</ele><time>2026-05-03T10:21:00.163Z</time></trkpt><trkpt lat="43.2319883" lon="11.1889817"><ele>284.0</ele><time>2026-05-03T10:21:01.163Z</time></trkpt><trkpt lat="43.2321467" lon="11.189145"><ele>284.0</ele><time>2026-05-03T10:21:02.163Z</time></trkpt><trkpt lat="43.23229" lon="11.18931"><ele>284.0</ele><time>2026-05-03T10:21:03.164Z</time></trkpt><trkpt lat="43.2325183" lon="11.1897133"><ele>283.0</ele><time>2026-05-03T10:21:05.164Z</time></trkpt><trkpt lat="43.2326083" lon="11.1899433"><ele>282.0</ele><time>2026-05-03T10:21:06.164Z</time></trkpt><trkpt lat="43.232675" lon="11.1901767"><ele>281.0</ele><time>2026-05-03T10:21:07.164Z</time></trkpt><trkpt lat="43.232725" lon="11.19041"><ele>281.0</ele><time>2026-05-03T10:21:08.164Z</time></trkpt><trkpt lat="43.2327767" lon="11.1906283"><ele>281.0</ele><time>2026-05-03T10:21:09.164Z</time></trkpt><trkpt lat="43.232835" lon="11.1908317"><ele>281.0</ele><time>2026-05-03T10:21:10.164Z</time></trkpt><trkpt lat="43.2328933" lon="11.19102"><ele>281.75</ele><time>2026-05-03T10:21:11.164Z</time></trkpt><trkpt lat="43.2329633" lon="11.1911883"><ele>282.5</ele><time>2026-05-03T10:21:12.164Z</time></trkpt><trkpt lat="43.2330467" lon="11.1913267"><ele>283.25</ele><time>2026-05-03T10:21:13.168Z</time></trkpt><trkpt lat="43.23315" lon="11.1914233"><ele>284.0</ele><time>2026-05-03T10:21:14.162Z</time></trkpt><trkpt lat="43.2332683" lon="11.1914717"><ele>284.5</ele><time>2026-05-03T10:21:15.165Z</time></trkpt><trkpt lat="43.2333967" lon="11.191475"><ele>285.0</ele><time>2026-05-03T10:21:16.164Z</time></trkpt><trkpt lat="43.2335367" lon="11.1914283"><ele>285.5</ele><time>2026-05-03T10:21:17.167Z</time></trkpt><trkpt lat="43.2336833" lon="11.1913467"><ele>286.0</ele><time>2026-05-03T10:21:18.165Z</time></trkpt><trkpt lat="43.2338333" lon="11.1912483"><ele>282.66666666666663</ele><time>2026-05-03T10:21:19.162Z</time></trkpt><trkpt lat="43.2339883" lon="11.19112"><ele>279.3333333333333</ele><time>2026-05-03T10:21:20.162Z</time></trkpt><trkpt lat="43.2341433" lon="11.1909933"><ele>276.0</ele><time>2026-05-03T10:21:21.162Z</time></trkpt><trkpt lat="43.234295" lon="11.1908683"><ele>276.0</ele><time>2026-05-03T10:21:22.161Z</time></trkpt><trkpt lat="43.2344383" lon="11.19075"><ele>276.0</ele><time>2026-05-03T10:21:23.162Z</time></trkpt><trkpt lat="43.23457" lon="11.1906683"><ele>276.0</ele><time>2026-05-03T10:21:24.161Z</time></trkpt><trkpt lat="43.2346967" lon="11.190635"><ele>276.0</ele><time>2026-05-03T10:21:25.161Z</time></trkpt><trkpt lat="43.2348167" lon="11.19067"><ele>276.75</ele><time>2026-05-03T10:21:26.163Z</time></trkpt><trkpt lat="43.2349317" lon="11.1907617"><ele>277.5</ele><time>2026-05-03T10:21:27.162Z</time></trkpt><trkpt lat="43.23505" lon="11.1908967"><ele>278.25</ele><time>2026-05-03T10:21:28.162Z</time></trkpt><trkpt lat="43.2351583" lon="11.191045"><ele>279.0</ele><time>2026-05-03T10:21:29.164Z</time></trkpt><trkpt lat="43.23526" lon="11.1912017"><ele>279.0</ele><time>2026-05-03T10:21:30.161Z</time></trkpt><trkpt lat="43.235365" lon="11.1913483"><ele>279.0</ele><time>2026-05-03T10:21:31.162Z</time></trkpt><trkpt lat="43.2354883" lon="11.1914683"><ele>279.0</ele><time>2026-05-03T10:21:32.162Z</time></trkpt><trkpt lat="43.2356283" lon="11.1915533"><ele>277.75</ele><time>2026-05-03T10:21:33.162Z</time></trkpt><trkpt lat="43.235775" lon="11.1916167"><ele>276.5</ele><time>2026-05-03T10:21:34.162Z</time></trkpt><trkpt lat="43.2359233" lon="11.1916483"><ele>275.25</ele><time>2026-05-03T10:21:35.164Z</time></trkpt><trkpt lat="43.2360633" lon="11.1916667"><ele>274.0</ele><time>2026-05-03T10:21:36.166Z</time></trkpt><trkpt lat="43.23619" lon="11.19168"><ele>274.0</ele><time>2026-05-03T10:21:37.164Z</time></trkpt><trkpt lat="43.2363067" lon="11.1916917"><ele>274.0</ele><time>2026-05-03T10:21:38.164Z</time></trkpt><trkpt lat="43.2364217" lon="11.19171"><ele>274.0</ele><time>2026-05-03T10:21:39.165Z</time></trkpt><trkpt lat="43.236535" lon="11.1917433"><ele>274.0</ele><time>2026-05-03T10:21:40.165Z</time></trkpt><trkpt lat="43.2366483" lon="11.1917867"><ele>275.5</ele><time>2026-05-03T10:21:41.165Z</time></trkpt><trkpt lat="43.2367633" lon="11.1918333"><ele>277.0</ele><time>2026-05-03T10:21:42.164Z</time></trkpt><trkpt lat="43.2368717" lon="11.191885"><ele>278.5</ele><time>2026-05-03T10:21:43.164Z</time></trkpt><trkpt lat="43.2369717" lon="11.191945"><ele>280.0</ele><time>2026-05-03T10:21:44.164Z</time></trkpt><trkpt lat="43.2370667" lon="11.1920217"><ele>280.0</ele><time>2026-05-03T10:21:45.164Z</time></trkpt><trkpt lat="43.2371567" lon="11.1921"><ele>280.0</ele><time>2026-05-03T10:21:46.166Z</time></trkpt><trkpt lat="43.2372433" lon="11.1921767"><ele>280.0</ele><time>2026-05-03T10:21:47.165Z</time></trkpt><trkpt lat="43.23733" lon="11.192245"><ele>280.0</ele><time>2026-05-03T10:21:48.165Z</time></trkpt><trkpt lat="43.2374083" lon="11.1923233"><ele>280.0</ele><time>2026-05-03T10:21:49.166Z</time></trkpt><trkpt lat="43.23747" lon="11.1924217"><ele>278.8</ele><time>2026-05-03T10:21:50.167Z</time></trkpt><trkpt lat="43.237515" lon="11.1925317"><ele>277.6</ele><time>2026-05-03T10:21:51.164Z</time></trkpt><trkpt lat="43.23755" lon="11.1926417"><ele>276.4</ele><time>2026-05-03T10:21:52.167Z</time></trkpt><trkpt lat="43.2375867" lon="11.1927567"><ele>275.2</ele><time>2026-05-03T10:21:53.163Z</time></trkpt><trkpt lat="43.2376217" lon="11.1928783"><ele>274.0</ele><time>2026-05-03T10:21:54.165Z</time></trkpt><trkpt lat="43.23766" lon="11.1929867"><ele>274.0</ele><time>2026-05-03T10:21:55.162Z</time></trkpt><trkpt lat="43.2377083" lon="11.19307"><ele>274.0</ele><time>2026-05-03T10:21:56.161Z</time></trkpt><trkpt lat="43.23777" lon="11.1931217"><ele>274.0</ele><time>2026-05-03T10:21:57.162Z</time></trkpt><trkpt lat="43.2378383" lon="11.1931383"><ele>274.0</ele><time>2026-05-03T10:21:58.162Z</time></trkpt><trkpt lat="43.2379017" lon="11.1931233"><ele>274.0</ele><time>2026-05-03T10:21:59.165Z</time></trkpt><trkpt lat="43.2379717" lon="11.19307"><ele>274.0</ele><time>2026-05-03T10:22:00.164Z</time></trkpt><trkpt lat="43.2380383" lon="11.1929683"><ele>274.0</ele><time>2026-05-03T10:22:01.165Z</time></trkpt><trkpt lat="43.2381" lon="11.1928683"><ele>274.0</ele><time>2026-05-03T10:22:02.165Z</time></trkpt><trkpt lat="43.2381583" lon="11.1927567"><ele>274.0</ele><time>2026-05-03T10:22:03.164Z</time></trkpt><trkpt lat="43.2382183" lon="11.1926367"><ele>274.0</ele><time>2026-05-03T10:22:04.166Z</time></trkpt><trkpt lat="43.2382933" lon="11.1925283"><ele>274.0</ele><time>2026-05-03T10:22:05.163Z</time></trkpt><trkpt lat="43.2383683" lon="11.1924333"><ele>272.8</ele><time>2026-05-03T10:22:06.165Z</time></trkpt><trkpt lat="43.23845" lon="11.1923533"><ele>271.59999999999997</ele><time>2026-05-03T10:22:07.165Z</time></trkpt><trkpt lat="43.23854" lon="11.1922933"><ele>270.4</ele><time>2026-05-03T10:22:08.165Z</time></trkpt><trkpt lat="43.2386383" lon="11.192255"><ele>269.2</ele><time>2026-05-03T10:22:09.166Z</time></trkpt><trkpt lat="43.2387367" lon="11.1922467"><ele>268.0</ele><time>2026-05-03T10:22:10.164Z</time></trkpt><trkpt lat="43.2388283" lon="11.1922667"><ele>268.2</ele><time>2026-05-03T10:22:11.166Z</time></trkpt><trkpt lat="43.2389117" lon="11.1923117"><ele>268.4</ele><time>2026-05-03T10:22:12.164Z</time></trkpt><trkpt lat="43.2389867" lon="11.1923817"><ele>268.59999999999997</ele><time>2026-05-03T10:22:13.162Z</time></trkpt><trkpt lat="43.239045" lon="11.19248"><ele>268.8</ele><time>2026-05-03T10:22:14.165Z</time></trkpt><trkpt lat="43.2390883" lon="11.1925933"><ele>269.0</ele><time>2026-05-03T10:22:15.166Z</time></trkpt><trkpt lat="43.239125" lon="11.1927067"><ele>269.0</ele><time>2026-05-03T10:22:16.166Z</time></trkpt><trkpt lat="43.2391633" lon="11.1928117"><ele>269.0</ele><time>2026-05-03T10:22:17.165Z</time></trkpt><trkpt lat="43.2392017" lon="11.192915"><ele>269.0</ele><time>2026-05-03T10:22:18.165Z</time></trkpt><trkpt lat="43.23924" lon="11.193015"><ele>269.0</ele><time>2026-05-03T10:22:19.162Z</time></trkpt><trkpt lat="43.239275" lon="11.1931133"><ele>269.0</ele><time>2026-05-03T10:22:20.162Z</time></trkpt><trkpt lat="43.23931" lon="11.1932117"><ele>269.0</ele><time>2026-05-03T10:22:21.165Z</time></trkpt><trkpt lat="43.239345" lon="11.1933117"><ele>267.4</ele><time>2026-05-03T10:22:22.162Z</time></trkpt><trkpt lat="43.2393783" lon="11.1934167"><ele>265.79999999999995</ele><time>2026-05-03T10:22:23.162Z</time></trkpt><trkpt lat="43.2394117" lon="11.19353"><ele>264.20000000000005</ele><time>2026-05-03T10:22:24.165Z</time></trkpt><trkpt lat="43.2394483" lon="11.19366"><ele>262.6</ele><time>2026-05-03T10:22:25.165Z</time></trkpt><trkpt lat="43.23949" lon="11.1938083"><ele>261.0</ele><time>2026-05-03T10:22:26.163Z</time></trkpt><trkpt lat="43.239535" lon="11.19397"><ele>261.75</ele><time>2026-05-03T10:22:27.164Z</time></trkpt><trkpt lat="43.2395867" lon="11.194145"><ele>262.5</ele><time>2026-05-03T10:22:28.165Z</time></trkpt><trkpt lat="43.23964" lon="11.1943333"><ele>263.25</ele><time>2026-05-03T10:22:29.165Z</time></trkpt><trkpt lat="43.2396967" lon="11.1945317"><ele>264.0</ele><time>2026-05-03T10:22:30.164Z</time></trkpt><trkpt lat="43.2397583" lon="11.19474"><ele>261.0</ele><time>2026-05-03T10:22:31.167Z</time></trkpt><trkpt lat="43.23982" lon="11.1949467"><ele>258.0</ele><time>2026-05-03T10:22:32.165Z</time></trkpt><trkpt lat="43.2398783" lon="11.1951483"><ele>255.0</ele><time>2026-05-03T10:22:33.165Z</time></trkpt><trkpt lat="43.2399267" lon="11.1953417"><ele>255.0</ele><time>2026-05-03T10:22:34.165Z</time></trkpt><trkpt lat="43.2399717" lon="11.1955267"><ele>255.0</ele><time>2026-05-03T10:22:35.165Z</time></trkpt><trkpt lat="43.2400133" lon="11.1957083"><ele>255.0</ele><time>2026-05-03T10:22:36.166Z</time></trkpt><trkpt lat="43.2400583" lon="11.1958917"><ele>255.0</ele><time>2026-05-03T10:22:37.163Z</time></trkpt><trkpt lat="43.2401033" lon="11.1960883"><ele>254.0</ele><time>2026-05-03T10:22:38.163Z</time></trkpt><trkpt lat="43.2401517" lon="11.1962983"><ele>253.0</ele><time>2026-05-03T10:22:39.162Z</time></trkpt><trkpt lat="43.2401933" lon="11.1965167"><ele>252.0</ele><time>2026-05-03T10:22:40.163Z</time></trkpt><trkpt lat="43.24023" lon="11.196755"><ele>250.66666666666669</ele><time>2026-05-03T10:22:41.164Z</time></trkpt><trkpt lat="43.2402633" lon="11.1970167"><ele>249.33333333333334</ele><time>2026-05-03T10:22:42.162Z</time></trkpt><trkpt lat="43.240295" lon="11.1973033"><ele>248.0</ele><time>2026-05-03T10:22:43.165Z</time></trkpt><trkpt lat="43.24032" lon="11.19761"><ele>247.0</ele><time>2026-05-03T10:22:44.162Z</time></trkpt><trkpt lat="43.2403483" lon="11.1979333"><ele>246.0</ele><time>2026-05-03T10:22:45.162Z</time></trkpt><trkpt lat="43.2403767" lon="11.1982683"><ele>245.5</ele><time>2026-05-03T10:22:46.163Z</time></trkpt><trkpt lat="43.2404067" lon="11.1986033"><ele>245.0</ele><time>2026-05-03T10:22:47.163Z</time></trkpt><trkpt lat="43.24044" lon="11.1989267"><ele>244.0</ele><time>2026-05-03T10:22:48.162Z</time></trkpt><trkpt lat="43.2404767" lon="11.19924"><ele>243.0</ele><time>2026-05-03T10:22:49.162Z</time></trkpt><trkpt lat="43.24051" lon="11.19954"><ele>242.66666666666669</ele><time>2026-05-03T10:22:50.162Z</time></trkpt><trkpt lat="43.2405433" lon="11.1998367"><ele>242.33333333333334</ele><time>2026-05-03T10:22:51.163Z</time></trkpt><trkpt lat="43.2405867" lon="11.2001283"><ele>242.0</ele><time>2026-05-03T10:22:52.164Z</time></trkpt><trkpt lat="43.2406467" lon="11.2004217"><ele>242.5</ele><time>2026-05-03T10:22:53.163Z</time></trkpt><trkpt lat="43.2407267" lon="11.2007183"><ele>243.0</ele><time>2026-05-03T10:22:54.165Z</time></trkpt><trkpt lat="43.2408233" lon="11.20101"><ele>243.0</ele><time>2026-05-03T10:22:55.163Z</time></trkpt><trkpt lat="43.2409217" lon="11.2012833"><ele>243.0</ele><time>2026-05-03T10:22:56.162Z</time></trkpt><trkpt lat="43.2410233" lon="11.201545"><ele>243.0</ele><time>2026-05-03T10:22:57.163Z</time></trkpt><trkpt lat="43.2411283" lon="11.2017917"><ele>243.0</ele><time>2026-05-03T10:22:58.163Z</time></trkpt><trkpt lat="43.2412433" lon="11.2020233"><ele>243.0</ele><time>2026-05-03T10:22:59.165Z</time></trkpt><trkpt lat="43.2413867" lon="11.202245"><ele>243.0</ele><time>2026-05-03T10:23:00.165Z</time></trkpt><trkpt lat="43.2415667" lon="11.2024633"><ele>243.0</ele><time>2026-05-03T10:23:01.165Z</time></trkpt><trkpt lat="43.2417767" lon="11.2026783"><ele>243.0</ele><time>2026-05-03T10:23:02.165Z</time></trkpt><trkpt lat="43.24198" lon="11.2028933"><ele>243.0</ele><time>2026-05-03T10:23:03.165Z</time></trkpt><trkpt lat="43.242185" lon="11.2030867"><ele>243.0</ele><time>2026-05-03T10:23:04.165Z</time></trkpt><trkpt lat="43.2423817" lon="11.203275"><ele>241.5</ele><time>2026-05-03T10:23:05.165Z</time></trkpt><trkpt lat="43.2425833" lon="11.203445"><ele>240.0</ele><time>2026-05-03T10:23:06.165Z</time></trkpt><trkpt lat="43.2427883" lon="11.2035933"><ele>240.0</ele><time>2026-05-03T10:23:07.165Z</time></trkpt><trkpt lat="43.24298" lon="11.2037333"><ele>240.0</ele><time>2026-05-03T10:23:08.165Z</time></trkpt><trkpt lat="43.2431633" lon="11.2038733"><ele>240.0</ele><time>2026-05-03T10:23:09.165Z</time></trkpt><trkpt lat="43.2433217" lon="11.2040233"><ele>240.66666666666669</ele><time>2026-05-03T10:23:10.166Z</time></trkpt><trkpt lat="43.24345" lon="11.2041917"><ele>241.33333333333334</ele><time>2026-05-03T10:23:11.165Z</time></trkpt><trkpt lat="43.2435467" lon="11.2043817"><ele>242.0</ele><time>2026-05-03T10:23:12.165Z</time></trkpt><trkpt lat="43.2436267" lon="11.2045917"><ele>242.0</ele><time>2026-05-03T10:23:13.165Z</time></trkpt><trkpt lat="43.2437083" lon="11.204815"><ele>242.0</ele><time>2026-05-03T10:23:14.165Z</time></trkpt><trkpt lat="43.2438217" lon="11.2050383"><ele>242.0</ele><time>2026-05-03T10:23:15.165Z</time></trkpt><trkpt lat="43.2439683" lon="11.2052667"><ele>239.5</ele><time>2026-05-03T10:23:16.167Z</time></trkpt><trkpt lat="43.2441417" lon="11.2055083"><ele>237.0</ele><time>2026-05-03T10:23:17.165Z</time></trkpt><trkpt lat="43.2443283" lon="11.205755"><ele>237.0</ele><time>2026-05-03T10:23:18.165Z</time></trkpt><trkpt lat="43.244515" lon="11.205995"><ele>237.0</ele><time>2026-05-03T10:23:19.165Z</time></trkpt><trkpt lat="43.2446833" lon="11.2062367"><ele>237.0</ele><time>2026-05-03T10:23:20.165Z</time></trkpt><trkpt lat="43.2448433" lon="11.2064867"><ele>237.0</ele><time>2026-05-03T10:23:21.164Z</time></trkpt><trkpt lat="43.244995" lon="11.20678"><ele>237.0</ele><time>2026-05-03T10:23:22.164Z</time></trkpt><trkpt lat="43.24513" lon="11.2071183"><ele>237.0</ele><time>2026-05-03T10:23:23.165Z</time></trkpt><trkpt lat="43.2452783" lon="11.207475"><ele>235.0</ele><time>2026-05-03T10:23:24.164Z</time></trkpt><trkpt lat="43.2454317" lon="11.20783"><ele>233.0</ele><time>2026-05-03T10:23:25.164Z</time></trkpt><trkpt lat="43.245585" lon="11.2081583"><ele>229.5</ele><time>2026-05-03T10:23:26.161Z</time></trkpt><trkpt lat="43.2457383" lon="11.208455"><ele>226.0</ele><time>2026-05-03T10:23:27.162Z</time></trkpt><trkpt lat="43.2458933" lon="11.2087233"><ele>226.0</ele><time>2026-05-03T10:23:28.161Z</time></trkpt><trkpt lat="43.2460467" lon="11.2089733"><ele>226.0</ele><time>2026-05-03T10:23:29.162Z</time></trkpt><trkpt lat="43.2461983" lon="11.2092067"><ele>226.33333333333331</ele><time>2026-05-03T10:23:30.161Z</time></trkpt><trkpt lat="43.2463533" lon="11.2094183"><ele>226.66666666666669</ele><time>2026-05-03T10:23:31.163Z</time></trkpt><trkpt lat="43.2464967" lon="11.2096217"><ele>227.0</ele><time>2026-05-03T10:23:32.162Z</time></trkpt><trkpt lat="43.246625" lon="11.2098317"><ele>226.33333333333334</ele><time>2026-05-03T10:23:33.162Z</time></trkpt><trkpt lat="43.246725" lon="11.2100583"><ele>225.66666666666669</ele><time>2026-05-03T10:23:34.162Z</time></trkpt><trkpt lat="43.2467983" lon="11.2103033"><ele>225.0</ele><time>2026-05-03T10:23:35.164Z</time></trkpt><trkpt lat="43.246845" lon="11.2105517"><ele>223.66666666666669</ele><time>2026-05-03T10:23:36.164Z</time></trkpt><trkpt lat="43.2468783" lon="11.2107967"><ele>222.33333333333334</ele><time>2026-05-03T10:23:37.164Z</time></trkpt><trkpt lat="43.2468833" lon="11.2110433"><ele>221.0</ele><time>2026-05-03T10:23:38.166Z</time></trkpt><trkpt lat="43.2468683" lon="11.2112967"><ele>220.66666666666669</ele><time>2026-05-03T10:23:39.164Z</time></trkpt><trkpt lat="43.246825" lon="11.2115483"><ele>220.33333333333331</ele><time>2026-05-03T10:23:40.164Z</time></trkpt><trkpt lat="43.246745" lon="11.2117917"><ele>220.0</ele><time>2026-05-03T10:23:41.165Z</time></trkpt><trkpt lat="43.2466483" lon="11.21203"><ele>220.0</ele><time>2026-05-03T10:23:42.164Z</time></trkpt><trkpt lat="43.2465467" lon="11.2122667"><ele>220.0</ele><time>2026-05-03T10:23:43.163Z</time></trkpt><trkpt lat="43.24644" lon="11.2125017"><ele>220.0</ele><time>2026-05-03T10:23:44.165Z</time></trkpt><trkpt lat="43.2463283" lon="11.212735"><ele>218.66666666666666</ele><time>2026-05-03T10:23:45.164Z</time></trkpt><trkpt lat="43.2462217" lon="11.212965"><ele>217.33333333333331</ele><time>2026-05-03T10:23:46.164Z</time></trkpt><trkpt lat="43.2461183" lon="11.21319"><ele>216.0</ele><time>2026-05-03T10:23:47.162Z</time></trkpt><trkpt lat="43.2460183" lon="11.2134117"><ele>216.0</ele><time>2026-05-03T10:23:48.161Z</time></trkpt><trkpt lat="43.245925" lon="11.213635"><ele>216.0</ele><time>2026-05-03T10:23:49.164Z</time></trkpt><trkpt lat="43.2458433" lon="11.21386"><ele>216.0</ele><time>2026-05-03T10:23:50.161Z</time></trkpt><trkpt lat="43.2457783" lon="11.2141033"><ele>216.0</ele><time>2026-05-03T10:23:51.165Z</time></trkpt><trkpt lat="43.2457233" lon="11.2143533"><ele>216.0</ele><time>2026-05-03T10:23:52.164Z</time></trkpt><trkpt lat="43.2456683" lon="11.2146067"><ele>216.0</ele><time>2026-05-03T10:23:53.162Z</time></trkpt><trkpt lat="43.24561" lon="11.2148683"><ele>214.33333333333331</ele><time>2026-05-03T10:23:54.164Z</time></trkpt><trkpt lat="43.2455517" lon="11.2151317"><ele>212.66666666666666</ele><time>2026-05-03T10:23:55.161Z</time></trkpt><trkpt lat="43.2454933" lon="11.2154017"><ele>211.0</ele><time>2026-05-03T10:23:56.164Z</time></trkpt><trkpt lat="43.2454367" lon="11.2156717"><ele>210.33333333333331</ele><time>2026-05-03T10:23:57.165Z</time></trkpt><trkpt lat="43.2453783" lon="11.21594"><ele>209.66666666666669</ele><time>2026-05-03T10:23:58.164Z</time></trkpt><trkpt lat="43.2453233" lon="11.2162"><ele>209.0</ele><time>2026-05-03T10:23:59.165Z</time></trkpt><trkpt lat="43.2452683" lon="11.2164467"><ele>211.33333333333334</ele><time>2026-05-03T10:24:00.164Z</time></trkpt><trkpt lat="43.2452167" lon="11.21668"><ele>213.66666666666669</ele><time>2026-05-03T10:24:01.165Z</time></trkpt><trkpt lat="43.24517" lon="11.2169033"><ele>216.0</ele><time>2026-05-03T10:24:02.165Z</time></trkpt><trkpt lat="43.2451267" lon="11.2171167"><ele>216.0</ele><time>2026-05-03T10:24:03.161Z</time></trkpt><trkpt lat="43.245085" lon="11.2173183"><ele>216.0</ele><time>2026-05-03T10:24:04.164Z</time></trkpt><trkpt lat="43.2450433" lon="11.2175217"><ele>216.0</ele><time>2026-05-03T10:24:05.165Z</time></trkpt><trkpt lat="43.2449983" lon="11.2177283"><ele>215.66666666666669</ele><time>2026-05-03T10:24:06.162Z</time></trkpt><trkpt lat="43.2449483" lon="11.2179333"><ele>215.33333333333334</ele><time>2026-05-03T10:24:07.163Z</time></trkpt><trkpt lat="43.2448833" lon="11.2181233"><ele>215.0</ele><time>2026-05-03T10:24:08.164Z</time></trkpt><trkpt lat="43.2448117" lon="11.21831"><ele>211.0</ele><time>2026-05-03T10:24:09.164Z</time></trkpt><trkpt lat="43.2447367" lon="11.218495"><ele>207.0</ele><time>2026-05-03T10:24:10.165Z</time></trkpt><trkpt lat="43.244665" lon="11.2186817"><ele>203.0</ele><time>2026-05-03T10:24:11.165Z</time></trkpt><trkpt lat="43.244595" lon="11.21886"><ele>203.25</ele><time>2026-05-03T10:24:12.164Z</time></trkpt><trkpt lat="43.2445283" lon="11.219025"><ele>203.5</ele><time>2026-05-03T10:24:13.162Z</time></trkpt><trkpt lat="43.2444717" lon="11.2191733"><ele>203.75</ele><time>2026-05-03T10:24:14.165Z</time></trkpt><trkpt lat="43.2444233" lon="11.219315"><ele>204.0</ele><time>2026-05-03T10:24:15.161Z</time></trkpt><trkpt lat="43.2443917" lon="11.2194583"><ele>204.0</ele><time>2026-05-03T10:24:16.162Z</time></trkpt><trkpt lat="43.2443817" lon="11.2196"><ele>204.0</ele><time>2026-05-03T10:24:17.162Z</time></trkpt><trkpt lat="43.2444" lon="11.2197517"><ele>204.0</ele><time>2026-05-03T10:24:18.162Z</time></trkpt><trkpt lat="43.2444283" lon="11.2199017"><ele>204.0</ele><time>2026-05-03T10:24:19.165Z</time></trkpt><trkpt lat="43.2444717" lon="11.22006"><ele>204.0</ele><time>2026-05-03T10:24:20.164Z</time></trkpt><trkpt lat="43.2445133" lon="11.2202267"><ele>204.0</ele><time>2026-05-03T10:24:21.165Z</time></trkpt><trkpt lat="43.2445533" lon="11.2203983"><ele>204.0</ele><time>2026-05-03T10:24:22.164Z</time></trkpt><trkpt lat="43.2445933" lon="11.22058"><ele>204.0</ele><time>2026-05-03T10:24:23.165Z</time></trkpt><trkpt lat="43.2446367" lon="11.2207667"><ele>203.75</ele><time>2026-05-03T10:24:24.161Z</time></trkpt><trkpt lat="43.2446817" lon="11.2209567"><ele>203.5</ele><time>2026-05-03T10:24:25.163Z</time></trkpt><trkpt lat="43.24473" lon="11.221145"><ele>203.25</ele><time>2026-05-03T10:24:26.164Z</time></trkpt><trkpt lat="43.24478" lon="11.221335"><ele>203.0</ele><time>2026-05-03T10:24:27.164Z</time></trkpt><trkpt lat="43.244835" lon="11.22152"><ele>202.75</ele><time>2026-05-03T10:24:28.164Z</time></trkpt><trkpt lat="43.2448933" lon="11.2216917"><ele>202.5</ele><time>2026-05-03T10:24:29.165Z</time></trkpt><trkpt lat="43.2449533" lon="11.221845"><ele>202.25</ele><time>2026-05-03T10:24:30.162Z</time></trkpt><trkpt lat="43.245035" lon="11.2219917"><ele>202.0</ele><time>2026-05-03T10:24:31.165Z</time></trkpt><trkpt lat="43.2451317" lon="11.2221133"><ele>202.0</ele><time>2026-05-03T10:24:32.165Z</time></trkpt><trkpt lat="43.2452383" lon="11.2222133"><ele>202.0</ele><time>2026-05-03T10:24:33.165Z</time></trkpt><trkpt lat="43.2453567" lon="11.2222983"><ele>202.0</ele><time>2026-05-03T10:24:34.162Z</time></trkpt><trkpt lat="43.2454833" lon="11.2223767"><ele>202.0</ele><time>2026-05-03T10:24:35.162Z</time></trkpt><trkpt lat="43.245615" lon="11.2224433"><ele>202.0</ele><time>2026-05-03T10:24:36.162Z</time></trkpt><trkpt lat="43.24574" lon="11.2224983"><ele>202.0</ele><time>2026-05-03T10:24:37.165Z</time></trkpt><trkpt lat="43.2458517" lon="11.222545"><ele>202.0</ele><time>2026-05-03T10:24:38.165Z</time></trkpt><trkpt lat="43.2459467" lon="11.2225833"><ele>202.0</ele><time>2026-05-03T10:24:39.164Z</time></trkpt><trkpt lat="43.246025" lon="11.22261"><ele>202.0</ele><time>2026-05-03T10:24:40.162Z</time></trkpt><trkpt lat="43.2460917" lon="11.2226367"><ele>202.0</ele><time>2026-05-03T10:24:41.165Z</time></trkpt><trkpt lat="43.2462017" lon="11.2226717"><ele>202.0</ele><time>2026-05-03T10:24:43.165Z</time></trkpt><trkpt lat="43.2463217" lon="11.222725"><ele>202.0</ele><time>2026-05-03T10:24:45.165Z</time></trkpt><trkpt lat="43.246395" lon="11.2227567"><ele>202.0</ele><time>2026-05-03T10:24:46.164Z</time></trkpt><trkpt lat="43.2464717" lon="11.222785"><ele>202.0</ele><time>2026-05-03T10:24:47.165Z</time></trkpt><trkpt lat="43.2465483" lon="11.2228117"><ele>202.33333333333331</ele><time>2026-05-03T10:24:48.165Z</time></trkpt><trkpt lat="43.24662" lon="11.22284"><ele>202.66666666666666</ele><time>2026-05-03T10:24:49.165Z</time></trkpt><trkpt lat="43.24669" lon="11.2228633"><ele>203.0</ele><time>2026-05-03T10:24:50.162Z</time></trkpt><trkpt lat="43.246765" lon="11.2228817"><ele>203.33333333333331</ele><time>2026-05-03T10:24:51.165Z</time></trkpt><trkpt lat="43.246855" lon="11.2228933"><ele>203.66666666666666</ele><time>2026-05-03T10:24:52.162Z</time></trkpt><trkpt lat="43.2469517" lon="11.22291"><ele>204.0</ele><time>2026-05-03T10:24:53.165Z</time></trkpt><trkpt lat="43.2470617" lon="11.222935"><ele>204.0</ele><time>2026-05-03T10:24:54.165Z</time></trkpt><trkpt lat="43.247185" lon="11.2229567"><ele>204.0</ele><time>2026-05-03T10:24:55.165Z</time></trkpt><trkpt lat="43.2473067" lon="11.22297"><ele>204.0</ele><time>2026-05-03T10:24:56.165Z</time></trkpt><trkpt lat="43.2474217" lon="11.2229817"><ele>204.0</ele><time>2026-05-03T10:24:57.161Z</time></trkpt><trkpt lat="43.247515" lon="11.22299"><ele>203.57142857142858</ele><time>2026-05-03T10:24:58.163Z</time></trkpt><trkpt lat="43.2475883" lon="11.2229917"><ele>203.14285714285717</ele><time>2026-05-03T10:24:59.165Z</time></trkpt><trkpt lat="43.2476567" lon="11.2229933"><ele>202.71428571428572</ele><time>2026-05-03T10:25:00.164Z</time></trkpt><trkpt lat="43.2477233" lon="11.2229933"><ele>202.28571428571428</ele><time>2026-05-03T10:25:01.162Z</time></trkpt><trkpt lat="43.2477917" lon="11.223"><ele>201.85714285714286</ele><time>2026-05-03T10:25:02.163Z</time></trkpt><trkpt lat="43.2478617" lon="11.2230083"><ele>201.42857142857142</ele><time>2026-05-03T10:25:03.165Z</time></trkpt><trkpt lat="43.2479317" lon="11.223015"><ele>201.0</ele><time>2026-05-03T10:25:04.164Z</time></trkpt><trkpt lat="43.2480133" lon="11.2230183"><ele>201.0</ele><time>2026-05-03T10:25:05.165Z</time></trkpt><trkpt lat="43.2481033" lon="11.2230183"><ele>201.0</ele><time>2026-05-03T10:25:06.161Z</time></trkpt><trkpt lat="43.2482017" lon="11.2230217"><ele>201.0</ele><time>2026-05-03T10:25:07.162Z</time></trkpt><trkpt lat="43.2483117" lon="11.223025"><ele>201.0</ele><time>2026-05-03T10:25:08.165Z</time></trkpt><trkpt lat="43.2484383" lon="11.2230267"><ele>201.0</ele><time>2026-05-03T10:25:09.165Z</time></trkpt><trkpt lat="43.2485783" lon="11.2230267"><ele>201.0</ele><time>2026-05-03T10:25:10.165Z</time></trkpt><trkpt lat="43.24873" lon="11.2230283"><ele>201.0</ele><time>2026-05-03T10:25:11.165Z</time></trkpt><trkpt lat="43.2488833" lon="11.2230333"><ele>201.0</ele><time>2026-05-03T10:25:12.165Z</time></trkpt><trkpt lat="43.249035" lon="11.22304"><ele>201.25</ele><time>2026-05-03T10:25:13.165Z</time></trkpt><trkpt lat="43.2491817" lon="11.223055"><ele>201.5</ele><time>2026-05-03T10:25:14.165Z</time></trkpt><trkpt lat="43.2493183" lon="11.2230683"><ele>201.75</ele><time>2026-05-03T10:25:15.164Z</time></trkpt><trkpt lat="43.2494483" lon="11.2230817"><ele>202.0</ele><time>2026-05-03T10:25:16.166Z</time></trkpt><trkpt lat="43.2495783" lon="11.2230967"><ele>202.0</ele><time>2026-05-03T10:25:17.165Z</time></trkpt><trkpt lat="43.24972" lon="11.223125"><ele>202.0</ele><time>2026-05-03T10:25:18.166Z</time></trkpt><trkpt lat="43.2498667" lon="11.2231617"><ele>202.0</ele><time>2026-05-03T10:25:19.165Z</time></trkpt><trkpt lat="43.2500167" lon="11.223205"><ele>202.0</ele><time>2026-05-03T10:25:20.165Z</time></trkpt><trkpt lat="43.2501717" lon="11.2232517"><ele>200.66666666666666</ele><time>2026-05-03T10:25:21.165Z</time></trkpt><trkpt lat="43.2503283" lon="11.2233017"><ele>199.33333333333331</ele><time>2026-05-03T10:25:22.165Z</time></trkpt><trkpt lat="43.250485" lon="11.2233517"><ele>198.0</ele><time>2026-05-03T10:25:23.165Z</time></trkpt><trkpt lat="43.250645" lon="11.2234"><ele>197.33333333333331</ele><time>2026-05-03T10:25:24.165Z</time></trkpt><trkpt lat="43.250805" lon="11.223445"><ele>196.66666666666666</ele><time>2026-05-03T10:25:25.165Z</time></trkpt><trkpt lat="43.2509617" lon="11.2234933"><ele>196.0</ele><time>2026-05-03T10:25:26.167Z</time></trkpt><trkpt lat="43.25111" lon="11.2235383"><ele>196.0</ele><time>2026-05-03T10:25:27.161Z</time></trkpt><trkpt lat="43.2512483" lon="11.2235783"><ele>196.0</ele><time>2026-05-03T10:25:28.162Z</time></trkpt><trkpt lat="43.25137" lon="11.2236133"><ele>196.0</ele><time>2026-05-03T10:25:29.162Z</time></trkpt><trkpt lat="43.251475" lon="11.2236517"><ele>196.0</ele><time>2026-05-03T10:25:30.162Z</time></trkpt><trkpt lat="43.251555" lon="11.2237083"><ele>196.33333333333331</ele><time>2026-05-03T10:25:31.162Z</time></trkpt><trkpt lat="43.25162" lon="11.22378"><ele>196.66666666666666</ele><time>2026-05-03T10:25:32.163Z</time></trkpt><trkpt lat="43.2516817" lon="11.2238517"><ele>197.0</ele><time>2026-05-03T10:25:33.162Z</time></trkpt><trkpt lat="43.251755" lon="11.2239033"><ele>197.33333333333331</ele><time>2026-05-03T10:25:34.162Z</time></trkpt><trkpt lat="43.2518383" lon="11.2239233"><ele>197.66666666666666</ele><time>2026-05-03T10:25:35.163Z</time></trkpt><trkpt lat="43.251935" lon="11.22391"><ele>198.0</ele><time>2026-05-03T10:25:36.162Z</time></trkpt><trkpt lat="43.2520467" lon="11.2239167"><ele>198.0</ele><time>2026-05-03T10:25:37.162Z</time></trkpt><trkpt lat="43.2521667" lon="11.2239567"><ele>198.0</ele><time>2026-05-03T10:25:38.165Z</time></trkpt><trkpt lat="43.252295" lon="11.224025"><ele>198.0</ele><time>2026-05-03T10:25:39.166Z</time></trkpt><trkpt lat="43.2524333" lon="11.2240983"><ele>198.0</ele><time>2026-05-03T10:25:40.168Z</time></trkpt><trkpt lat="43.2525683" lon="11.2241733"><ele>198.33333333333331</ele><time>2026-05-03T10:25:41.165Z</time></trkpt><trkpt lat="43.252705" lon="11.2242583"><ele>198.66666666666666</ele><time>2026-05-03T10:25:42.165Z</time></trkpt><trkpt lat="43.252845" lon="11.2243517"><ele>199.0</ele><time>2026-05-03T10:25:43.165Z</time></trkpt><trkpt lat="43.252985" lon="11.224445"><ele>198.33333333333331</ele><time>2026-05-03T10:25:44.165Z</time></trkpt><trkpt lat="43.25313" lon="11.2245267"><ele>197.66666666666669</ele><time>2026-05-03T10:25:45.166Z</time></trkpt><trkpt lat="43.253275" lon="11.2246"><ele>197.0</ele><time>2026-05-03T10:25:46.165Z</time></trkpt><trkpt lat="43.2534217" lon="11.22466"><ele>197.0</ele><time>2026-05-03T10:25:47.166Z</time></trkpt><trkpt lat="43.2535733" lon="11.2247"><ele>197.0</ele><time>2026-05-03T10:25:48.165Z</time></trkpt><trkpt lat="43.25373" lon="11.22472"><ele>197.0</ele><time>2026-05-03T10:25:49.165Z</time></trkpt><trkpt lat="43.2538867" lon="11.2247233"><ele>197.66666666666669</ele><time>2026-05-03T10:25:50.165Z</time></trkpt><trkpt lat="43.25404" lon="11.224725"><ele>198.33333333333331</ele><time>2026-05-03T10:25:51.165Z</time></trkpt><trkpt lat="43.254195" lon="11.2247317"><ele>199.0</ele><time>2026-05-03T10:25:52.165Z</time></trkpt><trkpt lat="43.2543517" lon="11.2247533"><ele>199.0</ele><time>2026-05-03T10:25:53.165Z</time></trkpt><trkpt lat="43.254505" lon="11.22479"><ele>199.0</ele><time>2026-05-03T10:25:54.165Z</time></trkpt><trkpt lat="43.2546583" lon="11.2248417"><ele>199.0</ele><time>2026-05-03T10:25:55.166Z</time></trkpt><trkpt lat="43.2548117" lon="11.2249017"><ele>199.0</ele><time>2026-05-03T10:25:56.165Z</time></trkpt><trkpt lat="43.2549617" lon="11.22497"><ele>199.0</ele><time>2026-05-03T10:25:57.162Z</time></trkpt><trkpt lat="43.2551083" lon="11.2250433"><ele>199.0</ele><time>2026-05-03T10:25:58.162Z</time></trkpt><trkpt lat="43.2552517" lon="11.2251167"><ele>199.0</ele><time>2026-05-03T10:25:59.163Z</time></trkpt><trkpt lat="43.25539" lon="11.2252"><ele>199.0</ele><time>2026-05-03T10:26:00.163Z</time></trkpt><trkpt lat="43.2555267" lon="11.22529"><ele>199.0</ele><time>2026-05-03T10:26:01.162Z</time></trkpt><trkpt lat="43.2556617" lon="11.2253883"><ele>199.5</ele><time>2026-05-03T10:26:02.163Z</time></trkpt><trkpt lat="43.2557917" lon="11.2254883"><ele>200.0</ele><time>2026-05-03T10:26:03.163Z</time></trkpt><trkpt lat="43.2559167" lon="11.2255833"><ele>200.5</ele><time>2026-05-03T10:26:04.164Z</time></trkpt><trkpt lat="43.2560367" lon="11.22568"><ele>201.0</ele><time>2026-05-03T10:26:05.163Z</time></trkpt><trkpt lat="43.25616" lon="11.22578"><ele>199.66666666666669</ele><time>2026-05-03T10:26:06.163Z</time></trkpt><trkpt lat="43.2562867" lon="11.225875"><ele>198.33333333333334</ele><time>2026-05-03T10:26:07.163Z</time></trkpt><trkpt lat="43.256425" lon="11.2259583"><ele>197.0</ele><time>2026-05-03T10:26:08.164Z</time></trkpt><trkpt lat="43.25658" lon="11.226015"><ele>197.0</ele><time>2026-05-03T10:26:09.164Z</time></trkpt><trkpt lat="43.25675" lon="11.2260433"><ele>197.0</ele><time>2026-05-03T10:26:10.164Z</time></trkpt><trkpt lat="43.25692" lon="11.22606"><ele>197.0</ele><time>2026-05-03T10:26:11.164Z</time></trkpt><trkpt lat="43.257085" lon="11.2260733"><ele>197.0</ele><time>2026-05-03T10:26:12.164Z</time></trkpt><trkpt lat="43.257245" lon="11.226085"><ele>197.0</ele><time>2026-05-03T10:26:13.164Z</time></trkpt><trkpt lat="43.257405" lon="11.2260933"><ele>197.0</ele><time>2026-05-03T10:26:14.164Z</time></trkpt><trkpt lat="43.2575667" lon="11.2260967"><ele>197.33333333333334</ele><time>2026-05-03T10:26:15.164Z</time></trkpt><trkpt lat="43.25773" lon="11.2260983"><ele>197.66666666666669</ele><time>2026-05-03T10:26:16.164Z</time></trkpt><trkpt lat="43.2578833" lon="11.2261"><ele>198.0</ele><time>2026-05-03T10:26:17.164Z</time></trkpt><trkpt lat="43.25803" lon="11.226105"><ele>197.75</ele><time>2026-05-03T10:26:18.164Z</time></trkpt><trkpt lat="43.2581767" lon="11.2261283"><ele>197.5</ele><time>2026-05-03T10:26:19.164Z</time></trkpt><trkpt lat="43.25832" lon="11.22617"><ele>197.25</ele><time>2026-05-03T10:26:20.164Z</time></trkpt><trkpt lat="43.2584583" lon="11.22623"><ele>197.0</ele><time>2026-05-03T10:26:21.164Z</time></trkpt><trkpt lat="43.25859" lon="11.2262967"><ele>197.0</ele><time>2026-05-03T10:26:22.165Z</time></trkpt><trkpt lat="43.258715" lon="11.2263817"><ele>197.0</ele><time>2026-05-03T10:26:23.164Z</time></trkpt><trkpt lat="43.258845" lon="11.2264883"><ele>197.0</ele><time>2026-05-03T10:26:24.164Z</time></trkpt><trkpt lat="43.2589867" lon="11.2266183"><ele>197.0</ele><time>2026-05-03T10:26:25.164Z</time></trkpt><trkpt lat="43.25913" lon="11.2267833"><ele>197.0</ele><time>2026-05-03T10:26:26.164Z</time></trkpt><trkpt lat="43.2592783" lon="11.2269833"><ele>197.0</ele><time>2026-05-03T10:26:27.161Z</time></trkpt><trkpt lat="43.2594283" lon="11.227205"><ele>194.5</ele><time>2026-05-03T10:26:28.162Z</time></trkpt><trkpt lat="43.25959" lon="11.22744"><ele>192.0</ele><time>2026-05-03T10:26:29.162Z</time></trkpt><trkpt lat="43.259765" lon="11.2276817"><ele>192.5</ele><time>2026-05-03T10:26:30.161Z</time></trkpt><trkpt lat="43.2599433" lon="11.2279233"><ele>193.0</ele><time>2026-05-03T10:26:31.162Z</time></trkpt><trkpt lat="43.2601233" lon="11.2281683"><ele>193.0</ele><time>2026-05-03T10:26:32.163Z</time></trkpt><trkpt lat="43.2603133" lon="11.2284167"><ele>193.0</ele><time>2026-05-03T10:26:33.162Z</time></trkpt><trkpt lat="43.26051" lon="11.2286767"><ele>194.0</ele><time>2026-05-03T10:26:34.162Z</time></trkpt><trkpt lat="43.26071" lon="11.2289433"><ele>195.0</ele><time>2026-05-03T10:26:35.162Z</time></trkpt><trkpt lat="43.2609117" lon="11.2292183"><ele>195.0</ele><time>2026-05-03T10:26:36.161Z</time></trkpt><trkpt lat="43.26111" lon="11.2294883"><ele>195.0</ele><time>2026-05-03T10:26:37.162Z</time></trkpt><trkpt lat="43.2613" lon="11.229745"><ele>197.0</ele><time>2026-05-03T10:26:38.165Z</time></trkpt><trkpt lat="43.26148" lon="11.22999"><ele>199.0</ele><time>2026-05-03T10:26:39.164Z</time></trkpt><trkpt lat="43.2616467" lon="11.230215"><ele>199.0</ele><time>2026-05-03T10:26:40.164Z</time></trkpt><trkpt lat="43.2618033" lon="11.230425"><ele>199.0</ele><time>2026-05-03T10:26:41.165Z</time></trkpt><trkpt lat="43.2619483" lon="11.2306167"><ele>199.0</ele><time>2026-05-03T10:26:42.165Z</time></trkpt><trkpt lat="43.2620867" lon="11.2308067"><ele>198.66666666666666</ele><time>2026-05-03T10:26:43.165Z</time></trkpt><trkpt lat="43.2622283" lon="11.2310083"><ele>198.33333333333331</ele><time>2026-05-03T10:26:44.164Z</time></trkpt><trkpt lat="43.2623683" lon="11.2312183"><ele>198.0</ele><time>2026-05-03T10:26:45.164Z</time></trkpt><trkpt lat="43.2625033" lon="11.23143"><ele>200.0</ele><time>2026-05-03T10:26:46.164Z</time></trkpt><trkpt lat="43.262635" lon="11.2316417"><ele>202.0</ele><time>2026-05-03T10:26:47.164Z</time></trkpt><trkpt lat="43.26276" lon="11.2318617"><ele>204.0</ele><time>2026-05-03T10:26:48.166Z</time></trkpt><trkpt lat="43.2628817" lon="11.2320767"><ele>204.0</ele><time>2026-05-03T10:26:49.164Z</time></trkpt><trkpt lat="43.2629933" lon="11.2322783"><ele>204.0</ele><time>2026-05-03T10:26:50.164Z</time></trkpt><trkpt lat="43.2630917" lon="11.232465"><ele>204.0</ele><time>2026-05-03T10:26:51.165Z</time></trkpt><trkpt lat="43.2631883" lon="11.2326383"><ele>206.0</ele><time>2026-05-03T10:26:52.165Z</time></trkpt><trkpt lat="43.2632733" lon="11.2327967"><ele>208.0</ele><time>2026-05-03T10:26:53.164Z</time></trkpt><trkpt lat="43.2633483" lon="11.2329417"><ele>210.0</ele><time>2026-05-03T10:26:54.165Z</time></trkpt><trkpt lat="43.26342" lon="11.233075"><ele>212.0</ele><time>2026-05-03T10:26:55.165Z</time></trkpt><trkpt lat="43.2635017" lon="11.2332017"><ele>212.25</ele><time>2026-05-03T10:26:56.162Z</time></trkpt><trkpt lat="43.2635783" lon="11.2333317"><ele>212.5</ele><time>2026-05-03T10:26:57.161Z</time></trkpt><trkpt lat="43.263665" lon="11.2334717"><ele>212.75</ele><time>2026-05-03T10:26:58.162Z</time></trkpt><trkpt lat="43.2637533" lon="11.2336217"><ele>213.0</ele><time>2026-05-03T10:26:59.162Z</time></trkpt><trkpt lat="43.2638467" lon="11.2337917"><ele>211.33333333333331</ele><time>2026-05-03T10:27:00.161Z</time></trkpt><trkpt lat="43.2639467" lon="11.2339717"><ele>209.66666666666666</ele><time>2026-05-03T10:27:01.162Z</time></trkpt><trkpt lat="43.2640517" lon="11.23416"><ele>208.0</ele><time>2026-05-03T10:27:02.162Z</time></trkpt><trkpt lat="43.2641617" lon="11.234355"><ele>207.0</ele><time>2026-05-03T10:27:03.162Z</time></trkpt><trkpt lat="43.2642767" lon="11.2345583"><ele>206.0</ele><time>2026-05-03T10:27:04.162Z</time></trkpt><trkpt lat="43.2643933" lon="11.2347683"><ele>205.0</ele><time>2026-05-03T10:27:05.162Z</time></trkpt><trkpt lat="43.2645133" lon="11.2349867"><ele>204.66666666666666</ele><time>2026-05-03T10:27:06.161Z</time></trkpt><trkpt lat="43.264635" lon="11.2352067"><ele>204.33333333333331</ele><time>2026-05-03T10:27:07.163Z</time></trkpt><trkpt lat="43.2647583" lon="11.235425"><ele>204.0</ele><time>2026-05-03T10:27:08.164Z</time></trkpt><trkpt lat="43.2648833" lon="11.2356483"><ele>204.0</ele><time>2026-05-03T10:27:09.164Z</time></trkpt><trkpt lat="43.2650083" lon="11.2358733"><ele>204.0</ele><time>2026-05-03T10:27:10.165Z</time></trkpt><trkpt lat="43.2651333" lon="11.236095"><ele>204.0</ele><time>2026-05-03T10:27:11.166Z</time></trkpt><trkpt lat="43.26526" lon="11.23631"><ele>204.0</ele><time>2026-05-03T10:27:12.166Z</time></trkpt><trkpt lat="43.265385" lon="11.2365233"><ele>204.0</ele><time>2026-05-03T10:27:13.165Z</time></trkpt><trkpt lat="43.2655067" lon="11.2367333"><ele>204.0</ele><time>2026-05-03T10:27:14.163Z</time></trkpt><trkpt lat="43.2656383" lon="11.2369567"><ele>206.0</ele><time>2026-05-03T10:27:15.165Z</time></trkpt><trkpt lat="43.2657783" lon="11.2372"><ele>208.0</ele><time>2026-05-03T10:27:16.165Z</time></trkpt><trkpt lat="43.2659267" lon="11.23744"><ele>208.0</ele><time>2026-05-03T10:27:17.165Z</time></trkpt><trkpt lat="43.2660767" lon="11.2376833"><ele>208.0</ele><time>2026-05-03T10:27:18.165Z</time></trkpt><trkpt lat="43.2662283" lon="11.2379367"><ele>207.5</ele><time>2026-05-03T10:27:19.165Z</time></trkpt><trkpt lat="43.26637" lon="11.2381967"><ele>207.0</ele><time>2026-05-03T10:27:20.164Z</time></trkpt><trkpt lat="43.266515" lon="11.2384517"><ele>204.0</ele><time>2026-05-03T10:27:21.166Z</time></trkpt><trkpt lat="43.266665" lon="11.2387017"><ele>201.0</ele><time>2026-05-03T10:27:22.166Z</time></trkpt><trkpt lat="43.2668117" lon="11.23895"><ele>200.66666666666669</ele><time>2026-05-03T10:27:23.165Z</time></trkpt><trkpt lat="43.2669533" lon="11.239185"><ele>200.33333333333334</ele><time>2026-05-03T10:27:24.165Z</time></trkpt><trkpt lat="43.2670867" lon="11.2394067"><ele>200.0</ele><time>2026-05-03T10:27:25.165Z</time></trkpt><trkpt lat="43.2672133" lon="11.239615"><ele>199.33333333333334</ele><time>2026-05-03T10:27:26.161Z</time></trkpt><trkpt lat="43.2673367" lon="11.2398167"><ele>198.66666666666669</ele><time>2026-05-03T10:27:27.162Z</time></trkpt><trkpt lat="43.26746" lon="11.24002"><ele>198.0</ele><time>2026-05-03T10:27:28.162Z</time></trkpt><trkpt lat="43.2675833" lon="11.240225"><ele>198.0</ele><time>2026-05-03T10:27:29.163Z</time></trkpt><trkpt lat="43.2677083" lon="11.24043"><ele>198.0</ele><time>2026-05-03T10:27:30.162Z</time></trkpt><trkpt lat="43.2678333" lon="11.2406383"><ele>198.0</ele><time>2026-05-03T10:27:31.161Z</time></trkpt><trkpt lat="43.2679567" lon="11.2408467"><ele>198.0</ele><time>2026-05-03T10:27:32.162Z</time></trkpt><trkpt lat="43.268075" lon="11.2410483"><ele>198.0</ele><time>2026-05-03T10:27:33.167Z</time></trkpt><trkpt lat="43.2681867" lon="11.24124"><ele>198.0</ele><time>2026-05-03T10:27:34.164Z</time></trkpt><trkpt lat="43.268295" lon="11.2414267"><ele>200.66666666666669</ele><time>2026-05-03T10:27:35.165Z</time></trkpt><trkpt lat="43.2684033" lon="11.2416083"><ele>203.33333333333334</ele><time>2026-05-03T10:27:36.164Z</time></trkpt><trkpt lat="43.26851" lon="11.24178"><ele>206.0</ele><time>2026-05-03T10:27:37.165Z</time></trkpt><trkpt lat="43.26861" lon="11.2419483"><ele>206.0</ele><time>2026-05-03T10:27:38.166Z</time></trkpt><trkpt lat="43.2687183" lon="11.2421233"><ele>206.0</ele><time>2026-05-03T10:27:39.164Z</time></trkpt><trkpt lat="43.2688333" lon="11.242305"><ele>206.0</ele><time>2026-05-03T10:27:40.167Z</time></trkpt><trkpt lat="43.2689517" lon="11.24249"><ele>205.0</ele><time>2026-05-03T10:27:41.166Z</time></trkpt><trkpt lat="43.2690717" lon="11.2426817"><ele>204.0</ele><time>2026-05-03T10:27:42.164Z</time></trkpt><trkpt lat="43.2692017" lon="11.24288"><ele>203.0</ele><time>2026-05-03T10:27:43.164Z</time></trkpt><trkpt lat="43.269335" lon="11.2430833"><ele>201.66666666666669</ele><time>2026-05-03T10:27:44.166Z</time></trkpt><trkpt lat="43.26947" lon="11.2432833"><ele>200.33333333333331</ele><time>2026-05-03T10:27:45.164Z</time></trkpt><trkpt lat="43.2696067" lon="11.2434817"><ele>199.0</ele><time>2026-05-03T10:27:46.165Z</time></trkpt><trkpt lat="43.26974" lon="11.2436783"><ele>198.66666666666666</ele><time>2026-05-03T10:27:47.165Z</time></trkpt><trkpt lat="43.2698733" lon="11.2438733"><ele>198.33333333333331</ele><time>2026-05-03T10:27:48.165Z</time></trkpt><trkpt lat="43.27" lon="11.24407"><ele>198.0</ele><time>2026-05-03T10:27:49.165Z</time></trkpt><trkpt lat="43.27013" lon="11.2442667"><ele>197.66666666666669</ele><time>2026-05-03T10:27:50.165Z</time></trkpt><trkpt lat="43.2702583" lon="11.2444633"><ele>197.33333333333334</ele><time>2026-05-03T10:27:51.165Z</time></trkpt><trkpt lat="43.2703883" lon="11.24466"><ele>197.0</ele><time>2026-05-03T10:27:52.166Z</time></trkpt><trkpt lat="43.2705133" lon="11.244855"><ele>197.0</ele><time>2026-05-03T10:27:53.166Z</time></trkpt><trkpt lat="43.2706383" lon="11.2450483"><ele>197.0</ele><time>2026-05-03T10:27:54.166Z</time></trkpt><trkpt lat="43.2707617" lon="11.2452417"><ele>197.0</ele><time>2026-05-03T10:27:55.165Z</time></trkpt><trkpt lat="43.2708867" lon="11.245435"><ele>197.0</ele><time>2026-05-03T10:27:56.162Z</time></trkpt><trkpt lat="43.2710117" lon="11.245625"><ele>197.0</ele><time>2026-05-03T10:27:57.162Z</time></trkpt><trkpt lat="43.2711367" lon="11.2458133"><ele>197.0</ele><time>2026-05-03T10:27:58.163Z</time></trkpt><trkpt lat="43.2712583" lon="11.2460017"><ele>197.0</ele><time>2026-05-03T10:27:59.162Z</time></trkpt><trkpt lat="43.2713783" lon="11.2461867"><ele>197.0</ele><time>2026-05-03T10:28:00.163Z</time></trkpt><trkpt lat="43.2714917" lon="11.24637"><ele>197.0</ele><time>2026-05-03T10:28:01.162Z</time></trkpt><trkpt lat="43.2715967" lon="11.2465583"><ele>198.33333333333334</ele><time>2026-05-03T10:28:02.162Z</time></trkpt><trkpt lat="43.271695" lon="11.2467483"><ele>199.66666666666669</ele><time>2026-05-03T10:28:03.165Z</time></trkpt><trkpt lat="43.2717933" lon="11.246935"><ele>201.0</ele><time>2026-05-03T10:28:04.165Z</time></trkpt><trkpt lat="43.2718917" lon="11.2471217"><ele>202.33333333333331</ele><time>2026-05-03T10:28:05.165Z</time></trkpt><trkpt lat="43.2719917" lon="11.2473017"><ele>203.66666666666666</ele><time>2026-05-03T10:28:06.165Z</time></trkpt><trkpt lat="43.27209" lon="11.247475"><ele>205.0</ele><time>2026-05-03T10:28:07.162Z</time></trkpt><trkpt lat="43.272185" lon="11.24764"><ele>204.0</ele><time>2026-05-03T10:28:08.162Z</time></trkpt><trkpt lat="43.2722733" lon="11.2477933"><ele>203.0</ele><time>2026-05-03T10:28:09.163Z</time></trkpt><trkpt lat="43.2723517" lon="11.247925"><ele>202.0</ele><time>2026-05-03T10:28:10.162Z</time></trkpt><trkpt lat="43.2724167" lon="11.2480183"><ele>201.0</ele><time>2026-05-03T10:28:11.162Z</time></trkpt><trkpt lat="43.2724783" lon="11.24807"><ele>200.0</ele><time>2026-05-03T10:28:12.163Z</time></trkpt><trkpt lat="43.2726" lon="11.24803"><ele>200.0</ele><time>2026-05-03T10:28:14.163Z</time></trkpt><trkpt lat="43.272665" lon="11.24797"><ele>200.0</ele><time>2026-05-03T10:28:15.164Z</time></trkpt><trkpt lat="43.2727467" lon="11.2478467"><ele>200.0</ele><time>2026-05-03T10:28:16.163Z</time></trkpt><trkpt lat="43.2728767" lon="11.2476783"><ele>200.0</ele><time>2026-05-03T10:28:17.163Z</time></trkpt><trkpt lat="43.27302" lon="11.2475267"><ele>200.33333333333334</ele><time>2026-05-03T10:28:18.162Z</time></trkpt><trkpt lat="43.2731683" lon="11.2473933"><ele>200.66666666666669</ele><time>2026-05-03T10:28:19.162Z</time></trkpt><trkpt lat="43.2733217" lon="11.24728"><ele>201.0</ele><time>2026-05-03T10:28:20.165Z</time></trkpt><trkpt lat="43.2734817" lon="11.2471733"><ele>201.0</ele><time>2026-05-03T10:28:21.165Z</time></trkpt><trkpt lat="43.27365" lon="11.2470717"><ele>201.0</ele><time>2026-05-03T10:28:22.165Z</time></trkpt><trkpt lat="43.2738183" lon="11.2469717"><ele>201.0</ele><time>2026-05-03T10:28:23.165Z</time></trkpt><trkpt lat="43.273985" lon="11.24688"><ele>202.0</ele><time>2026-05-03T10:28:24.165Z</time></trkpt><trkpt lat="43.2741533" lon="11.2467867"><ele>203.0</ele><time>2026-05-03T10:28:25.168Z</time></trkpt><trkpt lat="43.27432" lon="11.2466933"><ele>204.0</ele><time>2026-05-03T10:28:26.167Z</time></trkpt><trkpt lat="43.2744817" lon="11.2466017"><ele>204.0</ele><time>2026-05-03T10:28:27.165Z</time></trkpt><trkpt lat="43.2746333" lon="11.24651"><ele>204.0</ele><time>2026-05-03T10:28:28.165Z</time></trkpt><trkpt lat="43.274775" lon="11.2464217"><ele>204.0</ele><time>2026-05-03T10:28:29.165Z</time></trkpt><trkpt lat="43.2749233" lon="11.246325"><ele>204.66666666666669</ele><time>2026-05-03T10:28:30.165Z</time></trkpt><trkpt lat="43.27508" lon="11.2462133"><ele>205.33333333333334</ele><time>2026-05-03T10:28:31.165Z</time></trkpt><trkpt lat="43.2752367" lon="11.246085"><ele>206.0</ele><time>2026-05-03T10:28:32.165Z</time></trkpt><trkpt lat="43.275385" lon="11.2459283"><ele>206.0</ele><time>2026-05-03T10:28:33.165Z</time></trkpt><trkpt lat="43.275515" lon="11.2457383"><ele>206.0</ele><time>2026-05-03T10:28:34.165Z</time></trkpt><trkpt lat="43.2756267" lon="11.2455217"><ele>206.0</ele><time>2026-05-03T10:28:35.165Z</time></trkpt><trkpt lat="43.2757233" lon="11.2452917"><ele>206.66666666666669</ele><time>2026-05-03T10:28:36.165Z</time></trkpt><trkpt lat="43.27581" lon="11.24506"><ele>207.33333333333331</ele><time>2026-05-03T10:28:37.163Z</time></trkpt><trkpt lat="43.2758933" lon="11.2448267"><ele>208.0</ele><time>2026-05-03T10:28:38.162Z</time></trkpt><trkpt lat="43.2759767" lon="11.2446"><ele>208.33333333333331</ele><time>2026-05-03T10:28:39.162Z</time></trkpt><trkpt lat="43.2760617" lon="11.2443883"><ele>208.66666666666669</ele><time>2026-05-03T10:28:40.162Z</time></trkpt><trkpt lat="43.2761567" lon="11.2441967"><ele>209.0</ele><time>2026-05-03T10:28:41.163Z</time></trkpt><trkpt lat="43.2762733" lon="11.2440283"><ele>210.33333333333334</ele><time>2026-05-03T10:28:42.163Z</time></trkpt><trkpt lat="43.2764167" lon="11.2438783"><ele>211.66666666666669</ele><time>2026-05-03T10:28:43.163Z</time></trkpt><trkpt lat="43.2765783" lon="11.2437483"><ele>213.0</ele><time>2026-05-03T10:28:44.163Z</time></trkpt><trkpt lat="43.2767483" lon="11.2436217"><ele>213.0</ele><time>2026-05-03T10:28:45.162Z</time></trkpt><trkpt lat="43.27692" lon="11.2434917"><ele>213.0</ele><time>2026-05-03T10:28:46.164Z</time></trkpt><trkpt lat="43.2770967" lon="11.2433633"><ele>213.0</ele><time>2026-05-03T10:28:47.163Z</time></trkpt><trkpt lat="43.27728" lon="11.2432333"><ele>212.33333333333331</ele><time>2026-05-03T10:28:48.162Z</time></trkpt><trkpt lat="43.277465" lon="11.2431033"><ele>211.66666666666666</ele><time>2026-05-03T10:28:49.163Z</time></trkpt><trkpt lat="43.277655" lon="11.2429633"><ele>211.0</ele><time>2026-05-03T10:28:50.164Z</time></trkpt><trkpt lat="43.27785" lon="11.242815"><ele>211.0</ele><time>2026-05-03T10:28:51.165Z</time></trkpt><trkpt lat="43.278045" lon="11.2426717"><ele>211.0</ele><time>2026-05-03T10:28:52.165Z</time></trkpt><trkpt lat="43.278245" lon="11.2425283"><ele>211.0</ele><time>2026-05-03T10:28:53.164Z</time></trkpt><trkpt lat="43.2784417" lon="11.2423867"><ele>206.5</ele><time>2026-05-03T10:28:54.164Z</time></trkpt><trkpt lat="43.2786417" lon="11.2422417"><ele>202.0</ele><time>2026-05-03T10:28:55.165Z</time></trkpt><trkpt lat="43.2788467" lon="11.2420933"><ele>202.5</ele><time>2026-05-03T10:28:56.164Z</time></trkpt><trkpt lat="43.279055" lon="11.24194"><ele>203.0</ele><time>2026-05-03T10:28:57.164Z</time></trkpt><trkpt lat="43.2792633" lon="11.241785"><ele>203.0</ele><time>2026-05-03T10:28:58.164Z</time></trkpt><trkpt lat="43.2794767" lon="11.2416283"><ele>203.0</ele><time>2026-05-03T10:28:59.164Z</time></trkpt><trkpt lat="43.2796933" lon="11.241475"><ele>203.0</ele><time>2026-05-03T10:29:00.169Z</time></trkpt><trkpt lat="43.2799167" lon="11.2413367"><ele>203.0</ele><time>2026-05-03T10:29:01.164Z</time></trkpt><trkpt lat="43.2801467" lon="11.24122"><ele>203.0</ele><time>2026-05-03T10:29:02.164Z</time></trkpt><trkpt lat="43.2803767" lon="11.24113"><ele>203.0</ele><time>2026-05-03T10:29:03.165Z</time></trkpt><trkpt lat="43.2806033" lon="11.241055"><ele>203.33333333333334</ele><time>2026-05-03T10:29:04.164Z</time></trkpt><trkpt lat="43.2808217" lon="11.2409833"><ele>203.66666666666669</ele><time>2026-05-03T10:29:05.165Z</time></trkpt><trkpt lat="43.2810333" lon="11.2409133"><ele>204.0</ele><time>2026-05-03T10:29:06.164Z</time></trkpt><trkpt lat="43.28123" lon="11.240845"><ele>204.0</ele><time>2026-05-03T10:29:07.162Z</time></trkpt><trkpt lat="43.2814167" lon="11.24078"><ele>204.0</ele><time>2026-05-03T10:29:08.164Z</time></trkpt><trkpt lat="43.28159" lon="11.24072"><ele>204.0</ele><time>2026-05-03T10:29:09.163Z</time></trkpt><trkpt lat="43.2817533" lon="11.240665"><ele>205.33333333333331</ele><time>2026-05-03T10:29:10.164Z</time></trkpt><trkpt lat="43.2819067" lon="11.2406033"><ele>206.66666666666666</ele><time>2026-05-03T10:29:11.162Z</time></trkpt><trkpt lat="43.282055" lon="11.2405267"><ele>208.0</ele><time>2026-05-03T10:29:12.162Z</time></trkpt><trkpt lat="43.2822033" lon="11.2404133"><ele>207.0</ele><time>2026-05-03T10:29:13.163Z</time></trkpt><trkpt lat="43.2823467" lon="11.2402517"><ele>206.0</ele><time>2026-05-03T10:29:14.164Z</time></trkpt><trkpt lat="43.2824817" lon="11.2400467"><ele>205.0</ele><time>2026-05-03T10:29:15.164Z</time></trkpt><trkpt lat="43.282605" lon="11.239815"><ele>205.0</ele><time>2026-05-03T10:29:16.167Z</time></trkpt><trkpt lat="43.2827183" lon="11.2395867"><ele>205.0</ele><time>2026-05-03T10:29:17.163Z</time></trkpt><trkpt lat="43.2828233" lon="11.2393733"><ele>205.0</ele><time>2026-05-03T10:29:18.164Z</time></trkpt><trkpt lat="43.2829233" lon="11.2391733"><ele>205.0</ele><time>2026-05-03T10:29:19.163Z</time></trkpt><trkpt lat="43.2830183" lon="11.238995"><ele>205.0</ele><time>2026-05-03T10:29:20.165Z</time></trkpt><trkpt lat="43.2831067" lon="11.2388533"><ele>205.0</ele><time>2026-05-03T10:29:21.165Z</time></trkpt><trkpt lat="43.28319" lon="11.2387633"><ele>205.0</ele><time>2026-05-03T10:29:22.164Z</time></trkpt><trkpt lat="43.28327" lon="11.2387217"><ele>205.4</ele><time>2026-05-03T10:29:23.164Z</time></trkpt><trkpt lat="43.2833433" lon="11.2387083"><ele>205.8</ele><time>2026-05-03T10:29:24.164Z</time></trkpt><trkpt lat="43.283415" lon="11.2387367"><ele>206.2</ele><time>2026-05-03T10:29:25.164Z</time></trkpt><trkpt lat="43.2834967" lon="11.2387867"><ele>206.6</ele><time>2026-05-03T10:29:26.164Z</time></trkpt><trkpt lat="43.2835983" lon="11.2388383"><ele>207.0</ele><time>2026-05-03T10:29:27.164Z</time></trkpt><trkpt lat="43.2837067" lon="11.2388883"><ele>207.0</ele><time>2026-05-03T10:29:28.166Z</time></trkpt><trkpt lat="43.2838233" lon="11.2389417"><ele>207.0</ele><time>2026-05-03T10:29:29.164Z</time></trkpt><trkpt lat="43.283945" lon="11.239"><ele>207.0</ele><time>2026-05-03T10:29:30.164Z</time></trkpt><trkpt lat="43.284075" lon="11.23906"><ele>207.0</ele><time>2026-05-03T10:29:31.164Z</time></trkpt><trkpt lat="43.284215" lon="11.239125"><ele>206.66666666666669</ele><time>2026-05-03T10:29:32.164Z</time></trkpt><trkpt lat="43.2843633" lon="11.2391917"><ele>206.33333333333334</ele><time>2026-05-03T10:29:33.165Z</time></trkpt><trkpt lat="43.28452" lon="11.2392583"><ele>206.0</ele><time>2026-05-03T10:29:34.165Z</time></trkpt><trkpt lat="43.28468" lon="11.23933"><ele>205.66666666666669</ele><time>2026-05-03T10:29:35.166Z</time></trkpt><trkpt lat="43.2848417" lon="11.239405"><ele>205.33333333333331</ele><time>2026-05-03T10:29:36.164Z</time></trkpt><trkpt lat="43.285005" lon="11.23948"><ele>205.0</ele><time>2026-05-03T10:29:37.163Z</time></trkpt><trkpt lat="43.2851717" lon="11.2395517"><ele>205.0</ele><time>2026-05-03T10:29:38.164Z</time></trkpt><trkpt lat="43.2853383" lon="11.239625"><ele>205.0</ele><time>2026-05-03T10:29:39.163Z</time></trkpt><trkpt lat="43.2855017" lon="11.239705"><ele>205.0</ele><time>2026-05-03T10:29:40.166Z</time></trkpt><trkpt lat="43.2856517" lon="11.239805"><ele>204.5</ele><time>2026-05-03T10:29:41.164Z</time></trkpt><trkpt lat="43.2858983" lon="11.2401183"><ele>204.0</ele><time>2026-05-03T10:29:43.164Z</time></trkpt><trkpt lat="43.2859967" lon="11.24032"><ele>204.0</ele><time>2026-05-03T10:29:44.164Z</time></trkpt><trkpt lat="43.2860933" lon="11.2405317"><ele>204.0</ele><time>2026-05-03T10:29:45.164Z</time></trkpt><trkpt lat="43.286195" lon="11.240745"><ele>204.0</ele><time>2026-05-03T10:29:46.163Z</time></trkpt><trkpt lat="43.28631" lon="11.24095"><ele>204.33333333333331</ele><time>2026-05-03T10:29:47.164Z</time></trkpt><trkpt lat="43.28644" lon="11.24113"><ele>204.66666666666666</ele><time>2026-05-03T10:29:48.163Z</time></trkpt><trkpt lat="43.2865883" lon="11.2412817"><ele>205.0</ele><time>2026-05-03T10:29:49.164Z</time></trkpt><trkpt lat="43.2867483" lon="11.2414167"><ele>204.66666666666666</ele><time>2026-05-03T10:29:50.165Z</time></trkpt><trkpt lat="43.2869133" lon="11.2415467"><ele>204.33333333333331</ele><time>2026-05-03T10:29:51.164Z</time></trkpt><trkpt lat="43.2870767" lon="11.2416783"><ele>204.0</ele><time>2026-05-03T10:29:52.164Z</time></trkpt><trkpt lat="43.2872433" lon="11.2418117"><ele>205.0</ele><time>2026-05-03T10:29:53.165Z</time></trkpt><trkpt lat="43.28741" lon="11.2419433"><ele>206.0</ele><time>2026-05-03T10:29:54.164Z</time></trkpt><trkpt lat="43.2875767" lon="11.2420733"><ele>207.0</ele><time>2026-05-03T10:29:55.165Z</time></trkpt><trkpt lat="43.28774" lon="11.2422067"><ele>207.66666666666669</ele><time>2026-05-03T10:29:56.164Z</time></trkpt><trkpt lat="43.287905" lon="11.2423417"><ele>208.33333333333334</ele><time>2026-05-03T10:29:57.164Z</time></trkpt><trkpt lat="43.2880683" lon="11.2424733"><ele>209.0</ele><time>2026-05-03T10:29:58.164Z</time></trkpt><trkpt lat="43.2882217" lon="11.2426033"><ele>209.0</ele><time>2026-05-03T10:29:59.164Z</time></trkpt><trkpt lat="43.2883633" lon="11.24273"><ele>209.0</ele><time>2026-05-03T10:30:00.164Z</time></trkpt><trkpt lat="43.2884883" lon="11.242865"><ele>209.0</ele><time>2026-05-03T10:30:01.163Z</time></trkpt><trkpt lat="43.2885883" lon="11.2430133"><ele>208.75</ele><time>2026-05-03T10:30:02.164Z</time></trkpt><trkpt lat="43.2886633" lon="11.24317"><ele>208.5</ele><time>2026-05-03T10:30:03.164Z</time></trkpt><trkpt lat="43.2887283" lon="11.243325"><ele>208.25</ele><time>2026-05-03T10:30:04.164Z</time></trkpt><trkpt lat="43.2887867" lon="11.2434667"><ele>208.0</ele><time>2026-05-03T10:30:05.165Z</time></trkpt><trkpt lat="43.288845" lon="11.243605"><ele>208.0</ele><time>2026-05-03T10:30:06.165Z</time></trkpt><trkpt lat="43.288905" lon="11.2437483"><ele>208.0</ele><time>2026-05-03T10:30:07.164Z</time></trkpt><trkpt lat="43.2889633" lon="11.2438967"><ele>208.0</ele><time>2026-05-03T10:30:08.167Z</time></trkpt><trkpt lat="43.2890183" lon="11.2440517"><ele>208.0</ele><time>2026-05-03T10:30:09.163Z</time></trkpt><trkpt lat="43.28906" lon="11.2442183"><ele>208.0</ele><time>2026-05-03T10:30:10.163Z</time></trkpt><trkpt lat="43.2890817" lon="11.24439"><ele>208.0</ele><time>2026-05-03T10:30:11.163Z</time></trkpt><trkpt lat="43.2890933" lon="11.244575"><ele>208.0</ele><time>2026-05-03T10:30:12.164Z</time></trkpt><trkpt lat="43.2891017" lon="11.2447683"><ele>208.0</ele><time>2026-05-03T10:30:13.163Z</time></trkpt><trkpt lat="43.28911" lon="11.2449767"><ele>208.0</ele><time>2026-05-03T10:30:14.164Z</time></trkpt><trkpt lat="43.28912" lon="11.245195"><ele>208.0</ele><time>2026-05-03T10:30:15.163Z</time></trkpt><trkpt lat="43.2891333" lon="11.2454283"><ele>208.0</ele><time>2026-05-03T10:30:16.163Z</time></trkpt><trkpt lat="43.289145" lon="11.2456667"><ele>206.66666666666666</ele><time>2026-05-03T10:30:17.165Z</time></trkpt><trkpt lat="43.2891567" lon="11.2459133"><ele>205.33333333333331</ele><time>2026-05-03T10:30:18.163Z</time></trkpt><trkpt lat="43.2891683" lon="11.2461667"><ele>204.0</ele><time>2026-05-03T10:30:19.165Z</time></trkpt><trkpt lat="43.2891833" lon="11.2464217"><ele>203.33333333333331</ele><time>2026-05-03T10:30:20.167Z</time></trkpt><trkpt lat="43.2892" lon="11.2466817"><ele>202.66666666666666</ele><time>2026-05-03T10:30:21.166Z</time></trkpt><trkpt lat="43.28922" lon="11.2469417"><ele>202.0</ele><time>2026-05-03T10:30:22.165Z</time></trkpt><trkpt lat="43.28924" lon="11.2472"><ele>202.0</ele><time>2026-05-03T10:30:23.163Z</time></trkpt><trkpt lat="43.28926" lon="11.24746"><ele>202.0</ele><time>2026-05-03T10:30:24.165Z</time></trkpt><trkpt lat="43.2892867" lon="11.2477233"><ele>202.0</ele><time>2026-05-03T10:30:25.165Z</time></trkpt><trkpt lat="43.2893117" lon="11.24799"><ele>202.0</ele><time>2026-05-03T10:30:26.164Z</time></trkpt><trkpt lat="43.2893367" lon="11.248255"><ele>202.0</ele><time>2026-05-03T10:30:27.165Z</time></trkpt><trkpt lat="43.2893633" lon="11.2485217"><ele>202.0</ele><time>2026-05-03T10:30:28.164Z</time></trkpt><trkpt lat="43.2893917" lon="11.2487917"><ele>201.66666666666666</ele><time>2026-05-03T10:30:29.163Z</time></trkpt><trkpt lat="43.2894183" lon="11.24906"><ele>201.33333333333331</ele><time>2026-05-03T10:30:30.165Z</time></trkpt><trkpt lat="43.2894417" lon="11.2493267"><ele>201.0</ele><time>2026-05-03T10:30:31.162Z</time></trkpt><trkpt lat="43.2894667" lon="11.249585"><ele>201.33333333333331</ele><time>2026-05-03T10:30:32.166Z</time></trkpt><trkpt lat="43.28949" lon="11.2498417"><ele>201.66666666666666</ele><time>2026-05-03T10:30:33.165Z</time></trkpt><trkpt lat="43.2895133" lon="11.2501"><ele>202.0</ele><time>2026-05-03T10:30:34.165Z</time></trkpt><trkpt lat="43.2895367" lon="11.25036"><ele>202.0</ele><time>2026-05-03T10:30:35.165Z</time></trkpt><trkpt lat="43.28956" lon="11.2506183"><ele>202.0</ele><time>2026-05-03T10:30:36.165Z</time></trkpt><trkpt lat="43.2895833" lon="11.250875"><ele>202.0</ele><time>2026-05-03T10:30:37.163Z</time></trkpt><trkpt lat="43.2896067" lon="11.2511283"><ele>201.33333333333331</ele><time>2026-05-03T10:30:38.161Z</time></trkpt><trkpt lat="43.2896333" lon="11.2513833"><ele>200.66666666666669</ele><time>2026-05-03T10:30:39.162Z</time></trkpt><trkpt lat="43.2896567" lon="11.2516383"><ele>200.0</ele><time>2026-05-03T10:30:40.162Z</time></trkpt><trkpt lat="43.2896783" lon="11.2519"><ele>200.0</ele><time>2026-05-03T10:30:41.163Z</time></trkpt><trkpt lat="43.2897" lon="11.252165"><ele>200.0</ele><time>2026-05-03T10:30:42.162Z</time></trkpt><trkpt lat="43.2897267" lon="11.252435"><ele>200.0</ele><time>2026-05-03T10:30:43.163Z</time></trkpt><trkpt lat="43.2897517" lon="11.2527033"><ele>200.66666666666669</ele><time>2026-05-03T10:30:44.162Z</time></trkpt><trkpt lat="43.2897733" lon="11.252975"><ele>201.33333333333331</ele><time>2026-05-03T10:30:45.167Z</time></trkpt><trkpt lat="43.289795" lon="11.2532433"><ele>202.0</ele><time>2026-05-03T10:30:46.164Z</time></trkpt><trkpt lat="43.2898117" lon="11.2535067"><ele>202.33333333333331</ele><time>2026-05-03T10:30:47.165Z</time></trkpt><trkpt lat="43.289825" lon="11.253775"><ele>202.66666666666669</ele><time>2026-05-03T10:30:48.165Z</time></trkpt><trkpt lat="43.289835" lon="11.254045"><ele>203.0</ele><time>2026-05-03T10:30:49.165Z</time></trkpt><trkpt lat="43.28985" lon="11.25432"><ele>203.0</ele><time>2026-05-03T10:30:50.165Z</time></trkpt><trkpt lat="43.2898633" lon="11.2545933"><ele>203.0</ele><time>2026-05-03T10:30:51.165Z</time></trkpt><trkpt lat="43.289875" lon="11.2548667"><ele>203.0</ele><time>2026-05-03T10:30:52.165Z</time></trkpt><trkpt lat="43.289885" lon="11.255145"><ele>203.0</ele><time>2026-05-03T10:30:53.165Z</time></trkpt><trkpt lat="43.289895" lon="11.255415"><ele>203.0</ele><time>2026-05-03T10:30:54.165Z</time></trkpt><trkpt lat="43.2899083" lon="11.255695"><ele>203.0</ele><time>2026-05-03T10:30:55.165Z</time></trkpt><trkpt lat="43.2899183" lon="11.25597"><ele>203.0</ele><time>2026-05-03T10:30:56.162Z</time></trkpt><trkpt lat="43.2899317" lon="11.2562417"><ele>203.0</ele><time>2026-05-03T10:30:57.167Z</time></trkpt><trkpt lat="43.2899467" lon="11.2565083"><ele>203.0</ele><time>2026-05-03T10:30:58.165Z</time></trkpt><trkpt lat="43.28996" lon="11.2567683"><ele>202.66666666666669</ele><time>2026-05-03T10:30:59.166Z</time></trkpt><trkpt lat="43.28997" lon="11.2570317"><ele>202.33333333333331</ele><time>2026-05-03T10:31:00.165Z</time></trkpt><trkpt lat="43.2899867" lon="11.2572967"><ele>202.0</ele><time>2026-05-03T10:31:01.165Z</time></trkpt><trkpt lat="43.2900017" lon="11.25757"><ele>202.0</ele><time>2026-05-03T10:31:02.164Z</time></trkpt><trkpt lat="43.2900117" lon="11.2578483"><ele>202.0</ele><time>2026-05-03T10:31:03.165Z</time></trkpt><trkpt lat="43.2900183" lon="11.2581267"><ele>202.0</ele><time>2026-05-03T10:31:04.165Z</time></trkpt><trkpt lat="43.2900317" lon="11.2584133"><ele>202.33333333333331</ele><time>2026-05-03T10:31:05.165Z</time></trkpt><trkpt lat="43.2900417" lon="11.258705"><ele>202.66666666666669</ele><time>2026-05-03T10:31:06.165Z</time></trkpt><trkpt lat="43.290055" lon="11.2589983"><ele>203.0</ele><time>2026-05-03T10:31:07.166Z</time></trkpt><trkpt lat="43.2900667" lon="11.2592917"><ele>203.33333333333334</ele><time>2026-05-03T10:31:08.166Z</time></trkpt><trkpt lat="43.2900767" lon="11.2595817"><ele>203.66666666666669</ele><time>2026-05-03T10:31:09.165Z</time></trkpt><trkpt lat="43.2900867" lon="11.2598683"><ele>204.0</ele><time>2026-05-03T10:31:10.162Z</time></trkpt><trkpt lat="43.2900967" lon="11.2601583"><ele>204.0</ele><time>2026-05-03T10:31:11.165Z</time></trkpt><trkpt lat="43.2901083" lon="11.2604533"><ele>204.0</ele><time>2026-05-03T10:31:12.165Z</time></trkpt><trkpt lat="43.29012" lon="11.260745"><ele>204.0</ele><time>2026-05-03T10:31:13.165Z</time></trkpt><trkpt lat="43.2901317" lon="11.261035"><ele>204.66666666666669</ele><time>2026-05-03T10:31:14.165Z</time></trkpt><trkpt lat="43.2901433" lon="11.2613183"><ele>205.33333333333334</ele><time>2026-05-03T10:31:15.165Z</time></trkpt><trkpt lat="43.290155" lon="11.2616017"><ele>206.0</ele><time>2026-05-03T10:31:16.165Z</time></trkpt><trkpt lat="43.2901617" lon="11.2618867"><ele>206.0</ele><time>2026-05-03T10:31:17.165Z</time></trkpt><trkpt lat="43.2901717" lon="11.2621817"><ele>206.0</ele><time>2026-05-03T10:31:18.165Z</time></trkpt><trkpt lat="43.2901817" lon="11.2624933"><ele>206.0</ele><time>2026-05-03T10:31:19.166Z</time></trkpt><trkpt lat="43.290195" lon="11.26281"><ele>206.0</ele><time>2026-05-03T10:31:20.165Z</time></trkpt><trkpt lat="43.2902083" lon="11.2631317"><ele>206.0</ele><time>2026-05-03T10:31:21.165Z</time></trkpt><trkpt lat="43.29022" lon="11.2634617"><ele>206.0</ele><time>2026-05-03T10:31:22.165Z</time></trkpt><trkpt lat="43.2902333" lon="11.2637867"><ele>206.0</ele><time>2026-05-03T10:31:23.165Z</time></trkpt><trkpt lat="43.2902417" lon="11.2641167"><ele>206.5</ele><time>2026-05-03T10:31:24.165Z</time></trkpt><trkpt lat="43.2902567" lon="11.2644467"><ele>207.0</ele><time>2026-05-03T10:31:25.165Z</time></trkpt><trkpt lat="43.2902667" lon="11.264775"><ele>207.5</ele><time>2026-05-03T10:31:26.165Z</time></trkpt><trkpt lat="43.2902767" lon="11.2651133"><ele>208.0</ele><time>2026-05-03T10:31:27.166Z</time></trkpt><trkpt lat="43.2902867" lon="11.2654517"><ele>209.0</ele><time>2026-05-03T10:31:28.165Z</time></trkpt><trkpt lat="43.290295" lon="11.26578"><ele>210.0</ele><time>2026-05-03T10:31:29.166Z</time></trkpt><trkpt lat="43.2902983" lon="11.2660867"><ele>210.0</ele><time>2026-05-03T10:31:30.164Z</time></trkpt><trkpt lat="43.290305" lon="11.266375"><ele>210.0</ele><time>2026-05-03T10:31:31.164Z</time></trkpt><trkpt lat="43.2903083" lon="11.266645"><ele>210.0</ele><time>2026-05-03T10:31:32.164Z</time></trkpt><trkpt lat="43.2903133" lon="11.2669"><ele>210.0</ele><time>2026-05-03T10:31:33.164Z</time></trkpt><trkpt lat="43.2903167" lon="11.2671467"><ele>210.0</ele><time>2026-05-03T10:31:34.164Z</time></trkpt><trkpt lat="43.2903217" lon="11.26739"><ele>210.0</ele><time>2026-05-03T10:31:35.165Z</time></trkpt><trkpt lat="43.2903183" lon="11.2676267"><ele>211.0</ele><time>2026-05-03T10:31:36.164Z</time></trkpt><trkpt lat="43.2903133" lon="11.267855"><ele>212.0</ele><time>2026-05-03T10:31:37.164Z</time></trkpt><trkpt lat="43.2902933" lon="11.2680633"><ele>213.0</ele><time>2026-05-03T10:31:38.161Z</time></trkpt><trkpt lat="43.2902467" lon="11.26826"><ele>213.66666666666669</ele><time>2026-05-03T10:31:39.165Z</time></trkpt><trkpt lat="43.2901717" lon="11.268445"><ele>214.33333333333334</ele><time>2026-05-03T10:31:40.164Z</time></trkpt><trkpt lat="43.290075" lon="11.268625"><ele>215.0</ele><time>2026-05-03T10:31:41.162Z</time></trkpt><trkpt lat="43.28997" lon="11.2688033"><ele>216.33333333333334</ele><time>2026-05-03T10:31:42.161Z</time></trkpt><trkpt lat="43.2898617" lon="11.26898"><ele>217.66666666666669</ele><time>2026-05-03T10:31:43.162Z</time></trkpt><trkpt lat="43.2897583" lon="11.2691467"><ele>219.0</ele><time>2026-05-03T10:31:44.165Z</time></trkpt><trkpt lat="43.2896633" lon="11.269305"><ele>219.0</ele><time>2026-05-03T10:31:45.162Z</time></trkpt><trkpt lat="43.2895733" lon="11.2694567"><ele>219.0</ele><time>2026-05-03T10:31:46.164Z</time></trkpt><trkpt lat="43.28948" lon="11.2696117"><ele>219.0</ele><time>2026-05-03T10:31:47.163Z</time></trkpt><trkpt lat="43.289385" lon="11.2697733"><ele>219.0</ele><time>2026-05-03T10:31:48.165Z</time></trkpt><trkpt lat="43.2892867" lon="11.2699367"><ele>219.75</ele><time>2026-05-03T10:31:49.162Z</time></trkpt><trkpt lat="43.28919" lon="11.270095"><ele>220.5</ele><time>2026-05-03T10:31:50.164Z</time></trkpt><trkpt lat="43.2890983" lon="11.2702483"><ele>221.25</ele><time>2026-05-03T10:31:51.161Z</time></trkpt><trkpt lat="43.2890183" lon="11.2703817"><ele>222.0</ele><time>2026-05-03T10:31:52.164Z</time></trkpt><trkpt lat="43.28895" lon="11.2705"><ele>222.16666666666666</ele><time>2026-05-03T10:31:53.164Z</time></trkpt><trkpt lat="43.2888983" lon="11.27059"><ele>222.33333333333331</ele><time>2026-05-03T10:31:54.161Z</time></trkpt><trkpt lat="43.28885" lon="11.270695"><ele>222.5</ele><time>2026-05-03T10:31:56.163Z</time></trkpt><trkpt lat="43.2888667" lon="11.270795"><ele>222.66666666666666</ele><time>2026-05-03T10:31:58.163Z</time></trkpt><trkpt lat="43.288905" lon="11.2708667"><ele>222.83333333333331</ele><time>2026-05-03T10:31:59.163Z</time></trkpt><trkpt lat="43.2889633" lon="11.27095"><ele>223.0</ele><time>2026-05-03T10:32:00.162Z</time></trkpt><trkpt lat="43.2890383" lon="11.2710533"><ele>223.0</ele><time>2026-05-03T10:32:01.164Z</time></trkpt><trkpt lat="43.2891117" lon="11.2711683"><ele>223.0</ele><time>2026-05-03T10:32:02.163Z</time></trkpt><trkpt lat="43.289185" lon="11.2712917"><ele>223.0</ele><time>2026-05-03T10:32:03.165Z</time></trkpt><trkpt lat="43.2892483" lon="11.2714233"><ele>223.0</ele><time>2026-05-03T10:32:04.163Z</time></trkpt><trkpt lat="43.2893083" lon="11.2715567"><ele>223.5</ele><time>2026-05-03T10:32:05.165Z</time></trkpt><trkpt lat="43.2893767" lon="11.2716767"><ele>224.0</ele><time>2026-05-03T10:32:06.164Z</time></trkpt><trkpt lat="43.2894617" lon="11.2717817"><ele>224.5</ele><time>2026-05-03T10:32:07.164Z</time></trkpt><trkpt lat="43.28955" lon="11.271885"><ele>225.0</ele><time>2026-05-03T10:32:08.164Z</time></trkpt><trkpt lat="43.2896383" lon="11.27198"><ele>225.0</ele><time>2026-05-03T10:32:09.164Z</time></trkpt><trkpt lat="43.2897167" lon="11.27208"><ele>225.0</ele><time>2026-05-03T10:32:10.162Z</time></trkpt><trkpt lat="43.2897883" lon="11.2722"><ele>225.0</ele><time>2026-05-03T10:32:11.163Z</time></trkpt><trkpt lat="43.28985" lon="11.272345"><ele>225.0</ele><time>2026-05-03T10:32:12.165Z</time></trkpt><trkpt lat="43.2899183" lon="11.27251"><ele>225.33333333333331</ele><time>2026-05-03T10:32:13.164Z</time></trkpt><trkpt lat="43.2899867" lon="11.2726917"><ele>225.66666666666666</ele><time>2026-05-03T10:32:14.162Z</time></trkpt><trkpt lat="43.290055" lon="11.2728867"><ele>226.0</ele><time>2026-05-03T10:32:15.163Z</time></trkpt><trkpt lat="43.29012" lon="11.273085"><ele>225.5</ele><time>2026-05-03T10:32:16.163Z</time></trkpt><trkpt lat="43.29018" lon="11.2732783"><ele>225.0</ele><time>2026-05-03T10:32:17.164Z</time></trkpt><trkpt lat="43.290235" lon="11.2734683"><ele>224.5</ele><time>2026-05-03T10:32:18.165Z</time></trkpt><trkpt lat="43.2902817" lon="11.2736517"><ele>224.0</ele><time>2026-05-03T10:32:19.165Z</time></trkpt><trkpt lat="43.2903217" lon="11.2738267"><ele>224.2</ele><time>2026-05-03T10:32:20.164Z</time></trkpt><trkpt lat="43.2903567" lon="11.273985"><ele>224.39999999999998</ele><time>2026-05-03T10:32:21.165Z</time></trkpt><trkpt lat="43.290385" lon="11.274125"><ele>224.6</ele><time>2026-05-03T10:32:22.162Z</time></trkpt><trkpt lat="43.2904133" lon="11.274245"><ele>224.8</ele><time>2026-05-03T10:32:23.165Z</time></trkpt><trkpt lat="43.2904517" lon="11.274345"><ele>225.0</ele><time>2026-05-03T10:32:24.161Z</time></trkpt><trkpt lat="43.290505" lon="11.2744117"><ele>225.0</ele><time>2026-05-03T10:32:25.164Z</time></trkpt><trkpt lat="43.29057" lon="11.2744517"><ele>225.0</ele><time>2026-05-03T10:32:26.162Z</time></trkpt><trkpt lat="43.2906667" lon="11.2744567"><ele>225.0</ele><time>2026-05-03T10:32:27.164Z</time></trkpt><trkpt lat="43.2907967" lon="11.27446"><ele>225.0</ele><time>2026-05-03T10:32:28.164Z</time></trkpt><trkpt lat="43.2909517" lon="11.2744833"><ele>223.33333333333331</ele><time>2026-05-03T10:32:29.164Z</time></trkpt><trkpt lat="43.29112" lon="11.2745167"><ele>221.66666666666666</ele><time>2026-05-03T10:32:30.163Z</time></trkpt><trkpt lat="43.291295" lon="11.2745533"><ele>220.0</ele><time>2026-05-03T10:32:31.164Z</time></trkpt><trkpt lat="43.2914733" lon="11.2745933"><ele>219.33333333333331</ele><time>2026-05-03T10:32:32.169Z</time></trkpt><trkpt lat="43.2916583" lon="11.2746367"><ele>218.66666666666669</ele><time>2026-05-03T10:32:33.165Z</time></trkpt><trkpt lat="43.2918467" lon="11.2746817"><ele>218.0</ele><time>2026-05-03T10:32:34.164Z</time></trkpt><trkpt lat="43.2920367" lon="11.2747267"><ele>218.0</ele><time>2026-05-03T10:32:35.165Z</time></trkpt><trkpt lat="43.2922283" lon="11.2747683"><ele>218.0</ele><time>2026-05-03T10:32:36.164Z</time></trkpt><trkpt lat="43.2924167" lon="11.2748083"><ele>218.0</ele><time>2026-05-03T10:32:37.164Z</time></trkpt><trkpt lat="43.2926033" lon="11.2748483"><ele>217.5</ele><time>2026-05-03T10:32:38.164Z</time></trkpt><trkpt lat="43.292965" lon="11.2749333"><ele>217.0</ele><time>2026-05-03T10:32:40.164Z</time></trkpt><trkpt lat="43.293145" lon="11.2749633"><ele>218.33333333333331</ele><time>2026-05-03T10:32:41.163Z</time></trkpt><trkpt lat="43.2933233" lon="11.2749783"><ele>219.66666666666669</ele><time>2026-05-03T10:32:42.164Z</time></trkpt><trkpt lat="43.2935033" lon="11.2749717"><ele>221.0</ele><time>2026-05-03T10:32:43.164Z</time></trkpt><trkpt lat="43.2936833" lon="11.2749533"><ele>221.0</ele><time>2026-05-03T10:32:44.164Z</time></trkpt><trkpt lat="43.29386" lon="11.2749317"><ele>221.0</ele><time>2026-05-03T10:32:45.163Z</time></trkpt><trkpt lat="43.29404" lon="11.2749083"><ele>221.0</ele><time>2026-05-03T10:32:46.165Z</time></trkpt><trkpt lat="43.2942233" lon="11.274885"><ele>222.33333333333334</ele><time>2026-05-03T10:32:47.165Z</time></trkpt><trkpt lat="43.2944" lon="11.2748617"><ele>223.66666666666669</ele><time>2026-05-03T10:32:48.166Z</time></trkpt><trkpt lat="43.2945783" lon="11.27484"><ele>225.0</ele><time>2026-05-03T10:32:49.165Z</time></trkpt><trkpt lat="43.2947633" lon="11.2748183"><ele>225.0</ele><time>2026-05-03T10:32:50.165Z</time></trkpt><trkpt lat="43.2949467" lon="11.2748067"><ele>225.0</ele><time>2026-05-03T10:32:51.164Z</time></trkpt><trkpt lat="43.2951333" lon="11.2748133"><ele>225.0</ele><time>2026-05-03T10:32:52.165Z</time></trkpt><trkpt lat="43.2953217" lon="11.274855"><ele>225.0</ele><time>2026-05-03T10:32:53.165Z</time></trkpt><trkpt lat="43.2955067" lon="11.274935"><ele>225.0</ele><time>2026-05-03T10:32:54.165Z</time></trkpt><trkpt lat="43.29569" lon="11.2750433"><ele>225.0</ele><time>2026-05-03T10:32:55.162Z</time></trkpt><trkpt lat="43.2958717" lon="11.2751683"><ele>224.66666666666669</ele><time>2026-05-03T10:32:56.162Z</time></trkpt><trkpt lat="43.2960517" lon="11.2753"><ele>224.33333333333334</ele><time>2026-05-03T10:32:57.162Z</time></trkpt><trkpt lat="43.2962383" lon="11.2754333"><ele>224.0</ele><time>2026-05-03T10:32:58.163Z</time></trkpt><trkpt lat="43.2964217" lon="11.27556"><ele>224.33333333333334</ele><time>2026-05-03T10:32:59.162Z</time></trkpt><trkpt lat="43.2965967" lon="11.2756833"><ele>224.66666666666669</ele><time>2026-05-03T10:33:00.162Z</time></trkpt><trkpt lat="43.2967683" lon="11.2758033"><ele>225.0</ele><time>2026-05-03T10:33:01.162Z</time></trkpt><trkpt lat="43.2969367" lon="11.275925"><ele>225.0</ele><time>2026-05-03T10:33:02.163Z</time></trkpt><trkpt lat="43.2971067" lon="11.2760367"><ele>225.0</ele><time>2026-05-03T10:33:03.167Z</time></trkpt><trkpt lat="43.29728" lon="11.27613"><ele>225.0</ele><time>2026-05-03T10:33:04.164Z</time></trkpt><trkpt lat="43.29747" lon="11.276185"><ele>225.0</ele><time>2026-05-03T10:33:05.165Z</time></trkpt><trkpt lat="43.2976717" lon="11.2761983"><ele>225.0</ele><time>2026-05-03T10:33:06.165Z</time></trkpt><trkpt lat="43.2978817" lon="11.276185"><ele>225.0</ele><time>2026-05-03T10:33:07.162Z</time></trkpt><trkpt lat="43.298095" lon="11.2761617"><ele>225.66666666666669</ele><time>2026-05-03T10:33:08.165Z</time></trkpt><trkpt lat="43.2983183" lon="11.27612"><ele>226.33333333333334</ele><time>2026-05-03T10:33:09.164Z</time></trkpt><trkpt lat="43.2985383" lon="11.2760667"><ele>227.0</ele><time>2026-05-03T10:33:10.162Z</time></trkpt><trkpt lat="43.298755" lon="11.2760117"><ele>228.0</ele><time>2026-05-03T10:33:11.164Z</time></trkpt><trkpt lat="43.2989617" lon="11.2759533"><ele>229.0</ele><time>2026-05-03T10:33:12.166Z</time></trkpt><trkpt lat="43.299155" lon="11.2758933"><ele>230.0</ele><time>2026-05-03T10:33:13.164Z</time></trkpt><trkpt lat="43.299335" lon="11.2758283"><ele>230.0</ele><time>2026-05-03T10:33:14.163Z</time></trkpt><trkpt lat="43.2995033" lon="11.2757483"><ele>230.0</ele><time>2026-05-03T10:33:15.164Z</time></trkpt><trkpt lat="43.29967" lon="11.27564"><ele>230.0</ele><time>2026-05-03T10:33:16.165Z</time></trkpt><trkpt lat="43.2998333" lon="11.2754933"><ele>230.66666666666669</ele><time>2026-05-03T10:33:17.166Z</time></trkpt><trkpt lat="43.29998" lon="11.2753217"><ele>231.33333333333331</ele><time>2026-05-03T10:33:18.165Z</time></trkpt><trkpt lat="43.3001367" lon="11.2751683"><ele>232.0</ele><time>2026-05-03T10:33:19.161Z</time></trkpt><trkpt lat="43.3003033" lon="11.2750633"><ele>232.0</ele><time>2026-05-03T10:33:20.165Z</time></trkpt><trkpt lat="43.300475" lon="11.2750083"><ele>232.0</ele><time>2026-05-03T10:33:21.165Z</time></trkpt><trkpt lat="43.3006583" lon="11.2750083"><ele>232.0</ele><time>2026-05-03T10:33:22.165Z</time></trkpt><trkpt lat="43.300855" lon="11.2750433"><ele>234.0</ele><time>2026-05-03T10:33:23.165Z</time></trkpt><trkpt lat="43.3010583" lon="11.2751033"><ele>236.0</ele><time>2026-05-03T10:33:24.166Z</time></trkpt><trkpt lat="43.3012667" lon="11.27518"><ele>238.0</ele><time>2026-05-03T10:33:25.164Z</time></trkpt><trkpt lat="43.3014617" lon="11.2752683"><ele>240.0</ele><time>2026-05-03T10:33:26.163Z</time></trkpt><trkpt lat="43.3016483" lon="11.2753617"><ele>242.0</ele><time>2026-05-03T10:33:27.162Z</time></trkpt><trkpt lat="43.301835" lon="11.2754483"><ele>244.0</ele><time>2026-05-03T10:33:28.162Z</time></trkpt><trkpt lat="43.302025" lon="11.275515"><ele>244.0</ele><time>2026-05-03T10:33:29.163Z</time></trkpt><trkpt lat="43.302225" lon="11.2755667"><ele>244.0</ele><time>2026-05-03T10:33:30.163Z</time></trkpt><trkpt lat="43.3024333" lon="11.275595"><ele>244.0</ele><time>2026-05-03T10:33:31.163Z</time></trkpt><trkpt lat="43.30264" lon="11.2755933"><ele>244.66666666666666</ele><time>2026-05-03T10:33:32.163Z</time></trkpt><trkpt lat="43.3028417" lon="11.2755867"><ele>245.33333333333331</ele><time>2026-05-03T10:33:33.165Z</time></trkpt><trkpt lat="43.3030333" lon="11.2755833"><ele>246.0</ele><time>2026-05-03T10:33:34.164Z</time></trkpt><trkpt lat="43.3032283" lon="11.27559"><ele>246.33333333333331</ele><time>2026-05-03T10:33:35.163Z</time></trkpt><trkpt lat="43.303415" lon="11.2756067"><ele>246.66666666666666</ele><time>2026-05-03T10:33:36.161Z</time></trkpt><trkpt lat="43.3036017" lon="11.27565"><ele>247.0</ele><time>2026-05-03T10:33:37.165Z</time></trkpt><trkpt lat="43.30379" lon="11.2757233"><ele>248.33333333333331</ele><time>2026-05-03T10:33:38.162Z</time></trkpt><trkpt lat="43.30397" lon="11.2758317"><ele>249.66666666666669</ele><time>2026-05-03T10:33:39.164Z</time></trkpt><trkpt lat="43.3041467" lon="11.2759667"><ele>251.0</ele><time>2026-05-03T10:33:40.165Z</time></trkpt><trkpt lat="43.304315" lon="11.276105"><ele>251.0</ele><time>2026-05-03T10:33:41.163Z</time></trkpt><trkpt lat="43.3044833" lon="11.2762383"><ele>251.0</ele><time>2026-05-03T10:33:42.162Z</time></trkpt><trkpt lat="43.3046483" lon="11.2763633"><ele>251.0</ele><time>2026-05-03T10:33:43.162Z</time></trkpt><trkpt lat="43.3048167" lon="11.2764567"><ele>250.0</ele><time>2026-05-03T10:33:44.162Z</time></trkpt><trkpt lat="43.3049933" lon="11.27651"><ele>249.0</ele><time>2026-05-03T10:33:45.162Z</time></trkpt><trkpt lat="43.3051817" lon="11.2765183"><ele>248.0</ele><time>2026-05-03T10:33:46.162Z</time></trkpt><trkpt lat="43.3053717" lon="11.2764983"><ele>248.0</ele><time>2026-05-03T10:33:47.166Z</time></trkpt><trkpt lat="43.3055633" lon="11.2764733"><ele>248.0</ele><time>2026-05-03T10:33:48.165Z</time></trkpt><trkpt lat="43.3057567" lon="11.2764483"><ele>248.0</ele><time>2026-05-03T10:33:49.166Z</time></trkpt><trkpt lat="43.3059433" lon="11.2764217"><ele>248.66666666666669</ele><time>2026-05-03T10:33:50.163Z</time></trkpt><trkpt lat="43.3061383" lon="11.27639"><ele>249.33333333333331</ele><time>2026-05-03T10:33:51.165Z</time></trkpt><trkpt lat="43.3063417" lon="11.2763467"><ele>250.0</ele><time>2026-05-03T10:33:52.165Z</time></trkpt><trkpt lat="43.3065517" lon="11.2762917"><ele>250.0</ele><time>2026-05-03T10:33:53.165Z</time></trkpt><trkpt lat="43.3067683" lon="11.2762267"><ele>250.0</ele><time>2026-05-03T10:33:54.166Z</time></trkpt><trkpt lat="43.3069867" lon="11.2761567"><ele>250.0</ele><time>2026-05-03T10:33:55.165Z</time></trkpt><trkpt lat="43.3072033" lon="11.276085"><ele>250.66666666666666</ele><time>2026-05-03T10:33:56.165Z</time></trkpt><trkpt lat="43.3074167" lon="11.2760183"><ele>251.33333333333331</ele><time>2026-05-03T10:33:57.163Z</time></trkpt><trkpt lat="43.3076233" lon="11.2759567"><ele>252.0</ele><time>2026-05-03T10:33:58.169Z</time></trkpt><trkpt lat="43.30783" lon="11.2758983"><ele>252.0</ele><time>2026-05-03T10:33:59.165Z</time></trkpt><trkpt lat="43.30803" lon="11.275855"><ele>252.0</ele><time>2026-05-03T10:34:00.165Z</time></trkpt><trkpt lat="43.3082233" lon="11.2758333"><ele>252.0</ele><time>2026-05-03T10:34:01.165Z</time></trkpt><trkpt lat="43.30842" lon="11.2758367"><ele>254.33333333333331</ele><time>2026-05-03T10:34:02.165Z</time></trkpt><trkpt lat="43.3086133" lon="11.2758733"><ele>256.66666666666663</ele><time>2026-05-03T10:34:03.165Z</time></trkpt><trkpt lat="43.3088067" lon="11.275935"><ele>259.0</ele><time>2026-05-03T10:34:04.162Z</time></trkpt><trkpt lat="43.308995" lon="11.276015"><ele>261.3333333333333</ele><time>2026-05-03T10:34:05.166Z</time></trkpt><trkpt lat="43.309185" lon="11.2761"><ele>263.6666666666667</ele><time>2026-05-03T10:34:06.165Z</time></trkpt><trkpt lat="43.3093833" lon="11.27617"><ele>266.0</ele><time>2026-05-03T10:34:07.165Z</time></trkpt><trkpt lat="43.3095883" lon="11.2762"><ele>268.0</ele><time>2026-05-03T10:34:08.165Z</time></trkpt><trkpt lat="43.3098033" lon="11.2762067"><ele>270.0</ele><time>2026-05-03T10:34:09.166Z</time></trkpt><trkpt lat="43.3100233" lon="11.27619"><ele>272.0</ele><time>2026-05-03T10:34:10.165Z</time></trkpt><trkpt lat="43.3102517" lon="11.276145"><ele>272.0</ele><time>2026-05-03T10:34:11.165Z</time></trkpt><trkpt lat="43.3104783" lon="11.2760767"><ele>272.0</ele><time>2026-05-03T10:34:12.166Z</time></trkpt><trkpt lat="43.31071" lon="11.2760117"><ele>269.5</ele><time>2026-05-03T10:34:13.161Z</time></trkpt><trkpt lat="43.3109433" lon="11.275975"><ele>267.0</ele><time>2026-05-03T10:34:14.164Z</time></trkpt><trkpt lat="43.3111867" lon="11.2759517"><ele>267.0</ele><time>2026-05-03T10:34:15.164Z</time></trkpt><trkpt lat="43.3114233" lon="11.275925"><ele>267.0</ele><time>2026-05-03T10:34:16.164Z</time></trkpt><trkpt lat="43.3116533" lon="11.2758767"><ele>267.0</ele><time>2026-05-03T10:34:17.164Z</time></trkpt><trkpt lat="43.3118717" lon="11.275815"><ele>267.0</ele><time>2026-05-03T10:34:18.164Z</time></trkpt><trkpt lat="43.31209" lon="11.27575"><ele>267.0</ele><time>2026-05-03T10:34:19.164Z</time></trkpt><trkpt lat="43.3123117" lon="11.2756767"><ele>274.5</ele><time>2026-05-03T10:34:20.164Z</time></trkpt><trkpt lat="43.3125367" lon="11.2755967"><ele>282.0</ele><time>2026-05-03T10:34:21.164Z</time></trkpt><trkpt lat="43.312765" lon="11.2755"><ele>282.0</ele><time>2026-05-03T10:34:22.164Z</time></trkpt><trkpt lat="43.313005" lon="11.2753767"><ele>282.0</ele><time>2026-05-03T10:34:23.165Z</time></trkpt><trkpt lat="43.313245" lon="11.2752533"><ele>277.0</ele><time>2026-05-03T10:34:24.164Z</time></trkpt><trkpt lat="43.3134817" lon="11.2751383"><ele>272.0</ele><time>2026-05-03T10:34:25.162Z</time></trkpt><trkpt lat="43.3137133" lon="11.2750233"><ele>268.5</ele><time>2026-05-03T10:34:26.164Z</time></trkpt><trkpt lat="43.3139367" lon="11.27491"><ele>265.0</ele><time>2026-05-03T10:34:27.164Z</time></trkpt><trkpt lat="43.3141517" lon="11.2748"><ele>271.5</ele><time>2026-05-03T10:34:28.165Z</time></trkpt><trkpt lat="43.3143633" lon="11.27468"><ele>278.0</ele><time>2026-05-03T10:34:29.164Z</time></trkpt><trkpt lat="43.31457" lon="11.2745683"><ele>275.0</ele><time>2026-05-03T10:34:30.164Z</time></trkpt><trkpt lat="43.31477" lon="11.2744633"><ele>272.0</ele><time>2026-05-03T10:34:31.166Z</time></trkpt><trkpt lat="43.3149567" lon="11.2743683"><ele>269.0</ele><time>2026-05-03T10:34:32.165Z</time></trkpt><trkpt lat="43.31514" lon="11.2742967"><ele>269.0</ele><time>2026-05-03T10:34:33.164Z</time></trkpt><trkpt lat="43.315335" lon="11.274255"><ele>269.0</ele><time>2026-05-03T10:34:34.164Z</time></trkpt><trkpt lat="43.315535" lon="11.2742433"><ele>269.0</ele><time>2026-05-03T10:34:35.164Z</time></trkpt><trkpt lat="43.3157267" lon="11.274255"><ele>268.0</ele><time>2026-05-03T10:34:36.164Z</time></trkpt><trkpt lat="43.31591" lon="11.27428"><ele>267.0</ele><time>2026-05-03T10:34:37.164Z</time></trkpt><trkpt lat="43.3160833" lon="11.27431"><ele>266.0</ele><time>2026-05-03T10:34:38.164Z</time></trkpt><trkpt lat="43.31624" lon="11.2743367"><ele>266.0</ele><time>2026-05-03T10:34:39.164Z</time></trkpt><trkpt lat="43.31638" lon="11.274365"><ele>266.0</ele><time>2026-05-03T10:34:40.165Z</time></trkpt><trkpt lat="43.3164983" lon="11.2744"><ele>266.0</ele><time>2026-05-03T10:34:41.162Z</time></trkpt><trkpt lat="43.316605" lon="11.2744483"><ele>266.0</ele><time>2026-05-03T10:34:42.164Z</time></trkpt><trkpt lat="43.3167" lon="11.2745183"><ele>266.1666666666667</ele><time>2026-05-03T10:34:43.164Z</time></trkpt><trkpt lat="43.3167717" lon="11.2746017"><ele>266.33333333333337</ele><time>2026-05-03T10:34:44.164Z</time></trkpt><trkpt lat="43.31682" lon="11.2746833"><ele>266.5</ele><time>2026-05-03T10:34:45.164Z</time></trkpt><trkpt lat="43.3168467" lon="11.2747667"><ele>266.6666666666667</ele><time>2026-05-03T10:34:46.164Z</time></trkpt><trkpt lat="43.3168517" lon="11.2748567"><ele>266.8333333333333</ele><time>2026-05-03T10:34:47.164Z</time></trkpt><trkpt lat="43.31683" lon="11.274965"><ele>267.0</ele><time>2026-05-03T10:34:48.17Z</time></trkpt><trkpt lat="43.3167583" lon="11.2750933"><ele>267.0</ele><time>2026-05-03T10:34:49.166Z</time></trkpt><trkpt lat="43.3166567" lon="11.2752183"><ele>267.0</ele><time>2026-05-03T10:34:50.164Z</time></trkpt><trkpt lat="43.3165233" lon="11.2753333"><ele>267.0</ele><time>2026-05-03T10:34:51.164Z</time></trkpt><trkpt lat="43.3163667" lon="11.2754333"><ele>267.3333333333333</ele><time>2026-05-03T10:34:52.164Z</time></trkpt><trkpt lat="43.3161967" lon="11.275535"><ele>267.66666666666663</ele><time>2026-05-03T10:34:53.164Z</time></trkpt><trkpt lat="43.3160333" lon="11.2756367"><ele>268.0</ele><time>2026-05-03T10:34:54.164Z</time></trkpt><trkpt lat="43.3159" lon="11.275735"><ele>270.0</ele><time>2026-05-03T10:34:55.164Z</time></trkpt><trkpt lat="43.3157983" lon="11.2758433"><ele>272.0</ele><time>2026-05-03T10:34:56.164Z</time></trkpt><trkpt lat="43.3157233" lon="11.2759767"><ele>274.0</ele><time>2026-05-03T10:34:57.164Z</time></trkpt><trkpt lat="43.31567" lon="11.2761467"><ele>276.0</ele><time>2026-05-03T10:34:58.164Z</time></trkpt><trkpt lat="43.3156417" lon="11.27635"><ele>278.6666666666667</ele><time>2026-05-03T10:34:59.165Z</time></trkpt><trkpt lat="43.3156433" lon="11.2765767"><ele>281.33333333333337</ele><time>2026-05-03T10:35:00.164Z</time></trkpt><trkpt lat="43.3156733" lon="11.2768117"><ele>284.0</ele><time>2026-05-03T10:35:01.165Z</time></trkpt><trkpt lat="43.3157183" lon="11.2770417"><ele>284.0</ele><time>2026-05-03T10:35:02.164Z</time></trkpt><trkpt lat="43.3157517" lon="11.27726"><ele>284.0</ele><time>2026-05-03T10:35:03.164Z</time></trkpt><trkpt lat="43.3157567" lon="11.27749"><ele>284.0</ele><time>2026-05-03T10:35:04.167Z</time></trkpt><trkpt lat="43.315735" lon="11.2777383"><ele>285.0</ele><time>2026-05-03T10:35:05.165Z</time></trkpt><trkpt lat="43.3157017" lon="11.2779933"><ele>286.0</ele><time>2026-05-03T10:35:06.165Z</time></trkpt><trkpt lat="43.3156583" lon="11.278235"><ele>287.0</ele><time>2026-05-03T10:35:07.162Z</time></trkpt><trkpt lat="43.3156083" lon="11.27847"><ele>290.0</ele><time>2026-05-03T10:35:08.162Z</time></trkpt><trkpt lat="43.31545" lon="11.2789283"><ele>293.0</ele><time>2026-05-03T10:35:10.163Z</time></trkpt><trkpt lat="43.3153383" lon="11.2791533"><ele>295.6666666666667</ele><time>2026-05-03T10:35:11.164Z</time></trkpt><trkpt lat="43.3152233" lon="11.2793767"><ele>298.3333333333333</ele><time>2026-05-03T10:35:12.164Z</time></trkpt><trkpt lat="43.3151117" lon="11.2795817"><ele>301.0</ele><time>2026-05-03T10:35:13.165Z</time></trkpt><trkpt lat="43.315" lon="11.2797617"><ele>302.3333333333333</ele><time>2026-05-03T10:35:14.163Z</time></trkpt><trkpt lat="43.3148817" lon="11.2799267"><ele>303.6666666666667</ele><time>2026-05-03T10:35:15.164Z</time></trkpt><trkpt lat="43.3147517" lon="11.2800783"><ele>305.0</ele><time>2026-05-03T10:35:16.164Z</time></trkpt><trkpt lat="43.314605" lon="11.2802083"><ele>306.0</ele><time>2026-05-03T10:35:17.164Z</time></trkpt><trkpt lat="43.3144533" lon="11.2803217"><ele>307.0</ele><time>2026-05-03T10:35:18.162Z</time></trkpt><trkpt lat="43.3143083" lon="11.2804433"><ele>308.0</ele><time>2026-05-03T10:35:19.163Z</time></trkpt><trkpt lat="43.3141717" lon="11.2805683"><ele>309.25</ele><time>2026-05-03T10:35:20.163Z</time></trkpt><trkpt lat="43.3140567" lon="11.2807033"><ele>310.5</ele><time>2026-05-03T10:35:21.164Z</time></trkpt><trkpt lat="43.3139867" lon="11.2808617"><ele>311.75</ele><time>2026-05-03T10:35:22.163Z</time></trkpt><trkpt lat="43.3139417" lon="11.2810433"><ele>313.0</ele><time>2026-05-03T10:35:23.164Z</time></trkpt><trkpt lat="43.3139233" lon="11.2812467"><ele>314.3333333333333</ele><time>2026-05-03T10:35:24.164Z</time></trkpt><trkpt lat="43.3139183" lon="11.2814683"><ele>315.6666666666667</ele><time>2026-05-03T10:35:25.164Z</time></trkpt><trkpt lat="43.3139283" lon="11.281715"><ele>317.0</ele><time>2026-05-03T10:35:26.162Z</time></trkpt><trkpt lat="43.3139433" lon="11.2819767"><ele>317.0</ele><time>2026-05-03T10:35:27.165Z</time></trkpt><trkpt lat="43.3139533" lon="11.282235"><ele>317.0</ele><time>2026-05-03T10:35:28.162Z</time></trkpt><trkpt lat="43.3139667" lon="11.2824817"><ele>317.0</ele><time>2026-05-03T10:35:29.162Z</time></trkpt><trkpt lat="43.313995" lon="11.2827033"><ele>318.6666666666667</ele><time>2026-05-03T10:35:30.161Z</time></trkpt><trkpt lat="43.314045" lon="11.2829117"><ele>320.3333333333333</ele><time>2026-05-03T10:35:31.162Z</time></trkpt><trkpt lat="43.3141233" lon="11.2831183"><ele>322.0</ele><time>2026-05-03T10:35:32.163Z</time></trkpt><trkpt lat="43.3142117" lon="11.2833233"><ele>323.66666666666663</ele><time>2026-05-03T10:35:33.165Z</time></trkpt><trkpt lat="43.3143067" lon="11.28352"><ele>325.3333333333333</ele><time>2026-05-03T10:35:34.164Z</time></trkpt><trkpt lat="43.314405" lon="11.2837183"><ele>327.0</ele><time>2026-05-03T10:35:35.165Z</time></trkpt><trkpt lat="43.3144983" lon="11.2839167"><ele>330.3333333333333</ele><time>2026-05-03T10:35:36.164Z</time></trkpt><trkpt lat="43.314585" lon="11.284115"><ele>333.66666666666663</ele><time>2026-05-03T10:35:37.165Z</time></trkpt><trkpt lat="43.3146533" lon="11.2843167"><ele>337.0</ele><time>2026-05-03T10:35:38.165Z</time></trkpt><trkpt lat="43.314695" lon="11.28451"><ele>337.0</ele><time>2026-05-03T10:35:39.161Z</time></trkpt><trkpt lat="43.3147133" lon="11.2847067"><ele>337.0</ele><time>2026-05-03T10:35:40.162Z</time></trkpt><trkpt lat="43.3147017" lon="11.2849167"><ele>337.0</ele><time>2026-05-03T10:35:41.165Z</time></trkpt><trkpt lat="43.3146833" lon="11.2851283"><ele>339.3333333333333</ele><time>2026-05-03T10:35:42.164Z</time></trkpt><trkpt lat="43.3146667" lon="11.2853483"><ele>341.6666666666667</ele><time>2026-05-03T10:35:43.163Z</time></trkpt><trkpt lat="43.3146633" lon="11.285575"><ele>344.0</ele><time>2026-05-03T10:35:44.165Z</time></trkpt><trkpt lat="43.3146833" lon="11.2857917"><ele>343.25</ele><time>2026-05-03T10:35:45.164Z</time></trkpt><trkpt lat="43.3147167" lon="11.28599"><ele>342.5</ele><time>2026-05-03T10:35:46.165Z</time></trkpt><trkpt lat="43.3147433" lon="11.2861717"><ele>341.75</ele><time>2026-05-03T10:35:47.165Z</time></trkpt><trkpt lat="43.3147533" lon="11.2863367"><ele>341.0</ele><time>2026-05-03T10:35:48.163Z</time></trkpt><trkpt lat="43.3147567" lon="11.2864733"><ele>341.0</ele><time>2026-05-03T10:35:49.166Z</time></trkpt><trkpt lat="43.3147567" lon="11.2865783"><ele>341.0</ele><time>2026-05-03T10:35:50.163Z</time></trkpt><trkpt lat="43.3147517" lon="11.2866917"><ele>341.0</ele><time>2026-05-03T10:35:52.164Z</time></trkpt><trkpt lat="43.31466" lon="11.2867783"><ele>341.0</ele><time>2026-05-03T10:36:28.163Z</time></trkpt><trkpt lat="43.3146033" lon="11.2868367"><ele>341.0</ele><time>2026-05-03T10:36:29.166Z</time></trkpt><trkpt lat="43.3145383" lon="11.28691"><ele>341.0</ele><time>2026-05-03T10:36:30.17Z</time></trkpt><trkpt lat="43.314475" lon="11.2869933"><ele>343.1666666666667</ele><time>2026-05-03T10:36:31.164Z</time></trkpt><trkpt lat="43.3144017" lon="11.2870733"><ele>345.33333333333337</ele><time>2026-05-03T10:36:32.165Z</time></trkpt><trkpt lat="43.3143283" lon="11.2871467"><ele>347.5</ele><time>2026-05-03T10:36:33.165Z</time></trkpt><trkpt lat="43.314265" lon="11.28721"><ele>349.6666666666667</ele><time>2026-05-03T10:36:34.165Z</time></trkpt><trkpt lat="43.314215" lon="11.2872667"><ele>351.8333333333333</ele><time>2026-05-03T10:36:35.17Z</time></trkpt><trkpt lat="43.3141467" lon="11.28735"><ele>354.0</ele><time>2026-05-03T10:36:37.165Z</time></trkpt><trkpt lat="43.314095" lon="11.287425"><ele>354.0</ele><time>2026-05-03T10:36:39.165Z</time></trkpt><trkpt lat="43.3140617" lon="11.2875283"><ele>354.0</ele><time>2026-05-03T10:36:41.162Z</time></trkpt><trkpt lat="43.3141067" lon="11.28771"><ele>354.0</ele><time>2026-05-03T10:36:43.165Z</time></trkpt><trkpt lat="43.31416" lon="11.2878183"><ele>354.0</ele><time>2026-05-03T10:36:44.165Z</time></trkpt><trkpt lat="43.3142367" lon="11.287935"><ele>354.0</ele><time>2026-05-03T10:36:45.166Z</time></trkpt><trkpt lat="43.31432" lon="11.2880583"><ele>354.2</ele><time>2026-05-03T10:36:46.167Z</time></trkpt><trkpt lat="43.3143933" lon="11.2881833"><ele>354.4</ele><time>2026-05-03T10:36:47.165Z</time></trkpt><trkpt lat="43.3144633" lon="11.2882983"><ele>354.6</ele><time>2026-05-03T10:36:48.165Z</time></trkpt><trkpt lat="43.3145267" lon="11.2884017"><ele>354.8</ele><time>2026-05-03T10:36:49.165Z</time></trkpt><trkpt lat="43.3145917" lon="11.2884883"><ele>355.0</ele><time>2026-05-03T10:36:50.162Z</time></trkpt><trkpt lat="43.3146367" lon="11.2885783"><ele>355.0</ele><time>2026-05-03T10:36:51.163Z</time></trkpt><trkpt lat="43.314675" lon="11.288655"><ele>355.0</ele><time>2026-05-03T10:36:52.163Z</time></trkpt><trkpt lat="43.3147383" lon="11.288775"><ele>355.0</ele><time>2026-05-03T10:36:54.162Z</time></trkpt><trkpt lat="43.314795" lon="11.2888683"><ele>355.0</ele><time>2026-05-03T10:36:56.162Z</time></trkpt><trkpt lat="43.3148583" lon="11.2889683"><ele>355.0</ele><time>2026-05-03T10:36:58.161Z</time></trkpt><trkpt lat="43.3149283" lon="11.289095"><ele>354.4</ele><time>2026-05-03T10:37:00.162Z</time></trkpt><trkpt lat="43.3150017" lon="11.2892317"><ele>353.8</ele><time>2026-05-03T10:37:02.161Z</time></trkpt><trkpt lat="43.3150683" lon="11.28937"><ele>353.20000000000005</ele><time>2026-05-03T10:37:04.161Z</time></trkpt><trkpt lat="43.3151" lon="11.28945"><ele>352.6</ele><time>2026-05-03T10:37:05.162Z</time></trkpt><trkpt lat="43.31513" lon="11.289535"><ele>352.0</ele><time>2026-05-03T10:37:06.161Z</time></trkpt><trkpt lat="43.3151567" lon="11.2896333"><ele>352.0</ele><time>2026-05-03T10:37:07.164Z</time></trkpt><trkpt lat="43.315185" lon="11.2897517"><ele>352.0</ele><time>2026-05-03T10:37:08.164Z</time></trkpt><trkpt lat="43.315215" lon="11.28988"><ele>352.0</ele><time>2026-05-03T10:37:09.164Z</time></trkpt><trkpt lat="43.3152467" lon="11.290015"><ele>352.0</ele><time>2026-05-03T10:37:10.164Z</time></trkpt><trkpt lat="43.3152817" lon="11.29015"><ele>352.0</ele><time>2026-05-03T10:37:11.164Z</time></trkpt><trkpt lat="43.3153167" lon="11.290285"><ele>352.40000000000003</ele><time>2026-05-03T10:37:12.164Z</time></trkpt><trkpt lat="43.3153533" lon="11.29042"><ele>352.8</ele><time>2026-05-03T10:37:13.164Z</time></trkpt><trkpt lat="43.31539" lon="11.2905583"><ele>353.2</ele><time>2026-05-03T10:37:14.165Z</time></trkpt><trkpt lat="43.3154317" lon="11.2907"><ele>353.6</ele><time>2026-05-03T10:37:15.165Z</time></trkpt><trkpt lat="43.3154783" lon="11.2908383"><ele>354.0</ele><time>2026-05-03T10:37:16.164Z</time></trkpt><trkpt lat="43.315535" lon="11.290975"><ele>354.0</ele><time>2026-05-03T10:37:17.164Z</time></trkpt><trkpt lat="43.3155933" lon="11.291115"><ele>354.0</ele><time>2026-05-03T10:37:18.164Z</time></trkpt><trkpt lat="43.3156533" lon="11.2912683"><ele>354.0</ele><time>2026-05-03T10:37:19.164Z</time></trkpt><trkpt lat="43.315695" lon="11.2914317"><ele>354.0</ele><time>2026-05-03T10:37:20.164Z</time></trkpt><trkpt lat="43.3157317" lon="11.2915967"><ele>354.0</ele><time>2026-05-03T10:37:21.162Z</time></trkpt><trkpt lat="43.315755" lon="11.2917683"><ele>354.0</ele><time>2026-05-03T10:37:22.166Z</time></trkpt><trkpt lat="43.3157633" lon="11.2919517"><ele>354.0</ele><time>2026-05-03T10:37:23.162Z</time></trkpt><trkpt lat="43.3157633" lon="11.2923267"><ele>353.0</ele><time>2026-05-03T10:37:25.161Z</time></trkpt><trkpt lat="43.3157617" lon="11.29251"><ele>352.0</ele><time>2026-05-03T10:37:26.162Z</time></trkpt><trkpt lat="43.3157767" lon="11.2926717"><ele>351.0</ele><time>2026-05-03T10:37:27.162Z</time></trkpt><trkpt lat="43.3158133" lon="11.2928033"><ele>350.0</ele><time>2026-05-03T10:37:28.161Z</time></trkpt><trkpt lat="43.3158783" lon="11.292915"><ele>350.0</ele><time>2026-05-03T10:37:29.162Z</time></trkpt><trkpt lat="43.31595" lon="11.2930067"><ele>350.0</ele><time>2026-05-03T10:37:30.162Z</time></trkpt><trkpt lat="43.3160283" lon="11.2930883"><ele>350.0</ele><time>2026-05-03T10:37:31.166Z</time></trkpt><trkpt lat="43.316105" lon="11.2931583"><ele>350.0</ele><time>2026-05-03T10:37:32.161Z</time></trkpt><trkpt lat="43.3161733" lon="11.2932233"><ele>350.0</ele><time>2026-05-03T10:37:33.161Z</time></trkpt><trkpt lat="43.3162417" lon="11.29328"><ele>348.2</ele><time>2026-05-03T10:37:34.161Z</time></trkpt><trkpt lat="43.3163183" lon="11.2933283"><ele>346.4</ele><time>2026-05-03T10:37:35.162Z</time></trkpt><trkpt lat="43.3164067" lon="11.2933733"><ele>344.6</ele><time>2026-05-03T10:37:36.161Z</time></trkpt><trkpt lat="43.3164983" lon="11.2934183"><ele>342.8</ele><time>2026-05-03T10:37:37.162Z</time></trkpt><trkpt lat="43.31661" lon="11.293455"><ele>341.0</ele><time>2026-05-03T10:37:38.165Z</time></trkpt><trkpt lat="43.3167233" lon="11.2934867"><ele>341.0</ele><time>2026-05-03T10:37:39.166Z</time></trkpt><trkpt lat="43.3168267" lon="11.2935283"><ele>341.0</ele><time>2026-05-03T10:37:40.164Z</time></trkpt><trkpt lat="43.316915" lon="11.29359"><ele>341.0</ele><time>2026-05-03T10:37:41.166Z</time></trkpt><trkpt lat="43.3169833" lon="11.2936783"><ele>341.0</ele><time>2026-05-03T10:37:42.164Z</time></trkpt><trkpt lat="43.31703" lon="11.2937867"><ele>341.0</ele><time>2026-05-03T10:37:43.165Z</time></trkpt><trkpt lat="43.3170517" lon="11.2939083"><ele>340.0</ele><time>2026-05-03T10:37:44.164Z</time></trkpt><trkpt lat="43.3170467" lon="11.2940417"><ele>339.0</ele><time>2026-05-03T10:37:45.161Z</time></trkpt><trkpt lat="43.317015" lon="11.2941783"><ele>338.0</ele><time>2026-05-03T10:37:46.162Z</time></trkpt><trkpt lat="43.31696" lon="11.2942983"><ele>337.0</ele><time>2026-05-03T10:37:47.163Z</time></trkpt><trkpt lat="43.3168767" lon="11.2943883"><ele>336.0</ele><time>2026-05-03T10:37:48.162Z</time></trkpt><trkpt lat="43.316765" lon="11.2944483"><ele>336.0</ele><time>2026-05-03T10:37:49.162Z</time></trkpt><trkpt lat="43.3166383" lon="11.2945067"><ele>336.0</ele><time>2026-05-03T10:37:50.162Z</time></trkpt><trkpt lat="43.3165067" lon="11.2945633"><ele>336.0</ele><time>2026-05-03T10:37:51.161Z</time></trkpt><trkpt lat="43.31638" lon="11.2946133"><ele>336.0</ele><time>2026-05-03T10:37:52.162Z</time></trkpt><trkpt lat="43.3162617" lon="11.2946567"><ele>334.6</ele><time>2026-05-03T10:37:53.165Z</time></trkpt><trkpt lat="43.316165" lon="11.2947033"><ele>333.20000000000005</ele><time>2026-05-03T10:37:54.161Z</time></trkpt><trkpt lat="43.3160817" lon="11.2947733"><ele>331.79999999999995</ele><time>2026-05-03T10:37:55.161Z</time></trkpt><trkpt lat="43.31602" lon="11.2948883"><ele>330.4</ele><time>2026-05-03T10:37:56.162Z</time></trkpt><trkpt lat="43.315965" lon="11.2950417"><ele>329.0</ele><time>2026-05-03T10:37:57.161Z</time></trkpt><trkpt lat="43.31591" lon="11.295215"><ele>327.75</ele><time>2026-05-03T10:37:58.162Z</time></trkpt><trkpt lat="43.3158767" lon="11.2954083"><ele>326.5</ele><time>2026-05-03T10:37:59.162Z</time></trkpt><trkpt lat="43.3158667" lon="11.2956117"><ele>325.25</ele><time>2026-05-03T10:38:00.161Z</time></trkpt><trkpt lat="43.3158733" lon="11.2958133"><ele>324.0</ele><time>2026-05-03T10:38:01.165Z</time></trkpt><trkpt lat="43.31588" lon="11.2960167"><ele>323.3333333333333</ele><time>2026-05-03T10:38:02.162Z</time></trkpt><trkpt lat="43.3158733" lon="11.2962233"><ele>322.66666666666663</ele><time>2026-05-03T10:38:03.161Z</time></trkpt><trkpt lat="43.3158483" lon="11.29643"><ele>322.0</ele><time>2026-05-03T10:38:04.162Z</time></trkpt><trkpt lat="43.315815" lon="11.29663"><ele>321.75</ele><time>2026-05-03T10:38:05.162Z</time></trkpt><trkpt lat="43.3157783" lon="11.2968233"><ele>321.5</ele><time>2026-05-03T10:38:06.161Z</time></trkpt><trkpt lat="43.31574" lon="11.29701"><ele>321.25</ele><time>2026-05-03T10:38:07.162Z</time></trkpt><trkpt lat="43.3156933" lon="11.2971817"><ele>321.0</ele><time>2026-05-03T10:38:08.162Z</time></trkpt><trkpt lat="43.31564" lon="11.29734"><ele>319.75</ele><time>2026-05-03T10:38:09.162Z</time></trkpt><trkpt lat="43.315595" lon="11.2974867"><ele>318.5</ele><time>2026-05-03T10:38:10.162Z</time></trkpt><trkpt lat="43.315555" lon="11.2976517"><ele>317.25</ele><time>2026-05-03T10:38:11.162Z</time></trkpt><trkpt lat="43.31553" lon="11.2978333"><ele>316.0</ele><time>2026-05-03T10:38:12.161Z</time></trkpt><trkpt lat="43.3155167" lon="11.2980267"><ele>313.0</ele><time>2026-05-03T10:38:13.163Z</time></trkpt><trkpt lat="43.3154917" lon="11.2982183"><ele>310.0</ele><time>2026-05-03T10:38:14.162Z</time></trkpt><trkpt lat="43.3154383" lon="11.2984117"><ele>307.0</ele><time>2026-05-03T10:38:15.162Z</time></trkpt><trkpt lat="43.3153733" lon="11.2986033"><ele>304.0</ele><time>2026-05-03T10:38:16.161Z</time></trkpt><trkpt lat="43.3153" lon="11.2987967"><ele>303.0</ele><time>2026-05-03T10:38:17.162Z</time></trkpt><trkpt lat="43.31523" lon="11.2989817"><ele>302.0</ele><time>2026-05-03T10:38:18.161Z</time></trkpt><trkpt lat="43.31516" lon="11.29916"><ele>301.0</ele><time>2026-05-03T10:38:19.162Z</time></trkpt><trkpt lat="43.3150933" lon="11.299335"><ele>300.0</ele><time>2026-05-03T10:38:20.162Z</time></trkpt><trkpt lat="43.3150367" lon="11.29951"><ele>300.0</ele><time>2026-05-03T10:38:21.162Z</time></trkpt><trkpt lat="43.3149767" lon="11.2996733"><ele>300.0</ele><time>2026-05-03T10:38:22.162Z</time></trkpt><trkpt lat="43.3149" lon="11.2998217"><ele>300.0</ele><time>2026-05-03T10:38:23.162Z</time></trkpt><trkpt lat="43.3147967" lon="11.2999417"><ele>300.0</ele><time>2026-05-03T10:38:24.161Z</time></trkpt><trkpt lat="43.314665" lon="11.3000483"><ele>296.3333333333333</ele><time>2026-05-03T10:38:25.166Z</time></trkpt><trkpt lat="43.3145167" lon="11.300155"><ele>292.66666666666663</ele><time>2026-05-03T10:38:26.162Z</time></trkpt><trkpt lat="43.3143667" lon="11.3002767"><ele>289.0</ele><time>2026-05-03T10:38:27.163Z</time></trkpt><trkpt lat="43.3142167" lon="11.3003967"><ele>289.0</ele><time>2026-05-03T10:38:28.163Z</time></trkpt><trkpt lat="43.31407" lon="11.3005183"><ele>289.0</ele><time>2026-05-03T10:38:29.163Z</time></trkpt><trkpt lat="43.31394" lon="11.3006467"><ele>289.0</ele><time>2026-05-03T10:38:30.164Z</time></trkpt><trkpt lat="43.3138267" lon="11.3007967"><ele>286.0</ele><time>2026-05-03T10:38:31.164Z</time></trkpt><trkpt lat="43.3137233" lon="11.3009667"><ele>283.0</ele><time>2026-05-03T10:38:32.164Z</time></trkpt><trkpt lat="43.3136317" lon="11.3011683"><ele>280.0</ele><time>2026-05-03T10:38:33.163Z</time></trkpt><trkpt lat="43.3135517" lon="11.301375"><ele>280.5</ele><time>2026-05-03T10:38:34.168Z</time></trkpt><trkpt lat="43.31349" lon="11.30157"><ele>281.0</ele><time>2026-05-03T10:38:35.163Z</time></trkpt><trkpt lat="43.31345" lon="11.30175"><ele>281.5</ele><time>2026-05-03T10:38:36.162Z</time></trkpt><trkpt lat="43.31343" lon="11.3019167"><ele>282.0</ele><time>2026-05-03T10:38:37.164Z</time></trkpt><trkpt lat="43.3134433" lon="11.3020767"><ele>282.0</ele><time>2026-05-03T10:38:38.165Z</time></trkpt><trkpt lat="43.3134783" lon="11.30223"><ele>282.0</ele><time>2026-05-03T10:38:39.164Z</time></trkpt><trkpt lat="43.313515" lon="11.3023933"><ele>282.0</ele><time>2026-05-03T10:38:40.165Z</time></trkpt><trkpt lat="43.3135483" lon="11.3025683"><ele>282.0</ele><time>2026-05-03T10:38:41.165Z</time></trkpt><trkpt lat="43.31359" lon="11.3027383"><ele>281.2</ele><time>2026-05-03T10:38:42.164Z</time></trkpt><trkpt lat="43.3136367" lon="11.3028933"><ele>280.4</ele><time>2026-05-03T10:38:43.165Z</time></trkpt><trkpt lat="43.31368" lon="11.30303"><ele>279.6</ele><time>2026-05-03T10:38:44.164Z</time></trkpt><trkpt lat="43.3136983" lon="11.3031567"><ele>278.8</ele><time>2026-05-03T10:38:45.165Z</time></trkpt><trkpt lat="43.313695" lon="11.3032867"><ele>278.0</ele><time>2026-05-03T10:38:46.165Z</time></trkpt><trkpt lat="43.31364" lon="11.3034283"><ele>277.25</ele><time>2026-05-03T10:38:47.162Z</time></trkpt><trkpt lat="43.3135517" lon="11.303575"><ele>276.5</ele><time>2026-05-03T10:38:48.163Z</time></trkpt><trkpt lat="43.3134517" lon="11.303715"><ele>275.75</ele><time>2026-05-03T10:38:49.162Z</time></trkpt><trkpt lat="43.3133633" lon="11.3038567"><ele>275.0</ele><time>2026-05-03T10:38:50.164Z</time></trkpt><trkpt lat="43.3132983" lon="11.304015"><ele>275.0</ele><time>2026-05-03T10:38:51.164Z</time></trkpt><trkpt lat="43.3132667" lon="11.3041933"><ele>275.0</ele><time>2026-05-03T10:38:52.164Z</time></trkpt><trkpt lat="43.313255" lon="11.3043883"><ele>275.0</ele><time>2026-05-03T10:38:53.165Z</time></trkpt><trkpt lat="43.3132383" lon="11.3046083"><ele>275.0</ele><time>2026-05-03T10:38:54.161Z</time></trkpt><trkpt lat="43.313215" lon="11.3048433"><ele>275.0</ele><time>2026-05-03T10:38:55.164Z</time></trkpt><trkpt lat="43.313185" lon="11.305085"><ele>275.0</ele><time>2026-05-03T10:38:56.164Z</time></trkpt><trkpt lat="43.313155" lon="11.30532"><ele>275.0</ele><time>2026-05-03T10:38:57.163Z</time></trkpt><trkpt lat="43.3131267" lon="11.3055417"><ele>273.33333333333337</ele><time>2026-05-03T10:38:58.163Z</time></trkpt><trkpt lat="43.313115" lon="11.30576"><ele>271.6666666666667</ele><time>2026-05-03T10:38:59.164Z</time></trkpt><trkpt lat="43.313125" lon="11.3059767"><ele>270.0</ele><time>2026-05-03T10:39:00.163Z</time></trkpt><trkpt lat="43.3131433" lon="11.3061783"><ele>270.0</ele><time>2026-05-03T10:39:01.164Z</time></trkpt><trkpt lat="43.3131733" lon="11.3063483"><ele>270.0</ele><time>2026-05-03T10:39:02.164Z</time></trkpt><trkpt lat="43.3132117" lon="11.3064733"><ele>270.0</ele><time>2026-05-03T10:39:03.164Z</time></trkpt><trkpt lat="43.3132683" lon="11.306575"><ele>270.0</ele><time>2026-05-03T10:39:04.166Z</time></trkpt><trkpt lat="43.3133633" lon="11.3066383"><ele>270.0</ele><time>2026-05-03T10:39:05.165Z</time></trkpt><trkpt lat="43.3134733" lon="11.3066733"><ele>267.25</ele><time>2026-05-03T10:39:06.164Z</time></trkpt><trkpt lat="43.3135967" lon="11.3066617"><ele>264.5</ele><time>2026-05-03T10:39:07.164Z</time></trkpt><trkpt lat="43.31373" lon="11.3065983"><ele>261.75</ele><time>2026-05-03T10:39:08.165Z</time></trkpt><trkpt lat="43.31387" lon="11.30651"><ele>259.0</ele><time>2026-05-03T10:39:09.164Z</time></trkpt><trkpt lat="43.3140083" lon="11.3064183"><ele>261.75</ele><time>2026-05-03T10:39:10.165Z</time></trkpt><trkpt lat="43.3141333" lon="11.3063417"><ele>264.5</ele><time>2026-05-03T10:39:11.165Z</time></trkpt><trkpt lat="43.3142433" lon="11.306285"><ele>267.25</ele><time>2026-05-03T10:39:12.162Z</time></trkpt><trkpt lat="43.3143433" lon="11.3062517"><ele>270.0</ele><time>2026-05-03T10:39:13.163Z</time></trkpt><trkpt lat="43.314435" lon="11.3062717"><ele>270.0</ele><time>2026-05-03T10:39:14.163Z</time></trkpt><trkpt lat="43.3144933" lon="11.3063383"><ele>270.0</ele><time>2026-05-03T10:39:15.162Z</time></trkpt><trkpt lat="43.31453" lon="11.306435"><ele>270.0</ele><time>2026-05-03T10:39:16.162Z</time></trkpt><trkpt lat="43.314535" lon="11.306545"><ele>270.0</ele><time>2026-05-03T10:39:17.163Z</time></trkpt><trkpt lat="43.314545" lon="11.3066417"><ele>270.0</ele><time>2026-05-03T10:39:18.162Z</time></trkpt><trkpt lat="43.3145367" lon="11.3067417"><ele>270.0</ele><time>2026-05-03T10:39:19.164Z</time></trkpt><trkpt lat="43.314405" lon="11.306855"><ele>263.5</ele><time>2026-05-03T10:39:20.163Z</time></trkpt><trkpt lat="43.31424" lon="11.3069817"><ele>257.0</ele><time>2026-05-03T10:39:21.163Z</time></trkpt><trkpt lat="43.3139583" lon="11.3071833"><ele>251.0</ele><time>2026-05-03T10:39:22.164Z</time></trkpt><trkpt lat="43.31374" lon="11.3073717"><ele>245.0</ele><time>2026-05-03T10:39:23.163Z</time></trkpt><trkpt lat="43.313565" lon="11.307545"><ele>245.0</ele><time>2026-05-03T10:39:24.162Z</time></trkpt><trkpt lat="43.31342" lon="11.3077117"><ele>245.0</ele><time>2026-05-03T10:39:25.163Z</time></trkpt><trkpt lat="43.3132783" lon="11.3078817"><ele>245.0</ele><time>2026-05-03T10:39:26.162Z</time></trkpt><trkpt lat="43.31314" lon="11.30804"><ele>245.33333333333334</ele><time>2026-05-03T10:39:27.162Z</time></trkpt><trkpt lat="43.3130067" lon="11.3081983"><ele>245.66666666666669</ele><time>2026-05-03T10:39:28.163Z</time></trkpt><trkpt lat="43.3128683" lon="11.3083617"><ele>246.0</ele><time>2026-05-03T10:39:29.163Z</time></trkpt><trkpt lat="43.312725" lon="11.308535"><ele>246.0</ele><time>2026-05-03T10:39:30.162Z</time></trkpt><trkpt lat="43.3125733" lon="11.3087167"><ele>246.0</ele><time>2026-05-03T10:39:31.164Z</time></trkpt><trkpt lat="43.312415" lon="11.3089"><ele>246.0</ele><time>2026-05-03T10:39:32.163Z</time></trkpt><trkpt lat="43.3122567" lon="11.3090833"><ele>244.66666666666669</ele><time>2026-05-03T10:39:33.165Z</time></trkpt><trkpt lat="43.3120967" lon="11.3092617"><ele>243.33333333333334</ele><time>2026-05-03T10:39:34.165Z</time></trkpt><trkpt lat="43.3119467" lon="11.30944"><ele>242.0</ele><time>2026-05-03T10:39:35.165Z</time></trkpt><trkpt lat="43.3117917" lon="11.3096183"><ele>240.33333333333334</ele><time>2026-05-03T10:39:36.165Z</time></trkpt><trkpt lat="43.3116467" lon="11.3097833"><ele>238.66666666666669</ele><time>2026-05-03T10:39:37.165Z</time></trkpt><trkpt lat="43.3115017" lon="11.3099417"><ele>237.0</ele><time>2026-05-03T10:39:38.165Z</time></trkpt><trkpt lat="43.3113683" lon="11.3100883"><ele>241.66666666666669</ele><time>2026-05-03T10:39:39.165Z</time></trkpt><trkpt lat="43.3112417" lon="11.31023"><ele>246.33333333333334</ele><time>2026-05-03T10:39:40.165Z</time></trkpt><trkpt lat="43.311125" lon="11.31038"><ele>251.0</ele><time>2026-05-03T10:39:41.165Z</time></trkpt><trkpt lat="43.311025" lon="11.310545"><ele>247.33333333333334</ele><time>2026-05-03T10:39:42.163Z</time></trkpt><trkpt lat="43.3109467" lon="11.3107167"><ele>243.66666666666669</ele><time>2026-05-03T10:39:43.162Z</time></trkpt><trkpt lat="43.3109067" lon="11.3109167"><ele>240.0</ele><time>2026-05-03T10:39:44.161Z</time></trkpt><trkpt lat="43.3109083" lon="11.3111267"><ele>239.5</ele><time>2026-05-03T10:39:45.161Z</time></trkpt><trkpt lat="43.3110333" lon="11.3115067"><ele>239.0</ele><time>2026-05-03T10:39:47.162Z</time></trkpt><trkpt lat="43.3111183" lon="11.311685"><ele>239.0</ele><time>2026-05-03T10:39:48.161Z</time></trkpt><trkpt lat="43.3111983" lon="11.311875"><ele>239.0</ele><time>2026-05-03T10:39:49.164Z</time></trkpt><trkpt lat="43.3112533" lon="11.3120767"><ele>239.0</ele><time>2026-05-03T10:39:50.164Z</time></trkpt><trkpt lat="43.3112833" lon="11.3122867"><ele>240.25</ele><time>2026-05-03T10:39:51.164Z</time></trkpt><trkpt lat="43.311295" lon="11.31249"><ele>241.5</ele><time>2026-05-03T10:39:52.162Z</time></trkpt><trkpt lat="43.3112967" lon="11.3126833"><ele>242.75</ele><time>2026-05-03T10:39:53.163Z</time></trkpt><trkpt lat="43.3112933" lon="11.3128683"><ele>244.0</ele><time>2026-05-03T10:39:54.162Z</time></trkpt><trkpt lat="43.3112917" lon="11.3130433"><ele>245.0</ele><time>2026-05-03T10:39:55.164Z</time></trkpt><trkpt lat="43.3112967" lon="11.3132133"><ele>246.0</ele><time>2026-05-03T10:39:56.162Z</time></trkpt><trkpt lat="43.3112967" lon="11.31339"><ele>247.0</ele><time>2026-05-03T10:39:57.162Z</time></trkpt><trkpt lat="43.311275" lon="11.3135667"><ele>248.0</ele><time>2026-05-03T10:39:58.163Z</time></trkpt><trkpt lat="43.31123" lon="11.3137417"><ele>249.25</ele><time>2026-05-03T10:39:59.164Z</time></trkpt><trkpt lat="43.3111567" lon="11.3139067"><ele>250.5</ele><time>2026-05-03T10:40:00.162Z</time></trkpt><trkpt lat="43.3110733" lon="11.314065"><ele>251.75</ele><time>2026-05-03T10:40:01.163Z</time></trkpt><trkpt lat="43.310995" lon="11.3142217"><ele>253.0</ele><time>2026-05-03T10:40:02.163Z</time></trkpt><trkpt lat="43.3109183" lon="11.31438"><ele>253.0</ele><time>2026-05-03T10:40:03.163Z</time></trkpt><trkpt lat="43.3108433" lon="11.3145467"><ele>253.0</ele><time>2026-05-03T10:40:04.164Z</time></trkpt><trkpt lat="43.310775" lon="11.3147283"><ele>253.0</ele><time>2026-05-03T10:40:05.163Z</time></trkpt><trkpt lat="43.3107133" lon="11.3149033"><ele>253.0</ele><time>2026-05-03T10:40:06.166Z</time></trkpt><trkpt lat="43.3106483" lon="11.315075"><ele>253.75</ele><time>2026-05-03T10:40:07.164Z</time></trkpt><trkpt lat="43.31059" lon="11.3152383"><ele>254.5</ele><time>2026-05-03T10:40:08.164Z</time></trkpt><trkpt lat="43.3105383" lon="11.3153933"><ele>255.25</ele><time>2026-05-03T10:40:09.164Z</time></trkpt><trkpt lat="43.3104917" lon="11.315545"><ele>256.0</ele><time>2026-05-03T10:40:10.162Z</time></trkpt><trkpt lat="43.3104583" lon="11.3156867"><ele>253.20000000000002</ele><time>2026-05-03T10:40:11.163Z</time></trkpt><trkpt lat="43.3104383" lon="11.31583"><ele>250.40000000000003</ele><time>2026-05-03T10:40:12.162Z</time></trkpt><trkpt lat="43.3104283" lon="11.3159817"><ele>247.6</ele><time>2026-05-03T10:40:13.164Z</time></trkpt><trkpt lat="43.310425" lon="11.3161433"><ele>244.8</ele><time>2026-05-03T10:40:14.165Z</time></trkpt><trkpt lat="43.31042" lon="11.3163"><ele>242.0</ele><time>2026-05-03T10:40:15.161Z</time></trkpt><trkpt lat="43.310415" lon="11.316435"><ele>241.39999999999998</ele><time>2026-05-03T10:40:16.163Z</time></trkpt><trkpt lat="43.3103933" lon="11.31654"><ele>240.79999999999998</ele><time>2026-05-03T10:40:17.167Z</time></trkpt><trkpt lat="43.31033" lon="11.3166567"><ele>240.2</ele><time>2026-05-03T10:40:19.164Z</time></trkpt><trkpt lat="43.3102067" lon="11.3166817"><ele>239.6</ele><time>2026-05-03T10:40:21.164Z</time></trkpt><trkpt lat="43.3101333" lon="11.316655"><ele>239.0</ele><time>2026-05-03T10:40:22.161Z</time></trkpt><trkpt lat="43.3100467" lon="11.3166133"><ele>239.0</ele><time>2026-05-03T10:40:23.165Z</time></trkpt><trkpt lat="43.309955" lon="11.3165667"><ele>238.99999999999997</ele><time>2026-05-03T10:40:24.162Z</time></trkpt><trkpt lat="43.3098733" lon="11.3165183"><ele>238.99999999999997</ele><time>2026-05-03T10:40:25.163Z</time></trkpt><trkpt lat="43.3097967" lon="11.316465"><ele>239.0</ele><time>2026-05-03T10:40:26.163Z</time></trkpt><trkpt lat="43.3097183" lon="11.3164"><ele>239.0</ele><time>2026-05-03T10:40:27.164Z</time></trkpt><trkpt lat="43.309635" lon="11.3163183"><ele>239.0</ele><time>2026-05-03T10:40:28.164Z</time></trkpt><trkpt lat="43.3095483" lon="11.31622"><ele>239.0</ele><time>2026-05-03T10:40:29.164Z</time></trkpt><trkpt lat="43.3094567" lon="11.3161083"><ele>239.0</ele><time>2026-05-03T10:40:30.164Z</time></trkpt><trkpt lat="43.3093683" lon="11.31598"><ele>239.0</ele><time>2026-05-03T10:40:31.164Z</time></trkpt><trkpt lat="43.309285" lon="11.31584"><ele>239.0</ele><time>2026-05-03T10:40:32.164Z</time></trkpt><trkpt lat="43.30922" lon="11.3156917"><ele>239.0</ele><time>2026-05-03T10:40:33.164Z</time></trkpt><trkpt lat="43.309175" lon="11.3155433"><ele>239.0</ele><time>2026-05-03T10:40:34.164Z</time></trkpt><trkpt lat="43.3091433" lon="11.3153883"><ele>239.0</ele><time>2026-05-03T10:40:35.164Z</time></trkpt><trkpt lat="43.3091183" lon="11.3152167"><ele>238.75</ele><time>2026-05-03T10:40:36.164Z</time></trkpt><trkpt lat="43.3090783" lon="11.31504"><ele>238.5</ele><time>2026-05-03T10:40:37.164Z</time></trkpt><trkpt lat="43.30902" lon="11.31487"><ele>238.25</ele><time>2026-05-03T10:40:38.164Z</time></trkpt><trkpt lat="43.308955" lon="11.3147033"><ele>238.0</ele><time>2026-05-03T10:40:39.161Z</time></trkpt><trkpt lat="43.3088717" lon="11.3145483"><ele>237.0</ele><time>2026-05-03T10:40:40.163Z</time></trkpt><trkpt lat="43.3087767" lon="11.3144067"><ele>236.0</ele><time>2026-05-03T10:40:41.164Z</time></trkpt><trkpt lat="43.3086717" lon="11.3142767"><ele>235.0</ele><time>2026-05-03T10:40:42.163Z</time></trkpt><trkpt lat="43.3085583" lon="11.3141533"><ele>234.0</ele><time>2026-05-03T10:40:43.164Z</time></trkpt><trkpt lat="43.3084467" lon="11.314035"><ele>234.0</ele><time>2026-05-03T10:40:44.164Z</time></trkpt><trkpt lat="43.3083417" lon="11.31392"><ele>234.0</ele><time>2026-05-03T10:40:45.164Z</time></trkpt><trkpt lat="43.30824" lon="11.3138083"><ele>234.0</ele><time>2026-05-03T10:40:46.162Z</time></trkpt><trkpt lat="43.3081417" lon="11.3137017"><ele>234.0</ele><time>2026-05-03T10:40:47.164Z</time></trkpt><trkpt lat="43.30805" lon="11.3136033"><ele>237.0</ele><time>2026-05-03T10:40:48.163Z</time></trkpt><trkpt lat="43.30796" lon="11.3135133"><ele>240.0</ele><time>2026-05-03T10:40:49.164Z</time></trkpt><trkpt lat="43.3078633" lon="11.3134433"><ele>243.0</ele><time>2026-05-03T10:40:50.164Z</time></trkpt><trkpt lat="43.3077517" lon="11.313405"><ele>246.0</ele><time>2026-05-03T10:40:51.162Z</time></trkpt><trkpt lat="43.3076333" lon="11.3134067"><ele>246.0</ele><time>2026-05-03T10:40:52.163Z</time></trkpt><trkpt lat="43.307515" lon="11.31345"><ele>246.0</ele><time>2026-05-03T10:40:53.164Z</time></trkpt><trkpt lat="43.3074033" lon="11.31353"><ele>246.0</ele><time>2026-05-03T10:40:54.164Z</time></trkpt><trkpt lat="43.3073083" lon="11.31364"><ele>246.0</ele><time>2026-05-03T10:40:55.161Z</time></trkpt><trkpt lat="43.3072283" lon="11.3137617"><ele>245.83333333333334</ele><time>2026-05-03T10:40:56.164Z</time></trkpt><trkpt lat="43.3071633" lon="11.31388"><ele>245.66666666666669</ele><time>2026-05-03T10:40:57.166Z</time></trkpt><trkpt lat="43.3071183" lon="11.3139933"><ele>245.5</ele><time>2026-05-03T10:40:58.164Z</time></trkpt><trkpt lat="43.3071" lon="11.3141017"><ele>245.33333333333334</ele><time>2026-05-03T10:40:59.166Z</time></trkpt><trkpt lat="43.307115" lon="11.3142067"><ele>245.16666666666669</ele><time>2026-05-03T10:41:00.165Z</time></trkpt><trkpt lat="43.3071533" lon="11.3142967"><ele>245.0</ele><time>2026-05-03T10:41:01.164Z</time></trkpt><trkpt lat="43.30722" lon="11.3143783"><ele>243.0</ele><time>2026-05-03T10:41:02.166Z</time></trkpt><trkpt lat="43.30727" lon="11.3144733"><ele>241.0</ele><time>2026-05-03T10:41:03.164Z</time></trkpt><trkpt lat="43.3072967" lon="11.3145867"><ele>239.0</ele><time>2026-05-03T10:41:04.167Z</time></trkpt><trkpt lat="43.307285" lon="11.314725"><ele>237.0</ele><time>2026-05-03T10:41:05.165Z</time></trkpt><trkpt lat="43.3072267" lon="11.314875"><ele>235.0</ele><time>2026-05-03T10:41:06.164Z</time></trkpt><trkpt lat="43.30714" lon="11.3150167"><ele>235.0</ele><time>2026-05-03T10:41:07.165Z</time></trkpt><trkpt lat="43.3070317" lon="11.3151467"><ele>235.0</ele><time>2026-05-03T10:41:08.164Z</time></trkpt><trkpt lat="43.306905" lon="11.315285"><ele>235.0</ele><time>2026-05-03T10:41:09.165Z</time></trkpt><trkpt lat="43.3067683" lon="11.31545"><ele>234.33333333333331</ele><time>2026-05-03T10:41:10.164Z</time></trkpt><trkpt lat="43.3066217" lon="11.31564"><ele>233.66666666666669</ele><time>2026-05-03T10:41:11.165Z</time></trkpt><trkpt lat="43.3064667" lon="11.31584"><ele>233.0</ele><time>2026-05-03T10:41:12.164Z</time></trkpt><trkpt lat="43.306305" lon="11.31605"><ele>233.5</ele><time>2026-05-03T10:41:13.164Z</time></trkpt><trkpt lat="43.3061417" lon="11.31627"><ele>234.0</ele><time>2026-05-03T10:41:14.164Z</time></trkpt><trkpt lat="43.3059817" lon="11.3164933"><ele>234.0</ele><time>2026-05-03T10:41:15.161Z</time></trkpt><trkpt lat="43.30582" lon="11.31672"><ele>234.0</ele><time>2026-05-03T10:41:16.164Z</time></trkpt><trkpt lat="43.30566" lon="11.316955"><ele>236.5</ele><time>2026-05-03T10:41:17.162Z</time></trkpt><trkpt lat="43.3055" lon="11.3172017"><ele>239.0</ele><time>2026-05-03T10:41:18.163Z</time></trkpt><trkpt lat="43.30534" lon="11.3174417"><ele>233.0</ele><time>2026-05-03T10:41:19.162Z</time></trkpt><trkpt lat="43.3051767" lon="11.3176817"><ele>227.0</ele><time>2026-05-03T10:41:20.162Z</time></trkpt><trkpt lat="43.305015" lon="11.31793"><ele>226.0</ele><time>2026-05-03T10:41:21.162Z</time></trkpt><trkpt lat="43.3048517" lon="11.3181833"><ele>225.0</ele><time>2026-05-03T10:41:22.162Z</time></trkpt><trkpt lat="43.3046867" lon="11.3184367"><ele>226.0</ele><time>2026-05-03T10:41:23.163Z</time></trkpt><trkpt lat="43.30452" lon="11.318685"><ele>227.0</ele><time>2026-05-03T10:41:24.161Z</time></trkpt><trkpt lat="43.3043533" lon="11.3189383"><ele>227.0</ele><time>2026-05-03T10:41:25.162Z</time></trkpt><trkpt lat="43.3041867" lon="11.319195"><ele>227.0</ele><time>2026-05-03T10:41:26.162Z</time></trkpt><trkpt lat="43.3040167" lon="11.3194517"><ele>230.0</ele><time>2026-05-03T10:41:27.162Z</time></trkpt><trkpt lat="43.3038483" lon="11.3197083"><ele>233.0</ele><time>2026-05-03T10:41:28.162Z</time></trkpt><trkpt lat="43.3036783" lon="11.3199633"><ele>233.0</ele><time>2026-05-03T10:41:29.165Z</time></trkpt><trkpt lat="43.3035083" lon="11.32022"><ele>233.0</ele><time>2026-05-03T10:41:30.163Z</time></trkpt><trkpt lat="43.3033367" lon="11.3204783"><ele>229.5</ele><time>2026-05-03T10:41:31.165Z</time></trkpt><trkpt lat="43.303165" lon="11.3207333"><ele>226.0</ele><time>2026-05-03T10:41:32.165Z</time></trkpt><trkpt lat="43.3029917" lon="11.3209933"><ele>227.0</ele><time>2026-05-03T10:41:33.165Z</time></trkpt><trkpt lat="43.3028183" lon="11.3212467"><ele>228.0</ele><time>2026-05-03T10:41:34.162Z</time></trkpt><trkpt lat="43.302645" lon="11.321505"><ele>228.0</ele><time>2026-05-03T10:41:35.165Z</time></trkpt><trkpt lat="43.3024733" lon="11.3217633"><ele>228.0</ele><time>2026-05-03T10:41:36.165Z</time></trkpt><trkpt lat="43.3023017" lon="11.32203"><ele>227.5</ele><time>2026-05-03T10:41:37.166Z</time></trkpt><trkpt lat="43.3021267" lon="11.3222933"><ele>227.0</ele><time>2026-05-03T10:41:38.161Z</time></trkpt><trkpt lat="43.3019533" lon="11.322555"><ele>227.0</ele><time>2026-05-03T10:41:39.165Z</time></trkpt><trkpt lat="43.3017817" lon="11.322815"><ele>227.0</ele><time>2026-05-03T10:41:40.162Z</time></trkpt><trkpt lat="43.3016117" lon="11.3230817"><ele>227.0</ele><time>2026-05-03T10:41:41.165Z</time></trkpt><trkpt lat="43.30144" lon="11.3233517"><ele>227.0</ele><time>2026-05-03T10:41:42.163Z</time></trkpt><trkpt lat="43.30127" lon="11.32362"><ele>227.0</ele><time>2026-05-03T10:41:43.164Z</time></trkpt><trkpt lat="43.3011017" lon="11.3238867"><ele>227.0</ele><time>2026-05-03T10:41:44.164Z</time></trkpt><trkpt lat="43.300935" lon="11.3241633"><ele>225.5</ele><time>2026-05-03T10:41:45.164Z</time></trkpt><trkpt lat="43.30077" lon="11.3244433"><ele>224.0</ele><time>2026-05-03T10:41:46.165Z</time></trkpt><trkpt lat="43.3006083" lon="11.3247233"><ele>223.0</ele><time>2026-05-03T10:41:47.164Z</time></trkpt><trkpt lat="43.30045" lon="11.3249967"><ele>222.0</ele><time>2026-05-03T10:41:48.163Z</time></trkpt><trkpt lat="43.3002917" lon="11.3252767"><ele>222.0</ele><time>2026-05-03T10:41:49.164Z</time></trkpt><trkpt lat="43.300135" lon="11.3255533"><ele>222.0</ele><time>2026-05-03T10:41:50.164Z</time></trkpt><trkpt lat="43.2999817" lon="11.3258367"><ele>221.5</ele><time>2026-05-03T10:41:51.164Z</time></trkpt><trkpt lat="43.2998283" lon="11.326115"><ele>221.0</ele><time>2026-05-03T10:41:52.163Z</time></trkpt><trkpt lat="43.2996767" lon="11.32639"><ele>220.0</ele><time>2026-05-03T10:41:53.165Z</time></trkpt><trkpt lat="43.299525" lon="11.3266683"><ele>219.0</ele><time>2026-05-03T10:41:54.164Z</time></trkpt><trkpt lat="43.2993733" lon="11.3269467"><ele>217.5</ele><time>2026-05-03T10:41:55.165Z</time></trkpt><trkpt lat="43.29922" lon="11.32723"><ele>216.0</ele><time>2026-05-03T10:41:56.164Z</time></trkpt><trkpt lat="43.2990667" lon="11.3275117"><ele>216.5</ele><time>2026-05-03T10:41:57.166Z</time></trkpt><trkpt lat="43.2989117" lon="11.3277917"><ele>217.0</ele><time>2026-05-03T10:41:58.164Z</time></trkpt><trkpt lat="43.2987567" lon="11.3280733"><ele>217.5</ele><time>2026-05-03T10:41:59.165Z</time></trkpt><trkpt lat="43.2986" lon="11.3283567"><ele>218.0</ele><time>2026-05-03T10:42:00.17Z</time></trkpt><trkpt lat="43.2984417" lon="11.32864"><ele>219.5</ele><time>2026-05-03T10:42:01.165Z</time></trkpt><trkpt lat="43.2982817" lon="11.3289217"><ele>221.0</ele><time>2026-05-03T10:42:02.165Z</time></trkpt><trkpt lat="43.2981217" lon="11.3292067"><ele>218.0</ele><time>2026-05-03T10:42:03.165Z</time></trkpt><trkpt lat="43.29796" lon="11.3294883"><ele>215.0</ele><time>2026-05-03T10:42:04.165Z</time></trkpt><trkpt lat="43.297795" lon="11.32977"><ele>215.0</ele><time>2026-05-03T10:42:05.165Z</time></trkpt><trkpt lat="43.2976317" lon="11.3300533"><ele>215.0</ele><time>2026-05-03T10:42:06.165Z</time></trkpt><trkpt lat="43.29747" lon="11.330335"><ele>214.5</ele><time>2026-05-03T10:42:07.164Z</time></trkpt><trkpt lat="43.2973067" lon="11.3306167"><ele>214.0</ele><time>2026-05-03T10:42:08.165Z</time></trkpt><trkpt lat="43.297145" lon="11.3309"><ele>214.0</ele><time>2026-05-03T10:42:09.165Z</time></trkpt><trkpt lat="43.2969783" lon="11.331185"><ele>214.0</ele><time>2026-05-03T10:42:10.162Z</time></trkpt><trkpt lat="43.2968117" lon="11.3314717"><ele>215.0</ele><time>2026-05-03T10:42:11.164Z</time></trkpt><trkpt lat="43.2966467" lon="11.3317617"><ele>216.0</ele><time>2026-05-03T10:42:12.162Z</time></trkpt><trkpt lat="43.296485" lon="11.3320517"><ele>214.0</ele><time>2026-05-03T10:42:13.163Z</time></trkpt><trkpt lat="43.2963267" lon="11.3323433"><ele>212.0</ele><time>2026-05-03T10:42:14.164Z</time></trkpt><trkpt lat="43.2961733" lon="11.3326267"><ele>212.0</ele><time>2026-05-03T10:42:15.163Z</time></trkpt><trkpt lat="43.2960267" lon="11.3328967"><ele>212.0</ele><time>2026-05-03T10:42:16.163Z</time></trkpt><trkpt lat="43.295885" lon="11.3331533"><ele>212.0</ele><time>2026-05-03T10:42:17.164Z</time></trkpt><trkpt lat="43.295745" lon="11.3334017"><ele>212.0</ele><time>2026-05-03T10:42:18.163Z</time></trkpt><trkpt lat="43.2956083" lon="11.333645"><ele>211.66666666666669</ele><time>2026-05-03T10:42:19.164Z</time></trkpt><trkpt lat="43.2954717" lon="11.3338817"><ele>211.33333333333331</ele><time>2026-05-03T10:42:20.162Z</time></trkpt><trkpt lat="43.2953383" lon="11.3341117"><ele>211.0</ele><time>2026-05-03T10:42:21.164Z</time></trkpt><trkpt lat="43.2952083" lon="11.3343167"><ele>211.0</ele><time>2026-05-03T10:42:22.164Z</time></trkpt><trkpt lat="43.295075" lon="11.3345033"><ele>211.0</ele><time>2026-05-03T10:42:23.165Z</time></trkpt><trkpt lat="43.2949367" lon="11.3346767"><ele>211.0</ele><time>2026-05-03T10:42:24.163Z</time></trkpt><trkpt lat="43.2947883" lon="11.3348433"><ele>211.33333333333331</ele><time>2026-05-03T10:42:25.164Z</time></trkpt><trkpt lat="43.2946283" lon="11.3349967"><ele>211.66666666666669</ele><time>2026-05-03T10:42:26.163Z</time></trkpt><trkpt lat="43.2944533" lon="11.33514"><ele>212.0</ele><time>2026-05-03T10:42:27.165Z</time></trkpt><trkpt lat="43.294265" lon="11.3352667"><ele>212.0</ele><time>2026-05-03T10:42:28.165Z</time></trkpt><trkpt lat="43.2940683" lon="11.335375"><ele>212.0</ele><time>2026-05-03T10:42:29.167Z</time></trkpt><trkpt lat="43.2938617" lon="11.33547"><ele>212.0</ele><time>2026-05-03T10:42:30.165Z</time></trkpt><trkpt lat="43.2936433" lon="11.3355517"><ele>213.0</ele><time>2026-05-03T10:42:31.165Z</time></trkpt><trkpt lat="43.2934217" lon="11.3356183"><ele>214.0</ele><time>2026-05-03T10:42:32.165Z</time></trkpt><trkpt lat="43.293195" lon="11.3356683"><ele>213.0</ele><time>2026-05-03T10:42:33.165Z</time></trkpt><trkpt lat="43.29297" lon="11.3357017"><ele>212.0</ele><time>2026-05-03T10:42:34.165Z</time></trkpt><trkpt lat="43.2927517" lon="11.335715"><ele>211.0</ele><time>2026-05-03T10:42:35.164Z</time></trkpt><trkpt lat="43.2925333" lon="11.335695"><ele>211.0</ele><time>2026-05-03T10:42:36.164Z</time></trkpt><trkpt lat="43.29231" lon="11.3356317"><ele>211.0</ele><time>2026-05-03T10:42:37.164Z</time></trkpt><trkpt lat="43.2920867" lon="11.33553"><ele>213.0</ele><time>2026-05-03T10:42:38.164Z</time></trkpt><trkpt lat="43.29188" lon="11.3354167"><ele>215.0</ele><time>2026-05-03T10:42:39.167Z</time></trkpt><trkpt lat="43.2916883" lon="11.335305"><ele>217.0</ele><time>2026-05-03T10:42:40.164Z</time></trkpt><trkpt lat="43.29151" lon="11.3352133"><ele>215.66666666666666</ele><time>2026-05-03T10:42:41.163Z</time></trkpt><trkpt lat="43.2913467" lon="11.3351467"><ele>214.33333333333331</ele><time>2026-05-03T10:42:42.163Z</time></trkpt><trkpt lat="43.2911883" lon="11.335125"><ele>213.0</ele><time>2026-05-03T10:42:43.164Z</time></trkpt><trkpt lat="43.2910367" lon="11.33515"><ele>213.0</ele><time>2026-05-03T10:42:44.163Z</time></trkpt><trkpt lat="43.2909" lon="11.3352217"><ele>213.0</ele><time>2026-05-03T10:42:45.164Z</time></trkpt><trkpt lat="43.2907883" lon="11.3353317"><ele>213.0</ele><time>2026-05-03T10:42:46.163Z</time></trkpt><trkpt lat="43.2907033" lon="11.3354633"><ele>213.0</ele><time>2026-05-03T10:42:47.164Z</time></trkpt><trkpt lat="43.2906483" lon="11.33562"><ele>211.5</ele><time>2026-05-03T10:42:48.164Z</time></trkpt><trkpt lat="43.290615" lon="11.335795"><ele>210.0</ele><time>2026-05-03T10:42:49.161Z</time></trkpt><trkpt lat="43.2905967" lon="11.335965"><ele>208.5</ele><time>2026-05-03T10:42:50.163Z</time></trkpt><trkpt lat="43.2905933" lon="11.33613"><ele>207.0</ele><time>2026-05-03T10:42:51.161Z</time></trkpt><trkpt lat="43.2906183" lon="11.3362833"><ele>207.0</ele><time>2026-05-03T10:42:52.161Z</time></trkpt><trkpt lat="43.290675" lon="11.3364183"><ele>207.0</ele><time>2026-05-03T10:42:53.163Z</time></trkpt><trkpt lat="43.29076" lon="11.3365333"><ele>207.0</ele><time>2026-05-03T10:42:54.161Z</time></trkpt><trkpt lat="43.2908617" lon="11.33662"><ele>207.0</ele><time>2026-05-03T10:42:55.162Z</time></trkpt><trkpt lat="43.29098" lon="11.3366833"><ele>207.0</ele><time>2026-05-03T10:42:56.164Z</time></trkpt><trkpt lat="43.291105" lon="11.336715"><ele>207.0</ele><time>2026-05-03T10:42:57.164Z</time></trkpt><trkpt lat="43.2912317" lon="11.336715"><ele>207.0</ele><time>2026-05-03T10:42:58.164Z</time></trkpt><trkpt lat="43.29136" lon="11.3366933"><ele>207.0</ele><time>2026-05-03T10:42:59.165Z</time></trkpt><trkpt lat="43.2914883" lon="11.336655"><ele>207.25</ele><time>2026-05-03T10:43:00.164Z</time></trkpt><trkpt lat="43.2916233" lon="11.3366067"><ele>207.5</ele><time>2026-05-03T10:43:01.165Z</time></trkpt><trkpt lat="43.2917633" lon="11.3365567"><ele>207.75</ele><time>2026-05-03T10:43:02.164Z</time></trkpt><trkpt lat="43.291905" lon="11.336505"><ele>208.0</ele><time>2026-05-03T10:43:03.164Z</time></trkpt><trkpt lat="43.29205" lon="11.3364533"><ele>208.0</ele><time>2026-05-03T10:43:04.164Z</time></trkpt><trkpt lat="43.2922" lon="11.3364017"><ele>208.0</ele><time>2026-05-03T10:43:05.165Z</time></trkpt><trkpt lat="43.29235" lon="11.33635"><ele>208.0</ele><time>2026-05-03T10:43:06.164Z</time></trkpt><trkpt lat="43.292505" lon="11.3363033"><ele>209.0</ele><time>2026-05-03T10:43:07.164Z</time></trkpt><trkpt lat="43.2926583" lon="11.3362633"><ele>210.0</ele><time>2026-05-03T10:43:08.164Z</time></trkpt><trkpt lat="43.2928083" lon="11.3362283"><ele>211.0</ele><time>2026-05-03T10:43:09.164Z</time></trkpt><trkpt lat="43.2929583" lon="11.336195"><ele>212.0</ele><time>2026-05-03T10:43:10.163Z</time></trkpt><trkpt lat="43.29311" lon="11.3361583"><ele>213.0</ele><time>2026-05-03T10:43:11.166Z</time></trkpt><trkpt lat="43.2932633" lon="11.336115"><ele>214.0</ele><time>2026-05-03T10:43:12.164Z</time></trkpt><trkpt lat="43.29342" lon="11.3360683"><ele>214.0</ele><time>2026-05-03T10:43:13.164Z</time></trkpt><trkpt lat="43.2935717" lon="11.3360217"><ele>214.0</ele><time>2026-05-03T10:43:14.164Z</time></trkpt><trkpt lat="43.293725" lon="11.3359833"><ele>214.0</ele><time>2026-05-03T10:43:15.164Z</time></trkpt><trkpt lat="43.2938817" lon="11.3359517"><ele>212.66666666666666</ele><time>2026-05-03T10:43:16.164Z</time></trkpt><trkpt lat="43.2940433" lon="11.3359317"><ele>211.33333333333331</ele><time>2026-05-03T10:43:17.165Z</time></trkpt><trkpt lat="43.2942067" lon="11.335925"><ele>210.0</ele><time>2026-05-03T10:43:18.253Z</time></trkpt><trkpt lat="43.2943733" lon="11.3359283"><ele>210.0</ele><time>2026-05-03T10:43:19.162Z</time></trkpt><trkpt lat="43.2945417" lon="11.3359433"><ele>210.0</ele><time>2026-05-03T10:43:20.164Z</time></trkpt><trkpt lat="43.29471" lon="11.335975"><ele>210.0</ele><time>2026-05-03T10:43:21.161Z</time></trkpt><trkpt lat="43.29488" lon="11.3360183"><ele>210.66666666666669</ele><time>2026-05-03T10:43:22.163Z</time></trkpt><trkpt lat="43.2950517" lon="11.33608"><ele>211.33333333333334</ele><time>2026-05-03T10:43:23.165Z</time></trkpt><trkpt lat="43.2952233" lon="11.3361567"><ele>212.0</ele><time>2026-05-03T10:43:24.164Z</time></trkpt><trkpt lat="43.2953983" lon="11.33625"><ele>212.0</ele><time>2026-05-03T10:43:25.164Z</time></trkpt><trkpt lat="43.29557" lon="11.3363617"><ele>212.0</ele><time>2026-05-03T10:43:26.163Z</time></trkpt><trkpt lat="43.2957333" lon="11.3364917"><ele>212.0</ele><time>2026-05-03T10:43:27.164Z</time></trkpt><trkpt lat="43.2958867" lon="11.3366317"><ele>213.66666666666669</ele><time>2026-05-03T10:43:28.164Z</time></trkpt><trkpt lat="43.2960317" lon="11.3367733"><ele>215.33333333333331</ele><time>2026-05-03T10:43:29.165Z</time></trkpt><trkpt lat="43.2961667" lon="11.33691"><ele>217.0</ele><time>2026-05-03T10:43:30.164Z</time></trkpt><trkpt lat="43.2962917" lon="11.3370417"><ele>217.0</ele><time>2026-05-03T10:43:31.164Z</time></trkpt><trkpt lat="43.2964133" lon="11.3371717"><ele>217.0</ele><time>2026-05-03T10:43:32.164Z</time></trkpt><trkpt lat="43.2965283" lon="11.3373017"><ele>217.0</ele><time>2026-05-03T10:43:33.164Z</time></trkpt><trkpt lat="43.2966383" lon="11.33744"><ele>219.25</ele><time>2026-05-03T10:43:34.165Z</time></trkpt><trkpt lat="43.2967417" lon="11.3375833"><ele>221.5</ele><time>2026-05-03T10:43:35.164Z</time></trkpt><trkpt lat="43.2968367" lon="11.3377317"><ele>223.75</ele><time>2026-05-03T10:43:36.164Z</time></trkpt><trkpt lat="43.2969267" lon="11.3378833"><ele>226.0</ele><time>2026-05-03T10:43:37.165Z</time></trkpt><trkpt lat="43.297015" lon="11.3380383"><ele>227.25</ele><time>2026-05-03T10:43:38.165Z</time></trkpt><trkpt lat="43.2971017" lon="11.3381933"><ele>228.5</ele><time>2026-05-03T10:43:39.161Z</time></trkpt><trkpt lat="43.2971933" lon="11.3383417"><ele>229.75</ele><time>2026-05-03T10:43:40.162Z</time></trkpt><trkpt lat="43.2972817" lon="11.3384867"><ele>231.0</ele><time>2026-05-03T10:43:41.163Z</time></trkpt><trkpt lat="43.2973633" lon="11.3386333"><ele>234.0</ele><time>2026-05-03T10:43:42.162Z</time></trkpt><trkpt lat="43.2974433" lon="11.3387633"><ele>237.0</ele><time>2026-05-03T10:43:43.163Z</time></trkpt><trkpt lat="43.2977867" lon="11.33954"><ele>235.0</ele><time>2026-05-03T10:43:47.163Z</time></trkpt><trkpt lat="43.2978383" lon="11.3397567"><ele>233.0</ele><time>2026-05-03T10:43:48.164Z</time></trkpt><trkpt lat="43.2978533" lon="11.33995"><ele>231.0</ele><time>2026-05-03T10:43:49.165Z</time></trkpt><trkpt lat="43.297905" lon="11.3401383"><ele>231.0</ele><time>2026-05-03T10:43:50.164Z</time></trkpt><trkpt lat="43.2979633" lon="11.3403183"><ele>231.0</ele><time>2026-05-03T10:43:51.161Z</time></trkpt><trkpt lat="43.2980133" lon="11.3405083"><ele>231.0</ele><time>2026-05-03T10:43:52.166Z</time></trkpt><trkpt lat="43.2980783" lon="11.3407"><ele>231.0</ele><time>2026-05-03T10:43:53.164Z</time></trkpt><trkpt lat="43.2981467" lon="11.3408917"><ele>229.33333333333331</ele><time>2026-05-03T10:43:54.164Z</time></trkpt><trkpt lat="43.29822" lon="11.34109"><ele>227.66666666666666</ele><time>2026-05-03T10:43:55.164Z</time></trkpt><trkpt lat="43.29829" lon="11.3412867"><ele>226.0</ele><time>2026-05-03T10:43:56.164Z</time></trkpt><trkpt lat="43.2983617" lon="11.3414883"><ele>225.33333333333331</ele><time>2026-05-03T10:43:57.162Z</time></trkpt><trkpt lat="43.2984283" lon="11.3416967"><ele>224.66666666666669</ele><time>2026-05-03T10:43:58.162Z</time></trkpt><trkpt lat="43.2984933" lon="11.34191"><ele>224.0</ele><time>2026-05-03T10:43:59.162Z</time></trkpt><trkpt lat="43.2985567" lon="11.3421267"><ele>221.66666666666669</ele><time>2026-05-03T10:44:00.162Z</time></trkpt><trkpt lat="43.2986183" lon="11.3423483"><ele>219.33333333333331</ele><time>2026-05-03T10:44:01.162Z</time></trkpt><trkpt lat="43.2986783" lon="11.3425717"><ele>217.0</ele><time>2026-05-03T10:44:02.162Z</time></trkpt><trkpt lat="43.2987333" lon="11.3427983"><ele>217.0</ele><time>2026-05-03T10:44:03.165Z</time></trkpt><trkpt lat="43.2987917" lon="11.343025"><ele>217.0</ele><time>2026-05-03T10:44:04.164Z</time></trkpt><trkpt lat="43.2988417" lon="11.3432517"><ele>217.0</ele><time>2026-05-03T10:44:05.165Z</time></trkpt><trkpt lat="43.29889" lon="11.3434767"><ele>217.66666666666666</ele><time>2026-05-03T10:44:06.161Z</time></trkpt><trkpt lat="43.2989333" lon="11.3437"><ele>218.33333333333331</ele><time>2026-05-03T10:44:07.164Z</time></trkpt><trkpt lat="43.2989733" lon="11.3439217"><ele>219.0</ele><time>2026-05-03T10:44:08.165Z</time></trkpt><trkpt lat="43.2990117" lon="11.3441433"><ele>216.33333333333331</ele><time>2026-05-03T10:44:09.164Z</time></trkpt><trkpt lat="43.29905" lon="11.3443683"><ele>213.66666666666666</ele><time>2026-05-03T10:44:10.164Z</time></trkpt><trkpt lat="43.29909" lon="11.3445933"><ele>211.0</ele><time>2026-05-03T10:44:11.165Z</time></trkpt><trkpt lat="43.2991283" lon="11.34482"><ele>211.0</ele><time>2026-05-03T10:44:12.164Z</time></trkpt><trkpt lat="43.2991667" lon="11.3450517"><ele>211.0</ele><time>2026-05-03T10:44:13.165Z</time></trkpt><trkpt lat="43.299205" lon="11.34528"><ele>211.0</ele><time>2026-05-03T10:44:14.163Z</time></trkpt><trkpt lat="43.29924" lon="11.3454983"><ele>210.66666666666666</ele><time>2026-05-03T10:44:15.165Z</time></trkpt><trkpt lat="43.2992717" lon="11.34571"><ele>210.33333333333331</ele><time>2026-05-03T10:44:16.164Z</time></trkpt><trkpt lat="43.2993017" lon="11.3459183"><ele>210.0</ele><time>2026-05-03T10:44:17.165Z</time></trkpt><trkpt lat="43.2993317" lon="11.34613"><ele>210.0</ele><time>2026-05-03T10:44:18.164Z</time></trkpt><trkpt lat="43.2993617" lon="11.34634"><ele>210.0</ele><time>2026-05-03T10:44:19.165Z</time></trkpt><trkpt lat="43.2993917" lon="11.3465483"><ele>210.0</ele><time>2026-05-03T10:44:20.165Z</time></trkpt><trkpt lat="43.299425" lon="11.3467583"><ele>208.33333333333331</ele><time>2026-05-03T10:44:21.164Z</time></trkpt><trkpt lat="43.2994583" lon="11.3469683"><ele>206.66666666666666</ele><time>2026-05-03T10:44:22.165Z</time></trkpt><trkpt lat="43.2994917" lon="11.3471767"><ele>205.0</ele><time>2026-05-03T10:44:23.165Z</time></trkpt><trkpt lat="43.2995267" lon="11.3473833"><ele>205.0</ele><time>2026-05-03T10:44:24.164Z</time></trkpt><trkpt lat="43.29956" lon="11.34759"><ele>205.0</ele><time>2026-05-03T10:44:25.165Z</time></trkpt><trkpt lat="43.2995917" lon="11.3477983"><ele>205.0</ele><time>2026-05-03T10:44:26.163Z</time></trkpt><trkpt lat="43.2996217" lon="11.3480083"><ele>204.0</ele><time>2026-05-03T10:44:27.162Z</time></trkpt><trkpt lat="43.2996533" lon="11.3482183"><ele>203.0</ele><time>2026-05-03T10:44:28.162Z</time></trkpt><trkpt lat="43.2996867" lon="11.3484283"><ele>202.0</ele><time>2026-05-03T10:44:29.163Z</time></trkpt><trkpt lat="43.29972" lon="11.3486383"><ele>205.0</ele><time>2026-05-03T10:44:30.164Z</time></trkpt><trkpt lat="43.299755" lon="11.3488483"><ele>208.0</ele><time>2026-05-03T10:44:31.163Z</time></trkpt><trkpt lat="43.2997883" lon="11.3490567"><ele>211.0</ele><time>2026-05-03T10:44:32.162Z</time></trkpt><trkpt lat="43.29982" lon="11.3492633"><ele>211.0</ele><time>2026-05-03T10:44:33.162Z</time></trkpt><trkpt lat="43.2998517" lon="11.3494717"><ele>211.0</ele><time>2026-05-03T10:44:34.162Z</time></trkpt><trkpt lat="43.2998817" lon="11.349675"><ele>211.0</ele><time>2026-05-03T10:44:35.164Z</time></trkpt><trkpt lat="43.2999083" lon="11.3498683"><ele>211.0</ele><time>2026-05-03T10:44:36.161Z</time></trkpt><trkpt lat="43.2999383" lon="11.3500617"><ele>210.25</ele><time>2026-05-03T10:44:37.162Z</time></trkpt><trkpt lat="43.2999667" lon="11.350255"><ele>209.5</ele><time>2026-05-03T10:44:38.165Z</time></trkpt><trkpt lat="43.2999983" lon="11.3504433"><ele>208.75</ele><time>2026-05-03T10:44:39.165Z</time></trkpt><trkpt lat="43.30003" lon="11.3506317"><ele>208.0</ele><time>2026-05-03T10:44:40.162Z</time></trkpt><trkpt lat="43.30006" lon="11.3508217"><ele>206.5</ele><time>2026-05-03T10:44:41.165Z</time></trkpt><trkpt lat="43.30009" lon="11.3510133"><ele>205.0</ele><time>2026-05-03T10:44:42.164Z</time></trkpt><trkpt lat="43.3001217" lon="11.35121"><ele>203.5</ele><time>2026-05-03T10:44:43.166Z</time></trkpt><trkpt lat="43.3001533" lon="11.351405"><ele>202.0</ele><time>2026-05-03T10:44:44.164Z</time></trkpt><trkpt lat="43.3001833" lon="11.3516067"><ele>201.33333333333331</ele><time>2026-05-03T10:44:45.161Z</time></trkpt><trkpt lat="43.300215" lon="11.35181"><ele>200.66666666666669</ele><time>2026-05-03T10:44:46.162Z</time></trkpt><trkpt lat="43.30025" lon="11.3520133"><ele>200.0</ele><time>2026-05-03T10:44:47.166Z</time></trkpt><trkpt lat="43.300285" lon="11.352215"><ele>199.5</ele><time>2026-05-03T10:44:48.165Z</time></trkpt><trkpt lat="43.300315" lon="11.3524183"><ele>199.0</ele><time>2026-05-03T10:44:49.165Z</time></trkpt><trkpt lat="43.3003433" lon="11.352615"><ele>198.5</ele><time>2026-05-03T10:44:50.165Z</time></trkpt><trkpt lat="43.300375" lon="11.3528117"><ele>198.0</ele><time>2026-05-03T10:44:51.165Z</time></trkpt><trkpt lat="43.3004067" lon="11.3530083"><ele>197.75</ele><time>2026-05-03T10:44:52.165Z</time></trkpt><trkpt lat="43.300435" lon="11.3531983"><ele>197.5</ele><time>2026-05-03T10:44:53.165Z</time></trkpt><trkpt lat="43.3004633" lon="11.3533817"><ele>197.25</ele><time>2026-05-03T10:44:54.165Z</time></trkpt><trkpt lat="43.3004917" lon="11.35356"><ele>197.0</ele><time>2026-05-03T10:44:55.165Z</time></trkpt><trkpt lat="43.3005183" lon="11.3537367"><ele>197.75</ele><time>2026-05-03T10:44:56.162Z</time></trkpt><trkpt lat="43.3005467" lon="11.353915"><ele>198.5</ele><time>2026-05-03T10:44:57.162Z</time></trkpt><trkpt lat="43.3005717" lon="11.35409"><ele>199.25</ele><time>2026-05-03T10:44:58.163Z</time></trkpt><trkpt lat="43.3005983" lon="11.3542683"><ele>200.0</ele><time>2026-05-03T10:44:59.165Z</time></trkpt><trkpt lat="43.300625" lon="11.354455"><ele>201.5</ele><time>2026-05-03T10:45:00.164Z</time></trkpt><trkpt lat="43.30065" lon="11.3546467"><ele>203.0</ele><time>2026-05-03T10:45:01.164Z</time></trkpt><trkpt lat="43.3006733" lon="11.35485"><ele>204.5</ele><time>2026-05-03T10:45:02.163Z</time></trkpt><trkpt lat="43.3006967" lon="11.3550583"><ele>206.0</ele><time>2026-05-03T10:45:03.166Z</time></trkpt><trkpt lat="43.300715" lon="11.3552717"><ele>206.33333333333334</ele><time>2026-05-03T10:45:04.163Z</time></trkpt><trkpt lat="43.3007317" lon="11.35549"><ele>206.66666666666669</ele><time>2026-05-03T10:45:05.163Z</time></trkpt><trkpt lat="43.30074" lon="11.3557083"><ele>207.0</ele><time>2026-05-03T10:45:06.165Z</time></trkpt><trkpt lat="43.3007433" lon="11.35593"><ele>207.0</ele><time>2026-05-03T10:45:07.165Z</time></trkpt><trkpt lat="43.30074" lon="11.35615"><ele>207.0</ele><time>2026-05-03T10:45:08.164Z</time></trkpt><trkpt lat="43.30073" lon="11.3563733"><ele>207.0</ele><time>2026-05-03T10:45:09.168Z</time></trkpt><trkpt lat="43.3007167" lon="11.3565967"><ele>206.0</ele><time>2026-05-03T10:45:10.165Z</time></trkpt><trkpt lat="43.3007" lon="11.3568167"><ele>205.0</ele><time>2026-05-03T10:45:11.165Z</time></trkpt><trkpt lat="43.3006817" lon="11.35703"><ele>204.0</ele><time>2026-05-03T10:45:12.165Z</time></trkpt><trkpt lat="43.3006617" lon="11.3572367"><ele>202.66666666666669</ele><time>2026-05-03T10:45:13.166Z</time></trkpt><trkpt lat="43.300635" lon="11.3574417"><ele>201.33333333333334</ele><time>2026-05-03T10:45:14.164Z</time></trkpt><trkpt lat="43.3006017" lon="11.357645"><ele>200.0</ele><time>2026-05-03T10:45:15.165Z</time></trkpt><trkpt lat="43.3005617" lon="11.3578483"><ele>198.66666666666669</ele><time>2026-05-03T10:45:16.165Z</time></trkpt><trkpt lat="43.3005167" lon="11.3580533"><ele>197.33333333333331</ele><time>2026-05-03T10:45:17.165Z</time></trkpt><trkpt lat="43.3004667" lon="11.358255"><ele>196.0</ele><time>2026-05-03T10:45:18.165Z</time></trkpt><trkpt lat="43.300415" lon="11.3584583"><ele>196.0</ele><time>2026-05-03T10:45:19.165Z</time></trkpt><trkpt lat="43.3003617" lon="11.35866"><ele>196.0</ele><time>2026-05-03T10:45:20.167Z</time></trkpt><trkpt lat="43.3003017" lon="11.3588617"><ele>196.0</ele><time>2026-05-03T10:45:21.165Z</time></trkpt><trkpt lat="43.3002417" lon="11.35906"><ele>197.0</ele><time>2026-05-03T10:45:22.164Z</time></trkpt><trkpt lat="43.3001783" lon="11.3592533"><ele>198.0</ele><time>2026-05-03T10:45:23.164Z</time></trkpt><trkpt lat="43.3001183" lon="11.3594483"><ele>199.0</ele><time>2026-05-03T10:45:24.164Z</time></trkpt><trkpt lat="43.3000583" lon="11.3596367"><ele>199.75</ele><time>2026-05-03T10:45:25.164Z</time></trkpt><trkpt lat="43.2999967" lon="11.3598217"><ele>200.5</ele><time>2026-05-03T10:45:26.161Z</time></trkpt><trkpt lat="43.2999367" lon="11.36001"><ele>201.25</ele><time>2026-05-03T10:45:27.163Z</time></trkpt><trkpt lat="43.299875" lon="11.3601983"><ele>202.0</ele><time>2026-05-03T10:45:28.162Z</time></trkpt><trkpt lat="43.299815" lon="11.36039"><ele>201.0</ele><time>2026-05-03T10:45:29.163Z</time></trkpt><trkpt lat="43.299755" lon="11.360585"><ele>200.0</ele><time>2026-05-03T10:45:30.163Z</time></trkpt><trkpt lat="43.2997" lon="11.36078"><ele>199.0</ele><time>2026-05-03T10:45:31.162Z</time></trkpt><trkpt lat="43.2996417" lon="11.3609767"><ele>199.0</ele><time>2026-05-03T10:45:32.163Z</time></trkpt><trkpt lat="43.2995817" lon="11.3611767"><ele>199.0</ele><time>2026-05-03T10:45:33.164Z</time></trkpt><trkpt lat="43.2995233" lon="11.36138"><ele>199.0</ele><time>2026-05-03T10:45:34.164Z</time></trkpt><trkpt lat="43.2994633" lon="11.3615833"><ele>199.33333333333331</ele><time>2026-05-03T10:45:35.168Z</time></trkpt><trkpt lat="43.2994033" lon="11.36179"><ele>199.66666666666669</ele><time>2026-05-03T10:45:36.164Z</time></trkpt><trkpt lat="43.299345" lon="11.3620017"><ele>200.0</ele><time>2026-05-03T10:45:37.257Z</time></trkpt><trkpt lat="43.2992883" lon="11.3622117"><ele>200.33333333333334</ele><time>2026-05-03T10:45:38.163Z</time></trkpt><trkpt lat="43.299235" lon="11.3624233"><ele>200.66666666666669</ele><time>2026-05-03T10:45:39.162Z</time></trkpt><trkpt lat="43.299185" lon="11.362635"><ele>201.0</ele><time>2026-05-03T10:45:40.165Z</time></trkpt><trkpt lat="43.2991383" lon="11.3628467"><ele>203.0</ele><time>2026-05-03T10:45:41.163Z</time></trkpt><trkpt lat="43.2990983" lon="11.363055"><ele>205.0</ele><time>2026-05-03T10:45:42.163Z</time></trkpt><trkpt lat="43.2990583" lon="11.363265"><ele>207.0</ele><time>2026-05-03T10:45:43.164Z</time></trkpt><trkpt lat="43.2990183" lon="11.3634717"><ele>207.0</ele><time>2026-05-03T10:45:44.162Z</time></trkpt><trkpt lat="43.2989833" lon="11.36368"><ele>207.0</ele><time>2026-05-03T10:45:45.164Z</time></trkpt><trkpt lat="43.2989517" lon="11.3638883"><ele>207.0</ele><time>2026-05-03T10:45:46.164Z</time></trkpt><trkpt lat="43.2989233" lon="11.3641"><ele>207.33333333333331</ele><time>2026-05-03T10:45:47.164Z</time></trkpt><trkpt lat="43.2989017" lon="11.364315"><ele>207.66666666666666</ele><time>2026-05-03T10:45:48.164Z</time></trkpt><trkpt lat="43.2988817" lon="11.3645233"><ele>208.0</ele><time>2026-05-03T10:45:49.164Z</time></trkpt><trkpt lat="43.2988617" lon="11.3647367"><ele>208.66666666666666</ele><time>2026-05-03T10:45:50.253Z</time></trkpt><trkpt lat="43.2988433" lon="11.3649517"><ele>209.33333333333331</ele><time>2026-05-03T10:45:51.161Z</time></trkpt><trkpt lat="43.2988233" lon="11.3651667"><ele>210.0</ele><time>2026-05-03T10:45:52.164Z</time></trkpt><trkpt lat="43.2988067" lon="11.365385"><ele>212.0</ele><time>2026-05-03T10:45:53.162Z</time></trkpt><trkpt lat="43.298795" lon="11.3656017"><ele>214.0</ele><time>2026-05-03T10:45:54.161Z</time></trkpt><trkpt lat="43.2987883" lon="11.3658267"><ele>216.0</ele><time>2026-05-03T10:45:55.162Z</time></trkpt><trkpt lat="43.298785" lon="11.3660483"><ele>216.0</ele><time>2026-05-03T10:45:56.164Z</time></trkpt><trkpt lat="43.2987833" lon="11.366275"><ele>216.0</ele><time>2026-05-03T10:45:57.164Z</time></trkpt><trkpt lat="43.2987783" lon="11.3665033"><ele>216.0</ele><time>2026-05-03T10:45:58.164Z</time></trkpt><trkpt lat="43.298775" lon="11.3667283"><ele>218.66666666666669</ele><time>2026-05-03T10:45:59.162Z</time></trkpt><trkpt lat="43.2987767" lon="11.3669517"><ele>221.33333333333334</ele><time>2026-05-03T10:46:00.163Z</time></trkpt><trkpt lat="43.2987767" lon="11.3671783"><ele>224.0</ele><time>2026-05-03T10:46:01.163Z</time></trkpt><trkpt lat="43.2987817" lon="11.3674033"><ele>226.0</ele><time>2026-05-03T10:46:02.162Z</time></trkpt><trkpt lat="43.29878" lon="11.3676317"><ele>228.0</ele><time>2026-05-03T10:46:03.162Z</time></trkpt><trkpt lat="43.2987767" lon="11.3678633"><ele>230.0</ele><time>2026-05-03T10:46:04.162Z</time></trkpt><trkpt lat="43.2987683" lon="11.3689383"><ele>230.0</ele><time>2026-05-03T10:46:09.162Z</time></trkpt><trkpt lat="43.2987633" lon="11.3691417"><ele>230.0</ele><time>2026-05-03T10:46:10.164Z</time></trkpt><trkpt lat="43.2987617" lon="11.36938"><ele>230.0</ele><time>2026-05-03T10:46:11.164Z</time></trkpt><trkpt lat="43.2987617" lon="11.3696167"><ele>227.33333333333334</ele><time>2026-05-03T10:46:12.163Z</time></trkpt><trkpt lat="43.29876" lon="11.3698533"><ele>224.66666666666669</ele><time>2026-05-03T10:46:13.163Z</time></trkpt><trkpt lat="43.298755" lon="11.3701"><ele>222.0</ele><time>2026-05-03T10:46:14.166Z</time></trkpt><trkpt lat="43.2987517" lon="11.370345"><ele>219.0</ele><time>2026-05-03T10:46:15.161Z</time></trkpt><trkpt lat="43.2987433" lon="11.3705833"><ele>216.0</ele><time>2026-05-03T10:46:16.163Z</time></trkpt><trkpt lat="43.2987367" lon="11.3708117"><ele>213.0</ele><time>2026-05-03T10:46:17.162Z</time></trkpt><trkpt lat="43.29873" lon="11.3710417"><ele>213.0</ele><time>2026-05-03T10:46:18.161Z</time></trkpt><trkpt lat="43.2987267" lon="11.3712767"><ele>213.0</ele><time>2026-05-03T10:46:19.162Z</time></trkpt><trkpt lat="43.2987283" lon="11.3715117"><ele>213.0</ele><time>2026-05-03T10:46:20.162Z</time></trkpt><trkpt lat="43.2987383" lon="11.3717517"><ele>212.33333333333331</ele><time>2026-05-03T10:46:21.161Z</time></trkpt><trkpt lat="43.29876" lon="11.3719983"><ele>211.66666666666666</ele><time>2026-05-03T10:46:22.164Z</time></trkpt><trkpt lat="43.298795" lon="11.3722667"><ele>211.0</ele><time>2026-05-03T10:46:23.165Z</time></trkpt><trkpt lat="43.298845" lon="11.3725567"><ele>210.0</ele><time>2026-05-03T10:46:24.163Z</time></trkpt><trkpt lat="43.2989083" lon="11.37287"><ele>209.0</ele><time>2026-05-03T10:46:25.165Z</time></trkpt><trkpt lat="43.2989867" lon="11.3732"><ele>206.5</ele><time>2026-05-03T10:46:26.164Z</time></trkpt><trkpt lat="43.2990833" lon="11.3735433"><ele>204.0</ele><time>2026-05-03T10:46:27.164Z</time></trkpt><trkpt lat="43.2992017" lon="11.3739"><ele>201.0</ele><time>2026-05-03T10:46:28.164Z</time></trkpt><trkpt lat="43.299335" lon="11.3742433"><ele>198.0</ele><time>2026-05-03T10:46:29.165Z</time></trkpt><trkpt lat="43.2994667" lon="11.37456"><ele>196.0</ele><time>2026-05-03T10:46:30.164Z</time></trkpt><trkpt lat="43.2996017" lon="11.37485"><ele>194.0</ele><time>2026-05-03T10:46:31.164Z</time></trkpt><trkpt lat="43.299745" lon="11.3751267"><ele>195.0</ele><time>2026-05-03T10:46:32.164Z</time></trkpt><trkpt lat="43.2998983" lon="11.3753917"><ele>196.0</ele><time>2026-05-03T10:46:33.164Z</time></trkpt><trkpt lat="43.30006" lon="11.3756467"><ele>197.0</ele><time>2026-05-03T10:46:34.164Z</time></trkpt><trkpt lat="43.3002267" lon="11.3758867"><ele>198.0</ele><time>2026-05-03T10:46:35.165Z</time></trkpt><trkpt lat="43.3003933" lon="11.37612"><ele>198.0</ele><time>2026-05-03T10:46:36.164Z</time></trkpt><trkpt lat="43.3005533" lon="11.3763433"><ele>198.0</ele><time>2026-05-03T10:46:37.164Z</time></trkpt><trkpt lat="43.3007017" lon="11.3765617"><ele>198.0</ele><time>2026-05-03T10:46:38.166Z</time></trkpt><trkpt lat="43.30084" lon="11.37678"><ele>198.0</ele><time>2026-05-03T10:46:39.164Z</time></trkpt><trkpt lat="43.300965" lon="11.3770017"><ele>198.0</ele><time>2026-05-03T10:46:40.165Z</time></trkpt><trkpt lat="43.3010783" lon="11.3772317"><ele>198.0</ele><time>2026-05-03T10:46:41.164Z</time></trkpt><trkpt lat="43.3011783" lon="11.3774833"><ele>197.0</ele><time>2026-05-03T10:46:42.163Z</time></trkpt><trkpt lat="43.3012617" lon="11.37774"><ele>196.0</ele><time>2026-05-03T10:46:43.163Z</time></trkpt><trkpt lat="43.3013283" lon="11.378"><ele>195.0</ele><time>2026-05-03T10:46:44.163Z</time></trkpt><trkpt lat="43.3013733" lon="11.3782583"><ele>195.0</ele><time>2026-05-03T10:46:45.163Z</time></trkpt><trkpt lat="43.3014033" lon="11.3785317"><ele>195.0</ele><time>2026-05-03T10:46:46.164Z</time></trkpt><trkpt lat="43.3014167" lon="11.378825"><ele>195.0</ele><time>2026-05-03T10:46:47.164Z</time></trkpt><trkpt lat="43.301425" lon="11.3791267"><ele>195.0</ele><time>2026-05-03T10:46:48.163Z</time></trkpt><trkpt lat="43.301435" lon="11.3794283"><ele>195.0</ele><time>2026-05-03T10:46:49.166Z</time></trkpt><trkpt lat="43.3014433" lon="11.3797267"><ele>195.0</ele><time>2026-05-03T10:46:50.164Z</time></trkpt><trkpt lat="43.301455" lon="11.3800217"><ele>196.0</ele><time>2026-05-03T10:46:51.165Z</time></trkpt><trkpt lat="43.3014667" lon="11.3803083"><ele>197.0</ele><time>2026-05-03T10:46:52.162Z</time></trkpt><trkpt lat="43.30148" lon="11.3806"><ele>198.0</ele><time>2026-05-03T10:46:53.163Z</time></trkpt><trkpt lat="43.30149" lon="11.3808933"><ele>198.33333333333331</ele><time>2026-05-03T10:46:54.161Z</time></trkpt><trkpt lat="43.301495" lon="11.3811917"><ele>198.66666666666666</ele><time>2026-05-03T10:46:55.163Z</time></trkpt><trkpt lat="43.3014917" lon="11.3814933"><ele>199.0</ele><time>2026-05-03T10:46:56.162Z</time></trkpt><trkpt lat="43.3014833" lon="11.3817933"><ele>199.0</ele><time>2026-05-03T10:46:57.165Z</time></trkpt><trkpt lat="43.3014667" lon="11.3820867"><ele>199.0</ele><time>2026-05-03T10:46:58.164Z</time></trkpt><trkpt lat="43.3014217" lon="11.3823783"><ele>199.0</ele><time>2026-05-03T10:46:59.165Z</time></trkpt><trkpt lat="43.30136" lon="11.3826717"><ele>196.5</ele><time>2026-05-03T10:47:00.165Z</time></trkpt><trkpt lat="43.3012767" lon="11.38296"><ele>194.0</ele><time>2026-05-03T10:47:01.167Z</time></trkpt><trkpt lat="43.301175" lon="11.3832383"><ele>192.66666666666669</ele><time>2026-05-03T10:47:02.166Z</time></trkpt><trkpt lat="43.3010583" lon="11.3835017"><ele>191.33333333333334</ele><time>2026-05-03T10:47:03.164Z</time></trkpt><trkpt lat="43.30093" lon="11.3837483"><ele>190.0</ele><time>2026-05-03T10:47:04.164Z</time></trkpt><trkpt lat="43.3007867" lon="11.3839817"><ele>189.0</ele><time>2026-05-03T10:47:05.165Z</time></trkpt><trkpt lat="43.3006317" lon="11.3842083"><ele>188.0</ele><time>2026-05-03T10:47:06.164Z</time></trkpt><trkpt lat="43.3004733" lon="11.38444"><ele>188.0</ele><time>2026-05-03T10:47:07.164Z</time></trkpt><trkpt lat="43.3003167" lon="11.3846717"><ele>188.0</ele><time>2026-05-03T10:47:08.164Z</time></trkpt><trkpt lat="43.3001583" lon="11.3849067"><ele>187.5</ele><time>2026-05-03T10:47:09.165Z</time></trkpt><trkpt lat="43.2999983" lon="11.3851433"><ele>187.0</ele><time>2026-05-03T10:47:10.161Z</time></trkpt><trkpt lat="43.299835" lon="11.3853867"><ele>185.0</ele><time>2026-05-03T10:47:11.165Z</time></trkpt><trkpt lat="43.2996667" lon="11.3856333"><ele>183.0</ele><time>2026-05-03T10:47:12.163Z</time></trkpt><trkpt lat="43.2995017" lon="11.3858867"><ele>183.0</ele><time>2026-05-03T10:47:13.164Z</time></trkpt><trkpt lat="43.299335" lon="11.3861433"><ele>183.0</ele><time>2026-05-03T10:47:14.163Z</time></trkpt><trkpt lat="43.2991683" lon="11.3864"><ele>183.5</ele><time>2026-05-03T10:47:15.163Z</time></trkpt><trkpt lat="43.2989983" lon="11.3866533"><ele>184.0</ele><time>2026-05-03T10:47:16.163Z</time></trkpt><trkpt lat="43.2988333" lon="11.3869133"><ele>184.0</ele><time>2026-05-03T10:47:17.166Z</time></trkpt><trkpt lat="43.298665" lon="11.3871717"><ele>184.0</ele><time>2026-05-03T10:47:18.162Z</time></trkpt><trkpt lat="43.2984967" lon="11.38743"><ele>186.0</ele><time>2026-05-03T10:47:19.163Z</time></trkpt><trkpt lat="43.298325" lon="11.3876867"><ele>188.0</ele><time>2026-05-03T10:47:20.163Z</time></trkpt><trkpt lat="43.2981517" lon="11.387945"><ele>192.0</ele><time>2026-05-03T10:47:21.164Z</time></trkpt><trkpt lat="43.29798" lon="11.3881967"><ele>196.0</ele><time>2026-05-03T10:47:22.164Z</time></trkpt><trkpt lat="43.2978083" lon="11.3884483"><ele>196.0</ele><time>2026-05-03T10:47:23.166Z</time></trkpt><trkpt lat="43.2976367" lon="11.3886983"><ele>196.0</ele><time>2026-05-03T10:47:24.164Z</time></trkpt><trkpt lat="43.29747" lon="11.38895"><ele>198.5</ele><time>2026-05-03T10:47:25.164Z</time></trkpt><trkpt lat="43.2973017" lon="11.3892"><ele>201.0</ele><time>2026-05-03T10:47:26.162Z</time></trkpt><trkpt lat="43.2971317" lon="11.389455"><ele>203.0</ele><time>2026-05-03T10:47:27.162Z</time></trkpt><trkpt lat="43.296965" lon="11.3897083"><ele>205.0</ele><time>2026-05-03T10:47:28.162Z</time></trkpt><trkpt lat="43.2967967" lon="11.38996"><ele>205.0</ele><time>2026-05-03T10:47:29.163Z</time></trkpt><trkpt lat="43.296635" lon="11.39022"><ele>205.0</ele><time>2026-05-03T10:47:30.162Z</time></trkpt><trkpt lat="43.2964733" lon="11.39049"><ele>202.5</ele><time>2026-05-03T10:47:31.163Z</time></trkpt><trkpt lat="43.2963133" lon="11.3907633"><ele>200.0</ele><time>2026-05-03T10:47:32.163Z</time></trkpt><trkpt lat="43.2961717" lon="11.39104"><ele>200.0</ele><time>2026-05-03T10:47:33.165Z</time></trkpt><trkpt lat="43.29605" lon="11.391325"><ele>200.0</ele><time>2026-05-03T10:47:34.165Z</time></trkpt><trkpt lat="43.2959467" lon="11.3916233"><ele>197.5</ele><time>2026-05-03T10:47:35.166Z</time></trkpt><trkpt lat="43.2958583" lon="11.3919333"><ele>195.0</ele><time>2026-05-03T10:47:36.166Z</time></trkpt><trkpt lat="43.2957883" lon="11.3922567"><ele>195.0</ele><time>2026-05-03T10:47:37.162Z</time></trkpt><trkpt lat="43.2957317" lon="11.39259"><ele>195.0</ele><time>2026-05-03T10:47:38.163Z</time></trkpt><trkpt lat="43.29566" lon="11.3932733"><ele>195.0</ele><time>2026-05-03T10:47:40.162Z</time></trkpt><trkpt lat="43.29564" lon="11.3936217"><ele>195.0</ele><time>2026-05-03T10:47:41.163Z</time></trkpt><trkpt lat="43.29563" lon="11.3939717"><ele>195.0</ele><time>2026-05-03T10:47:42.162Z</time></trkpt><trkpt lat="43.2956217" lon="11.3943217"><ele>195.0</ele><time>2026-05-03T10:47:43.162Z</time></trkpt><trkpt lat="43.2956133" lon="11.39468"><ele>195.0</ele><time>2026-05-03T10:47:44.163Z</time></trkpt><trkpt lat="43.295605" lon="11.395045"><ele>195.0</ele><time>2026-05-03T10:47:45.162Z</time></trkpt><trkpt lat="43.2956017" lon="11.395405"><ele>196.5</ele><time>2026-05-03T10:47:46.162Z</time></trkpt><trkpt lat="43.2956033" lon="11.3957517"><ele>198.0</ele><time>2026-05-03T10:47:47.164Z</time></trkpt><trkpt lat="43.295615" lon="11.39609"><ele>199.5</ele><time>2026-05-03T10:47:48.163Z</time></trkpt><trkpt lat="43.2956367" lon="11.3964267"><ele>201.0</ele><time>2026-05-03T10:47:49.163Z</time></trkpt><trkpt lat="43.295675" lon="11.396765"><ele>201.0</ele><time>2026-05-03T10:47:50.162Z</time></trkpt><trkpt lat="43.2957317" lon="11.3971067"><ele>201.0</ele><time>2026-05-03T10:47:51.162Z</time></trkpt><trkpt lat="43.2958083" lon="11.3974517"><ele>199.0</ele><time>2026-05-03T10:47:52.163Z</time></trkpt><trkpt lat="43.2959033" lon="11.3977867"><ele>197.0</ele><time>2026-05-03T10:47:53.165Z</time></trkpt><trkpt lat="43.2960183" lon="11.398115"><ele>195.0</ele><time>2026-05-03T10:47:54.162Z</time></trkpt><trkpt lat="43.2961533" lon="11.3984317"><ele>193.0</ele><time>2026-05-03T10:47:55.162Z</time></trkpt><trkpt lat="43.296305" lon="11.3987367"><ele>195.5</ele><time>2026-05-03T10:47:56.163Z</time></trkpt><trkpt lat="43.2964683" lon="11.399035"><ele>198.0</ele><time>2026-05-03T10:47:57.165Z</time></trkpt><trkpt lat="43.2966417" lon="11.3993217"><ele>198.0</ele><time>2026-05-03T10:47:58.165Z</time></trkpt><trkpt lat="43.296815" lon="11.3995967"><ele>198.0</ele><time>2026-05-03T10:47:59.165Z</time></trkpt><trkpt lat="43.2969833" lon="11.3998617"><ele>197.5</ele><time>2026-05-03T10:48:00.165Z</time></trkpt><trkpt lat="43.2971467" lon="11.40011"><ele>197.0</ele><time>2026-05-03T10:48:01.167Z</time></trkpt><trkpt lat="43.297305" lon="11.4003533"><ele>193.5</ele><time>2026-05-03T10:48:02.165Z</time></trkpt><trkpt lat="43.297455" lon="11.4005967"><ele>190.0</ele><time>2026-05-03T10:48:03.168Z</time></trkpt><trkpt lat="43.297605" lon="11.4008383"><ele>190.0</ele><time>2026-05-03T10:48:04.165Z</time></trkpt><trkpt lat="43.2977583" lon="11.40108"><ele>190.0</ele><time>2026-05-03T10:48:05.165Z</time></trkpt><trkpt lat="43.2979083" lon="11.40131"><ele>190.33333333333334</ele><time>2026-05-03T10:48:06.165Z</time></trkpt><trkpt lat="43.2980533" lon="11.4015367"><ele>190.66666666666666</ele><time>2026-05-03T10:48:07.165Z</time></trkpt><trkpt lat="43.2981883" lon="11.4017517"><ele>191.0</ele><time>2026-05-03T10:48:08.165Z</time></trkpt><trkpt lat="43.298315" lon="11.40196"><ele>191.0</ele><time>2026-05-03T10:48:09.164Z</time></trkpt><trkpt lat="43.298435" lon="11.4021617"><ele>191.0</ele><time>2026-05-03T10:48:10.162Z</time></trkpt><trkpt lat="43.2985517" lon="11.402355"><ele>191.0</ele><time>2026-05-03T10:48:11.163Z</time></trkpt><trkpt lat="43.298665" lon="11.4025417"><ele>188.66666666666666</ele><time>2026-05-03T10:48:12.163Z</time></trkpt><trkpt lat="43.298775" lon="11.4027183"><ele>186.33333333333334</ele><time>2026-05-03T10:48:13.165Z</time></trkpt><trkpt lat="43.298875" lon="11.4028767"><ele>184.0</ele><time>2026-05-03T10:48:14.164Z</time></trkpt><trkpt lat="43.2989667" lon="11.4030217"><ele>183.75</ele><time>2026-05-03T10:48:15.162Z</time></trkpt><trkpt lat="43.29905" lon="11.4031533"><ele>183.5</ele><time>2026-05-03T10:48:16.163Z</time></trkpt><trkpt lat="43.2991267" lon="11.40328"><ele>183.25</ele><time>2026-05-03T10:48:17.163Z</time></trkpt><trkpt lat="43.2991967" lon="11.4034067"><ele>183.0</ele><time>2026-05-03T10:48:18.163Z</time></trkpt><trkpt lat="43.2992533" lon="11.4035317"><ele>183.0</ele><time>2026-05-03T10:48:19.164Z</time></trkpt><trkpt lat="43.29929" lon="11.4036617"><ele>183.0</ele><time>2026-05-03T10:48:20.161Z</time></trkpt><trkpt lat="43.2992967" lon="11.4037967"><ele>183.0</ele><time>2026-05-03T10:48:21.164Z</time></trkpt><trkpt lat="43.2992833" lon="11.403935"><ele>183.0</ele><time>2026-05-03T10:48:22.164Z</time></trkpt><trkpt lat="43.299235" lon="11.4040767"><ele>183.0</ele><time>2026-05-03T10:48:23.164Z</time></trkpt><trkpt lat="43.2991583" lon="11.4041967"><ele>182.5</ele><time>2026-05-03T10:48:24.163Z</time></trkpt><trkpt lat="43.2990617" lon="11.4042867"><ele>182.0</ele><time>2026-05-03T10:48:25.164Z</time></trkpt><trkpt lat="43.2989467" lon="11.4043333"><ele>181.5</ele><time>2026-05-03T10:48:26.163Z</time></trkpt><trkpt lat="43.2988283" lon="11.4043367"><ele>181.0</ele><time>2026-05-03T10:48:27.165Z</time></trkpt><trkpt lat="43.2987233" lon="11.4043"><ele>180.75</ele><time>2026-05-03T10:48:28.164Z</time></trkpt><trkpt lat="43.298625" lon="11.404225"><ele>180.5</ele><time>2026-05-03T10:48:29.167Z</time></trkpt><trkpt lat="43.2985433" lon="11.404115"><ele>180.25</ele><time>2026-05-03T10:48:30.164Z</time></trkpt><trkpt lat="43.2984767" lon="11.403985"><ele>180.0</ele><time>2026-05-03T10:48:31.164Z</time></trkpt><trkpt lat="43.2984333" lon="11.403845"><ele>180.16666666666666</ele><time>2026-05-03T10:48:32.164Z</time></trkpt><trkpt lat="43.2984083" lon="11.4036983"><ele>180.33333333333334</ele><time>2026-05-03T10:48:33.164Z</time></trkpt><trkpt lat="43.2984017" lon="11.4035667"><ele>180.5</ele><time>2026-05-03T10:48:34.164Z</time></trkpt><trkpt lat="43.2984117" lon="11.4034517"><ele>180.66666666666669</ele><time>2026-05-03T10:48:35.165Z</time></trkpt><trkpt lat="43.29844" lon="11.403355"><ele>180.83333333333334</ele><time>2026-05-03T10:48:36.164Z</time></trkpt><trkpt lat="43.2984917" lon="11.403285"><ele>181.0</ele><time>2026-05-03T10:48:37.164Z</time></trkpt><trkpt lat="43.2985533" lon="11.4032167"><ele>181.0</ele><time>2026-05-03T10:48:38.164Z</time></trkpt><trkpt lat="43.298645" lon="11.4031583"><ele>181.0</ele><time>2026-05-03T10:48:39.164Z</time></trkpt><trkpt lat="43.298765" lon="11.4031167"><ele>181.0</ele><time>2026-05-03T10:48:40.165Z</time></trkpt><trkpt lat="43.2989383" lon="11.40308"><ele>181.0</ele><time>2026-05-03T10:48:41.164Z</time></trkpt><trkpt lat="43.2991033" lon="11.4030333"><ele>181.66666666666669</ele><time>2026-05-03T10:48:42.165Z</time></trkpt><trkpt lat="43.29928" lon="11.4029983"><ele>182.33333333333334</ele><time>2026-05-03T10:48:43.162Z</time></trkpt><trkpt lat="43.299455" lon="11.4029633"><ele>183.0</ele><time>2026-05-03T10:48:44.164Z</time></trkpt><trkpt lat="43.299635" lon="11.402935"><ele>183.33333333333334</ele><time>2026-05-03T10:48:45.164Z</time></trkpt><trkpt lat="43.2998217" lon="11.4029267"><ele>183.66666666666669</ele><time>2026-05-03T10:48:46.164Z</time></trkpt><trkpt lat="43.2999983" lon="11.4029467"><ele>184.0</ele><time>2026-05-03T10:48:47.164Z</time></trkpt><trkpt lat="43.3001667" lon="11.4029733"><ele>185.33333333333334</ele><time>2026-05-03T10:48:48.164Z</time></trkpt><trkpt lat="43.300325" lon="11.4030083"><ele>186.66666666666666</ele><time>2026-05-03T10:48:49.164Z</time></trkpt><trkpt lat="43.300475" lon="11.40305"><ele>188.0</ele><time>2026-05-03T10:48:50.165Z</time></trkpt><trkpt lat="43.3006217" lon="11.403085"><ele>189.0</ele><time>2026-05-03T10:48:51.161Z</time></trkpt><trkpt lat="43.3007667" lon="11.4030933"><ele>190.0</ele><time>2026-05-03T10:48:52.164Z</time></trkpt><trkpt lat="43.3009133" lon="11.403075"><ele>191.0</ele><time>2026-05-03T10:48:53.165Z</time></trkpt><trkpt lat="43.301065" lon="11.403035"><ele>192.0</ele><time>2026-05-03T10:48:54.165Z</time></trkpt><trkpt lat="43.30122" lon="11.4029917"><ele>192.0</ele><time>2026-05-03T10:48:55.162Z</time></trkpt><trkpt lat="43.301375" lon="11.4029367"><ele>192.0</ele><time>2026-05-03T10:48:56.166Z</time></trkpt><trkpt lat="43.3015267" lon="11.4028683"><ele>192.0</ele><time>2026-05-03T10:48:57.166Z</time></trkpt><trkpt lat="43.30167" lon="11.4027717"><ele>196.0</ele><time>2026-05-03T10:48:58.166Z</time></trkpt><trkpt lat="43.301805" lon="11.4026467"><ele>200.0</ele><time>2026-05-03T10:48:59.165Z</time></trkpt><trkpt lat="43.3019367" lon="11.40251"><ele>204.0</ele><time>2026-05-03T10:49:00.164Z</time></trkpt><trkpt lat="43.30206" lon="11.4023717"><ele>204.0</ele><time>2026-05-03T10:49:01.164Z</time></trkpt><trkpt lat="43.30218" lon="11.402245"><ele>204.0</ele><time>2026-05-03T10:49:02.164Z</time></trkpt><trkpt lat="43.3022917" lon="11.402125"><ele>204.0</ele><time>2026-05-03T10:49:03.164Z</time></trkpt><trkpt lat="43.30239" lon="11.4020233"><ele>204.0</ele><time>2026-05-03T10:49:04.164Z</time></trkpt><trkpt lat="43.3024817" lon="11.40193"><ele>206.0</ele><time>2026-05-03T10:49:05.163Z</time></trkpt><trkpt lat="43.30257" lon="11.40185"><ele>208.0</ele><time>2026-05-03T10:49:06.162Z</time></trkpt><trkpt lat="43.3026567" lon="11.4017967"><ele>209.99999999999997</ele><time>2026-05-03T10:49:07.163Z</time></trkpt><trkpt lat="43.3027483" lon="11.40178"><ele>212.0</ele><time>2026-05-03T10:49:08.165Z</time></trkpt><trkpt lat="43.30285" lon="11.401795"><ele>214.0</ele><time>2026-05-03T10:49:09.161Z</time></trkpt><trkpt lat="43.3029533" lon="11.4018433"><ele>214.0</ele><time>2026-05-03T10:49:10.162Z</time></trkpt><trkpt lat="43.30304" lon="11.4019233"><ele>214.0</ele><time>2026-05-03T10:49:11.163Z</time></trkpt><trkpt lat="43.3031333" lon="11.402015"><ele>214.0</ele><time>2026-05-03T10:49:12.161Z</time></trkpt><trkpt lat="43.30324" lon="11.4021133"><ele>214.0</ele><time>2026-05-03T10:49:13.165Z</time></trkpt><trkpt lat="43.30335" lon="11.402205"><ele>215.79999999999998</ele><time>2026-05-03T10:49:14.163Z</time></trkpt><trkpt lat="43.3034467" lon="11.4022833"><ele>217.59999999999997</ele><time>2026-05-03T10:49:15.165Z</time></trkpt><trkpt lat="43.3035417" lon="11.4023433"><ele>219.4</ele><time>2026-05-03T10:49:16.164Z</time></trkpt><trkpt lat="43.3036467" lon="11.402395"><ele>221.2</ele><time>2026-05-03T10:49:17.162Z</time></trkpt><trkpt lat="43.3037583" lon="11.402435"><ele>223.0</ele><time>2026-05-03T10:49:18.163Z</time></trkpt><trkpt lat="43.3038883" lon="11.4024683"><ele>222.75</ele><time>2026-05-03T10:49:19.165Z</time></trkpt><trkpt lat="43.304035" lon="11.40249"><ele>222.5</ele><time>2026-05-03T10:49:20.164Z</time></trkpt><trkpt lat="43.3041867" lon="11.4025"><ele>222.25</ele><time>2026-05-03T10:49:21.164Z</time></trkpt><trkpt lat="43.304325" lon="11.4025083"><ele>222.0</ele><time>2026-05-03T10:49:22.164Z</time></trkpt><trkpt lat="43.3044533" lon="11.4025117"><ele>222.0</ele><time>2026-05-03T10:49:23.166Z</time></trkpt><trkpt lat="43.3045717" lon="11.4025117"><ele>222.0</ele><time>2026-05-03T10:49:24.162Z</time></trkpt><trkpt lat="43.3046733" lon="11.402515"><ele>222.0</ele><time>2026-05-03T10:49:25.165Z</time></trkpt><trkpt lat="43.30476" lon="11.4025317"><ele>222.0</ele><time>2026-05-03T10:49:26.164Z</time></trkpt><trkpt lat="43.304845" lon="11.4025583"><ele>222.0</ele><time>2026-05-03T10:49:27.162Z</time></trkpt><trkpt lat="43.3049367" lon="11.40261"><ele>222.5</ele><time>2026-05-03T10:49:28.161Z</time></trkpt><trkpt lat="43.3050317" lon="11.40269"><ele>223.0</ele><time>2026-05-03T10:49:29.162Z</time></trkpt><trkpt lat="43.30514" lon="11.40278"><ele>223.5</ele><time>2026-05-03T10:49:30.161Z</time></trkpt><trkpt lat="43.3052467" lon="11.4028767"><ele>224.0</ele><time>2026-05-03T10:49:31.162Z</time></trkpt><trkpt lat="43.3053467" lon="11.4029567"><ele>224.0</ele><time>2026-05-03T10:49:32.163Z</time></trkpt><trkpt lat="43.3054383" lon="11.4030267"><ele>223.99999999999997</ele><time>2026-05-03T10:49:33.162Z</time></trkpt><trkpt lat="43.305525" lon="11.4030967"><ele>223.99999999999997</ele><time>2026-05-03T10:49:34.162Z</time></trkpt><trkpt lat="43.3056083" lon="11.40315"><ele>224.0</ele><time>2026-05-03T10:49:35.163Z</time></trkpt><trkpt lat="43.3057033" lon="11.4031817"><ele>224.0</ele><time>2026-05-03T10:49:36.164Z</time></trkpt><trkpt lat="43.3058083" lon="11.4031883"><ele>224.0</ele><time>2026-05-03T10:49:37.166Z</time></trkpt><trkpt lat="43.305915" lon="11.4031833"><ele>224.0</ele><time>2026-05-03T10:49:38.163Z</time></trkpt><trkpt lat="43.30604" lon="11.4031717"><ele>224.0</ele><time>2026-05-03T10:49:39.163Z</time></trkpt><trkpt lat="43.3061733" lon="11.4031617"><ele>224.0</ele><time>2026-05-03T10:49:40.163Z</time></trkpt><trkpt lat="43.3063133" lon="11.40317"><ele>224.25</ele><time>2026-05-03T10:49:41.165Z</time></trkpt><trkpt lat="43.3064567" lon="11.4031817"><ele>224.5</ele><time>2026-05-03T10:49:42.166Z</time></trkpt><trkpt lat="43.3066083" lon="11.403185"><ele>224.75</ele><time>2026-05-03T10:49:43.164Z</time></trkpt><trkpt lat="43.3067517" lon="11.4031833"><ele>225.0</ele><time>2026-05-03T10:49:44.162Z</time></trkpt><trkpt lat="43.3068933" lon="11.4031833"><ele>225.0</ele><time>2026-05-03T10:49:45.162Z</time></trkpt><trkpt lat="43.3070233" lon="11.4031817"><ele>225.0</ele><time>2026-05-03T10:49:46.162Z</time></trkpt><trkpt lat="43.3071533" lon="11.403175"><ele>225.0</ele><time>2026-05-03T10:49:47.162Z</time></trkpt><trkpt lat="43.3072833" lon="11.4031667"><ele>225.0</ele><time>2026-05-03T10:49:48.162Z</time></trkpt><trkpt lat="43.307415" lon="11.403155"><ele>225.0</ele><time>2026-05-03T10:49:49.165Z</time></trkpt><trkpt lat="43.3075483" lon="11.403145"><ele>225.0</ele><time>2026-05-03T10:49:50.164Z</time></trkpt><trkpt lat="43.307685" lon="11.4031317"><ele>225.0</ele><time>2026-05-03T10:49:51.162Z</time></trkpt><trkpt lat="43.307825" lon="11.4031133"><ele>225.0</ele><time>2026-05-03T10:49:52.162Z</time></trkpt><trkpt lat="43.3079683" lon="11.4030933"><ele>225.5</ele><time>2026-05-03T10:49:53.162Z</time></trkpt><trkpt lat="43.3081017" lon="11.4030833"><ele>226.0</ele><time>2026-05-03T10:49:54.165Z</time></trkpt><trkpt lat="43.308215" lon="11.403075"><ele>226.5</ele><time>2026-05-03T10:49:55.166Z</time></trkpt><trkpt lat="43.3083217" lon="11.40306"><ele>227.0</ele><time>2026-05-03T10:49:56.164Z</time></trkpt><trkpt lat="43.30843" lon="11.40305"><ele>227.00000000000003</ele><time>2026-05-03T10:49:57.162Z</time></trkpt><trkpt lat="43.308505" lon="11.4030583"><ele>227.0</ele><time>2026-05-03T10:49:58.162Z</time></trkpt><trkpt lat="43.3085717" lon="11.4030783"><ele>227.0</ele><time>2026-05-03T10:49:59.163Z</time></trkpt><trkpt lat="43.30864" lon="11.4031383"><ele>227.0</ele><time>2026-05-03T10:50:00.162Z</time></trkpt><trkpt lat="43.3087083" lon="11.4032233"><ele>227.00000000000003</ele><time>2026-05-03T10:50:01.162Z</time></trkpt><trkpt lat="43.3087833" lon="11.4033217"><ele>227.0</ele><time>2026-05-03T10:50:02.163Z</time></trkpt><trkpt lat="43.3088583" lon="11.40343"><ele>227.0</ele><time>2026-05-03T10:50:03.162Z</time></trkpt><trkpt lat="43.3089483" lon="11.403545"><ele>227.0</ele><time>2026-05-03T10:50:04.162Z</time></trkpt><trkpt lat="43.3090433" lon="11.4036633"><ele>227.0</ele><time>2026-05-03T10:50:05.162Z</time></trkpt><trkpt lat="43.3091467" lon="11.40378"><ele>227.0</ele><time>2026-05-03T10:50:06.161Z</time></trkpt><trkpt lat="43.3092617" lon="11.4038917"><ele>226.75</ele><time>2026-05-03T10:50:07.164Z</time></trkpt><trkpt lat="43.30937" lon="11.4039883"><ele>226.5</ele><time>2026-05-03T10:50:08.165Z</time></trkpt><trkpt lat="43.3094667" lon="11.40407"><ele>226.25</ele><time>2026-05-03T10:50:09.165Z</time></trkpt><trkpt lat="43.3095583" lon="11.4041367"><ele>226.0</ele><time>2026-05-03T10:50:10.164Z</time></trkpt><trkpt lat="43.3096517" lon="11.4042017"><ele>226.60000000000002</ele><time>2026-05-03T10:50:11.165Z</time></trkpt><trkpt lat="43.3097433" lon="11.404265"><ele>227.20000000000002</ele><time>2026-05-03T10:50:12.164Z</time></trkpt><trkpt lat="43.3098317" lon="11.40433"><ele>227.79999999999998</ele><time>2026-05-03T10:50:13.162Z</time></trkpt><trkpt lat="43.3099167" lon="11.4043967"><ele>228.39999999999998</ele><time>2026-05-03T10:50:14.171Z</time></trkpt><trkpt lat="43.3100033" lon="11.4044683"><ele>229.0</ele><time>2026-05-03T10:50:15.167Z</time></trkpt><trkpt lat="43.3100783" lon="11.4045467"><ele>229.0</ele><time>2026-05-03T10:50:16.164Z</time></trkpt><trkpt lat="43.3101433" lon="11.4046333"><ele>228.99999999999997</ele><time>2026-05-03T10:50:17.165Z</time></trkpt><trkpt lat="43.3101883" lon="11.4047333"><ele>228.99999999999997</ele><time>2026-05-03T10:50:18.165Z</time></trkpt><trkpt lat="43.3102233" lon="11.4048517"><ele>229.0</ele><time>2026-05-03T10:50:19.165Z</time></trkpt><trkpt lat="43.3102583" lon="11.4049833"><ele>229.0</ele><time>2026-05-03T10:50:20.166Z</time></trkpt><trkpt lat="43.3102917" lon="11.405125"><ele>229.0</ele><time>2026-05-03T10:50:21.165Z</time></trkpt><trkpt lat="43.3103317" lon="11.4052667"><ele>229.0</ele><time>2026-05-03T10:50:22.166Z</time></trkpt><trkpt lat="43.3103717" lon="11.4054067"><ele>229.0</ele><time>2026-05-03T10:50:23.166Z</time></trkpt><trkpt lat="43.3104217" lon="11.4055467"><ele>229.0</ele><time>2026-05-03T10:50:24.164Z</time></trkpt><trkpt lat="43.3104783" lon="11.4056917"><ele>229.0</ele><time>2026-05-03T10:50:25.164Z</time></trkpt><trkpt lat="43.3105417" lon="11.405835"><ele>229.0</ele><time>2026-05-03T10:50:26.169Z</time></trkpt><trkpt lat="43.3106117" lon="11.405985"><ele>229.0</ele><time>2026-05-03T10:50:27.163Z</time></trkpt><trkpt lat="43.3106817" lon="11.40613"><ele>229.0</ele><time>2026-05-03T10:50:28.162Z</time></trkpt><trkpt lat="43.3107567" lon="11.4062617"><ele>227.75</ele><time>2026-05-03T10:50:29.163Z</time></trkpt><trkpt lat="43.31083" lon="11.406385"><ele>226.5</ele><time>2026-05-03T10:50:30.162Z</time></trkpt><trkpt lat="43.31091" lon="11.4065017"><ele>225.25</ele><time>2026-05-03T10:50:31.162Z</time></trkpt><trkpt lat="43.3109917" lon="11.4066117"><ele>224.0</ele><time>2026-05-03T10:50:32.163Z</time></trkpt><trkpt lat="43.3110833" lon="11.4067167"><ele>224.0</ele><time>2026-05-03T10:50:33.164Z</time></trkpt><trkpt lat="43.311175" lon="11.4068183"><ele>224.0</ele><time>2026-05-03T10:50:34.163Z</time></trkpt><trkpt lat="43.3112633" lon="11.4069167"><ele>224.0</ele><time>2026-05-03T10:50:35.165Z</time></trkpt><trkpt lat="43.3113533" lon="11.4070117"><ele>224.0</ele><time>2026-05-03T10:50:36.163Z</time></trkpt><trkpt lat="43.3114483" lon="11.40711"><ele>223.0</ele><time>2026-05-03T10:50:37.162Z</time></trkpt><trkpt lat="43.3115433" lon="11.40721"><ele>222.0</ele><time>2026-05-03T10:50:38.165Z</time></trkpt><trkpt lat="43.3116383" lon="11.407315"><ele>221.0</ele><time>2026-05-03T10:50:39.164Z</time></trkpt><trkpt lat="43.311735" lon="11.4074283"><ele>220.0</ele><time>2026-05-03T10:50:40.165Z</time></trkpt><trkpt lat="43.31183" lon="11.4075517"><ele>220.0</ele><time>2026-05-03T10:50:41.165Z</time></trkpt><trkpt lat="43.3119283" lon="11.4076817"><ele>220.0</ele><time>2026-05-03T10:50:42.165Z</time></trkpt><trkpt lat="43.31203" lon="11.4078183"><ele>220.0</ele><time>2026-05-03T10:50:43.163Z</time></trkpt><trkpt lat="43.3121383" lon="11.4079633"><ele>220.0</ele><time>2026-05-03T10:50:44.165Z</time></trkpt><trkpt lat="43.312245" lon="11.4081133"><ele>216.75</ele><time>2026-05-03T10:50:45.165Z</time></trkpt><trkpt lat="43.31235" lon="11.40826"><ele>213.5</ele><time>2026-05-03T10:50:46.165Z</time></trkpt><trkpt lat="43.3124567" lon="11.4083983"><ele>210.25</ele><time>2026-05-03T10:50:47.166Z</time></trkpt><trkpt lat="43.31256" lon="11.4085317"><ele>207.0</ele><time>2026-05-03T10:50:48.165Z</time></trkpt><trkpt lat="43.3126617" lon="11.408665"><ele>207.0</ele><time>2026-05-03T10:50:49.166Z</time></trkpt><trkpt lat="43.31276" lon="11.4088017"><ele>207.0</ele><time>2026-05-03T10:50:50.166Z</time></trkpt><trkpt lat="43.3128567" lon="11.4089283"><ele>207.0</ele><time>2026-05-03T10:50:51.165Z</time></trkpt><trkpt lat="43.3129467" lon="11.4090617"><ele>207.0</ele><time>2026-05-03T10:50:52.165Z</time></trkpt><trkpt lat="43.3130267" lon="11.4092"><ele>204.5</ele><time>2026-05-03T10:50:53.166Z</time></trkpt><trkpt lat="43.3130933" lon="11.409345"><ele>202.0</ele><time>2026-05-03T10:50:54.165Z</time></trkpt><trkpt lat="43.3131533" lon="11.409495"><ele>199.5</ele><time>2026-05-03T10:50:55.165Z</time></trkpt><trkpt lat="43.3131983" lon="11.4096617"><ele>197.0</ele><time>2026-05-03T10:50:56.163Z</time></trkpt><trkpt lat="43.3132433" lon="11.4098367"><ele>196.5</ele><time>2026-05-03T10:50:57.163Z</time></trkpt><trkpt lat="43.3132883" lon="11.4100067"><ele>196.0</ele><time>2026-05-03T10:50:58.161Z</time></trkpt><trkpt lat="43.3133367" lon="11.4101817"><ele>195.5</ele><time>2026-05-03T10:50:59.162Z</time></trkpt><trkpt lat="43.3133867" lon="11.4103583"><ele>195.0</ele><time>2026-05-03T10:51:00.161Z</time></trkpt><trkpt lat="43.3134367" lon="11.41053"><ele>195.0</ele><time>2026-05-03T10:51:01.161Z</time></trkpt><trkpt lat="43.3134933" lon="11.4106983"><ele>195.0</ele><time>2026-05-03T10:51:02.162Z</time></trkpt><trkpt lat="43.313545" lon="11.4108567"><ele>195.0</ele><time>2026-05-03T10:51:03.162Z</time></trkpt><trkpt lat="43.3135933" lon="11.4110083"><ele>195.0</ele><time>2026-05-03T10:51:04.162Z</time></trkpt><trkpt lat="43.3136383" lon="11.4111567"><ele>195.0</ele><time>2026-05-03T10:51:05.163Z</time></trkpt><trkpt lat="43.3136633" lon="11.4112983"><ele>195.0</ele><time>2026-05-03T10:51:06.162Z</time></trkpt><trkpt lat="43.313675" lon="11.4114417"><ele>195.0</ele><time>2026-05-03T10:51:07.163Z</time></trkpt><trkpt lat="43.31367" lon="11.4115883"><ele>195.0</ele><time>2026-05-03T10:51:08.161Z</time></trkpt><trkpt lat="43.3136533" lon="11.41173"><ele>195.0</ele><time>2026-05-03T10:51:09.163Z</time></trkpt><trkpt lat="43.31364" lon="11.4118583"><ele>195.0</ele><time>2026-05-03T10:51:10.164Z</time></trkpt><trkpt lat="43.3136433" lon="11.4119817"><ele>195.0</ele><time>2026-05-03T10:51:11.164Z</time></trkpt><trkpt lat="43.3136633" lon="11.41209"><ele>195.0</ele><time>2026-05-03T10:51:12.164Z</time></trkpt><trkpt lat="43.3136967" lon="11.4121833"><ele>195.0</ele><time>2026-05-03T10:51:13.165Z</time></trkpt><trkpt lat="43.313765" lon="11.4122833"><ele>195.0</ele><time>2026-05-03T10:51:15.164Z</time></trkpt><trkpt lat="43.3138483" lon="11.4122517"><ele>195.0</ele><time>2026-05-03T10:51:17.165Z</time></trkpt><trkpt lat="43.3139333" lon="11.41214"><ele>195.83333333333334</ele><time>2026-05-03T10:51:19.164Z</time></trkpt><trkpt lat="43.31398" lon="11.4120733"><ele>196.66666666666669</ele><time>2026-05-03T10:51:20.164Z</time></trkpt><trkpt lat="43.3140367" lon="11.4119967"><ele>197.5</ele><time>2026-05-03T10:51:21.164Z</time></trkpt><trkpt lat="43.3141067" lon="11.4119133"><ele>198.33333333333334</ele><time>2026-05-03T10:51:22.164Z</time></trkpt><trkpt lat="43.3141817" lon="11.411825"><ele>199.16666666666669</ele><time>2026-05-03T10:51:23.164Z</time></trkpt><trkpt lat="43.3142617" lon="11.41174"><ele>200.0</ele><time>2026-05-03T10:51:24.164Z</time></trkpt><trkpt lat="43.31435" lon="11.4116567"><ele>200.0</ele><time>2026-05-03T10:51:25.164Z</time></trkpt><trkpt lat="43.3144467" lon="11.4115817"><ele>200.0</ele><time>2026-05-03T10:51:26.162Z</time></trkpt><trkpt lat="43.3145483" lon="11.4115217"><ele>200.0</ele><time>2026-05-03T10:51:27.162Z</time></trkpt><trkpt lat="43.3146583" lon="11.41147"><ele>200.0</ele><time>2026-05-03T10:51:28.162Z</time></trkpt><trkpt lat="43.314775" lon="11.41142"><ele>202.5</ele><time>2026-05-03T10:51:29.163Z</time></trkpt><trkpt lat="43.3148983" lon="11.41137"><ele>205.0</ele><time>2026-05-03T10:51:30.163Z</time></trkpt><trkpt lat="43.3150233" lon="11.41132"><ele>207.5</ele><time>2026-05-03T10:51:31.162Z</time></trkpt><trkpt lat="43.3151517" lon="11.411265"><ele>210.0</ele><time>2026-05-03T10:51:32.163Z</time></trkpt><trkpt lat="43.31528" lon="11.4112133"><ele>210.0</ele><time>2026-05-03T10:51:33.165Z</time></trkpt><trkpt lat="43.31541" lon="11.4111667"><ele>210.0</ele><time>2026-05-03T10:51:34.164Z</time></trkpt><trkpt lat="43.3155467" lon="11.4111217"><ele>210.0</ele><time>2026-05-03T10:51:35.165Z</time></trkpt><trkpt lat="43.3156883" lon="11.4110733"><ele>210.0</ele><time>2026-05-03T10:51:36.164Z</time></trkpt><trkpt lat="43.3158333" lon="11.41102"><ele>212.75</ele><time>2026-05-03T10:51:37.165Z</time></trkpt><trkpt lat="43.3159733" lon="11.410965"><ele>215.5</ele><time>2026-05-03T10:51:38.164Z</time></trkpt><trkpt lat="43.3161083" lon="11.4109117"><ele>218.25</ele><time>2026-05-03T10:51:39.161Z</time></trkpt><trkpt lat="43.3162383" lon="11.41086"><ele>221.0</ele><time>2026-05-03T10:51:40.166Z</time></trkpt><trkpt lat="43.3163683" lon="11.4108083"><ele>223.0</ele><time>2026-05-03T10:51:41.164Z</time></trkpt><trkpt lat="43.3164983" lon="11.4107583"><ele>225.0</ele><time>2026-05-03T10:51:42.165Z</time></trkpt><trkpt lat="43.3166317" lon="11.4107117"><ele>227.0</ele><time>2026-05-03T10:51:43.165Z</time></trkpt><trkpt lat="43.3167633" lon="11.4106733"><ele>229.0</ele><time>2026-05-03T10:51:44.164Z</time></trkpt><trkpt lat="43.3168983" lon="11.410645"><ele>229.0</ele><time>2026-05-03T10:51:45.165Z</time></trkpt><trkpt lat="43.3170367" lon="11.4106167"><ele>229.0</ele><time>2026-05-03T10:51:46.164Z</time></trkpt><trkpt lat="43.3171783" lon="11.41059"><ele>229.0</ele><time>2026-05-03T10:51:47.165Z</time></trkpt><trkpt lat="43.3173233" lon="11.4105717"><ele>229.0</ele><time>2026-05-03T10:51:48.164Z</time></trkpt><trkpt lat="43.3174683" lon="11.410565"><ele>229.75</ele><time>2026-05-03T10:51:49.164Z</time></trkpt><trkpt lat="43.3176133" lon="11.4105667"><ele>230.5</ele><time>2026-05-03T10:51:50.164Z</time></trkpt><trkpt lat="43.3177567" lon="11.41057"><ele>231.25</ele><time>2026-05-03T10:51:51.164Z</time></trkpt><trkpt lat="43.3178917" lon="11.4105617"><ele>232.0</ele><time>2026-05-03T10:51:52.164Z</time></trkpt><trkpt lat="43.3180283" lon="11.4105467"><ele>231.0</ele><time>2026-05-03T10:51:53.165Z</time></trkpt><trkpt lat="43.3181717" lon="11.4105217"><ele>230.0</ele><time>2026-05-03T10:51:54.168Z</time></trkpt><trkpt lat="43.31832" lon="11.410495"><ele>229.0</ele><time>2026-05-03T10:51:55.164Z</time></trkpt><trkpt lat="43.3184733" lon="11.4104733"><ele>228.0</ele><time>2026-05-03T10:51:56.162Z</time></trkpt><trkpt lat="43.3186317" lon="11.4104533"><ele>228.0</ele><time>2026-05-03T10:51:57.162Z</time></trkpt><trkpt lat="43.31879" lon="11.410435"><ele>228.0</ele><time>2026-05-03T10:51:58.162Z</time></trkpt><trkpt lat="43.3189517" lon="11.4104117"><ele>228.0</ele><time>2026-05-03T10:51:59.166Z</time></trkpt><trkpt lat="43.3191117" lon="11.41038"><ele>226.0</ele><time>2026-05-03T10:52:00.161Z</time></trkpt><trkpt lat="43.3192767" lon="11.4103383"><ele>224.0</ele><time>2026-05-03T10:52:01.165Z</time></trkpt><trkpt lat="43.3194433" lon="11.410295"><ele>222.0</ele><time>2026-05-03T10:52:02.162Z</time></trkpt><trkpt lat="43.3196117" lon="11.4102533"><ele>221.66666666666669</ele><time>2026-05-03T10:52:03.165Z</time></trkpt><trkpt lat="43.3197733" lon="11.410205"><ele>221.33333333333334</ele><time>2026-05-03T10:52:04.165Z</time></trkpt><trkpt lat="43.3199267" lon="11.4101533"><ele>221.0</ele><time>2026-05-03T10:52:05.165Z</time></trkpt><trkpt lat="43.3200733" lon="11.4101133"><ele>221.0</ele><time>2026-05-03T10:52:06.164Z</time></trkpt><trkpt lat="43.3202167" lon="11.4100967"><ele>221.0</ele><time>2026-05-03T10:52:07.164Z</time></trkpt><trkpt lat="43.3203583" lon="11.4100983"><ele>221.0</ele><time>2026-05-03T10:52:08.164Z</time></trkpt><trkpt lat="43.3205017" lon="11.4101"><ele>221.0</ele><time>2026-05-03T10:52:09.165Z</time></trkpt><trkpt lat="43.32065" lon="11.4100833"><ele>222.25</ele><time>2026-05-03T10:52:10.164Z</time></trkpt><trkpt lat="43.3208" lon="11.41004"><ele>223.5</ele><time>2026-05-03T10:52:11.165Z</time></trkpt><trkpt lat="43.32094" lon="11.4099783"><ele>224.75</ele><time>2026-05-03T10:52:12.164Z</time></trkpt><trkpt lat="43.3210733" lon="11.4099067"><ele>226.0</ele><time>2026-05-03T10:52:13.167Z</time></trkpt><trkpt lat="43.3211983" lon="11.409855"><ele>226.0</ele><time>2026-05-03T10:52:14.164Z</time></trkpt><trkpt lat="43.3213167" lon="11.4098483"><ele>226.0</ele><time>2026-05-03T10:52:15.164Z</time></trkpt><trkpt lat="43.3214383" lon="11.409865"><ele>226.0</ele><time>2026-05-03T10:52:16.165Z</time></trkpt><trkpt lat="43.321565" lon="11.409895"><ele>226.0</ele><time>2026-05-03T10:52:17.165Z</time></trkpt><trkpt lat="43.321695" lon="11.40992"><ele>228.0</ele><time>2026-05-03T10:52:18.164Z</time></trkpt><trkpt lat="43.3218283" lon="11.4099383"><ele>230.0</ele><time>2026-05-03T10:52:19.164Z</time></trkpt><trkpt lat="43.3219633" lon="11.4099467"><ele>232.0</ele><time>2026-05-03T10:52:20.164Z</time></trkpt><trkpt lat="43.3221" lon="11.4099467"><ele>234.0</ele><time>2026-05-03T10:52:21.164Z</time></trkpt><trkpt lat="43.3222317" lon="11.40994"><ele>236.25</ele><time>2026-05-03T10:52:22.164Z</time></trkpt><trkpt lat="43.322365" lon="11.4099283"><ele>238.5</ele><time>2026-05-03T10:52:23.166Z</time></trkpt><trkpt lat="43.3224967" lon="11.4099167"><ele>240.75</ele><time>2026-05-03T10:52:24.164Z</time></trkpt><trkpt lat="43.3226283" lon="11.40991"><ele>243.0</ele><time>2026-05-03T10:52:25.164Z</time></trkpt><trkpt lat="43.3227567" lon="11.4098933"><ele>243.0</ele><time>2026-05-03T10:52:26.167Z</time></trkpt><trkpt lat="43.322885" lon="11.4098717"><ele>243.0</ele><time>2026-05-03T10:52:27.161Z</time></trkpt><trkpt lat="43.322995" lon="11.40985"><ele>243.0</ele><time>2026-05-03T10:52:28.167Z</time></trkpt><trkpt lat="43.3230733" lon="11.4098417"><ele>243.0</ele><time>2026-05-03T10:52:29.165Z</time></trkpt><trkpt lat="43.32314" lon="11.40983"><ele>243.0</ele><time>2026-05-03T10:52:30.165Z</time></trkpt><trkpt lat="43.3232083" lon="11.4098217"><ele>244.42857142857142</ele><time>2026-05-03T10:52:31.166Z</time></trkpt><trkpt lat="43.3232717" lon="11.4098117"><ele>245.8571428571429</ele><time>2026-05-03T10:52:32.164Z</time></trkpt><trkpt lat="43.3233383" lon="11.40982"><ele>247.2857142857143</ele><time>2026-05-03T10:52:33.166Z</time></trkpt><trkpt lat="43.3234083" lon="11.4098183"><ele>248.71428571428572</ele><time>2026-05-03T10:52:34.161Z</time></trkpt><trkpt lat="43.3234767" lon="11.4098117"><ele>250.14285714285717</ele><time>2026-05-03T10:52:35.165Z</time></trkpt><trkpt lat="43.3235467" lon="11.4097933"><ele>251.5714285714286</ele><time>2026-05-03T10:52:36.161Z</time></trkpt><trkpt lat="43.323635" lon="11.4097933"><ele>253.00000000000003</ele><time>2026-05-03T10:52:37.165Z</time></trkpt><trkpt lat="43.3237217" lon="11.4097783"><ele>252.99999999999997</ele><time>2026-05-03T10:52:38.164Z</time></trkpt><trkpt lat="43.3238117" lon="11.4097633"><ele>253.0</ele><time>2026-05-03T10:52:39.161Z</time></trkpt><trkpt lat="43.3239083" lon="11.4097367"><ele>253.0</ele><time>2026-05-03T10:52:40.162Z</time></trkpt><trkpt lat="43.3240017" lon="11.4097183"><ele>253.0</ele><time>2026-05-03T10:52:41.165Z</time></trkpt><trkpt lat="43.3240817" lon="11.4096967"><ele>252.99999999999997</ele><time>2026-05-03T10:52:42.165Z</time></trkpt><trkpt lat="43.324155" lon="11.40968"><ele>253.0</ele><time>2026-05-03T10:52:43.162Z</time></trkpt><trkpt lat="43.3242317" lon="11.40968"><ele>253.33333333333331</ele><time>2026-05-03T10:52:44.164Z</time></trkpt><trkpt lat="43.3243083" lon="11.4097167"><ele>253.66666666666666</ele><time>2026-05-03T10:52:45.164Z</time></trkpt><trkpt lat="43.3243883" lon="11.40977"><ele>254.0</ele><time>2026-05-03T10:52:46.164Z</time></trkpt><trkpt lat="43.3244683" lon="11.409825"><ele>254.33333333333331</ele><time>2026-05-03T10:52:47.163Z</time></trkpt><trkpt lat="43.324545" lon="11.409885"><ele>254.66666666666666</ele><time>2026-05-03T10:52:48.161Z</time></trkpt><trkpt lat="43.3246333" lon="11.4099383"><ele>255.0</ele><time>2026-05-03T10:52:49.165Z</time></trkpt><trkpt lat="43.3247217" lon="11.4100017"><ele>253.5</ele><time>2026-05-03T10:52:50.166Z</time></trkpt><trkpt lat="43.3248167" lon="11.4101"><ele>252.0</ele><time>2026-05-03T10:52:51.165Z</time></trkpt><trkpt lat="43.32491" lon="11.410205"><ele>250.5</ele><time>2026-05-03T10:52:52.164Z</time></trkpt><trkpt lat="43.3250033" lon="11.410295"><ele>249.0</ele><time>2026-05-03T10:52:53.167Z</time></trkpt><trkpt lat="43.3250967" lon="11.41037"><ele>249.0</ele><time>2026-05-03T10:52:54.165Z</time></trkpt><trkpt lat="43.3251883" lon="11.4104383"><ele>248.99999999999997</ele><time>2026-05-03T10:52:55.165Z</time></trkpt><trkpt lat="43.3252817" lon="11.410505"><ele>248.99999999999997</ele><time>2026-05-03T10:52:56.163Z</time></trkpt><trkpt lat="43.325375" lon="11.4105733"><ele>249.0</ele><time>2026-05-03T10:52:57.166Z</time></trkpt><trkpt lat="43.32546" lon="11.4106333"><ele>249.0</ele><time>2026-05-03T10:52:58.165Z</time></trkpt><trkpt lat="43.325535" lon="11.4106867"><ele>249.0</ele><time>2026-05-03T10:52:59.165Z</time></trkpt><trkpt lat="43.3255983" lon="11.4107233"><ele>248.99999999999997</ele><time>2026-05-03T10:53:00.164Z</time></trkpt><trkpt lat="43.3257017" lon="11.410755"><ele>248.99999999999997</ele><time>2026-05-03T10:53:02.164Z</time></trkpt><trkpt lat="43.3257783" lon="11.410775"><ele>249.0</ele><time>2026-05-03T10:53:05.165Z</time></trkpt><trkpt lat="43.3257783" lon="11.410915"><ele>249.0</ele><time>2026-05-03T10:56:52.164Z</time></trkpt><trkpt lat="43.3257383" lon="11.4110467"><ele>249.0</ele><time>2026-05-03T10:56:54.164Z</time></trkpt><trkpt lat="43.3257017" lon="11.4111883"><ele>248.99999999999997</ele><time>2026-05-03T10:56:56.161Z</time></trkpt><trkpt lat="43.32569" lon="11.41129"><ele>248.99999999999997</ele><time>2026-05-03T10:56:57.161Z</time></trkpt><trkpt lat="43.3256717" lon="11.411405"><ele>249.0</ele><time>2026-05-03T10:56:58.161Z</time></trkpt><trkpt lat="43.32565" lon="11.411525"><ele>249.0</ele><time>2026-05-03T10:56:59.163Z</time></trkpt><trkpt lat="43.3256267" lon="11.4116617"><ele>249.25</ele><time>2026-05-03T10:57:00.162Z</time></trkpt><trkpt lat="43.3255983" lon="11.4118117"><ele>249.5</ele><time>2026-05-03T10:57:01.162Z</time></trkpt><trkpt lat="43.3255667" lon="11.4119683"><ele>249.75</ele><time>2026-05-03T10:57:02.164Z</time></trkpt><trkpt lat="43.3255367" lon="11.41213"><ele>250.0</ele><time>2026-05-03T10:57:03.165Z</time></trkpt><trkpt lat="43.3255083" lon="11.4122867"><ele>250.4</ele><time>2026-05-03T10:57:04.164Z</time></trkpt><trkpt lat="43.32548" lon="11.412435"><ele>250.8</ele><time>2026-05-03T10:57:05.165Z</time></trkpt><trkpt lat="43.32545" lon="11.4125783"><ele>251.2</ele><time>2026-05-03T10:57:06.164Z</time></trkpt><trkpt lat="43.3254217" lon="11.4127233"><ele>251.6</ele><time>2026-05-03T10:57:07.165Z</time></trkpt><trkpt lat="43.32539" lon="11.4128733"><ele>252.0</ele><time>2026-05-03T10:57:08.164Z</time></trkpt><trkpt lat="43.3253567" lon="11.413025"><ele>253.25</ele><time>2026-05-03T10:57:09.164Z</time></trkpt><trkpt lat="43.3253367" lon="11.4131833"><ele>254.5</ele><time>2026-05-03T10:57:10.165Z</time></trkpt><trkpt lat="43.32534" lon="11.4133533"><ele>255.75</ele><time>2026-05-03T10:57:11.165Z</time></trkpt><trkpt lat="43.325355" lon="11.4135333"><ele>257.0</ele><time>2026-05-03T10:57:12.161Z</time></trkpt><trkpt lat="43.32538" lon="11.41372"><ele>257.75</ele><time>2026-05-03T10:57:13.161Z</time></trkpt><trkpt lat="43.325405" lon="11.41391"><ele>258.5</ele><time>2026-05-03T10:57:14.162Z</time></trkpt><trkpt lat="43.325425" lon="11.4140983"><ele>259.25</ele><time>2026-05-03T10:57:15.165Z</time></trkpt><trkpt lat="43.3254367" lon="11.4142867"><ele>260.0</ele><time>2026-05-03T10:57:16.164Z</time></trkpt><trkpt lat="43.3254433" lon="11.4144817"><ele>260.5</ele><time>2026-05-03T10:57:17.164Z</time></trkpt><trkpt lat="43.3254483" lon="11.414665"><ele>261.0</ele><time>2026-05-03T10:57:18.163Z</time></trkpt><trkpt lat="43.3254633" lon="11.4148383"><ele>261.5</ele><time>2026-05-03T10:57:19.164Z</time></trkpt><trkpt lat="43.3254933" lon="11.4150017"><ele>262.0</ele><time>2026-05-03T10:57:20.164Z</time></trkpt><trkpt lat="43.325525" lon="11.4151483"><ele>259.4</ele><time>2026-05-03T10:57:21.165Z</time></trkpt><trkpt lat="43.3255633" lon="11.4152933"><ele>256.79999999999995</ele><time>2026-05-03T10:57:22.165Z</time></trkpt><trkpt lat="43.3255983" lon="11.415435"><ele>254.2</ele><time>2026-05-03T10:57:23.162Z</time></trkpt><trkpt lat="43.3256333" lon="11.4155817"><ele>251.6</ele><time>2026-05-03T10:57:24.166Z</time></trkpt><trkpt lat="43.3256667" lon="11.4157333"><ele>249.0</ele><time>2026-05-03T10:57:25.165Z</time></trkpt><trkpt lat="43.32569" lon="11.4158833"><ele>249.0</ele><time>2026-05-03T10:57:26.162Z</time></trkpt><trkpt lat="43.3257067" lon="11.4160167"><ele>249.0</ele><time>2026-05-03T10:57:27.163Z</time></trkpt><trkpt lat="43.3257167" lon="11.4161367"><ele>249.0</ele><time>2026-05-03T10:57:28.161Z</time></trkpt><trkpt lat="43.32572" lon="11.4162517"><ele>249.0</ele><time>2026-05-03T10:57:29.162Z</time></trkpt><trkpt lat="43.325725" lon="11.4163667"><ele>249.0</ele><time>2026-05-03T10:57:30.162Z</time></trkpt><trkpt lat="43.3257317" lon="11.416485"><ele>249.0</ele><time>2026-05-03T10:57:31.161Z</time></trkpt><trkpt lat="43.32574" lon="11.4166"><ele>247.83333333333334</ele><time>2026-05-03T10:57:32.162Z</time></trkpt><trkpt lat="43.325745" lon="11.41671"><ele>246.66666666666669</ele><time>2026-05-03T10:57:33.162Z</time></trkpt><trkpt lat="43.3257517" lon="11.4168267"><ele>245.5</ele><time>2026-05-03T10:57:34.165Z</time></trkpt><trkpt lat="43.3257583" lon="11.416935"><ele>244.33333333333334</ele><time>2026-05-03T10:57:35.163Z</time></trkpt><trkpt lat="43.3257633" lon="11.417045"><ele>243.16666666666669</ele><time>2026-05-03T10:57:36.161Z</time></trkpt><trkpt lat="43.32577" lon="11.41715"><ele>242.0</ele><time>2026-05-03T10:57:37.166Z</time></trkpt><trkpt lat="43.3257783" lon="11.4172517"><ele>240.66666666666669</ele><time>2026-05-03T10:57:38.162Z</time></trkpt><trkpt lat="43.3257883" lon="11.4173583"><ele>239.33333333333334</ele><time>2026-05-03T10:57:39.162Z</time></trkpt><trkpt lat="43.3258" lon="11.4174667"><ele>238.0</ele><time>2026-05-03T10:57:40.162Z</time></trkpt><trkpt lat="43.325815" lon="11.41758"><ele>236.66666666666669</ele><time>2026-05-03T10:57:41.165Z</time></trkpt><trkpt lat="43.32584" lon="11.4177"><ele>235.33333333333334</ele><time>2026-05-03T10:57:42.165Z</time></trkpt><trkpt lat="43.3258683" lon="11.41782"><ele>234.0</ele><time>2026-05-03T10:57:43.165Z</time></trkpt><trkpt lat="43.3258967" lon="11.41794"><ele>232.39999999999998</ele><time>2026-05-03T10:57:44.164Z</time></trkpt><trkpt lat="43.3259117" lon="11.4180617"><ele>230.79999999999998</ele><time>2026-05-03T10:57:45.164Z</time></trkpt><trkpt lat="43.32591" lon="11.41819"><ele>229.20000000000002</ele><time>2026-05-03T10:57:46.164Z</time></trkpt><trkpt lat="43.3258817" lon="11.4183133"><ele>227.60000000000002</ele><time>2026-05-03T10:57:47.165Z</time></trkpt><trkpt lat="43.3258333" lon="11.418425"><ele>226.0</ele><time>2026-05-03T10:57:48.164Z</time></trkpt><trkpt lat="43.3257717" lon="11.41851"><ele>225.99999999999997</ele><time>2026-05-03T10:57:49.164Z</time></trkpt><trkpt lat="43.3256983" lon="11.4185617"><ele>226.0</ele><time>2026-05-03T10:57:50.164Z</time></trkpt><trkpt lat="43.3256267" lon="11.4186133"><ele>226.0</ele><time>2026-05-03T10:57:51.165Z</time></trkpt><trkpt lat="43.3255617" lon="11.4186667"><ele>226.0</ele><time>2026-05-03T10:57:52.165Z</time></trkpt><trkpt lat="43.3255067" lon="11.4187383"><ele>225.99999999999997</ele><time>2026-05-03T10:57:53.165Z</time></trkpt><trkpt lat="43.3254633" lon="11.4188267"><ele>226.0</ele><time>2026-05-03T10:57:54.165Z</time></trkpt><trkpt lat="43.325435" lon="11.4189333"><ele>225.4</ele><time>2026-05-03T10:57:55.164Z</time></trkpt><trkpt lat="43.325435" lon="11.4190633"><ele>224.8</ele><time>2026-05-03T10:57:56.164Z</time></trkpt><trkpt lat="43.3254483" lon="11.419195"><ele>224.20000000000002</ele><time>2026-05-03T10:57:57.165Z</time></trkpt><trkpt lat="43.325485" lon="11.4193433"><ele>223.60000000000002</ele><time>2026-05-03T10:57:58.165Z</time></trkpt><trkpt lat="43.3255217" lon="11.4194983"><ele>223.0</ele><time>2026-05-03T10:57:59.165Z</time></trkpt><trkpt lat="43.3255567" lon="11.4196517"><ele>220.5</ele><time>2026-05-03T10:58:00.164Z</time></trkpt><trkpt lat="43.3255917" lon="11.4198167"><ele>218.0</ele><time>2026-05-03T10:58:01.164Z</time></trkpt><trkpt lat="43.3256183" lon="11.4199883"><ele>215.5</ele><time>2026-05-03T10:58:02.164Z</time></trkpt><trkpt lat="43.32563" lon="11.4201633"><ele>213.0</ele><time>2026-05-03T10:58:03.166Z</time></trkpt><trkpt lat="43.325635" lon="11.42033"><ele>211.5</ele><time>2026-05-03T10:58:04.165Z</time></trkpt><trkpt lat="43.3256433" lon="11.4205"><ele>210.0</ele><time>2026-05-03T10:58:05.165Z</time></trkpt><trkpt lat="43.3256567" lon="11.420675"><ele>208.5</ele><time>2026-05-03T10:58:06.162Z</time></trkpt><trkpt lat="43.325685" lon="11.42086"><ele>207.0</ele><time>2026-05-03T10:58:07.162Z</time></trkpt><trkpt lat="43.3257217" lon="11.4210467"><ele>207.0</ele><time>2026-05-03T10:58:08.162Z</time></trkpt><trkpt lat="43.3257633" lon="11.4212467"><ele>207.0</ele><time>2026-05-03T10:58:09.162Z</time></trkpt><trkpt lat="43.3258067" lon="11.421455"><ele>207.0</ele><time>2026-05-03T10:58:10.162Z</time></trkpt><trkpt lat="43.3258433" lon="11.4216767"><ele>205.66666666666669</ele><time>2026-05-03T10:58:11.163Z</time></trkpt><trkpt lat="43.325875" lon="11.4219133"><ele>204.33333333333334</ele><time>2026-05-03T10:58:12.162Z</time></trkpt><trkpt lat="43.325895" lon="11.4221583"><ele>203.0</ele><time>2026-05-03T10:58:13.162Z</time></trkpt><trkpt lat="43.32591" lon="11.4224083"><ele>201.33333333333334</ele><time>2026-05-03T10:58:14.162Z</time></trkpt><trkpt lat="43.3259233" lon="11.4226533"><ele>199.66666666666669</ele><time>2026-05-03T10:58:15.162Z</time></trkpt><trkpt lat="43.3259417" lon="11.4228983"><ele>198.0</ele><time>2026-05-03T10:58:16.166Z</time></trkpt><trkpt lat="43.32598" lon="11.42315"><ele>197.33333333333331</ele><time>2026-05-03T10:58:17.162Z</time></trkpt><trkpt lat="43.3260333" lon="11.4234"><ele>196.66666666666666</ele><time>2026-05-03T10:58:18.162Z</time></trkpt><trkpt lat="43.32609" lon="11.4236367"><ele>196.0</ele><time>2026-05-03T10:58:19.163Z</time></trkpt><trkpt lat="43.32614" lon="11.4238617"><ele>196.0</ele><time>2026-05-03T10:58:20.163Z</time></trkpt><trkpt lat="43.3261783" lon="11.4240733"><ele>196.0</ele><time>2026-05-03T10:58:21.162Z</time></trkpt><trkpt lat="43.326195" lon="11.42428"><ele>196.0</ele><time>2026-05-03T10:58:22.162Z</time></trkpt><trkpt lat="43.326185" lon="11.424485"><ele>196.66666666666666</ele><time>2026-05-03T10:58:23.163Z</time></trkpt><trkpt lat="43.32615" lon="11.4246833"><ele>197.33333333333331</ele><time>2026-05-03T10:58:24.165Z</time></trkpt><trkpt lat="43.3260817" lon="11.4248733"><ele>198.0</ele><time>2026-05-03T10:58:25.164Z</time></trkpt><trkpt lat="43.32598" lon="11.425045"><ele>198.0</ele><time>2026-05-03T10:58:26.162Z</time></trkpt><trkpt lat="43.325855" lon="11.4251967"><ele>198.0</ele><time>2026-05-03T10:58:27.166Z</time></trkpt><trkpt lat="43.3257033" lon="11.42532"><ele>198.0</ele><time>2026-05-03T10:58:28.165Z</time></trkpt><trkpt lat="43.32554" lon="11.4254283"><ele>197.33333333333331</ele><time>2026-05-03T10:58:29.165Z</time></trkpt><trkpt lat="43.3253667" lon="11.42553"><ele>196.66666666666666</ele><time>2026-05-03T10:58:30.162Z</time></trkpt><trkpt lat="43.3251883" lon="11.4256417"><ele>196.0</ele><time>2026-05-03T10:58:31.164Z</time></trkpt><trkpt lat="43.3250067" lon="11.425755"><ele>196.0</ele><time>2026-05-03T10:58:32.162Z</time></trkpt><trkpt lat="43.3248283" lon="11.4258633"><ele>196.0</ele><time>2026-05-03T10:58:33.162Z</time></trkpt><trkpt lat="43.3246617" lon="11.4259617"><ele>196.0</ele><time>2026-05-03T10:58:34.162Z</time></trkpt><trkpt lat="43.3245017" lon="11.42606"><ele>197.0</ele><time>2026-05-03T10:58:35.164Z</time></trkpt><trkpt lat="43.32435" lon="11.4261433"><ele>198.0</ele><time>2026-05-03T10:58:36.162Z</time></trkpt><trkpt lat="43.3242083" lon="11.4262"><ele>199.0</ele><time>2026-05-03T10:58:37.162Z</time></trkpt><trkpt lat="43.3240633" lon="11.4262133"><ele>199.0</ele><time>2026-05-03T10:58:38.162Z</time></trkpt><trkpt lat="43.3239117" lon="11.4261833"><ele>199.0</ele><time>2026-05-03T10:58:39.162Z</time></trkpt><trkpt lat="43.3237667" lon="11.4261383"><ele>199.0</ele><time>2026-05-03T10:58:40.162Z</time></trkpt><trkpt lat="43.3236117" lon="11.4261"><ele>200.25</ele><time>2026-05-03T10:58:41.163Z</time></trkpt><trkpt lat="43.3234783" lon="11.4260867"><ele>201.5</ele><time>2026-05-03T10:58:42.162Z</time></trkpt><trkpt lat="43.32336" lon="11.4261017"><ele>202.75</ele><time>2026-05-03T10:58:43.162Z</time></trkpt><trkpt lat="43.3232617" lon="11.4261633"><ele>204.0</ele><time>2026-05-03T10:58:44.164Z</time></trkpt><trkpt lat="43.3231917" lon="11.42626"><ele>206.5</ele><time>2026-05-03T10:58:45.163Z</time></trkpt><trkpt lat="43.323155" lon="11.42638"><ele>209.0</ele><time>2026-05-03T10:58:46.162Z</time></trkpt><trkpt lat="43.323155" lon="11.4265367"><ele>211.5</ele><time>2026-05-03T10:58:47.162Z</time></trkpt><trkpt lat="43.323185" lon="11.4267133"><ele>214.0</ele><time>2026-05-03T10:58:48.163Z</time></trkpt><trkpt lat="43.323235" lon="11.4269033"><ele>214.0</ele><time>2026-05-03T10:58:49.162Z</time></trkpt><trkpt lat="43.3232967" lon="11.427095"><ele>214.0</ele><time>2026-05-03T10:58:50.161Z</time></trkpt><trkpt lat="43.32336" lon="11.427285"><ele>214.0</ele><time>2026-05-03T10:58:51.161Z</time></trkpt><trkpt lat="43.3233967" lon="11.4274667"><ele>214.0</ele><time>2026-05-03T10:58:52.161Z</time></trkpt><trkpt lat="43.3234" lon="11.4276467"><ele>215.25</ele><time>2026-05-03T10:58:53.162Z</time></trkpt><trkpt lat="43.3233783" lon="11.42784"><ele>216.5</ele><time>2026-05-03T10:58:54.166Z</time></trkpt><trkpt lat="43.3233467" lon="11.4280383"><ele>217.75</ele><time>2026-05-03T10:58:55.165Z</time></trkpt><trkpt lat="43.3233017" lon="11.4282433"><ele>219.0</ele><time>2026-05-03T10:58:56.164Z</time></trkpt><trkpt lat="43.3232533" lon="11.4284633"><ele>219.66666666666669</ele><time>2026-05-03T10:58:57.164Z</time></trkpt><trkpt lat="43.323195" lon="11.428705"><ele>220.33333333333334</ele><time>2026-05-03T10:58:58.164Z</time></trkpt><trkpt lat="43.32312" lon="11.4289633"><ele>221.0</ele><time>2026-05-03T10:58:59.165Z</time></trkpt><trkpt lat="43.3230433" lon="11.4292167"><ele>221.0</ele><time>2026-05-03T10:59:00.164Z</time></trkpt><trkpt lat="43.322975" lon="11.4294417"><ele>221.0</ele><time>2026-05-03T10:59:01.164Z</time></trkpt><trkpt lat="43.3229183" lon="11.4296383"><ele>221.0</ele><time>2026-05-03T10:59:02.166Z</time></trkpt><trkpt lat="43.3228717" lon="11.42981"><ele>221.50000000000003</ele><time>2026-05-03T10:59:03.162Z</time></trkpt><trkpt lat="43.3228383" lon="11.429955"><ele>222.0</ele><time>2026-05-03T10:59:04.161Z</time></trkpt><trkpt lat="43.3228167" lon="11.4300817"><ele>222.5</ele><time>2026-05-03T10:59:05.163Z</time></trkpt><trkpt lat="43.3228033" lon="11.4301933"><ele>223.0</ele><time>2026-05-03T10:59:06.162Z</time></trkpt><trkpt lat="43.322795" lon="11.4303017"><ele>223.50000000000003</ele><time>2026-05-03T10:59:07.162Z</time></trkpt><trkpt lat="43.3227883" lon="11.4304017"><ele>224.0</ele><time>2026-05-03T10:59:08.162Z</time></trkpt><trkpt lat="43.3227783" lon="11.4305533"><ele>224.00000000000003</ele><time>2026-05-03T10:59:10.163Z</time></trkpt><trkpt lat="43.32277" lon="11.4306517"><ele>224.0</ele><time>2026-05-03T10:59:12.162Z</time></trkpt><trkpt lat="43.322785" lon="11.430745"><ele>224.0</ele><time>2026-05-03T10:59:15.161Z</time></trkpt><trkpt lat="43.3228583" lon="11.4307967"><ele>224.0</ele><time>2026-05-03T10:59:17.162Z</time></trkpt><trkpt lat="43.3229233" lon="11.4308183"><ele>224.00000000000003</ele><time>2026-05-03T10:59:18.161Z</time></trkpt><trkpt lat="43.3230067" lon="11.4308433"><ele>224.0</ele><time>2026-05-03T10:59:19.161Z</time></trkpt><trkpt lat="43.3231017" lon="11.4308783"><ele>226.75</ele><time>2026-05-03T10:59:20.163Z</time></trkpt><trkpt lat="43.323215" lon="11.430935"><ele>229.5</ele><time>2026-05-03T10:59:21.162Z</time></trkpt><trkpt lat="43.3233583" lon="11.4309917"><ele>232.25</ele><time>2026-05-03T10:59:22.161Z</time></trkpt><trkpt lat="43.3235167" lon="11.4310533"><ele>235.0</ele><time>2026-05-03T10:59:23.162Z</time></trkpt><trkpt lat="43.3236767" lon="11.4311183"><ele>235.0</ele><time>2026-05-03T10:59:24.164Z</time></trkpt><trkpt lat="43.3238383" lon="11.431185"><ele>235.0</ele><time>2026-05-03T10:59:25.162Z</time></trkpt><trkpt lat="43.323995" lon="11.4312533"><ele>235.0</ele><time>2026-05-03T10:59:26.162Z</time></trkpt><trkpt lat="43.3241517" lon="11.4313183"><ele>237.33333333333331</ele><time>2026-05-03T10:59:27.162Z</time></trkpt><trkpt lat="43.3243233" lon="11.4313517"><ele>239.66666666666669</ele><time>2026-05-03T10:59:28.162Z</time></trkpt><trkpt lat="43.32451" lon="11.4313633"><ele>242.0</ele><time>2026-05-03T10:59:29.162Z</time></trkpt><trkpt lat="43.3247017" lon="11.4313483"><ele>243.33333333333334</ele><time>2026-05-03T10:59:30.161Z</time></trkpt><trkpt lat="43.3248817" lon="11.4313383"><ele>244.66666666666669</ele><time>2026-05-03T10:59:31.164Z</time></trkpt><trkpt lat="43.3250467" lon="11.4313367"><ele>246.0</ele><time>2026-05-03T10:59:32.162Z</time></trkpt><trkpt lat="43.325195" lon="11.4313317"><ele>246.0</ele><time>2026-05-03T10:59:33.161Z</time></trkpt><trkpt lat="43.32534" lon="11.431325"><ele>246.0</ele><time>2026-05-03T10:59:34.162Z</time></trkpt><trkpt lat="43.3254833" lon="11.43131"><ele>246.0</ele><time>2026-05-03T10:59:35.163Z</time></trkpt><trkpt lat="43.3256217" lon="11.4313"><ele>246.0</ele><time>2026-05-03T10:59:36.162Z</time></trkpt><trkpt lat="43.32576" lon="11.431305"><ele>246.5</ele><time>2026-05-03T10:59:37.162Z</time></trkpt><trkpt lat="43.3258917" lon="11.431325"><ele>247.0</ele><time>2026-05-03T10:59:38.162Z</time></trkpt><trkpt lat="43.3260117" lon="11.431355"><ele>247.5</ele><time>2026-05-03T10:59:39.162Z</time></trkpt><trkpt lat="43.3261267" lon="11.431395"><ele>248.0</ele><time>2026-05-03T10:59:40.163Z</time></trkpt><trkpt lat="43.3262283" lon="11.43143"><ele>248.00000000000003</ele><time>2026-05-03T10:59:41.164Z</time></trkpt><trkpt lat="43.3263167" lon="11.431455"><ele>248.0</ele><time>2026-05-03T10:59:42.161Z</time></trkpt><trkpt lat="43.3263917" lon="11.4314717"><ele>248.0</ele><time>2026-05-03T10:59:43.161Z</time></trkpt><trkpt lat="43.3264617" lon="11.4314867"><ele>248.0</ele><time>2026-05-03T10:59:44.162Z</time></trkpt><trkpt lat="43.3265467" lon="11.4315117"><ele>248.00000000000003</ele><time>2026-05-03T10:59:45.162Z</time></trkpt><trkpt lat="43.32665" lon="11.4315517"><ele>248.0</ele><time>2026-05-03T10:59:46.163Z</time></trkpt><trkpt lat="43.3267683" lon="11.4316017"><ele>248.5</ele><time>2026-05-03T10:59:47.162Z</time></trkpt><trkpt lat="43.3268933" lon="11.43165"><ele>249.0</ele><time>2026-05-03T10:59:48.161Z</time></trkpt><trkpt lat="43.327025" lon="11.4316983"><ele>249.5</ele><time>2026-05-03T10:59:49.162Z</time></trkpt><trkpt lat="43.3271667" lon="11.4317417"><ele>250.0</ele><time>2026-05-03T10:59:50.162Z</time></trkpt><trkpt lat="43.3273133" lon="11.4317867"><ele>251.66666666666666</ele><time>2026-05-03T10:59:51.162Z</time></trkpt><trkpt lat="43.3274617" lon="11.4318383"><ele>253.33333333333331</ele><time>2026-05-03T10:59:52.162Z</time></trkpt><trkpt lat="43.3276117" lon="11.4318883"><ele>255.0</ele><time>2026-05-03T10:59:53.162Z</time></trkpt><trkpt lat="43.3277617" lon="11.4319433"><ele>255.0</ele><time>2026-05-03T10:59:54.165Z</time></trkpt><trkpt lat="43.3279117" lon="11.4319917"><ele>255.0</ele><time>2026-05-03T10:59:55.167Z</time></trkpt><trkpt lat="43.3280517" lon="11.4320367"><ele>255.0</ele><time>2026-05-03T10:59:56.164Z</time></trkpt><trkpt lat="43.3281783" lon="11.4320817"><ele>255.0</ele><time>2026-05-03T10:59:57.164Z</time></trkpt><trkpt lat="43.3283083" lon="11.432125"><ele>255.0</ele><time>2026-05-03T10:59:58.164Z</time></trkpt><trkpt lat="43.3284383" lon="11.432175"><ele>255.0</ele><time>2026-05-03T10:59:59.165Z</time></trkpt><trkpt lat="43.3285767" lon="11.43222"><ele>255.0</ele><time>2026-05-03T11:00:00.164Z</time></trkpt><trkpt lat="43.3287117" lon="11.4322667"><ele>255.0</ele><time>2026-05-03T11:00:01.164Z</time></trkpt><trkpt lat="43.3288467" lon="11.4323133"><ele>255.5</ele><time>2026-05-03T11:00:02.165Z</time></trkpt><trkpt lat="43.328985" lon="11.43237"><ele>256.0</ele><time>2026-05-03T11:00:03.161Z</time></trkpt><trkpt lat="43.3291183" lon="11.4324283"><ele>256.5</ele><time>2026-05-03T11:00:04.164Z</time></trkpt><trkpt lat="43.3292483" lon="11.4324817"><ele>257.0</ele><time>2026-05-03T11:00:05.164Z</time></trkpt><trkpt lat="43.3293667" lon="11.4325283"><ele>257.0</ele><time>2026-05-03T11:00:06.161Z</time></trkpt><trkpt lat="43.3294717" lon="11.4325583"><ele>257.0</ele><time>2026-05-03T11:00:07.166Z</time></trkpt><trkpt lat="43.3295983" lon="11.4325867"><ele>257.0</ele><time>2026-05-03T11:00:08.162Z</time></trkpt><trkpt lat="43.3297333" lon="11.4326067"><ele>257.0</ele><time>2026-05-03T11:00:09.163Z</time></trkpt><trkpt lat="43.3298767" lon="11.4326233"><ele>255.66666666666669</ele><time>2026-05-03T11:00:10.163Z</time></trkpt><trkpt lat="43.33003" lon="11.4326383"><ele>254.33333333333331</ele><time>2026-05-03T11:00:11.163Z</time></trkpt><trkpt lat="43.3301967" lon="11.4326483"><ele>253.0</ele><time>2026-05-03T11:00:12.162Z</time></trkpt><trkpt lat="43.3303733" lon="11.4326617"><ele>252.33333333333331</ele><time>2026-05-03T11:00:13.163Z</time></trkpt><trkpt lat="43.3305583" lon="11.4326733"><ele>251.66666666666669</ele><time>2026-05-03T11:00:14.162Z</time></trkpt><trkpt lat="43.3307567" lon="11.4326867"><ele>251.0</ele><time>2026-05-03T11:00:15.165Z</time></trkpt><trkpt lat="43.330975" lon="11.4327017"><ele>251.0</ele><time>2026-05-03T11:00:16.162Z</time></trkpt><trkpt lat="43.3311983" lon="11.43272"><ele>251.0</ele><time>2026-05-03T11:00:17.163Z</time></trkpt><trkpt lat="43.331425" lon="11.4327367"><ele>250.66666666666669</ele><time>2026-05-03T11:00:18.162Z</time></trkpt><trkpt lat="43.3316467" lon="11.43275"><ele>250.33333333333331</ele><time>2026-05-03T11:00:19.162Z</time></trkpt><trkpt lat="43.33186" lon="11.4327667"><ele>250.0</ele><time>2026-05-03T11:00:20.163Z</time></trkpt><trkpt lat="43.3320617" lon="11.432785"><ele>250.0</ele><time>2026-05-03T11:00:21.162Z</time></trkpt><trkpt lat="43.3322517" lon="11.4328083"><ele>250.0</ele><time>2026-05-03T11:00:22.162Z</time></trkpt><trkpt lat="43.33243" lon="11.4328333"><ele>250.0</ele><time>2026-05-03T11:00:23.162Z</time></trkpt><trkpt lat="43.3325967" lon="11.4328717"><ele>250.0</ele><time>2026-05-03T11:00:24.165Z</time></trkpt><trkpt lat="43.3327467" lon="11.4329283"><ele>250.0</ele><time>2026-05-03T11:00:25.165Z</time></trkpt><trkpt lat="43.3328917" lon="11.433"><ele>250.0</ele><time>2026-05-03T11:00:26.162Z</time></trkpt><trkpt lat="43.3330283" lon="11.4330833"><ele>250.0</ele><time>2026-05-03T11:00:27.165Z</time></trkpt><trkpt lat="43.3331667" lon="11.4331617"><ele>250.0</ele><time>2026-05-03T11:00:28.165Z</time></trkpt><trkpt lat="43.3333017" lon="11.4332317"><ele>250.0</ele><time>2026-05-03T11:00:29.165Z</time></trkpt><trkpt lat="43.3334383" lon="11.43326"><ele>250.0</ele><time>2026-05-03T11:00:30.165Z</time></trkpt><trkpt lat="43.3335767" lon="11.433245"><ele>250.0</ele><time>2026-05-03T11:00:31.165Z</time></trkpt><trkpt lat="43.3337317" lon="11.43318"><ele>250.0</ele><time>2026-05-03T11:00:32.165Z</time></trkpt><trkpt lat="43.3339" lon="11.433085"><ele>250.0</ele><time>2026-05-03T11:00:33.165Z</time></trkpt><trkpt lat="43.3340767" lon="11.432985"><ele>250.33333333333331</ele><time>2026-05-03T11:00:34.163Z</time></trkpt><trkpt lat="43.3342583" lon="11.4328817"><ele>250.66666666666669</ele><time>2026-05-03T11:00:35.162Z</time></trkpt><trkpt lat="43.334435" lon="11.4327817"><ele>251.0</ele><time>2026-05-03T11:00:36.162Z</time></trkpt><trkpt lat="43.3346" lon="11.4326917"><ele>251.33333333333334</ele><time>2026-05-03T11:00:37.162Z</time></trkpt><trkpt lat="43.33476" lon="11.432605"><ele>251.66666666666669</ele><time>2026-05-03T11:00:38.162Z</time></trkpt><trkpt lat="43.3349167" lon="11.432515"><ele>252.0</ele><time>2026-05-03T11:00:39.162Z</time></trkpt><trkpt lat="43.335075" lon="11.4324283"><ele>252.0</ele><time>2026-05-03T11:00:40.162Z</time></trkpt><trkpt lat="43.3352367" lon="11.4323383"><ele>252.0</ele><time>2026-05-03T11:00:41.163Z</time></trkpt><trkpt lat="43.3353967" lon="11.4322467"><ele>252.0</ele><time>2026-05-03T11:00:42.162Z</time></trkpt><trkpt lat="43.335555" lon="11.4321567"><ele>253.33333333333331</ele><time>2026-05-03T11:00:43.162Z</time></trkpt><trkpt lat="43.335715" lon="11.4320667"><ele>254.66666666666666</ele><time>2026-05-03T11:00:44.163Z</time></trkpt><trkpt lat="43.3358767" lon="11.431975"><ele>256.0</ele><time>2026-05-03T11:00:45.162Z</time></trkpt><trkpt lat="43.33604" lon="11.4318833"><ele>256.0</ele><time>2026-05-03T11:00:46.163Z</time></trkpt><trkpt lat="43.3362067" lon="11.4317917"><ele>256.0</ele><time>2026-05-03T11:00:47.163Z</time></trkpt><trkpt lat="43.3363733" lon="11.4317"><ele>256.0</ele><time>2026-05-03T11:00:48.162Z</time></trkpt><trkpt lat="43.3365333" lon="11.4316167"><ele>254.66666666666666</ele><time>2026-05-03T11:00:49.162Z</time></trkpt><trkpt lat="43.3366933" lon="11.4315333"><ele>253.33333333333331</ele><time>2026-05-03T11:00:50.165Z</time></trkpt><trkpt lat="43.3368583" lon="11.4314583"><ele>252.0</ele><time>2026-05-03T11:00:51.162Z</time></trkpt><trkpt lat="43.3370267" lon="11.4314083"><ele>252.0</ele><time>2026-05-03T11:00:52.162Z</time></trkpt><trkpt lat="43.3371933" lon="11.4313833"><ele>252.0</ele><time>2026-05-03T11:00:53.163Z</time></trkpt><trkpt lat="43.3373583" lon="11.4313833"><ele>252.0</ele><time>2026-05-03T11:00:54.165Z</time></trkpt><trkpt lat="43.337525" lon="11.43139"><ele>250.66666666666669</ele><time>2026-05-03T11:00:55.166Z</time></trkpt><trkpt lat="43.3376917" lon="11.431395"><ele>249.33333333333334</ele><time>2026-05-03T11:00:56.165Z</time></trkpt><trkpt lat="43.3378617" lon="11.4314"><ele>248.0</ele><time>2026-05-03T11:00:57.165Z</time></trkpt><trkpt lat="43.33803" lon="11.4314133"><ele>248.66666666666669</ele><time>2026-05-03T11:00:58.165Z</time></trkpt><trkpt lat="43.3382" lon="11.4314433"><ele>249.33333333333331</ele><time>2026-05-03T11:00:59.165Z</time></trkpt><trkpt lat="43.3383617" lon="11.43151"><ele>250.0</ele><time>2026-05-03T11:01:00.165Z</time></trkpt><trkpt lat="43.3385133" lon="11.4316183"><ele>250.0</ele><time>2026-05-03T11:01:01.165Z</time></trkpt><trkpt lat="43.338655" lon="11.4317533"><ele>250.0</ele><time>2026-05-03T11:01:02.165Z</time></trkpt><trkpt lat="43.33879" lon="11.4319033"><ele>250.0</ele><time>2026-05-03T11:01:03.164Z</time></trkpt><trkpt lat="43.3389233" lon="11.4320583"><ele>250.0</ele><time>2026-05-03T11:01:04.165Z</time></trkpt><trkpt lat="43.3390483" lon="11.4322117"><ele>250.0</ele><time>2026-05-03T11:01:05.165Z</time></trkpt><trkpt lat="43.3391633" lon="11.4323583"><ele>250.0</ele><time>2026-05-03T11:01:06.164Z</time></trkpt><trkpt lat="43.33927" lon="11.4325067"><ele>250.0</ele><time>2026-05-03T11:01:07.164Z</time></trkpt><trkpt lat="43.3393683" lon="11.4326667"><ele>250.0</ele><time>2026-05-03T11:01:08.165Z</time></trkpt><trkpt lat="43.3394583" lon="11.432835"><ele>250.0</ele><time>2026-05-03T11:01:09.167Z</time></trkpt><trkpt lat="43.33954" lon="11.4330133"><ele>249.75</ele><time>2026-05-03T11:01:10.165Z</time></trkpt><trkpt lat="43.3396133" lon="11.4331933"><ele>249.5</ele><time>2026-05-03T11:01:11.166Z</time></trkpt><trkpt lat="43.33968" lon="11.4333683"><ele>249.25</ele><time>2026-05-03T11:01:12.164Z</time></trkpt><trkpt lat="43.3397467" lon="11.4335367"><ele>249.0</ele><time>2026-05-03T11:01:13.164Z</time></trkpt><trkpt lat="43.33982" lon="11.4337017"><ele>249.0</ele><time>2026-05-03T11:01:14.165Z</time></trkpt><trkpt lat="43.3398933" lon="11.433865"><ele>249.0</ele><time>2026-05-03T11:01:15.165Z</time></trkpt><trkpt lat="43.3399633" lon="11.43402"><ele>249.0</ele><time>2026-05-03T11:01:16.166Z</time></trkpt><trkpt lat="43.340035" lon="11.434165"><ele>249.0</ele><time>2026-05-03T11:01:17.165Z</time></trkpt><trkpt lat="43.3401067" lon="11.434295"><ele>249.0</ele><time>2026-05-03T11:01:18.164Z</time></trkpt><trkpt lat="43.3401833" lon="11.43441"><ele>248.99999999999997</ele><time>2026-05-03T11:01:19.164Z</time></trkpt><trkpt lat="43.3402667" lon="11.4345067"><ele>248.99999999999997</ele><time>2026-05-03T11:01:20.164Z</time></trkpt><trkpt lat="43.340355" lon="11.434575"><ele>249.0</ele><time>2026-05-03T11:01:21.165Z</time></trkpt><trkpt lat="43.340445" lon="11.4346217"><ele>249.0</ele><time>2026-05-03T11:01:22.166Z</time></trkpt><trkpt lat="43.3405383" lon="11.4346383"><ele>248.2</ele><time>2026-05-03T11:01:23.165Z</time></trkpt><trkpt lat="43.34064" lon="11.434635"><ele>247.39999999999998</ele><time>2026-05-03T11:01:24.165Z</time></trkpt><trkpt lat="43.3407467" lon="11.4346117"><ele>246.6</ele><time>2026-05-03T11:01:25.165Z</time></trkpt><trkpt lat="43.3408583" lon="11.4345767"><ele>245.8</ele><time>2026-05-03T11:01:26.165Z</time></trkpt><trkpt lat="43.3409733" lon="11.434535"><ele>245.0</ele><time>2026-05-03T11:01:27.161Z</time></trkpt><trkpt lat="43.3410883" lon="11.434495"><ele>245.0</ele><time>2026-05-03T11:01:28.161Z</time></trkpt><trkpt lat="43.34121" lon="11.434455"><ele>245.0</ele><time>2026-05-03T11:01:29.162Z</time></trkpt><trkpt lat="43.3413333" lon="11.4344133"><ele>245.0</ele><time>2026-05-03T11:01:30.161Z</time></trkpt><trkpt lat="43.3414583" lon="11.4343717"><ele>245.0</ele><time>2026-05-03T11:01:31.162Z</time></trkpt><trkpt lat="43.3415833" lon="11.4343283"><ele>245.25</ele><time>2026-05-03T11:01:32.162Z</time></trkpt><trkpt lat="43.34171" lon="11.4342867"><ele>245.5</ele><time>2026-05-03T11:01:33.161Z</time></trkpt><trkpt lat="43.34184" lon="11.4342433"><ele>245.75</ele><time>2026-05-03T11:01:34.162Z</time></trkpt><trkpt lat="43.3419717" lon="11.4341983"><ele>246.0</ele><time>2026-05-03T11:01:35.162Z</time></trkpt><trkpt lat="43.342105" lon="11.434155"><ele>246.25</ele><time>2026-05-03T11:01:36.161Z</time></trkpt><trkpt lat="43.3422417" lon="11.4341117"><ele>246.5</ele><time>2026-05-03T11:01:37.162Z</time></trkpt><trkpt lat="43.3423767" lon="11.4340683"><ele>246.75</ele><time>2026-05-03T11:01:38.162Z</time></trkpt><trkpt lat="43.3425133" lon="11.4340233"><ele>247.0</ele><time>2026-05-03T11:01:39.161Z</time></trkpt><trkpt lat="43.34265" lon="11.4339783"><ele>247.0</ele><time>2026-05-03T11:01:40.162Z</time></trkpt><trkpt lat="43.3427867" lon="11.4339283"><ele>247.0</ele><time>2026-05-03T11:01:41.162Z</time></trkpt><trkpt lat="43.3429233" lon="11.4338883"><ele>247.0</ele><time>2026-05-03T11:01:42.161Z</time></trkpt><trkpt lat="43.3430617" lon="11.433875"><ele>247.0</ele><time>2026-05-03T11:01:43.161Z</time></trkpt><trkpt lat="43.3431933" lon="11.4339067"><ele>248.25</ele><time>2026-05-03T11:01:44.167Z</time></trkpt><trkpt lat="43.3433167" lon="11.4339783"><ele>249.5</ele><time>2026-05-03T11:01:45.162Z</time></trkpt><trkpt lat="43.3434317" lon="11.43408"><ele>250.75</ele><time>2026-05-03T11:01:46.162Z</time></trkpt><trkpt lat="43.343535" lon="11.4342017"><ele>252.0</ele><time>2026-05-03T11:01:47.162Z</time></trkpt><trkpt lat="43.3436283" lon="11.4343367"><ele>252.0</ele><time>2026-05-03T11:01:48.161Z</time></trkpt><trkpt lat="43.3437217" lon="11.4344733"><ele>252.0</ele><time>2026-05-03T11:01:49.162Z</time></trkpt><trkpt lat="43.34381" lon="11.434615"><ele>252.0</ele><time>2026-05-03T11:01:50.162Z</time></trkpt><trkpt lat="43.3439017" lon="11.434755"><ele>252.0</ele><time>2026-05-03T11:01:51.161Z</time></trkpt><trkpt lat="43.3439983" lon="11.4348967"><ele>254.0</ele><time>2026-05-03T11:01:52.162Z</time></trkpt><trkpt lat="43.3441033" lon="11.4350367"><ele>256.0</ele><time>2026-05-03T11:01:53.161Z</time></trkpt><trkpt lat="43.344215" lon="11.435175"><ele>258.0</ele><time>2026-05-03T11:01:54.165Z</time></trkpt><trkpt lat="43.3443367" lon="11.4353083"><ele>258.0</ele><time>2026-05-03T11:01:55.164Z</time></trkpt><trkpt lat="43.344465" lon="11.4354283"><ele>258.0</ele><time>2026-05-03T11:01:56.255Z</time></trkpt><trkpt lat="43.3446067" lon="11.435525"><ele>258.0</ele><time>2026-05-03T11:01:57.162Z</time></trkpt><trkpt lat="43.34476" lon="11.4355883"><ele>259.0</ele><time>2026-05-03T11:01:58.163Z</time></trkpt><trkpt lat="43.3449167" lon="11.4356183"><ele>260.0</ele><time>2026-05-03T11:01:59.163Z</time></trkpt><trkpt lat="43.3450767" lon="11.4356283"><ele>261.0</ele><time>2026-05-03T11:02:00.164Z</time></trkpt><trkpt lat="43.3452317" lon="11.4356283"><ele>261.0</ele><time>2026-05-03T11:02:01.163Z</time></trkpt><trkpt lat="43.3453833" lon="11.435625"><ele>261.0</ele><time>2026-05-03T11:02:02.164Z</time></trkpt><trkpt lat="43.3455283" lon="11.43563"><ele>261.0</ele><time>2026-05-03T11:02:03.164Z</time></trkpt><trkpt lat="43.345665" lon="11.4356433"><ele>261.0</ele><time>2026-05-03T11:02:04.165Z</time></trkpt><trkpt lat="43.3457967" lon="11.4356783"><ele>262.25</ele><time>2026-05-03T11:02:05.166Z</time></trkpt><trkpt lat="43.3459167" lon="11.4357483"><ele>263.5</ele><time>2026-05-03T11:02:06.164Z</time></trkpt><trkpt lat="43.346035" lon="11.435845"><ele>264.75</ele><time>2026-05-03T11:02:07.163Z</time></trkpt><trkpt lat="43.3461567" lon="11.435955"><ele>266.0</ele><time>2026-05-03T11:02:08.164Z</time></trkpt><trkpt lat="43.3462833" lon="11.436065"><ele>265.5</ele><time>2026-05-03T11:02:09.163Z</time></trkpt><trkpt lat="43.3464067" lon="11.4361717"><ele>265.0</ele><time>2026-05-03T11:02:10.164Z</time></trkpt><trkpt lat="43.3465233" lon="11.436285"><ele>264.5</ele><time>2026-05-03T11:02:11.164Z</time></trkpt><trkpt lat="43.346635" lon="11.4364133"><ele>264.0</ele><time>2026-05-03T11:02:12.163Z</time></trkpt><trkpt lat="43.34674" lon="11.43656"><ele>264.0</ele><time>2026-05-03T11:02:13.164Z</time></trkpt><trkpt lat="43.3468433" lon="11.4367183"><ele>264.0</ele><time>2026-05-03T11:02:14.164Z</time></trkpt><trkpt lat="43.3469433" lon="11.4368833"><ele>264.0</ele><time>2026-05-03T11:02:15.163Z</time></trkpt><trkpt lat="43.347035" lon="11.4370467"><ele>263.3333333333333</ele><time>2026-05-03T11:02:16.164Z</time></trkpt><trkpt lat="43.34713" lon="11.4372183"><ele>262.66666666666663</ele><time>2026-05-03T11:02:17.165Z</time></trkpt><trkpt lat="43.347225" lon="11.4373967"><ele>262.0</ele><time>2026-05-03T11:02:18.161Z</time></trkpt><trkpt lat="43.34732" lon="11.4375767"><ele>261.0</ele><time>2026-05-03T11:02:19.165Z</time></trkpt><trkpt lat="43.3474167" lon="11.4377417"><ele>260.0</ele><time>2026-05-03T11:02:20.162Z</time></trkpt><trkpt lat="43.3475083" lon="11.4379017"><ele>259.0</ele><time>2026-05-03T11:02:21.162Z</time></trkpt><trkpt lat="43.3476017" lon="11.4380617"><ele>259.0</ele><time>2026-05-03T11:02:22.162Z</time></trkpt><trkpt lat="43.3476983" lon="11.4382067"><ele>259.0</ele><time>2026-05-03T11:02:23.162Z</time></trkpt><trkpt lat="43.3478067" lon="11.4383233"><ele>259.0</ele><time>2026-05-03T11:02:24.165Z</time></trkpt><trkpt lat="43.347935" lon="11.438405"><ele>259.0</ele><time>2026-05-03T11:02:25.165Z</time></trkpt><trkpt lat="43.3480817" lon="11.4384517"><ele>257.66666666666663</ele><time>2026-05-03T11:02:26.165Z</time></trkpt><trkpt lat="43.3482433" lon="11.438485"><ele>256.3333333333333</ele><time>2026-05-03T11:02:27.161Z</time></trkpt><trkpt lat="43.3484083" lon="11.438515"><ele>255.0</ele><time>2026-05-03T11:02:28.162Z</time></trkpt><trkpt lat="43.348575" lon="11.4385417"><ele>255.0</ele><time>2026-05-03T11:02:29.162Z</time></trkpt><trkpt lat="43.3487433" lon="11.4385667"><ele>255.0</ele><time>2026-05-03T11:02:30.161Z</time></trkpt><trkpt lat="43.3489117" lon="11.4385967"><ele>255.0</ele><time>2026-05-03T11:02:31.163Z</time></trkpt><trkpt lat="43.3490733" lon="11.43863"><ele>255.0</ele><time>2026-05-03T11:02:32.162Z</time></trkpt><trkpt lat="43.3492283" lon="11.4386783"><ele>255.0</ele><time>2026-05-03T11:02:33.162Z</time></trkpt><trkpt lat="43.3493683" lon="11.43875"><ele>255.0</ele><time>2026-05-03T11:02:34.162Z</time></trkpt><trkpt lat="43.34949" lon="11.4388633"><ele>253.66666666666669</ele><time>2026-05-03T11:02:35.162Z</time></trkpt><trkpt lat="43.3495933" lon="11.4390117"><ele>252.33333333333334</ele><time>2026-05-03T11:02:36.162Z</time></trkpt><trkpt lat="43.3496867" lon="11.4391817"><ele>251.0</ele><time>2026-05-03T11:02:37.162Z</time></trkpt><trkpt lat="43.3497767" lon="11.439365"><ele>250.66666666666669</ele><time>2026-05-03T11:02:38.162Z</time></trkpt><trkpt lat="43.3498733" lon="11.4395467"><ele>250.33333333333331</ele><time>2026-05-03T11:02:39.161Z</time></trkpt><trkpt lat="43.3499817" lon="11.4397117"><ele>250.0</ele><time>2026-05-03T11:02:40.162Z</time></trkpt><trkpt lat="43.3501067" lon="11.439855"><ele>249.33333333333331</ele><time>2026-05-03T11:02:41.163Z</time></trkpt><trkpt lat="43.350245" lon="11.43997"><ele>248.66666666666669</ele><time>2026-05-03T11:02:42.162Z</time></trkpt><trkpt lat="43.3503933" lon="11.4400533"><ele>248.0</ele><time>2026-05-03T11:02:43.162Z</time></trkpt><trkpt lat="43.350545" lon="11.4401033"><ele>248.0</ele><time>2026-05-03T11:02:44.163Z</time></trkpt><trkpt lat="43.3506967" lon="11.44012"><ele>248.0</ele><time>2026-05-03T11:02:45.162Z</time></trkpt><trkpt lat="43.350845" lon="11.440105"><ele>248.0</ele><time>2026-05-03T11:02:46.163Z</time></trkpt><trkpt lat="43.3509817" lon="11.44007"><ele>248.0</ele><time>2026-05-03T11:02:47.165Z</time></trkpt><trkpt lat="43.3511017" lon="11.4400217"><ele>248.0</ele><time>2026-05-03T11:02:48.164Z</time></trkpt><trkpt lat="43.3512083" lon="11.4399917"><ele>248.0</ele><time>2026-05-03T11:02:49.164Z</time></trkpt><trkpt lat="43.3512917" lon="11.440015"><ele>248.0</ele><time>2026-05-03T11:02:50.164Z</time></trkpt><trkpt lat="43.351355" lon="11.4400667"><ele>248.0</ele><time>2026-05-03T11:02:51.167Z</time></trkpt><trkpt lat="43.3513967" lon="11.4401633"><ele>248.0</ele><time>2026-05-03T11:02:52.162Z</time></trkpt><trkpt lat="43.3514183" lon="11.44032"><ele>247.0</ele><time>2026-05-03T11:02:53.163Z</time></trkpt><trkpt lat="43.3514233" lon="11.44052"><ele>246.0</ele><time>2026-05-03T11:02:54.165Z</time></trkpt><trkpt lat="43.35145" lon="11.4407283"><ele>245.0</ele><time>2026-05-03T11:02:55.164Z</time></trkpt><trkpt lat="43.3514917" lon="11.4409283"><ele>245.0</ele><time>2026-05-03T11:02:56.162Z</time></trkpt><trkpt lat="43.351575" lon="11.4410733"><ele>245.0</ele><time>2026-05-03T11:02:57.162Z</time></trkpt><trkpt lat="43.351695" lon="11.44116"><ele>245.0</ele><time>2026-05-03T11:02:58.162Z</time></trkpt><trkpt lat="43.35185" lon="11.4412033"><ele>245.0</ele><time>2026-05-03T11:02:59.162Z</time></trkpt><trkpt lat="43.3520283" lon="11.4412333"><ele>246.0</ele><time>2026-05-03T11:03:00.162Z</time></trkpt><trkpt lat="43.3522067" lon="11.4412933"><ele>247.0</ele><time>2026-05-03T11:03:01.161Z</time></trkpt><trkpt lat="43.3523683" lon="11.4414033"><ele>248.0</ele><time>2026-05-03T11:03:02.162Z</time></trkpt><trkpt lat="43.35251" lon="11.4415517"><ele>245.33333333333334</ele><time>2026-05-03T11:03:03.162Z</time></trkpt><trkpt lat="43.3526233" lon="11.4417267"><ele>242.66666666666669</ele><time>2026-05-03T11:03:04.162Z</time></trkpt><trkpt lat="43.3527083" lon="11.441925"><ele>240.0</ele><time>2026-05-03T11:03:05.163Z</time></trkpt><trkpt lat="43.35277" lon="11.4421417"><ele>237.33333333333331</ele><time>2026-05-03T11:03:06.162Z</time></trkpt><trkpt lat="43.352805" lon="11.4423517"><ele>234.66666666666666</ele><time>2026-05-03T11:03:07.163Z</time></trkpt><trkpt lat="43.3528067" lon="11.4425417"><ele>232.0</ele><time>2026-05-03T11:03:08.162Z</time></trkpt><trkpt lat="43.3526733" lon="11.4428267"><ele>232.0</ele><time>2026-05-03T11:03:10.165Z</time></trkpt><trkpt lat="43.3525483" lon="11.442925"><ele>232.0</ele><time>2026-05-03T11:03:11.162Z</time></trkpt><trkpt lat="43.3523783" lon="11.44298"><ele>232.0</ele><time>2026-05-03T11:03:12.164Z</time></trkpt><trkpt lat="43.3521833" lon="11.4430233"><ele>234.33333333333331</ele><time>2026-05-03T11:03:13.163Z</time></trkpt><trkpt lat="43.351995" lon="11.4430783"><ele>236.66666666666669</ele><time>2026-05-03T11:03:14.165Z</time></trkpt><trkpt lat="43.351825" lon="11.44315"><ele>239.0</ele><time>2026-05-03T11:03:15.164Z</time></trkpt><trkpt lat="43.3516833" lon="11.4432483"><ele>239.0</ele><time>2026-05-03T11:03:16.162Z</time></trkpt><trkpt lat="43.351575" lon="11.4433683"><ele>239.0</ele><time>2026-05-03T11:03:17.163Z</time></trkpt><trkpt lat="43.3514983" lon="11.4435233"><ele>239.0</ele><time>2026-05-03T11:03:18.162Z</time></trkpt><trkpt lat="43.351475" lon="11.4437233"><ele>239.0</ele><time>2026-05-03T11:03:19.162Z</time></trkpt><trkpt lat="43.3515067" lon="11.4439533"><ele>240.66666666666669</ele><time>2026-05-03T11:03:20.163Z</time></trkpt><trkpt lat="43.351545" lon="11.4441833"><ele>242.33333333333331</ele><time>2026-05-03T11:03:21.163Z</time></trkpt><trkpt lat="43.35159" lon="11.4444083"><ele>244.0</ele><time>2026-05-03T11:03:22.163Z</time></trkpt><trkpt lat="43.351645" lon="11.4446317"><ele>244.0</ele><time>2026-05-03T11:03:23.163Z</time></trkpt><trkpt lat="43.3516983" lon="11.4448567"><ele>244.0</ele><time>2026-05-03T11:03:24.165Z</time></trkpt><trkpt lat="43.351735" lon="11.445095"><ele>244.0</ele><time>2026-05-03T11:03:25.165Z</time></trkpt><trkpt lat="43.3517533" lon="11.44535"><ele>242.66666666666666</ele><time>2026-05-03T11:03:26.162Z</time></trkpt><trkpt lat="43.3517617" lon="11.445615"><ele>241.33333333333331</ele><time>2026-05-03T11:03:27.164Z</time></trkpt><trkpt lat="43.3517633" lon="11.44588"><ele>240.0</ele><time>2026-05-03T11:03:28.165Z</time></trkpt><trkpt lat="43.3517683" lon="11.4461367"><ele>238.33333333333331</ele><time>2026-05-03T11:03:29.166Z</time></trkpt><trkpt lat="43.351775" lon="11.4463817"><ele>236.66666666666666</ele><time>2026-05-03T11:03:30.165Z</time></trkpt><trkpt lat="43.3517833" lon="11.4466133"><ele>235.0</ele><time>2026-05-03T11:03:31.164Z</time></trkpt><trkpt lat="43.35179" lon="11.446835"><ele>235.0</ele><time>2026-05-03T11:03:32.164Z</time></trkpt><trkpt lat="43.3517933" lon="11.4470467"><ele>235.0</ele><time>2026-05-03T11:03:33.166Z</time></trkpt><trkpt lat="43.3517933" lon="11.4472517"><ele>235.0</ele><time>2026-05-03T11:03:34.166Z</time></trkpt><trkpt lat="43.3517917" lon="11.4474567"><ele>234.75</ele><time>2026-05-03T11:03:35.165Z</time></trkpt><trkpt lat="43.3517933" lon="11.4476617"><ele>234.5</ele><time>2026-05-03T11:03:36.165Z</time></trkpt><trkpt lat="43.351795" lon="11.4478567"><ele>234.25</ele><time>2026-05-03T11:03:37.164Z</time></trkpt><trkpt lat="43.351805" lon="11.4480417"><ele>234.0</ele><time>2026-05-03T11:03:38.164Z</time></trkpt><trkpt lat="43.351825" lon="11.448215"><ele>234.0</ele><time>2026-05-03T11:03:39.164Z</time></trkpt><trkpt lat="43.3518583" lon="11.4483717"><ele>234.0</ele><time>2026-05-03T11:03:40.165Z</time></trkpt><trkpt lat="43.3519117" lon="11.4485067"><ele>234.0</ele><time>2026-05-03T11:03:41.164Z</time></trkpt><trkpt lat="43.3519833" lon="11.4486183"><ele>234.0</ele><time>2026-05-03T11:03:42.164Z</time></trkpt><trkpt lat="43.3520717" lon="11.4487167"><ele>233.5</ele><time>2026-05-03T11:03:43.164Z</time></trkpt><trkpt lat="43.3521733" lon="11.4487933"><ele>233.0</ele><time>2026-05-03T11:03:44.164Z</time></trkpt><trkpt lat="43.3522867" lon="11.448865"><ele>232.5</ele><time>2026-05-03T11:03:45.164Z</time></trkpt><trkpt lat="43.3524" lon="11.4489417"><ele>232.0</ele><time>2026-05-03T11:03:46.164Z</time></trkpt><trkpt lat="43.35252" lon="11.4490367"><ele>232.0</ele><time>2026-05-03T11:03:47.165Z</time></trkpt><trkpt lat="43.352635" lon="11.449155"><ele>232.0</ele><time>2026-05-03T11:03:48.166Z</time></trkpt><trkpt lat="43.352735" lon="11.44931"><ele>232.0</ele><time>2026-05-03T11:03:49.164Z</time></trkpt><trkpt lat="43.3528067" lon="11.4495033"><ele>230.0</ele><time>2026-05-03T11:03:50.164Z</time></trkpt><trkpt lat="43.3528383" lon="11.4497333"><ele>228.0</ele><time>2026-05-03T11:03:51.164Z</time></trkpt><trkpt lat="43.352825" lon="11.4499783"><ele>226.0</ele><time>2026-05-03T11:03:52.164Z</time></trkpt><trkpt lat="43.3527983" lon="11.45023"><ele>226.33333333333331</ele><time>2026-05-03T11:03:53.164Z</time></trkpt><trkpt lat="43.3527733" lon="11.4504833"><ele>226.66666666666669</ele><time>2026-05-03T11:03:54.165Z</time></trkpt><trkpt lat="43.35275" lon="11.4507333"><ele>227.0</ele><time>2026-05-03T11:03:55.165Z</time></trkpt><trkpt lat="43.352725" lon="11.4509833"><ele>227.0</ele><time>2026-05-03T11:03:56.163Z</time></trkpt><trkpt lat="43.3527" lon="11.45123"><ele>227.0</ele><time>2026-05-03T11:03:57.162Z</time></trkpt><trkpt lat="43.3526717" lon="11.451475"><ele>227.0</ele><time>2026-05-03T11:03:58.162Z</time></trkpt><trkpt lat="43.352655" lon="11.451715"><ele>228.33333333333334</ele><time>2026-05-03T11:03:59.162Z</time></trkpt><trkpt lat="43.3526683" lon="11.4519583"><ele>229.66666666666669</ele><time>2026-05-03T11:04:00.162Z</time></trkpt><trkpt lat="43.35272" lon="11.4522017"><ele>231.0</ele><time>2026-05-03T11:04:01.163Z</time></trkpt><trkpt lat="43.3527967" lon="11.4524367"><ele>233.33333333333331</ele><time>2026-05-03T11:04:02.163Z</time></trkpt><trkpt lat="43.3529" lon="11.45266"><ele>235.66666666666666</ele><time>2026-05-03T11:04:03.163Z</time></trkpt><trkpt lat="43.3530317" lon="11.4528683"><ele>238.0</ele><time>2026-05-03T11:04:04.163Z</time></trkpt><trkpt lat="43.3531733" lon="11.45307"><ele>242.0</ele><time>2026-05-03T11:04:05.163Z</time></trkpt><trkpt lat="43.3533183" lon="11.453275"><ele>246.0</ele><time>2026-05-03T11:04:06.163Z</time></trkpt><trkpt lat="43.3534567" lon="11.4535"><ele>250.0</ele><time>2026-05-03T11:04:07.162Z</time></trkpt><trkpt lat="43.3535883" lon="11.453745"><ele>251.5</ele><time>2026-05-03T11:04:08.162Z</time></trkpt><trkpt lat="43.3537167" lon="11.454"><ele>253.0</ele><time>2026-05-03T11:04:09.162Z</time></trkpt><trkpt lat="43.3538283" lon="11.4542683"><ele>253.33333333333331</ele><time>2026-05-03T11:04:10.164Z</time></trkpt><trkpt lat="43.35391" lon="11.4545383"><ele>253.66666666666669</ele><time>2026-05-03T11:04:11.165Z</time></trkpt><trkpt lat="43.353975" lon="11.454795"><ele>254.0</ele><time>2026-05-03T11:04:12.161Z</time></trkpt><trkpt lat="43.3540333" lon="11.4550217"><ele>255.39999999999998</ele><time>2026-05-03T11:04:13.163Z</time></trkpt><trkpt lat="43.35408" lon="11.4552117"><ele>256.79999999999995</ele><time>2026-05-03T11:04:14.164Z</time></trkpt><trkpt lat="43.3541067" lon="11.455365"><ele>258.20000000000005</ele><time>2026-05-03T11:04:15.161Z</time></trkpt><trkpt lat="43.3540967" lon="11.45548"><ele>259.6</ele><time>2026-05-03T11:04:16.164Z</time></trkpt><trkpt lat="43.3540717" lon="11.4555683"><ele>261.0</ele><time>2026-05-03T11:04:17.165Z</time></trkpt><trkpt lat="43.35395" lon="11.455585"><ele>261.0</ele><time>2026-05-03T11:04:19.163Z</time></trkpt><trkpt lat="43.353895" lon="11.4554267"><ele>261.0</ele><time>2026-05-03T11:04:20.163Z</time></trkpt><trkpt lat="43.353755" lon="11.455245"><ele>261.0</ele><time>2026-05-03T11:04:21.162Z</time></trkpt><trkpt lat="43.353645" lon="11.4551467"><ele>261.0</ele><time>2026-05-03T11:04:22.162Z</time></trkpt><trkpt lat="43.3535283" lon="11.4550867"><ele>261.0</ele><time>2026-05-03T11:04:23.162Z</time></trkpt><trkpt lat="43.3534167" lon="11.4550533"><ele>261.0</ele><time>2026-05-03T11:04:24.164Z</time></trkpt><trkpt lat="43.35331" lon="11.4551183"><ele>261.0</ele><time>2026-05-03T11:04:25.163Z</time></trkpt><trkpt lat="43.3532317" lon="11.455275"><ele>264.5</ele><time>2026-05-03T11:04:26.164Z</time></trkpt><trkpt lat="43.35316" lon="11.4554617"><ele>268.0</ele><time>2026-05-03T11:04:27.161Z</time></trkpt><trkpt lat="43.353" lon="11.4559183"><ele>268.0</ele><time>2026-05-03T11:04:29.162Z</time></trkpt><trkpt lat="43.352895" lon="11.456035"><ele>268.0</ele><time>2026-05-03T11:04:30.164Z</time></trkpt><trkpt lat="43.352765" lon="11.4560783"><ele>268.0</ele><time>2026-05-03T11:04:31.164Z</time></trkpt><trkpt lat="43.3526217" lon="11.4560717"><ele>268.0</ele><time>2026-05-03T11:04:32.165Z</time></trkpt><trkpt lat="43.35248" lon="11.4560817"><ele>268.0</ele><time>2026-05-03T11:04:33.163Z</time></trkpt><trkpt lat="43.3523633" lon="11.4561533"><ele>268.0</ele><time>2026-05-03T11:04:34.164Z</time></trkpt><trkpt lat="43.3522683" lon="11.4562817"><ele>268.0</ele><time>2026-05-03T11:04:35.162Z</time></trkpt><trkpt lat="43.3522117" lon="11.4564383"><ele>268.0</ele><time>2026-05-03T11:04:36.163Z</time></trkpt><trkpt lat="43.3521883" lon="11.45659"><ele>267.5</ele><time>2026-05-03T11:04:37.163Z</time></trkpt><trkpt lat="43.3522017" lon="11.456735"><ele>267.0</ele><time>2026-05-03T11:04:38.163Z</time></trkpt><trkpt lat="43.3522433" lon="11.4569067"><ele>266.5</ele><time>2026-05-03T11:04:39.162Z</time></trkpt><trkpt lat="43.3523017" lon="11.4571133"><ele>266.0</ele><time>2026-05-03T11:04:40.168Z</time></trkpt><trkpt lat="43.3523583" lon="11.4573483"><ele>271.6666666666667</ele><time>2026-05-03T11:04:41.162Z</time></trkpt><trkpt lat="43.352425" lon="11.4576133"><ele>277.3333333333333</ele><time>2026-05-03T11:04:42.163Z</time></trkpt><trkpt lat="43.35252" lon="11.4579033"><ele>283.0</ele><time>2026-05-03T11:04:43.163Z</time></trkpt><trkpt lat="43.35264" lon="11.4582183"><ele>283.5</ele><time>2026-05-03T11:04:44.163Z</time></trkpt><trkpt lat="43.3527717" lon="11.4585567"><ele>284.0</ele><time>2026-05-03T11:04:45.162Z</time></trkpt><trkpt lat="43.3529" lon="11.4588917"><ele>282.0</ele><time>2026-05-03T11:04:46.163Z</time></trkpt><trkpt lat="43.3530283" lon="11.4591967"><ele>280.0</ele><time>2026-05-03T11:04:47.162Z</time></trkpt><trkpt lat="43.3531783" lon="11.4594533"><ele>286.3333333333333</ele><time>2026-05-03T11:04:48.161Z</time></trkpt><trkpt lat="43.3533367" lon="11.4596667"><ele>292.6666666666667</ele><time>2026-05-03T11:04:49.162Z</time></trkpt><trkpt lat="43.35348" lon="11.4598467"><ele>299.0</ele><time>2026-05-03T11:04:50.162Z</time></trkpt><trkpt lat="43.3535983" lon="11.4600017"><ele>299.0</ele><time>2026-05-03T11:04:51.162Z</time></trkpt><trkpt lat="43.3536883" lon="11.4601433"><ele>299.0</ele><time>2026-05-03T11:04:52.164Z</time></trkpt><trkpt lat="43.3537317" lon="11.4602783"><ele>299.0</ele><time>2026-05-03T11:04:53.162Z</time></trkpt><trkpt lat="43.35373" lon="11.460395"><ele>299.0</ele><time>2026-05-03T11:04:54.161Z</time></trkpt><trkpt lat="43.3537017" lon="11.4605033"><ele>299.0</ele><time>2026-05-03T11:04:55.165Z</time></trkpt><trkpt lat="43.3536483" lon="11.4606"><ele>302.5</ele><time>2026-05-03T11:04:56.165Z</time></trkpt><trkpt lat="43.3536017" lon="11.4606867"><ele>306.0</ele><time>2026-05-03T11:04:57.165Z</time></trkpt><trkpt lat="43.3535117" lon="11.4607267"><ele>309.5</ele><time>2026-05-03T11:04:58.161Z</time></trkpt><trkpt lat="43.353345" lon="11.46074"><ele>313.0</ele><time>2026-05-03T11:04:59.162Z</time></trkpt><trkpt lat="43.3531783" lon="11.4608217"><ele>313.0</ele><time>2026-05-03T11:05:00.162Z</time></trkpt><trkpt lat="43.3530617" lon="11.4609367"><ele>313.0</ele><time>2026-05-03T11:05:01.162Z</time></trkpt><trkpt lat="43.35293" lon="11.4610467"><ele>313.0</ele><time>2026-05-03T11:05:02.162Z</time></trkpt><trkpt lat="43.3528617" lon="11.4612067"><ele>313.0</ele><time>2026-05-03T11:05:03.162Z</time></trkpt><trkpt lat="43.3528" lon="11.4613667"><ele>314.0</ele><time>2026-05-03T11:05:04.162Z</time></trkpt><trkpt lat="43.3527417" lon="11.4614967"><ele>315.0</ele><time>2026-05-03T11:05:05.162Z</time></trkpt><trkpt lat="43.3526533" lon="11.46159"><ele>316.0</ele><time>2026-05-03T11:05:06.162Z</time></trkpt><trkpt lat="43.352515" lon="11.46164"><ele>317.0</ele><time>2026-05-03T11:05:07.162Z</time></trkpt><trkpt lat="43.3523283" lon="11.4617017"><ele>315.6666666666667</ele><time>2026-05-03T11:05:08.162Z</time></trkpt><trkpt lat="43.35216" lon="11.461805"><ele>314.3333333333333</ele><time>2026-05-03T11:05:09.162Z</time></trkpt><trkpt lat="43.3519983" lon="11.4618833"><ele>313.0</ele><time>2026-05-03T11:05:10.162Z</time></trkpt><trkpt lat="43.3518333" lon="11.46191"><ele>313.0</ele><time>2026-05-03T11:05:11.162Z</time></trkpt><trkpt lat="43.3516617" lon="11.4619"><ele>313.0</ele><time>2026-05-03T11:05:12.162Z</time></trkpt><trkpt lat="43.351515" lon="11.461805"><ele>313.0</ele><time>2026-05-03T11:05:13.166Z</time></trkpt><trkpt lat="43.3513767" lon="11.46178"><ele>311.0</ele><time>2026-05-03T11:05:14.164Z</time></trkpt><trkpt lat="43.351235" lon="11.4618067"><ele>309.0</ele><time>2026-05-03T11:05:15.163Z</time></trkpt><trkpt lat="43.3510817" lon="11.4619033"><ele>307.0</ele><time>2026-05-03T11:05:16.162Z</time></trkpt><trkpt lat="43.3509017" lon="11.4620283"><ele>307.0</ele><time>2026-05-03T11:05:17.163Z</time></trkpt><trkpt lat="43.3507117" lon="11.46214"><ele>307.0</ele><time>2026-05-03T11:05:18.161Z</time></trkpt><trkpt lat="43.3505333" lon="11.462225"><ele>307.0</ele><time>2026-05-03T11:05:19.162Z</time></trkpt><trkpt lat="43.3503733" lon="11.46229"><ele>307.0</ele><time>2026-05-03T11:05:20.162Z</time></trkpt><trkpt lat="43.35024" lon="11.4623667"><ele>307.0</ele><time>2026-05-03T11:05:21.163Z</time></trkpt><trkpt lat="43.3501433" lon="11.46246"><ele>307.0</ele><time>2026-05-03T11:05:22.162Z</time></trkpt><trkpt lat="43.350085" lon="11.4625683"><ele>307.0</ele><time>2026-05-03T11:05:23.163Z</time></trkpt><trkpt lat="43.35007" lon="11.46269"><ele>307.0</ele><time>2026-05-03T11:05:24.162Z</time></trkpt><trkpt lat="43.3501" lon="11.462825"><ele>307.0</ele><time>2026-05-03T11:05:25.162Z</time></trkpt><trkpt lat="43.3501783" lon="11.4629717"><ele>307.0</ele><time>2026-05-03T11:05:26.163Z</time></trkpt><trkpt lat="43.3503167" lon="11.4631333"><ele>307.0</ele><time>2026-05-03T11:05:27.162Z</time></trkpt><trkpt lat="43.350415" lon="11.4632933"><ele>305.75</ele><time>2026-05-03T11:05:28.165Z</time></trkpt><trkpt lat="43.35046" lon="11.4634617"><ele>304.5</ele><time>2026-05-03T11:05:29.165Z</time></trkpt><trkpt lat="43.3504617" lon="11.4636267"><ele>303.25</ele><time>2026-05-03T11:05:30.165Z</time></trkpt><trkpt lat="43.3504183" lon="11.4637733"><ele>302.0</ele><time>2026-05-03T11:05:31.164Z</time></trkpt><trkpt lat="43.35033" lon="11.4638933"><ele>302.0</ele><time>2026-05-03T11:05:32.165Z</time></trkpt><trkpt lat="43.35022" lon="11.4640167"><ele>302.0</ele><time>2026-05-03T11:05:33.163Z</time></trkpt><trkpt lat="43.35012" lon="11.46417"><ele>302.0</ele><time>2026-05-03T11:05:34.163Z</time></trkpt><trkpt lat="43.3500583" lon="11.4643683"><ele>302.0</ele><time>2026-05-03T11:05:35.164Z</time></trkpt><trkpt lat="43.350015" lon="11.4645667"><ele>302.5</ele><time>2026-05-03T11:05:36.166Z</time></trkpt><trkpt lat="43.34996" lon="11.464745"><ele>303.0</ele><time>2026-05-03T11:05:37.164Z</time></trkpt><trkpt lat="43.3498867" lon="11.46488"><ele>303.5</ele><time>2026-05-03T11:05:38.164Z</time></trkpt><trkpt lat="43.34979" lon="11.464965"><ele>304.0</ele><time>2026-05-03T11:05:39.164Z</time></trkpt><trkpt lat="43.3496633" lon="11.4650017"><ele>304.0</ele><time>2026-05-03T11:05:40.164Z</time></trkpt><trkpt lat="43.349505" lon="11.4649833"><ele>304.0</ele><time>2026-05-03T11:05:41.165Z</time></trkpt><trkpt lat="43.34934" lon="11.4649"><ele>304.0</ele><time>2026-05-03T11:05:42.164Z</time></trkpt><trkpt lat="43.3491767" lon="11.464745"><ele>304.0</ele><time>2026-05-03T11:05:43.165Z</time></trkpt><trkpt lat="43.3489967" lon="11.4646183"><ele>304.0</ele><time>2026-05-03T11:05:44.164Z</time></trkpt><trkpt lat="43.3488233" lon="11.4645233"><ele>304.0</ele><time>2026-05-03T11:05:45.164Z</time></trkpt><trkpt lat="43.3486367" lon="11.4644717"><ele>298.0</ele><time>2026-05-03T11:05:46.164Z</time></trkpt><trkpt lat="43.3484183" lon="11.464455"><ele>292.0</ele><time>2026-05-03T11:05:47.163Z</time></trkpt><trkpt lat="43.3482083" lon="11.4644617"><ele>286.0</ele><time>2026-05-03T11:05:48.163Z</time></trkpt><trkpt lat="43.3480233" lon="11.4644683"><ele>286.3333333333333</ele><time>2026-05-03T11:05:49.163Z</time></trkpt><trkpt lat="43.34786" lon="11.4645033"><ele>286.6666666666667</ele><time>2026-05-03T11:05:50.167Z</time></trkpt><trkpt lat="43.3477067" lon="11.4645933"><ele>287.0</ele><time>2026-05-03T11:05:51.163Z</time></trkpt><trkpt lat="43.3475583" lon="11.464735"><ele>287.0</ele><time>2026-05-03T11:05:52.164Z</time></trkpt><trkpt lat="43.347415" lon="11.4649233"><ele>287.0</ele><time>2026-05-03T11:05:53.165Z</time></trkpt><trkpt lat="43.3472833" lon="11.4651217"><ele>287.0</ele><time>2026-05-03T11:05:54.164Z</time></trkpt><trkpt lat="43.3471617" lon="11.4653083"><ele>283.33333333333337</ele><time>2026-05-03T11:05:55.165Z</time></trkpt><trkpt lat="43.34704" lon="11.4654817"><ele>279.6666666666667</ele><time>2026-05-03T11:05:56.164Z</time></trkpt><trkpt lat="43.3469167" lon="11.465635"><ele>276.0</ele><time>2026-05-03T11:05:57.166Z</time></trkpt><trkpt lat="43.346785" lon="11.4657617"><ele>276.0</ele><time>2026-05-03T11:05:58.165Z</time></trkpt><trkpt lat="43.3466467" lon="11.46585"><ele>276.0</ele><time>2026-05-03T11:05:59.166Z</time></trkpt><trkpt lat="43.3465067" lon="11.4658917"><ele>276.0</ele><time>2026-05-03T11:06:00.165Z</time></trkpt><trkpt lat="43.3463667" lon="11.4659017"><ele>276.0</ele><time>2026-05-03T11:06:01.165Z</time></trkpt><trkpt lat="43.3462333" lon="11.4659"><ele>276.25</ele><time>2026-05-03T11:06:02.165Z</time></trkpt><trkpt lat="43.3461017" lon="11.4659017"><ele>276.5</ele><time>2026-05-03T11:06:03.163Z</time></trkpt><trkpt lat="43.34598" lon="11.4659133"><ele>276.75</ele><time>2026-05-03T11:06:04.164Z</time></trkpt><trkpt lat="43.3458683" lon="11.46594"><ele>277.0</ele><time>2026-05-03T11:06:05.164Z</time></trkpt><trkpt lat="43.3457633" lon="11.4659717"><ele>277.0</ele><time>2026-05-03T11:06:06.164Z</time></trkpt><trkpt lat="43.3456583" lon="11.4659933"><ele>277.0</ele><time>2026-05-03T11:06:07.164Z</time></trkpt><trkpt lat="43.3455517" lon="11.4659967"><ele>277.0</ele><time>2026-05-03T11:06:08.164Z</time></trkpt><trkpt lat="43.34544" lon="11.4659733"><ele>277.0</ele><time>2026-05-03T11:06:09.164Z</time></trkpt><trkpt lat="43.3453233" lon="11.46592"><ele>277.0</ele><time>2026-05-03T11:06:10.164Z</time></trkpt><trkpt lat="43.3452" lon="11.4658433"><ele>275.75</ele><time>2026-05-03T11:06:11.164Z</time></trkpt><trkpt lat="43.3450733" lon="11.465765"><ele>274.5</ele><time>2026-05-03T11:06:12.165Z</time></trkpt><trkpt lat="43.344935" lon="11.465695"><ele>273.25</ele><time>2026-05-03T11:06:13.166Z</time></trkpt><trkpt lat="43.3447867" lon="11.4656383"><ele>272.0</ele><time>2026-05-03T11:06:14.165Z</time></trkpt><trkpt lat="43.3446367" lon="11.4655967"><ele>269.33333333333337</ele><time>2026-05-03T11:06:15.165Z</time></trkpt><trkpt lat="43.344485" lon="11.46556"><ele>266.6666666666667</ele><time>2026-05-03T11:06:16.164Z</time></trkpt><trkpt lat="43.3443267" lon="11.4655233"><ele>264.0</ele><time>2026-05-03T11:06:17.166Z</time></trkpt><trkpt lat="43.3441667" lon="11.4654833"><ele>264.3333333333333</ele><time>2026-05-03T11:06:18.164Z</time></trkpt><trkpt lat="43.344005" lon="11.4654433"><ele>264.66666666666663</ele><time>2026-05-03T11:06:19.164Z</time></trkpt><trkpt lat="43.3438433" lon="11.4654017"><ele>265.0</ele><time>2026-05-03T11:06:20.164Z</time></trkpt><trkpt lat="43.3436817" lon="11.465365"><ele>265.0</ele><time>2026-05-03T11:06:21.165Z</time></trkpt><trkpt lat="43.3435267" lon="11.4653467"><ele>265.0</ele><time>2026-05-03T11:06:22.164Z</time></trkpt><trkpt lat="43.34338" lon="11.4653633"><ele>265.0</ele><time>2026-05-03T11:06:23.166Z</time></trkpt><trkpt lat="43.34324" lon="11.46542"><ele>265.0</ele><time>2026-05-03T11:06:24.164Z</time></trkpt><trkpt lat="43.343105" lon="11.4654983"><ele>263.75</ele><time>2026-05-03T11:06:25.165Z</time></trkpt><trkpt lat="43.3429683" lon="11.4655717"><ele>262.5</ele><time>2026-05-03T11:06:26.165Z</time></trkpt><trkpt lat="43.3428283" lon="11.4656117"><ele>261.25</ele><time>2026-05-03T11:06:27.166Z</time></trkpt><trkpt lat="43.3426917" lon="11.4656033"><ele>260.0</ele><time>2026-05-03T11:06:28.165Z</time></trkpt><trkpt lat="43.3425633" lon="11.46555"><ele>260.0</ele><time>2026-05-03T11:06:29.165Z</time></trkpt><trkpt lat="43.3424367" lon="11.4654533"><ele>260.0</ele><time>2026-05-03T11:06:30.166Z</time></trkpt><trkpt lat="43.3423167" lon="11.4653267"><ele>260.0</ele><time>2026-05-03T11:06:31.165Z</time></trkpt><trkpt lat="43.3422" lon="11.4651883"><ele>259.25</ele><time>2026-05-03T11:06:32.168Z</time></trkpt><trkpt lat="43.3420833" lon="11.465055"><ele>258.5</ele><time>2026-05-03T11:06:33.163Z</time></trkpt><trkpt lat="43.3419617" lon="11.4649567"><ele>257.75</ele><time>2026-05-03T11:06:34.165Z</time></trkpt><trkpt lat="43.3418367" lon="11.464905"><ele>257.0</ele><time>2026-05-03T11:06:35.165Z</time></trkpt><trkpt lat="43.34171" lon="11.4649117"><ele>257.0</ele><time>2026-05-03T11:06:36.166Z</time></trkpt><trkpt lat="43.3415917" lon="11.4649833"><ele>257.0</ele><time>2026-05-03T11:06:37.165Z</time></trkpt><trkpt lat="43.3414967" lon="11.4651033"><ele>257.0</ele><time>2026-05-03T11:06:38.165Z</time></trkpt><trkpt lat="43.3414383" lon="11.4652583"><ele>257.0</ele><time>2026-05-03T11:06:39.167Z</time></trkpt><trkpt lat="43.3414233" lon="11.4654433"><ele>256.33333333333337</ele><time>2026-05-03T11:06:40.165Z</time></trkpt><trkpt lat="43.341455" lon="11.4656467"><ele>255.66666666666669</ele><time>2026-05-03T11:06:41.163Z</time></trkpt><trkpt lat="43.34153" lon="11.4658517"><ele>255.0</ele><time>2026-05-03T11:06:42.164Z</time></trkpt><trkpt lat="43.3416183" lon="11.4660717"><ele>254.33333333333331</ele><time>2026-05-03T11:06:43.164Z</time></trkpt><trkpt lat="43.3416967" lon="11.46631"><ele>253.66666666666666</ele><time>2026-05-03T11:06:44.164Z</time></trkpt><trkpt lat="43.3417517" lon="11.4665683"><ele>253.0</ele><time>2026-05-03T11:06:45.164Z</time></trkpt><trkpt lat="43.341775" lon="11.4668483"><ele>251.0</ele><time>2026-05-03T11:06:46.164Z</time></trkpt><trkpt lat="43.341785" lon="11.4671433"><ele>249.0</ele><time>2026-05-03T11:06:47.164Z</time></trkpt><trkpt lat="43.341795" lon="11.4674483"><ele>247.0</ele><time>2026-05-03T11:06:48.17Z</time></trkpt><trkpt lat="43.3418117" lon="11.4677517"><ele>245.0</ele><time>2026-05-03T11:06:49.166Z</time></trkpt><trkpt lat="43.3418267" lon="11.46805"><ele>243.0</ele><time>2026-05-03T11:06:50.166Z</time></trkpt><trkpt lat="43.341835" lon="11.46833"><ele>241.0</ele><time>2026-05-03T11:06:51.161Z</time></trkpt><trkpt lat="43.3418283" lon="11.4685833"><ele>241.33333333333331</ele><time>2026-05-03T11:06:52.164Z</time></trkpt><trkpt lat="43.3418067" lon="11.468815"><ele>241.66666666666669</ele><time>2026-05-03T11:06:53.162Z</time></trkpt><trkpt lat="43.3417533" lon="11.469015"><ele>242.0</ele><time>2026-05-03T11:06:54.162Z</time></trkpt><trkpt lat="43.3416683" lon="11.4691717"><ele>242.0</ele><time>2026-05-03T11:06:55.162Z</time></trkpt><trkpt lat="43.34155" lon="11.4692833"><ele>242.0</ele><time>2026-05-03T11:06:56.163Z</time></trkpt><trkpt lat="43.3413983" lon="11.4693533"><ele>242.0</ele><time>2026-05-03T11:06:57.165Z</time></trkpt><trkpt lat="43.34122" lon="11.4693767"><ele>240.66666666666669</ele><time>2026-05-03T11:06:58.164Z</time></trkpt><trkpt lat="43.3410333" lon="11.4693417"><ele>239.33333333333331</ele><time>2026-05-03T11:06:59.164Z</time></trkpt><trkpt lat="43.3408617" lon="11.469275"><ele>238.0</ele><time>2026-05-03T11:07:00.165Z</time></trkpt><trkpt lat="43.3407017" lon="11.4691983"><ele>236.0</ele><time>2026-05-03T11:07:01.164Z</time></trkpt><trkpt lat="43.3405467" lon="11.4691567"><ele>234.0</ele><time>2026-05-03T11:07:02.165Z</time></trkpt><trkpt lat="43.3403933" lon="11.469175"><ele>232.0</ele><time>2026-05-03T11:07:03.164Z</time></trkpt><trkpt lat="43.340245" lon="11.4692517"><ele>232.0</ele><time>2026-05-03T11:07:04.164Z</time></trkpt><trkpt lat="43.34011" lon="11.46939"><ele>232.0</ele><time>2026-05-03T11:07:05.167Z</time></trkpt><trkpt lat="43.3399917" lon="11.46959"><ele>232.0</ele><time>2026-05-03T11:07:06.164Z</time></trkpt><trkpt lat="43.3398417" lon="11.47006"><ele>232.33333333333331</ele><time>2026-05-03T11:07:08.164Z</time></trkpt><trkpt lat="43.3398167" lon="11.4703067"><ele>232.66666666666669</ele><time>2026-05-03T11:07:09.164Z</time></trkpt><trkpt lat="43.3398333" lon="11.470555"><ele>233.0</ele><time>2026-05-03T11:07:10.164Z</time></trkpt><trkpt lat="43.3398883" lon="11.4708033"><ele>233.0</ele><time>2026-05-03T11:07:11.163Z</time></trkpt><trkpt lat="43.339965" lon="11.4710467"><ele>233.0</ele><time>2026-05-03T11:07:12.166Z</time></trkpt><trkpt lat="43.3400333" lon="11.47128"><ele>233.0</ele><time>2026-05-03T11:07:13.162Z</time></trkpt><trkpt lat="43.3400733" lon="11.47152"><ele>232.0</ele><time>2026-05-03T11:07:14.163Z</time></trkpt><trkpt lat="43.34007" lon="11.4717617"><ele>231.0</ele><time>2026-05-03T11:07:15.165Z</time></trkpt><trkpt lat="43.3400167" lon="11.47201"><ele>230.0</ele><time>2026-05-03T11:07:16.162Z</time></trkpt><trkpt lat="43.3399117" lon="11.4722683"><ele>229.0</ele><time>2026-05-03T11:07:17.167Z</time></trkpt><trkpt lat="43.339775" lon="11.47254"><ele>228.0</ele><time>2026-05-03T11:07:18.161Z</time></trkpt><trkpt lat="43.3396333" lon="11.4728133"><ele>232.5</ele><time>2026-05-03T11:07:19.162Z</time></trkpt><trkpt lat="43.3394983" lon="11.4730733"><ele>237.0</ele><time>2026-05-03T11:07:20.162Z</time></trkpt><trkpt lat="43.3393667" lon="11.473315"><ele>237.0</ele><time>2026-05-03T11:07:21.162Z</time></trkpt><trkpt lat="43.3392333" lon="11.4735267"><ele>237.0</ele><time>2026-05-03T11:07:22.162Z</time></trkpt><trkpt lat="43.339105" lon="11.4737083"><ele>237.0</ele><time>2026-05-03T11:07:23.163Z</time></trkpt><trkpt lat="43.338965" lon="11.4738433"><ele>241.33333333333331</ele><time>2026-05-03T11:07:24.161Z</time></trkpt><trkpt lat="43.338785" lon="11.4739067"><ele>245.66666666666666</ele><time>2026-05-03T11:07:25.162Z</time></trkpt><trkpt lat="43.338585" lon="11.4739333"><ele>250.0</ele><time>2026-05-03T11:07:26.162Z</time></trkpt><trkpt lat="43.3383933" lon="11.4739833"><ele>250.0</ele><time>2026-05-03T11:07:27.163Z</time></trkpt><trkpt lat="43.3382167" lon="11.47406"><ele>250.0</ele><time>2026-05-03T11:07:28.164Z</time></trkpt><trkpt lat="43.3380733" lon="11.4741783"><ele>250.0</ele><time>2026-05-03T11:07:29.165Z</time></trkpt><trkpt lat="43.3379683" lon="11.4743417"><ele>251.0</ele><time>2026-05-03T11:07:30.165Z</time></trkpt><trkpt lat="43.3378917" lon="11.4745617"><ele>252.0</ele><time>2026-05-03T11:07:31.164Z</time></trkpt><trkpt lat="43.337825" lon="11.47482"><ele>253.0</ele><time>2026-05-03T11:07:32.164Z</time></trkpt><trkpt lat="43.3377733" lon="11.4750967"><ele>253.0</ele><time>2026-05-03T11:07:33.166Z</time></trkpt><trkpt lat="43.33773" lon="11.4753733"><ele>253.0</ele><time>2026-05-03T11:07:34.164Z</time></trkpt><trkpt lat="43.3376867" lon="11.4756417"><ele>253.0</ele><time>2026-05-03T11:07:35.165Z</time></trkpt><trkpt lat="43.3376317" lon="11.4759"><ele>255.66666666666666</ele><time>2026-05-03T11:07:36.162Z</time></trkpt><trkpt lat="43.337565" lon="11.4761433"><ele>258.3333333333333</ele><time>2026-05-03T11:07:37.165Z</time></trkpt><trkpt lat="43.337515" lon="11.4763833"><ele>261.0</ele><time>2026-05-03T11:07:38.166Z</time></trkpt><trkpt lat="43.3375033" lon="11.47663"><ele>261.6666666666667</ele><time>2026-05-03T11:07:39.165Z</time></trkpt><trkpt lat="43.33752" lon="11.4768767"><ele>262.33333333333337</ele><time>2026-05-03T11:07:40.164Z</time></trkpt><trkpt lat="43.33756" lon="11.4771283"><ele>263.0</ele><time>2026-05-03T11:07:41.163Z</time></trkpt><trkpt lat="43.3376133" lon="11.47738"><ele>264.0</ele><time>2026-05-03T11:07:42.165Z</time></trkpt><trkpt lat="43.3376733" lon="11.4776317"><ele>265.0</ele><time>2026-05-03T11:07:43.164Z</time></trkpt><trkpt lat="43.33773" lon="11.4778883"><ele>266.0</ele><time>2026-05-03T11:07:44.165Z</time></trkpt><trkpt lat="43.3377817" lon="11.4781367"><ele>267.6666666666667</ele><time>2026-05-03T11:07:45.167Z</time></trkpt><trkpt lat="43.3378283" lon="11.47836"><ele>269.3333333333333</ele><time>2026-05-03T11:07:46.165Z</time></trkpt><trkpt lat="43.3378733" lon="11.4785683"><ele>271.0</ele><time>2026-05-03T11:07:47.165Z</time></trkpt><trkpt lat="43.3379067" lon="11.47876"><ele>271.6</ele><time>2026-05-03T11:07:48.165Z</time></trkpt><trkpt lat="43.3379033" lon="11.4789267"><ele>272.20000000000005</ele><time>2026-05-03T11:07:49.163Z</time></trkpt><trkpt lat="43.3378667" lon="11.4790633"><ele>272.79999999999995</ele><time>2026-05-03T11:07:50.163Z</time></trkpt><trkpt lat="43.3377983" lon="11.4791667"><ele>273.4</ele><time>2026-05-03T11:07:51.164Z</time></trkpt><trkpt lat="43.3376967" lon="11.4792333"><ele>274.0</ele><time>2026-05-03T11:07:52.164Z</time></trkpt><trkpt lat="43.33757" lon="11.4792633"><ele>274.0</ele><time>2026-05-03T11:07:53.166Z</time></trkpt><trkpt lat="43.3374317" lon="11.4792833"><ele>274.0</ele><time>2026-05-03T11:07:54.165Z</time></trkpt><trkpt lat="43.3372767" lon="11.4792917"><ele>274.0</ele><time>2026-05-03T11:07:55.165Z</time></trkpt><trkpt lat="43.3371233" lon="11.4793017"><ele>274.0</ele><time>2026-05-03T11:07:56.164Z</time></trkpt><trkpt lat="43.3369717" lon="11.4793117"><ele>274.66666666666663</ele><time>2026-05-03T11:07:57.165Z</time></trkpt><trkpt lat="43.33682" lon="11.4793483"><ele>275.3333333333333</ele><time>2026-05-03T11:07:58.166Z</time></trkpt><trkpt lat="43.3366633" lon="11.4794283"><ele>276.0</ele><time>2026-05-03T11:07:59.164Z</time></trkpt><trkpt lat="43.336515" lon="11.4795367"><ele>277.3333333333333</ele><time>2026-05-03T11:08:00.164Z</time></trkpt><trkpt lat="43.3363683" lon="11.4796617"><ele>278.66666666666663</ele><time>2026-05-03T11:08:01.163Z</time></trkpt><trkpt lat="43.3362233" lon="11.47979"><ele>280.0</ele><time>2026-05-03T11:08:02.164Z</time></trkpt><trkpt lat="43.3360833" lon="11.4799167"><ele>280.0</ele><time>2026-05-03T11:08:03.165Z</time></trkpt><trkpt lat="43.3359417" lon="11.480045"><ele>280.0</ele><time>2026-05-03T11:08:04.165Z</time></trkpt><trkpt lat="43.3358017" lon="11.4801683"><ele>280.0</ele><time>2026-05-03T11:08:05.165Z</time></trkpt><trkpt lat="43.3356633" lon="11.48029"><ele>280.3333333333333</ele><time>2026-05-03T11:08:06.165Z</time></trkpt><trkpt lat="43.335535" lon="11.4804117"><ele>280.6666666666667</ele><time>2026-05-03T11:08:07.163Z</time></trkpt><trkpt lat="43.3354" lon="11.4805533"><ele>281.0</ele><time>2026-05-03T11:08:08.165Z</time></trkpt><trkpt lat="43.3352783" lon="11.4807167"><ele>280.33333333333337</ele><time>2026-05-03T11:08:09.165Z</time></trkpt><trkpt lat="43.335165" lon="11.4808883"><ele>279.6666666666667</ele><time>2026-05-03T11:08:10.166Z</time></trkpt><trkpt lat="43.3350583" lon="11.4810667"><ele>279.0</ele><time>2026-05-03T11:08:11.165Z</time></trkpt><trkpt lat="43.334945" lon="11.4812533"><ele>277.3333333333333</ele><time>2026-05-03T11:08:12.162Z</time></trkpt><trkpt lat="43.3348283" lon="11.481445"><ele>275.66666666666663</ele><time>2026-05-03T11:08:13.165Z</time></trkpt><trkpt lat="43.3347183" lon="11.48164"><ele>274.0</ele><time>2026-05-03T11:08:14.165Z</time></trkpt><trkpt lat="43.334625" lon="11.4818383"><ele>274.0</ele><time>2026-05-03T11:08:15.165Z</time></trkpt><trkpt lat="43.3345567" lon="11.4820367"><ele>274.0</ele><time>2026-05-03T11:08:16.166Z</time></trkpt><trkpt lat="43.3345317" lon="11.4822467"><ele>274.0</ele><time>2026-05-03T11:08:17.165Z</time></trkpt><trkpt lat="43.334545" lon="11.4824717"><ele>276.3333333333333</ele><time>2026-05-03T11:08:18.165Z</time></trkpt><trkpt lat="43.3345833" lon="11.4827133"><ele>278.6666666666667</ele><time>2026-05-03T11:08:19.169Z</time></trkpt><trkpt lat="43.3346217" lon="11.4829717"><ele>281.0</ele><time>2026-05-03T11:08:20.163Z</time></trkpt><trkpt lat="43.3346567" lon="11.4832383"><ele>282.0</ele><time>2026-05-03T11:08:21.162Z</time></trkpt><trkpt lat="43.334685" lon="11.4835133"><ele>283.0</ele><time>2026-05-03T11:08:22.165Z</time></trkpt><trkpt lat="43.3347083" lon="11.483795"><ele>284.0</ele><time>2026-05-03T11:08:23.165Z</time></trkpt><trkpt lat="43.3347333" lon="11.4840817"><ele>282.33333333333337</ele><time>2026-05-03T11:08:24.165Z</time></trkpt><trkpt lat="43.3347617" lon="11.4843783"><ele>280.6666666666667</ele><time>2026-05-03T11:08:25.163Z</time></trkpt><trkpt lat="43.3347933" lon="11.4846717"><ele>279.0</ele><time>2026-05-03T11:08:26.164Z</time></trkpt><trkpt lat="43.33483" lon="11.4849667"><ele>279.0</ele><time>2026-05-03T11:08:27.164Z</time></trkpt><trkpt lat="43.33487" lon="11.4852617"><ele>279.0</ele><time>2026-05-03T11:08:28.165Z</time></trkpt><trkpt lat="43.33492" lon="11.485555"><ele>279.0</ele><time>2026-05-03T11:08:29.164Z</time></trkpt><trkpt lat="43.334975" lon="11.4858367"><ele>281.0</ele><time>2026-05-03T11:08:30.164Z</time></trkpt><trkpt lat="43.3350533" lon="11.4861133"><ele>283.0</ele><time>2026-05-03T11:08:31.164Z</time></trkpt><trkpt lat="43.3351533" lon="11.4863783"><ele>285.0</ele><time>2026-05-03T11:08:32.165Z</time></trkpt><trkpt lat="43.33526" lon="11.48664"><ele>287.0</ele><time>2026-05-03T11:08:33.165Z</time></trkpt><trkpt lat="43.3353667" lon="11.4869"><ele>289.0</ele><time>2026-05-03T11:08:34.165Z</time></trkpt><trkpt lat="43.3354783" lon="11.487155"><ele>291.0</ele><time>2026-05-03T11:08:35.163Z</time></trkpt><trkpt lat="43.3356083" lon="11.4873933"><ele>291.0</ele><time>2026-05-03T11:08:36.165Z</time></trkpt><trkpt lat="43.335765" lon="11.487605"><ele>291.0</ele><time>2026-05-03T11:08:37.166Z</time></trkpt><trkpt lat="43.33593" lon="11.4878033"><ele>291.0</ele><time>2026-05-03T11:08:38.165Z</time></trkpt><trkpt lat="43.33609" lon="11.48801"><ele>291.6666666666667</ele><time>2026-05-03T11:08:39.165Z</time></trkpt><trkpt lat="43.3362283" lon="11.488225"><ele>292.33333333333337</ele><time>2026-05-03T11:08:40.165Z</time></trkpt><trkpt lat="43.336355" lon="11.488435"><ele>293.0</ele><time>2026-05-03T11:08:41.165Z</time></trkpt><trkpt lat="43.336495" lon="11.48862"><ele>295.0</ele><time>2026-05-03T11:08:42.165Z</time></trkpt><trkpt lat="43.3366617" lon="11.48876"><ele>297.0</ele><time>2026-05-03T11:08:43.165Z</time></trkpt><trkpt lat="43.33685" lon="11.4888783"><ele>299.0</ele><time>2026-05-03T11:08:44.165Z</time></trkpt><trkpt lat="43.33704" lon="11.489005"><ele>298.33333333333337</ele><time>2026-05-03T11:08:45.165Z</time></trkpt><trkpt lat="43.3372283" lon="11.4891567"><ele>297.6666666666667</ele><time>2026-05-03T11:08:46.165Z</time></trkpt><trkpt lat="43.3374117" lon="11.48934"><ele>297.0</ele><time>2026-05-03T11:08:47.166Z</time></trkpt><trkpt lat="43.3376" lon="11.489535"><ele>297.5</ele><time>2026-05-03T11:08:48.165Z</time></trkpt><trkpt lat="43.3377933" lon="11.4897333"><ele>298.0</ele><time>2026-05-03T11:08:49.165Z</time></trkpt><trkpt lat="43.3379933" lon="11.489935"><ele>300.5</ele><time>2026-05-03T11:08:50.165Z</time></trkpt><trkpt lat="43.3381917" lon="11.4901383"><ele>303.0</ele><time>2026-05-03T11:08:51.165Z</time></trkpt><trkpt lat="43.3383867" lon="11.4903417"><ele>302.0</ele><time>2026-05-03T11:08:52.165Z</time></trkpt><trkpt lat="43.33858" lon="11.4905433"><ele>301.0</ele><time>2026-05-03T11:08:53.165Z</time></trkpt><trkpt lat="43.33877" lon="11.4907467"><ele>303.5</ele><time>2026-05-03T11:08:54.165Z</time></trkpt><trkpt lat="43.3389567" lon="11.4909533"><ele>306.0</ele><time>2026-05-03T11:08:55.165Z</time></trkpt><trkpt lat="43.3391333" lon="11.4911733"><ele>306.5</ele><time>2026-05-03T11:08:56.163Z</time></trkpt><trkpt lat="43.3392983" lon="11.4914067"><ele>307.0</ele><time>2026-05-03T11:08:57.163Z</time></trkpt><trkpt lat="43.339455" lon="11.4916467"><ele>307.0</ele><time>2026-05-03T11:08:58.162Z</time></trkpt><trkpt lat="43.3396083" lon="11.4918883"><ele>307.0</ele><time>2026-05-03T11:08:59.163Z</time></trkpt><trkpt lat="43.3397667" lon="11.4921283"><ele>309.0</ele><time>2026-05-03T11:09:00.163Z</time></trkpt><trkpt lat="43.3399267" lon="11.4923633"><ele>311.0</ele><time>2026-05-03T11:09:01.163Z</time></trkpt><trkpt lat="43.3400883" lon="11.4925933"><ele>311.0</ele><time>2026-05-03T11:09:02.164Z</time></trkpt><trkpt lat="43.340255" lon="11.4928233"><ele>311.0</ele><time>2026-05-03T11:09:03.166Z</time></trkpt><trkpt lat="43.34043" lon="11.49305"><ele>310.5</ele><time>2026-05-03T11:09:04.165Z</time></trkpt><trkpt lat="43.3406167" lon="11.4932783"><ele>310.0</ele><time>2026-05-03T11:09:05.165Z</time></trkpt><trkpt lat="43.34081" lon="11.4935083"><ele>310.0</ele><time>2026-05-03T11:09:06.165Z</time></trkpt><trkpt lat="43.3410033" lon="11.493735"><ele>310.0</ele><time>2026-05-03T11:09:07.163Z</time></trkpt><trkpt lat="43.3411917" lon="11.4939583"><ele>308.5</ele><time>2026-05-03T11:09:08.165Z</time></trkpt><trkpt lat="43.3413783" lon="11.4941783"><ele>307.0</ele><time>2026-05-03T11:09:09.162Z</time></trkpt><trkpt lat="43.3415667" lon="11.4943967"><ele>311.5</ele><time>2026-05-03T11:09:10.165Z</time></trkpt><trkpt lat="43.3417533" lon="11.4946117"><ele>316.0</ele><time>2026-05-03T11:09:11.165Z</time></trkpt><trkpt lat="43.3419383" lon="11.494825"><ele>316.0</ele><time>2026-05-03T11:09:12.168Z</time></trkpt><trkpt lat="43.34212" lon="11.495035"><ele>316.0</ele><time>2026-05-03T11:09:13.166Z</time></trkpt><trkpt lat="43.3422917" lon="11.4952317"><ele>318.3333333333333</ele><time>2026-05-03T11:09:14.165Z</time></trkpt><trkpt lat="43.3424483" lon="11.495415"><ele>320.6666666666667</ele><time>2026-05-03T11:09:15.166Z</time></trkpt><trkpt lat="43.3425883" lon="11.495585"><ele>323.0</ele><time>2026-05-03T11:09:16.165Z</time></trkpt><trkpt lat="43.3427183" lon="11.4957467"><ele>325.0</ele><time>2026-05-03T11:09:17.165Z</time></trkpt><trkpt lat="43.3428433" lon="11.495895"><ele>327.0</ele><time>2026-05-03T11:09:18.165Z</time></trkpt><trkpt lat="43.3429517" lon="11.4960317"><ele>329.0</ele><time>2026-05-03T11:09:19.165Z</time></trkpt><trkpt lat="43.3430517" lon="11.49616"><ele>331.0</ele><time>2026-05-03T11:09:20.165Z</time></trkpt><trkpt lat="43.3431467" lon="11.49628"><ele>331.6</ele><time>2026-05-03T11:09:21.166Z</time></trkpt><trkpt lat="43.3432367" lon="11.4963933"><ele>332.20000000000005</ele><time>2026-05-03T11:09:22.165Z</time></trkpt><trkpt lat="43.34332" lon="11.4964933"><ele>332.79999999999995</ele><time>2026-05-03T11:09:23.166Z</time></trkpt><trkpt lat="43.3433967" lon="11.4965917"><ele>333.4</ele><time>2026-05-03T11:09:24.162Z</time></trkpt><trkpt lat="43.343465" lon="11.49668"><ele>334.0</ele><time>2026-05-03T11:09:25.165Z</time></trkpt><trkpt lat="43.343525" lon="11.4967683"><ele>334.0</ele><time>2026-05-03T11:09:26.163Z</time></trkpt><trkpt lat="43.3435933" lon="11.4968567"><ele>334.0</ele><time>2026-05-03T11:09:27.165Z</time></trkpt><trkpt lat="43.3436617" lon="11.496945"><ele>334.0</ele><time>2026-05-03T11:09:28.164Z</time></trkpt><trkpt lat="43.3437267" lon="11.49703"><ele>334.0</ele><time>2026-05-03T11:09:29.165Z</time></trkpt><trkpt lat="43.3437867" lon="11.4971283"><ele>334.0</ele><time>2026-05-03T11:09:30.162Z</time></trkpt><trkpt lat="43.3438417" lon="11.4972433"><ele>334.75</ele><time>2026-05-03T11:09:31.163Z</time></trkpt><trkpt lat="43.3438917" lon="11.4973733"><ele>335.5</ele><time>2026-05-03T11:09:32.163Z</time></trkpt><trkpt lat="43.343945" lon="11.4975117"><ele>336.25</ele><time>2026-05-03T11:09:33.166Z</time></trkpt><trkpt lat="43.344" lon="11.4976583"><ele>337.0</ele><time>2026-05-03T11:09:34.163Z</time></trkpt><trkpt lat="43.344055" lon="11.4978117"><ele>336.25</ele><time>2026-05-03T11:09:35.166Z</time></trkpt><trkpt lat="43.3441117" lon="11.4979667"><ele>335.5</ele><time>2026-05-03T11:09:36.165Z</time></trkpt><trkpt lat="43.34417" lon="11.4981267"><ele>334.75</ele><time>2026-05-03T11:09:37.167Z</time></trkpt><trkpt lat="43.344225" lon="11.4982917"><ele>334.0</ele><time>2026-05-03T11:09:38.165Z</time></trkpt><trkpt lat="43.34428" lon="11.49845"><ele>334.0</ele><time>2026-05-03T11:09:39.165Z</time></trkpt><trkpt lat="43.3443317" lon="11.4985967"><ele>334.0</ele><time>2026-05-03T11:09:40.164Z</time></trkpt><trkpt lat="43.3443783" lon="11.498735"><ele>334.0</ele><time>2026-05-03T11:09:41.166Z</time></trkpt><trkpt lat="43.34442" lon="11.4988667"><ele>334.0</ele><time>2026-05-03T11:09:42.164Z</time></trkpt><trkpt lat="43.3444617" lon="11.4989883"><ele>334.0</ele><time>2026-05-03T11:09:43.164Z</time></trkpt><trkpt lat="43.3445067" lon="11.49911"><ele>334.25</ele><time>2026-05-03T11:09:44.164Z</time></trkpt><trkpt lat="43.3445583" lon="11.4992417"><ele>334.5</ele><time>2026-05-03T11:09:45.164Z</time></trkpt><trkpt lat="43.3446117" lon="11.4993833"><ele>334.75</ele><time>2026-05-03T11:09:46.165Z</time></trkpt><trkpt lat="43.3446683" lon="11.49953"><ele>335.0</ele><time>2026-05-03T11:09:47.165Z</time></trkpt><trkpt lat="43.3447283" lon="11.4996783"><ele>335.0</ele><time>2026-05-03T11:09:48.161Z</time></trkpt><trkpt lat="43.3447917" lon="11.4998283"><ele>335.0</ele><time>2026-05-03T11:09:49.164Z</time></trkpt><trkpt lat="43.3448483" lon="11.49998"><ele>335.0</ele><time>2026-05-03T11:09:50.162Z</time></trkpt><trkpt lat="43.3448967" lon="11.5001183"><ele>335.0</ele><time>2026-05-03T11:09:51.165Z</time></trkpt><trkpt lat="43.3449417" lon="11.5002433"><ele>335.0</ele><time>2026-05-03T11:09:52.163Z</time></trkpt><trkpt lat="43.3449883" lon="11.5003633"><ele>335.0</ele><time>2026-05-03T11:09:53.165Z</time></trkpt><trkpt lat="43.3450217" lon="11.5004533"><ele>335.0</ele><time>2026-05-03T11:09:54.161Z</time></trkpt><trkpt lat="43.3450183" lon="11.5005967"><ele>335.0</ele><time>2026-05-03T11:09:56.164Z</time></trkpt><trkpt lat="43.34498" lon="11.50075"><ele>335.0</ele><time>2026-05-03T11:09:58.164Z</time></trkpt><trkpt lat="43.3449633" lon="11.5008483"><ele>335.0</ele><time>2026-05-03T11:09:59.165Z</time></trkpt><trkpt lat="43.3449733" lon="11.500945"><ele>335.0</ele><time>2026-05-03T11:10:00.161Z</time></trkpt><trkpt lat="43.3450083" lon="11.50104"><ele>335.0</ele><time>2026-05-03T11:10:01.165Z</time></trkpt><trkpt lat="43.3450583" lon="11.5011517"><ele>335.0</ele><time>2026-05-03T11:10:02.164Z</time></trkpt><trkpt lat="43.3451117" lon="11.501275"><ele>335.0</ele><time>2026-05-03T11:10:03.164Z</time></trkpt><trkpt lat="43.345155" lon="11.5014117"><ele>335.25</ele><time>2026-05-03T11:10:04.165Z</time></trkpt><trkpt lat="43.3451867" lon="11.5015633"><ele>335.5</ele><time>2026-05-03T11:10:05.165Z</time></trkpt><trkpt lat="43.3451967" lon="11.501725"><ele>335.75</ele><time>2026-05-03T11:10:06.164Z</time></trkpt><trkpt lat="43.3451783" lon="11.5018867"><ele>336.0</ele><time>2026-05-03T11:10:07.164Z</time></trkpt><trkpt lat="43.3451383" lon="11.5020467"><ele>337.6</ele><time>2026-05-03T11:10:08.166Z</time></trkpt><trkpt lat="43.3450833" lon="11.5021983"><ele>339.20000000000005</ele><time>2026-05-03T11:10:09.165Z</time></trkpt><trkpt lat="43.34503" lon="11.502335"><ele>340.79999999999995</ele><time>2026-05-03T11:10:10.165Z</time></trkpt><trkpt lat="43.3449833" lon="11.5024617"><ele>342.4</ele><time>2026-05-03T11:10:11.165Z</time></trkpt><trkpt lat="43.3449383" lon="11.5025933"><ele>344.0</ele><time>2026-05-03T11:10:12.164Z</time></trkpt><trkpt lat="43.3449" lon="11.5027233"><ele>344.0</ele><time>2026-05-03T11:10:13.164Z</time></trkpt><trkpt lat="43.34487" lon="11.502855"><ele>344.0</ele><time>2026-05-03T11:10:14.164Z</time></trkpt><trkpt lat="43.3448517" lon="11.5029983"><ele>344.0</ele><time>2026-05-03T11:10:15.161Z</time></trkpt><trkpt lat="43.3448517" lon="11.5031367"><ele>344.0</ele><time>2026-05-03T11:10:16.166Z</time></trkpt><trkpt lat="43.3448767" lon="11.5032817"><ele>344.0</ele><time>2026-05-03T11:10:17.165Z</time></trkpt><trkpt lat="43.34492" lon="11.50342"><ele>343.79999999999995</ele><time>2026-05-03T11:10:18.164Z</time></trkpt><trkpt lat="43.34495" lon="11.5035533"><ele>343.59999999999997</ele><time>2026-05-03T11:10:19.165Z</time></trkpt><trkpt lat="43.344955" lon="11.5036883"><ele>343.4</ele><time>2026-05-03T11:10:20.164Z</time></trkpt><trkpt lat="43.344935" lon="11.50383"><ele>343.2</ele><time>2026-05-03T11:10:21.165Z</time></trkpt><trkpt lat="43.3448933" lon="11.5039617"><ele>343.0</ele><time>2026-05-03T11:10:22.164Z</time></trkpt><trkpt lat="43.3448433" lon="11.5040733"><ele>343.0</ele><time>2026-05-03T11:10:23.165Z</time></trkpt><trkpt lat="43.3447967" lon="11.504175"><ele>343.0</ele><time>2026-05-03T11:10:24.165Z</time></trkpt><trkpt lat="43.3447567" lon="11.504265"><ele>343.0</ele><time>2026-05-03T11:10:25.165Z</time></trkpt><trkpt lat="43.3447183" lon="11.50439"><ele>343.0</ele><time>2026-05-03T11:10:27.164Z</time></trkpt><trkpt lat="43.3447883" lon="11.5044617"><ele>343.0</ele><time>2026-05-03T11:10:30.165Z</time></trkpt><trkpt lat="43.344915" lon="11.50451"><ele>343.0</ele><time>2026-05-03T11:10:32.161Z</time></trkpt><trkpt lat="43.3450133" lon="11.5045317"><ele>343.0</ele><time>2026-05-03T11:10:33.162Z</time></trkpt><trkpt lat="43.3451217" lon="11.5045567"><ele>343.0</ele><time>2026-05-03T11:10:34.162Z</time></trkpt><trkpt lat="43.345245" lon="11.5045883"><ele>343.0</ele><time>2026-05-03T11:10:35.161Z</time></trkpt><trkpt lat="43.3453633" lon="11.5046367"><ele>343.25</ele><time>2026-05-03T11:10:36.162Z</time></trkpt><trkpt lat="43.345465" lon="11.5047133"><ele>343.5</ele><time>2026-05-03T11:10:37.162Z</time></trkpt><trkpt lat="43.3455667" lon="11.5048233"><ele>343.75</ele><time>2026-05-03T11:10:38.162Z</time></trkpt><trkpt lat="43.3456717" lon="11.5049617"><ele>344.0</ele><time>2026-05-03T11:10:39.162Z</time></trkpt><trkpt lat="43.3457817" lon="11.50512"><ele>346.33333333333337</ele><time>2026-05-03T11:10:40.165Z</time></trkpt><trkpt lat="43.3458983" lon="11.505275"><ele>348.6666666666667</ele><time>2026-05-03T11:10:41.162Z</time></trkpt><trkpt lat="43.3460283" lon="11.505405"><ele>351.0</ele><time>2026-05-03T11:10:42.163Z</time></trkpt><trkpt lat="43.34618" lon="11.5055117"><ele>351.0</ele><time>2026-05-03T11:10:43.166Z</time></trkpt><trkpt lat="43.3463417" lon="11.5055817"><ele>351.0</ele><time>2026-05-03T11:10:44.165Z</time></trkpt><trkpt lat="43.3465017" lon="11.5056183"><ele>351.0</ele><time>2026-05-03T11:10:45.165Z</time></trkpt><trkpt lat="43.3466517" lon="11.5056367"><ele>349.8</ele><time>2026-05-03T11:10:46.165Z</time></trkpt><trkpt lat="43.3467867" lon="11.5056383"><ele>348.6</ele><time>2026-05-03T11:10:47.165Z</time></trkpt><trkpt lat="43.3469033" lon="11.5056267"><ele>347.4</ele><time>2026-05-03T11:10:48.165Z</time></trkpt><trkpt lat="43.347" lon="11.5055883"><ele>346.2</ele><time>2026-05-03T11:10:49.165Z</time></trkpt><trkpt lat="43.3470783" lon="11.5055217"><ele>345.0</ele><time>2026-05-03T11:10:50.165Z</time></trkpt><trkpt lat="43.34712" lon="11.5054183"><ele>347.5</ele><time>2026-05-03T11:10:51.161Z</time></trkpt><trkpt lat="43.347145" lon="11.5052967"><ele>350.0</ele><time>2026-05-03T11:10:52.165Z</time></trkpt><trkpt lat="43.3471417" lon="11.5051533"><ele>352.5</ele><time>2026-05-03T11:10:53.165Z</time></trkpt><trkpt lat="43.3470967" lon="11.5049833"><ele>355.0</ele><time>2026-05-03T11:10:54.162Z</time></trkpt><trkpt lat="43.347045" lon="11.50481"><ele>355.0</ele><time>2026-05-03T11:10:55.164Z</time></trkpt><trkpt lat="43.3469967" lon="11.5046467"><ele>355.0</ele><time>2026-05-03T11:10:56.166Z</time></trkpt><trkpt lat="43.3469617" lon="11.5045067"><ele>355.0</ele><time>2026-05-03T11:10:57.166Z</time></trkpt><trkpt lat="43.3469367" lon="11.5043767"><ele>355.0</ele><time>2026-05-03T11:10:58.165Z</time></trkpt><trkpt lat="43.3469417" lon="11.50425"><ele>355.0</ele><time>2026-05-03T11:10:59.166Z</time></trkpt><trkpt lat="43.3469483" lon="11.5041367"><ele>354.5</ele><time>2026-05-03T11:11:00.165Z</time></trkpt><trkpt lat="43.3469567" lon="11.5040417"><ele>354.0</ele><time>2026-05-03T11:11:01.165Z</time></trkpt><trkpt lat="43.3469867" lon="11.503965"><ele>353.5</ele><time>2026-05-03T11:11:02.165Z</time></trkpt><trkpt lat="43.3470683" lon="11.50384"><ele>353.0</ele><time>2026-05-03T11:11:04.165Z</time></trkpt><trkpt lat="43.3471467" lon="11.5037717"><ele>352.5</ele><time>2026-05-03T11:11:06.165Z</time></trkpt><trkpt lat="43.3472267" lon="11.5037417"><ele>352.0</ele><time>2026-05-03T11:11:08.166Z</time></trkpt><trkpt lat="43.3473133" lon="11.5036917"><ele>349.20000000000005</ele><time>2026-05-03T11:11:10.165Z</time></trkpt><trkpt lat="43.3474117" lon="11.503635"><ele>346.4</ele><time>2026-05-03T11:11:12.164Z</time></trkpt><trkpt lat="43.3475283" lon="11.5035967"><ele>343.6</ele><time>2026-05-03T11:11:14.163Z</time></trkpt><trkpt lat="43.3476333" lon="11.50357"><ele>340.79999999999995</ele><time>2026-05-03T11:11:16.164Z</time></trkpt><trkpt lat="43.3477417" lon="11.5035933"><ele>338.0</ele><time>2026-05-03T11:11:18.163Z</time></trkpt><trkpt lat="43.3478467" lon="11.5036633"><ele>338.0</ele><time>2026-05-03T11:11:20.162Z</time></trkpt><trkpt lat="43.3479483" lon="11.5037233"><ele>338.0</ele><time>2026-05-03T11:11:22.165Z</time></trkpt><trkpt lat="43.3480317" lon="11.5038"><ele>338.0</ele><time>2026-05-03T11:11:24.165Z</time></trkpt><trkpt lat="43.348115" lon="11.50385"><ele>338.0</ele><time>2026-05-03T11:11:26.162Z</time></trkpt><trkpt lat="43.348185" lon="11.503905"><ele>338.0</ele><time>2026-05-03T11:11:28.163Z</time></trkpt><trkpt lat="43.34828" lon="11.503995"><ele>338.2857142857143</ele><time>2026-05-03T11:11:30.162Z</time></trkpt><trkpt lat="43.34834" lon="11.5040433"><ele>338.57142857142856</ele><time>2026-05-03T11:11:31.162Z</time></trkpt><trkpt lat="43.348405" lon="11.5040933"><ele>338.8571428571429</ele><time>2026-05-03T11:11:32.162Z</time></trkpt><trkpt lat="43.3484633" lon="11.50414"><ele>339.1428571428571</ele><time>2026-05-03T11:11:33.165Z</time></trkpt><trkpt lat="43.3485233" lon="11.5041783"><ele>339.4285714285714</ele><time>2026-05-03T11:11:34.165Z</time></trkpt><trkpt lat="43.3485933" lon="11.5042417"><ele>339.7142857142857</ele><time>2026-05-03T11:11:36.162Z</time></trkpt><trkpt lat="43.3486633" lon="11.5043083"><ele>340.0</ele><time>2026-05-03T11:11:38.165Z</time></trkpt><trkpt lat="43.348725" lon="11.5043483"><ele>340.0</ele><time>2026-05-03T11:11:39.161Z</time></trkpt><trkpt lat="43.348785" lon="11.504405"><ele>340.0</ele><time>2026-05-03T11:11:40.165Z</time></trkpt><trkpt lat="43.3488567" lon="11.5044717"><ele>340.0</ele><time>2026-05-03T11:11:41.166Z</time></trkpt><trkpt lat="43.3489533" lon="11.5045533"><ele>340.0</ele><time>2026-05-03T11:11:42.164Z</time></trkpt><trkpt lat="43.3490667" lon="11.50465"><ele>340.0</ele><time>2026-05-03T11:11:43.163Z</time></trkpt><trkpt lat="43.3491783" lon="11.5047267"><ele>338.5</ele><time>2026-05-03T11:11:44.162Z</time></trkpt><trkpt lat="43.3493" lon="11.5048233"><ele>337.0</ele><time>2026-05-03T11:11:45.165Z</time></trkpt><trkpt lat="43.349415" lon="11.5049217"><ele>335.5</ele><time>2026-05-03T11:11:46.165Z</time></trkpt><trkpt lat="43.3495217" lon="11.5050133"><ele>334.0</ele><time>2026-05-03T11:11:47.165Z</time></trkpt><trkpt lat="43.3496233" lon="11.5050817"><ele>334.25</ele><time>2026-05-03T11:11:48.162Z</time></trkpt><trkpt lat="43.3497383" lon="11.505155"><ele>334.5</ele><time>2026-05-03T11:11:49.168Z</time></trkpt><trkpt lat="43.3498567" lon="11.5052433"><ele>334.75</ele><time>2026-05-03T11:11:50.165Z</time></trkpt><trkpt lat="43.34997" lon="11.5053617"><ele>335.0</ele><time>2026-05-03T11:11:51.165Z</time></trkpt><trkpt lat="43.35009" lon="11.5054867"><ele>335.0</ele><time>2026-05-03T11:11:52.165Z</time></trkpt><trkpt lat="43.350225" lon="11.5055967"><ele>335.0</ele><time>2026-05-03T11:11:53.168Z</time></trkpt><trkpt lat="43.35038" lon="11.5056833"><ele>335.0</ele><time>2026-05-03T11:11:54.165Z</time></trkpt><trkpt lat="43.3505583" lon="11.5057283"><ele>335.0</ele><time>2026-05-03T11:11:55.165Z</time></trkpt><trkpt lat="43.350745" lon="11.5057483"><ele>335.0</ele><time>2026-05-03T11:11:56.165Z</time></trkpt><trkpt lat="43.3509367" lon="11.5057533"><ele>335.0</ele><time>2026-05-03T11:11:57.165Z</time></trkpt><trkpt lat="43.3511333" lon="11.505755"><ele>335.0</ele><time>2026-05-03T11:11:58.165Z</time></trkpt><trkpt lat="43.3513317" lon="11.5057517"><ele>335.0</ele><time>2026-05-03T11:11:59.165Z</time></trkpt><trkpt lat="43.351535" lon="11.5057483"><ele>335.0</ele><time>2026-05-03T11:12:00.166Z</time></trkpt><trkpt lat="43.35174" lon="11.50574"><ele>335.33333333333337</ele><time>2026-05-03T11:12:01.165Z</time></trkpt><trkpt lat="43.3519467" lon="11.50573"><ele>335.6666666666667</ele><time>2026-05-03T11:12:02.165Z</time></trkpt><trkpt lat="43.3521517" lon="11.505715"><ele>336.0</ele><time>2026-05-03T11:12:03.166Z</time></trkpt><trkpt lat="43.3523517" lon="11.5056967"><ele>336.3333333333333</ele><time>2026-05-03T11:12:04.165Z</time></trkpt><trkpt lat="43.3525517" lon="11.5056767"><ele>336.66666666666663</ele><time>2026-05-03T11:12:05.166Z</time></trkpt><trkpt lat="43.352745" lon="11.5056567"><ele>337.0</ele><time>2026-05-03T11:12:06.165Z</time></trkpt><trkpt lat="43.3529283" lon="11.5056267"><ele>338.66666666666663</ele><time>2026-05-03T11:12:07.165Z</time></trkpt><trkpt lat="43.353095" lon="11.50559"><ele>340.3333333333333</ele><time>2026-05-03T11:12:08.165Z</time></trkpt><trkpt lat="43.3532467" lon="11.505535"><ele>342.0</ele><time>2026-05-03T11:12:09.165Z</time></trkpt><trkpt lat="43.3533867" lon="11.5054467"><ele>342.0</ele><time>2026-05-03T11:12:10.165Z</time></trkpt><trkpt lat="43.3535217" lon="11.5053283"><ele>342.0</ele><time>2026-05-03T11:12:11.166Z</time></trkpt><trkpt lat="43.3536567" lon="11.5051883"><ele>342.0</ele><time>2026-05-03T11:12:12.165Z</time></trkpt><trkpt lat="43.353795" lon="11.505035"><ele>343.0</ele><time>2026-05-03T11:12:13.165Z</time></trkpt><trkpt lat="43.3539367" lon="11.5048767"><ele>344.0</ele><time>2026-05-03T11:12:14.165Z</time></trkpt><trkpt lat="43.354085" lon="11.504715"><ele>345.0</ele><time>2026-05-03T11:12:15.165Z</time></trkpt><trkpt lat="43.3542367" lon="11.5045517"><ele>345.0</ele><time>2026-05-03T11:12:16.165Z</time></trkpt><trkpt lat="43.3543917" lon="11.5043817"><ele>345.0</ele><time>2026-05-03T11:12:17.165Z</time></trkpt><trkpt lat="43.3545467" lon="11.5042117"><ele>345.0</ele><time>2026-05-03T11:12:18.165Z</time></trkpt><trkpt lat="43.3546983" lon="11.5040383"><ele>346.6666666666667</ele><time>2026-05-03T11:12:19.165Z</time></trkpt><trkpt lat="43.3548483" lon="11.5038517"><ele>348.33333333333337</ele><time>2026-05-03T11:12:20.165Z</time></trkpt><trkpt lat="43.3549883" lon="11.5036617"><ele>350.0</ele><time>2026-05-03T11:12:21.162Z</time></trkpt><trkpt lat="43.3551183" lon="11.5034783"><ele>350.0</ele><time>2026-05-03T11:12:22.165Z</time></trkpt><trkpt lat="43.3552417" lon="11.5033133"><ele>350.0</ele><time>2026-05-03T11:12:23.165Z</time></trkpt><trkpt lat="43.3553567" lon="11.5031767"><ele>350.0</ele><time>2026-05-03T11:12:24.165Z</time></trkpt><trkpt lat="43.355475" lon="11.5030883"><ele>351.75</ele><time>2026-05-03T11:12:25.165Z</time></trkpt><trkpt lat="43.3556" lon="11.50305"><ele>353.5</ele><time>2026-05-03T11:12:26.164Z</time></trkpt><trkpt lat="43.3557383" lon="11.5030567"><ele>355.25</ele><time>2026-05-03T11:12:27.164Z</time></trkpt><trkpt lat="43.355885" lon="11.5030983"><ele>357.0</ele><time>2026-05-03T11:12:28.164Z</time></trkpt><trkpt lat="43.3560317" lon="11.5031383"><ele>357.0</ele><time>2026-05-03T11:12:29.167Z</time></trkpt><trkpt lat="43.35617" lon="11.5031367"><ele>357.0</ele><time>2026-05-03T11:12:30.164Z</time></trkpt><trkpt lat="43.3562967" lon="11.5030817"><ele>357.0</ele><time>2026-05-03T11:12:31.164Z</time></trkpt><trkpt lat="43.3564083" lon="11.5029733"><ele>357.0</ele><time>2026-05-03T11:12:32.165Z</time></trkpt><trkpt lat="43.3565083" lon="11.5027917"><ele>357.6666666666667</ele><time>2026-05-03T11:12:33.162Z</time></trkpt><trkpt lat="43.3566017" lon="11.5026067"><ele>358.33333333333337</ele><time>2026-05-03T11:12:34.164Z</time></trkpt><trkpt lat="43.356675" lon="11.5024083"><ele>359.0</ele><time>2026-05-03T11:12:35.164Z</time></trkpt><trkpt lat="43.356715" lon="11.5022083"><ele>359.75</ele><time>2026-05-03T11:12:36.165Z</time></trkpt><trkpt lat="43.3567183" lon="11.502025"><ele>360.5</ele><time>2026-05-03T11:12:37.163Z</time></trkpt><trkpt lat="43.3567017" lon="11.5018583"><ele>361.25</ele><time>2026-05-03T11:12:38.169Z</time></trkpt><trkpt lat="43.356675" lon="11.5016867"><ele>362.0</ele><time>2026-05-03T11:12:39.162Z</time></trkpt><trkpt lat="43.3566533" lon="11.5015067"><ele>362.0</ele><time>2026-05-03T11:12:40.163Z</time></trkpt><trkpt lat="43.3566433" lon="11.5013217"><ele>362.0</ele><time>2026-05-03T11:12:41.165Z</time></trkpt><trkpt lat="43.3566633" lon="11.5011383"><ele>362.0</ele><time>2026-05-03T11:12:42.163Z</time></trkpt><trkpt lat="43.3567167" lon="11.50097"><ele>362.0</ele><time>2026-05-03T11:12:43.163Z</time></trkpt><trkpt lat="43.3568017" lon="11.50084"><ele>360.6666666666667</ele><time>2026-05-03T11:12:44.163Z</time></trkpt><trkpt lat="43.3569317" lon="11.500755"><ele>359.3333333333333</ele><time>2026-05-03T11:12:45.163Z</time></trkpt><trkpt lat="43.3570967" lon="11.5007317"><ele>358.0</ele><time>2026-05-03T11:12:46.162Z</time></trkpt><trkpt lat="43.3572933" lon="11.500745"><ele>361.66666666666663</ele><time>2026-05-03T11:12:47.163Z</time></trkpt><trkpt lat="43.3574983" lon="11.5007617"><ele>365.3333333333333</ele><time>2026-05-03T11:12:48.162Z</time></trkpt><trkpt lat="43.3577033" lon="11.5007667"><ele>369.0</ele><time>2026-05-03T11:12:49.162Z</time></trkpt><trkpt lat="43.3579117" lon="11.500775"><ele>371.3333333333333</ele><time>2026-05-03T11:12:50.163Z</time></trkpt><trkpt lat="43.3581233" lon="11.5007867"><ele>373.66666666666663</ele><time>2026-05-03T11:12:51.162Z</time></trkpt><trkpt lat="43.3583367" lon="11.500795"><ele>376.0</ele><time>2026-05-03T11:12:52.163Z</time></trkpt><trkpt lat="43.358555" lon="11.5008083"><ele>376.0</ele><time>2026-05-03T11:12:53.163Z</time></trkpt><trkpt lat="43.3587717" lon="11.5008217"><ele>376.0</ele><time>2026-05-03T11:12:54.164Z</time></trkpt><trkpt lat="43.3589767" lon="11.5008333"><ele>376.0</ele><time>2026-05-03T11:12:55.164Z</time></trkpt><trkpt lat="43.359165" lon="11.500855"><ele>377.66666666666663</ele><time>2026-05-03T11:12:56.162Z</time></trkpt><trkpt lat="43.3593417" lon="11.50087"><ele>379.3333333333333</ele><time>2026-05-03T11:12:57.165Z</time></trkpt><trkpt lat="43.3595067" lon="11.5008533"><ele>381.0</ele><time>2026-05-03T11:12:58.165Z</time></trkpt><trkpt lat="43.35966" lon="11.50078"><ele>382.33333333333337</ele><time>2026-05-03T11:12:59.166Z</time></trkpt><trkpt lat="43.3597983" lon="11.50066"><ele>383.6666666666667</ele><time>2026-05-03T11:13:00.165Z</time></trkpt><trkpt lat="43.3599183" lon="11.5005333"><ele>385.0</ele><time>2026-05-03T11:13:01.164Z</time></trkpt><trkpt lat="43.3600333" lon="11.5004183"><ele>383.6666666666667</ele><time>2026-05-03T11:13:02.162Z</time></trkpt><trkpt lat="43.360165" lon="11.5003533"><ele>382.33333333333337</ele><time>2026-05-03T11:13:03.163Z</time></trkpt><trkpt lat="43.360315" lon="11.50034"><ele>381.0</ele><time>2026-05-03T11:13:04.162Z</time></trkpt><trkpt lat="43.3604833" lon="11.5003483"><ele>379.0</ele><time>2026-05-03T11:13:05.165Z</time></trkpt><trkpt lat="43.3606617" lon="11.5003617"><ele>377.0</ele><time>2026-05-03T11:13:06.165Z</time></trkpt><trkpt lat="43.36085" lon="11.5003583"><ele>375.0</ele><time>2026-05-03T11:13:07.167Z</time></trkpt><trkpt lat="43.3610333" lon="11.500335"><ele>375.0</ele><time>2026-05-03T11:13:08.164Z</time></trkpt><trkpt lat="43.3612" lon="11.500305"><ele>375.0</ele><time>2026-05-03T11:13:09.164Z</time></trkpt><trkpt lat="43.361355" lon="11.5003033"><ele>375.0</ele><time>2026-05-03T11:13:10.164Z</time></trkpt><trkpt lat="43.3614967" lon="11.5003433"><ele>376.25</ele><time>2026-05-03T11:13:11.165Z</time></trkpt><trkpt lat="43.36162" lon="11.5004383"><ele>377.5</ele><time>2026-05-03T11:13:12.164Z</time></trkpt><trkpt lat="43.3617217" lon="11.5005767"><ele>378.75</ele><time>2026-05-03T11:13:13.166Z</time></trkpt><trkpt lat="43.3618083" lon="11.500745"><ele>380.0</ele><time>2026-05-03T11:13:14.165Z</time></trkpt><trkpt lat="43.3618867" lon="11.5009417"><ele>380.0</ele><time>2026-05-03T11:13:15.164Z</time></trkpt><trkpt lat="43.36196" lon="11.5011383"><ele>380.0</ele><time>2026-05-03T11:13:16.165Z</time></trkpt><trkpt lat="43.3620417" lon="11.50133"><ele>380.0</ele><time>2026-05-03T11:13:17.164Z</time></trkpt><trkpt lat="43.3621317" lon="11.5014983"><ele>380.5</ele><time>2026-05-03T11:13:18.165Z</time></trkpt><trkpt lat="43.3622367" lon="11.501625"><ele>381.0</ele><time>2026-05-03T11:13:19.164Z</time></trkpt><trkpt lat="43.3623567" lon="11.501695"><ele>381.5</ele><time>2026-05-03T11:13:20.164Z</time></trkpt><trkpt lat="43.3624967" lon="11.5016967"><ele>382.0</ele><time>2026-05-03T11:13:21.165Z</time></trkpt><trkpt lat="43.362645" lon="11.501645"><ele>382.0</ele><time>2026-05-03T11:13:22.165Z</time></trkpt><trkpt lat="43.362795" lon="11.50157"><ele>382.0</ele><time>2026-05-03T11:13:23.165Z</time></trkpt><trkpt lat="43.3629433" lon="11.5014933"><ele>382.0</ele><time>2026-05-03T11:13:24.166Z</time></trkpt><trkpt lat="43.3630917" lon="11.5014367"><ele>380.66666666666663</ele><time>2026-05-03T11:13:25.165Z</time></trkpt><trkpt lat="43.36325" lon="11.5014067"><ele>379.3333333333333</ele><time>2026-05-03T11:13:26.162Z</time></trkpt><trkpt lat="43.3634183" lon="11.501415"><ele>378.0</ele><time>2026-05-03T11:13:27.162Z</time></trkpt><trkpt lat="43.3635883" lon="11.5014633"><ele>378.0</ele><time>2026-05-03T11:13:28.162Z</time></trkpt><trkpt lat="43.3637617" lon="11.5015283"><ele>378.0</ele><time>2026-05-03T11:13:29.166Z</time></trkpt><trkpt lat="43.3639467" lon="11.5015983"><ele>378.0</ele><time>2026-05-03T11:13:30.162Z</time></trkpt><trkpt lat="43.3641367" lon="11.501665"><ele>376.0</ele><time>2026-05-03T11:13:31.165Z</time></trkpt><trkpt lat="43.3643317" lon="11.5017317"><ele>374.0</ele><time>2026-05-03T11:13:32.164Z</time></trkpt><trkpt lat="43.3645283" lon="11.5017883"><ele>372.0</ele><time>2026-05-03T11:13:33.162Z</time></trkpt><trkpt lat="43.3647333" lon="11.5018283"><ele>369.0</ele><time>2026-05-03T11:13:34.162Z</time></trkpt><trkpt lat="43.3649433" lon="11.5018483"><ele>366.0</ele><time>2026-05-03T11:13:35.164Z</time></trkpt><trkpt lat="43.3653667" lon="11.5018467"><ele>365.6666666666667</ele><time>2026-05-03T11:13:37.162Z</time></trkpt><trkpt lat="43.365575" lon="11.501855"><ele>365.33333333333337</ele><time>2026-05-03T11:13:38.167Z</time></trkpt><trkpt lat="43.3657783" lon="11.5018633"><ele>365.0</ele><time>2026-05-03T11:13:39.165Z</time></trkpt><trkpt lat="43.3659767" lon="11.5018683"><ele>365.0</ele><time>2026-05-03T11:13:40.165Z</time></trkpt><trkpt lat="43.3661733" lon="11.5018617"><ele>365.0</ele><time>2026-05-03T11:13:41.165Z</time></trkpt><trkpt lat="43.3663667" lon="11.5018283"><ele>365.0</ele><time>2026-05-03T11:13:42.167Z</time></trkpt><trkpt lat="43.3665583" lon="11.5017617"><ele>364.0</ele><time>2026-05-03T11:13:43.165Z</time></trkpt><trkpt lat="43.3667483" lon="11.5016683"><ele>363.0</ele><time>2026-05-03T11:13:44.165Z</time></trkpt><trkpt lat="43.366935" lon="11.5015633"><ele>362.0</ele><time>2026-05-03T11:13:45.161Z</time></trkpt><trkpt lat="43.36712" lon="11.5014633"><ele>361.33333333333337</ele><time>2026-05-03T11:13:46.165Z</time></trkpt><trkpt lat="43.36731" lon="11.5013867"><ele>360.6666666666667</ele><time>2026-05-03T11:13:47.166Z</time></trkpt><trkpt lat="43.3674917" lon="11.501345"><ele>360.0</ele><time>2026-05-03T11:13:48.165Z</time></trkpt><trkpt lat="43.3676633" lon="11.501295"><ele>359.0</ele><time>2026-05-03T11:13:49.165Z</time></trkpt><trkpt lat="43.3678167" lon="11.50121"><ele>358.0</ele><time>2026-05-03T11:13:50.165Z</time></trkpt><trkpt lat="43.36795" lon="11.5010817"><ele>357.0</ele><time>2026-05-03T11:13:51.165Z</time></trkpt><trkpt lat="43.3680633" lon="11.5009133"><ele>357.0</ele><time>2026-05-03T11:13:52.165Z</time></trkpt><trkpt lat="43.3681633" lon="11.50073"><ele>357.0</ele><time>2026-05-03T11:13:53.165Z</time></trkpt><trkpt lat="43.3682633" lon="11.500545"><ele>357.0</ele><time>2026-05-03T11:13:54.165Z</time></trkpt><trkpt lat="43.368375" lon="11.5003767"><ele>357.6666666666667</ele><time>2026-05-03T11:13:55.165Z</time></trkpt><trkpt lat="43.36851" lon="11.50023"><ele>358.33333333333337</ele><time>2026-05-03T11:13:56.165Z</time></trkpt><trkpt lat="43.3686617" lon="11.5000933"><ele>359.0</ele><time>2026-05-03T11:13:57.162Z</time></trkpt><trkpt lat="43.3688233" lon="11.4999633"><ele>357.6666666666667</ele><time>2026-05-03T11:13:58.164Z</time></trkpt><trkpt lat="43.3689983" lon="11.49983"><ele>356.3333333333333</ele><time>2026-05-03T11:13:59.164Z</time></trkpt><trkpt lat="43.36918" lon="11.4996933"><ele>355.0</ele><time>2026-05-03T11:14:00.164Z</time></trkpt><trkpt lat="43.3693683" lon="11.4995583"><ele>355.0</ele><time>2026-05-03T11:14:01.163Z</time></trkpt><trkpt lat="43.3695617" lon="11.4994233"><ele>355.0</ele><time>2026-05-03T11:14:02.165Z</time></trkpt><trkpt lat="43.3697533" lon="11.4992817"><ele>355.0</ele><time>2026-05-03T11:14:03.164Z</time></trkpt><trkpt lat="43.369945" lon="11.4991383"><ele>355.66666666666663</ele><time>2026-05-03T11:14:04.164Z</time></trkpt><trkpt lat="43.3701317" lon="11.49899"><ele>356.3333333333333</ele><time>2026-05-03T11:14:05.165Z</time></trkpt><trkpt lat="43.3703133" lon="11.4988317"><ele>357.0</ele><time>2026-05-03T11:14:06.164Z</time></trkpt><trkpt lat="43.3704867" lon="11.49866"><ele>357.3333333333333</ele><time>2026-05-03T11:14:07.165Z</time></trkpt><trkpt lat="43.3706467" lon="11.4984733"><ele>357.66666666666663</ele><time>2026-05-03T11:14:08.165Z</time></trkpt><trkpt lat="43.3708033" lon="11.4982733"><ele>358.0</ele><time>2026-05-03T11:14:09.165Z</time></trkpt><trkpt lat="43.3709633" lon="11.4980817"><ele>358.0</ele><time>2026-05-03T11:14:10.166Z</time></trkpt><trkpt lat="43.37114" lon="11.4979233"><ele>358.0</ele><time>2026-05-03T11:14:11.165Z</time></trkpt><trkpt lat="43.3713317" lon="11.4978167"><ele>358.0</ele><time>2026-05-03T11:14:12.165Z</time></trkpt><trkpt lat="43.3715333" lon="11.4977417"><ele>358.3333333333333</ele><time>2026-05-03T11:14:13.165Z</time></trkpt><trkpt lat="43.371735" lon="11.4976833"><ele>358.6666666666667</ele><time>2026-05-03T11:14:14.165Z</time></trkpt><trkpt lat="43.371935" lon="11.4976433"><ele>359.0</ele><time>2026-05-03T11:14:15.165Z</time></trkpt><trkpt lat="43.3721383" lon="11.4976333"><ele>359.6666666666667</ele><time>2026-05-03T11:14:16.169Z</time></trkpt><trkpt lat="43.372345" lon="11.4976567"><ele>360.3333333333333</ele><time>2026-05-03T11:14:17.165Z</time></trkpt><trkpt lat="43.3725583" lon="11.4977033"><ele>361.0</ele><time>2026-05-03T11:14:18.165Z</time></trkpt><trkpt lat="43.3727683" lon="11.4977733"><ele>361.0</ele><time>2026-05-03T11:14:19.165Z</time></trkpt><trkpt lat="43.3729767" lon="11.497855"><ele>361.0</ele><time>2026-05-03T11:14:20.165Z</time></trkpt><trkpt lat="43.37317" lon="11.497945"><ele>361.0</ele><time>2026-05-03T11:14:21.165Z</time></trkpt><trkpt lat="43.3733533" lon="11.4980217"><ele>363.0</ele><time>2026-05-03T11:14:22.165Z</time></trkpt><trkpt lat="43.3735317" lon="11.4980683"><ele>365.0</ele><time>2026-05-03T11:14:23.165Z</time></trkpt><trkpt lat="43.3737083" lon="11.4980717"><ele>367.0</ele><time>2026-05-03T11:14:24.165Z</time></trkpt><trkpt lat="43.3738733" lon="11.498035"><ele>366.3333333333333</ele><time>2026-05-03T11:14:25.165Z</time></trkpt><trkpt lat="43.374035" lon="11.4979733"><ele>365.6666666666667</ele><time>2026-05-03T11:14:26.169Z</time></trkpt><trkpt lat="43.374195" lon="11.4979233"><ele>365.0</ele><time>2026-05-03T11:14:27.162Z</time></trkpt><trkpt lat="43.3743467" lon="11.4979083"><ele>367.33333333333337</ele><time>2026-05-03T11:14:28.165Z</time></trkpt><trkpt lat="43.374495" lon="11.4979233"><ele>369.6666666666667</ele><time>2026-05-03T11:14:29.163Z</time></trkpt><trkpt lat="43.37464" lon="11.4979667"><ele>372.0</ele><time>2026-05-03T11:14:30.167Z</time></trkpt><trkpt lat="43.3747917" lon="11.4980367"><ele>373.6666666666667</ele><time>2026-05-03T11:14:31.162Z</time></trkpt><trkpt lat="43.374935" lon="11.49813"><ele>375.33333333333337</ele><time>2026-05-03T11:14:32.165Z</time></trkpt><trkpt lat="43.3750767" lon="11.49823"><ele>377.0</ele><time>2026-05-03T11:14:33.166Z</time></trkpt><trkpt lat="43.3752183" lon="11.498325"><ele>377.0</ele><time>2026-05-03T11:14:34.163Z</time></trkpt><trkpt lat="43.37535" lon="11.4983883"><ele>377.0</ele><time>2026-05-03T11:14:35.164Z</time></trkpt><trkpt lat="43.37547" lon="11.4984417"><ele>377.0</ele><time>2026-05-03T11:14:36.163Z</time></trkpt><trkpt lat="43.3755717" lon="11.4984983"><ele>377.0</ele><time>2026-05-03T11:14:37.163Z</time></trkpt><trkpt lat="43.3756417" lon="11.4985717"><ele>377.6</ele><time>2026-05-03T11:14:38.163Z</time></trkpt><trkpt lat="43.3756833" lon="11.4986733"><ele>378.20000000000005</ele><time>2026-05-03T11:14:39.163Z</time></trkpt><trkpt lat="43.3757133" lon="11.49877"><ele>378.8</ele><time>2026-05-03T11:14:40.165Z</time></trkpt><trkpt lat="43.3756867" lon="11.4989017"><ele>379.4</ele><time>2026-05-03T11:14:41.166Z</time></trkpt><trkpt lat="43.37568" lon="11.4990367"><ele>380.0</ele><time>2026-05-03T11:14:42.165Z</time></trkpt><trkpt lat="43.3756833" lon="11.4991633"><ele>380.0</ele><time>2026-05-03T11:14:43.163Z</time></trkpt><trkpt lat="43.37569" lon="11.499285"><ele>380.0</ele><time>2026-05-03T11:14:44.163Z</time></trkpt><trkpt lat="43.3756717" lon="11.4995317"><ele>380.0</ele><time>2026-05-03T11:14:46.165Z</time></trkpt><trkpt lat="43.3756383" lon="11.49972"><ele>380.0</ele><time>2026-05-03T11:14:47.165Z</time></trkpt><trkpt lat="43.3756033" lon="11.4999283"><ele>380.0</ele><time>2026-05-03T11:14:48.167Z</time></trkpt><trkpt lat="43.3756183" lon="11.50009"><ele>380.0</ele><time>2026-05-03T11:14:49.165Z</time></trkpt><trkpt lat="43.3756717" lon="11.5002183"><ele>380.0</ele><time>2026-05-03T11:14:50.167Z</time></trkpt><trkpt lat="43.3757367" lon="11.5003467"><ele>380.0</ele><time>2026-05-03T11:14:51.165Z</time></trkpt><trkpt lat="43.375795" lon="11.500475"><ele>378.6</ele><time>2026-05-03T11:14:52.166Z</time></trkpt><trkpt lat="43.3758467" lon="11.500605"><ele>377.2</ele><time>2026-05-03T11:14:53.166Z</time></trkpt><trkpt lat="43.3758817" lon="11.5007367"><ele>375.79999999999995</ele><time>2026-05-03T11:14:54.166Z</time></trkpt><trkpt lat="43.3759017" lon="11.5008733"><ele>374.4</ele><time>2026-05-03T11:14:55.165Z</time></trkpt><trkpt lat="43.3759117" lon="11.5010117"><ele>373.0</ele><time>2026-05-03T11:14:56.163Z</time></trkpt><trkpt lat="43.3759217" lon="11.50116"><ele>370.75</ele><time>2026-05-03T11:14:57.164Z</time></trkpt><trkpt lat="43.3759333" lon="11.5013167"><ele>368.5</ele><time>2026-05-03T11:14:58.165Z</time></trkpt><trkpt lat="43.375955" lon="11.5014783"><ele>366.25</ele><time>2026-05-03T11:14:59.165Z</time></trkpt><trkpt lat="43.375985" lon="11.5016383"><ele>364.0</ele><time>2026-05-03T11:15:00.164Z</time></trkpt><trkpt lat="43.3760167" lon="11.5017933"><ele>364.0</ele><time>2026-05-03T11:15:01.165Z</time></trkpt><trkpt lat="43.3760383" lon="11.5019467"><ele>364.0</ele><time>2026-05-03T11:15:02.165Z</time></trkpt><trkpt lat="43.3760567" lon="11.5020983"><ele>364.0</ele><time>2026-05-03T11:15:03.165Z</time></trkpt><trkpt lat="43.37607" lon="11.5022417"><ele>364.0</ele><time>2026-05-03T11:15:04.164Z</time></trkpt><trkpt lat="43.3760833" lon="11.5023717"><ele>364.0</ele><time>2026-05-03T11:15:05.163Z</time></trkpt><trkpt lat="43.3760983" lon="11.5024867"><ele>363.16666666666663</ele><time>2026-05-03T11:15:06.164Z</time></trkpt><trkpt lat="43.3761133" lon="11.502595"><ele>362.3333333333333</ele><time>2026-05-03T11:15:07.163Z</time></trkpt><trkpt lat="43.37613" lon="11.5027"><ele>361.5</ele><time>2026-05-03T11:15:08.164Z</time></trkpt><trkpt lat="43.37614" lon="11.5028083"><ele>360.6666666666667</ele><time>2026-05-03T11:15:09.164Z</time></trkpt><trkpt lat="43.3761367" lon="11.5029233"><ele>359.83333333333337</ele><time>2026-05-03T11:15:10.161Z</time></trkpt><trkpt lat="43.37612" lon="11.5030417"><ele>359.0</ele><time>2026-05-03T11:15:11.167Z</time></trkpt><trkpt lat="43.3760967" lon="11.5031583"><ele>358.0</ele><time>2026-05-03T11:15:12.164Z</time></trkpt><trkpt lat="43.3760817" lon="11.5032717"><ele>357.0</ele><time>2026-05-03T11:15:13.164Z</time></trkpt><trkpt lat="43.3760833" lon="11.5033833"><ele>356.0</ele><time>2026-05-03T11:15:14.164Z</time></trkpt><trkpt lat="43.3761017" lon="11.50349"><ele>355.0</ele><time>2026-05-03T11:15:15.164Z</time></trkpt><trkpt lat="43.3761317" lon="11.50359"><ele>354.0</ele><time>2026-05-03T11:15:16.164Z</time></trkpt><trkpt lat="43.37617" lon="11.503675"><ele>353.0</ele><time>2026-05-03T11:15:17.165Z</time></trkpt><trkpt lat="43.3762617" lon="11.50378"><ele>353.0</ele><time>2026-05-03T11:15:19.164Z</time></trkpt><trkpt lat="43.3763917" lon="11.5038333"><ele>353.0</ele><time>2026-05-03T11:15:21.164Z</time></trkpt><trkpt lat="43.3764783" lon="11.5038333"><ele>353.0</ele><time>2026-05-03T11:15:22.164Z</time></trkpt><trkpt lat="43.37657" lon="11.5038233"><ele>353.0</ele><time>2026-05-03T11:15:23.165Z</time></trkpt><trkpt lat="43.3766583" lon="11.5038267"><ele>353.0</ele><time>2026-05-03T11:15:24.164Z</time></trkpt><trkpt lat="43.3767383" lon="11.5038417"><ele>353.0</ele><time>2026-05-03T11:15:25.164Z</time></trkpt><trkpt lat="43.3768017" lon="11.5038883"><ele>353.0</ele><time>2026-05-03T11:15:26.163Z</time></trkpt><trkpt lat="43.3768467" lon="11.5039617"><ele>353.0</ele><time>2026-05-03T11:15:27.164Z</time></trkpt><trkpt lat="43.376865" lon="11.504055"><ele>353.0</ele><time>2026-05-03T11:15:28.164Z</time></trkpt><trkpt lat="43.3768483" lon="11.50417"><ele>353.0</ele><time>2026-05-03T11:15:29.163Z</time></trkpt><trkpt lat="43.3768117" lon="11.504275"><ele>353.0</ele><time>2026-05-03T11:15:30.162Z</time></trkpt><trkpt lat="43.376735" lon="11.504365"><ele>353.0</ele><time>2026-05-03T11:15:31.162Z</time></trkpt><trkpt lat="43.3766383" lon="11.5044233"><ele>353.0</ele><time>2026-05-03T11:15:32.162Z</time></trkpt><trkpt lat="43.3765367" lon="11.5044667"><ele>353.0</ele><time>2026-05-03T11:15:33.165Z</time></trkpt><trkpt lat="43.3764067" lon="11.5045033"><ele>353.0</ele><time>2026-05-03T11:15:34.165Z</time></trkpt><trkpt lat="43.3762617" lon="11.5045467"><ele>352.25</ele><time>2026-05-03T11:15:35.165Z</time></trkpt><trkpt lat="43.3761217" lon="11.50459"><ele>351.5</ele><time>2026-05-03T11:15:36.164Z</time></trkpt><trkpt lat="43.3759717" lon="11.5046367"><ele>350.75</ele><time>2026-05-03T11:15:37.164Z</time></trkpt><trkpt lat="43.3758267" lon="11.50468"><ele>350.0</ele><time>2026-05-03T11:15:38.164Z</time></trkpt><trkpt lat="43.3756783" lon="11.5047217"><ele>350.0</ele><time>2026-05-03T11:15:39.164Z</time></trkpt><trkpt lat="43.3755467" lon="11.5047533"><ele>350.0</ele><time>2026-05-03T11:15:40.164Z</time></trkpt><trkpt lat="43.3754233" lon="11.5047717"><ele>350.0</ele><time>2026-05-03T11:15:41.164Z</time></trkpt><trkpt lat="43.3753033" lon="11.5047867"><ele>350.0</ele><time>2026-05-03T11:15:42.165Z</time></trkpt><trkpt lat="43.3751967" lon="11.5047983"><ele>350.6</ele><time>2026-05-03T11:15:43.164Z</time></trkpt><trkpt lat="43.3750933" lon="11.504815"><ele>351.2</ele><time>2026-05-03T11:15:44.164Z</time></trkpt><trkpt lat="43.3749883" lon="11.504845"><ele>351.79999999999995</ele><time>2026-05-03T11:15:45.164Z</time></trkpt><trkpt lat="43.3748817" lon="11.5048833"><ele>352.4</ele><time>2026-05-03T11:15:46.164Z</time></trkpt><trkpt lat="43.374775" lon="11.504945"><ele>353.0</ele><time>2026-05-03T11:15:47.166Z</time></trkpt><trkpt lat="43.374675" lon="11.50501"><ele>353.1666666666667</ele><time>2026-05-03T11:15:48.165Z</time></trkpt><trkpt lat="43.3745867" lon="11.5050817"><ele>353.33333333333337</ele><time>2026-05-03T11:15:49.164Z</time></trkpt><trkpt lat="43.374525" lon="11.50516"><ele>353.5</ele><time>2026-05-03T11:15:50.164Z</time></trkpt><trkpt lat="43.374485" lon="11.5052367"><ele>353.6666666666667</ele><time>2026-05-03T11:15:51.164Z</time></trkpt><trkpt lat="43.3744783" lon="11.50539"><ele>353.8333333333333</ele><time>2026-05-03T11:15:53.162Z</time></trkpt><trkpt lat="43.3745033" lon="11.505475"><ele>354.0</ele><time>2026-05-03T11:15:54.165Z</time></trkpt><trkpt lat="43.3745433" lon="11.5055633"><ele>354.0</ele><time>2026-05-03T11:15:55.166Z</time></trkpt><trkpt lat="43.3745933" lon="11.5056633"><ele>354.0</ele><time>2026-05-03T11:15:56.162Z</time></trkpt><trkpt lat="43.3746433" lon="11.5057783"><ele>354.0</ele><time>2026-05-03T11:15:57.162Z</time></trkpt><trkpt lat="43.374675" lon="11.50591"><ele>354.0</ele><time>2026-05-03T11:15:58.163Z</time></trkpt><trkpt lat="43.37469" lon="11.5060567"><ele>354.0</ele><time>2026-05-03T11:15:59.163Z</time></trkpt><trkpt lat="43.3746833" lon="11.506195"><ele>356.6</ele><time>2026-05-03T11:16:00.162Z</time></trkpt><trkpt lat="43.3746683" lon="11.506315"><ele>359.2</ele><time>2026-05-03T11:16:01.163Z</time></trkpt><trkpt lat="43.374645" lon="11.5064083"><ele>361.8</ele><time>2026-05-03T11:16:02.163Z</time></trkpt><trkpt lat="43.3745783" lon="11.506535"><ele>364.40000000000003</ele><time>2026-05-03T11:16:04.164Z</time></trkpt><trkpt lat="43.374455" lon="11.5064717"><ele>367.0</ele><time>2026-05-03T11:16:06.162Z</time></trkpt><trkpt lat="43.3744" lon="11.5063733"><ele>367.0</ele><time>2026-05-03T11:16:07.163Z</time></trkpt><trkpt lat="43.3743433" lon="11.506315"><ele>367.0</ele><time>2026-05-03T11:16:08.164Z</time></trkpt><trkpt lat="43.374225" lon="11.5063133"><ele>367.0</ele><time>2026-05-03T11:16:10.162Z</time></trkpt><trkpt lat="43.3741667" lon="11.5063567"><ele>367.0</ele><time>2026-05-03T11:16:11.165Z</time></trkpt><trkpt lat="43.374115" lon="11.5064317"><ele>367.0</ele><time>2026-05-03T11:16:12.164Z</time></trkpt><trkpt lat="43.3740633" lon="11.506545"><ele>367.0</ele><time>2026-05-03T11:16:13.162Z</time></trkpt><trkpt lat="43.3740133" lon="11.5066683"><ele>367.0</ele><time>2026-05-03T11:16:14.167Z</time></trkpt><trkpt lat="43.3739633" lon="11.506805"><ele>367.0</ele><time>2026-05-03T11:16:15.165Z</time></trkpt><trkpt lat="43.3739083" lon="11.5069467"><ele>367.0</ele><time>2026-05-03T11:16:16.162Z</time></trkpt><trkpt lat="43.3738517" lon="11.507055"><ele>367.0</ele><time>2026-05-03T11:16:17.163Z</time></trkpt><trkpt lat="43.3737917" lon="11.5071467"><ele>367.0</ele><time>2026-05-03T11:16:18.165Z</time></trkpt><trkpt lat="43.3737283" lon="11.5072267"><ele>365.8333333333333</ele><time>2026-05-03T11:16:19.163Z</time></trkpt><trkpt lat="43.3736617" lon="11.5072867"><ele>364.66666666666663</ele><time>2026-05-03T11:16:20.162Z</time></trkpt><trkpt lat="43.3736017" lon="11.507345"><ele>363.5</ele><time>2026-05-03T11:16:21.163Z</time></trkpt><trkpt lat="43.3735567" lon="11.5074083"><ele>362.3333333333333</ele><time>2026-05-03T11:16:22.165Z</time></trkpt><trkpt lat="43.373555" lon="11.5075633"><ele>361.1666666666667</ele><time>2026-05-03T11:16:24.165Z</time></trkpt><trkpt lat="43.3735817" lon="11.5076467"><ele>360.0</ele><time>2026-05-03T11:16:25.164Z</time></trkpt><trkpt lat="43.3736117" lon="11.507735"><ele>360.0</ele><time>2026-05-03T11:16:26.167Z</time></trkpt><trkpt lat="43.373685" lon="11.5078417"><ele>360.0</ele><time>2026-05-03T11:16:27.168Z</time></trkpt><trkpt lat="43.3737983" lon="11.5079583"><ele>360.0</ele><time>2026-05-03T11:16:28.165Z</time></trkpt><trkpt lat="43.373915" lon="11.508075"><ele>360.0</ele><time>2026-05-03T11:16:29.166Z</time></trkpt><trkpt lat="43.3740367" lon="11.5081817"><ele>363.25</ele><time>2026-05-03T11:16:30.165Z</time></trkpt><trkpt lat="43.374155" lon="11.5082733"><ele>366.5</ele><time>2026-05-03T11:16:31.165Z</time></trkpt><trkpt lat="43.374275" lon="11.5083533"><ele>369.75</ele><time>2026-05-03T11:16:32.165Z</time></trkpt><trkpt lat="43.3743933" lon="11.5084267"><ele>373.0</ele><time>2026-05-03T11:16:33.162Z</time></trkpt><trkpt lat="43.3745117" lon="11.5084967"><ele>373.0</ele><time>2026-05-03T11:16:34.163Z</time></trkpt><trkpt lat="43.3746233" lon="11.50856"><ele>373.0</ele><time>2026-05-03T11:16:35.164Z</time></trkpt><trkpt lat="43.3747283" lon="11.5086267"><ele>373.0</ele><time>2026-05-03T11:16:36.165Z</time></trkpt><trkpt lat="43.3748183" lon="11.5086983"><ele>373.0</ele><time>2026-05-03T11:16:37.163Z</time></trkpt><trkpt lat="43.374885" lon="11.5087883"><ele>373.0</ele><time>2026-05-03T11:16:38.163Z</time></trkpt><trkpt lat="43.37493" lon="11.5088933"><ele>374.59999999999997</ele><time>2026-05-03T11:16:39.165Z</time></trkpt><trkpt lat="43.3749683" lon="11.509015"><ele>376.2</ele><time>2026-05-03T11:16:40.163Z</time></trkpt><trkpt lat="43.3750033" lon="11.50915"><ele>377.8</ele><time>2026-05-03T11:16:41.164Z</time></trkpt><trkpt lat="43.3750417" lon="11.50929"><ele>379.4</ele><time>2026-05-03T11:16:42.164Z</time></trkpt><trkpt lat="43.3750867" lon="11.50943"><ele>381.0</ele><time>2026-05-03T11:16:43.164Z</time></trkpt><trkpt lat="43.375145" lon="11.5095617"><ele>381.0</ele><time>2026-05-03T11:16:44.163Z</time></trkpt><trkpt lat="43.37522" lon="11.5096833"><ele>381.0</ele><time>2026-05-03T11:16:45.165Z</time></trkpt><trkpt lat="43.3753117" lon="11.509795"><ele>381.0</ele><time>2026-05-03T11:16:46.164Z</time></trkpt><trkpt lat="43.375415" lon="11.5099017"><ele>381.0</ele><time>2026-05-03T11:16:47.163Z</time></trkpt><trkpt lat="43.3755317" lon="11.5100083"><ele>381.75</ele><time>2026-05-03T11:16:48.162Z</time></trkpt><trkpt lat="43.375655" lon="11.5101167"><ele>382.5</ele><time>2026-05-03T11:16:49.162Z</time></trkpt><trkpt lat="43.37578" lon="11.5102233"><ele>383.25</ele><time>2026-05-03T11:16:50.163Z</time></trkpt><trkpt lat="43.3759067" lon="11.5103333"><ele>384.0</ele><time>2026-05-03T11:16:51.163Z</time></trkpt><trkpt lat="43.3760283" lon="11.510445"><ele>384.0</ele><time>2026-05-03T11:16:52.162Z</time></trkpt><trkpt lat="43.3761383" lon="11.51056"><ele>384.0</ele><time>2026-05-03T11:16:53.164Z</time></trkpt><trkpt lat="43.3762267" lon="11.5106733"><ele>384.0</ele><time>2026-05-03T11:16:54.165Z</time></trkpt><trkpt lat="43.3762917" lon="11.510795"><ele>384.0</ele><time>2026-05-03T11:16:55.167Z</time></trkpt><trkpt lat="43.3763267" lon="11.5109217"><ele>384.0</ele><time>2026-05-03T11:16:56.165Z</time></trkpt><trkpt lat="43.3763367" lon="11.5110567"><ele>384.0</ele><time>2026-05-03T11:16:57.165Z</time></trkpt><trkpt lat="43.37633" lon="11.5112"><ele>384.0</ele><time>2026-05-03T11:16:58.165Z</time></trkpt><trkpt lat="43.376315" lon="11.5113483"><ele>384.0</ele><time>2026-05-03T11:16:59.165Z</time></trkpt><trkpt lat="43.3762983" lon="11.5114933"><ele>384.0</ele><time>2026-05-03T11:17:00.165Z</time></trkpt><trkpt lat="43.3762867" lon="11.5116467"><ele>385.0</ele><time>2026-05-03T11:17:01.167Z</time></trkpt><trkpt lat="43.3762817" lon="11.5117933"><ele>386.0</ele><time>2026-05-03T11:17:02.165Z</time></trkpt><trkpt lat="43.3763017" lon="11.5119267"><ele>387.0</ele><time>2026-05-03T11:17:03.164Z</time></trkpt><trkpt lat="43.376355" lon="11.5120333"><ele>388.0</ele><time>2026-05-03T11:17:04.164Z</time></trkpt><trkpt lat="43.376435" lon="11.51211"><ele>389.0</ele><time>2026-05-03T11:17:05.164Z</time></trkpt><trkpt lat="43.376525" lon="11.5121633"><ele>390.0</ele><time>2026-05-03T11:17:06.164Z</time></trkpt><trkpt lat="43.3766317" lon="11.5122083"><ele>391.0</ele><time>2026-05-03T11:17:07.165Z</time></trkpt><trkpt lat="43.3767467" lon="11.5122533"><ele>392.0</ele><time>2026-05-03T11:17:08.165Z</time></trkpt><trkpt lat="43.37687" lon="11.5123017"><ele>393.0</ele><time>2026-05-03T11:17:09.165Z</time></trkpt><trkpt lat="43.376995" lon="11.512355"><ele>393.0</ele><time>2026-05-03T11:17:10.164Z</time></trkpt><trkpt lat="43.3771183" lon="11.5124083"><ele>393.0</ele><time>2026-05-03T11:17:11.165Z</time></trkpt><trkpt lat="43.3772467" lon="11.5124617"><ele>393.0</ele><time>2026-05-03T11:17:12.164Z</time></trkpt><trkpt lat="43.3773783" lon="11.512515"><ele>393.0</ele><time>2026-05-03T11:17:13.165Z</time></trkpt><trkpt lat="43.3775117" lon="11.5125683"><ele>393.5</ele><time>2026-05-03T11:17:14.164Z</time></trkpt><trkpt lat="43.37765" lon="11.5126183"><ele>394.0</ele><time>2026-05-03T11:17:15.165Z</time></trkpt><trkpt lat="43.3777883" lon="11.5126667"><ele>394.5</ele><time>2026-05-03T11:17:16.165Z</time></trkpt><trkpt lat="43.3779267" lon="11.5127167"><ele>395.0</ele><time>2026-05-03T11:17:17.165Z</time></trkpt><trkpt lat="43.3780633" lon="11.5127633"><ele>394.5</ele><time>2026-05-03T11:17:18.165Z</time></trkpt><trkpt lat="43.3782" lon="11.5128083"><ele>394.0</ele><time>2026-05-03T11:17:19.165Z</time></trkpt><trkpt lat="43.378335" lon="11.5128567"><ele>393.5</ele><time>2026-05-03T11:17:20.165Z</time></trkpt><trkpt lat="43.37847" lon="11.5128933"><ele>393.0</ele><time>2026-05-03T11:17:21.165Z</time></trkpt><trkpt lat="43.3786017" lon="11.5129167"><ele>393.0</ele><time>2026-05-03T11:17:22.165Z</time></trkpt><trkpt lat="43.3787283" lon="11.5129133"><ele>393.0</ele><time>2026-05-03T11:17:23.169Z</time></trkpt><trkpt lat="43.3788467" lon="11.5128833"><ele>393.0</ele><time>2026-05-03T11:17:24.165Z</time></trkpt><trkpt lat="43.37896" lon="11.5128233"><ele>393.0</ele><time>2026-05-03T11:17:25.166Z</time></trkpt><trkpt lat="43.379075" lon="11.5127467"><ele>394.25</ele><time>2026-05-03T11:17:26.165Z</time></trkpt><trkpt lat="43.3791917" lon="11.5126583"><ele>395.5</ele><time>2026-05-03T11:17:27.165Z</time></trkpt><trkpt lat="43.3793117" lon="11.5125717"><ele>396.75</ele><time>2026-05-03T11:17:28.166Z</time></trkpt><trkpt lat="43.37943" lon="11.512485"><ele>398.0</ele><time>2026-05-03T11:17:29.166Z</time></trkpt><trkpt lat="43.37955" lon="11.5123983"><ele>398.0</ele><time>2026-05-03T11:17:30.165Z</time></trkpt><trkpt lat="43.3796733" lon="11.512305"><ele>398.0</ele><time>2026-05-03T11:17:31.166Z</time></trkpt><trkpt lat="43.379795" lon="11.5122167"><ele>398.0</ele><time>2026-05-03T11:17:32.166Z</time></trkpt><trkpt lat="43.3799167" lon="11.512135"><ele>398.0</ele><time>2026-05-03T11:17:33.165Z</time></trkpt><trkpt lat="43.38004" lon="11.5120533"><ele>399.0</ele><time>2026-05-03T11:17:34.165Z</time></trkpt><trkpt lat="43.3801567" lon="11.5119733"><ele>400.0</ele><time>2026-05-03T11:17:35.165Z</time></trkpt><trkpt lat="43.380275" lon="11.5119017"><ele>401.0</ele><time>2026-05-03T11:17:36.165Z</time></trkpt><trkpt lat="43.3803867" lon="11.511845"><ele>402.0</ele><time>2026-05-03T11:17:37.165Z</time></trkpt><trkpt lat="43.3804883" lon="11.511795"><ele>403.1666666666667</ele><time>2026-05-03T11:17:38.164Z</time></trkpt><trkpt lat="43.3805733" lon="11.5117633"><ele>404.33333333333337</ele><time>2026-05-03T11:17:39.166Z</time></trkpt><trkpt lat="43.380645" lon="11.5117417"><ele>405.5</ele><time>2026-05-03T11:17:40.165Z</time></trkpt><trkpt lat="43.3807417" lon="11.511745"><ele>406.6666666666667</ele><time>2026-05-03T11:17:42.162Z</time></trkpt><trkpt lat="43.380765" lon="11.5118333"><ele>407.83333333333337</ele><time>2026-05-03T11:17:45.162Z</time></trkpt><trkpt lat="43.38074" lon="11.511965"><ele>409.0</ele><time>2026-05-03T11:17:47.163Z</time></trkpt><trkpt lat="43.3807183" lon="11.5120667"><ele>409.0</ele><time>2026-05-03T11:17:48.162Z</time></trkpt><trkpt lat="43.3806883" lon="11.5121883"><ele>409.0</ele><time>2026-05-03T11:17:49.162Z</time></trkpt><trkpt lat="43.3806533" lon="11.51234"><ele>409.0</ele><time>2026-05-03T11:17:50.162Z</time></trkpt><trkpt lat="43.3806217" lon="11.5125067"><ele>409.0</ele><time>2026-05-03T11:17:51.162Z</time></trkpt><trkpt lat="43.3805867" lon="11.5126833"><ele>409.0</ele><time>2026-05-03T11:17:52.162Z</time></trkpt><trkpt lat="43.3805567" lon="11.512875"><ele>409.0</ele><time>2026-05-03T11:17:53.164Z</time></trkpt><trkpt lat="43.3805267" lon="11.5130783"><ele>409.0</ele><time>2026-05-03T11:17:54.164Z</time></trkpt><trkpt lat="43.3804917" lon="11.5132833"><ele>409.0</ele><time>2026-05-03T11:17:55.164Z</time></trkpt><trkpt lat="43.3804567" lon="11.5134917"><ele>407.6666666666667</ele><time>2026-05-03T11:17:56.164Z</time></trkpt><trkpt lat="43.3804267" lon="11.5136967"><ele>406.33333333333337</ele><time>2026-05-03T11:17:57.165Z</time></trkpt><trkpt lat="43.38039" lon="11.513915"><ele>405.0</ele><time>2026-05-03T11:17:58.166Z</time></trkpt><trkpt lat="43.3803517" lon="11.514125"><ele>405.0</ele><time>2026-05-03T11:17:59.165Z</time></trkpt><trkpt lat="43.3803167" lon="11.5143333"><ele>405.0</ele><time>2026-05-03T11:18:00.164Z</time></trkpt><trkpt lat="43.3802833" lon="11.5145467"><ele>405.0</ele><time>2026-05-03T11:18:01.164Z</time></trkpt><trkpt lat="43.3802533" lon="11.5147567"><ele>406.0</ele><time>2026-05-03T11:18:02.164Z</time></trkpt><trkpt lat="43.3802267" lon="11.51497"><ele>407.0</ele><time>2026-05-03T11:18:03.164Z</time></trkpt><trkpt lat="43.380195" lon="11.515175"><ele>408.0</ele><time>2026-05-03T11:18:04.162Z</time></trkpt><trkpt lat="43.3801617" lon="11.5153817"><ele>409.66666666666663</ele><time>2026-05-03T11:18:05.164Z</time></trkpt><trkpt lat="43.38013" lon="11.515585"><ele>411.3333333333333</ele><time>2026-05-03T11:18:06.162Z</time></trkpt><trkpt lat="43.3801033" lon="11.5157867"><ele>413.0</ele><time>2026-05-03T11:18:07.162Z</time></trkpt><trkpt lat="43.38008" lon="11.51599"><ele>413.0</ele><time>2026-05-03T11:18:08.162Z</time></trkpt><trkpt lat="43.3800533" lon="11.516195"><ele>413.0</ele><time>2026-05-03T11:18:09.163Z</time></trkpt><trkpt lat="43.38002" lon="11.5163933"><ele>413.0</ele><time>2026-05-03T11:18:10.163Z</time></trkpt><trkpt lat="43.3799933" lon="11.5165917"><ele>413.0</ele><time>2026-05-03T11:18:11.162Z</time></trkpt><trkpt lat="43.3799667" lon="11.5167883"><ele>413.75</ele><time>2026-05-03T11:18:12.162Z</time></trkpt><trkpt lat="43.3799417" lon="11.5169833"><ele>414.5</ele><time>2026-05-03T11:18:13.163Z</time></trkpt><trkpt lat="43.37991" lon="11.517175"><ele>415.25</ele><time>2026-05-03T11:18:14.162Z</time></trkpt><trkpt lat="43.37988" lon="11.5173633"><ele>416.0</ele><time>2026-05-03T11:18:15.162Z</time></trkpt><trkpt lat="43.3798467" lon="11.517555"><ele>416.5</ele><time>2026-05-03T11:18:16.163Z</time></trkpt><trkpt lat="43.3798183" lon="11.5177517"><ele>417.0</ele><time>2026-05-03T11:18:17.162Z</time></trkpt><trkpt lat="43.3797933" lon="11.5179433"><ele>417.5</ele><time>2026-05-03T11:18:18.162Z</time></trkpt><trkpt lat="43.3797633" lon="11.5181283"><ele>418.0</ele><time>2026-05-03T11:18:19.161Z</time></trkpt><trkpt lat="43.3797333" lon="11.5183183"><ele>418.0</ele><time>2026-05-03T11:18:20.162Z</time></trkpt><trkpt lat="43.3797017" lon="11.5185017"><ele>418.0</ele><time>2026-05-03T11:18:21.162Z</time></trkpt><trkpt lat="43.3796717" lon="11.5186867"><ele>418.0</ele><time>2026-05-03T11:18:22.162Z</time></trkpt><trkpt lat="43.3796467" lon="11.5188733"><ele>418.0</ele><time>2026-05-03T11:18:23.163Z</time></trkpt><trkpt lat="43.3796233" lon="11.519065"><ele>419.5</ele><time>2026-05-03T11:18:24.164Z</time></trkpt><trkpt lat="43.379595" lon="11.5192617"><ele>421.0</ele><time>2026-05-03T11:18:25.164Z</time></trkpt><trkpt lat="43.3795633" lon="11.519455"><ele>422.5</ele><time>2026-05-03T11:18:26.164Z</time></trkpt><trkpt lat="43.3795283" lon="11.5196483"><ele>424.0</ele><time>2026-05-03T11:18:27.162Z</time></trkpt><trkpt lat="43.3795" lon="11.51984"><ele>425.75</ele><time>2026-05-03T11:18:28.162Z</time></trkpt><trkpt lat="43.3794717" lon="11.5200333"><ele>427.5</ele><time>2026-05-03T11:18:29.162Z</time></trkpt><trkpt lat="43.3794417" lon="11.5202167"><ele>429.25</ele><time>2026-05-03T11:18:30.162Z</time></trkpt><trkpt lat="43.3794033" lon="11.5203933"><ele>431.0</ele><time>2026-05-03T11:18:31.164Z</time></trkpt><trkpt lat="43.379375" lon="11.5205667"><ele>432.25</ele><time>2026-05-03T11:18:32.162Z</time></trkpt><trkpt lat="43.3793483" lon="11.520735"><ele>433.5</ele><time>2026-05-03T11:18:33.162Z</time></trkpt><trkpt lat="43.3793183" lon="11.520895"><ele>434.75</ele><time>2026-05-03T11:18:34.162Z</time></trkpt><trkpt lat="43.3792883" lon="11.5210517"><ele>436.0</ele><time>2026-05-03T11:18:35.167Z</time></trkpt><trkpt lat="43.3792533" lon="11.5212017"><ele>436.83333333333337</ele><time>2026-05-03T11:18:36.165Z</time></trkpt><trkpt lat="43.3792283" lon="11.5213433"><ele>437.6666666666667</ele><time>2026-05-03T11:18:37.162Z</time></trkpt><trkpt lat="43.3792033" lon="11.5214683"><ele>438.5</ele><time>2026-05-03T11:18:38.162Z</time></trkpt><trkpt lat="43.3791867" lon="11.521575"><ele>439.33333333333337</ele><time>2026-05-03T11:18:39.162Z</time></trkpt><trkpt lat="43.3791683" lon="11.5216617"><ele>440.1666666666667</ele><time>2026-05-03T11:18:40.163Z</time></trkpt><trkpt lat="43.3791367" lon="11.52177"><ele>441.0</ele><time>2026-05-03T11:18:42.162Z</time></trkpt><trkpt lat="43.37917" lon="11.5218733"><ele>441.0</ele><time>2026-05-03T11:19:34.165Z</time></trkpt><trkpt lat="43.379265" lon="11.5219183"><ele>441.0</ele><time>2026-05-03T11:24:17.168Z</time></trkpt><trkpt lat="43.3793467" lon="11.5220067"><ele>441.0</ele><time>2026-05-03T11:24:19.165Z</time></trkpt><trkpt lat="43.3794033" lon="11.5220617"><ele>441.0</ele><time>2026-05-03T11:24:20.165Z</time></trkpt><trkpt lat="43.37947" lon="11.522125"><ele>441.0</ele><time>2026-05-03T11:24:21.165Z</time></trkpt><trkpt lat="43.379545" lon="11.5221933"><ele>441.0</ele><time>2026-05-03T11:24:22.167Z</time></trkpt><trkpt lat="43.3796333" lon="11.52226"><ele>441.0</ele><time>2026-05-03T11:24:23.165Z</time></trkpt><trkpt lat="43.379725" lon="11.5223083"><ele>441.0</ele><time>2026-05-03T11:24:24.166Z</time></trkpt><trkpt lat="43.3798217" lon="11.5223317"><ele>441.0</ele><time>2026-05-03T11:24:25.165Z</time></trkpt><trkpt lat="43.379915" lon="11.5223383"><ele>441.0</ele><time>2026-05-03T11:24:26.165Z</time></trkpt><trkpt lat="43.38" lon="11.5223433"><ele>441.0</ele><time>2026-05-03T11:24:27.165Z</time></trkpt><trkpt lat="43.3800833" lon="11.5223583"><ele>441.0</ele><time>2026-05-03T11:24:28.167Z</time></trkpt><trkpt lat="43.3801583" lon="11.522395"><ele>441.0</ele><time>2026-05-03T11:24:29.166Z</time></trkpt><trkpt lat="43.3802283" lon="11.5224533"><ele>441.0</ele><time>2026-05-03T11:24:30.165Z</time></trkpt><trkpt lat="43.38029" lon="11.5225283"><ele>441.0</ele><time>2026-05-03T11:24:31.165Z</time></trkpt><trkpt lat="43.3803533" lon="11.5226083"><ele>441.0</ele><time>2026-05-03T11:24:32.165Z</time></trkpt><trkpt lat="43.3804217" lon="11.5226767"><ele>441.0</ele><time>2026-05-03T11:24:33.165Z</time></trkpt><trkpt lat="43.3804967" lon="11.522725"><ele>441.5</ele><time>2026-05-03T11:24:34.166Z</time></trkpt><trkpt lat="43.3805717" lon="11.5227683"><ele>442.0</ele><time>2026-05-03T11:24:35.165Z</time></trkpt><trkpt lat="43.380645" lon="11.5228183"><ele>442.5</ele><time>2026-05-03T11:24:36.165Z</time></trkpt><trkpt lat="43.3807217" lon="11.522875"><ele>443.0</ele><time>2026-05-03T11:24:37.165Z</time></trkpt><trkpt lat="43.3808033" lon="11.5229317"><ele>443.5</ele><time>2026-05-03T11:24:38.165Z</time></trkpt><trkpt lat="43.38089" lon="11.5229817"><ele>444.0</ele><time>2026-05-03T11:24:39.166Z</time></trkpt><trkpt lat="43.380975" lon="11.5230217"><ele>444.79999999999995</ele><time>2026-05-03T11:24:40.166Z</time></trkpt><trkpt lat="43.381055" lon="11.523055"><ele>445.59999999999997</ele><time>2026-05-03T11:24:41.165Z</time></trkpt><trkpt lat="43.381125" lon="11.5230967"><ele>446.4</ele><time>2026-05-03T11:24:42.165Z</time></trkpt><trkpt lat="43.381185" lon="11.5231483"><ele>447.2</ele><time>2026-05-03T11:24:43.165Z</time></trkpt><trkpt lat="43.3812383" lon="11.5232817"><ele>448.0</ele><time>2026-05-03T11:24:45.165Z</time></trkpt><trkpt lat="43.38124" lon="11.5234517"><ele>448.00000000000006</ele><time>2026-05-03T11:24:47.166Z</time></trkpt><trkpt lat="43.381215" lon="11.5235483"><ele>448.0</ele><time>2026-05-03T11:24:48.165Z</time></trkpt><trkpt lat="43.38118" lon="11.5236433"><ele>448.0</ele><time>2026-05-03T11:24:49.165Z</time></trkpt><trkpt lat="43.3811367" lon="11.5237283"><ele>448.0</ele><time>2026-05-03T11:24:50.166Z</time></trkpt><trkpt lat="43.3810883" lon="11.5238"><ele>448.00000000000006</ele><time>2026-05-03T11:24:51.165Z</time></trkpt><trkpt lat="43.38103" lon="11.52386"><ele>448.0</ele><time>2026-05-03T11:24:52.165Z</time></trkpt><trkpt lat="43.3809583" lon="11.5239183"><ele>447.50000000000006</ele><time>2026-05-03T11:24:53.165Z</time></trkpt><trkpt lat="43.3808833" lon="11.5239717"><ele>447.0</ele><time>2026-05-03T11:24:54.165Z</time></trkpt><trkpt lat="43.380805" lon="11.5240133"><ele>446.5</ele><time>2026-05-03T11:24:55.165Z</time></trkpt><trkpt lat="43.380725" lon="11.5240383"><ele>446.0</ele><time>2026-05-03T11:24:56.165Z</time></trkpt><trkpt lat="43.3806467" lon="11.5240517"><ele>445.50000000000006</ele><time>2026-05-03T11:24:57.165Z</time></trkpt><trkpt lat="43.3805733" lon="11.5240633"><ele>445.0</ele><time>2026-05-03T11:24:58.166Z</time></trkpt><trkpt lat="43.3805067" lon="11.5240783"><ele>444.0</ele><time>2026-05-03T11:24:59.165Z</time></trkpt><trkpt lat="43.3803967" lon="11.5241233"><ele>443.0</ele><time>2026-05-03T11:25:01.165Z</time></trkpt><trkpt lat="43.3803133" lon="11.5242317"><ele>442.0</ele><time>2026-05-03T11:25:03.165Z</time></trkpt><trkpt lat="43.38027" lon="11.5243167"><ele>441.0</ele><time>2026-05-03T11:25:04.165Z</time></trkpt><trkpt lat="43.3802217" lon="11.52442"><ele>440.0</ele><time>2026-05-03T11:25:05.165Z</time></trkpt><trkpt lat="43.3801717" lon="11.5245333"><ele>439.8</ele><time>2026-05-03T11:25:06.165Z</time></trkpt><trkpt lat="43.3801183" lon="11.5246533"><ele>439.6</ele><time>2026-05-03T11:25:07.162Z</time></trkpt><trkpt lat="43.3800633" lon="11.524775"><ele>439.4</ele><time>2026-05-03T11:25:08.167Z</time></trkpt><trkpt lat="43.3800067" lon="11.5248967"><ele>439.2</ele><time>2026-05-03T11:25:09.17Z</time></trkpt><trkpt lat="43.3799517" lon="11.5250133"><ele>439.0</ele><time>2026-05-03T11:25:10.168Z</time></trkpt><trkpt lat="43.3798967" lon="11.5251267"><ele>439.00000000000006</ele><time>2026-05-03T11:25:11.165Z</time></trkpt><trkpt lat="43.379845" lon="11.525235"><ele>439.0</ele><time>2026-05-03T11:25:12.166Z</time></trkpt><trkpt lat="43.3797933" lon="11.52534"><ele>439.0</ele><time>2026-05-03T11:25:13.172Z</time></trkpt><trkpt lat="43.3797467" lon="11.52544"><ele>439.0</ele><time>2026-05-03T11:25:14.165Z</time></trkpt><trkpt lat="43.3797033" lon="11.5255367"><ele>439.00000000000006</ele><time>2026-05-03T11:25:15.166Z</time></trkpt><trkpt lat="43.379665" lon="11.5256317"><ele>439.0</ele><time>2026-05-03T11:25:16.163Z</time></trkpt><trkpt lat="43.37963" lon="11.5257217"><ele>437.6666666666667</ele><time>2026-05-03T11:25:17.163Z</time></trkpt><trkpt lat="43.3795883" lon="11.5258133"><ele>436.33333333333337</ele><time>2026-05-03T11:25:18.163Z</time></trkpt><trkpt lat="43.379545" lon="11.5259117"><ele>435.0</ele><time>2026-05-03T11:25:19.162Z</time></trkpt><trkpt lat="43.3795033" lon="11.5259967"><ele>433.66666666666663</ele><time>2026-05-03T11:25:20.163Z</time></trkpt><trkpt lat="43.3794667" lon="11.526075"><ele>432.3333333333333</ele><time>2026-05-03T11:25:21.163Z</time></trkpt><trkpt lat="43.379435" lon="11.5262067"><ele>431.0</ele><time>2026-05-03T11:25:23.163Z</time></trkpt><trkpt lat="43.3794633" lon="11.5263317"><ele>430.8333333333333</ele><time>2026-05-03T11:25:25.164Z</time></trkpt><trkpt lat="43.379505" lon="11.5264067"><ele>430.66666666666663</ele><time>2026-05-03T11:25:26.164Z</time></trkpt><trkpt lat="43.3795517" lon="11.5264867"><ele>430.5</ele><time>2026-05-03T11:25:27.162Z</time></trkpt><trkpt lat="43.3795967" lon="11.52656"><ele>430.33333333333337</ele><time>2026-05-03T11:25:28.162Z</time></trkpt><trkpt lat="43.37967" lon="11.52667"><ele>430.1666666666667</ele><time>2026-05-03T11:25:30.163Z</time></trkpt><trkpt lat="43.379695" lon="11.526755"><ele>430.0</ele><time>2026-05-03T11:25:32.163Z</time></trkpt><trkpt lat="43.379675" lon="11.5268417"><ele>429.83333333333337</ele><time>2026-05-03T11:25:34.163Z</time></trkpt><trkpt lat="43.379605" lon="11.5269483"><ele>429.6666666666667</ele><time>2026-05-03T11:25:36.163Z</time></trkpt><trkpt lat="43.379565" lon="11.5270183"><ele>429.5</ele><time>2026-05-03T11:25:37.165Z</time></trkpt><trkpt lat="43.3795217" lon="11.5270917"><ele>429.33333333333337</ele><time>2026-05-03T11:25:38.164Z</time></trkpt><trkpt lat="43.3794767" lon="11.527165"><ele>429.1666666666667</ele><time>2026-05-03T11:25:39.165Z</time></trkpt><trkpt lat="43.3794283" lon="11.5272283"><ele>429.0</ele><time>2026-05-03T11:25:40.161Z</time></trkpt><trkpt lat="43.3793233" lon="11.5272967"><ele>427.8333333333333</ele><time>2026-05-03T11:25:42.165Z</time></trkpt><trkpt lat="43.3792083" lon="11.5272667"><ele>426.66666666666663</ele><time>2026-05-03T11:25:44.164Z</time></trkpt><trkpt lat="43.37915" lon="11.5272317"><ele>425.5</ele><time>2026-05-03T11:25:45.165Z</time></trkpt><trkpt lat="43.3790833" lon="11.5271967"><ele>424.3333333333333</ele><time>2026-05-03T11:25:46.165Z</time></trkpt><trkpt lat="43.37902" lon="11.5271667"><ele>423.16666666666663</ele><time>2026-05-03T11:25:47.162Z</time></trkpt><trkpt lat="43.3789083" lon="11.5271717"><ele>422.0</ele><time>2026-05-03T11:25:49.162Z</time></trkpt><trkpt lat="43.3788317" lon="11.5272633"><ele>421.16666666666663</ele><time>2026-05-03T11:25:51.165Z</time></trkpt><trkpt lat="43.3788" lon="11.5274233"><ele>420.3333333333333</ele><time>2026-05-03T11:25:53.165Z</time></trkpt><trkpt lat="43.37878" lon="11.52751"><ele>419.5</ele><time>2026-05-03T11:25:54.164Z</time></trkpt><trkpt lat="43.3787483" lon="11.527595"><ele>418.66666666666663</ele><time>2026-05-03T11:25:55.164Z</time></trkpt><trkpt lat="43.3787117" lon="11.527675"><ele>417.8333333333333</ele><time>2026-05-03T11:25:56.165Z</time></trkpt><trkpt lat="43.3786667" lon="11.527765"><ele>417.0</ele><time>2026-05-03T11:25:57.162Z</time></trkpt><trkpt lat="43.378615" lon="11.52788"><ele>416.25</ele><time>2026-05-03T11:25:58.162Z</time></trkpt><trkpt lat="43.378555" lon="11.5280233"><ele>415.5</ele><time>2026-05-03T11:25:59.163Z</time></trkpt><trkpt lat="43.37849" lon="11.528185"><ele>414.75</ele><time>2026-05-03T11:26:00.162Z</time></trkpt><trkpt lat="43.3784233" lon="11.5283367"><ele>414.0</ele><time>2026-05-03T11:26:01.161Z</time></trkpt><trkpt lat="43.3783583" lon="11.52848"><ele>414.0</ele><time>2026-05-03T11:26:02.162Z</time></trkpt><trkpt lat="43.3782967" lon="11.5286167"><ele>414.0</ele><time>2026-05-03T11:26:03.162Z</time></trkpt><trkpt lat="43.37824" lon="11.5287433"><ele>414.0</ele><time>2026-05-03T11:26:04.162Z</time></trkpt><trkpt lat="43.3781867" lon="11.52886"><ele>414.0</ele><time>2026-05-03T11:26:05.163Z</time></trkpt><trkpt lat="43.378135" lon="11.528965"><ele>414.0</ele><time>2026-05-03T11:26:06.161Z</time></trkpt><trkpt lat="43.3780817" lon="11.5290533"><ele>414.1666666666667</ele><time>2026-05-03T11:26:07.162Z</time></trkpt><trkpt lat="43.3780317" lon="11.529115"><ele>414.33333333333337</ele><time>2026-05-03T11:26:08.164Z</time></trkpt><trkpt lat="43.37792" lon="11.52916"><ele>414.5</ele><time>2026-05-03T11:26:10.166Z</time></trkpt><trkpt lat="43.3778583" lon="11.529235"><ele>414.6666666666667</ele><time>2026-05-03T11:26:13.165Z</time></trkpt><trkpt lat="43.3778467" lon="11.52934"><ele>414.83333333333337</ele><time>2026-05-03T11:26:15.162Z</time></trkpt><trkpt lat="43.3778117" lon="11.529475"><ele>415.0</ele><time>2026-05-03T11:26:17.165Z</time></trkpt><trkpt lat="43.3777633" lon="11.5295617"><ele>415.6</ele><time>2026-05-03T11:26:19.166Z</time></trkpt><trkpt lat="43.37769" lon="11.5296467"><ele>416.2</ele><time>2026-05-03T11:26:21.165Z</time></trkpt><trkpt lat="43.3775817" lon="11.5297683"><ele>416.79999999999995</ele><time>2026-05-03T11:26:23.165Z</time></trkpt><trkpt lat="43.3775283" lon="11.5298467"><ele>417.4</ele><time>2026-05-03T11:26:24.164Z</time></trkpt><trkpt lat="43.3774867" lon="11.5299233"><ele>418.0</ele><time>2026-05-03T11:26:25.162Z</time></trkpt><trkpt lat="43.3774483" lon="11.5300033"><ele>418.0</ele><time>2026-05-03T11:26:26.165Z</time></trkpt><trkpt lat="43.3774183" lon="11.53008"><ele>418.0</ele><time>2026-05-03T11:26:27.161Z</time></trkpt><trkpt lat="43.377375" lon="11.530215"><ele>418.0</ele><time>2026-05-03T11:26:29.163Z</time></trkpt><trkpt lat="43.3773117" lon="11.5303333"><ele>418.0</ele><time>2026-05-03T11:26:31.162Z</time></trkpt><trkpt lat="43.3772267" lon="11.53043"><ele>418.0</ele><time>2026-05-03T11:26:33.162Z</time></trkpt><trkpt lat="43.3771783" lon="11.5304883"><ele>416.83333333333337</ele><time>2026-05-03T11:26:34.163Z</time></trkpt><trkpt lat="43.3771133" lon="11.530565"><ele>415.6666666666667</ele><time>2026-05-03T11:26:35.163Z</time></trkpt><trkpt lat="43.3770433" lon="11.5306417"><ele>414.5</ele><time>2026-05-03T11:26:36.163Z</time></trkpt><trkpt lat="43.37698" lon="11.5307183"><ele>413.33333333333337</ele><time>2026-05-03T11:26:37.162Z</time></trkpt><trkpt lat="43.3769183" lon="11.5308033"><ele>412.1666666666667</ele><time>2026-05-03T11:26:38.165Z</time></trkpt><trkpt lat="43.3768633" lon="11.5308867"><ele>411.0</ele><time>2026-05-03T11:26:39.165Z</time></trkpt><trkpt lat="43.37681" lon="11.5309567"><ele>411.0</ele><time>2026-05-03T11:26:40.164Z</time></trkpt><trkpt lat="43.3767583" lon="11.5310067"><ele>411.0</ele><time>2026-05-03T11:26:41.166Z</time></trkpt><trkpt lat="43.3766633" lon="11.5311167"><ele>411.0</ele><time>2026-05-03T11:26:43.162Z</time></trkpt><trkpt lat="43.3766067" lon="11.5311917"><ele>411.0</ele><time>2026-05-03T11:26:44.165Z</time></trkpt><trkpt lat="43.3765517" lon="11.5312733"><ele>411.0</ele><time>2026-05-03T11:26:45.165Z</time></trkpt><trkpt lat="43.3764933" lon="11.5313583"><ele>411.0</ele><time>2026-05-03T11:26:46.162Z</time></trkpt><trkpt lat="43.3764417" lon="11.53146"><ele>410.3333333333333</ele><time>2026-05-03T11:26:47.164Z</time></trkpt><trkpt lat="43.3763967" lon="11.5315667"><ele>409.66666666666663</ele><time>2026-05-03T11:26:48.165Z</time></trkpt><trkpt lat="43.3763617" lon="11.5316717"><ele>409.0</ele><time>2026-05-03T11:26:49.165Z</time></trkpt><trkpt lat="43.3763383" lon="11.531765"><ele>408.3333333333333</ele><time>2026-05-03T11:26:50.165Z</time></trkpt><trkpt lat="43.3763017" lon="11.5319067"><ele>407.66666666666663</ele><time>2026-05-03T11:26:52.165Z</time></trkpt><trkpt lat="43.3762467" lon="11.5319983"><ele>407.0</ele><time>2026-05-03T11:26:54.165Z</time></trkpt><trkpt lat="43.3761733" lon="11.5320767"><ele>406.49999999999994</ele><time>2026-05-03T11:26:56.163Z</time></trkpt><trkpt lat="43.376115" lon="11.53213"><ele>406.0</ele><time>2026-05-03T11:26:57.163Z</time></trkpt><trkpt lat="43.3760383" lon="11.5321867"><ele>405.5</ele><time>2026-05-03T11:26:58.163Z</time></trkpt><trkpt lat="43.37595" lon="11.5322533"><ele>405.0</ele><time>2026-05-03T11:26:59.163Z</time></trkpt><trkpt lat="43.3758733" lon="11.5323167"><ele>404.49999999999994</ele><time>2026-05-03T11:27:00.162Z</time></trkpt><trkpt lat="43.375805" lon="11.5323683"><ele>404.0</ele><time>2026-05-03T11:27:01.163Z</time></trkpt><trkpt lat="43.37574" lon="11.5324067"><ele>404.0</ele><time>2026-05-03T11:27:02.163Z</time></trkpt><trkpt lat="43.3756383" lon="11.5324733"><ele>404.0</ele><time>2026-05-03T11:27:04.164Z</time></trkpt><trkpt lat="43.3755317" lon="11.5325817"><ele>404.0</ele><time>2026-05-03T11:27:06.163Z</time></trkpt><trkpt lat="43.375445" lon="11.532615"><ele>404.0</ele><time>2026-05-03T11:27:08.165Z</time></trkpt><trkpt lat="43.3753533" lon="11.5325917"><ele>404.0</ele><time>2026-05-03T11:27:10.165Z</time></trkpt><trkpt lat="43.3752633" lon="11.53254"><ele>403.6</ele><time>2026-05-03T11:27:13.162Z</time></trkpt><trkpt lat="43.3751783" lon="11.5325233"><ele>403.2</ele><time>2026-05-03T11:27:15.164Z</time></trkpt><trkpt lat="43.3750567" lon="11.53257"><ele>402.8</ele><time>2026-05-03T11:27:17.165Z</time></trkpt><trkpt lat="43.3749883" lon="11.5325933"><ele>402.40000000000003</ele><time>2026-05-03T11:27:18.165Z</time></trkpt><trkpt lat="43.3748767" lon="11.5326133"><ele>402.0</ele><time>2026-05-03T11:27:20.165Z</time></trkpt><trkpt lat="43.37481" lon="11.53264"><ele>402.0</ele><time>2026-05-03T11:27:21.163Z</time></trkpt><trkpt lat="43.374735" lon="11.5326783"><ele>402.0</ele><time>2026-05-03T11:27:22.165Z</time></trkpt><trkpt lat="43.374665" lon="11.5327217"><ele>402.0</ele><time>2026-05-03T11:27:23.165Z</time></trkpt><trkpt lat="43.3746117" lon="11.53277"><ele>402.0</ele><time>2026-05-03T11:27:24.166Z</time></trkpt><trkpt lat="43.3745583" lon="11.5328217"><ele>402.0</ele><time>2026-05-03T11:27:25.165Z</time></trkpt><trkpt lat="43.374505" lon="11.5328767"><ele>402.0</ele><time>2026-05-03T11:27:26.163Z</time></trkpt><trkpt lat="43.3744517" lon="11.5329367"><ele>402.0</ele><time>2026-05-03T11:27:27.162Z</time></trkpt><trkpt lat="43.3743833" lon="11.533015"><ele>400.8333333333333</ele><time>2026-05-03T11:27:28.162Z</time></trkpt><trkpt lat="43.374315" lon="11.5330933"><ele>399.66666666666663</ele><time>2026-05-03T11:27:29.164Z</time></trkpt><trkpt lat="43.37425" lon="11.53317"><ele>398.5</ele><time>2026-05-03T11:27:30.163Z</time></trkpt><trkpt lat="43.3741867" lon="11.5332483"><ele>397.3333333333333</ele><time>2026-05-03T11:27:31.162Z</time></trkpt><trkpt lat="43.3741167" lon="11.533305"><ele>396.16666666666663</ele><time>2026-05-03T11:27:32.163Z</time></trkpt><trkpt lat="43.3740417" lon="11.53336"><ele>395.0</ele><time>2026-05-03T11:27:33.165Z</time></trkpt><trkpt lat="43.373965" lon="11.5334"><ele>394.99999999999994</ele><time>2026-05-03T11:27:34.162Z</time></trkpt><trkpt lat="43.3739" lon="11.5334417"><ele>395.0</ele><time>2026-05-03T11:27:35.165Z</time></trkpt><trkpt lat="43.3738417" lon="11.5334883"><ele>395.0</ele><time>2026-05-03T11:27:36.163Z</time></trkpt><trkpt lat="43.3737867" lon="11.533545"><ele>395.0</ele><time>2026-05-03T11:27:37.165Z</time></trkpt><trkpt lat="43.3737333" lon="11.5335967"><ele>394.99999999999994</ele><time>2026-05-03T11:27:38.165Z</time></trkpt><trkpt lat="43.3736333" lon="11.533685"><ele>395.0</ele><time>2026-05-03T11:27:40.165Z</time></trkpt><trkpt lat="43.3735233" lon="11.5337717"><ele>392.49999999999994</ele><time>2026-05-03T11:27:42.161Z</time></trkpt><trkpt lat="43.373455" lon="11.5338117"><ele>390.0</ele><time>2026-05-03T11:27:43.165Z</time></trkpt><trkpt lat="43.3733967" lon="11.533845"><ele>387.5</ele><time>2026-05-03T11:27:44.161Z</time></trkpt><trkpt lat="43.3733283" lon="11.5339133"><ele>385.0</ele><time>2026-05-03T11:27:46.164Z</time></trkpt><trkpt lat="43.3732533" lon="11.533935"><ele>382.5</ele><time>2026-05-03T11:27:48.164Z</time></trkpt><trkpt lat="43.3731567" lon="11.5339617"><ele>380.0</ele><time>2026-05-03T11:27:50.164Z</time></trkpt><trkpt lat="43.373075" lon="11.5340317"><ele>380.0</ele><time>2026-05-03T11:27:52.164Z</time></trkpt><trkpt lat="43.3730433" lon="11.5341283"><ele>380.0</ele><time>2026-05-03T11:27:54.164Z</time></trkpt><trkpt lat="43.37303" lon="11.5342417"><ele>380.0</ele><time>2026-05-03T11:27:57.162Z</time></trkpt><trkpt lat="43.3730783" lon="11.5343567"><ele>380.0</ele><time>2026-05-03T11:28:00.162Z</time></trkpt><trkpt lat="43.3731583" lon="11.5344917"><ele>380.0</ele><time>2026-05-03T11:28:02.161Z</time></trkpt><trkpt lat="43.3732233" lon="11.5345833"><ele>378.5</ele><time>2026-05-03T11:28:03.165Z</time></trkpt><trkpt lat="43.3732867" lon="11.53468"><ele>377.0</ele><time>2026-05-03T11:28:04.164Z</time></trkpt><trkpt lat="43.37334" lon="11.5347633"><ele>375.5</ele><time>2026-05-03T11:28:05.166Z</time></trkpt><trkpt lat="43.3733917" lon="11.5348417"><ele>374.0</ele><time>2026-05-03T11:28:06.163Z</time></trkpt><trkpt lat="43.3734467" lon="11.5349233"><ele>372.5</ele><time>2026-05-03T11:28:07.162Z</time></trkpt><trkpt lat="43.373495" lon="11.5350083"><ele>371.0</ele><time>2026-05-03T11:28:08.164Z</time></trkpt><trkpt lat="43.373545" lon="11.5350917"><ele>371.0</ele><time>2026-05-03T11:28:09.165Z</time></trkpt><trkpt lat="43.3735967" lon="11.535175"><ele>371.0</ele><time>2026-05-03T11:28:10.162Z</time></trkpt><trkpt lat="43.3736517" lon="11.535265"><ele>371.0</ele><time>2026-05-03T11:28:11.162Z</time></trkpt><trkpt lat="43.373705" lon="11.5353483"><ele>371.0</ele><time>2026-05-03T11:28:12.165Z</time></trkpt><trkpt lat="43.3737583" lon="11.53543"><ele>371.0</ele><time>2026-05-03T11:28:13.166Z</time></trkpt><trkpt lat="43.3738083" lon="11.53551"><ele>371.0</ele><time>2026-05-03T11:28:14.163Z</time></trkpt><trkpt lat="43.3738483" lon="11.5355933"><ele>369.5</ele><time>2026-05-03T11:28:15.164Z</time></trkpt><trkpt lat="43.37391" lon="11.5357233"><ele>368.0</ele><time>2026-05-03T11:28:17.165Z</time></trkpt><trkpt lat="43.3739733" lon="11.5358133"><ele>366.5</ele><time>2026-05-03T11:28:19.164Z</time></trkpt><trkpt lat="43.374045" lon="11.5358867"><ele>365.0</ele><time>2026-05-03T11:28:21.164Z</time></trkpt><trkpt lat="43.3741083" lon="11.5359367"><ele>363.5</ele><time>2026-05-03T11:28:23.165Z</time></trkpt><trkpt lat="43.374165" lon="11.536005"><ele>362.0</ele><time>2026-05-03T11:28:25.164Z</time></trkpt><trkpt lat="43.374215" lon="11.536095"><ele>362.0</ele><time>2026-05-03T11:28:27.162Z</time></trkpt><trkpt lat="43.3743017" lon="11.5361833"><ele>362.0</ele><time>2026-05-03T11:28:29.165Z</time></trkpt><trkpt lat="43.3743683" lon="11.5362517"><ele>362.0</ele><time>2026-05-03T11:28:30.165Z</time></trkpt><trkpt lat="43.37443" lon="11.536325"><ele>362.0</ele><time>2026-05-03T11:28:31.165Z</time></trkpt><trkpt lat="43.3744833" lon="11.536395"><ele>362.0</ele><time>2026-05-03T11:28:32.164Z</time></trkpt><trkpt lat="43.374565" lon="11.536515"><ele>359.5</ele><time>2026-05-03T11:28:34.164Z</time></trkpt><trkpt lat="43.37461" lon="11.5365817"><ele>357.0</ele><time>2026-05-03T11:28:35.165Z</time></trkpt><trkpt lat="43.3746533" lon="11.5366517"><ele>354.5</ele><time>2026-05-03T11:28:36.164Z</time></trkpt><trkpt lat="43.3747" lon="11.5367133"><ele>352.0</ele><time>2026-05-03T11:28:37.165Z</time></trkpt><trkpt lat="43.3748" lon="11.536805"><ele>349.5</ele><time>2026-05-03T11:28:39.162Z</time></trkpt><trkpt lat="43.3748983" lon="11.5368933"><ele>347.0</ele><time>2026-05-03T11:28:41.165Z</time></trkpt><trkpt lat="43.3749883" lon="11.536975"><ele>344.6</ele><time>2026-05-03T11:28:43.162Z</time></trkpt><trkpt lat="43.375095" lon="11.5370667"><ele>342.20000000000005</ele><time>2026-05-03T11:28:45.162Z</time></trkpt><trkpt lat="43.375155" lon="11.5371217"><ele>339.8</ele><time>2026-05-03T11:28:46.162Z</time></trkpt><trkpt lat="43.3752483" lon="11.537205"><ele>337.4</ele><time>2026-05-03T11:28:48.165Z</time></trkpt><trkpt lat="43.3753383" lon="11.537265"><ele>335.0</ele><time>2026-05-03T11:28:51.165Z</time></trkpt><trkpt lat="43.3754567" lon="11.5373083"><ele>335.83333333333337</ele><time>2026-05-03T11:28:53.165Z</time></trkpt><trkpt lat="43.3755533" lon="11.5373583"><ele>336.6666666666667</ele><time>2026-05-03T11:28:55.161Z</time></trkpt><trkpt lat="43.3755817" lon="11.537455"><ele>337.5</ele><time>2026-05-03T11:28:57.162Z</time></trkpt><trkpt lat="43.3755967" lon="11.537545"><ele>338.3333333333333</ele><time>2026-05-03T11:28:58.162Z</time></trkpt><trkpt lat="43.3756233" lon="11.5376517"><ele>339.16666666666663</ele><time>2026-05-03T11:28:59.166Z</time></trkpt><trkpt lat="43.3756633" lon="11.5377633"><ele>340.0</ele><time>2026-05-03T11:29:00.165Z</time></trkpt><trkpt lat="43.3757067" lon="11.5378517"><ele>337.8333333333333</ele><time>2026-05-03T11:29:01.164Z</time></trkpt><trkpt lat="43.375755" lon="11.5379317"><ele>335.66666666666663</ele><time>2026-05-03T11:29:02.165Z</time></trkpt><trkpt lat="43.3758183" lon="11.538005"><ele>333.5</ele><time>2026-05-03T11:29:03.161Z</time></trkpt><trkpt lat="43.37588" lon="11.5380767"><ele>331.3333333333333</ele><time>2026-05-03T11:29:04.165Z</time></trkpt><trkpt lat="43.37594" lon="11.538155"><ele>329.1666666666667</ele><time>2026-05-03T11:29:05.165Z</time></trkpt><trkpt lat="43.3760033" lon="11.53823"><ele>327.0</ele><time>2026-05-03T11:29:06.165Z</time></trkpt><trkpt lat="43.3760633" lon="11.538295"><ele>327.0</ele><time>2026-05-03T11:29:07.164Z</time></trkpt><trkpt lat="43.376125" lon="11.5383483"><ele>327.0</ele><time>2026-05-03T11:29:08.162Z</time></trkpt><trkpt lat="43.3761833" lon="11.5383867"><ele>327.0</ele><time>2026-05-03T11:29:09.162Z</time></trkpt><trkpt lat="43.3762733" lon="11.5384383"><ele>327.0</ele><time>2026-05-03T11:29:11.162Z</time></trkpt><trkpt lat="43.376355" lon="11.53847"><ele>327.0</ele><time>2026-05-03T11:29:13.162Z</time></trkpt><trkpt lat="43.3764817" lon="11.538515"><ele>326.5</ele><time>2026-05-03T11:29:15.163Z</time></trkpt><trkpt lat="43.37661" lon="11.5385233"><ele>326.0</ele><time>2026-05-03T11:29:17.162Z</time></trkpt><trkpt lat="43.3766917" lon="11.538515"><ele>325.5</ele><time>2026-05-03T11:29:18.162Z</time></trkpt><trkpt lat="43.3767683" lon="11.5384983"><ele>325.0</ele><time>2026-05-03T11:29:19.162Z</time></trkpt><trkpt lat="43.3768333" lon="11.5384867"><ele>324.5</ele><time>2026-05-03T11:29:20.165Z</time></trkpt><trkpt lat="43.3768967" lon="11.5384783"><ele>324.0</ele><time>2026-05-03T11:29:21.165Z</time></trkpt><trkpt lat="43.3769967" lon="11.5384667"><ele>324.0</ele><time>2026-05-03T11:29:23.166Z</time></trkpt><trkpt lat="43.3770933" lon="11.53847"><ele>324.0</ele><time>2026-05-03T11:29:25.165Z</time></trkpt><trkpt lat="43.37716" lon="11.538535"><ele>324.0</ele><time>2026-05-03T11:29:27.165Z</time></trkpt><trkpt lat="43.3772133" lon="11.538615"><ele>324.0</ele><time>2026-05-03T11:29:29.166Z</time></trkpt><trkpt lat="43.3773" lon="11.5387117"><ele>324.0</ele><time>2026-05-03T11:29:31.166Z</time></trkpt><trkpt lat="43.3774233" lon="11.53878"><ele>319.2</ele><time>2026-05-03T11:29:33.165Z</time></trkpt><trkpt lat="43.3774817" lon="11.5388217"><ele>314.4</ele><time>2026-05-03T11:29:34.165Z</time></trkpt><trkpt lat="43.377545" lon="11.5389333"><ele>309.6</ele><time>2026-05-03T11:29:36.165Z</time></trkpt><trkpt lat="43.3775383" lon="11.539065"><ele>304.8</ele><time>2026-05-03T11:29:38.17Z</time></trkpt><trkpt lat="43.37749" lon="11.539205"><ele>300.0</ele><time>2026-05-03T11:29:40.162Z</time></trkpt><trkpt lat="43.3774367" lon="11.53934"><ele>300.0</ele><time>2026-05-03T11:29:42.162Z</time></trkpt><trkpt lat="43.377375" lon="11.53944"><ele>300.0</ele><time>2026-05-03T11:29:44.163Z</time></trkpt><trkpt lat="43.3773167" lon="11.5395267"><ele>300.0</ele><time>2026-05-03T11:29:46.162Z</time></trkpt><trkpt lat="43.3772967" lon="11.5396183"><ele>300.0</ele><time>2026-05-03T11:29:48.162Z</time></trkpt><trkpt lat="43.3773517" lon="11.5396867"><ele>300.0</ele><time>2026-05-03T11:29:51.165Z</time></trkpt><trkpt lat="43.3774133" lon="11.53975"><ele>300.0</ele><time>2026-05-03T11:29:54.165Z</time></trkpt><trkpt lat="43.3773833" lon="11.5398483"><ele>298.0</ele><time>2026-05-03T11:29:58.165Z</time></trkpt><trkpt lat="43.377315" lon="11.5398917"><ele>296.0</ele><time>2026-05-03T11:30:02.165Z</time></trkpt><trkpt lat="43.3772183" lon="11.539985"><ele>294.0</ele><time>2026-05-03T11:31:18.165Z</time></trkpt><trkpt lat="43.3771633" lon="11.54003"><ele>292.0</ele><time>2026-05-03T11:31:19.165Z</time></trkpt><trkpt lat="43.37706" lon="11.5401133"><ele>290.0</ele><time>2026-05-03T11:31:21.164Z</time></trkpt><trkpt lat="43.3770017" lon="11.5401583"><ele>288.0</ele><time>2026-05-03T11:31:22.164Z</time></trkpt><trkpt lat="43.3769467" lon="11.5402017"><ele>288.0</ele><time>2026-05-03T11:31:23.165Z</time></trkpt><trkpt lat="43.3768383" lon="11.540305"><ele>288.0</ele><time>2026-05-03T11:31:25.164Z</time></trkpt><trkpt lat="43.3767717" lon="11.540365"><ele>288.0</ele><time>2026-05-03T11:31:26.166Z</time></trkpt><trkpt lat="43.3766967" lon="11.540425"><ele>288.0</ele><time>2026-05-03T11:31:27.165Z</time></trkpt><trkpt lat="43.3766183" lon="11.5404883"><ele>288.0</ele><time>2026-05-03T11:31:28.165Z</time></trkpt><trkpt lat="43.37654" lon="11.5405517"><ele>287.4</ele><time>2026-05-03T11:31:29.165Z</time></trkpt><trkpt lat="43.3764633" lon="11.5406117"><ele>286.8</ele><time>2026-05-03T11:31:30.164Z</time></trkpt><trkpt lat="43.3763833" lon="11.5406767"><ele>286.2</ele><time>2026-05-03T11:31:31.164Z</time></trkpt><trkpt lat="43.3763017" lon="11.5407433"><ele>285.6</ele><time>2026-05-03T11:31:32.165Z</time></trkpt><trkpt lat="43.3762183" lon="11.5408117"><ele>285.0</ele><time>2026-05-03T11:31:33.165Z</time></trkpt><trkpt lat="43.3761367" lon="11.540875"><ele>285.0</ele><time>2026-05-03T11:31:34.165Z</time></trkpt><trkpt lat="43.3760633" lon="11.540935"><ele>285.0</ele><time>2026-05-03T11:31:35.165Z</time></trkpt><trkpt lat="43.3760017" lon="11.5409867"><ele>285.0</ele><time>2026-05-03T11:31:36.165Z</time></trkpt><trkpt lat="43.3758967" lon="11.541075"><ele>285.0</ele><time>2026-05-03T11:31:38.164Z</time></trkpt><trkpt lat="43.3757767" lon="11.541165"><ele>285.0</ele><time>2026-05-03T11:31:40.165Z</time></trkpt><trkpt lat="43.3757083" lon="11.5412183"><ele>285.0</ele><time>2026-05-03T11:31:41.167Z</time></trkpt><trkpt lat="43.3756367" lon="11.541275"><ele>285.0</ele><time>2026-05-03T11:31:42.165Z</time></trkpt><trkpt lat="43.3755667" lon="11.5413267"><ele>285.0</ele><time>2026-05-03T11:31:43.165Z</time></trkpt><trkpt lat="43.3754967" lon="11.5413767"><ele>285.0</ele><time>2026-05-03T11:31:44.164Z</time></trkpt><trkpt lat="43.3754267" lon="11.5414217"><ele>285.0</ele><time>2026-05-03T11:31:45.165Z</time></trkpt><trkpt lat="43.3753" lon="11.541465"><ele>285.0</ele><time>2026-05-03T11:31:47.165Z</time></trkpt><trkpt lat="43.37522" lon="11.5414767"><ele>285.0</ele><time>2026-05-03T11:31:48.162Z</time></trkpt><trkpt lat="43.3751433" lon="11.5414767"><ele>285.0</ele><time>2026-05-03T11:31:49.165Z</time></trkpt><trkpt lat="43.375045" lon="11.5414733"><ele>285.0</ele><time>2026-05-03T11:31:51.165Z</time></trkpt><trkpt lat="43.3749867" lon="11.5415133"><ele>285.0</ele><time>2026-05-03T11:31:53.163Z</time></trkpt><trkpt lat="43.3749433" lon="11.5416"><ele>285.0</ele><time>2026-05-03T11:31:55.166Z</time></trkpt><trkpt lat="43.3749217" lon="11.541715"><ele>285.0</ele><time>2026-05-03T11:31:57.162Z</time></trkpt><trkpt lat="43.37488" lon="11.5417983"><ele>285.0</ele><time>2026-05-03T11:31:59.163Z</time></trkpt><trkpt lat="43.3748283" lon="11.5418733"><ele>285.0</ele><time>2026-05-03T11:32:01.163Z</time></trkpt><trkpt lat="43.3747583" lon="11.541945"><ele>285.0</ele><time>2026-05-03T11:32:03.165Z</time></trkpt><trkpt lat="43.3746917" lon="11.5420167"><ele>285.0</ele><time>2026-05-03T11:32:05.165Z</time></trkpt><trkpt lat="43.3746217" lon="11.5420467"><ele>285.0</ele><time>2026-05-03T11:32:22.165Z</time></trkpt><trkpt lat="43.3745133" lon="11.5420667"><ele>285.0</ele><time>2026-05-03T11:32:24.165Z</time></trkpt><trkpt lat="43.37444" lon="11.54209"><ele>284.6</ele><time>2026-05-03T11:32:25.165Z</time></trkpt><trkpt lat="43.37435" lon="11.5421167"><ele>284.2</ele><time>2026-05-03T11:32:26.162Z</time></trkpt><trkpt lat="43.3742433" lon="11.542145"><ele>283.8</ele><time>2026-05-03T11:32:27.163Z</time></trkpt><trkpt lat="43.3741283" lon="11.5421717"><ele>283.4</ele><time>2026-05-03T11:32:28.164Z</time></trkpt><trkpt lat="43.3740067" lon="11.5422067"><ele>283.0</ele><time>2026-05-03T11:32:29.163Z</time></trkpt><trkpt lat="43.3738767" lon="11.5422433"><ele>283.5</ele><time>2026-05-03T11:32:30.164Z</time></trkpt><trkpt lat="43.3737533" lon="11.5422833"><ele>284.0</ele><time>2026-05-03T11:32:31.162Z</time></trkpt><trkpt lat="43.3736417" lon="11.54232"><ele>284.5</ele><time>2026-05-03T11:32:32.164Z</time></trkpt><trkpt lat="43.373525" lon="11.5423583"><ele>285.0</ele><time>2026-05-03T11:32:33.165Z</time></trkpt><trkpt lat="43.3733967" lon="11.5424033"><ele>285.0</ele><time>2026-05-03T11:32:34.165Z</time></trkpt><trkpt lat="43.3732667" lon="11.54245"><ele>285.0</ele><time>2026-05-03T11:32:35.165Z</time></trkpt><trkpt lat="43.3731483" lon="11.54249"><ele>285.0</ele><time>2026-05-03T11:32:36.165Z</time></trkpt><trkpt lat="43.373045" lon="11.54253"><ele>285.0</ele><time>2026-05-03T11:32:37.165Z</time></trkpt><trkpt lat="43.37295" lon="11.542575"><ele>285.0</ele><time>2026-05-03T11:32:38.162Z</time></trkpt><trkpt lat="43.37286" lon="11.5426283"><ele>285.0</ele><time>2026-05-03T11:32:39.167Z</time></trkpt><trkpt lat="43.3727783" lon="11.5426917"><ele>285.0</ele><time>2026-05-03T11:32:40.163Z</time></trkpt><trkpt lat="43.372695" lon="11.542775"><ele>285.0</ele><time>2026-05-03T11:32:41.165Z</time></trkpt><trkpt lat="43.3726117" lon="11.5428717"><ele>285.0</ele><time>2026-05-03T11:32:42.164Z</time></trkpt><trkpt lat="43.3725267" lon="11.5429867"><ele>285.0</ele><time>2026-05-03T11:32:43.165Z</time></trkpt><trkpt lat="43.3724467" lon="11.543115"><ele>285.0</ele><time>2026-05-03T11:32:44.165Z</time></trkpt><trkpt lat="43.3723783" lon="11.54325"><ele>285.0</ele><time>2026-05-03T11:32:45.166Z</time></trkpt><trkpt lat="43.3723267" lon="11.5434033"><ele>285.0</ele><time>2026-05-03T11:32:46.165Z</time></trkpt><trkpt lat="43.37229" lon="11.5435783"><ele>284.0</ele><time>2026-05-03T11:32:47.166Z</time></trkpt><trkpt lat="43.3722583" lon="11.5437517"><ele>283.0</ele><time>2026-05-03T11:32:48.165Z</time></trkpt><trkpt lat="43.372235" lon="11.5439267"><ele>282.0</ele><time>2026-05-03T11:32:49.162Z</time></trkpt><trkpt lat="43.3722183" lon="11.5440983"><ele>281.0</ele><time>2026-05-03T11:32:50.165Z</time></trkpt><trkpt lat="43.3722133" lon="11.5442733"><ele>281.0</ele><time>2026-05-03T11:32:51.165Z</time></trkpt><trkpt lat="43.3722267" lon="11.5444417"><ele>281.0</ele><time>2026-05-03T11:32:52.165Z</time></trkpt><trkpt lat="43.3722617" lon="11.544605"><ele>281.0</ele><time>2026-05-03T11:32:53.164Z</time></trkpt><trkpt lat="43.3723133" lon="11.54476"><ele>281.0</ele><time>2026-05-03T11:32:54.164Z</time></trkpt><trkpt lat="43.3723683" lon="11.5449017"><ele>281.0</ele><time>2026-05-03T11:32:55.164Z</time></trkpt><trkpt lat="43.3724167" lon="11.545035"><ele>281.0</ele><time>2026-05-03T11:32:56.167Z</time></trkpt><trkpt lat="43.3724683" lon="11.54516"><ele>281.0</ele><time>2026-05-03T11:32:57.161Z</time></trkpt><trkpt lat="43.3725233" lon="11.545275"><ele>281.0</ele><time>2026-05-03T11:32:58.165Z</time></trkpt><trkpt lat="43.3725883" lon="11.5453917"><ele>281.0</ele><time>2026-05-03T11:32:59.162Z</time></trkpt><trkpt lat="43.37266" lon="11.54552"><ele>280.75</ele><time>2026-05-03T11:33:00.161Z</time></trkpt><trkpt lat="43.3727333" lon="11.5456567"><ele>280.5</ele><time>2026-05-03T11:33:01.161Z</time></trkpt><trkpt lat="43.3728083" lon="11.5458"><ele>280.25</ele><time>2026-05-03T11:33:02.161Z</time></trkpt><trkpt lat="43.372885" lon="11.54595"><ele>280.0</ele><time>2026-05-03T11:33:03.164Z</time></trkpt><trkpt lat="43.3729617" lon="11.5461017"><ele>280.75</ele><time>2026-05-03T11:33:04.164Z</time></trkpt><trkpt lat="43.373035" lon="11.546245"><ele>281.5</ele><time>2026-05-03T11:33:05.166Z</time></trkpt><trkpt lat="43.3731133" lon="11.5463683"><ele>282.25</ele><time>2026-05-03T11:33:06.164Z</time></trkpt><trkpt lat="43.3732" lon="11.5464733"><ele>283.0</ele><time>2026-05-03T11:33:07.164Z</time></trkpt><trkpt lat="43.3732983" lon="11.5465633"><ele>283.0</ele><time>2026-05-03T11:33:08.161Z</time></trkpt><trkpt lat="43.3734083" lon="11.5466367"><ele>283.0</ele><time>2026-05-03T11:33:09.164Z</time></trkpt><trkpt lat="43.37353" lon="11.5467067"><ele>283.0</ele><time>2026-05-03T11:33:10.164Z</time></trkpt><trkpt lat="43.3736617" lon="11.5467683"><ele>283.0</ele><time>2026-05-03T11:33:11.165Z</time></trkpt><trkpt lat="43.3737967" lon="11.5468383"><ele>283.66666666666663</ele><time>2026-05-03T11:33:12.161Z</time></trkpt><trkpt lat="43.3739317" lon="11.546925"><ele>284.3333333333333</ele><time>2026-05-03T11:33:13.165Z</time></trkpt><trkpt lat="43.3740717" lon="11.54702"><ele>285.0</ele><time>2026-05-03T11:33:14.164Z</time></trkpt><trkpt lat="43.3742133" lon="11.5471083"><ele>285.0</ele><time>2026-05-03T11:33:15.164Z</time></trkpt><trkpt lat="43.374345" lon="11.5471983"><ele>285.0</ele><time>2026-05-03T11:33:16.167Z</time></trkpt><trkpt lat="43.3744767" lon="11.5472883"><ele>285.0</ele><time>2026-05-03T11:33:17.164Z</time></trkpt><trkpt lat="43.3746083" lon="11.5473767"><ele>285.0</ele><time>2026-05-03T11:33:18.161Z</time></trkpt><trkpt lat="43.3747467" lon="11.5474633"><ele>286.75</ele><time>2026-05-03T11:33:19.164Z</time></trkpt><trkpt lat="43.374875" lon="11.547545"><ele>288.5</ele><time>2026-05-03T11:33:20.164Z</time></trkpt><trkpt lat="43.37499" lon="11.5476217"><ele>290.25</ele><time>2026-05-03T11:33:21.165Z</time></trkpt><trkpt lat="43.37509" lon="11.5476917"><ele>292.0</ele><time>2026-05-03T11:33:22.164Z</time></trkpt><trkpt lat="43.3751767" lon="11.54775"><ele>292.0</ele><time>2026-05-03T11:33:23.165Z</time></trkpt><trkpt lat="43.37525" lon="11.5478033"><ele>292.0</ele><time>2026-05-03T11:33:24.165Z</time></trkpt><trkpt lat="43.3753067" lon="11.5478533"><ele>292.0</ele><time>2026-05-03T11:33:25.253Z</time></trkpt><trkpt lat="43.3753633" lon="11.54795"><ele>292.0</ele><time>2026-05-03T11:33:27.162Z</time></trkpt><trkpt lat="43.3753233" lon="11.54803"><ele>292.0</ele><time>2026-05-03T11:33:29.162Z</time></trkpt><trkpt lat="43.375185" lon="11.5480833"><ele>292.8333333333333</ele><time>2026-05-03T11:33:31.163Z</time></trkpt><trkpt lat="43.3750883" lon="11.5481"><ele>293.66666666666663</ele><time>2026-05-03T11:33:32.163Z</time></trkpt><trkpt lat="43.3749933" lon="11.5481217"><ele>294.5</ele><time>2026-05-03T11:33:33.165Z</time></trkpt><trkpt lat="43.3749117" lon="11.54814"><ele>295.3333333333333</ele><time>2026-05-03T11:33:34.164Z</time></trkpt><trkpt lat="43.3748367" lon="11.5481717"><ele>296.1666666666667</ele><time>2026-05-03T11:33:35.166Z</time></trkpt><trkpt lat="43.3747733" lon="11.548225"><ele>297.0</ele><time>2026-05-03T11:33:36.162Z</time></trkpt><trkpt lat="43.3747233" lon="11.5482883"><ele>295.8333333333333</ele><time>2026-05-03T11:33:37.161Z</time></trkpt><trkpt lat="43.3746817" lon="11.548375"><ele>294.6666666666667</ele><time>2026-05-03T11:33:38.165Z</time></trkpt><trkpt lat="43.3746483" lon="11.5484733"><ele>293.5</ele><time>2026-05-03T11:33:39.164Z</time></trkpt><trkpt lat="43.374625" lon="11.5485783"><ele>292.33333333333337</ele><time>2026-05-03T11:33:40.165Z</time></trkpt><trkpt lat="43.3746033" lon="11.5486833"><ele>291.1666666666667</ele><time>2026-05-03T11:33:41.164Z</time></trkpt><trkpt lat="43.3745817" lon="11.5487883"><ele>290.0</ele><time>2026-05-03T11:33:42.164Z</time></trkpt><trkpt lat="43.374555" lon="11.5488983"><ele>290.0</ele><time>2026-05-03T11:33:43.165Z</time></trkpt><trkpt lat="43.3745267" lon="11.5490117"><ele>290.0</ele><time>2026-05-03T11:33:44.165Z</time></trkpt><trkpt lat="43.3744967" lon="11.5491233"><ele>290.0</ele><time>2026-05-03T11:33:45.164Z</time></trkpt><trkpt lat="43.374465" lon="11.5492317"><ele>290.0</ele><time>2026-05-03T11:33:46.164Z</time></trkpt><trkpt lat="43.3744267" lon="11.5493383"><ele>290.0</ele><time>2026-05-03T11:33:47.165Z</time></trkpt><trkpt lat="43.374385" lon="11.5494417"><ele>290.0</ele><time>2026-05-03T11:33:48.165Z</time></trkpt><trkpt lat="43.3743417" lon="11.5495417"><ele>290.33333333333337</ele><time>2026-05-03T11:33:49.165Z</time></trkpt><trkpt lat="43.3742983" lon="11.5496383"><ele>290.6666666666667</ele><time>2026-05-03T11:33:50.165Z</time></trkpt><trkpt lat="43.374255" lon="11.549735"><ele>291.0</ele><time>2026-05-03T11:33:51.164Z</time></trkpt><trkpt lat="43.3742067" lon="11.549835"><ele>291.3333333333333</ele><time>2026-05-03T11:33:52.164Z</time></trkpt><trkpt lat="43.3741567" lon="11.5499367"><ele>291.66666666666663</ele><time>2026-05-03T11:33:53.165Z</time></trkpt><trkpt lat="43.3741067" lon="11.5500433"><ele>292.0</ele><time>2026-05-03T11:33:54.164Z</time></trkpt><trkpt lat="43.37406" lon="11.5501533"><ele>292.0</ele><time>2026-05-03T11:33:55.165Z</time></trkpt><trkpt lat="43.3740217" lon="11.5502567"><ele>292.0</ele><time>2026-05-03T11:33:56.165Z</time></trkpt><trkpt lat="43.3739883" lon="11.550355"><ele>292.0</ele><time>2026-05-03T11:33:57.165Z</time></trkpt><trkpt lat="43.3739667" lon="11.5504483"><ele>292.0</ele><time>2026-05-03T11:33:58.164Z</time></trkpt><trkpt lat="43.3739717" lon="11.5505867"><ele>292.0</ele><time>2026-05-03T11:34:00.164Z</time></trkpt><trkpt lat="43.37401" lon="11.55067"><ele>292.0</ele><time>2026-05-03T11:34:02.165Z</time></trkpt><trkpt lat="43.3740933" lon="11.5507217"><ele>292.66666666666663</ele><time>2026-05-03T11:34:04.165Z</time></trkpt><trkpt lat="43.374155" lon="11.5507483"><ele>293.3333333333333</ele><time>2026-05-03T11:34:05.165Z</time></trkpt><trkpt lat="43.3742283" lon="11.5507783"><ele>294.0</ele><time>2026-05-03T11:34:06.165Z</time></trkpt><trkpt lat="43.3743033" lon="11.550815"><ele>294.6666666666667</ele><time>2026-05-03T11:34:07.164Z</time></trkpt><trkpt lat="43.374375" lon="11.5508517"><ele>295.33333333333337</ele><time>2026-05-03T11:34:08.164Z</time></trkpt><trkpt lat="43.3744367" lon="11.5508867"><ele>296.0</ele><time>2026-05-03T11:34:09.165Z</time></trkpt><trkpt lat="43.3745" lon="11.55097"><ele>296.0</ele><time>2026-05-03T11:34:11.165Z</time></trkpt><trkpt lat="43.3745" lon="11.5510933"><ele>296.0</ele><time>2026-05-03T11:34:13.164Z</time></trkpt><trkpt lat="43.3744567" lon="11.551275"><ele>296.0</ele><time>2026-05-03T11:34:15.166Z</time></trkpt><trkpt lat="43.3744217" lon="11.55138"><ele>296.0</ele><time>2026-05-03T11:34:16.165Z</time></trkpt><trkpt lat="43.3743783" lon="11.551495"><ele>296.0</ele><time>2026-05-03T11:34:17.165Z</time></trkpt><trkpt lat="43.3743367" lon="11.5516033"><ele>296.8</ele><time>2026-05-03T11:34:18.169Z</time></trkpt><trkpt lat="43.3742983" lon="11.55171"><ele>297.6</ele><time>2026-05-03T11:34:19.165Z</time></trkpt><trkpt lat="43.3742667" lon="11.5518233"><ele>298.4</ele><time>2026-05-03T11:34:20.164Z</time></trkpt><trkpt lat="43.37424" lon="11.5519517"><ele>299.2</ele><time>2026-05-03T11:34:21.165Z</time></trkpt><trkpt lat="43.3742233" lon="11.5520967"><ele>300.0</ele><time>2026-05-03T11:34:22.164Z</time></trkpt><trkpt lat="43.3742117" lon="11.5522383"><ele>300.0</ele><time>2026-05-03T11:34:23.167Z</time></trkpt><trkpt lat="43.3742017" lon="11.5523717"><ele>300.0</ele><time>2026-05-03T11:34:24.167Z</time></trkpt><trkpt lat="43.3741883" lon="11.5525017"><ele>300.0</ele><time>2026-05-03T11:34:25.163Z</time></trkpt><trkpt lat="43.37418" lon="11.5526283"><ele>300.0</ele><time>2026-05-03T11:34:26.164Z</time></trkpt><trkpt lat="43.3741733" lon="11.5527483"><ele>300.0</ele><time>2026-05-03T11:34:27.164Z</time></trkpt><trkpt lat="43.37415" lon="11.552865"><ele>299.6</ele><time>2026-05-03T11:34:28.165Z</time></trkpt><trkpt lat="43.3741067" lon="11.5529767"><ele>299.2</ele><time>2026-05-03T11:34:29.165Z</time></trkpt><trkpt lat="43.3740433" lon="11.5530833"><ele>298.8</ele><time>2026-05-03T11:34:30.164Z</time></trkpt><trkpt lat="43.3739733" lon="11.5531867"><ele>298.4</ele><time>2026-05-03T11:34:31.164Z</time></trkpt><trkpt lat="43.3739" lon="11.553285"><ele>298.0</ele><time>2026-05-03T11:34:32.164Z</time></trkpt><trkpt lat="43.3738333" lon="11.553385"><ele>298.0</ele><time>2026-05-03T11:34:33.169Z</time></trkpt><trkpt lat="43.373775" lon="11.5534917"><ele>298.0</ele><time>2026-05-03T11:34:34.165Z</time></trkpt><trkpt lat="43.37372" lon="11.553615"><ele>298.0</ele><time>2026-05-03T11:34:35.165Z</time></trkpt><trkpt lat="43.3736683" lon="11.5537467"><ele>298.0</ele><time>2026-05-03T11:34:36.165Z</time></trkpt><trkpt lat="43.3736267" lon="11.55389"><ele>298.0</ele><time>2026-05-03T11:34:37.165Z</time></trkpt><trkpt lat="43.373595" lon="11.5540383"><ele>298.6</ele><time>2026-05-03T11:34:38.164Z</time></trkpt><trkpt lat="43.373575" lon="11.5541783"><ele>299.20000000000005</ele><time>2026-05-03T11:34:39.165Z</time></trkpt><trkpt lat="43.3735633" lon="11.5543133"><ele>299.8</ele><time>2026-05-03T11:34:40.164Z</time></trkpt><trkpt lat="43.3735633" lon="11.5544533"><ele>300.40000000000003</ele><time>2026-05-03T11:34:41.165Z</time></trkpt><trkpt lat="43.373575" lon="11.55459"><ele>301.0</ele><time>2026-05-03T11:34:42.165Z</time></trkpt><trkpt lat="43.3736017" lon="11.5547317"><ele>301.25</ele><time>2026-05-03T11:34:43.165Z</time></trkpt><trkpt lat="43.3736317" lon="11.554885"><ele>301.5</ele><time>2026-05-03T11:34:44.165Z</time></trkpt><trkpt lat="43.373665" lon="11.5550533"><ele>301.75</ele><time>2026-05-03T11:34:45.165Z</time></trkpt><trkpt lat="43.3736967" lon="11.5552233"><ele>302.0</ele><time>2026-05-03T11:34:46.165Z</time></trkpt><trkpt lat="43.3737283" lon="11.5554033"><ele>300.75</ele><time>2026-05-03T11:34:47.165Z</time></trkpt><trkpt lat="43.373755" lon="11.5555817"><ele>299.5</ele><time>2026-05-03T11:34:48.165Z</time></trkpt><trkpt lat="43.373785" lon="11.55576"><ele>298.25</ele><time>2026-05-03T11:34:49.165Z</time></trkpt><trkpt lat="43.3738217" lon="11.5559383"><ele>297.0</ele><time>2026-05-03T11:34:50.165Z</time></trkpt><trkpt lat="43.373855" lon="11.556115"><ele>298.75</ele><time>2026-05-03T11:34:51.165Z</time></trkpt><trkpt lat="43.3738867" lon="11.5562833"><ele>300.5</ele><time>2026-05-03T11:34:52.165Z</time></trkpt><trkpt lat="43.37392" lon="11.5564483"><ele>302.25</ele><time>2026-05-03T11:34:53.165Z</time></trkpt><trkpt lat="43.3739517" lon="11.5566167"><ele>304.0</ele><time>2026-05-03T11:34:54.165Z</time></trkpt><trkpt lat="43.3739867" lon="11.5567833"><ele>304.0</ele><time>2026-05-03T11:34:55.165Z</time></trkpt><trkpt lat="43.37402" lon="11.556935"><ele>304.0</ele><time>2026-05-03T11:34:56.164Z</time></trkpt><trkpt lat="43.3740483" lon="11.5570783"><ele>304.0</ele><time>2026-05-03T11:34:57.166Z</time></trkpt><trkpt lat="43.3740733" lon="11.55722"><ele>304.0</ele><time>2026-05-03T11:34:58.169Z</time></trkpt><trkpt lat="43.3740967" lon="11.5573633"><ele>304.0</ele><time>2026-05-03T11:34:59.165Z</time></trkpt><trkpt lat="43.3741117" lon="11.5574883"><ele>303.8</ele><time>2026-05-03T11:35:00.166Z</time></trkpt><trkpt lat="43.3741267" lon="11.5576033"><ele>303.59999999999997</ele><time>2026-05-03T11:35:01.165Z</time></trkpt><trkpt lat="43.3741517" lon="11.5577233"><ele>303.4</ele><time>2026-05-03T11:35:02.165Z</time></trkpt><trkpt lat="43.3741817" lon="11.5578483"><ele>303.2</ele><time>2026-05-03T11:35:03.162Z</time></trkpt><trkpt lat="43.3742133" lon="11.5579833"><ele>303.0</ele><time>2026-05-03T11:35:04.166Z</time></trkpt><trkpt lat="43.3742517" lon="11.5581267"><ele>302.25</ele><time>2026-05-03T11:35:05.165Z</time></trkpt><trkpt lat="43.37429" lon="11.5582833"><ele>301.5</ele><time>2026-05-03T11:35:06.165Z</time></trkpt><trkpt lat="43.37433" lon="11.558455"><ele>300.75</ele><time>2026-05-03T11:35:07.165Z</time></trkpt><trkpt lat="43.3743583" lon="11.5586333"><ele>300.0</ele><time>2026-05-03T11:35:08.165Z</time></trkpt><trkpt lat="43.3743883" lon="11.5588167"><ele>299.25</ele><time>2026-05-03T11:35:09.165Z</time></trkpt><trkpt lat="43.37441" lon="11.5589967"><ele>298.5</ele><time>2026-05-03T11:35:10.165Z</time></trkpt><trkpt lat="43.3744317" lon="11.559165"><ele>297.75</ele><time>2026-05-03T11:35:11.165Z</time></trkpt><trkpt lat="43.37446" lon="11.5593283"><ele>297.0</ele><time>2026-05-03T11:35:12.165Z</time></trkpt><trkpt lat="43.3744983" lon="11.5594967"><ele>295.5</ele><time>2026-05-03T11:35:13.165Z</time></trkpt><trkpt lat="43.3745417" lon="11.5596767"><ele>294.0</ele><time>2026-05-03T11:35:14.162Z</time></trkpt><trkpt lat="43.3745933" lon="11.55985"><ele>292.5</ele><time>2026-05-03T11:35:15.162Z</time></trkpt><trkpt lat="43.3746417" lon="11.560015"><ele>291.0</ele><time>2026-05-03T11:35:16.165Z</time></trkpt><trkpt lat="43.3746783" lon="11.560175"><ele>292.5</ele><time>2026-05-03T11:35:17.165Z</time></trkpt><trkpt lat="43.3746967" lon="11.5603367"><ele>294.0</ele><time>2026-05-03T11:35:18.165Z</time></trkpt><trkpt lat="43.374715" lon="11.56049"><ele>295.5</ele><time>2026-05-03T11:35:19.165Z</time></trkpt><trkpt lat="43.37474" lon="11.5606433"><ele>297.0</ele><time>2026-05-03T11:35:20.162Z</time></trkpt><trkpt lat="43.3747817" lon="11.5607867"><ele>297.0</ele><time>2026-05-03T11:35:21.163Z</time></trkpt><trkpt lat="43.37484" lon="11.5609317"><ele>297.0</ele><time>2026-05-03T11:35:22.165Z</time></trkpt><trkpt lat="43.3749033" lon="11.5610817"><ele>297.0</ele><time>2026-05-03T11:35:23.165Z</time></trkpt><trkpt lat="43.37496" lon="11.56123"><ele>297.0</ele><time>2026-05-03T11:35:24.165Z</time></trkpt><trkpt lat="43.3750117" lon="11.5613817"><ele>295.25</ele><time>2026-05-03T11:35:25.162Z</time></trkpt><trkpt lat="43.3750483" lon="11.5615333"><ele>293.5</ele><time>2026-05-03T11:35:26.165Z</time></trkpt><trkpt lat="43.3750833" lon="11.561695"><ele>291.75</ele><time>2026-05-03T11:35:27.161Z</time></trkpt><trkpt lat="43.37512" lon="11.5618483"><ele>290.0</ele><time>2026-05-03T11:35:28.163Z</time></trkpt><trkpt lat="43.3751567" lon="11.561995"><ele>288.4</ele><time>2026-05-03T11:35:29.163Z</time></trkpt><trkpt lat="43.375185" lon="11.56213"><ele>286.8</ele><time>2026-05-03T11:35:30.162Z</time></trkpt><trkpt lat="43.37521" lon="11.5622483"><ele>285.2</ele><time>2026-05-03T11:35:31.163Z</time></trkpt><trkpt lat="43.375255" lon="11.5623567"><ele>283.6</ele><time>2026-05-03T11:35:32.163Z</time></trkpt><trkpt lat="43.3753133" lon="11.5624567"><ele>282.0</ele><time>2026-05-03T11:35:33.166Z</time></trkpt><trkpt lat="43.37538" lon="11.562565"><ele>282.0</ele><time>2026-05-03T11:35:34.164Z</time></trkpt><trkpt lat="43.3754367" lon="11.5626867"><ele>282.0</ele><time>2026-05-03T11:35:35.164Z</time></trkpt><trkpt lat="43.375485" lon="11.562815"><ele>282.0</ele><time>2026-05-03T11:35:36.164Z</time></trkpt><trkpt lat="43.3755133" lon="11.562925"><ele>282.0</ele><time>2026-05-03T11:35:37.164Z</time></trkpt><trkpt lat="43.37553" lon="11.5630217"><ele>282.0</ele><time>2026-05-03T11:35:38.161Z</time></trkpt><trkpt lat="43.3755133" lon="11.56317"><ele>281.0</ele><time>2026-05-03T11:35:40.162Z</time></trkpt><trkpt lat="43.3754767" lon="11.5632417"><ele>280.0</ele><time>2026-05-03T11:35:41.162Z</time></trkpt><trkpt lat="43.3754167" lon="11.5633183"><ele>279.0</ele><time>2026-05-03T11:35:42.166Z</time></trkpt><trkpt lat="43.37534" lon="11.563405"><ele>278.0</ele><time>2026-05-03T11:35:43.165Z</time></trkpt><trkpt lat="43.3752567" lon="11.563475"><ele>277.0</ele><time>2026-05-03T11:35:44.165Z</time></trkpt><trkpt lat="43.3751517" lon="11.5635467"><ele>277.0</ele><time>2026-05-03T11:35:45.164Z</time></trkpt><trkpt lat="43.375055" lon="11.56362"><ele>277.0</ele><time>2026-05-03T11:35:46.164Z</time></trkpt><trkpt lat="43.37498" lon="11.563685"><ele>277.0</ele><time>2026-05-03T11:35:47.166Z</time></trkpt><trkpt lat="43.3749333" lon="11.5637467"><ele>277.0</ele><time>2026-05-03T11:35:48.162Z</time></trkpt><trkpt lat="43.3748883" lon="11.56388"><ele>277.0</ele><time>2026-05-03T11:35:50.162Z</time></trkpt><trkpt lat="43.3748867" lon="11.5639817"><ele>277.0</ele><time>2026-05-03T11:35:51.169Z</time></trkpt><trkpt lat="43.37491" lon="11.5641167"><ele>276.0</ele><time>2026-05-03T11:35:52.164Z</time></trkpt><trkpt lat="43.3749383" lon="11.5642567"><ele>275.0</ele><time>2026-05-03T11:35:53.164Z</time></trkpt><trkpt lat="43.374965" lon="11.564375"><ele>274.0</ele><time>2026-05-03T11:35:54.163Z</time></trkpt><trkpt lat="43.3749867" lon="11.5644733"><ele>273.0</ele><time>2026-05-03T11:35:55.164Z</time></trkpt><trkpt lat="43.3750067" lon="11.5645817"><ele>272.0</ele><time>2026-05-03T11:35:57.162Z</time></trkpt><trkpt lat="43.3750583" lon="11.5646717"><ele>271.0</ele><time>2026-05-03T11:35:59.163Z</time></trkpt><trkpt lat="43.375115" lon="11.5647167"><ele>270.5</ele><time>2026-05-03T11:36:00.162Z</time></trkpt><trkpt lat="43.37519" lon="11.5647667"><ele>270.0</ele><time>2026-05-03T11:36:01.164Z</time></trkpt><trkpt lat="43.3752867" lon="11.564825"><ele>269.5</ele><time>2026-05-03T11:36:02.164Z</time></trkpt><trkpt lat="43.3754167" lon="11.5649083"><ele>269.0</ele><time>2026-05-03T11:36:03.164Z</time></trkpt><trkpt lat="43.3755483" lon="11.5650117"><ele>270.0</ele><time>2026-05-03T11:36:04.165Z</time></trkpt><trkpt lat="43.3756967" lon="11.5651317"><ele>271.0</ele><time>2026-05-03T11:36:05.164Z</time></trkpt><trkpt lat="43.3758617" lon="11.565265"><ele>272.0</ele><time>2026-05-03T11:36:06.164Z</time></trkpt><trkpt lat="43.37604" lon="11.5654033"><ele>272.0</ele><time>2026-05-03T11:36:07.164Z</time></trkpt><trkpt lat="43.3762283" lon="11.5655517"><ele>272.0</ele><time>2026-05-03T11:36:08.164Z</time></trkpt><trkpt lat="43.3764233" lon="11.5657017"><ele>272.0</ele><time>2026-05-03T11:36:09.164Z</time></trkpt><trkpt lat="43.376615" lon="11.56585"><ele>271.6666666666667</ele><time>2026-05-03T11:36:10.164Z</time></trkpt><trkpt lat="43.3768117" lon="11.5659817"><ele>271.3333333333333</ele><time>2026-05-03T11:36:11.165Z</time></trkpt><trkpt lat="43.3770217" lon="11.5660733"><ele>271.0</ele><time>2026-05-03T11:36:12.165Z</time></trkpt><trkpt lat="43.3772517" lon="11.56612"><ele>271.0</ele><time>2026-05-03T11:36:13.165Z</time></trkpt><trkpt lat="43.3777517" lon="11.5660717"><ele>271.0</ele><time>2026-05-03T11:36:15.165Z</time></trkpt><trkpt lat="43.378005" lon="11.5659933"><ele>271.0</ele><time>2026-05-03T11:36:16.165Z</time></trkpt><trkpt lat="43.3782567" lon="11.5659083"><ele>271.0</ele><time>2026-05-03T11:36:17.165Z</time></trkpt><trkpt lat="43.3785067" lon="11.5658217"><ele>271.0</ele><time>2026-05-03T11:36:18.165Z</time></trkpt><trkpt lat="43.3787533" lon="11.5657417"><ele>269.5</ele><time>2026-05-03T11:36:19.165Z</time></trkpt><trkpt lat="43.379" lon="11.5656567"><ele>268.0</ele><time>2026-05-03T11:36:20.165Z</time></trkpt><trkpt lat="43.379255" lon="11.56557"><ele>268.0</ele><time>2026-05-03T11:36:21.164Z</time></trkpt><trkpt lat="43.3795133" lon="11.5654833"><ele>268.0</ele><time>2026-05-03T11:36:22.165Z</time></trkpt><trkpt lat="43.3797783" lon="11.5653917"><ele>268.0</ele><time>2026-05-03T11:36:23.165Z</time></trkpt><trkpt lat="43.3800433" lon="11.5653033"><ele>268.0</ele><time>2026-05-03T11:36:24.165Z</time></trkpt><trkpt lat="43.3803117" lon="11.565215"><ele>267.0</ele><time>2026-05-03T11:36:25.164Z</time></trkpt><trkpt lat="43.3805733" lon="11.56513"><ele>266.0</ele><time>2026-05-03T11:36:26.254Z</time></trkpt><trkpt lat="43.3808217" lon="11.5650467"><ele>266.0</ele><time>2026-05-03T11:36:27.161Z</time></trkpt><trkpt lat="43.3810583" lon="11.564965"><ele>266.0</ele><time>2026-05-03T11:36:28.165Z</time></trkpt><trkpt lat="43.3812767" lon="11.5648933"><ele>265.6666666666667</ele><time>2026-05-03T11:36:29.165Z</time></trkpt><trkpt lat="43.38148" lon="11.5648333"><ele>265.3333333333333</ele><time>2026-05-03T11:36:30.164Z</time></trkpt><trkpt lat="43.38168" lon="11.5648017"><ele>265.0</ele><time>2026-05-03T11:36:31.17Z</time></trkpt><trkpt lat="43.3818783" lon="11.5648217"><ele>265.0</ele><time>2026-05-03T11:36:32.165Z</time></trkpt><trkpt lat="43.3820717" lon="11.5648917"><ele>265.0</ele><time>2026-05-03T11:36:33.166Z</time></trkpt><trkpt lat="43.3822667" lon="11.5650183"><ele>265.0</ele><time>2026-05-03T11:36:34.165Z</time></trkpt><trkpt lat="43.3824583" lon="11.5652083"><ele>264.0</ele><time>2026-05-03T11:36:35.165Z</time></trkpt><trkpt lat="43.3826417" lon="11.5654383"><ele>263.0</ele><time>2026-05-03T11:36:36.164Z</time></trkpt><trkpt lat="43.382825" lon="11.56568"><ele>263.0</ele><time>2026-05-03T11:36:37.165Z</time></trkpt><trkpt lat="43.3830067" lon="11.5659233"><ele>263.0</ele><time>2026-05-03T11:36:38.165Z</time></trkpt><trkpt lat="43.3831867" lon="11.566165"><ele>263.5</ele><time>2026-05-03T11:36:39.164Z</time></trkpt><trkpt lat="43.3833617" lon="11.5664033"><ele>264.0</ele><time>2026-05-03T11:36:40.164Z</time></trkpt><trkpt lat="43.3835367" lon="11.56664"><ele>264.0</ele><time>2026-05-03T11:36:41.165Z</time></trkpt><trkpt lat="43.383705" lon="11.5668717"><ele>264.0</ele><time>2026-05-03T11:36:42.165Z</time></trkpt><trkpt lat="43.3838667" lon="11.5670933"><ele>264.3333333333333</ele><time>2026-05-03T11:36:43.165Z</time></trkpt><trkpt lat="43.3840167" lon="11.5673017"><ele>264.66666666666663</ele><time>2026-05-03T11:36:44.165Z</time></trkpt><trkpt lat="43.38416" lon="11.5674983"><ele>265.0</ele><time>2026-05-03T11:36:45.164Z</time></trkpt><trkpt lat="43.3843" lon="11.5676833"><ele>265.0</ele><time>2026-05-03T11:36:46.165Z</time></trkpt><trkpt lat="43.38444" lon="11.5678683"><ele>265.0</ele><time>2026-05-03T11:36:47.166Z</time></trkpt><trkpt lat="43.384575" lon="11.5680467"><ele>265.0</ele><time>2026-05-03T11:36:48.165Z</time></trkpt><trkpt lat="43.3847067" lon="11.56823"><ele>266.3333333333333</ele><time>2026-05-03T11:36:49.165Z</time></trkpt><trkpt lat="43.3848417" lon="11.5684183"><ele>267.6666666666667</ele><time>2026-05-03T11:36:50.164Z</time></trkpt><trkpt lat="43.3849783" lon="11.568605"><ele>269.0</ele><time>2026-05-03T11:36:51.164Z</time></trkpt><trkpt lat="43.3851183" lon="11.5687917"><ele>269.0</ele><time>2026-05-03T11:36:52.164Z</time></trkpt><trkpt lat="43.3852567" lon="11.56898"><ele>269.0</ele><time>2026-05-03T11:36:53.162Z</time></trkpt><trkpt lat="43.3853967" lon="11.56917"><ele>269.0</ele><time>2026-05-03T11:36:54.164Z</time></trkpt><trkpt lat="43.3855383" lon="11.5693633"><ele>268.0</ele><time>2026-05-03T11:36:55.164Z</time></trkpt><trkpt lat="43.3856767" lon="11.5695583"><ele>267.0</ele><time>2026-05-03T11:36:56.166Z</time></trkpt><trkpt lat="43.385815" lon="11.5697467"><ele>266.0</ele><time>2026-05-03T11:36:57.165Z</time></trkpt><trkpt lat="43.3859517" lon="11.56993"><ele>266.0</ele><time>2026-05-03T11:36:58.165Z</time></trkpt><trkpt lat="43.38609" lon="11.5701183"><ele>266.0</ele><time>2026-05-03T11:36:59.165Z</time></trkpt><trkpt lat="43.386225" lon="11.570305"><ele>266.0</ele><time>2026-05-03T11:37:00.165Z</time></trkpt><trkpt lat="43.386355" lon="11.5704833"><ele>264.6666666666667</ele><time>2026-05-03T11:37:01.164Z</time></trkpt><trkpt lat="43.3864833" lon="11.5706583"><ele>263.3333333333333</ele><time>2026-05-03T11:37:02.164Z</time></trkpt><trkpt lat="43.386615" lon="11.570835"><ele>262.0</ele><time>2026-05-03T11:37:03.165Z</time></trkpt><trkpt lat="43.3867483" lon="11.5710133"><ele>261.66666666666663</ele><time>2026-05-03T11:37:04.164Z</time></trkpt><trkpt lat="43.3868817" lon="11.5711933"><ele>261.3333333333333</ele><time>2026-05-03T11:37:05.166Z</time></trkpt><trkpt lat="43.387015" lon="11.571375"><ele>261.0</ele><time>2026-05-03T11:37:06.165Z</time></trkpt><trkpt lat="43.38715" lon="11.5715633"><ele>261.0</ele><time>2026-05-03T11:37:07.164Z</time></trkpt><trkpt lat="43.3872883" lon="11.5717517"><ele>261.0</ele><time>2026-05-03T11:37:08.165Z</time></trkpt><trkpt lat="43.38743" lon="11.5719417"><ele>261.0</ele><time>2026-05-03T11:37:09.165Z</time></trkpt><trkpt lat="43.3875733" lon="11.5721333"><ele>261.0</ele><time>2026-05-03T11:37:10.165Z</time></trkpt><trkpt lat="43.3877117" lon="11.5723217"><ele>261.0</ele><time>2026-05-03T11:37:11.166Z</time></trkpt><trkpt lat="43.387845" lon="11.5725033"><ele>261.0</ele><time>2026-05-03T11:37:12.165Z</time></trkpt><trkpt lat="43.3879767" lon="11.57268"><ele>260.3333333333333</ele><time>2026-05-03T11:37:13.165Z</time></trkpt><trkpt lat="43.3881067" lon="11.5728583"><ele>259.66666666666663</ele><time>2026-05-03T11:37:14.165Z</time></trkpt><trkpt lat="43.3882383" lon="11.5730383"><ele>259.0</ele><time>2026-05-03T11:37:15.165Z</time></trkpt><trkpt lat="43.38837" lon="11.5732217"><ele>259.0</ele><time>2026-05-03T11:37:16.165Z</time></trkpt><trkpt lat="43.3885033" lon="11.573405"><ele>259.0</ele><time>2026-05-03T11:37:17.165Z</time></trkpt><trkpt lat="43.38864" lon="11.5735867"><ele>259.0</ele><time>2026-05-03T11:37:18.164Z</time></trkpt><trkpt lat="43.388775" lon="11.5737667"><ele>259.0</ele><time>2026-05-03T11:37:19.165Z</time></trkpt><trkpt lat="43.3889067" lon="11.573945"><ele>259.0</ele><time>2026-05-03T11:37:20.162Z</time></trkpt><trkpt lat="43.389035" lon="11.5741167"><ele>259.0</ele><time>2026-05-03T11:37:21.168Z</time></trkpt><trkpt lat="43.3891567" lon="11.574285"><ele>259.0</ele><time>2026-05-03T11:37:22.165Z</time></trkpt><trkpt lat="43.389275" lon="11.5744517"><ele>259.0</ele><time>2026-05-03T11:37:23.165Z</time></trkpt><trkpt lat="43.389395" lon="11.5746167"><ele>259.0</ele><time>2026-05-03T11:37:24.165Z</time></trkpt><trkpt lat="43.3895167" lon="11.5747817"><ele>259.3333333333333</ele><time>2026-05-03T11:37:25.165Z</time></trkpt><trkpt lat="43.3896367" lon="11.5749483"><ele>259.6666666666667</ele><time>2026-05-03T11:37:26.165Z</time></trkpt><trkpt lat="43.38976" lon="11.5751167"><ele>260.0</ele><time>2026-05-03T11:37:27.162Z</time></trkpt><trkpt lat="43.38988" lon="11.5752867"><ele>260.33333333333337</ele><time>2026-05-03T11:37:28.166Z</time></trkpt><trkpt lat="43.3900017" lon="11.575455"><ele>260.6666666666667</ele><time>2026-05-03T11:37:29.163Z</time></trkpt><trkpt lat="43.3901183" lon="11.5756217"><ele>261.0</ele><time>2026-05-03T11:37:30.163Z</time></trkpt><trkpt lat="43.3902267" lon="11.575785"><ele>261.0</ele><time>2026-05-03T11:37:31.162Z</time></trkpt><trkpt lat="43.3903283" lon="11.57595"><ele>261.0</ele><time>2026-05-03T11:37:32.163Z</time></trkpt><trkpt lat="43.39042" lon="11.57612"><ele>261.0</ele><time>2026-05-03T11:37:33.162Z</time></trkpt><trkpt lat="43.3905017" lon="11.576295"><ele>260.75</ele><time>2026-05-03T11:37:34.165Z</time></trkpt><trkpt lat="43.3905767" lon="11.576475"><ele>260.5</ele><time>2026-05-03T11:37:35.164Z</time></trkpt><trkpt lat="43.390645" lon="11.57665"><ele>260.25</ele><time>2026-05-03T11:37:36.162Z</time></trkpt><trkpt lat="43.3907117" lon="11.576825"><ele>260.0</ele><time>2026-05-03T11:37:37.162Z</time></trkpt><trkpt lat="43.3907783" lon="11.5769983"><ele>260.25</ele><time>2026-05-03T11:37:38.162Z</time></trkpt><trkpt lat="43.3908483" lon="11.5771767"><ele>260.5</ele><time>2026-05-03T11:37:39.162Z</time></trkpt><trkpt lat="43.3909167" lon="11.577355"><ele>260.75</ele><time>2026-05-03T11:37:40.162Z</time></trkpt><trkpt lat="43.3909867" lon="11.577535"><ele>261.0</ele><time>2026-05-03T11:37:41.163Z</time></trkpt><trkpt lat="43.3910533" lon="11.5777133"><ele>260.5</ele><time>2026-05-03T11:37:42.162Z</time></trkpt><trkpt lat="43.3911217" lon="11.57789"><ele>260.0</ele><time>2026-05-03T11:37:43.162Z</time></trkpt><trkpt lat="43.39119" lon="11.5780683"><ele>259.5</ele><time>2026-05-03T11:37:44.162Z</time></trkpt><trkpt lat="43.39126" lon="11.5782467"><ele>259.0</ele><time>2026-05-03T11:37:45.162Z</time></trkpt><trkpt lat="43.3913267" lon="11.5784233"><ele>259.75</ele><time>2026-05-03T11:37:46.163Z</time></trkpt><trkpt lat="43.39139" lon="11.5785967"><ele>260.5</ele><time>2026-05-03T11:37:47.163Z</time></trkpt><trkpt lat="43.3914517" lon="11.578765"><ele>261.25</ele><time>2026-05-03T11:37:48.162Z</time></trkpt><trkpt lat="43.3915117" lon="11.5789333"><ele>262.0</ele><time>2026-05-03T11:37:49.162Z</time></trkpt><trkpt lat="43.39157" lon="11.579105"><ele>262.0</ele><time>2026-05-03T11:37:50.163Z</time></trkpt><trkpt lat="43.3916233" lon="11.5792833"><ele>262.0</ele><time>2026-05-03T11:37:51.162Z</time></trkpt><trkpt lat="43.3916717" lon="11.5794683"><ele>262.0</ele><time>2026-05-03T11:37:52.163Z</time></trkpt><trkpt lat="43.39172" lon="11.579655"><ele>262.0</ele><time>2026-05-03T11:37:53.163Z</time></trkpt><trkpt lat="43.3917667" lon="11.579845"><ele>261.0</ele><time>2026-05-03T11:37:54.165Z</time></trkpt><trkpt lat="43.3918167" lon="11.5800333"><ele>260.0</ele><time>2026-05-03T11:37:55.165Z</time></trkpt><trkpt lat="43.3918667" lon="11.5802217"><ele>259.0</ele><time>2026-05-03T11:37:56.165Z</time></trkpt><trkpt lat="43.391915" lon="11.580405"><ele>258.0</ele><time>2026-05-03T11:37:57.162Z</time></trkpt><trkpt lat="43.391965" lon="11.580585"><ele>258.0</ele><time>2026-05-03T11:37:58.165Z</time></trkpt><trkpt lat="43.392015" lon="11.5807633"><ele>258.0</ele><time>2026-05-03T11:37:59.165Z</time></trkpt><trkpt lat="43.3920667" lon="11.580945"><ele>258.0</ele><time>2026-05-03T11:38:00.162Z</time></trkpt><trkpt lat="43.392115" lon="11.5811217"><ele>258.0</ele><time>2026-05-03T11:38:01.163Z</time></trkpt><trkpt lat="43.39216" lon="11.5812833"><ele>258.6666666666667</ele><time>2026-05-03T11:38:02.163Z</time></trkpt><trkpt lat="43.3922033" lon="11.581425"><ele>259.3333333333333</ele><time>2026-05-03T11:38:03.162Z</time></trkpt><trkpt lat="43.3922483" lon="11.581535"><ele>260.0</ele><time>2026-05-03T11:38:04.162Z</time></trkpt><trkpt lat="43.3923033" lon="11.58162"><ele>260.66666666666663</ele><time>2026-05-03T11:38:05.163Z</time></trkpt><trkpt lat="43.3923733" lon="11.5816633"><ele>261.3333333333333</ele><time>2026-05-03T11:38:06.162Z</time></trkpt><trkpt lat="43.39245" lon="11.5816967"><ele>262.0</ele><time>2026-05-03T11:38:07.162Z</time></trkpt><trkpt lat="43.392525" lon="11.5817433"><ele>262.0</ele><time>2026-05-03T11:38:08.165Z</time></trkpt><trkpt lat="43.39259" lon="11.5818233"><ele>262.0</ele><time>2026-05-03T11:38:09.165Z</time></trkpt><trkpt lat="43.3926417" lon="11.581955"><ele>262.0</ele><time>2026-05-03T11:38:10.165Z</time></trkpt><trkpt lat="43.3926683" lon="11.5821667"><ele>262.0</ele><time>2026-05-03T11:38:11.165Z</time></trkpt><trkpt lat="43.3927" lon="11.5823667"><ele>262.0</ele><time>2026-05-03T11:38:12.165Z</time></trkpt><trkpt lat="43.392735" lon="11.5825617"><ele>262.0</ele><time>2026-05-03T11:38:13.165Z</time></trkpt><trkpt lat="43.3927867" lon="11.58275"><ele>262.0</ele><time>2026-05-03T11:38:14.165Z</time></trkpt><trkpt lat="43.392855" lon="11.5829333"><ele>262.0</ele><time>2026-05-03T11:38:15.164Z</time></trkpt><trkpt lat="43.3929383" lon="11.5830917"><ele>265.0</ele><time>2026-05-03T11:38:16.164Z</time></trkpt><trkpt lat="43.3930333" lon="11.58322"><ele>268.0</ele><time>2026-05-03T11:38:17.164Z</time></trkpt><trkpt lat="43.3931433" lon="11.5833267"><ele>271.0</ele><time>2026-05-03T11:38:18.164Z</time></trkpt><trkpt lat="43.39327" lon="11.5834167"><ele>274.0</ele><time>2026-05-03T11:38:19.164Z</time></trkpt><trkpt lat="43.3934017" lon="11.5835017"><ele>274.0</ele><time>2026-05-03T11:38:20.164Z</time></trkpt><trkpt lat="43.3935317" lon="11.5835883"><ele>274.0</ele><time>2026-05-03T11:38:21.165Z</time></trkpt><trkpt lat="43.39366" lon="11.5836767"><ele>274.0</ele><time>2026-05-03T11:38:22.164Z</time></trkpt><trkpt lat="43.39378" lon="11.5837583"><ele>274.0</ele><time>2026-05-03T11:38:23.165Z</time></trkpt><trkpt lat="43.3938933" lon="11.5838383"><ele>275.0</ele><time>2026-05-03T11:38:24.164Z</time></trkpt><trkpt lat="43.3940017" lon="11.5839083"><ele>276.0</ele><time>2026-05-03T11:38:25.164Z</time></trkpt><trkpt lat="43.3941017" lon="11.5839667"><ele>277.0</ele><time>2026-05-03T11:38:26.164Z</time></trkpt><trkpt lat="43.3941983" lon="11.5840217"><ele>278.0</ele><time>2026-05-03T11:38:27.163Z</time></trkpt><trkpt lat="43.394295" lon="11.5840683"><ele>279.0</ele><time>2026-05-03T11:38:28.162Z</time></trkpt><trkpt lat="43.3943933" lon="11.5841117"><ele>279.0</ele><time>2026-05-03T11:38:29.161Z</time></trkpt><trkpt lat="43.3944983" lon="11.58416"><ele>279.0</ele><time>2026-05-03T11:38:30.167Z</time></trkpt><trkpt lat="43.3946133" lon="11.5842133"><ele>279.0</ele><time>2026-05-03T11:38:31.162Z</time></trkpt><trkpt lat="43.3947417" lon="11.5842633"><ele>279.0</ele><time>2026-05-03T11:38:32.161Z</time></trkpt><trkpt lat="43.3948783" lon="11.5843033"><ele>280.5</ele><time>2026-05-03T11:38:33.161Z</time></trkpt><trkpt lat="43.3950217" lon="11.5843267"><ele>282.0</ele><time>2026-05-03T11:38:34.162Z</time></trkpt><trkpt lat="43.3951683" lon="11.5843267"><ele>283.5</ele><time>2026-05-03T11:38:35.163Z</time></trkpt><trkpt lat="43.3953117" lon="11.5843267"><ele>285.0</ele><time>2026-05-03T11:38:36.161Z</time></trkpt><trkpt lat="43.3954483" lon="11.5843333"><ele>286.5</ele><time>2026-05-03T11:38:37.162Z</time></trkpt><trkpt lat="43.395585" lon="11.584355"><ele>288.0</ele><time>2026-05-03T11:38:38.164Z</time></trkpt><trkpt lat="43.3957217" lon="11.5843933"><ele>289.5</ele><time>2026-05-03T11:38:39.161Z</time></trkpt><trkpt lat="43.3958667" lon="11.5844433"><ele>291.0</ele><time>2026-05-03T11:38:40.164Z</time></trkpt><trkpt lat="43.39601" lon="11.5845033"><ele>288.3333333333333</ele><time>2026-05-03T11:38:41.165Z</time></trkpt><trkpt lat="43.3961517" lon="11.5845733"><ele>285.66666666666663</ele><time>2026-05-03T11:38:42.164Z</time></trkpt><trkpt lat="43.396295" lon="11.58466"><ele>283.0</ele><time>2026-05-03T11:38:43.166Z</time></trkpt><trkpt lat="43.3964483" lon="11.5847533"><ele>283.0</ele><time>2026-05-03T11:38:44.165Z</time></trkpt><trkpt lat="43.3966183" lon="11.5848517"><ele>283.0</ele><time>2026-05-03T11:38:45.164Z</time></trkpt><trkpt lat="43.3967933" lon="11.58494"><ele>283.0</ele><time>2026-05-03T11:38:46.164Z</time></trkpt><trkpt lat="43.3969783" lon="11.5850117"><ele>282.5</ele><time>2026-05-03T11:38:47.165Z</time></trkpt><trkpt lat="43.3971817" lon="11.58508"><ele>282.0</ele><time>2026-05-03T11:38:48.164Z</time></trkpt><trkpt lat="43.3976117" lon="11.5852133"><ele>282.0</ele><time>2026-05-03T11:38:50.164Z</time></trkpt><trkpt lat="43.3978167" lon="11.5852667"><ele>282.0</ele><time>2026-05-03T11:38:51.165Z</time></trkpt><trkpt lat="43.3980083" lon="11.5853167"><ele>282.0</ele><time>2026-05-03T11:38:52.165Z</time></trkpt><trkpt lat="43.3982" lon="11.585355"><ele>279.0</ele><time>2026-05-03T11:38:53.165Z</time></trkpt><trkpt lat="43.3983967" lon="11.5853883"><ele>276.0</ele><time>2026-05-03T11:38:54.162Z</time></trkpt><trkpt lat="43.3986017" lon="11.5854233"><ele>273.0</ele><time>2026-05-03T11:38:55.161Z</time></trkpt><trkpt lat="43.39881" lon="11.585465"><ele>272.3333333333333</ele><time>2026-05-03T11:38:56.162Z</time></trkpt><trkpt lat="43.3990217" lon="11.5855217"><ele>271.66666666666663</ele><time>2026-05-03T11:38:57.162Z</time></trkpt><trkpt lat="43.3992217" lon="11.585595"><ele>271.0</ele><time>2026-05-03T11:38:58.163Z</time></trkpt><trkpt lat="43.3994" lon="11.5856883"><ele>271.0</ele><time>2026-05-03T11:38:59.163Z</time></trkpt><trkpt lat="43.399565" lon="11.585795"><ele>271.0</ele><time>2026-05-03T11:39:00.162Z</time></trkpt><trkpt lat="43.3997267" lon="11.5858883"><ele>271.0</ele><time>2026-05-03T11:39:01.162Z</time></trkpt><trkpt lat="43.3998983" lon="11.5859467"><ele>272.3333333333333</ele><time>2026-05-03T11:39:02.162Z</time></trkpt><trkpt lat="43.4000767" lon="11.585985"><ele>273.6666666666667</ele><time>2026-05-03T11:39:03.163Z</time></trkpt><trkpt lat="43.4002583" lon="11.586035"><ele>275.0</ele><time>2026-05-03T11:39:04.162Z</time></trkpt><trkpt lat="43.40044" lon="11.58612"><ele>273.33333333333337</ele><time>2026-05-03T11:39:05.162Z</time></trkpt><trkpt lat="43.4006217" lon="11.5862367"><ele>271.6666666666667</ele><time>2026-05-03T11:39:06.162Z</time></trkpt><trkpt lat="43.4008" lon="11.58636"><ele>270.0</ele><time>2026-05-03T11:39:07.163Z</time></trkpt><trkpt lat="43.400985" lon="11.5864667"><ele>270.0</ele><time>2026-05-03T11:39:08.166Z</time></trkpt><trkpt lat="43.40119" lon="11.5865533"><ele>270.0</ele><time>2026-05-03T11:39:09.165Z</time></trkpt><trkpt lat="43.4014133" lon="11.586635"><ele>270.0</ele><time>2026-05-03T11:39:10.165Z</time></trkpt><trkpt lat="43.40164" lon="11.5867183"><ele>270.3333333333333</ele><time>2026-05-03T11:39:11.166Z</time></trkpt><trkpt lat="43.4018633" lon="11.5867983"><ele>270.66666666666663</ele><time>2026-05-03T11:39:12.164Z</time></trkpt><trkpt lat="43.40207" lon="11.5868767"><ele>271.0</ele><time>2026-05-03T11:39:13.164Z</time></trkpt><trkpt lat="43.402265" lon="11.58695"><ele>269.66666666666663</ele><time>2026-05-03T11:39:14.165Z</time></trkpt><trkpt lat="43.4024517" lon="11.5870233"><ele>268.3333333333333</ele><time>2026-05-03T11:39:15.165Z</time></trkpt><trkpt lat="43.4026417" lon="11.5871017"><ele>267.0</ele><time>2026-05-03T11:39:16.164Z</time></trkpt><trkpt lat="43.40283" lon="11.5872"><ele>270.0</ele><time>2026-05-03T11:39:17.165Z</time></trkpt><trkpt lat="43.4030083" lon="11.587325"><ele>273.0</ele><time>2026-05-03T11:39:18.164Z</time></trkpt><trkpt lat="43.4031717" lon="11.5874683"><ele>276.0</ele><time>2026-05-03T11:39:19.165Z</time></trkpt><trkpt lat="43.4033217" lon="11.587605"><ele>276.0</ele><time>2026-05-03T11:39:20.165Z</time></trkpt><trkpt lat="43.403475" lon="11.587735"><ele>276.0</ele><time>2026-05-03T11:39:21.165Z</time></trkpt><trkpt lat="43.4036267" lon="11.5878783"><ele>276.0</ele><time>2026-05-03T11:39:22.165Z</time></trkpt><trkpt lat="43.40376" lon="11.58804"><ele>276.0</ele><time>2026-05-03T11:39:23.166Z</time></trkpt><trkpt lat="43.4038833" lon="11.5882267"><ele>276.0</ele><time>2026-05-03T11:39:24.165Z</time></trkpt><trkpt lat="43.4040017" lon="11.588415"><ele>276.0</ele><time>2026-05-03T11:39:25.165Z</time></trkpt><trkpt lat="43.4041217" lon="11.5885917"><ele>274.6666666666667</ele><time>2026-05-03T11:39:26.162Z</time></trkpt><trkpt lat="43.4042433" lon="11.58876"><ele>273.33333333333337</ele><time>2026-05-03T11:39:27.162Z</time></trkpt><trkpt lat="43.40437" lon="11.58892"><ele>272.0</ele><time>2026-05-03T11:39:28.164Z</time></trkpt><trkpt lat="43.4045017" lon="11.589065"><ele>272.0</ele><time>2026-05-03T11:39:29.163Z</time></trkpt><trkpt lat="43.40465" lon="11.589205"><ele>272.0</ele><time>2026-05-03T11:39:30.164Z</time></trkpt><trkpt lat="43.4048167" lon="11.58934"><ele>272.0</ele><time>2026-05-03T11:39:31.163Z</time></trkpt><trkpt lat="43.4049917" lon="11.58947"><ele>272.33333333333337</ele><time>2026-05-03T11:39:32.163Z</time></trkpt><trkpt lat="43.405165" lon="11.5895867"><ele>272.6666666666667</ele><time>2026-05-03T11:39:33.165Z</time></trkpt><trkpt lat="43.4053283" lon="11.5896933"><ele>273.0</ele><time>2026-05-03T11:39:34.164Z</time></trkpt><trkpt lat="43.4054767" lon="11.5897933"><ele>274.25</ele><time>2026-05-03T11:39:35.165Z</time></trkpt><trkpt lat="43.4056" lon="11.589885"><ele>275.5</ele><time>2026-05-03T11:39:36.165Z</time></trkpt><trkpt lat="43.4056933" lon="11.58999"><ele>276.75</ele><time>2026-05-03T11:39:37.166Z</time></trkpt><trkpt lat="43.4057633" lon="11.5901233"><ele>278.0</ele><time>2026-05-03T11:39:38.165Z</time></trkpt><trkpt lat="43.4058167" lon="11.5902983"><ele>276.0</ele><time>2026-05-03T11:39:39.165Z</time></trkpt><trkpt lat="43.405855" lon="11.5905317"><ele>274.0</ele><time>2026-05-03T11:39:40.165Z</time></trkpt><trkpt lat="43.4059017" lon="11.5908033"><ele>272.0</ele><time>2026-05-03T11:39:41.166Z</time></trkpt><trkpt lat="43.4059533" lon="11.5910783"><ele>271.33333333333337</ele><time>2026-05-03T11:39:42.165Z</time></trkpt><trkpt lat="43.4060083" lon="11.5913433"><ele>270.6666666666667</ele><time>2026-05-03T11:39:43.165Z</time></trkpt><trkpt lat="43.4060683" lon="11.5915733"><ele>270.0</ele><time>2026-05-03T11:39:44.162Z</time></trkpt><trkpt lat="43.4061433" lon="11.59177"><ele>270.0</ele><time>2026-05-03T11:39:45.165Z</time></trkpt><trkpt lat="43.4062467" lon="11.5919333"><ele>270.0</ele><time>2026-05-03T11:39:46.163Z</time></trkpt><trkpt lat="43.4063783" lon="11.5920667"><ele>270.0</ele><time>2026-05-03T11:39:47.165Z</time></trkpt><trkpt lat="43.4065233" lon="11.5921783"><ele>270.75</ele><time>2026-05-03T11:39:48.164Z</time></trkpt><trkpt lat="43.4066583" lon="11.5922817"><ele>271.5</ele><time>2026-05-03T11:39:49.165Z</time></trkpt><trkpt lat="43.40677" lon="11.5924033"><ele>272.25</ele><time>2026-05-03T11:39:50.166Z</time></trkpt><trkpt lat="43.406865" lon="11.592555"><ele>273.0</ele><time>2026-05-03T11:39:51.165Z</time></trkpt><trkpt lat="43.4069533" lon="11.592735"><ele>273.0</ele><time>2026-05-03T11:39:52.165Z</time></trkpt><trkpt lat="43.4070417" lon="11.592935"><ele>273.0</ele><time>2026-05-03T11:39:53.166Z</time></trkpt><trkpt lat="43.4071367" lon="11.59315"><ele>273.0</ele><time>2026-05-03T11:39:54.165Z</time></trkpt><trkpt lat="43.4072467" lon="11.593375"><ele>271.6666666666667</ele><time>2026-05-03T11:39:55.165Z</time></trkpt><trkpt lat="43.40737" lon="11.59362"><ele>270.33333333333337</ele><time>2026-05-03T11:39:56.162Z</time></trkpt><trkpt lat="43.4074933" lon="11.5938633"><ele>269.0</ele><time>2026-05-03T11:39:57.163Z</time></trkpt><trkpt lat="43.4076083" lon="11.5940967"><ele>268.0</ele><time>2026-05-03T11:39:58.163Z</time></trkpt><trkpt lat="43.4077133" lon="11.594315"><ele>267.0</ele><time>2026-05-03T11:39:59.162Z</time></trkpt><trkpt lat="43.40781" lon="11.5945267"><ele>266.0</ele><time>2026-05-03T11:40:00.165Z</time></trkpt><trkpt lat="43.4078867" lon="11.5947483"><ele>265.33333333333337</ele><time>2026-05-03T11:40:01.165Z</time></trkpt><trkpt lat="43.4079467" lon="11.59497"><ele>264.6666666666667</ele><time>2026-05-03T11:40:02.162Z</time></trkpt><trkpt lat="43.4080133" lon="11.5951633"><ele>264.0</ele><time>2026-05-03T11:40:03.165Z</time></trkpt><trkpt lat="43.4080867" lon="11.5953433"><ele>261.75</ele><time>2026-05-03T11:40:04.165Z</time></trkpt><trkpt lat="43.4081867" lon="11.5954767"><ele>259.5</ele><time>2026-05-03T11:40:05.163Z</time></trkpt><trkpt lat="43.4083133" lon="11.5955783"><ele>257.25</ele><time>2026-05-03T11:40:06.165Z</time></trkpt><trkpt lat="43.4084433" lon="11.595665"><ele>255.0</ele><time>2026-05-03T11:40:07.165Z</time></trkpt><trkpt lat="43.4085467" lon="11.595765"><ele>255.0</ele><time>2026-05-03T11:40:08.165Z</time></trkpt><trkpt lat="43.4086083" lon="11.5958917"><ele>255.0</ele><time>2026-05-03T11:40:09.165Z</time></trkpt><trkpt lat="43.4086267" lon="11.5960283"><ele>255.0</ele><time>2026-05-03T11:40:10.165Z</time></trkpt><trkpt lat="43.4085883" lon="11.5961583"><ele>255.0</ele><time>2026-05-03T11:40:11.167Z</time></trkpt><trkpt lat="43.4085217" lon="11.596275"><ele>255.0</ele><time>2026-05-03T11:40:12.166Z</time></trkpt><trkpt lat="43.4084417" lon="11.5963633"><ele>254.4</ele><time>2026-05-03T11:40:13.165Z</time></trkpt><trkpt lat="43.4083717" lon="11.5964267"><ele>253.8</ele><time>2026-05-03T11:40:14.165Z</time></trkpt><trkpt lat="43.4083033" lon="11.5964933"><ele>253.2</ele><time>2026-05-03T11:40:16.165Z</time></trkpt><trkpt lat="43.4083517" lon="11.596625"><ele>252.6</ele><time>2026-05-03T11:40:20.167Z</time></trkpt><trkpt lat="43.4084167" lon="11.59671"><ele>252.0</ele><time>2026-05-03T11:40:21.166Z</time></trkpt><trkpt lat="43.4084983" lon="11.5968183"><ele>252.0</ele><time>2026-05-03T11:40:22.165Z</time></trkpt><trkpt lat="43.4085867" lon="11.5969367"><ele>252.0</ele><time>2026-05-03T11:40:23.165Z</time></trkpt><trkpt lat="43.4086767" lon="11.5970617"><ele>252.0</ele><time>2026-05-03T11:40:24.165Z</time></trkpt><trkpt lat="43.4087767" lon="11.597195"><ele>252.0</ele><time>2026-05-03T11:40:25.165Z</time></trkpt><trkpt lat="43.40888" lon="11.5973367"><ele>251.66666666666669</ele><time>2026-05-03T11:40:26.165Z</time></trkpt><trkpt lat="43.4089967" lon="11.5974783"><ele>251.33333333333334</ele><time>2026-05-03T11:40:27.165Z</time></trkpt><trkpt lat="43.40912" lon="11.5976167"><ele>251.0</ele><time>2026-05-03T11:40:28.165Z</time></trkpt><trkpt lat="43.4092533" lon="11.597745"><ele>250.66666666666669</ele><time>2026-05-03T11:40:29.165Z</time></trkpt><trkpt lat="43.4093933" lon="11.59787"><ele>250.33333333333331</ele><time>2026-05-03T11:40:30.165Z</time></trkpt><trkpt lat="43.4095367" lon="11.5979933"><ele>250.0</ele><time>2026-05-03T11:40:31.165Z</time></trkpt><trkpt lat="43.4096817" lon="11.5981217"><ele>249.66666666666666</ele><time>2026-05-03T11:40:32.165Z</time></trkpt><trkpt lat="43.4098283" lon="11.5982517"><ele>249.33333333333331</ele><time>2026-05-03T11:40:33.166Z</time></trkpt><trkpt lat="43.4099767" lon="11.5983817"><ele>249.0</ele><time>2026-05-03T11:40:34.165Z</time></trkpt><trkpt lat="43.410125" lon="11.59851"><ele>249.0</ele><time>2026-05-03T11:40:35.165Z</time></trkpt><trkpt lat="43.4102717" lon="11.59864"><ele>249.0</ele><time>2026-05-03T11:40:36.162Z</time></trkpt><trkpt lat="43.4104167" lon="11.5987683"><ele>249.0</ele><time>2026-05-03T11:40:37.165Z</time></trkpt><trkpt lat="43.4105617" lon="11.598895"><ele>249.33333333333331</ele><time>2026-05-03T11:40:38.165Z</time></trkpt><trkpt lat="43.4107067" lon="11.59902"><ele>249.66666666666666</ele><time>2026-05-03T11:40:39.166Z</time></trkpt><trkpt lat="43.4108517" lon="11.5991433"><ele>250.0</ele><time>2026-05-03T11:40:40.165Z</time></trkpt><trkpt lat="43.410995" lon="11.599265"><ele>250.0</ele><time>2026-05-03T11:40:41.166Z</time></trkpt><trkpt lat="43.41114" lon="11.59939"><ele>250.0</ele><time>2026-05-03T11:40:42.165Z</time></trkpt><trkpt lat="43.4112833" lon="11.599515"><ele>250.0</ele><time>2026-05-03T11:40:43.166Z</time></trkpt><trkpt lat="43.41142" lon="11.599635"><ele>249.0</ele><time>2026-05-03T11:40:44.165Z</time></trkpt><trkpt lat="43.4115533" lon="11.5997517"><ele>248.0</ele><time>2026-05-03T11:40:45.166Z</time></trkpt><trkpt lat="43.4116833" lon="11.599865"><ele>247.0</ele><time>2026-05-03T11:40:46.165Z</time></trkpt><trkpt lat="43.4118117" lon="11.5999817"><ele>247.0</ele><time>2026-05-03T11:40:47.166Z</time></trkpt><trkpt lat="43.4119417" lon="11.6000967"><ele>247.0</ele><time>2026-05-03T11:40:48.165Z</time></trkpt><trkpt lat="43.4120733" lon="11.6002117"><ele>247.0</ele><time>2026-05-03T11:40:49.165Z</time></trkpt><trkpt lat="43.4122067" lon="11.6003233"><ele>247.0</ele><time>2026-05-03T11:40:50.164Z</time></trkpt><trkpt lat="43.41234" lon="11.60044"><ele>247.0</ele><time>2026-05-03T11:40:51.165Z</time></trkpt><trkpt lat="43.4124767" lon="11.6005583"><ele>247.0</ele><time>2026-05-03T11:40:52.165Z</time></trkpt><trkpt lat="43.4126117" lon="11.6006717"><ele>247.0</ele><time>2026-05-03T11:40:53.165Z</time></trkpt><trkpt lat="43.4127483" lon="11.6007883"><ele>247.0</ele><time>2026-05-03T11:40:54.164Z</time></trkpt><trkpt lat="43.4128833" lon="11.6009083"><ele>247.0</ele><time>2026-05-03T11:40:55.165Z</time></trkpt><trkpt lat="43.4130183" lon="11.6010283"><ele>247.66666666666666</ele><time>2026-05-03T11:40:56.164Z</time></trkpt><trkpt lat="43.4131583" lon="11.60115"><ele>248.33333333333331</ele><time>2026-05-03T11:40:57.164Z</time></trkpt><trkpt lat="43.4132983" lon="11.6012717"><ele>249.0</ele><time>2026-05-03T11:40:58.164Z</time></trkpt><trkpt lat="43.4134383" lon="11.6013933"><ele>249.0</ele><time>2026-05-03T11:40:59.165Z</time></trkpt><trkpt lat="43.41358" lon="11.601515"><ele>249.0</ele><time>2026-05-03T11:41:00.164Z</time></trkpt><trkpt lat="43.4137233" lon="11.6016367"><ele>249.0</ele><time>2026-05-03T11:41:01.164Z</time></trkpt><trkpt lat="43.413865" lon="11.6017617"><ele>249.0</ele><time>2026-05-03T11:41:02.164Z</time></trkpt><trkpt lat="43.4140067" lon="11.6018917"><ele>249.0</ele><time>2026-05-03T11:41:03.165Z</time></trkpt><trkpt lat="43.4141433" lon="11.60203"><ele>249.0</ele><time>2026-05-03T11:41:04.164Z</time></trkpt><trkpt lat="43.4142783" lon="11.6021817"><ele>249.0</ele><time>2026-05-03T11:41:05.164Z</time></trkpt><trkpt lat="43.4144117" lon="11.60234"><ele>249.0</ele><time>2026-05-03T11:41:06.161Z</time></trkpt><trkpt lat="43.41454" lon="11.6025"><ele>249.0</ele><time>2026-05-03T11:41:07.164Z</time></trkpt><trkpt lat="43.41466" lon="11.60266"><ele>249.66666666666669</ele><time>2026-05-03T11:41:08.164Z</time></trkpt><trkpt lat="43.4147683" lon="11.6028317"><ele>250.33333333333334</ele><time>2026-05-03T11:41:09.164Z</time></trkpt><trkpt lat="43.4148617" lon="11.603025"><ele>251.0</ele><time>2026-05-03T11:41:10.164Z</time></trkpt><trkpt lat="43.4149333" lon="11.6032467"><ele>251.0</ele><time>2026-05-03T11:41:11.165Z</time></trkpt><trkpt lat="43.4149867" lon="11.6034983"><ele>251.0</ele><time>2026-05-03T11:41:12.164Z</time></trkpt><trkpt lat="43.41502" lon="11.6037633"><ele>251.0</ele><time>2026-05-03T11:41:13.164Z</time></trkpt><trkpt lat="43.41504" lon="11.6040433"><ele>249.33333333333334</ele><time>2026-05-03T11:41:14.165Z</time></trkpt><trkpt lat="43.4150583" lon="11.6043267"><ele>247.66666666666669</ele><time>2026-05-03T11:41:15.164Z</time></trkpt><trkpt lat="43.41507" lon="11.6045983"><ele>246.0</ele><time>2026-05-03T11:41:16.165Z</time></trkpt><trkpt lat="43.41508" lon="11.6048583"><ele>245.33333333333331</ele><time>2026-05-03T11:41:17.165Z</time></trkpt><trkpt lat="43.41509" lon="11.6051"><ele>244.66666666666666</ele><time>2026-05-03T11:41:18.165Z</time></trkpt><trkpt lat="43.415105" lon="11.6053367"><ele>244.0</ele><time>2026-05-03T11:41:19.164Z</time></trkpt><trkpt lat="43.4151483" lon="11.6055717"><ele>243.66666666666666</ele><time>2026-05-03T11:41:20.164Z</time></trkpt><trkpt lat="43.4152367" lon="11.6058"><ele>243.33333333333331</ele><time>2026-05-03T11:41:21.164Z</time></trkpt><trkpt lat="43.4153683" lon="11.6060167"><ele>243.0</ele><time>2026-05-03T11:41:22.164Z</time></trkpt><trkpt lat="43.4155283" lon="11.6062217"><ele>243.66666666666669</ele><time>2026-05-03T11:41:23.165Z</time></trkpt><trkpt lat="43.4156967" lon="11.606425"><ele>244.33333333333334</ele><time>2026-05-03T11:41:24.164Z</time></trkpt><trkpt lat="43.4158567" lon="11.60662"><ele>245.0</ele><time>2026-05-03T11:41:25.165Z</time></trkpt><trkpt lat="43.4160117" lon="11.6068117"><ele>245.0</ele><time>2026-05-03T11:41:26.165Z</time></trkpt><trkpt lat="43.416165" lon="11.607005"><ele>245.0</ele><time>2026-05-03T11:41:27.165Z</time></trkpt><trkpt lat="43.4163183" lon="11.6071967"><ele>245.0</ele><time>2026-05-03T11:41:28.164Z</time></trkpt><trkpt lat="43.4164683" lon="11.607385"><ele>245.0</ele><time>2026-05-03T11:41:29.163Z</time></trkpt><trkpt lat="43.41662" lon="11.607575"><ele>245.0</ele><time>2026-05-03T11:41:30.165Z</time></trkpt><trkpt lat="43.416765" lon="11.60776"><ele>245.0</ele><time>2026-05-03T11:41:31.164Z</time></trkpt><trkpt lat="43.4169067" lon="11.6079317"><ele>246.0</ele><time>2026-05-03T11:41:32.165Z</time></trkpt><trkpt lat="43.4170517" lon="11.6080967"><ele>247.0</ele><time>2026-05-03T11:41:33.164Z</time></trkpt><trkpt lat="43.4172083" lon="11.608245"><ele>248.0</ele><time>2026-05-03T11:41:34.164Z</time></trkpt><trkpt lat="43.41738" lon="11.6083567"><ele>248.0</ele><time>2026-05-03T11:41:35.166Z</time></trkpt><trkpt lat="43.4175567" lon="11.608455"><ele>248.0</ele><time>2026-05-03T11:41:36.165Z</time></trkpt><trkpt lat="43.41773" lon="11.6085467"><ele>248.0</ele><time>2026-05-03T11:41:37.164Z</time></trkpt><trkpt lat="43.4178917" lon="11.60864"><ele>249.0</ele><time>2026-05-03T11:41:38.165Z</time></trkpt><trkpt lat="43.4180483" lon="11.60873"><ele>250.0</ele><time>2026-05-03T11:41:39.164Z</time></trkpt><trkpt lat="43.4182017" lon="11.6088333"><ele>251.0</ele><time>2026-05-03T11:41:40.164Z</time></trkpt><trkpt lat="43.4183483" lon="11.6089483"><ele>251.0</ele><time>2026-05-03T11:41:41.166Z</time></trkpt><trkpt lat="43.4184867" lon="11.60908"><ele>251.0</ele><time>2026-05-03T11:41:42.164Z</time></trkpt><trkpt lat="43.41862" lon="11.6092183"><ele>251.0</ele><time>2026-05-03T11:41:43.164Z</time></trkpt><trkpt lat="43.4187517" lon="11.6093567"><ele>250.0</ele><time>2026-05-03T11:41:44.162Z</time></trkpt><trkpt lat="43.418885" lon="11.609495"><ele>249.0</ele><time>2026-05-03T11:41:45.162Z</time></trkpt><trkpt lat="43.4190183" lon="11.6096333"><ele>248.0</ele><time>2026-05-03T11:41:46.163Z</time></trkpt><trkpt lat="43.4191533" lon="11.6097733"><ele>248.0</ele><time>2026-05-03T11:41:47.162Z</time></trkpt><trkpt lat="43.4192933" lon="11.609915"><ele>248.0</ele><time>2026-05-03T11:41:48.162Z</time></trkpt><trkpt lat="43.4194367" lon="11.6100583"><ele>248.0</ele><time>2026-05-03T11:41:49.162Z</time></trkpt><trkpt lat="43.4195883" lon="11.6102117"><ele>247.0</ele><time>2026-05-03T11:41:50.167Z</time></trkpt><trkpt lat="43.419745" lon="11.6103733"><ele>246.0</ele><time>2026-05-03T11:41:51.165Z</time></trkpt><trkpt lat="43.4199033" lon="11.610545"><ele>245.0</ele><time>2026-05-03T11:41:52.165Z</time></trkpt><trkpt lat="43.420065" lon="11.6107233"><ele>245.0</ele><time>2026-05-03T11:41:53.165Z</time></trkpt><trkpt lat="43.42023" lon="11.6109017"><ele>245.0</ele><time>2026-05-03T11:41:54.165Z</time></trkpt><trkpt lat="43.4203983" lon="11.61108"><ele>245.0</ele><time>2026-05-03T11:41:55.164Z</time></trkpt><trkpt lat="43.4205683" lon="11.61125"><ele>244.66666666666669</ele><time>2026-05-03T11:41:56.165Z</time></trkpt><trkpt lat="43.4207367" lon="11.6114217"><ele>244.33333333333331</ele><time>2026-05-03T11:41:57.165Z</time></trkpt><trkpt lat="43.420905" lon="11.61159"><ele>244.0</ele><time>2026-05-03T11:41:58.165Z</time></trkpt><trkpt lat="43.4210733" lon="11.6117617"><ele>244.0</ele><time>2026-05-03T11:41:59.165Z</time></trkpt><trkpt lat="43.4212433" lon="11.6119367"><ele>244.0</ele><time>2026-05-03T11:42:00.165Z</time></trkpt><trkpt lat="43.4214117" lon="11.6121233"><ele>244.0</ele><time>2026-05-03T11:42:01.166Z</time></trkpt><trkpt lat="43.421575" lon="11.6123133"><ele>244.33333333333331</ele><time>2026-05-03T11:42:02.165Z</time></trkpt><trkpt lat="43.4217433" lon="11.6124917"><ele>244.66666666666669</ele><time>2026-05-03T11:42:03.162Z</time></trkpt><trkpt lat="43.4219133" lon="11.6126667"><ele>245.0</ele><time>2026-05-03T11:42:04.165Z</time></trkpt><trkpt lat="43.42208" lon="11.6128417"><ele>244.33333333333334</ele><time>2026-05-03T11:42:05.165Z</time></trkpt><trkpt lat="43.422245" lon="11.613015"><ele>243.66666666666669</ele><time>2026-05-03T11:42:06.164Z</time></trkpt><trkpt lat="43.42241" lon="11.6131867"><ele>243.0</ele><time>2026-05-03T11:42:07.165Z</time></trkpt><trkpt lat="43.4225767" lon="11.613355"><ele>243.0</ele><time>2026-05-03T11:42:08.165Z</time></trkpt><trkpt lat="43.4227433" lon="11.6135233"><ele>243.0</ele><time>2026-05-03T11:42:09.164Z</time></trkpt><trkpt lat="43.4229083" lon="11.6136933"><ele>243.0</ele><time>2026-05-03T11:42:10.165Z</time></trkpt><trkpt lat="43.4230717" lon="11.61386"><ele>243.66666666666669</ele><time>2026-05-03T11:42:11.165Z</time></trkpt><trkpt lat="43.4232267" lon="11.6140217"><ele>244.33333333333334</ele><time>2026-05-03T11:42:12.165Z</time></trkpt><trkpt lat="43.4233767" lon="11.6141667"><ele>245.0</ele><time>2026-05-03T11:42:13.165Z</time></trkpt><trkpt lat="43.4235267" lon="11.6142867"><ele>245.0</ele><time>2026-05-03T11:42:14.164Z</time></trkpt><trkpt lat="43.4236817" lon="11.6143567"><ele>245.0</ele><time>2026-05-03T11:42:15.165Z</time></trkpt><trkpt lat="43.4238333" lon="11.6143733"><ele>245.0</ele><time>2026-05-03T11:42:16.165Z</time></trkpt><trkpt lat="43.4239933" lon="11.6143167"><ele>244.0</ele><time>2026-05-03T11:42:17.165Z</time></trkpt><trkpt lat="43.4241617" lon="11.61422"><ele>243.0</ele><time>2026-05-03T11:42:18.162Z</time></trkpt><trkpt lat="43.4243333" lon="11.6141083"><ele>242.0</ele><time>2026-05-03T11:42:19.163Z</time></trkpt><trkpt lat="43.4245133" lon="11.6139833"><ele>242.0</ele><time>2026-05-03T11:42:20.162Z</time></trkpt><trkpt lat="43.4247067" lon="11.61385"><ele>242.0</ele><time>2026-05-03T11:42:21.165Z</time></trkpt><trkpt lat="43.424905" lon="11.61371"><ele>242.0</ele><time>2026-05-03T11:42:22.165Z</time></trkpt><trkpt lat="43.4251117" lon="11.6135617"><ele>241.5</ele><time>2026-05-03T11:42:23.165Z</time></trkpt><trkpt lat="43.4253217" lon="11.6133967"><ele>241.0</ele><time>2026-05-03T11:42:24.165Z</time></trkpt><trkpt lat="43.4255333" lon="11.6132117"><ele>242.5</ele><time>2026-05-03T11:42:25.165Z</time></trkpt><trkpt lat="43.4257417" lon="11.613015"><ele>244.0</ele><time>2026-05-03T11:42:26.165Z</time></trkpt><trkpt lat="43.4259467" lon="11.6128133"><ele>244.0</ele><time>2026-05-03T11:42:27.165Z</time></trkpt><trkpt lat="43.4261483" lon="11.6126117"><ele>244.0</ele><time>2026-05-03T11:42:28.165Z</time></trkpt><trkpt lat="43.4263483" lon="11.6124217"><ele>246.0</ele><time>2026-05-03T11:42:29.165Z</time></trkpt><trkpt lat="43.4265517" lon="11.612265"><ele>248.0</ele><time>2026-05-03T11:42:30.165Z</time></trkpt><trkpt lat="43.426755" lon="11.6121367"><ele>248.0</ele><time>2026-05-03T11:42:31.162Z</time></trkpt><trkpt lat="43.42696" lon="11.61204"><ele>248.0</ele><time>2026-05-03T11:42:32.165Z</time></trkpt><trkpt lat="43.4271583" lon="11.6119733"><ele>248.0</ele><time>2026-05-03T11:42:33.165Z</time></trkpt><trkpt lat="43.4273517" lon="11.611935"><ele>248.66666666666669</ele><time>2026-05-03T11:42:34.165Z</time></trkpt><trkpt lat="43.427545" lon="11.611945"><ele>249.33333333333331</ele><time>2026-05-03T11:42:35.165Z</time></trkpt><trkpt lat="43.4277433" lon="11.6119967"><ele>250.0</ele><time>2026-05-03T11:42:36.165Z</time></trkpt><trkpt lat="43.427945" lon="11.61208"><ele>247.66666666666666</ele><time>2026-05-03T11:42:37.166Z</time></trkpt><trkpt lat="43.428155" lon="11.6121717"><ele>245.33333333333331</ele><time>2026-05-03T11:42:38.165Z</time></trkpt><trkpt lat="43.4283633" lon="11.6122633"><ele>243.0</ele><time>2026-05-03T11:42:39.165Z</time></trkpt><trkpt lat="43.4285783" lon="11.6123483"><ele>243.0</ele><time>2026-05-03T11:42:40.165Z</time></trkpt><trkpt lat="43.4287883" lon="11.61243"><ele>243.0</ele><time>2026-05-03T11:42:41.165Z</time></trkpt><trkpt lat="43.4289933" lon="11.6125117"><ele>243.0</ele><time>2026-05-03T11:42:42.165Z</time></trkpt><trkpt lat="43.4291883" lon="11.6125883"><ele>242.0</ele><time>2026-05-03T11:42:43.165Z</time></trkpt><trkpt lat="43.42938" lon="11.612675"><ele>241.0</ele><time>2026-05-03T11:42:44.165Z</time></trkpt><trkpt lat="43.429565" lon="11.6127933"><ele>240.0</ele><time>2026-05-03T11:42:45.165Z</time></trkpt><trkpt lat="43.4297417" lon="11.6129567"><ele>238.0</ele><time>2026-05-03T11:42:46.165Z</time></trkpt><trkpt lat="43.4299167" lon="11.6131683"><ele>236.0</ele><time>2026-05-03T11:42:47.166Z</time></trkpt><trkpt lat="43.430095" lon="11.6134067"><ele>236.5</ele><time>2026-05-03T11:42:48.165Z</time></trkpt><trkpt lat="43.43028" lon="11.6136567"><ele>237.0</ele><time>2026-05-03T11:42:49.165Z</time></trkpt><trkpt lat="43.430475" lon="11.61391"><ele>234.5</ele><time>2026-05-03T11:42:50.164Z</time></trkpt><trkpt lat="43.4306733" lon="11.614155"><ele>232.0</ele><time>2026-05-03T11:42:51.165Z</time></trkpt><trkpt lat="43.4308733" lon="11.6143917"><ele>232.5</ele><time>2026-05-03T11:42:52.165Z</time></trkpt><trkpt lat="43.4310717" lon="11.61462"><ele>233.0</ele><time>2026-05-03T11:42:53.165Z</time></trkpt><trkpt lat="43.4312667" lon="11.614845"><ele>232.5</ele><time>2026-05-03T11:42:54.165Z</time></trkpt><trkpt lat="43.4314567" lon="11.6150667"><ele>232.0</ele><time>2026-05-03T11:42:55.165Z</time></trkpt><trkpt lat="43.4316467" lon="11.6152833"><ele>232.0</ele><time>2026-05-03T11:42:56.165Z</time></trkpt><trkpt lat="43.431845" lon="11.615485"><ele>232.0</ele><time>2026-05-03T11:42:57.165Z</time></trkpt><trkpt lat="43.4320517" lon="11.61567"><ele>232.0</ele><time>2026-05-03T11:42:58.165Z</time></trkpt><trkpt lat="43.43226" lon="11.6158233"><ele>232.0</ele><time>2026-05-03T11:42:59.165Z</time></trkpt><trkpt lat="43.4324667" lon="11.61595"><ele>232.0</ele><time>2026-05-03T11:43:00.165Z</time></trkpt><trkpt lat="43.4326733" lon="11.6160367"><ele>232.0</ele><time>2026-05-03T11:43:01.165Z</time></trkpt><trkpt lat="43.4328817" lon="11.6160767"><ele>232.0</ele><time>2026-05-03T11:43:02.165Z</time></trkpt><trkpt lat="43.4330867" lon="11.616115"><ele>234.0</ele><time>2026-05-03T11:43:03.165Z</time></trkpt><trkpt lat="43.4332833" lon="11.6161817"><ele>236.0</ele><time>2026-05-03T11:43:04.165Z</time></trkpt><trkpt lat="43.433485" lon="11.6162817"><ele>238.0</ele><time>2026-05-03T11:43:05.165Z</time></trkpt><trkpt lat="43.4336933" lon="11.6164183"><ele>234.0</ele><time>2026-05-03T11:43:06.165Z</time></trkpt><trkpt lat="43.4339117" lon="11.6165733"><ele>230.0</ele><time>2026-05-03T11:43:07.165Z</time></trkpt><trkpt lat="43.4341417" lon="11.61673"><ele>230.0</ele><time>2026-05-03T11:43:08.165Z</time></trkpt><trkpt lat="43.434375" lon="11.6168933"><ele>230.0</ele><time>2026-05-03T11:43:09.165Z</time></trkpt><trkpt lat="43.434615" lon="11.6170617"><ele>229.5</ele><time>2026-05-03T11:43:10.165Z</time></trkpt><trkpt lat="43.4348583" lon="11.6172317"><ele>229.0</ele><time>2026-05-03T11:43:11.163Z</time></trkpt><trkpt lat="43.4351067" lon="11.6173983"><ele>229.0</ele><time>2026-05-03T11:43:12.165Z</time></trkpt><trkpt lat="43.43536" lon="11.6175683"><ele>229.0</ele><time>2026-05-03T11:43:13.165Z</time></trkpt><trkpt lat="43.435615" lon="11.617745"><ele>230.5</ele><time>2026-05-03T11:43:14.166Z</time></trkpt><trkpt lat="43.4358733" lon="11.6179233"><ele>232.0</ele><time>2026-05-03T11:43:15.165Z</time></trkpt><trkpt lat="43.4361317" lon="11.6181033"><ele>231.0</ele><time>2026-05-03T11:43:16.165Z</time></trkpt><trkpt lat="43.43638" lon="11.61828"><ele>230.0</ele><time>2026-05-03T11:43:17.165Z</time></trkpt><trkpt lat="43.436615" lon="11.6184483"><ele>230.0</ele><time>2026-05-03T11:43:18.165Z</time></trkpt><trkpt lat="43.4368433" lon="11.618605"><ele>230.0</ele><time>2026-05-03T11:43:19.165Z</time></trkpt><trkpt lat="43.437065" lon="11.61876"><ele>232.0</ele><time>2026-05-03T11:43:20.166Z</time></trkpt><trkpt lat="43.4372783" lon="11.61891"><ele>234.0</ele><time>2026-05-03T11:43:21.165Z</time></trkpt><trkpt lat="43.4374833" lon="11.6190517"><ele>234.0</ele><time>2026-05-03T11:43:22.165Z</time></trkpt><trkpt lat="43.4376867" lon="11.6191733"><ele>234.0</ele><time>2026-05-03T11:43:23.166Z</time></trkpt><trkpt lat="43.4378933" lon="11.619255"><ele>234.0</ele><time>2026-05-03T11:43:24.165Z</time></trkpt><trkpt lat="43.4381017" lon="11.6192917"><ele>234.0</ele><time>2026-05-03T11:43:25.165Z</time></trkpt><trkpt lat="43.4383117" lon="11.6193"><ele>234.0</ele><time>2026-05-03T11:43:26.166Z</time></trkpt><trkpt lat="43.4385167" lon="11.619285"><ele>234.0</ele><time>2026-05-03T11:43:27.165Z</time></trkpt><trkpt lat="43.4387117" lon="11.6192633"><ele>235.0</ele><time>2026-05-03T11:43:28.165Z</time></trkpt><trkpt lat="43.4388983" lon="11.6192417"><ele>236.0</ele><time>2026-05-03T11:43:29.166Z</time></trkpt><trkpt lat="43.439075" lon="11.6192217"><ele>237.0</ele><time>2026-05-03T11:43:30.166Z</time></trkpt><trkpt lat="43.4392417" lon="11.6192017"><ele>237.0</ele><time>2026-05-03T11:43:31.164Z</time></trkpt><trkpt lat="43.4393983" lon="11.61918"><ele>237.0</ele><time>2026-05-03T11:43:32.164Z</time></trkpt><trkpt lat="43.4395467" lon="11.6191567"><ele>237.0</ele><time>2026-05-03T11:43:33.164Z</time></trkpt><trkpt lat="43.4396817" lon="11.6191417"><ele>237.0</ele><time>2026-05-03T11:43:34.164Z</time></trkpt><trkpt lat="43.4399167" lon="11.6191817"><ele>237.0</ele><time>2026-05-03T11:43:36.164Z</time></trkpt><trkpt lat="43.4400183" lon="11.6192533"><ele>237.0</ele><time>2026-05-03T11:43:37.166Z</time></trkpt><trkpt lat="43.4401083" lon="11.6193567"><ele>237.0</ele><time>2026-05-03T11:43:38.165Z</time></trkpt><trkpt lat="43.4401683" lon="11.6194917"><ele>237.0</ele><time>2026-05-03T11:43:39.165Z</time></trkpt><trkpt lat="43.440215" lon="11.6196517"><ele>237.5</ele><time>2026-05-03T11:43:40.165Z</time></trkpt><trkpt lat="43.4402583" lon="11.6198217"><ele>238.0</ele><time>2026-05-03T11:43:41.165Z</time></trkpt><trkpt lat="43.440305" lon="11.6199967"><ele>238.5</ele><time>2026-05-03T11:43:42.164Z</time></trkpt><trkpt lat="43.4403583" lon="11.6201783"><ele>239.0</ele><time>2026-05-03T11:43:43.165Z</time></trkpt><trkpt lat="43.4404117" lon="11.6203617"><ele>238.5</ele><time>2026-05-03T11:43:44.164Z</time></trkpt><trkpt lat="43.44047" lon="11.6205483"><ele>238.0</ele><time>2026-05-03T11:43:45.164Z</time></trkpt><trkpt lat="43.4405283" lon="11.62074"><ele>237.5</ele><time>2026-05-03T11:43:46.164Z</time></trkpt><trkpt lat="43.440595" lon="11.6209267"><ele>237.0</ele><time>2026-05-03T11:43:47.165Z</time></trkpt><trkpt lat="43.4406767" lon="11.6211017"><ele>237.25</ele><time>2026-05-03T11:43:48.164Z</time></trkpt><trkpt lat="43.44077" lon="11.6212533"><ele>237.5</ele><time>2026-05-03T11:43:49.165Z</time></trkpt><trkpt lat="43.4408617" lon="11.621395"><ele>237.75</ele><time>2026-05-03T11:43:50.164Z</time></trkpt><trkpt lat="43.4409533" lon="11.621535"><ele>238.0</ele><time>2026-05-03T11:43:51.165Z</time></trkpt><trkpt lat="43.4410467" lon="11.6216817"><ele>238.0</ele><time>2026-05-03T11:43:52.164Z</time></trkpt><trkpt lat="43.4411367" lon="11.6218233"><ele>238.0</ele><time>2026-05-03T11:43:53.164Z</time></trkpt><trkpt lat="43.4412283" lon="11.6219633"><ele>238.0</ele><time>2026-05-03T11:43:54.164Z</time></trkpt><trkpt lat="43.4413333" lon="11.6220917"><ele>238.0</ele><time>2026-05-03T11:43:55.164Z</time></trkpt><trkpt lat="43.44146" lon="11.6221867"><ele>236.75</ele><time>2026-05-03T11:43:56.161Z</time></trkpt><trkpt lat="43.4415917" lon="11.6222383"><ele>235.5</ele><time>2026-05-03T11:43:57.161Z</time></trkpt><trkpt lat="43.4417217" lon="11.6222667"><ele>234.25</ele><time>2026-05-03T11:43:58.164Z</time></trkpt><trkpt lat="43.4418433" lon="11.6222867"><ele>233.0</ele><time>2026-05-03T11:43:59.162Z</time></trkpt><trkpt lat="43.4419617" lon="11.6223033"><ele>233.0</ele><time>2026-05-03T11:44:00.161Z</time></trkpt><trkpt lat="43.442065" lon="11.62234"><ele>233.0</ele><time>2026-05-03T11:44:01.162Z</time></trkpt><trkpt lat="43.4421617" lon="11.6224017"><ele>233.0</ele><time>2026-05-03T11:44:02.162Z</time></trkpt><trkpt lat="43.4422483" lon="11.6224867"><ele>233.0</ele><time>2026-05-03T11:44:03.165Z</time></trkpt><trkpt lat="43.4423267" lon="11.6225967"><ele>233.0</ele><time>2026-05-03T11:44:04.165Z</time></trkpt><trkpt lat="43.4424033" lon="11.62272"><ele>233.75</ele><time>2026-05-03T11:44:05.165Z</time></trkpt><trkpt lat="43.4424783" lon="11.62285"><ele>234.5</ele><time>2026-05-03T11:44:06.164Z</time></trkpt><trkpt lat="43.442555" lon="11.6229867"><ele>235.25</ele><time>2026-05-03T11:44:07.165Z</time></trkpt><trkpt lat="43.4426383" lon="11.62314"><ele>236.0</ele><time>2026-05-03T11:44:08.164Z</time></trkpt><trkpt lat="43.4427333" lon="11.6233083"><ele>236.0</ele><time>2026-05-03T11:44:09.165Z</time></trkpt><trkpt lat="43.442835" lon="11.6234983"><ele>236.0</ele><time>2026-05-03T11:44:10.165Z</time></trkpt><trkpt lat="43.4429467" lon="11.623705"><ele>236.0</ele><time>2026-05-03T11:44:11.165Z</time></trkpt><trkpt lat="43.4430667" lon="11.6239217"><ele>235.33333333333334</ele><time>2026-05-03T11:44:12.161Z</time></trkpt><trkpt lat="43.4431917" lon="11.6241383"><ele>234.66666666666669</ele><time>2026-05-03T11:44:13.163Z</time></trkpt><trkpt lat="43.4433083" lon="11.6243533"><ele>234.0</ele><time>2026-05-03T11:44:14.165Z</time></trkpt><trkpt lat="43.443415" lon="11.62457"><ele>233.66666666666669</ele><time>2026-05-03T11:44:15.164Z</time></trkpt><trkpt lat="43.44351" lon="11.624785"><ele>233.33333333333334</ele><time>2026-05-03T11:44:16.166Z</time></trkpt><trkpt lat="43.4436" lon="11.625005"><ele>233.0</ele><time>2026-05-03T11:44:17.165Z</time></trkpt><trkpt lat="43.4436867" lon="11.62523"><ele>233.0</ele><time>2026-05-03T11:44:18.165Z</time></trkpt><trkpt lat="43.4437767" lon="11.6254583"><ele>233.0</ele><time>2026-05-03T11:44:19.165Z</time></trkpt><trkpt lat="43.4438667" lon="11.6256883"><ele>233.0</ele><time>2026-05-03T11:44:20.165Z</time></trkpt><trkpt lat="43.4439617" lon="11.62592"><ele>232.33333333333334</ele><time>2026-05-03T11:44:21.165Z</time></trkpt><trkpt lat="43.44406" lon="11.6261483"><ele>231.66666666666669</ele><time>2026-05-03T11:44:22.166Z</time></trkpt><trkpt lat="43.4441583" lon="11.6263833"><ele>231.0</ele><time>2026-05-03T11:44:23.165Z</time></trkpt><trkpt lat="43.444255" lon="11.62662"><ele>231.0</ele><time>2026-05-03T11:44:24.165Z</time></trkpt><trkpt lat="43.4443533" lon="11.626855"><ele>231.0</ele><time>2026-05-03T11:44:25.164Z</time></trkpt><trkpt lat="43.444455" lon="11.62709"><ele>231.0</ele><time>2026-05-03T11:44:26.162Z</time></trkpt><trkpt lat="43.4445517" lon="11.62733"><ele>233.0</ele><time>2026-05-03T11:44:27.162Z</time></trkpt><trkpt lat="43.4446317" lon="11.6275783"><ele>235.0</ele><time>2026-05-03T11:44:28.162Z</time></trkpt><trkpt lat="43.4446967" lon="11.627835"><ele>237.0</ele><time>2026-05-03T11:44:29.163Z</time></trkpt><trkpt lat="43.4447283" lon="11.6280917"><ele>237.0</ele><time>2026-05-03T11:44:30.161Z</time></trkpt><trkpt lat="43.4447133" lon="11.6283433"><ele>237.0</ele><time>2026-05-03T11:44:31.162Z</time></trkpt><trkpt lat="43.444645" lon="11.6285817"><ele>237.0</ele><time>2026-05-03T11:44:32.162Z</time></trkpt><trkpt lat="43.4445483" lon="11.6288033"><ele>237.0</ele><time>2026-05-03T11:44:33.166Z</time></trkpt><trkpt lat="43.4444233" lon="11.6290017"><ele>237.0</ele><time>2026-05-03T11:44:34.164Z</time></trkpt><trkpt lat="43.44428" lon="11.6291683"><ele>237.0</ele><time>2026-05-03T11:44:35.165Z</time></trkpt><trkpt lat="43.4441267" lon="11.629305"><ele>237.0</ele><time>2026-05-03T11:44:36.164Z</time></trkpt><trkpt lat="43.443985" lon="11.6294317"><ele>237.0</ele><time>2026-05-03T11:44:37.165Z</time></trkpt><trkpt lat="43.44384" lon="11.629555"><ele>237.0</ele><time>2026-05-03T11:44:38.164Z</time></trkpt><trkpt lat="43.4437017" lon="11.6296767"><ele>238.0</ele><time>2026-05-03T11:44:39.165Z</time></trkpt><trkpt lat="43.4435633" lon="11.6298033"><ele>239.0</ele><time>2026-05-03T11:44:40.164Z</time></trkpt><trkpt lat="43.4434233" lon="11.6299317"><ele>240.0</ele><time>2026-05-03T11:44:41.165Z</time></trkpt><trkpt lat="43.4432817" lon="11.63006"><ele>240.0</ele><time>2026-05-03T11:44:42.164Z</time></trkpt><trkpt lat="43.4431433" lon="11.63019"><ele>240.0</ele><time>2026-05-03T11:44:43.161Z</time></trkpt><trkpt lat="43.443005" lon="11.6303183"><ele>240.0</ele><time>2026-05-03T11:44:44.165Z</time></trkpt><trkpt lat="43.4428633" lon="11.6304467"><ele>238.66666666666669</ele><time>2026-05-03T11:44:45.162Z</time></trkpt><trkpt lat="43.442725" lon="11.6305833"><ele>237.33333333333334</ele><time>2026-05-03T11:44:46.165Z</time></trkpt><trkpt lat="43.4425933" lon="11.63073"><ele>236.0</ele><time>2026-05-03T11:44:47.166Z</time></trkpt><trkpt lat="43.4424833" lon="11.630905"><ele>236.0</ele><time>2026-05-03T11:44:48.164Z</time></trkpt><trkpt lat="43.4424017" lon="11.6310983"><ele>236.0</ele><time>2026-05-03T11:44:49.165Z</time></trkpt><trkpt lat="43.4423383" lon="11.6313067"><ele>236.0</ele><time>2026-05-03T11:44:50.165Z</time></trkpt><trkpt lat="43.4422933" lon="11.6315283"><ele>236.0</ele><time>2026-05-03T11:44:51.165Z</time></trkpt><trkpt lat="43.4422717" lon="11.63176"><ele>236.0</ele><time>2026-05-03T11:44:52.165Z</time></trkpt><trkpt lat="43.4422733" lon="11.631995"><ele>236.0</ele><time>2026-05-03T11:44:53.165Z</time></trkpt><trkpt lat="43.44229" lon="11.6322233"><ele>236.66666666666669</ele><time>2026-05-03T11:44:54.166Z</time></trkpt><trkpt lat="43.4423267" lon="11.632455"><ele>237.33333333333331</ele><time>2026-05-03T11:44:55.165Z</time></trkpt><trkpt lat="43.4423717" lon="11.6326867"><ele>238.0</ele><time>2026-05-03T11:44:56.162Z</time></trkpt><trkpt lat="43.4424083" lon="11.6329233"><ele>238.0</ele><time>2026-05-03T11:44:57.162Z</time></trkpt><trkpt lat="43.4424233" lon="11.6331667"><ele>238.0</ele><time>2026-05-03T11:44:58.162Z</time></trkpt><trkpt lat="43.4424033" lon="11.6334067"><ele>238.0</ele><time>2026-05-03T11:44:59.162Z</time></trkpt><trkpt lat="43.4423533" lon="11.6336383"><ele>238.33333333333331</ele><time>2026-05-03T11:45:00.163Z</time></trkpt><trkpt lat="43.4422733" lon="11.633855"><ele>238.66666666666669</ele><time>2026-05-03T11:45:01.162Z</time></trkpt><trkpt lat="43.4421633" lon="11.6340433"><ele>239.0</ele><time>2026-05-03T11:45:02.162Z</time></trkpt><trkpt lat="43.4420333" lon="11.6341983"><ele>239.0</ele><time>2026-05-03T11:45:03.166Z</time></trkpt><trkpt lat="43.4418833" lon="11.634325"><ele>239.0</ele><time>2026-05-03T11:45:04.166Z</time></trkpt><trkpt lat="43.441725" lon="11.634435"><ele>239.0</ele><time>2026-05-03T11:45:05.166Z</time></trkpt><trkpt lat="43.441565" lon="11.63454"><ele>239.0</ele><time>2026-05-03T11:45:06.162Z</time></trkpt><trkpt lat="43.441405" lon="11.6346517"><ele>239.0</ele><time>2026-05-03T11:45:07.165Z</time></trkpt><trkpt lat="43.4412517" lon="11.6347767"><ele>239.0</ele><time>2026-05-03T11:45:08.165Z</time></trkpt><trkpt lat="43.4411017" lon="11.6349167"><ele>240.33333333333334</ele><time>2026-05-03T11:45:09.165Z</time></trkpt><trkpt lat="43.44096" lon="11.6350717"><ele>241.66666666666669</ele><time>2026-05-03T11:45:10.165Z</time></trkpt><trkpt lat="43.440825" lon="11.6352417"><ele>243.0</ele><time>2026-05-03T11:45:11.165Z</time></trkpt><trkpt lat="43.440685" lon="11.6354217"><ele>243.0</ele><time>2026-05-03T11:45:12.165Z</time></trkpt><trkpt lat="43.4405467" lon="11.6356217"><ele>243.0</ele><time>2026-05-03T11:45:13.166Z</time></trkpt><trkpt lat="43.4404067" lon="11.63583"><ele>243.0</ele><time>2026-05-03T11:45:14.165Z</time></trkpt><trkpt lat="43.4402633" lon="11.6360483"><ele>243.0</ele><time>2026-05-03T11:45:15.165Z</time></trkpt><trkpt lat="43.4401217" lon="11.6362633"><ele>243.0</ele><time>2026-05-03T11:45:16.165Z</time></trkpt><trkpt lat="43.4399833" lon="11.6364767"><ele>243.0</ele><time>2026-05-03T11:45:17.165Z</time></trkpt><trkpt lat="43.439845" lon="11.636685"><ele>243.0</ele><time>2026-05-03T11:45:18.165Z</time></trkpt><trkpt lat="43.43971" lon="11.6368917"><ele>243.0</ele><time>2026-05-03T11:45:19.165Z</time></trkpt><trkpt lat="43.439575" lon="11.6370983"><ele>243.0</ele><time>2026-05-03T11:45:20.166Z</time></trkpt><trkpt lat="43.4394383" lon="11.63731"><ele>243.0</ele><time>2026-05-03T11:45:21.165Z</time></trkpt><trkpt lat="43.4393033" lon="11.6375233"><ele>243.0</ele><time>2026-05-03T11:45:22.165Z</time></trkpt><trkpt lat="43.4391733" lon="11.6377483"><ele>243.0</ele><time>2026-05-03T11:45:23.165Z</time></trkpt><trkpt lat="43.4390517" lon="11.63799"><ele>243.0</ele><time>2026-05-03T11:45:24.167Z</time></trkpt><trkpt lat="43.4389433" lon="11.63827"><ele>243.0</ele><time>2026-05-03T11:45:25.165Z</time></trkpt><trkpt lat="43.4388467" lon="11.6385817"><ele>249.0</ele><time>2026-05-03T11:45:26.163Z</time></trkpt><trkpt lat="43.438755" lon="11.6389233"><ele>255.0</ele><time>2026-05-03T11:45:27.163Z</time></trkpt><trkpt lat="43.438665" lon="11.6392833"><ele>251.5</ele><time>2026-05-03T11:45:28.163Z</time></trkpt><trkpt lat="43.43857" lon="11.639655"><ele>248.0</ele><time>2026-05-03T11:45:29.165Z</time></trkpt><trkpt lat="43.43847" lon="11.6400267"><ele>247.0</ele><time>2026-05-03T11:45:30.162Z</time></trkpt><trkpt lat="43.4383683" lon="11.6403983"><ele>246.0</ele><time>2026-05-03T11:45:31.162Z</time></trkpt><trkpt lat="43.4382717" lon="11.64077"><ele>245.5</ele><time>2026-05-03T11:45:32.162Z</time></trkpt><trkpt lat="43.438175" lon="11.641135"><ele>245.0</ele><time>2026-05-03T11:45:33.169Z</time></trkpt><trkpt lat="43.4380817" lon="11.6414967"><ele>245.0</ele><time>2026-05-03T11:45:34.165Z</time></trkpt><trkpt lat="43.43799" lon="11.6418483"><ele>245.0</ele><time>2026-05-03T11:45:35.165Z</time></trkpt><trkpt lat="43.4379" lon="11.642195"><ele>247.0</ele><time>2026-05-03T11:45:36.165Z</time></trkpt><trkpt lat="43.4378133" lon="11.6425283"><ele>249.0</ele><time>2026-05-03T11:45:37.162Z</time></trkpt><trkpt lat="43.4377383" lon="11.64285"><ele>249.0</ele><time>2026-05-03T11:45:38.165Z</time></trkpt><trkpt lat="43.4376767" lon="11.643175"><ele>249.0</ele><time>2026-05-03T11:45:39.165Z</time></trkpt><trkpt lat="43.437635" lon="11.6435067"><ele>251.5</ele><time>2026-05-03T11:45:40.166Z</time></trkpt><trkpt lat="43.437625" lon="11.6438433"><ele>254.0</ele><time>2026-05-03T11:45:41.165Z</time></trkpt><trkpt lat="43.43764" lon="11.64418"><ele>255.5</ele><time>2026-05-03T11:45:42.166Z</time></trkpt><trkpt lat="43.4376733" lon="11.6445133"><ele>257.0</ele><time>2026-05-03T11:45:43.165Z</time></trkpt><trkpt lat="43.4377267" lon="11.6448283"><ele>257.0</ele><time>2026-05-03T11:45:44.166Z</time></trkpt><trkpt lat="43.43779" lon="11.64512"><ele>257.0</ele><time>2026-05-03T11:45:45.165Z</time></trkpt><trkpt lat="43.4378417" lon="11.645405"><ele>257.0</ele><time>2026-05-03T11:45:46.165Z</time></trkpt><trkpt lat="43.4378717" lon="11.645695"><ele>257.0</ele><time>2026-05-03T11:45:47.165Z</time></trkpt><trkpt lat="43.4378717" lon="11.645995"><ele>257.0</ele><time>2026-05-03T11:45:48.165Z</time></trkpt><trkpt lat="43.4378583" lon="11.6463117"><ele>257.0</ele><time>2026-05-03T11:45:49.165Z</time></trkpt><trkpt lat="43.4378167" lon="11.6466367"><ele>256.5</ele><time>2026-05-03T11:45:50.165Z</time></trkpt><trkpt lat="43.437745" lon="11.64695"><ele>256.0</ele><time>2026-05-03T11:45:51.165Z</time></trkpt><trkpt lat="43.4376483" lon="11.6472533"><ele>256.5</ele><time>2026-05-03T11:45:52.165Z</time></trkpt><trkpt lat="43.4375417" lon="11.6475467"><ele>257.0</ele><time>2026-05-03T11:45:53.165Z</time></trkpt><trkpt lat="43.4374333" lon="11.6478433"><ele>257.0</ele><time>2026-05-03T11:45:54.166Z</time></trkpt><trkpt lat="43.43732" lon="11.6481383"><ele>257.0</ele><time>2026-05-03T11:45:55.163Z</time></trkpt><trkpt lat="43.4372083" lon="11.64843"><ele>259.5</ele><time>2026-05-03T11:45:56.164Z</time></trkpt><trkpt lat="43.4371" lon="11.6487133"><ele>262.0</ele><time>2026-05-03T11:45:57.164Z</time></trkpt><trkpt lat="43.43699" lon="11.6489967"><ele>262.0</ele><time>2026-05-03T11:45:58.166Z</time></trkpt><trkpt lat="43.4368833" lon="11.649275"><ele>262.0</ele><time>2026-05-03T11:45:59.163Z</time></trkpt><trkpt lat="43.4367767" lon="11.649555"><ele>264.5</ele><time>2026-05-03T11:46:00.162Z</time></trkpt><trkpt lat="43.43667" lon="11.6498333"><ele>267.0</ele><time>2026-05-03T11:46:01.162Z</time></trkpt><trkpt lat="43.4365667" lon="11.65011"><ele>268.3333333333333</ele><time>2026-05-03T11:46:02.163Z</time></trkpt><trkpt lat="43.4364633" lon="11.6503833"><ele>269.66666666666663</ele><time>2026-05-03T11:46:03.162Z</time></trkpt><trkpt lat="43.4363667" lon="11.6506583"><ele>271.0</ele><time>2026-05-03T11:46:04.165Z</time></trkpt><trkpt lat="43.436275" lon="11.6509317"><ele>272.0</ele><time>2026-05-03T11:46:05.165Z</time></trkpt><trkpt lat="43.4361933" lon="11.6512083"><ele>273.0</ele><time>2026-05-03T11:46:06.165Z</time></trkpt><trkpt lat="43.4361217" lon="11.6514833"><ele>274.0</ele><time>2026-05-03T11:46:07.165Z</time></trkpt><trkpt lat="43.4360583" lon="11.6517667"><ele>273.0</ele><time>2026-05-03T11:46:08.164Z</time></trkpt><trkpt lat="43.4360033" lon="11.6520517"><ele>272.0</ele><time>2026-05-03T11:46:09.164Z</time></trkpt><trkpt lat="43.43595" lon="11.6523367"><ele>271.0</ele><time>2026-05-03T11:46:10.164Z</time></trkpt><trkpt lat="43.4359" lon="11.6526233"><ele>270.3333333333333</ele><time>2026-05-03T11:46:11.165Z</time></trkpt><trkpt lat="43.4358517" lon="11.65291"><ele>269.6666666666667</ele><time>2026-05-03T11:46:12.164Z</time></trkpt><trkpt lat="43.435805" lon="11.6532"><ele>269.0</ele><time>2026-05-03T11:46:13.165Z</time></trkpt><trkpt lat="43.4357567" lon="11.6534883"><ele>268.33333333333337</ele><time>2026-05-03T11:46:14.164Z</time></trkpt><trkpt lat="43.4357083" lon="11.6537767"><ele>267.6666666666667</ele><time>2026-05-03T11:46:15.164Z</time></trkpt><trkpt lat="43.4356583" lon="11.6540667"><ele>267.0</ele><time>2026-05-03T11:46:16.164Z</time></trkpt><trkpt lat="43.435605" lon="11.6543583"><ele>267.3333333333333</ele><time>2026-05-03T11:46:17.164Z</time></trkpt><trkpt lat="43.4355483" lon="11.6546467"><ele>267.66666666666663</ele><time>2026-05-03T11:46:18.164Z</time></trkpt><trkpt lat="43.4354883" lon="11.6549383"><ele>268.0</ele><time>2026-05-03T11:46:19.165Z</time></trkpt><trkpt lat="43.4354283" lon="11.6552333"><ele>265.0</ele><time>2026-05-03T11:46:20.164Z</time></trkpt><trkpt lat="43.4353667" lon="11.6555317"><ele>262.0</ele><time>2026-05-03T11:46:21.164Z</time></trkpt><trkpt lat="43.4353017" lon="11.6558333"><ele>260.3333333333333</ele><time>2026-05-03T11:46:22.164Z</time></trkpt><trkpt lat="43.4352367" lon="11.656125"><ele>258.6666666666667</ele><time>2026-05-03T11:46:23.164Z</time></trkpt><trkpt lat="43.4351733" lon="11.656405"><ele>257.0</ele><time>2026-05-03T11:46:24.165Z</time></trkpt><trkpt lat="43.4351167" lon="11.6566767"><ele>257.0</ele><time>2026-05-03T11:46:25.164Z</time></trkpt><trkpt lat="43.4350683" lon="11.6569417"><ele>257.0</ele><time>2026-05-03T11:46:26.164Z</time></trkpt><trkpt lat="43.4350417" lon="11.6572117"><ele>257.0</ele><time>2026-05-03T11:46:27.164Z</time></trkpt><trkpt lat="43.435045" lon="11.6574883"><ele>256.33333333333337</ele><time>2026-05-03T11:46:28.165Z</time></trkpt><trkpt lat="43.4350783" lon="11.6577633"><ele>255.66666666666669</ele><time>2026-05-03T11:46:29.165Z</time></trkpt><trkpt lat="43.4351383" lon="11.6580283"><ele>255.0</ele><time>2026-05-03T11:46:30.166Z</time></trkpt><trkpt lat="43.4352283" lon="11.6582733"><ele>254.66666666666669</ele><time>2026-05-03T11:46:31.164Z</time></trkpt><trkpt lat="43.43534" lon="11.658495"><ele>254.33333333333334</ele><time>2026-05-03T11:46:32.164Z</time></trkpt><trkpt lat="43.4354717" lon="11.6586833"><ele>254.0</ele><time>2026-05-03T11:46:33.165Z</time></trkpt><trkpt lat="43.4356067" lon="11.6588417"><ele>254.0</ele><time>2026-05-03T11:46:34.164Z</time></trkpt><trkpt lat="43.4357483" lon="11.65897"><ele>254.0</ele><time>2026-05-03T11:46:35.165Z</time></trkpt><trkpt lat="43.4358883" lon="11.6590683"><ele>254.0</ele><time>2026-05-03T11:46:36.165Z</time></trkpt><trkpt lat="43.43601" lon="11.65915"><ele>254.00000000000003</ele><time>2026-05-03T11:46:37.164Z</time></trkpt><trkpt lat="43.436095" lon="11.6592367"><ele>254.0</ele><time>2026-05-03T11:46:38.165Z</time></trkpt><trkpt lat="43.43614" lon="11.65934"><ele>254.0</ele><time>2026-05-03T11:46:39.165Z</time></trkpt><trkpt lat="43.43616" lon="11.6594483"><ele>254.0</ele><time>2026-05-03T11:46:40.165Z</time></trkpt><trkpt lat="43.4361483" lon="11.6595483"><ele>254.00000000000003</ele><time>2026-05-03T11:46:41.165Z</time></trkpt><trkpt lat="43.4360867" lon="11.65961"><ele>254.0</ele><time>2026-05-03T11:46:42.165Z</time></trkpt><trkpt lat="43.4358967" lon="11.659655"><ele>253.66666666666669</ele><time>2026-05-03T11:46:43.164Z</time></trkpt><trkpt lat="43.4357217" lon="11.65971"><ele>253.33333333333331</ele><time>2026-05-03T11:46:44.165Z</time></trkpt><trkpt lat="43.4355567" lon="11.6597733"><ele>253.0</ele><time>2026-05-03T11:46:45.166Z</time></trkpt><trkpt lat="43.43538" lon="11.65984"><ele>253.66666666666666</ele><time>2026-05-03T11:46:46.165Z</time></trkpt><trkpt lat="43.4352" lon="11.6599133"><ele>254.33333333333331</ele><time>2026-05-03T11:46:47.165Z</time></trkpt><trkpt lat="43.4350117" lon="11.6599867"><ele>255.0</ele><time>2026-05-03T11:46:48.165Z</time></trkpt><trkpt lat="43.4348167" lon="11.66006"><ele>254.66666666666669</ele><time>2026-05-03T11:46:49.165Z</time></trkpt><trkpt lat="43.4346167" lon="11.6601383"><ele>254.33333333333334</ele><time>2026-05-03T11:46:50.164Z</time></trkpt><trkpt lat="43.4344083" lon="11.66022"><ele>254.0</ele><time>2026-05-03T11:46:51.165Z</time></trkpt><trkpt lat="43.4341933" lon="11.6603033"><ele>255.5</ele><time>2026-05-03T11:46:52.168Z</time></trkpt><trkpt lat="43.4339717" lon="11.66039"><ele>257.0</ele><time>2026-05-03T11:46:53.165Z</time></trkpt><trkpt lat="43.433745" lon="11.6604717"><ele>257.0</ele><time>2026-05-03T11:46:54.165Z</time></trkpt><trkpt lat="43.433515" lon="11.6605533"><ele>257.0</ele><time>2026-05-03T11:46:55.164Z</time></trkpt><trkpt lat="43.4332833" lon="11.66063"><ele>257.0</ele><time>2026-05-03T11:46:56.164Z</time></trkpt><trkpt lat="43.4330467" lon="11.66071"><ele>257.0</ele><time>2026-05-03T11:46:57.164Z</time></trkpt><trkpt lat="43.4328133" lon="11.66079"><ele>256.5</ele><time>2026-05-03T11:46:58.165Z</time></trkpt><trkpt lat="43.4325817" lon="11.660865"><ele>256.0</ele><time>2026-05-03T11:46:59.165Z</time></trkpt><trkpt lat="43.4323467" lon="11.6609383"><ele>256.5</ele><time>2026-05-03T11:47:00.165Z</time></trkpt><trkpt lat="43.4321083" lon="11.6609983"><ele>257.0</ele><time>2026-05-03T11:47:01.165Z</time></trkpt><trkpt lat="43.43187" lon="11.66104"><ele>257.0</ele><time>2026-05-03T11:47:02.166Z</time></trkpt><trkpt lat="43.4316333" lon="11.6610767"><ele>257.0</ele><time>2026-05-03T11:47:03.165Z</time></trkpt><trkpt lat="43.4314" lon="11.661105"><ele>257.33333333333337</ele><time>2026-05-03T11:47:04.164Z</time></trkpt><trkpt lat="43.4311767" lon="11.6611333"><ele>257.6666666666667</ele><time>2026-05-03T11:47:05.165Z</time></trkpt><trkpt lat="43.430965" lon="11.66116"><ele>258.0</ele><time>2026-05-03T11:47:06.165Z</time></trkpt><trkpt lat="43.430765" lon="11.6611867"><ele>258.0</ele><time>2026-05-03T11:47:07.165Z</time></trkpt><trkpt lat="43.430575" lon="11.661225"><ele>258.0</ele><time>2026-05-03T11:47:08.165Z</time></trkpt><trkpt lat="43.4303933" lon="11.6612817"><ele>258.0</ele><time>2026-05-03T11:47:09.165Z</time></trkpt><trkpt lat="43.430215" lon="11.6613617"><ele>257.6666666666667</ele><time>2026-05-03T11:47:10.164Z</time></trkpt><trkpt lat="43.4300433" lon="11.6614733"><ele>257.33333333333337</ele><time>2026-05-03T11:47:11.165Z</time></trkpt><trkpt lat="43.4298733" lon="11.661615"><ele>257.0</ele><time>2026-05-03T11:47:12.166Z</time></trkpt><trkpt lat="43.4297017" lon="11.661775"><ele>257.33333333333337</ele><time>2026-05-03T11:47:13.165Z</time></trkpt><trkpt lat="43.4295317" lon="11.6619317"><ele>257.6666666666667</ele><time>2026-05-03T11:47:14.164Z</time></trkpt><trkpt lat="43.4293517" lon="11.6620967"><ele>258.0</ele><time>2026-05-03T11:47:15.164Z</time></trkpt><trkpt lat="43.429165" lon="11.662275"><ele>258.0</ele><time>2026-05-03T11:47:16.166Z</time></trkpt><trkpt lat="43.4289717" lon="11.6624483"><ele>258.0</ele><time>2026-05-03T11:47:17.166Z</time></trkpt><trkpt lat="43.4287617" lon="11.6626017"><ele>257.5</ele><time>2026-05-03T11:47:18.165Z</time></trkpt><trkpt lat="43.428535" lon="11.6627467"><ele>257.0</ele><time>2026-05-03T11:47:19.165Z</time></trkpt><trkpt lat="43.4283033" lon="11.66289"><ele>258.5</ele><time>2026-05-03T11:47:20.164Z</time></trkpt><trkpt lat="43.4280667" lon="11.66304"><ele>260.0</ele><time>2026-05-03T11:47:21.165Z</time></trkpt><trkpt lat="43.427825" lon="11.663195"><ele>260.5</ele><time>2026-05-03T11:47:22.165Z</time></trkpt><trkpt lat="43.4275767" lon="11.6633567"><ele>261.0</ele><time>2026-05-03T11:47:23.165Z</time></trkpt><trkpt lat="43.4273317" lon="11.6635167"><ele>263.0</ele><time>2026-05-03T11:47:24.165Z</time></trkpt><trkpt lat="43.42709" lon="11.6636683"><ele>265.0</ele><time>2026-05-03T11:47:25.162Z</time></trkpt><trkpt lat="43.4268533" lon="11.6638183"><ele>265.0</ele><time>2026-05-03T11:47:26.162Z</time></trkpt><trkpt lat="43.4266217" lon="11.6639617"><ele>265.0</ele><time>2026-05-03T11:47:27.162Z</time></trkpt><trkpt lat="43.4263867" lon="11.6640917"><ele>265.0</ele><time>2026-05-03T11:47:28.162Z</time></trkpt><trkpt lat="43.4261467" lon="11.664205"><ele>265.0</ele><time>2026-05-03T11:47:29.162Z</time></trkpt><trkpt lat="43.4259033" lon="11.6642967"><ele>265.0</ele><time>2026-05-03T11:47:30.164Z</time></trkpt><trkpt lat="43.4256567" lon="11.66438"><ele>265.0</ele><time>2026-05-03T11:47:31.162Z</time></trkpt><trkpt lat="43.4254117" lon="11.6644633"><ele>267.0</ele><time>2026-05-03T11:47:32.163Z</time></trkpt><trkpt lat="43.4251667" lon="11.664545"><ele>269.0</ele><time>2026-05-03T11:47:33.165Z</time></trkpt><trkpt lat="43.4249283" lon="11.664625"><ele>269.0</ele><time>2026-05-03T11:47:34.165Z</time></trkpt><trkpt lat="43.424705" lon="11.6647033"><ele>269.0</ele><time>2026-05-03T11:47:35.165Z</time></trkpt><trkpt lat="43.4244967" lon="11.66478"><ele>269.0</ele><time>2026-05-03T11:47:36.166Z</time></trkpt><trkpt lat="43.424305" lon="11.6648683"><ele>268.33333333333337</ele><time>2026-05-03T11:47:37.167Z</time></trkpt><trkpt lat="43.4241317" lon="11.6649867"><ele>267.6666666666667</ele><time>2026-05-03T11:47:38.165Z</time></trkpt><trkpt lat="43.4239717" lon="11.6651567"><ele>267.0</ele><time>2026-05-03T11:47:39.164Z</time></trkpt><trkpt lat="43.4238183" lon="11.665365"><ele>269.0</ele><time>2026-05-03T11:47:40.166Z</time></trkpt><trkpt lat="43.4236683" lon="11.6655933"><ele>271.0</ele><time>2026-05-03T11:47:41.165Z</time></trkpt><trkpt lat="43.4235233" lon="11.6658367"><ele>271.0</ele><time>2026-05-03T11:47:42.165Z</time></trkpt><trkpt lat="43.423385" lon="11.6660933"><ele>271.0</ele><time>2026-05-03T11:47:43.165Z</time></trkpt><trkpt lat="43.423255" lon="11.666365"><ele>273.0</ele><time>2026-05-03T11:47:44.165Z</time></trkpt><trkpt lat="43.423125" lon="11.6666383"><ele>275.0</ele><time>2026-05-03T11:47:45.165Z</time></trkpt><trkpt lat="43.4229933" lon="11.666915"><ele>274.5</ele><time>2026-05-03T11:47:46.165Z</time></trkpt><trkpt lat="43.422865" lon="11.6671933"><ele>274.0</ele><time>2026-05-03T11:47:47.165Z</time></trkpt><trkpt lat="43.422735" lon="11.6674667"><ele>274.0</ele><time>2026-05-03T11:47:48.162Z</time></trkpt><trkpt lat="43.42261" lon="11.6677333"><ele>274.0</ele><time>2026-05-03T11:47:49.165Z</time></trkpt><trkpt lat="43.4224867" lon="11.6679967"><ele>275.66666666666663</ele><time>2026-05-03T11:47:50.165Z</time></trkpt><trkpt lat="43.4223733" lon="11.668265"><ele>277.3333333333333</ele><time>2026-05-03T11:47:51.165Z</time></trkpt><trkpt lat="43.4222767" lon="11.66854"><ele>279.0</ele><time>2026-05-03T11:47:52.165Z</time></trkpt><trkpt lat="43.422195" lon="11.66883"><ele>278.0</ele><time>2026-05-03T11:47:53.165Z</time></trkpt><trkpt lat="43.4221267" lon="11.669125"><ele>277.0</ele><time>2026-05-03T11:47:54.165Z</time></trkpt><trkpt lat="43.4220833" lon="11.6694233"><ele>276.0</ele><time>2026-05-03T11:47:55.165Z</time></trkpt><trkpt lat="43.4220683" lon="11.6697333"><ele>276.0</ele><time>2026-05-03T11:47:56.165Z</time></trkpt><trkpt lat="43.4220533" lon="11.670045"><ele>276.0</ele><time>2026-05-03T11:47:57.165Z</time></trkpt><trkpt lat="43.4220133" lon="11.670345"><ele>276.0</ele><time>2026-05-03T11:47:58.165Z</time></trkpt><trkpt lat="43.4219483" lon="11.67064"><ele>276.5</ele><time>2026-05-03T11:47:59.165Z</time></trkpt><trkpt lat="43.421855" lon="11.67092"><ele>277.0</ele><time>2026-05-03T11:48:00.165Z</time></trkpt><trkpt lat="43.4217517" lon="11.6711983"><ele>279.5</ele><time>2026-05-03T11:48:01.165Z</time></trkpt><trkpt lat="43.421645" lon="11.67148"><ele>282.0</ele><time>2026-05-03T11:48:02.165Z</time></trkpt><trkpt lat="43.421545" lon="11.6717533"><ele>280.3333333333333</ele><time>2026-05-03T11:48:03.17Z</time></trkpt><trkpt lat="43.4214483" lon="11.6720033"><ele>278.66666666666663</ele><time>2026-05-03T11:48:04.165Z</time></trkpt><trkpt lat="43.4213567" lon="11.67224"><ele>277.0</ele><time>2026-05-03T11:48:05.165Z</time></trkpt><trkpt lat="43.4212783" lon="11.67248"><ele>277.0</ele><time>2026-05-03T11:48:06.162Z</time></trkpt><trkpt lat="43.4212167" lon="11.6727317"><ele>277.0</ele><time>2026-05-03T11:48:07.165Z</time></trkpt><trkpt lat="43.4211867" lon="11.6729933"><ele>277.0</ele><time>2026-05-03T11:48:08.165Z</time></trkpt><trkpt lat="43.42119" lon="11.6732683"><ele>278.3333333333333</ele><time>2026-05-03T11:48:09.165Z</time></trkpt><trkpt lat="43.4212233" lon="11.6735533"><ele>279.6666666666667</ele><time>2026-05-03T11:48:10.165Z</time></trkpt><trkpt lat="43.4212783" lon="11.6738483"><ele>281.0</ele><time>2026-05-03T11:48:11.165Z</time></trkpt><trkpt lat="43.421345" lon="11.6741517"><ele>283.5</ele><time>2026-05-03T11:48:12.165Z</time></trkpt><trkpt lat="43.421415" lon="11.6744667"><ele>286.0</ele><time>2026-05-03T11:48:13.164Z</time></trkpt><trkpt lat="43.421475" lon="11.6747767"><ele>286.0</ele><time>2026-05-03T11:48:14.165Z</time></trkpt><trkpt lat="43.4215283" lon="11.675085"><ele>286.0</ele><time>2026-05-03T11:48:15.165Z</time></trkpt><trkpt lat="43.4215717" lon="11.6753967"><ele>286.0</ele><time>2026-05-03T11:48:16.164Z</time></trkpt><trkpt lat="43.4216067" lon="11.6757133"><ele>286.0</ele><time>2026-05-03T11:48:17.165Z</time></trkpt><trkpt lat="43.4216433" lon="11.67603"><ele>284.5</ele><time>2026-05-03T11:48:18.165Z</time></trkpt><trkpt lat="43.4216833" lon="11.6763433"><ele>283.0</ele><time>2026-05-03T11:48:19.165Z</time></trkpt><trkpt lat="43.4217217" lon="11.6766567"><ele>284.0</ele><time>2026-05-03T11:48:20.165Z</time></trkpt><trkpt lat="43.42176" lon="11.6769683"><ele>285.0</ele><time>2026-05-03T11:48:21.164Z</time></trkpt><trkpt lat="43.4217967" lon="11.6772767"><ele>285.0</ele><time>2026-05-03T11:48:22.167Z</time></trkpt><trkpt lat="43.42183" lon="11.6775867"><ele>285.0</ele><time>2026-05-03T11:48:23.165Z</time></trkpt><trkpt lat="43.4218567" lon="11.6778983"><ele>286.0</ele><time>2026-05-03T11:48:24.165Z</time></trkpt><trkpt lat="43.4218783" lon="11.6782083"><ele>287.0</ele><time>2026-05-03T11:48:25.165Z</time></trkpt><trkpt lat="43.4218917" lon="11.6785183"><ele>287.33333333333337</ele><time>2026-05-03T11:48:26.165Z</time></trkpt><trkpt lat="43.421905" lon="11.67882"><ele>287.6666666666667</ele><time>2026-05-03T11:48:27.166Z</time></trkpt><trkpt lat="43.4219167" lon="11.6791117"><ele>288.0</ele><time>2026-05-03T11:48:28.166Z</time></trkpt><trkpt lat="43.4219333" lon="11.67939"><ele>288.0</ele><time>2026-05-03T11:48:29.165Z</time></trkpt><trkpt lat="43.4219717" lon="11.67966"><ele>288.0</ele><time>2026-05-03T11:48:30.165Z</time></trkpt><trkpt lat="43.4220383" lon="11.6799267"><ele>288.0</ele><time>2026-05-03T11:48:31.165Z</time></trkpt><trkpt lat="43.4221533" lon="11.680185"><ele>289.5</ele><time>2026-05-03T11:48:32.165Z</time></trkpt><trkpt lat="43.422295" lon="11.68043"><ele>291.0</ele><time>2026-05-03T11:48:33.166Z</time></trkpt><trkpt lat="43.422445" lon="11.6806733"><ele>291.0</ele><time>2026-05-03T11:48:34.165Z</time></trkpt><trkpt lat="43.4225933" lon="11.6809333"><ele>291.0</ele><time>2026-05-03T11:48:35.165Z</time></trkpt><trkpt lat="43.422735" lon="11.6811967"><ele>291.0</ele><time>2026-05-03T11:48:36.165Z</time></trkpt><trkpt lat="43.4228717" lon="11.68146"><ele>291.0</ele><time>2026-05-03T11:48:37.165Z</time></trkpt><trkpt lat="43.423005" lon="11.681725"><ele>292.0</ele><time>2026-05-03T11:48:38.165Z</time></trkpt><trkpt lat="43.4231317" lon="11.6819967"><ele>293.0</ele><time>2026-05-03T11:48:39.165Z</time></trkpt><trkpt lat="43.423245" lon="11.6822767"><ele>293.0</ele><time>2026-05-03T11:48:40.165Z</time></trkpt><trkpt lat="43.4233433" lon="11.6825583"><ele>293.0</ele><time>2026-05-03T11:48:41.165Z</time></trkpt><trkpt lat="43.42343" lon="11.6828317"><ele>293.0</ele><time>2026-05-03T11:48:42.162Z</time></trkpt><trkpt lat="43.4234983" lon="11.6830967"><ele>293.0</ele><time>2026-05-03T11:48:43.162Z</time></trkpt><trkpt lat="43.4235467" lon="11.6833683"><ele>293.0</ele><time>2026-05-03T11:48:44.165Z</time></trkpt><trkpt lat="43.42357" lon="11.6836483"><ele>293.0</ele><time>2026-05-03T11:48:45.165Z</time></trkpt><trkpt lat="43.4235867" lon="11.6839317"><ele>293.0</ele><time>2026-05-03T11:48:46.165Z</time></trkpt><trkpt lat="43.4236133" lon="11.68421"><ele>293.0</ele><time>2026-05-03T11:48:47.165Z</time></trkpt><trkpt lat="43.4236717" lon="11.6844933"><ele>293.0</ele><time>2026-05-03T11:48:48.166Z</time></trkpt><trkpt lat="43.423755" lon="11.68479"><ele>296.5</ele><time>2026-05-03T11:48:49.165Z</time></trkpt><trkpt lat="43.423845" lon="11.6850983"><ele>300.0</ele><time>2026-05-03T11:48:50.166Z</time></trkpt><trkpt lat="43.4239383" lon="11.685415"><ele>300.0</ele><time>2026-05-03T11:48:51.166Z</time></trkpt><trkpt lat="43.4240317" lon="11.6857383"><ele>300.0</ele><time>2026-05-03T11:48:52.165Z</time></trkpt><trkpt lat="43.42413" lon="11.6860633"><ele>300.0</ele><time>2026-05-03T11:48:53.165Z</time></trkpt><trkpt lat="43.424225" lon="11.6863867"><ele>300.0</ele><time>2026-05-03T11:48:54.165Z</time></trkpt><trkpt lat="43.42432" lon="11.6866983"><ele>299.5</ele><time>2026-05-03T11:48:55.166Z</time></trkpt><trkpt lat="43.4244067" lon="11.6869917"><ele>299.0</ele><time>2026-05-03T11:48:56.165Z</time></trkpt><trkpt lat="43.4244867" lon="11.6872733"><ele>299.0</ele><time>2026-05-03T11:48:57.165Z</time></trkpt><trkpt lat="43.424545" lon="11.6875317"><ele>299.0</ele><time>2026-05-03T11:48:58.162Z</time></trkpt><trkpt lat="43.4245733" lon="11.6877767"><ele>299.0</ele><time>2026-05-03T11:48:59.164Z</time></trkpt><trkpt lat="43.4245683" lon="11.6880233"><ele>299.6666666666667</ele><time>2026-05-03T11:49:00.164Z</time></trkpt><trkpt lat="43.424525" lon="11.6882717"><ele>300.3333333333333</ele><time>2026-05-03T11:49:01.165Z</time></trkpt><trkpt lat="43.4244533" lon="11.688525"><ele>301.0</ele><time>2026-05-03T11:49:02.162Z</time></trkpt><trkpt lat="43.424385" lon="11.6887917"><ele>301.66666666666663</ele><time>2026-05-03T11:49:03.166Z</time></trkpt><trkpt lat="43.4243517" lon="11.68907"><ele>302.3333333333333</ele><time>2026-05-03T11:49:04.164Z</time></trkpt><trkpt lat="43.4243583" lon="11.6893483"><ele>303.0</ele><time>2026-05-03T11:49:05.165Z</time></trkpt><trkpt lat="43.424415" lon="11.68962"><ele>303.6666666666667</ele><time>2026-05-03T11:49:06.165Z</time></trkpt><trkpt lat="43.4245117" lon="11.6898733"><ele>304.33333333333337</ele><time>2026-05-03T11:49:07.164Z</time></trkpt><trkpt lat="43.424615" lon="11.690125"><ele>305.0</ele><time>2026-05-03T11:49:08.164Z</time></trkpt><trkpt lat="43.4246967" lon="11.6903867"><ele>306.33333333333337</ele><time>2026-05-03T11:49:09.164Z</time></trkpt><trkpt lat="43.4247483" lon="11.6906567"><ele>307.6666666666667</ele><time>2026-05-03T11:49:10.164Z</time></trkpt><trkpt lat="43.4247483" lon="11.6909233"><ele>309.0</ele><time>2026-05-03T11:49:11.164Z</time></trkpt><trkpt lat="43.4247017" lon="11.69118"><ele>308.6666666666667</ele><time>2026-05-03T11:49:12.161Z</time></trkpt><trkpt lat="43.4246167" lon="11.69144"><ele>308.33333333333337</ele><time>2026-05-03T11:49:13.164Z</time></trkpt><trkpt lat="43.424515" lon="11.69172"><ele>308.0</ele><time>2026-05-03T11:49:14.164Z</time></trkpt><trkpt lat="43.4244017" lon="11.692005"><ele>308.0</ele><time>2026-05-03T11:49:15.164Z</time></trkpt><trkpt lat="43.4242867" lon="11.6922883"><ele>308.0</ele><time>2026-05-03T11:49:16.164Z</time></trkpt><trkpt lat="43.4241583" lon="11.6925617"><ele>310.0</ele><time>2026-05-03T11:49:17.165Z</time></trkpt><trkpt lat="43.4240133" lon="11.6928167"><ele>312.0</ele><time>2026-05-03T11:49:18.164Z</time></trkpt><trkpt lat="43.4238633" lon="11.6930483"><ele>311.0</ele><time>2026-05-03T11:49:19.164Z</time></trkpt><trkpt lat="43.4237217" lon="11.69328"><ele>310.0</ele><time>2026-05-03T11:49:20.164Z</time></trkpt><trkpt lat="43.4235933" lon="11.6935183"><ele>309.0</ele><time>2026-05-03T11:49:21.163Z</time></trkpt><trkpt lat="43.42349" lon="11.6937917"><ele>309.0</ele><time>2026-05-03T11:49:22.164Z</time></trkpt><trkpt lat="43.42341" lon="11.6940917"><ele>309.0</ele><time>2026-05-03T11:49:23.165Z</time></trkpt><trkpt lat="43.4233383" lon="11.6944083"><ele>311.0</ele><time>2026-05-03T11:49:24.166Z</time></trkpt><trkpt lat="43.4232617" lon="11.69473"><ele>313.0</ele><time>2026-05-03T11:49:25.164Z</time></trkpt><trkpt lat="43.4231833" lon="11.6950517"><ele>315.5</ele><time>2026-05-03T11:49:26.164Z</time></trkpt><trkpt lat="43.423115" lon="11.6953633"><ele>318.0</ele><time>2026-05-03T11:49:27.161Z</time></trkpt><trkpt lat="43.4230617" lon="11.6956583"><ele>318.0</ele><time>2026-05-03T11:49:28.161Z</time></trkpt><trkpt lat="43.4230317" lon="11.6959483"><ele>318.0</ele><time>2026-05-03T11:49:29.162Z</time></trkpt><trkpt lat="43.4230417" lon="11.6962533"><ele>318.0</ele><time>2026-05-03T11:49:30.162Z</time></trkpt><trkpt lat="43.4230783" lon="11.6965717"><ele>317.5</ele><time>2026-05-03T11:49:31.162Z</time></trkpt><trkpt lat="43.4231333" lon="11.6969033"><ele>317.0</ele><time>2026-05-03T11:49:32.164Z</time></trkpt><trkpt lat="43.4231883" lon="11.6972467"><ele>317.0</ele><time>2026-05-03T11:49:33.163Z</time></trkpt><trkpt lat="43.4232383" lon="11.6975967"><ele>317.0</ele><time>2026-05-03T11:49:34.163Z</time></trkpt><trkpt lat="43.4232783" lon="11.6979517"><ele>318.0</ele><time>2026-05-03T11:49:35.162Z</time></trkpt><trkpt lat="43.42329" lon="11.6983067"><ele>319.0</ele><time>2026-05-03T11:49:36.162Z</time></trkpt><trkpt lat="43.4233033" lon="11.69865"><ele>319.0</ele><time>2026-05-03T11:49:37.162Z</time></trkpt><trkpt lat="43.4233133" lon="11.6989817"><ele>319.0</ele><time>2026-05-03T11:49:38.162Z</time></trkpt><trkpt lat="43.4233167" lon="11.6992867"><ele>319.66666666666663</ele><time>2026-05-03T11:49:39.167Z</time></trkpt><trkpt lat="43.423315" lon="11.69957"><ele>320.3333333333333</ele><time>2026-05-03T11:49:40.164Z</time></trkpt><trkpt lat="43.4233067" lon="11.6998383"><ele>321.0</ele><time>2026-05-03T11:49:41.164Z</time></trkpt><trkpt lat="43.423295" lon="11.7000883"><ele>321.3333333333333</ele><time>2026-05-03T11:49:42.168Z</time></trkpt><trkpt lat="43.4232817" lon="11.7003267"><ele>321.66666666666663</ele><time>2026-05-03T11:49:43.164Z</time></trkpt><trkpt lat="43.42327" lon="11.7005483"><ele>322.0</ele><time>2026-05-03T11:49:44.164Z</time></trkpt><trkpt lat="43.4232567" lon="11.7007583"><ele>322.0</ele><time>2026-05-03T11:49:45.162Z</time></trkpt><trkpt lat="43.4232433" lon="11.700965"><ele>322.0</ele><time>2026-05-03T11:49:46.162Z</time></trkpt><trkpt lat="43.423245" lon="11.701175"><ele>322.0</ele><time>2026-05-03T11:49:47.165Z</time></trkpt><trkpt lat="43.4232583" lon="11.7013783"><ele>322.5</ele><time>2026-05-03T11:49:48.165Z</time></trkpt><trkpt lat="43.4232833" lon="11.7015717"><ele>323.0</ele><time>2026-05-03T11:49:49.166Z</time></trkpt><trkpt lat="43.4233233" lon="11.7017583"><ele>323.5</ele><time>2026-05-03T11:49:50.164Z</time></trkpt><trkpt lat="43.42337" lon="11.7019467"><ele>324.0</ele><time>2026-05-03T11:49:51.164Z</time></trkpt><trkpt lat="43.4234167" lon="11.702135"><ele>324.0</ele><time>2026-05-03T11:49:52.166Z</time></trkpt><trkpt lat="43.423465" lon="11.7023283"><ele>324.0</ele><time>2026-05-03T11:49:53.169Z</time></trkpt><trkpt lat="43.4235083" lon="11.7025317"><ele>324.0</ele><time>2026-05-03T11:49:54.165Z</time></trkpt><trkpt lat="43.4235383" lon="11.702745"><ele>324.6666666666667</ele><time>2026-05-03T11:49:55.164Z</time></trkpt><trkpt lat="43.4235483" lon="11.7029683"><ele>325.33333333333337</ele><time>2026-05-03T11:49:56.164Z</time></trkpt><trkpt lat="43.4235383" lon="11.7032"><ele>326.0</ele><time>2026-05-03T11:49:57.161Z</time></trkpt><trkpt lat="43.4235133" lon="11.7034183"><ele>326.33333333333337</ele><time>2026-05-03T11:49:58.162Z</time></trkpt><trkpt lat="43.4234833" lon="11.7036317"><ele>326.6666666666667</ele><time>2026-05-03T11:49:59.162Z</time></trkpt><trkpt lat="43.4234567" lon="11.7038483"><ele>327.0</ele><time>2026-05-03T11:50:00.161Z</time></trkpt><trkpt lat="43.423435" lon="11.7040833"><ele>327.0</ele><time>2026-05-03T11:50:01.162Z</time></trkpt><trkpt lat="43.4234067" lon="11.704355"><ele>327.0</ele><time>2026-05-03T11:50:02.162Z</time></trkpt><trkpt lat="43.4233583" lon="11.70465"><ele>327.0</ele><time>2026-05-03T11:50:03.162Z</time></trkpt><trkpt lat="43.4233133" lon="11.7049533"><ele>328.3333333333333</ele><time>2026-05-03T11:50:04.162Z</time></trkpt><trkpt lat="43.42328" lon="11.705255"><ele>329.66666666666663</ele><time>2026-05-03T11:50:05.164Z</time></trkpt><trkpt lat="43.4232617" lon="11.7055667"><ele>331.0</ele><time>2026-05-03T11:50:06.163Z</time></trkpt><trkpt lat="43.42326" lon="11.7058917"><ele>330.0</ele><time>2026-05-03T11:50:07.162Z</time></trkpt><trkpt lat="43.423265" lon="11.7062217"><ele>329.0</ele><time>2026-05-03T11:50:08.162Z</time></trkpt><trkpt lat="43.4232567" lon="11.706555"><ele>329.0</ele><time>2026-05-03T11:50:09.162Z</time></trkpt><trkpt lat="43.4232317" lon="11.7068817"><ele>329.0</ele><time>2026-05-03T11:50:10.162Z</time></trkpt><trkpt lat="43.4231867" lon="11.707205"><ele>332.0</ele><time>2026-05-03T11:50:11.162Z</time></trkpt><trkpt lat="43.4231283" lon="11.7075217"><ele>335.0</ele><time>2026-05-03T11:50:12.162Z</time></trkpt><trkpt lat="43.423065" lon="11.7078383"><ele>332.0</ele><time>2026-05-03T11:50:13.162Z</time></trkpt><trkpt lat="43.4229983" lon="11.7081533"><ele>329.0</ele><time>2026-05-03T11:50:14.163Z</time></trkpt><trkpt lat="43.4229333" lon="11.70847"><ele>331.5</ele><time>2026-05-03T11:50:15.162Z</time></trkpt><trkpt lat="43.4228683" lon="11.7087833"><ele>334.0</ele><time>2026-05-03T11:50:16.163Z</time></trkpt><trkpt lat="43.4228067" lon="11.7090983"><ele>335.5</ele><time>2026-05-03T11:50:17.162Z</time></trkpt><trkpt lat="43.4227517" lon="11.7094183"><ele>337.0</ele><time>2026-05-03T11:50:18.163Z</time></trkpt><trkpt lat="43.4227033" lon="11.7097383"><ele>337.0</ele><time>2026-05-03T11:50:19.162Z</time></trkpt><trkpt lat="43.42266" lon="11.7100667"><ele>337.0</ele><time>2026-05-03T11:50:20.162Z</time></trkpt><trkpt lat="43.422625" lon="11.7103967"><ele>338.5</ele><time>2026-05-03T11:50:21.162Z</time></trkpt><trkpt lat="43.4225967" lon="11.7107283"><ele>340.0</ele><time>2026-05-03T11:50:22.162Z</time></trkpt><trkpt lat="43.4225817" lon="11.7110667"><ele>342.0</ele><time>2026-05-03T11:50:23.163Z</time></trkpt><trkpt lat="43.422585" lon="11.7114033"><ele>344.0</ele><time>2026-05-03T11:50:24.165Z</time></trkpt><trkpt lat="43.4225967" lon="11.7117333"><ele>344.0</ele><time>2026-05-03T11:50:25.169Z</time></trkpt><trkpt lat="43.4226033" lon="11.712055"><ele>344.0</ele><time>2026-05-03T11:50:26.164Z</time></trkpt><trkpt lat="43.4225983" lon="11.7123617"><ele>344.0</ele><time>2026-05-03T11:50:27.162Z</time></trkpt><trkpt lat="43.4225667" lon="11.71265"><ele>344.0</ele><time>2026-05-03T11:50:28.162Z</time></trkpt><trkpt lat="43.4225083" lon="11.71293"><ele>344.0</ele><time>2026-05-03T11:50:29.162Z</time></trkpt><trkpt lat="43.4223933" lon="11.713195"><ele>344.5</ele><time>2026-05-03T11:50:30.162Z</time></trkpt><trkpt lat="43.42225" lon="11.713455"><ele>345.0</ele><time>2026-05-03T11:50:31.162Z</time></trkpt><trkpt lat="43.422095" lon="11.7137117"><ele>344.0</ele><time>2026-05-03T11:50:32.163Z</time></trkpt><trkpt lat="43.4219483" lon="11.7139533"><ele>343.0</ele><time>2026-05-03T11:50:33.162Z</time></trkpt><trkpt lat="43.4218217" lon="11.714175"><ele>342.0</ele><time>2026-05-03T11:50:34.163Z</time></trkpt><trkpt lat="43.4217183" lon="11.7143833"><ele>342.6666666666667</ele><time>2026-05-03T11:50:35.162Z</time></trkpt><trkpt lat="43.4216367" lon="11.714595"><ele>343.33333333333337</ele><time>2026-05-03T11:50:36.162Z</time></trkpt><trkpt lat="43.42159" lon="11.7148267"><ele>344.0</ele><time>2026-05-03T11:50:37.162Z</time></trkpt><trkpt lat="43.4215833" lon="11.7150817"><ele>344.0</ele><time>2026-05-03T11:50:38.164Z</time></trkpt><trkpt lat="43.42162" lon="11.7153567"><ele>344.0</ele><time>2026-05-03T11:50:39.165Z</time></trkpt><trkpt lat="43.4217" lon="11.71564"><ele>344.0</ele><time>2026-05-03T11:50:40.164Z</time></trkpt><trkpt lat="43.4218283" lon="11.7159167"><ele>344.5</ele><time>2026-05-03T11:50:41.165Z</time></trkpt><trkpt lat="43.4219833" lon="11.7162"><ele>345.0</ele><time>2026-05-03T11:50:42.166Z</time></trkpt><trkpt lat="43.4221433" lon="11.716495"><ele>347.0</ele><time>2026-05-03T11:50:43.165Z</time></trkpt><trkpt lat="43.422285" lon="11.7167933"><ele>349.0</ele><time>2026-05-03T11:50:44.164Z</time></trkpt><trkpt lat="43.4224083" lon="11.717075"><ele>349.0</ele><time>2026-05-03T11:50:45.164Z</time></trkpt><trkpt lat="43.4225183" lon="11.7173383"><ele>349.0</ele><time>2026-05-03T11:50:46.164Z</time></trkpt><trkpt lat="43.4226133" lon="11.7176033"><ele>349.0</ele><time>2026-05-03T11:50:47.165Z</time></trkpt><trkpt lat="43.422675" lon="11.7178733"><ele>349.66666666666663</ele><time>2026-05-03T11:50:48.165Z</time></trkpt><trkpt lat="43.4227033" lon="11.7181433"><ele>350.3333333333333</ele><time>2026-05-03T11:50:49.165Z</time></trkpt><trkpt lat="43.42271" lon="11.7184133"><ele>351.0</ele><time>2026-05-03T11:50:50.165Z</time></trkpt><trkpt lat="43.422655" lon="11.71869"><ele>354.5</ele><time>2026-05-03T11:50:51.162Z</time></trkpt><trkpt lat="43.4225633" lon="11.7189767"><ele>358.0</ele><time>2026-05-03T11:50:52.165Z</time></trkpt><trkpt lat="43.4224717" lon="11.71928"><ele>362.0</ele><time>2026-05-03T11:50:53.165Z</time></trkpt><trkpt lat="43.422405" lon="11.7195983"><ele>366.0</ele><time>2026-05-03T11:50:54.167Z</time></trkpt><trkpt lat="43.42235" lon="11.7199317"><ele>366.5</ele><time>2026-05-03T11:50:55.165Z</time></trkpt><trkpt lat="43.4223133" lon="11.720255"><ele>367.0</ele><time>2026-05-03T11:50:56.164Z</time></trkpt><trkpt lat="43.422295" lon="11.720585"><ele>367.0</ele><time>2026-05-03T11:50:57.162Z</time></trkpt><trkpt lat="43.4223167" lon="11.7209417"><ele>367.0</ele><time>2026-05-03T11:50:58.162Z</time></trkpt><trkpt lat="43.422355" lon="11.721305"><ele>366.5</ele><time>2026-05-03T11:50:59.163Z</time></trkpt><trkpt lat="43.42237" lon="11.7216683"><ele>366.0</ele><time>2026-05-03T11:51:00.162Z</time></trkpt><trkpt lat="43.42236" lon="11.7220417"><ele>366.0</ele><time>2026-05-03T11:51:01.163Z</time></trkpt><trkpt lat="43.42233" lon="11.7224367"><ele>366.0</ele><time>2026-05-03T11:51:02.162Z</time></trkpt><trkpt lat="43.4223033" lon="11.722825"><ele>368.0</ele><time>2026-05-03T11:51:03.164Z</time></trkpt><trkpt lat="43.4222883" lon="11.7231867"><ele>370.0</ele><time>2026-05-03T11:51:04.163Z</time></trkpt><trkpt lat="43.422285" lon="11.7235217"><ele>371.66666666666663</ele><time>2026-05-03T11:51:05.163Z</time></trkpt><trkpt lat="43.42229" lon="11.7238217"><ele>373.3333333333333</ele><time>2026-05-03T11:51:06.162Z</time></trkpt><trkpt lat="43.4223033" lon="11.72408"><ele>375.0</ele><time>2026-05-03T11:51:07.163Z</time></trkpt><trkpt lat="43.4223283" lon="11.7243017"><ele>376.0</ele><time>2026-05-03T11:51:08.165Z</time></trkpt><trkpt lat="43.4223833" lon="11.7244967"><ele>377.0</ele><time>2026-05-03T11:51:09.165Z</time></trkpt><trkpt lat="43.42249" lon="11.7246683"><ele>378.0</ele><time>2026-05-03T11:51:10.162Z</time></trkpt><trkpt lat="43.42264" lon="11.7248133"><ele>378.0</ele><time>2026-05-03T11:51:11.167Z</time></trkpt><trkpt lat="43.422825" lon="11.7249233"><ele>378.0</ele><time>2026-05-03T11:51:12.165Z</time></trkpt><trkpt lat="43.423025" lon="11.7250117"><ele>378.0</ele><time>2026-05-03T11:51:13.166Z</time></trkpt><trkpt lat="43.42324" lon="11.7250783"><ele>379.0</ele><time>2026-05-03T11:51:14.165Z</time></trkpt><trkpt lat="43.4234533" lon="11.7251483"><ele>380.0</ele><time>2026-05-03T11:51:15.165Z</time></trkpt><trkpt lat="43.4236617" lon="11.7252433"><ele>381.0</ele><time>2026-05-03T11:51:16.164Z</time></trkpt><trkpt lat="43.4238533" lon="11.7253667"><ele>382.0</ele><time>2026-05-03T11:51:17.166Z</time></trkpt><trkpt lat="43.424025" lon="11.725485"><ele>383.0</ele><time>2026-05-03T11:51:18.165Z</time></trkpt><trkpt lat="43.4241833" lon="11.72558"><ele>384.0</ele><time>2026-05-03T11:51:19.162Z</time></trkpt><trkpt lat="43.4243333" lon="11.725655"><ele>384.0</ele><time>2026-05-03T11:51:20.162Z</time></trkpt><trkpt lat="43.424465" lon="11.72572"><ele>384.0</ele><time>2026-05-03T11:51:21.165Z</time></trkpt><trkpt lat="43.4245783" lon="11.7257883"><ele>384.0</ele><time>2026-05-03T11:51:22.165Z</time></trkpt><trkpt lat="43.4246617" lon="11.7258633"><ele>384.0</ele><time>2026-05-03T11:51:23.167Z</time></trkpt><trkpt lat="43.4247183" lon="11.72594"><ele>384.0</ele><time>2026-05-03T11:51:24.165Z</time></trkpt><trkpt lat="43.4248" lon="11.72605"><ele>384.6666666666667</ele><time>2026-05-03T11:51:26.162Z</time></trkpt><trkpt lat="43.4249017" lon="11.7260633"><ele>385.33333333333337</ele><time>2026-05-03T11:51:28.162Z</time></trkpt><trkpt lat="43.4249617" lon="11.726035"><ele>386.0</ele><time>2026-05-03T11:51:29.164Z</time></trkpt><trkpt lat="43.4250317" lon="11.72599"><ele>386.6666666666667</ele><time>2026-05-03T11:51:30.169Z</time></trkpt><trkpt lat="43.4251067" lon="11.7259483"><ele>387.33333333333337</ele><time>2026-05-03T11:51:31.164Z</time></trkpt><trkpt lat="43.42519" lon="11.7259183"><ele>388.0</ele><time>2026-05-03T11:51:32.163Z</time></trkpt><trkpt lat="43.4252767" lon="11.725905"><ele>388.4</ele><time>2026-05-03T11:51:33.165Z</time></trkpt><trkpt lat="43.4253683" lon="11.7259033"><ele>388.79999999999995</ele><time>2026-05-03T11:51:34.162Z</time></trkpt><trkpt lat="43.4254683" lon="11.725915"><ele>389.2</ele><time>2026-05-03T11:51:35.165Z</time></trkpt><trkpt lat="43.4255683" lon="11.725935"><ele>389.6</ele><time>2026-05-03T11:51:36.167Z</time></trkpt><trkpt lat="43.425665" lon="11.725955"><ele>390.0</ele><time>2026-05-03T11:51:37.163Z</time></trkpt><trkpt lat="43.4257683" lon="11.7259717"><ele>391.6</ele><time>2026-05-03T11:51:38.165Z</time></trkpt><trkpt lat="43.4258767" lon="11.7259817"><ele>393.2</ele><time>2026-05-03T11:51:39.162Z</time></trkpt><trkpt lat="43.425985" lon="11.7259933"><ele>394.79999999999995</ele><time>2026-05-03T11:51:40.162Z</time></trkpt><trkpt lat="43.426085" lon="11.7260017"><ele>396.4</ele><time>2026-05-03T11:51:41.165Z</time></trkpt><trkpt lat="43.4261767" lon="11.7260083"><ele>398.0</ele><time>2026-05-03T11:51:42.163Z</time></trkpt><trkpt lat="43.4262717" lon="11.7260067"><ele>399.79999999999995</ele><time>2026-05-03T11:51:43.163Z</time></trkpt><trkpt lat="43.4263767" lon="11.726005"><ele>401.6</ele><time>2026-05-03T11:51:44.166Z</time></trkpt><trkpt lat="43.42649" lon="11.7260017"><ele>403.4</ele><time>2026-05-03T11:51:45.163Z</time></trkpt><trkpt lat="43.4266017" lon="11.7260067"><ele>405.20000000000005</ele><time>2026-05-03T11:51:46.161Z</time></trkpt><trkpt lat="43.4267067" lon="11.7260083"><ele>407.0</ele><time>2026-05-03T11:51:47.162Z</time></trkpt><trkpt lat="43.426805" lon="11.7260067"><ele>406.99999999999994</ele><time>2026-05-03T11:51:48.164Z</time></trkpt><trkpt lat="43.4268967" lon="11.7260017"><ele>407.0</ele><time>2026-05-03T11:51:49.162Z</time></trkpt><trkpt lat="43.42698" lon="11.7259983"><ele>407.0</ele><time>2026-05-03T11:51:50.161Z</time></trkpt><trkpt lat="43.4270567" lon="11.7260017"><ele>407.0</ele><time>2026-05-03T11:51:51.161Z</time></trkpt><trkpt lat="43.4271333" lon="11.726015"><ele>406.99999999999994</ele><time>2026-05-03T11:51:52.161Z</time></trkpt><trkpt lat="43.42721" lon="11.726025"><ele>407.0</ele><time>2026-05-03T11:51:53.163Z</time></trkpt><trkpt lat="43.4272967" lon="11.7260233"><ele>408.8333333333333</ele><time>2026-05-03T11:51:54.165Z</time></trkpt><trkpt lat="43.4273817" lon="11.7260183"><ele>410.66666666666663</ele><time>2026-05-03T11:51:55.161Z</time></trkpt><trkpt lat="43.42746" lon="11.7260167"><ele>412.5</ele><time>2026-05-03T11:51:56.162Z</time></trkpt><trkpt lat="43.427545" lon="11.7260183"><ele>414.33333333333337</ele><time>2026-05-03T11:51:57.162Z</time></trkpt><trkpt lat="43.42764" lon="11.7260167"><ele>416.1666666666667</ele><time>2026-05-03T11:51:58.164Z</time></trkpt><trkpt lat="43.427735" lon="11.7260233"><ele>418.0</ele><time>2026-05-03T11:51:59.163Z</time></trkpt><trkpt lat="43.42783" lon="11.7260467"><ele>417.79999999999995</ele><time>2026-05-03T11:52:00.162Z</time></trkpt><trkpt lat="43.4279417" lon="11.7260667"><ele>417.6</ele><time>2026-05-03T11:52:01.162Z</time></trkpt><trkpt lat="43.4280417" lon="11.7260733"><ele>417.4</ele><time>2026-05-03T11:52:02.162Z</time></trkpt><trkpt lat="43.428135" lon="11.7260817"><ele>417.20000000000005</ele><time>2026-05-03T11:52:03.163Z</time></trkpt><trkpt lat="43.42822" lon="11.7261017"><ele>417.0</ele><time>2026-05-03T11:52:04.162Z</time></trkpt><trkpt lat="43.4283017" lon="11.72614"><ele>418.5</ele><time>2026-05-03T11:52:05.162Z</time></trkpt><trkpt lat="43.4283967" lon="11.7261883"><ele>420.0</ele><time>2026-05-03T11:52:06.161Z</time></trkpt><trkpt lat="43.4285117" lon="11.7262383"><ele>421.5</ele><time>2026-05-03T11:52:07.165Z</time></trkpt><trkpt lat="43.4286367" lon="11.7262567"><ele>423.0</ele><time>2026-05-03T11:52:08.164Z</time></trkpt><trkpt lat="43.4287567" lon="11.7262433"><ele>424.79999999999995</ele><time>2026-05-03T11:52:09.164Z</time></trkpt><trkpt lat="43.42887" lon="11.7262183"><ele>426.6</ele><time>2026-05-03T11:52:10.164Z</time></trkpt><trkpt lat="43.4289733" lon="11.72619"><ele>428.40000000000003</ele><time>2026-05-03T11:52:11.166Z</time></trkpt><trkpt lat="43.4290567" lon="11.7261567"><ele>430.20000000000005</ele><time>2026-05-03T11:52:12.166Z</time></trkpt><trkpt lat="43.4291183" lon="11.7261233"><ele>432.0</ele><time>2026-05-03T11:52:13.164Z</time></trkpt><trkpt lat="43.4291783" lon="11.7260083"><ele>433.0</ele><time>2026-05-03T11:52:15.164Z</time></trkpt><trkpt lat="43.4291833" lon="11.7259167"><ele>434.00000000000006</ele><time>2026-05-03T11:52:16.164Z</time></trkpt><trkpt lat="43.4291433" lon="11.7258067"><ele>435.00000000000006</ele><time>2026-05-03T11:52:17.164Z</time></trkpt><trkpt lat="43.4290817" lon="11.7256783"><ele>436.0</ele><time>2026-05-03T11:52:18.165Z</time></trkpt><trkpt lat="43.42901" lon="11.72553"><ele>437.0</ele><time>2026-05-03T11:52:19.165Z</time></trkpt><trkpt lat="43.4289483" lon="11.7253783"><ele>436.99999999999994</ele><time>2026-05-03T11:52:20.161Z</time></trkpt><trkpt lat="43.4289033" lon="11.7252683"><ele>437.0</ele><time>2026-05-03T11:52:21.164Z</time></trkpt><trkpt lat="43.4288767" lon="11.7251867"><ele>437.0</ele><time>2026-05-03T11:52:22.164Z</time></trkpt><trkpt lat="43.4289" lon="11.7250767"><ele>437.0</ele><time>2026-05-03T11:52:24.164Z</time></trkpt><trkpt lat="43.429015" lon="11.72506"><ele>436.99999999999994</ele><time>2026-05-03T11:52:26.165Z</time></trkpt><trkpt lat="43.4291033" lon="11.7250533"><ele>437.0</ele><time>2026-05-03T11:52:27.165Z</time></trkpt><trkpt lat="43.4292" lon="11.7250367"><ele>438.75</ele><time>2026-05-03T11:52:28.166Z</time></trkpt><trkpt lat="43.42932" lon="11.724985"><ele>440.5</ele><time>2026-05-03T11:52:29.165Z</time></trkpt><trkpt lat="43.42945" lon="11.72492"><ele>442.25</ele><time>2026-05-03T11:52:30.164Z</time></trkpt><trkpt lat="43.4295833" lon="11.7248333"><ele>444.0</ele><time>2026-05-03T11:52:31.165Z</time></trkpt><trkpt lat="43.4297217" lon="11.7247383"><ele>448.25</ele><time>2026-05-03T11:52:32.165Z</time></trkpt><trkpt lat="43.4298633" lon="11.7246467"><ele>452.5</ele><time>2026-05-03T11:52:33.164Z</time></trkpt><trkpt lat="43.4299833" lon="11.724565"><ele>456.75</ele><time>2026-05-03T11:52:34.164Z</time></trkpt><trkpt lat="43.4300917" lon="11.7244933"><ele>461.0</ele><time>2026-05-03T11:52:35.166Z</time></trkpt><trkpt lat="43.430185" lon="11.72445"><ele>461.0</ele><time>2026-05-03T11:52:36.164Z</time></trkpt><trkpt lat="43.4302817" lon="11.724425"><ele>461.0</ele><time>2026-05-03T11:52:37.165Z</time></trkpt><trkpt lat="43.4303833" lon="11.7244283"><ele>461.0</ele><time>2026-05-03T11:52:38.169Z</time></trkpt><trkpt lat="43.430495" lon="11.7244617"><ele>461.0</ele><time>2026-05-03T11:52:39.164Z</time></trkpt><trkpt lat="43.4306067" lon="11.7245067"><ele>461.0</ele><time>2026-05-03T11:52:40.164Z</time></trkpt><trkpt lat="43.4307033" lon="11.7245383"><ele>463.8333333333333</ele><time>2026-05-03T11:52:41.165Z</time></trkpt><trkpt lat="43.4307717" lon="11.7245667"><ele>466.66666666666663</ele><time>2026-05-03T11:52:42.165Z</time></trkpt><trkpt lat="43.43084" lon="11.72465"><ele>469.5</ele><time>2026-05-03T11:52:44.162Z</time></trkpt><trkpt lat="43.4307783" lon="11.7248233"><ele>472.33333333333337</ele><time>2026-05-03T11:52:46.162Z</time></trkpt><trkpt lat="43.4307417" lon="11.72492"><ele>475.1666666666667</ele><time>2026-05-03T11:52:47.162Z</time></trkpt><trkpt lat="43.430715" lon="11.7250033"><ele>478.0</ele><time>2026-05-03T11:52:48.161Z</time></trkpt><trkpt lat="43.4307517" lon="11.72513"><ele>478.00000000000006</ele><time>2026-05-03T11:52:50.162Z</time></trkpt><trkpt lat="43.4308317" lon="11.72518"><ele>478.0</ele><time>2026-05-03T11:52:51.162Z</time></trkpt><trkpt lat="43.4309217" lon="11.7252183"><ele>478.0</ele><time>2026-05-03T11:52:52.162Z</time></trkpt><trkpt lat="43.4310083" lon="11.7252533"><ele>478.0</ele><time>2026-05-03T11:52:53.162Z</time></trkpt><trkpt lat="43.4310883" lon="11.725295"><ele>478.00000000000006</ele><time>2026-05-03T11:52:54.165Z</time></trkpt><trkpt lat="43.4311583" lon="11.725335"><ele>478.0</ele><time>2026-05-03T11:52:55.164Z</time></trkpt><trkpt lat="43.4312217" lon="11.725375"><ele>479.00000000000006</ele><time>2026-05-03T11:52:56.164Z</time></trkpt><trkpt lat="43.4312867" lon="11.7254133"><ele>480.0</ele><time>2026-05-03T11:52:57.164Z</time></trkpt><trkpt lat="43.4313533" lon="11.7254533"><ele>481.00000000000006</ele><time>2026-05-03T11:52:58.165Z</time></trkpt><trkpt lat="43.4314183" lon="11.725495"><ele>482.00000000000006</ele><time>2026-05-03T11:52:59.165Z</time></trkpt><trkpt lat="43.4314867" lon="11.725535"><ele>483.0</ele><time>2026-05-03T11:53:00.165Z</time></trkpt><trkpt lat="43.4315567" lon="11.7255767"><ele>484.00000000000006</ele><time>2026-05-03T11:53:01.162Z</time></trkpt><trkpt lat="43.431625" lon="11.7256183"><ele>485.00000000000006</ele><time>2026-05-03T11:53:02.165Z</time></trkpt><trkpt lat="43.4316967" lon="11.7256633"><ele>484.99999999999994</ele><time>2026-05-03T11:53:03.161Z</time></trkpt><trkpt lat="43.4317683" lon="11.7257067"><ele>485.0</ele><time>2026-05-03T11:53:04.163Z</time></trkpt><trkpt lat="43.4318383" lon="11.7257417"><ele>485.0</ele><time>2026-05-03T11:53:05.165Z</time></trkpt><trkpt lat="43.4319167" lon="11.7257733"><ele>485.0</ele><time>2026-05-03T11:53:06.164Z</time></trkpt><trkpt lat="43.4319983" lon="11.725805"><ele>484.99999999999994</ele><time>2026-05-03T11:53:07.166Z</time></trkpt><trkpt lat="43.432085" lon="11.72584"><ele>485.0</ele><time>2026-05-03T11:53:08.162Z</time></trkpt><trkpt lat="43.432175" lon="11.7258833"><ele>486.6</ele><time>2026-05-03T11:53:09.163Z</time></trkpt><trkpt lat="43.4322683" lon="11.7259367"><ele>488.2</ele><time>2026-05-03T11:53:10.165Z</time></trkpt><trkpt lat="43.4323583" lon="11.7260033"><ele>489.79999999999995</ele><time>2026-05-03T11:53:11.165Z</time></trkpt><trkpt lat="43.432445" lon="11.7260817"><ele>491.4</ele><time>2026-05-03T11:53:12.165Z</time></trkpt><trkpt lat="43.432535" lon="11.726155"><ele>493.0</ele><time>2026-05-03T11:53:13.162Z</time></trkpt><trkpt lat="43.4326267" lon="11.7262233"><ele>494.79999999999995</ele><time>2026-05-03T11:53:14.162Z</time></trkpt><trkpt lat="43.432715" lon="11.72629"><ele>496.59999999999997</ele><time>2026-05-03T11:53:15.166Z</time></trkpt><trkpt lat="43.4328033" lon="11.7263567"><ele>498.40000000000003</ele><time>2026-05-03T11:53:16.163Z</time></trkpt><trkpt lat="43.432895" lon="11.726415"><ele>500.20000000000005</ele><time>2026-05-03T11:53:17.163Z</time></trkpt><trkpt lat="43.4329883" lon="11.7264467"><ele>502.0</ele><time>2026-05-03T11:53:18.162Z</time></trkpt><trkpt lat="43.4330833" lon="11.72646"><ele>503.40000000000003</ele><time>2026-05-03T11:53:19.167Z</time></trkpt><trkpt lat="43.4331867" lon="11.7264417"><ele>504.80000000000007</ele><time>2026-05-03T11:53:20.163Z</time></trkpt><trkpt lat="43.43329" lon="11.72642"><ele>506.2</ele><time>2026-05-03T11:53:21.165Z</time></trkpt><trkpt lat="43.4333933" lon="11.7263967"><ele>507.6</ele><time>2026-05-03T11:53:22.164Z</time></trkpt><trkpt lat="43.4334933" lon="11.7263917"><ele>509.0</ele><time>2026-05-03T11:53:23.165Z</time></trkpt><trkpt lat="43.43359" lon="11.7264017"><ele>509.0</ele><time>2026-05-03T11:53:24.164Z</time></trkpt><trkpt lat="43.4336817" lon="11.7264017"><ele>509.0</ele><time>2026-05-03T11:53:25.165Z</time></trkpt><trkpt lat="43.4337733" lon="11.726375"><ele>509.0</ele><time>2026-05-03T11:53:26.164Z</time></trkpt><trkpt lat="43.4338667" lon="11.726335"><ele>509.0</ele><time>2026-05-03T11:53:27.165Z</time></trkpt><trkpt lat="43.43395" lon="11.7262967"><ele>509.0</ele><time>2026-05-03T11:53:28.165Z</time></trkpt><trkpt lat="43.4340267" lon="11.7262633"><ele>508.99999999999994</ele><time>2026-05-03T11:53:29.165Z</time></trkpt><trkpt lat="43.4341033" lon="11.7262367"><ele>509.0</ele><time>2026-05-03T11:53:30.165Z</time></trkpt><trkpt lat="43.43418" lon="11.7262467"><ele>509.0</ele><time>2026-05-03T11:53:31.165Z</time></trkpt><trkpt lat="43.43426" lon="11.7262717"><ele>509.0</ele><time>2026-05-03T11:53:32.164Z</time></trkpt><trkpt lat="43.4343317" lon="11.7263117"><ele>508.99999999999994</ele><time>2026-05-03T11:53:33.162Z</time></trkpt><trkpt lat="43.4344" lon="11.72638"><ele>509.0</ele><time>2026-05-03T11:53:34.165Z</time></trkpt><trkpt lat="43.4344683" lon="11.7264567"><ele>509.0</ele><time>2026-05-03T11:53:35.165Z</time></trkpt><trkpt lat="43.434555" lon="11.7265733"><ele>509.0</ele><time>2026-05-03T11:53:36.165Z</time></trkpt><trkpt lat="43.4346333" lon="11.7266783"><ele>509.0</ele><time>2026-05-03T11:53:37.162Z</time></trkpt><trkpt lat="43.4347017" lon="11.7267733"><ele>509.0</ele><time>2026-05-03T11:53:38.162Z</time></trkpt><trkpt lat="43.4347533" lon="11.726865"><ele>509.0</ele><time>2026-05-03T11:53:39.162Z</time></trkpt><trkpt lat="43.4347917" lon="11.726945"><ele>509.3333333333333</ele><time>2026-05-03T11:53:40.166Z</time></trkpt><trkpt lat="43.4348133" lon="11.7270633"><ele>509.66666666666663</ele><time>2026-05-03T11:53:42.162Z</time></trkpt><trkpt lat="43.4347767" lon="11.7271683"><ele>510.0</ele><time>2026-05-03T11:53:44.163Z</time></trkpt><trkpt lat="43.43472" lon="11.7272367"><ele>510.33333333333337</ele><time>2026-05-03T11:53:45.164Z</time></trkpt><trkpt lat="43.4346533" lon="11.7273167"><ele>510.6666666666667</ele><time>2026-05-03T11:53:46.164Z</time></trkpt><trkpt lat="43.4345767" lon="11.7274133"><ele>511.0</ele><time>2026-05-03T11:53:47.164Z</time></trkpt><trkpt lat="43.4344917" lon="11.7275217"><ele>511.0</ele><time>2026-05-03T11:53:48.162Z</time></trkpt><trkpt lat="43.4343967" lon="11.7276383"><ele>511.0</ele><time>2026-05-03T11:53:49.163Z</time></trkpt><trkpt lat="43.4343017" lon="11.7277633"><ele>511.0</ele><time>2026-05-03T11:53:50.162Z</time></trkpt><trkpt lat="43.4342083" lon="11.7278917"><ele>511.0</ele><time>2026-05-03T11:53:51.163Z</time></trkpt><trkpt lat="43.43412" lon="11.7280233"><ele>510.75</ele><time>2026-05-03T11:53:52.164Z</time></trkpt><trkpt lat="43.434035" lon="11.728165"><ele>510.5</ele><time>2026-05-03T11:53:53.165Z</time></trkpt><trkpt lat="43.4339517" lon="11.7283183"><ele>510.25</ele><time>2026-05-03T11:53:54.165Z</time></trkpt><trkpt lat="43.4338633" lon="11.7284717"><ele>510.0</ele><time>2026-05-03T11:53:55.165Z</time></trkpt><trkpt lat="43.433775" lon="11.7286217"><ele>510.0</ele><time>2026-05-03T11:53:56.165Z</time></trkpt><trkpt lat="43.4336833" lon="11.7287667"><ele>510.0</ele><time>2026-05-03T11:53:57.164Z</time></trkpt><trkpt lat="43.4335917" lon="11.7288967"><ele>510.0</ele><time>2026-05-03T11:53:58.165Z</time></trkpt><trkpt lat="43.4335017" lon="11.7290217"><ele>510.0</ele><time>2026-05-03T11:53:59.165Z</time></trkpt><trkpt lat="43.4334183" lon="11.7291517"><ele>510.0</ele><time>2026-05-03T11:54:00.165Z</time></trkpt><trkpt lat="43.43335" lon="11.7292983"><ele>510.0</ele><time>2026-05-03T11:54:01.165Z</time></trkpt><trkpt lat="43.4332933" lon="11.7294617"><ele>510.0</ele><time>2026-05-03T11:54:02.165Z</time></trkpt><trkpt lat="43.433245" lon="11.7296283"><ele>510.0</ele><time>2026-05-03T11:54:03.163Z</time></trkpt><trkpt lat="43.4332033" lon="11.7298"><ele>509.0</ele><time>2026-05-03T11:54:04.165Z</time></trkpt><trkpt lat="43.4331683" lon="11.7299767"><ele>508.0</ele><time>2026-05-03T11:54:05.165Z</time></trkpt><trkpt lat="43.433135" lon="11.7301483"><ele>507.0</ele><time>2026-05-03T11:54:06.165Z</time></trkpt><trkpt lat="43.433095" lon="11.7303217"><ele>506.0</ele><time>2026-05-03T11:54:07.162Z</time></trkpt><trkpt lat="43.4330517" lon="11.7304983"><ele>506.5</ele><time>2026-05-03T11:54:08.165Z</time></trkpt><trkpt lat="43.4330167" lon="11.7306717"><ele>507.0</ele><time>2026-05-03T11:54:09.165Z</time></trkpt><trkpt lat="43.4329733" lon="11.7308367"><ele>507.5</ele><time>2026-05-03T11:54:10.164Z</time></trkpt><trkpt lat="43.43292" lon="11.7309867"><ele>508.0</ele><time>2026-05-03T11:54:11.167Z</time></trkpt><trkpt lat="43.4328533" lon="11.7311367"><ele>508.0</ele><time>2026-05-03T11:54:12.162Z</time></trkpt><trkpt lat="43.4327733" lon="11.7312883"><ele>508.0</ele><time>2026-05-03T11:54:13.165Z</time></trkpt><trkpt lat="43.4326667" lon="11.7314233"><ele>508.0</ele><time>2026-05-03T11:54:14.165Z</time></trkpt><trkpt lat="43.43255" lon="11.7315433"><ele>508.0</ele><time>2026-05-03T11:54:15.165Z</time></trkpt><trkpt lat="43.432425" lon="11.7316483"><ele>508.0</ele><time>2026-05-03T11:54:16.166Z</time></trkpt><trkpt lat="43.4322933" lon="11.7317517"><ele>508.0</ele><time>2026-05-03T11:54:17.165Z</time></trkpt><trkpt lat="43.4321633" lon="11.7318483"><ele>508.0</ele><time>2026-05-03T11:54:18.165Z</time></trkpt><trkpt lat="43.4320483" lon="11.7319383"><ele>508.0</ele><time>2026-05-03T11:54:19.163Z</time></trkpt><trkpt lat="43.4319483" lon="11.73203"><ele>506.5</ele><time>2026-05-03T11:54:20.162Z</time></trkpt><trkpt lat="43.4318633" lon="11.73213"><ele>505.0</ele><time>2026-05-03T11:54:21.162Z</time></trkpt><trkpt lat="43.4317983" lon="11.7322583"><ele>503.5</ele><time>2026-05-03T11:54:22.163Z</time></trkpt><trkpt lat="43.431745" lon="11.732415"><ele>502.0</ele><time>2026-05-03T11:54:23.163Z</time></trkpt><trkpt lat="43.4317" lon="11.7325867"><ele>503.75</ele><time>2026-05-03T11:54:24.165Z</time></trkpt><trkpt lat="43.4316517" lon="11.73276"><ele>505.5</ele><time>2026-05-03T11:54:25.162Z</time></trkpt><trkpt lat="43.4315933" lon="11.7329267"><ele>507.25</ele><time>2026-05-03T11:54:26.165Z</time></trkpt><trkpt lat="43.4315317" lon="11.73309"><ele>509.0</ele><time>2026-05-03T11:54:27.164Z</time></trkpt><trkpt lat="43.4314733" lon="11.733255"><ele>509.0</ele><time>2026-05-03T11:54:28.164Z</time></trkpt><trkpt lat="43.4314183" lon="11.7334117"><ele>509.0</ele><time>2026-05-03T11:54:29.164Z</time></trkpt><trkpt lat="43.431365" lon="11.7335633"><ele>509.0</ele><time>2026-05-03T11:54:30.165Z</time></trkpt><trkpt lat="43.4313067" lon="11.7337117"><ele>509.0</ele><time>2026-05-03T11:54:31.164Z</time></trkpt><trkpt lat="43.4312433" lon="11.7338533"><ele>509.75</ele><time>2026-05-03T11:54:32.164Z</time></trkpt><trkpt lat="43.431175" lon="11.734"><ele>510.5</ele><time>2026-05-03T11:54:33.161Z</time></trkpt><trkpt lat="43.4311033" lon="11.7341567"><ele>511.25</ele><time>2026-05-03T11:54:34.161Z</time></trkpt><trkpt lat="43.4310333" lon="11.7343233"><ele>512.0</ele><time>2026-05-03T11:54:35.162Z</time></trkpt><trkpt lat="43.4309617" lon="11.7344967"><ele>512.6666666666666</ele><time>2026-05-03T11:54:36.162Z</time></trkpt><trkpt lat="43.4308917" lon="11.7346767"><ele>513.3333333333334</ele><time>2026-05-03T11:54:37.162Z</time></trkpt><trkpt lat="43.4308233" lon="11.73486"><ele>514.0</ele><time>2026-05-03T11:54:38.162Z</time></trkpt><trkpt lat="43.4307533" lon="11.73505"><ele>514.0</ele><time>2026-05-03T11:54:39.161Z</time></trkpt><trkpt lat="43.430685" lon="11.7352383"><ele>514.0</ele><time>2026-05-03T11:54:40.162Z</time></trkpt><trkpt lat="43.43062" lon="11.7354167"><ele>514.0</ele><time>2026-05-03T11:54:41.162Z</time></trkpt><trkpt lat="43.430545" lon="11.735575"><ele>514.0</ele><time>2026-05-03T11:54:42.161Z</time></trkpt><trkpt lat="43.4304617" lon="11.7357117"><ele>514.0</ele><time>2026-05-03T11:54:43.162Z</time></trkpt><trkpt lat="43.4303633" lon="11.7358283"><ele>514.0</ele><time>2026-05-03T11:54:44.161Z</time></trkpt><trkpt lat="43.4302583" lon="11.7359333"><ele>514.0</ele><time>2026-05-03T11:54:45.165Z</time></trkpt><trkpt lat="43.4301533" lon="11.7360183"><ele>514.0</ele><time>2026-05-03T11:54:46.164Z</time></trkpt><trkpt lat="43.430055" lon="11.7360867"><ele>514.6666666666667</ele><time>2026-05-03T11:54:47.161Z</time></trkpt><trkpt lat="43.4299883" lon="11.7361367"><ele>515.3333333333334</ele><time>2026-05-03T11:54:48.161Z</time></trkpt><trkpt lat="43.4299233" lon="11.73623"><ele>516.0</ele><time>2026-05-03T11:54:50.162Z</time></trkpt><trkpt lat="43.429935" lon="11.7363567"><ele>516.6666666666666</ele><time>2026-05-03T11:54:52.162Z</time></trkpt><trkpt lat="43.4299533" lon="11.7364517"><ele>517.3333333333333</ele><time>2026-05-03T11:54:53.163Z</time></trkpt><trkpt lat="43.429975" lon="11.7365733"><ele>518.0</ele><time>2026-05-03T11:54:54.164Z</time></trkpt><trkpt lat="43.4300017" lon="11.7367167"><ele>518.0</ele><time>2026-05-03T11:54:55.164Z</time></trkpt><trkpt lat="43.4300267" lon="11.736875"><ele>518.0</ele><time>2026-05-03T11:54:56.165Z</time></trkpt><trkpt lat="43.4300467" lon="11.7370367"><ele>518.0</ele><time>2026-05-03T11:54:57.164Z</time></trkpt><trkpt lat="43.430065" lon="11.7371933"><ele>518.0</ele><time>2026-05-03T11:54:58.164Z</time></trkpt><trkpt lat="43.4300817" lon="11.7373433"><ele>518.75</ele><time>2026-05-03T11:54:59.165Z</time></trkpt><trkpt lat="43.4300983" lon="11.7374983"><ele>519.5</ele><time>2026-05-03T11:55:00.162Z</time></trkpt><trkpt lat="43.4301083" lon="11.7376633"><ele>520.25</ele><time>2026-05-03T11:55:01.162Z</time></trkpt><trkpt lat="43.4301083" lon="11.7378317"><ele>521.0</ele><time>2026-05-03T11:55:02.165Z</time></trkpt><trkpt lat="43.4301067" lon="11.7380033"><ele>519.8</ele><time>2026-05-03T11:55:03.165Z</time></trkpt><trkpt lat="43.4301033" lon="11.73816"><ele>518.6</ele><time>2026-05-03T11:55:04.162Z</time></trkpt><trkpt lat="43.4301" lon="11.7383017"><ele>517.4</ele><time>2026-05-03T11:55:05.164Z</time></trkpt><trkpt lat="43.43011" lon="11.73844"><ele>516.2</ele><time>2026-05-03T11:55:06.165Z</time></trkpt><trkpt lat="43.4301367" lon="11.738575"><ele>515.0</ele><time>2026-05-03T11:55:07.164Z</time></trkpt><trkpt lat="43.430175" lon="11.738695"><ele>513.4</ele><time>2026-05-03T11:55:08.164Z</time></trkpt><trkpt lat="43.4302233" lon="11.7388167"><ele>511.8</ele><time>2026-05-03T11:55:09.164Z</time></trkpt><trkpt lat="43.4302583" lon="11.73894"><ele>510.20000000000005</ele><time>2026-05-03T11:55:10.164Z</time></trkpt><trkpt lat="43.4302867" lon="11.739065"><ele>508.6</ele><time>2026-05-03T11:55:11.163Z</time></trkpt><trkpt lat="43.4303217" lon="11.7391833"><ele>507.0</ele><time>2026-05-03T11:55:12.165Z</time></trkpt><trkpt lat="43.4303717" lon="11.739295"><ele>503.0</ele><time>2026-05-03T11:55:13.164Z</time></trkpt><trkpt lat="43.43044" lon="11.7394"><ele>499.0</ele><time>2026-05-03T11:55:14.164Z</time></trkpt><trkpt lat="43.430525" lon="11.7395033"><ele>495.0</ele><time>2026-05-03T11:55:15.168Z</time></trkpt><trkpt lat="43.4306167" lon="11.7396117"><ele>491.0</ele><time>2026-05-03T11:55:16.165Z</time></trkpt><trkpt lat="43.43072" lon="11.73972"><ele>489.75</ele><time>2026-05-03T11:55:17.165Z</time></trkpt><trkpt lat="43.4308317" lon="11.7398167"><ele>488.5</ele><time>2026-05-03T11:55:18.162Z</time></trkpt><trkpt lat="43.4309483" lon="11.7399067"><ele>487.25</ele><time>2026-05-03T11:55:19.162Z</time></trkpt><trkpt lat="43.431065" lon="11.739995"><ele>486.0</ele><time>2026-05-03T11:55:20.162Z</time></trkpt><trkpt lat="43.4311833" lon="11.7400783"><ele>486.0</ele><time>2026-05-03T11:55:21.162Z</time></trkpt><trkpt lat="43.4313017" lon="11.74016"><ele>486.0</ele><time>2026-05-03T11:55:22.163Z</time></trkpt><trkpt lat="43.431415" lon="11.7402417"><ele>486.0</ele><time>2026-05-03T11:55:23.165Z</time></trkpt><trkpt lat="43.431525" lon="11.7403217"><ele>486.0</ele><time>2026-05-03T11:55:24.164Z</time></trkpt><trkpt lat="43.43163" lon="11.74041"><ele>481.25</ele><time>2026-05-03T11:55:25.164Z</time></trkpt><trkpt lat="43.43173" lon="11.7405083"><ele>476.5</ele><time>2026-05-03T11:55:26.164Z</time></trkpt><trkpt lat="43.4318217" lon="11.740625"><ele>471.75</ele><time>2026-05-03T11:55:27.164Z</time></trkpt><trkpt lat="43.431915" lon="11.7407567"><ele>467.0</ele><time>2026-05-03T11:55:28.164Z</time></trkpt><trkpt lat="43.4320117" lon="11.740895"><ele>467.0</ele><time>2026-05-03T11:55:29.165Z</time></trkpt><trkpt lat="43.4321117" lon="11.7410267"><ele>467.0</ele><time>2026-05-03T11:55:30.165Z</time></trkpt><trkpt lat="43.4322117" lon="11.74116"><ele>467.0</ele><time>2026-05-03T11:55:31.164Z</time></trkpt><trkpt lat="43.43231" lon="11.7412933"><ele>467.0</ele><time>2026-05-03T11:55:32.165Z</time></trkpt><trkpt lat="43.4323983" lon="11.7414283"><ele>464.5</ele><time>2026-05-03T11:55:33.165Z</time></trkpt><trkpt lat="43.43248" lon="11.741575"><ele>462.0</ele><time>2026-05-03T11:55:34.162Z</time></trkpt><trkpt lat="43.4325533" lon="11.7417383"><ele>459.5</ele><time>2026-05-03T11:55:35.163Z</time></trkpt><trkpt lat="43.432625" lon="11.7418983"><ele>457.0</ele><time>2026-05-03T11:55:36.161Z</time></trkpt><trkpt lat="43.4326917" lon="11.742045"><ele>456.83333333333337</ele><time>2026-05-03T11:55:37.162Z</time></trkpt><trkpt lat="43.4327533" lon="11.7421717"><ele>456.6666666666667</ele><time>2026-05-03T11:55:38.162Z</time></trkpt><trkpt lat="43.4328133" lon="11.74227"><ele>456.5</ele><time>2026-05-03T11:55:39.162Z</time></trkpt><trkpt lat="43.4328583" lon="11.7423617"><ele>456.33333333333337</ele><time>2026-05-03T11:55:40.163Z</time></trkpt><trkpt lat="43.4328817" lon="11.7424583"><ele>456.1666666666667</ele><time>2026-05-03T11:55:41.162Z</time></trkpt><trkpt lat="43.4328967" lon="11.7425717"><ele>456.0</ele><time>2026-05-03T11:55:42.161Z</time></trkpt><trkpt lat="43.4329017" lon="11.7426983"><ele>455.75</ele><time>2026-05-03T11:55:43.162Z</time></trkpt><trkpt lat="43.432905" lon="11.7428483"><ele>455.5</ele><time>2026-05-03T11:55:44.162Z</time></trkpt><trkpt lat="43.4329217" lon="11.743005"><ele>455.25</ele><time>2026-05-03T11:55:45.162Z</time></trkpt><trkpt lat="43.4329483" lon="11.7431767"><ele>455.0</ele><time>2026-05-03T11:55:46.165Z</time></trkpt><trkpt lat="43.432995" lon="11.7433533"><ele>455.0</ele><time>2026-05-03T11:55:47.165Z</time></trkpt><trkpt lat="43.4330433" lon="11.743525"><ele>455.0</ele><time>2026-05-03T11:55:48.164Z</time></trkpt><trkpt lat="43.433105" lon="11.74369"><ele>455.0</ele><time>2026-05-03T11:55:49.165Z</time></trkpt><trkpt lat="43.4331767" lon="11.7438417"><ele>455.0</ele><time>2026-05-03T11:55:50.162Z</time></trkpt><trkpt lat="43.4332617" lon="11.7439783"><ele>454.25</ele><time>2026-05-03T11:55:51.162Z</time></trkpt><trkpt lat="43.43336" lon="11.744105"><ele>453.5</ele><time>2026-05-03T11:55:52.165Z</time></trkpt><trkpt lat="43.433465" lon="11.74422"><ele>452.75</ele><time>2026-05-03T11:55:53.165Z</time></trkpt><trkpt lat="43.433575" lon="11.7443317"><ele>452.0</ele><time>2026-05-03T11:55:54.165Z</time></trkpt><trkpt lat="43.4336783" lon="11.7444483"><ele>452.5</ele><time>2026-05-03T11:55:55.165Z</time></trkpt><trkpt lat="43.4337783" lon="11.7445617"><ele>453.0</ele><time>2026-05-03T11:55:56.163Z</time></trkpt><trkpt lat="43.433875" lon="11.74468"><ele>453.5</ele><time>2026-05-03T11:55:57.163Z</time></trkpt><trkpt lat="43.4339667" lon="11.7447983"><ele>454.0</ele><time>2026-05-03T11:55:58.162Z</time></trkpt><trkpt lat="43.4340533" lon="11.7449217"><ele>454.0</ele><time>2026-05-03T11:55:59.162Z</time></trkpt><trkpt lat="43.434135" lon="11.74505"><ele>454.0</ele><time>2026-05-03T11:56:00.162Z</time></trkpt><trkpt lat="43.4342033" lon="11.7451917"><ele>454.0</ele><time>2026-05-03T11:56:01.163Z</time></trkpt><trkpt lat="43.4342583" lon="11.7453517"><ele>454.0</ele><time>2026-05-03T11:56:02.162Z</time></trkpt><trkpt lat="43.4342983" lon="11.7455233"><ele>453.75</ele><time>2026-05-03T11:56:03.165Z</time></trkpt><trkpt lat="43.4343217" lon="11.7456983"><ele>453.5</ele><time>2026-05-03T11:56:04.162Z</time></trkpt><trkpt lat="43.4343383" lon="11.7458817"><ele>453.25</ele><time>2026-05-03T11:56:05.164Z</time></trkpt><trkpt lat="43.43435" lon="11.7460617"><ele>453.0</ele><time>2026-05-03T11:56:06.163Z</time></trkpt><trkpt lat="43.43437" lon="11.74624"><ele>453.0</ele><time>2026-05-03T11:56:07.162Z</time></trkpt><trkpt lat="43.4343983" lon="11.7464133"><ele>453.0</ele><time>2026-05-03T11:56:08.163Z</time></trkpt><trkpt lat="43.4344333" lon="11.7465867"><ele>453.0</ele><time>2026-05-03T11:56:09.162Z</time></trkpt><trkpt lat="43.4344733" lon="11.7467583"><ele>453.0</ele><time>2026-05-03T11:56:10.163Z</time></trkpt><trkpt lat="43.4345183" lon="11.7469317"><ele>452.75</ele><time>2026-05-03T11:56:11.163Z</time></trkpt><trkpt lat="43.4345617" lon="11.747105"><ele>452.5</ele><time>2026-05-03T11:56:12.162Z</time></trkpt><trkpt lat="43.43461" lon="11.747275"><ele>452.25</ele><time>2026-05-03T11:56:13.162Z</time></trkpt><trkpt lat="43.4346633" lon="11.7474417"><ele>452.0</ele><time>2026-05-03T11:56:14.162Z</time></trkpt><trkpt lat="43.434725" lon="11.7476017"><ele>454.0</ele><time>2026-05-03T11:56:15.162Z</time></trkpt><trkpt lat="43.4347883" lon="11.74776"><ele>456.0</ele><time>2026-05-03T11:56:16.162Z</time></trkpt><trkpt lat="43.4348483" lon="11.74792"><ele>458.0</ele><time>2026-05-03T11:56:17.164Z</time></trkpt><trkpt lat="43.4349083" lon="11.74808"><ele>460.0</ele><time>2026-05-03T11:56:18.162Z</time></trkpt><trkpt lat="43.434975" lon="11.7482283"><ele>460.0</ele><time>2026-05-03T11:56:19.162Z</time></trkpt><trkpt lat="43.4350533" lon="11.7483717"><ele>460.0</ele><time>2026-05-03T11:56:20.163Z</time></trkpt><trkpt lat="43.4351433" lon="11.74851"><ele>460.0</ele><time>2026-05-03T11:56:21.162Z</time></trkpt><trkpt lat="43.4352317" lon="11.748645"><ele>460.0</ele><time>2026-05-03T11:56:22.162Z</time></trkpt><trkpt lat="43.43531" lon="11.7487733"><ele>459.25</ele><time>2026-05-03T11:56:23.163Z</time></trkpt><trkpt lat="43.4353833" lon="11.7488983"><ele>458.5</ele><time>2026-05-03T11:56:24.166Z</time></trkpt><trkpt lat="43.43545" lon="11.749025"><ele>457.75</ele><time>2026-05-03T11:56:25.166Z</time></trkpt><trkpt lat="43.4355167" lon="11.7491583"><ele>457.0</ele><time>2026-05-03T11:56:26.164Z</time></trkpt><trkpt lat="43.435575" lon="11.7493"><ele>460.5</ele><time>2026-05-03T11:56:27.164Z</time></trkpt><trkpt lat="43.4356317" lon="11.7494533"><ele>464.0</ele><time>2026-05-03T11:56:28.163Z</time></trkpt><trkpt lat="43.4356917" lon="11.7496117"><ele>467.5</ele><time>2026-05-03T11:56:29.163Z</time></trkpt><trkpt lat="43.435745" lon="11.7497683"><ele>471.0</ele><time>2026-05-03T11:56:30.166Z</time></trkpt><trkpt lat="43.435795" lon="11.7499317"><ele>471.0</ele><time>2026-05-03T11:56:31.163Z</time></trkpt><trkpt lat="43.435845" lon="11.7500933"><ele>471.0</ele><time>2026-05-03T11:56:32.163Z</time></trkpt><trkpt lat="43.4359033" lon="11.7502517"><ele>471.0</ele><time>2026-05-03T11:56:33.163Z</time></trkpt><trkpt lat="43.4359667" lon="11.7503967"><ele>471.0</ele><time>2026-05-03T11:56:34.165Z</time></trkpt><trkpt lat="43.43603" lon="11.7505417"><ele>471.0</ele><time>2026-05-03T11:56:35.165Z</time></trkpt><trkpt lat="43.4360967" lon="11.750685"><ele>471.0</ele><time>2026-05-03T11:56:36.165Z</time></trkpt><trkpt lat="43.4361717" lon="11.7508333"><ele>471.0</ele><time>2026-05-03T11:56:37.163Z</time></trkpt><trkpt lat="43.436245" lon="11.7509833"><ele>471.0</ele><time>2026-05-03T11:56:38.165Z</time></trkpt><trkpt lat="43.436315" lon="11.7511417"><ele>471.0</ele><time>2026-05-03T11:56:39.164Z</time></trkpt><trkpt lat="43.4363833" lon="11.7513083"><ele>471.0</ele><time>2026-05-03T11:56:40.165Z</time></trkpt><trkpt lat="43.4364417" lon="11.7514733"><ele>471.0</ele><time>2026-05-03T11:56:41.163Z</time></trkpt><trkpt lat="43.4364967" lon="11.7516333"><ele>471.0</ele><time>2026-05-03T11:56:42.163Z</time></trkpt><trkpt lat="43.4365583" lon="11.751795"><ele>470.75</ele><time>2026-05-03T11:56:43.165Z</time></trkpt><trkpt lat="43.4366267" lon="11.751945"><ele>470.5</ele><time>2026-05-03T11:56:44.163Z</time></trkpt><trkpt lat="43.4367083" lon="11.75209"><ele>470.25</ele><time>2026-05-03T11:56:45.163Z</time></trkpt><trkpt lat="43.4367933" lon="11.7522067"><ele>470.0</ele><time>2026-05-03T11:56:46.166Z</time></trkpt><trkpt lat="43.436895" lon="11.7523033"><ele>470.0</ele><time>2026-05-03T11:56:47.166Z</time></trkpt><trkpt lat="43.4370067" lon="11.7523867"><ele>470.0</ele><time>2026-05-03T11:56:48.166Z</time></trkpt><trkpt lat="43.4371283" lon="11.75245"><ele>470.0</ele><time>2026-05-03T11:56:49.165Z</time></trkpt><trkpt lat="43.437255" lon="11.752505"><ele>470.0</ele><time>2026-05-03T11:56:50.162Z</time></trkpt><trkpt lat="43.4373717" lon="11.7525667"><ele>469.0</ele><time>2026-05-03T11:56:51.166Z</time></trkpt><trkpt lat="43.43749" lon="11.752625"><ele>468.0</ele><time>2026-05-03T11:56:52.165Z</time></trkpt><trkpt lat="43.43761" lon="11.752665"><ele>467.0</ele><time>2026-05-03T11:56:53.167Z</time></trkpt><trkpt lat="43.4377183" lon="11.7527"><ele>466.0</ele><time>2026-05-03T11:56:54.165Z</time></trkpt><trkpt lat="43.4378133" lon="11.7527483"><ele>465.4</ele><time>2026-05-03T11:56:55.168Z</time></trkpt><trkpt lat="43.4379017" lon="11.7528217"><ele>464.8</ele><time>2026-05-03T11:56:56.164Z</time></trkpt><trkpt lat="43.4379833" lon="11.7529017"><ele>464.19999999999993</ele><time>2026-05-03T11:56:57.163Z</time></trkpt><trkpt lat="43.4380767" lon="11.7529717"><ele>463.59999999999997</ele><time>2026-05-03T11:56:58.164Z</time></trkpt><trkpt lat="43.4381833" lon="11.7530217"><ele>463.0</ele><time>2026-05-03T11:56:59.165Z</time></trkpt><trkpt lat="43.4382917" lon="11.7530617"><ele>462.4</ele><time>2026-05-03T11:57:00.165Z</time></trkpt><trkpt lat="43.4383917" lon="11.7531033"><ele>461.79999999999995</ele><time>2026-05-03T11:57:01.162Z</time></trkpt><trkpt lat="43.4384717" lon="11.753155"><ele>461.2</ele><time>2026-05-03T11:57:02.163Z</time></trkpt><trkpt lat="43.4385417" lon="11.7532233"><ele>460.6</ele><time>2026-05-03T11:57:03.165Z</time></trkpt><trkpt lat="43.438595" lon="11.7533233"><ele>460.0</ele><time>2026-05-03T11:57:04.163Z</time></trkpt><trkpt lat="43.4386317" lon="11.7534483"><ele>457.2</ele><time>2026-05-03T11:57:05.165Z</time></trkpt><trkpt lat="43.4386667" lon="11.7535583"><ele>454.4</ele><time>2026-05-03T11:57:06.164Z</time></trkpt><trkpt lat="43.4387167" lon="11.75366"><ele>451.6</ele><time>2026-05-03T11:57:07.162Z</time></trkpt><trkpt lat="43.43878" lon="11.7537567"><ele>448.8</ele><time>2026-05-03T11:57:08.162Z</time></trkpt><trkpt lat="43.4388533" lon="11.7538567"><ele>446.0</ele><time>2026-05-03T11:57:09.163Z</time></trkpt><trkpt lat="43.4389333" lon="11.7539683"><ele>446.0</ele><time>2026-05-03T11:57:10.162Z</time></trkpt><trkpt lat="43.4390083" lon="11.7540983"><ele>446.0</ele><time>2026-05-03T11:57:11.164Z</time></trkpt><trkpt lat="43.4390833" lon="11.75424"><ele>446.0</ele><time>2026-05-03T11:57:12.161Z</time></trkpt><trkpt lat="43.4391517" lon="11.7543783"><ele>446.0</ele><time>2026-05-03T11:57:13.162Z</time></trkpt><trkpt lat="43.4392133" lon="11.7545133"><ele>442.0</ele><time>2026-05-03T11:57:14.162Z</time></trkpt><trkpt lat="43.439275" lon="11.7546417"><ele>438.0</ele><time>2026-05-03T11:57:15.161Z</time></trkpt><trkpt lat="43.4393383" lon="11.7547633"><ele>434.0</ele><time>2026-05-03T11:57:16.162Z</time></trkpt><trkpt lat="43.4394067" lon="11.7548817"><ele>430.0</ele><time>2026-05-03T11:57:17.162Z</time></trkpt><trkpt lat="43.4394717" lon="11.7549967"><ele>426.0</ele><time>2026-05-03T11:57:18.164Z</time></trkpt><trkpt lat="43.4395283" lon="11.7550983"><ele>426.0</ele><time>2026-05-03T11:57:19.161Z</time></trkpt><trkpt lat="43.439575" lon="11.7551933"><ele>426.0</ele><time>2026-05-03T11:57:20.162Z</time></trkpt><trkpt lat="43.4396117" lon="11.7552783"><ele>426.0</ele><time>2026-05-03T11:57:21.161Z</time></trkpt><trkpt lat="43.43964" lon="11.7553567"><ele>426.0</ele><time>2026-05-03T11:57:22.161Z</time></trkpt><trkpt lat="43.4397183" lon="11.75548"><ele>426.0</ele><time>2026-05-03T11:57:24.164Z</time></trkpt><trkpt lat="43.4398367" lon="11.75554"><ele>424.8333333333333</ele><time>2026-05-03T11:57:26.162Z</time></trkpt><trkpt lat="43.43992" lon="11.7555533"><ele>423.66666666666663</ele><time>2026-05-03T11:57:27.161Z</time></trkpt><trkpt lat="43.4400133" lon="11.75557"><ele>422.5</ele><time>2026-05-03T11:57:28.161Z</time></trkpt><trkpt lat="43.4401033" lon="11.75559"><ele>421.3333333333333</ele><time>2026-05-03T11:57:29.162Z</time></trkpt><trkpt lat="43.4401917" lon="11.755615"><ele>420.16666666666663</ele><time>2026-05-03T11:57:30.161Z</time></trkpt><trkpt lat="43.4402667" lon="11.755645"><ele>419.0</ele><time>2026-05-03T11:57:31.162Z</time></trkpt><trkpt lat="43.440325" lon="11.7556783"><ele>418.99999999999994</ele><time>2026-05-03T11:57:32.163Z</time></trkpt><trkpt lat="43.4403867" lon="11.7557467"><ele>419.0</ele><time>2026-05-03T11:57:34.161Z</time></trkpt><trkpt lat="43.4402933" lon="11.7558167"><ele>419.0</ele><time>2026-05-03T11:57:37.164Z</time></trkpt><trkpt lat="43.44023" lon="11.7558467"><ele>419.0</ele><time>2026-05-03T11:57:38.164Z</time></trkpt><trkpt lat="43.44016" lon="11.7558917"><ele>418.99999999999994</ele><time>2026-05-03T11:57:39.161Z</time></trkpt><trkpt lat="43.4400783" lon="11.7559283"><ele>419.0</ele><time>2026-05-03T11:57:40.162Z</time></trkpt><trkpt lat="43.44" lon="11.755965"><ele>419.0</ele><time>2026-05-03T11:57:41.165Z</time></trkpt><trkpt lat="43.4399133" lon="11.7559867"><ele>419.0</ele><time>2026-05-03T11:57:42.162Z</time></trkpt><trkpt lat="43.4398317" lon="11.7560183"><ele>419.0</ele><time>2026-05-03T11:57:43.165Z</time></trkpt><trkpt lat="43.439745" lon="11.756065"><ele>419.0</ele><time>2026-05-03T11:57:44.162Z</time></trkpt><trkpt lat="43.4396533" lon="11.756115"><ele>419.0</ele><time>2026-05-03T11:57:45.163Z</time></trkpt><trkpt lat="43.4395717" lon="11.7561683"><ele>413.4</ele><time>2026-05-03T11:57:46.164Z</time></trkpt><trkpt lat="43.4395017" lon="11.7562217"><ele>407.79999999999995</ele><time>2026-05-03T11:57:47.165Z</time></trkpt><trkpt lat="43.4394467" lon="11.75628"><ele>402.20000000000005</ele><time>2026-05-03T11:57:48.164Z</time></trkpt><trkpt lat="43.4393883" lon="11.7563867"><ele>396.6</ele><time>2026-05-03T11:57:50.162Z</time></trkpt><trkpt lat="43.4393467" lon="11.75653"><ele>391.0</ele><time>2026-05-03T11:57:52.164Z</time></trkpt><trkpt lat="43.4392817" lon="11.7566783"><ele>390.99999999999994</ele><time>2026-05-03T11:57:54.162Z</time></trkpt><trkpt lat="43.4392483" lon="11.7567567"><ele>391.0</ele><time>2026-05-03T11:57:55.165Z</time></trkpt><trkpt lat="43.439205" lon="11.7568217"><ele>391.0</ele><time>2026-05-03T11:57:56.164Z</time></trkpt><trkpt lat="43.4391333" lon="11.7569167"><ele>391.0</ele><time>2026-05-03T11:57:58.167Z</time></trkpt><trkpt lat="43.4391433" lon="11.7570283"><ele>391.0</ele><time>2026-05-03T11:58:00.164Z</time></trkpt><trkpt lat="43.439175" lon="11.7571033"><ele>390.99999999999994</ele><time>2026-05-03T11:58:01.164Z</time></trkpt><trkpt lat="43.4391883" lon="11.75719"><ele>391.0</ele><time>2026-05-03T11:58:02.164Z</time></trkpt><trkpt lat="43.4391883" lon="11.7572867"><ele>388.83333333333337</ele><time>2026-05-03T11:58:03.164Z</time></trkpt><trkpt lat="43.43918" lon="11.75738"><ele>386.6666666666667</ele><time>2026-05-03T11:58:04.161Z</time></trkpt><trkpt lat="43.439165" lon="11.757475"><ele>384.5</ele><time>2026-05-03T11:58:05.165Z</time></trkpt><trkpt lat="43.439135" lon="11.7575567"><ele>382.33333333333337</ele><time>2026-05-03T11:58:06.162Z</time></trkpt><trkpt lat="43.4390817" lon="11.7577017"><ele>380.1666666666667</ele><time>2026-05-03T11:58:08.162Z</time></trkpt><trkpt lat="43.4390317" lon="11.7578283"><ele>378.0</ele><time>2026-05-03T11:58:10.163Z</time></trkpt><trkpt lat="43.4390433" lon="11.758005"><ele>376.1666666666667</ele><time>2026-05-03T11:58:12.162Z</time></trkpt><trkpt lat="43.43907" lon="11.7581"><ele>374.3333333333333</ele><time>2026-05-03T11:58:13.163Z</time></trkpt><trkpt lat="43.4390883" lon="11.7581833"><ele>372.5</ele><time>2026-05-03T11:58:14.162Z</time></trkpt><trkpt lat="43.439065" lon="11.7583367"><ele>370.66666666666663</ele><time>2026-05-03T11:58:16.162Z</time></trkpt><trkpt lat="43.4390233" lon="11.7584033"><ele>368.8333333333333</ele><time>2026-05-03T11:58:17.163Z</time></trkpt><trkpt lat="43.4389767" lon="11.7584633"><ele>367.0</ele><time>2026-05-03T11:58:18.165Z</time></trkpt><trkpt lat="43.438915" lon="11.7585133"><ele>363.8</ele><time>2026-05-03T11:58:19.162Z</time></trkpt><trkpt lat="43.43881" lon="11.758585"><ele>360.6</ele><time>2026-05-03T11:58:21.164Z</time></trkpt><trkpt lat="43.4387217" lon="11.758655"><ele>357.40000000000003</ele><time>2026-05-03T11:58:23.162Z</time></trkpt><trkpt lat="43.4386417" lon="11.758695"><ele>354.20000000000005</ele><time>2026-05-03T11:58:25.164Z</time></trkpt><trkpt lat="43.43859" lon="11.7587483"><ele>351.0</ele><time>2026-05-03T11:58:27.166Z</time></trkpt><trkpt lat="43.4385933" lon="11.7588967"><ele>351.0</ele><time>2026-05-03T11:58:29.165Z</time></trkpt><trkpt lat="43.4386483" lon="11.7590517"><ele>351.0</ele><time>2026-05-03T11:58:31.164Z</time></trkpt><trkpt lat="43.4386833" lon="11.759125"><ele>351.0</ele><time>2026-05-03T11:58:32.164Z</time></trkpt><trkpt lat="43.438765" lon="11.7592633"><ele>351.0</ele><time>2026-05-03T11:58:34.165Z</time></trkpt><trkpt lat="43.438825" lon="11.7593233"><ele>351.0</ele><time>2026-05-03T11:58:35.165Z</time></trkpt><trkpt lat="43.4388917" lon="11.7593683"><ele>351.0</ele><time>2026-05-03T11:58:36.169Z</time></trkpt><trkpt lat="43.4389567" lon="11.7593967"><ele>351.0</ele><time>2026-05-03T11:58:37.162Z</time></trkpt><trkpt lat="43.4390733" lon="11.7594083"><ele>351.0</ele><time>2026-05-03T11:58:39.162Z</time></trkpt><trkpt lat="43.4391933" lon="11.7593667"><ele>351.0</ele><time>2026-05-03T11:58:41.163Z</time></trkpt><trkpt lat="43.4392583" lon="11.7593167"><ele>351.0</ele><time>2026-05-03T11:58:42.162Z</time></trkpt><trkpt lat="43.4393233" lon="11.7592583"><ele>351.0</ele><time>2026-05-03T11:58:43.162Z</time></trkpt><trkpt lat="43.43938" lon="11.75921"><ele>351.0</ele><time>2026-05-03T11:58:44.163Z</time></trkpt><trkpt lat="43.43944" lon="11.7591567"><ele>351.0</ele><time>2026-05-03T11:58:46.162Z</time></trkpt><trkpt lat="43.439405" lon="11.7592883"><ele>351.0</ele><time>2026-05-03T11:58:50.164Z</time></trkpt><trkpt lat="43.439355" lon="11.7593583"><ele>351.0</ele><time>2026-05-03T11:58:51.162Z</time></trkpt><trkpt lat="43.43929" lon="11.7594333"><ele>351.0</ele><time>2026-05-03T11:58:52.162Z</time></trkpt><trkpt lat="43.4392283" lon="11.7594917"><ele>347.8</ele><time>2026-05-03T11:58:53.166Z</time></trkpt><trkpt lat="43.439135" lon="11.75958"><ele>344.6</ele><time>2026-05-03T11:58:55.164Z</time></trkpt><trkpt lat="43.4392217" lon="11.7596467"><ele>341.4</ele><time>2026-05-03T11:58:58.162Z</time></trkpt><trkpt lat="43.4392983" lon="11.759655"><ele>338.2</ele><time>2026-05-03T11:58:59.169Z</time></trkpt><trkpt lat="43.4393783" lon="11.7596717"><ele>335.0</ele><time>2026-05-03T11:59:00.165Z</time></trkpt><trkpt lat="43.4394583" lon="11.7596933"><ele>335.0</ele><time>2026-05-03T11:59:01.165Z</time></trkpt><trkpt lat="43.4395333" lon="11.7597517"><ele>335.0</ele><time>2026-05-03T11:59:03.162Z</time></trkpt><trkpt lat="43.4394683" lon="11.759895"><ele>335.0</ele><time>2026-05-03T11:59:05.163Z</time></trkpt><trkpt lat="43.4394083" lon="11.7599833"><ele>335.0</ele><time>2026-05-03T11:59:06.163Z</time></trkpt><trkpt lat="43.4393533" lon="11.7600617"><ele>335.0</ele><time>2026-05-03T11:59:07.165Z</time></trkpt><trkpt lat="43.4392917" lon="11.76012"><ele>335.0</ele><time>2026-05-03T11:59:08.162Z</time></trkpt><trkpt lat="43.4392033" lon="11.7602333"><ele>335.0</ele><time>2026-05-03T11:59:10.165Z</time></trkpt><trkpt lat="43.4391583" lon="11.7602983"><ele>335.0</ele><time>2026-05-03T11:59:11.166Z</time></trkpt><trkpt lat="43.4391067" lon="11.760375"><ele>335.0</ele><time>2026-05-03T11:59:12.162Z</time></trkpt><trkpt lat="43.4390517" lon="11.7604683"><ele>335.0</ele><time>2026-05-03T11:59:13.162Z</time></trkpt><trkpt lat="43.438995" lon="11.7605583"><ele>335.0</ele><time>2026-05-03T11:59:14.162Z</time></trkpt><trkpt lat="43.4389483" lon="11.7606483"><ele>335.0</ele><time>2026-05-03T11:59:15.165Z</time></trkpt><trkpt lat="43.4389183" lon="11.7607283"><ele>335.0</ele><time>2026-05-03T11:59:16.162Z</time></trkpt><trkpt lat="43.4389167" lon="11.760815"><ele>335.0</ele><time>2026-05-03T11:59:17.163Z</time></trkpt><trkpt lat="43.43893" lon="11.7609067"><ele>335.0</ele><time>2026-05-03T11:59:18.162Z</time></trkpt><trkpt lat="43.4389483" lon="11.7609967"><ele>335.0</ele><time>2026-05-03T11:59:19.162Z</time></trkpt><trkpt lat="43.4389833" lon="11.7611283"><ele>335.0</ele><time>2026-05-03T11:59:21.162Z</time></trkpt><trkpt lat="43.439055" lon="11.761215"><ele>333.6</ele><time>2026-05-03T11:59:23.163Z</time></trkpt><trkpt lat="43.4391367" lon="11.7613417"><ele>332.2</ele><time>2026-05-03T11:59:25.165Z</time></trkpt><trkpt lat="43.439205" lon="11.76148"><ele>330.79999999999995</ele><time>2026-05-03T11:59:27.163Z</time></trkpt><trkpt lat="43.43919" lon="11.76157"><ele>329.4</ele><time>2026-05-03T11:59:29.163Z</time></trkpt><trkpt lat="43.439065" lon="11.76164"><ele>328.0</ele><time>2026-05-03T11:59:31.163Z</time></trkpt><trkpt lat="43.4390033" lon="11.7616917"><ele>328.0</ele><time>2026-05-03T11:59:32.162Z</time></trkpt><trkpt lat="43.4389533" lon="11.76176"><ele>328.0</ele><time>2026-05-03T11:59:33.162Z</time></trkpt><trkpt lat="43.4389017" lon="11.7618517"><ele>328.0</ele><time>2026-05-03T11:59:34.163Z</time></trkpt><trkpt lat="43.4388533" lon="11.7619633"><ele>328.0</ele><time>2026-05-03T11:59:35.163Z</time></trkpt><trkpt lat="43.4388017" lon="11.7620683"><ele>328.0</ele><time>2026-05-03T11:59:36.163Z</time></trkpt><trkpt lat="43.4387467" lon="11.762185"><ele>328.0</ele><time>2026-05-03T11:59:37.163Z</time></trkpt><trkpt lat="43.4386783" lon="11.7623017"><ele>328.0</ele><time>2026-05-03T11:59:38.165Z</time></trkpt><trkpt lat="43.4386033" lon="11.762415"><ele>328.0</ele><time>2026-05-03T11:59:39.162Z</time></trkpt><trkpt lat="43.4385383" lon="11.762525"><ele>328.0</ele><time>2026-05-03T11:59:40.163Z</time></trkpt><trkpt lat="43.4384817" lon="11.7626267"><ele>328.0</ele><time>2026-05-03T11:59:41.161Z</time></trkpt><trkpt lat="43.4384267" lon="11.7627333"><ele>328.0</ele><time>2026-05-03T11:59:42.162Z</time></trkpt><trkpt lat="43.4383867" lon="11.76285"><ele>327.99999999999994</ele><time>2026-05-03T11:59:43.163Z</time></trkpt><trkpt lat="43.43836" lon="11.7629533"><ele>328.0</ele><time>2026-05-03T11:59:44.162Z</time></trkpt><trkpt lat="43.438345" lon="11.763045"><ele>328.0</ele><time>2026-05-03T11:59:45.162Z</time></trkpt><trkpt lat="43.4383483" lon="11.76315"><ele>328.0</ele><time>2026-05-03T11:59:46.162Z</time></trkpt><trkpt lat="43.438355" lon="11.763255"><ele>328.0</ele><time>2026-05-03T11:59:47.161Z</time></trkpt><trkpt lat="43.4383717" lon="11.763345"><ele>327.99999999999994</ele><time>2026-05-03T11:59:48.161Z</time></trkpt><trkpt lat="43.4384067" lon="11.763435"><ele>328.0</ele><time>2026-05-03T11:59:49.162Z</time></trkpt><trkpt lat="43.43845" lon="11.7635283"><ele>327.8333333333333</ele><time>2026-05-03T11:59:50.162Z</time></trkpt><trkpt lat="43.4385" lon="11.7636183"><ele>327.66666666666663</ele><time>2026-05-03T11:59:51.161Z</time></trkpt><trkpt lat="43.4385433" lon="11.7637167"><ele>327.5</ele><time>2026-05-03T11:59:52.162Z</time></trkpt><trkpt lat="43.4385733" lon="11.76383"><ele>327.3333333333333</ele><time>2026-05-03T11:59:53.161Z</time></trkpt><trkpt lat="43.4385817" lon="11.7639517"><ele>327.1666666666667</ele><time>2026-05-03T11:59:54.166Z</time></trkpt><trkpt lat="43.4385817" lon="11.7640617"><ele>327.0</ele><time>2026-05-03T11:59:55.165Z</time></trkpt><trkpt lat="43.438585" lon="11.7641633"><ele>327.0</ele><time>2026-05-03T11:59:56.164Z</time></trkpt><trkpt lat="43.4385967" lon="11.7642583"><ele>327.0</ele><time>2026-05-03T11:59:57.164Z</time></trkpt><trkpt lat="43.4386133" lon="11.76435"><ele>327.0</ele><time>2026-05-03T11:59:58.164Z</time></trkpt><trkpt lat="43.438685" lon="11.7644617"><ele>327.0</ele><time>2026-05-03T12:00:00.164Z</time></trkpt><trkpt lat="43.4387933" lon="11.7644783"><ele>327.0</ele><time>2026-05-03T12:00:02.165Z</time></trkpt><trkpt lat="43.4388733" lon="11.7644933"><ele>327.0</ele><time>2026-05-03T12:00:03.164Z</time></trkpt><trkpt lat="43.43896" lon="11.7645117"><ele>331.0</ele><time>2026-05-03T12:00:04.161Z</time></trkpt><trkpt lat="43.4390533" lon="11.76453"><ele>335.0</ele><time>2026-05-03T12:00:05.163Z</time></trkpt><trkpt lat="43.4391367" lon="11.7645567"><ele>339.0</ele><time>2026-05-03T12:00:06.164Z</time></trkpt><trkpt lat="43.4392033" lon="11.7645983"><ele>343.0</ele><time>2026-05-03T12:00:07.161Z</time></trkpt><trkpt lat="43.43927" lon="11.76471"><ele>347.0</ele><time>2026-05-03T12:00:09.162Z</time></trkpt><trkpt lat="43.4392167" lon="11.764885"><ele>347.0</ele><time>2026-05-03T12:00:11.162Z</time></trkpt><trkpt lat="43.4391717" lon="11.7649667"><ele>347.0</ele><time>2026-05-03T12:00:12.161Z</time></trkpt><trkpt lat="43.4391033" lon="11.7650583"><ele>347.0</ele><time>2026-05-03T12:00:13.162Z</time></trkpt><trkpt lat="43.4390483" lon="11.76514"><ele>347.0</ele><time>2026-05-03T12:00:14.162Z</time></trkpt><trkpt lat="43.43901" lon="11.765235"><ele>347.0</ele><time>2026-05-03T12:00:15.162Z</time></trkpt><trkpt lat="43.4389817" lon="11.7653533"><ele>347.0</ele><time>2026-05-03T12:00:16.162Z</time></trkpt><trkpt lat="43.438955" lon="11.7654717"><ele>346.5</ele><time>2026-05-03T12:00:17.163Z</time></trkpt><trkpt lat="43.4389267" lon="11.76558"><ele>346.0</ele><time>2026-05-03T12:00:18.161Z</time></trkpt><trkpt lat="43.43891" lon="11.7656833"><ele>345.5</ele><time>2026-05-03T12:00:19.162Z</time></trkpt><trkpt lat="43.4388883" lon="11.7658217"><ele>345.0</ele><time>2026-05-03T12:00:21.161Z</time></trkpt><trkpt lat="43.43886" lon="11.7659483"><ele>344.5</ele><time>2026-05-03T12:00:23.165Z</time></trkpt><trkpt lat="43.438845" lon="11.7660667"><ele>344.0</ele><time>2026-05-03T12:00:25.165Z</time></trkpt><trkpt lat="43.4388783" lon="11.76619"><ele>342.25</ele><time>2026-05-03T12:00:27.164Z</time></trkpt><trkpt lat="43.4389367" lon="11.7663383"><ele>340.5</ele><time>2026-05-03T12:00:29.165Z</time></trkpt><trkpt lat="43.438965" lon="11.7664933"><ele>338.75</ele><time>2026-05-03T12:00:31.164Z</time></trkpt><trkpt lat="43.4389667" lon="11.7666517"><ele>337.0</ele><time>2026-05-03T12:00:33.161Z</time></trkpt><trkpt lat="43.4389383" lon="11.7667867"><ele>337.0</ele><time>2026-05-03T12:00:35.162Z</time></trkpt><trkpt lat="43.4388683" lon="11.76688"><ele>337.0</ele><time>2026-05-03T12:00:37.162Z</time></trkpt><trkpt lat="43.4388067" lon="11.7669467"><ele>337.0</ele><time>2026-05-03T12:00:39.162Z</time></trkpt><trkpt lat="43.4387467" lon="11.7670117"><ele>337.0</ele><time>2026-05-03T12:00:42.161Z</time></trkpt><trkpt lat="43.43881" lon="11.7670117"><ele>337.0</ele><time>2026-05-03T12:00:45.162Z</time></trkpt><trkpt lat="43.4388817" lon="11.7669283"><ele>337.0</ele><time>2026-05-03T12:00:48.161Z</time></trkpt><trkpt lat="43.438965" lon="11.7668067"><ele>337.0</ele><time>2026-05-03T12:00:50.164Z</time></trkpt><trkpt lat="43.439005" lon="11.7667033"><ele>337.0</ele><time>2026-05-03T12:00:51.165Z</time></trkpt><trkpt lat="43.4390183" lon="11.7665633"><ele>337.0</ele><time>2026-05-03T12:00:52.165Z</time></trkpt><trkpt lat="43.4390083" lon="11.7664183"><ele>337.0</ele><time>2026-05-03T12:00:53.163Z</time></trkpt><trkpt lat="43.4389717" lon="11.76629"><ele>337.0</ele><time>2026-05-03T12:00:54.164Z</time></trkpt><trkpt lat="43.4389317" lon="11.766185"><ele>337.0</ele><time>2026-05-03T12:00:55.164Z</time></trkpt><trkpt lat="43.4388933" lon="11.7660317"><ele>337.0</ele><time>2026-05-03T12:00:57.164Z</time></trkpt><trkpt lat="43.4389017" lon="11.7658767"><ele>337.0</ele><time>2026-05-03T12:00:59.165Z</time></trkpt><trkpt lat="43.4389267" lon="11.7656917"><ele>337.0</ele><time>2026-05-03T12:01:01.162Z</time></trkpt><trkpt lat="43.4389517" lon="11.7655817"><ele>338.16666666666663</ele><time>2026-05-03T12:01:02.162Z</time></trkpt><trkpt lat="43.4389767" lon="11.76547"><ele>339.3333333333333</ele><time>2026-05-03T12:01:03.162Z</time></trkpt><trkpt lat="43.4389983" lon="11.7653667"><ele>340.5</ele><time>2026-05-03T12:01:04.162Z</time></trkpt><trkpt lat="43.439015" lon="11.7652717"><ele>341.6666666666667</ele><time>2026-05-03T12:01:05.165Z</time></trkpt><trkpt lat="43.43907" lon="11.765115"><ele>342.83333333333337</ele><time>2026-05-03T12:01:07.162Z</time></trkpt><trkpt lat="43.4391233" lon="11.76504"><ele>344.0</ele><time>2026-05-03T12:01:08.162Z</time></trkpt><trkpt lat="43.4391733" lon="11.7649633"><ele>344.6</ele><time>2026-05-03T12:01:09.161Z</time></trkpt><trkpt lat="43.439225" lon="11.7648233"><ele>345.2</ele><time>2026-05-03T12:01:11.162Z</time></trkpt><trkpt lat="43.4392267" lon="11.7646767"><ele>345.8</ele><time>2026-05-03T12:01:13.163Z</time></trkpt><trkpt lat="43.4391833" lon="11.7645667"><ele>346.40000000000003</ele><time>2026-05-03T12:01:15.163Z</time></trkpt><trkpt lat="43.4391167" lon="11.7645467"><ele>347.0</ele><time>2026-05-03T12:01:16.162Z</time></trkpt><trkpt lat="43.4390433" lon="11.764525"><ele>347.0</ele><time>2026-05-03T12:01:17.162Z</time></trkpt><trkpt lat="43.4389683" lon="11.7645033"><ele>347.0</ele><time>2026-05-03T12:01:18.165Z</time></trkpt><trkpt lat="43.4388767" lon="11.7644817"><ele>347.0</ele><time>2026-05-03T12:01:19.162Z</time></trkpt><trkpt lat="43.43879" lon="11.7644667"><ele>347.0</ele><time>2026-05-03T12:01:20.164Z</time></trkpt><trkpt lat="43.4387133" lon="11.7644533"><ele>347.0</ele><time>2026-05-03T12:01:21.165Z</time></trkpt><trkpt lat="43.4386217" lon="11.7643917"><ele>347.0</ele><time>2026-05-03T12:01:23.167Z</time></trkpt><trkpt lat="43.4385767" lon="11.7642633"><ele>343.6666666666667</ele><time>2026-05-03T12:01:25.165Z</time></trkpt><trkpt lat="43.4385567" lon="11.76418"><ele>340.33333333333337</ele><time>2026-05-03T12:01:26.162Z</time></trkpt><trkpt lat="43.4385433" lon="11.7640867"><ele>337.0</ele><time>2026-05-03T12:01:27.162Z</time></trkpt><trkpt lat="43.4385317" lon="11.7639667"><ele>333.6666666666667</ele><time>2026-05-03T12:01:28.162Z</time></trkpt><trkpt lat="43.4385233" lon="11.76384"><ele>330.3333333333333</ele><time>2026-05-03T12:01:29.162Z</time></trkpt><trkpt lat="43.4385117" lon="11.763715"><ele>327.0</ele><time>2026-05-03T12:01:30.161Z</time></trkpt><trkpt lat="43.43848" lon="11.763615"><ele>327.1666666666667</ele><time>2026-05-03T12:01:31.162Z</time></trkpt><trkpt lat="43.43843" lon="11.7635267"><ele>327.3333333333333</ele><time>2026-05-03T12:01:32.162Z</time></trkpt><trkpt lat="43.4383833" lon="11.7634483"><ele>327.5</ele><time>2026-05-03T12:01:33.162Z</time></trkpt><trkpt lat="43.4383483" lon="11.7633633"><ele>327.66666666666663</ele><time>2026-05-03T12:01:34.162Z</time></trkpt><trkpt lat="43.4383283" lon="11.7631867"><ele>327.8333333333333</ele><time>2026-05-03T12:01:36.162Z</time></trkpt><trkpt lat="43.4383267" lon="11.7630833"><ele>328.0</ele><time>2026-05-03T12:01:37.162Z</time></trkpt><trkpt lat="43.4383333" lon="11.7629883"><ele>327.99999999999994</ele><time>2026-05-03T12:01:38.162Z</time></trkpt><trkpt lat="43.43835" lon="11.762895"><ele>328.0</ele><time>2026-05-03T12:01:39.162Z</time></trkpt><trkpt lat="43.4383717" lon="11.7628083"><ele>328.0</ele><time>2026-05-03T12:01:40.163Z</time></trkpt><trkpt lat="43.4384" lon="11.76272"><ele>328.0</ele><time>2026-05-03T12:01:41.162Z</time></trkpt><trkpt lat="43.4384367" lon="11.7626417"><ele>328.0</ele><time>2026-05-03T12:01:42.162Z</time></trkpt><trkpt lat="43.43848" lon="11.76256"><ele>327.99999999999994</ele><time>2026-05-03T12:01:43.162Z</time></trkpt><trkpt lat="43.4385367" lon="11.762465"><ele>328.0</ele><time>2026-05-03T12:01:44.162Z</time></trkpt><trkpt lat="43.4386083" lon="11.76236"><ele>328.0</ele><time>2026-05-03T12:01:45.163Z</time></trkpt><trkpt lat="43.4386733" lon="11.7622617"><ele>328.0</ele><time>2026-05-03T12:01:46.163Z</time></trkpt><trkpt lat="43.438735" lon="11.7621667"><ele>328.0</ele><time>2026-05-03T12:01:47.163Z</time></trkpt><trkpt lat="43.4387917" lon="11.7620617"><ele>328.0</ele><time>2026-05-03T12:01:48.163Z</time></trkpt><trkpt lat="43.4388433" lon="11.7619517"><ele>328.0</ele><time>2026-05-03T12:01:49.162Z</time></trkpt><trkpt lat="43.4388933" lon="11.76184"><ele>328.0</ele><time>2026-05-03T12:01:50.162Z</time></trkpt><trkpt lat="43.4389383" lon="11.7617417"><ele>328.0</ele><time>2026-05-03T12:01:51.162Z</time></trkpt><trkpt lat="43.4389833" lon="11.7616733"><ele>328.0</ele><time>2026-05-03T12:01:52.165Z</time></trkpt><trkpt lat="43.43909" lon="11.7615967"><ele>328.0</ele><time>2026-05-03T12:01:54.165Z</time></trkpt><trkpt lat="43.4391817" lon="11.76154"><ele>328.0</ele><time>2026-05-03T12:01:56.165Z</time></trkpt><trkpt lat="43.4392117" lon="11.76144"><ele>328.0</ele><time>2026-05-03T12:01:58.162Z</time></trkpt><trkpt lat="43.439165" lon="11.7613067"><ele>328.0</ele><time>2026-05-03T12:02:00.162Z</time></trkpt><trkpt lat="43.4391217" lon="11.7612317"><ele>328.0</ele><time>2026-05-03T12:02:01.163Z</time></trkpt><trkpt lat="43.43905" lon="11.76114"><ele>328.0</ele><time>2026-05-03T12:02:03.162Z</time></trkpt><trkpt lat="43.439" lon="11.761065"><ele>328.0</ele><time>2026-05-03T12:02:05.163Z</time></trkpt><trkpt lat="43.438975" lon="11.7609617"><ele>328.0</ele><time>2026-05-03T12:02:07.162Z</time></trkpt><trkpt lat="43.43895" lon="11.7608167"><ele>329.16666666666663</ele><time>2026-05-03T12:02:09.163Z</time></trkpt><trkpt lat="43.4389667" lon="11.7606783"><ele>330.3333333333333</ele><time>2026-05-03T12:02:11.162Z</time></trkpt><trkpt lat="43.4390317" lon="11.76054"><ele>331.5</ele><time>2026-05-03T12:02:13.162Z</time></trkpt><trkpt lat="43.4390783" lon="11.760455"><ele>332.6666666666667</ele><time>2026-05-03T12:02:14.164Z</time></trkpt><trkpt lat="43.43913" lon="11.7603733"><ele>333.83333333333337</ele><time>2026-05-03T12:02:15.161Z</time></trkpt><trkpt lat="43.43918" lon="11.7603033"><ele>335.0</ele><time>2026-05-03T12:02:16.162Z</time></trkpt><trkpt lat="43.4392217" lon="11.7602367"><ele>335.0</ele><time>2026-05-03T12:02:17.162Z</time></trkpt><trkpt lat="43.4392933" lon="11.760135"><ele>335.0</ele><time>2026-05-03T12:02:19.162Z</time></trkpt><trkpt lat="43.4393833" lon="11.7600517"><ele>335.0</ele><time>2026-05-03T12:02:21.161Z</time></trkpt><trkpt lat="43.4394633" lon="11.75995"><ele>335.0</ele><time>2026-05-03T12:02:23.163Z</time></trkpt><trkpt lat="43.4395033" lon="11.7598633"><ele>335.0</ele><time>2026-05-03T12:02:24.161Z</time></trkpt><trkpt lat="43.4395333" lon="11.7597833"><ele>335.0</ele><time>2026-05-03T12:02:25.164Z</time></trkpt><trkpt lat="43.4395333" lon="11.7596817"><ele>335.0</ele><time>2026-05-03T12:02:27.161Z</time></trkpt><trkpt lat="43.439435" lon="11.75965"><ele>335.0</ele><time>2026-05-03T12:02:29.162Z</time></trkpt><trkpt lat="43.4393183" lon="11.7596217"><ele>335.0</ele><time>2026-05-03T12:02:31.161Z</time></trkpt><trkpt lat="43.43925" lon="11.75962"><ele>335.0</ele><time>2026-05-03T12:02:32.161Z</time></trkpt><trkpt lat="43.439185" lon="11.759605"><ele>335.0</ele><time>2026-05-03T12:02:33.162Z</time></trkpt><trkpt lat="43.4391567" lon="11.7595183"><ele>335.0</ele><time>2026-05-03T12:02:35.161Z</time></trkpt><trkpt lat="43.4392283" lon="11.7594333"><ele>335.0</ele><time>2026-05-03T12:02:37.161Z</time></trkpt><trkpt lat="43.43929" lon="11.759365"><ele>335.0</ele><time>2026-05-03T12:02:38.161Z</time></trkpt><trkpt lat="43.4393533" lon="11.7592817"><ele>335.0</ele><time>2026-05-03T12:02:39.161Z</time></trkpt><trkpt lat="43.439385" lon="11.75909"><ele>335.0</ele><time>2026-05-03T12:02:40.795Z</time></trkpt><trkpt lat="43.4393017" lon="11.7591933"><ele>337.6666666666667</ele><time>2026-05-03T12:02:46.162Z</time></trkpt><trkpt lat="43.4392383" lon="11.7592467"><ele>340.33333333333337</ele><time>2026-05-03T12:02:47.162Z</time></trkpt><trkpt lat="43.4391683" lon="11.7592933"><ele>343.0</ele><time>2026-05-03T12:02:48.161Z</time></trkpt><trkpt lat="43.4390767" lon="11.75931"><ele>345.6666666666667</ele><time>2026-05-03T12:02:49.161Z</time></trkpt><trkpt lat="43.4390067" lon="11.7593367"><ele>348.3333333333333</ele><time>2026-05-03T12:02:50.161Z</time></trkpt><trkpt lat="43.4388917" lon="11.7593233"><ele>351.0</ele><time>2026-05-03T12:02:52.161Z</time></trkpt><trkpt lat="43.4388333" lon="11.7592867"><ele>350.3333333333333</ele><time>2026-05-03T12:02:53.162Z</time></trkpt><trkpt lat="43.43878" lon="11.7592283"><ele>349.6666666666667</ele><time>2026-05-03T12:02:54.161Z</time></trkpt><trkpt lat="43.4387267" lon="11.759155"><ele>349.0</ele><time>2026-05-03T12:02:55.161Z</time></trkpt><trkpt lat="43.4386883" lon="11.75908"><ele>348.33333333333337</ele><time>2026-05-03T12:02:56.163Z</time></trkpt><trkpt lat="43.43863" lon="11.758935"><ele>347.6666666666667</ele><time>2026-05-03T12:02:58.162Z</time></trkpt><trkpt lat="43.4385967" lon="11.75879"><ele>347.0</ele><time>2026-05-03T12:03:00.162Z</time></trkpt><trkpt lat="43.4386083" lon="11.7586517"><ele>347.0</ele><time>2026-05-03T12:03:02.161Z</time></trkpt><trkpt lat="43.43867" lon="11.7585833"><ele>347.0</ele><time>2026-05-03T12:03:04.161Z</time></trkpt><trkpt lat="43.438725" lon="11.7586617"><ele>347.0</ele><time>2026-05-03T12:05:07.162Z</time></trkpt><trkpt lat="43.438795" lon="11.7586033"><ele>347.0</ele><time>2026-05-03T12:05:10.164Z</time></trkpt><trkpt lat="43.4388533" lon="11.7585633"><ele>347.0</ele><time>2026-05-03T12:05:12.161Z</time></trkpt><trkpt lat="43.438925" lon="11.758515"><ele>347.0</ele><time>2026-05-03T12:05:14.161Z</time></trkpt><trkpt lat="43.4390217" lon="11.758415"><ele>350.33333333333337</ele><time>2026-05-03T12:05:16.162Z</time></trkpt><trkpt lat="43.4390817" lon="11.75829"><ele>353.6666666666667</ele><time>2026-05-03T12:05:18.162Z</time></trkpt><trkpt lat="43.4390917" lon="11.7581517"><ele>357.0</ele><time>2026-05-03T12:05:20.162Z</time></trkpt><trkpt lat="43.4390767" lon="11.7580667"><ele>360.3333333333333</ele><time>2026-05-03T12:05:21.162Z</time></trkpt><trkpt lat="43.4390583" lon="11.7579367"><ele>363.66666666666663</ele><time>2026-05-03T12:05:23.162Z</time></trkpt><trkpt lat="43.4390583" lon="11.7580367"><ele>367.0</ele><time>2026-05-03T12:05:34.161Z</time></trkpt><trkpt lat="43.43909" lon="11.7581783"><ele>367.0</ele><time>2026-05-03T12:05:36.161Z</time></trkpt><trkpt lat="43.4390667" lon="11.7583033"><ele>367.0</ele><time>2026-05-03T12:05:38.162Z</time></trkpt><trkpt lat="43.439" lon="11.758425"><ele>367.0</ele><time>2026-05-03T12:05:40.161Z</time></trkpt><trkpt lat="43.4389083" lon="11.7585167"><ele>367.0</ele><time>2026-05-03T12:05:42.162Z</time></trkpt><trkpt lat="43.4388133" lon="11.7585633"><ele>367.0</ele><time>2026-05-03T12:05:44.161Z</time></trkpt><trkpt lat="43.43873" lon="11.758625"><ele>363.66666666666663</ele><time>2026-05-03T12:05:46.162Z</time></trkpt><trkpt lat="43.4386583" lon="11.7586667"><ele>360.3333333333333</ele><time>2026-05-03T12:05:48.162Z</time></trkpt><trkpt lat="43.438585" lon="11.758695"><ele>357.0</ele><time>2026-05-03T12:05:51.161Z</time></trkpt><trkpt lat="43.4385767" lon="11.7587817"><ele>353.6666666666667</ele><time>2026-05-03T12:06:05.161Z</time></trkpt><trkpt lat="43.4386083" lon="11.7589483"><ele>350.33333333333337</ele><time>2026-05-03T12:06:07.162Z</time></trkpt><trkpt lat="43.4386367" lon="11.7590267"><ele>347.0</ele><time>2026-05-03T12:06:08.162Z</time></trkpt><trkpt lat="43.4386967" lon="11.75915"><ele>347.0</ele><time>2026-05-03T12:06:10.162Z</time></trkpt><trkpt lat="43.4387483" lon="11.75921"><ele>347.0</ele><time>2026-05-03T12:06:11.163Z</time></trkpt><trkpt lat="43.4388083" lon="11.75927"><ele>347.0</ele><time>2026-05-03T12:06:12.161Z</time></trkpt><trkpt lat="43.4388683" lon="11.7593117"><ele>347.0</ele><time>2026-05-03T12:06:13.162Z</time></trkpt><trkpt lat="43.4389317" lon="11.75935"><ele>347.0</ele><time>2026-05-03T12:06:14.162Z</time></trkpt><trkpt lat="43.4389933" lon="11.7593717"><ele>347.0</ele><time>2026-05-03T12:06:15.161Z</time></trkpt><trkpt lat="43.4390983" lon="11.759375"><ele>347.0</ele><time>2026-05-03T12:06:17.165Z</time></trkpt><trkpt lat="43.4391633" lon="11.7593367"><ele>347.6666666666667</ele><time>2026-05-03T12:06:18.162Z</time></trkpt><trkpt lat="43.4392283" lon="11.75928"><ele>348.33333333333337</ele><time>2026-05-03T12:06:19.162Z</time></trkpt><trkpt lat="43.43929" lon="11.7592183"><ele>349.0</ele><time>2026-05-03T12:06:20.162Z</time></trkpt><trkpt lat="43.43938" lon="11.75916"><ele>349.6666666666667</ele><time>2026-05-03T12:06:22.162Z</time></trkpt><trkpt lat="43.4393633" lon="11.7593083"><ele>350.3333333333333</ele><time>2026-05-03T12:06:26.162Z</time></trkpt><trkpt lat="43.439315" lon="11.7593883"><ele>351.0</ele><time>2026-05-03T12:06:27.162Z</time></trkpt><trkpt lat="43.439255" lon="11.7594683"><ele>348.3333333333333</ele><time>2026-05-03T12:06:28.163Z</time></trkpt><trkpt lat="43.4392017" lon="11.75953"><ele>345.6666666666667</ele><time>2026-05-03T12:06:29.162Z</time></trkpt><trkpt lat="43.4391317" lon="11.7596133"><ele>343.0</ele><time>2026-05-03T12:06:31.162Z</time></trkpt><trkpt lat="43.4392217" lon="11.759645"><ele>340.33333333333337</ele><time>2026-05-03T12:06:34.162Z</time></trkpt><trkpt lat="43.4393017" lon="11.7596483"><ele>337.6666666666667</ele><time>2026-05-03T12:06:35.162Z</time></trkpt><trkpt lat="43.4393867" lon="11.7596683"><ele>335.0</ele><time>2026-05-03T12:06:36.162Z</time></trkpt><trkpt lat="43.4394917" lon="11.759735"><ele>335.0</ele><time>2026-05-03T12:06:38.162Z</time></trkpt><trkpt lat="43.4394933" lon="11.759835"><ele>335.0</ele><time>2026-05-03T12:06:40.162Z</time></trkpt><trkpt lat="43.4394317" lon="11.7599217"><ele>335.0</ele><time>2026-05-03T12:06:42.162Z</time></trkpt><trkpt lat="43.4393767" lon="11.7600067"><ele>335.0</ele><time>2026-05-03T12:06:44.162Z</time></trkpt><trkpt lat="43.439375" lon="11.7598983"><ele>335.0</ele><time>2026-05-03T12:06:56.298Z</time></trkpt><trkpt lat="43.439385" lon="11.75999"><ele>335.0</ele><time>2026-05-03T12:06:57.662Z</time></trkpt><trkpt lat="43.439335" lon="11.7600467"><ele>335.0</ele><time>2026-05-03T12:07:05.161Z</time></trkpt><trkpt lat="43.4392383" lon="11.7601233"><ele>335.0</ele><time>2026-05-03T12:07:07.161Z</time></trkpt><trkpt lat="43.439175" lon="11.76022"><ele>335.0</ele><time>2026-05-03T12:07:09.161Z</time></trkpt><trkpt lat="43.4391033" lon="11.7603283"><ele>335.0</ele><time>2026-05-03T12:07:11.162Z</time></trkpt><trkpt lat="43.43906" lon="11.7603933"><ele>335.0</ele><time>2026-05-03T12:07:12.161Z</time></trkpt><trkpt lat="43.439005" lon="11.7604683"><ele>335.0</ele><time>2026-05-03T12:07:13.161Z</time></trkpt><trkpt lat="43.4389483" lon="11.7605517"><ele>335.0</ele><time>2026-05-03T12:07:14.161Z</time></trkpt><trkpt lat="43.4389017" lon="11.7606383"><ele>335.0</ele><time>2026-05-03T12:07:15.161Z</time></trkpt><trkpt lat="43.4388767" lon="11.760725"><ele>335.0</ele><time>2026-05-03T12:07:16.161Z</time></trkpt><trkpt lat="43.4388817" lon="11.7608967"><ele>335.0</ele><time>2026-05-03T12:07:18.161Z</time></trkpt><trkpt lat="43.4388967" lon="11.7609867"><ele>335.0</ele><time>2026-05-03T12:07:19.161Z</time></trkpt><trkpt lat="43.43894" lon="11.7611167"><ele>333.6</ele><time>2026-05-03T12:07:21.161Z</time></trkpt><trkpt lat="43.4390033" lon="11.7611983"><ele>332.2</ele><time>2026-05-03T12:07:23.161Z</time></trkpt><trkpt lat="43.4390783" lon="11.761325"><ele>330.79999999999995</ele><time>2026-05-03T12:07:25.162Z</time></trkpt><trkpt lat="43.4391333" lon="11.7614733"><ele>329.4</ele><time>2026-05-03T12:07:27.162Z</time></trkpt><trkpt lat="43.43913" lon="11.7615833"><ele>328.0</ele><time>2026-05-03T12:07:29.162Z</time></trkpt><trkpt lat="43.4390667" lon="11.7616333"><ele>328.0</ele><time>2026-05-03T12:07:31.162Z</time></trkpt><trkpt lat="43.4389883" lon="11.761695"><ele>328.0</ele><time>2026-05-03T12:07:33.161Z</time></trkpt><trkpt lat="43.438875" lon="11.7618617"><ele>328.0</ele><time>2026-05-03T12:07:36.161Z</time></trkpt><trkpt lat="43.4388317" lon="11.7619533"><ele>328.0</ele><time>2026-05-03T12:07:37.161Z</time></trkpt><trkpt lat="43.4387867" lon="11.76205"><ele>328.0</ele><time>2026-05-03T12:07:38.162Z</time></trkpt><trkpt lat="43.43874" lon="11.7621567"><ele>326.4</ele><time>2026-05-03T12:07:39.162Z</time></trkpt><trkpt lat="43.4386783" lon="11.7622717"><ele>324.79999999999995</ele><time>2026-05-03T12:07:40.162Z</time></trkpt><trkpt lat="43.4385983" lon="11.7623867"><ele>323.2</ele><time>2026-05-03T12:07:41.162Z</time></trkpt><trkpt lat="43.4385267" lon="11.76249"><ele>321.6</ele><time>2026-05-03T12:07:42.161Z</time></trkpt><trkpt lat="43.4384633" lon="11.7625833"><ele>320.0</ele><time>2026-05-03T12:07:43.163Z</time></trkpt><trkpt lat="43.438415" lon="11.7626767"><ele>321.6</ele><time>2026-05-03T12:07:44.161Z</time></trkpt><trkpt lat="43.438375" lon="11.76278"><ele>323.2</ele><time>2026-05-03T12:07:45.161Z</time></trkpt><trkpt lat="43.4383433" lon="11.7628833"><ele>324.79999999999995</ele><time>2026-05-03T12:07:46.161Z</time></trkpt><trkpt lat="43.43832" lon="11.7629717"><ele>326.4</ele><time>2026-05-03T12:07:47.162Z</time></trkpt><trkpt lat="43.438315" lon="11.7631433"><ele>328.0</ele><time>2026-05-03T12:07:49.162Z</time></trkpt><trkpt lat="43.4383383" lon="11.7633067"><ele>328.0</ele><time>2026-05-03T12:07:51.161Z</time></trkpt><trkpt lat="43.4383933" lon="11.7634633"><ele>328.0</ele><time>2026-05-03T12:07:53.162Z</time></trkpt><trkpt lat="43.4384367" lon="11.7635433"><ele>328.0</ele><time>2026-05-03T12:07:54.161Z</time></trkpt><trkpt lat="43.43848" lon="11.7636367"><ele>328.0</ele><time>2026-05-03T12:07:55.162Z</time></trkpt><trkpt lat="43.4385133" lon="11.763745"><ele>328.0</ele><time>2026-05-03T12:07:56.162Z</time></trkpt><trkpt lat="43.4385333" lon="11.7638633"><ele>327.79999999999995</ele><time>2026-05-03T12:07:57.162Z</time></trkpt><trkpt lat="43.4385417" lon="11.7639733"><ele>327.6</ele><time>2026-05-03T12:07:58.164Z</time></trkpt><trkpt lat="43.4385433" lon="11.7640683"><ele>327.4</ele><time>2026-05-03T12:07:59.162Z</time></trkpt><trkpt lat="43.438555" lon="11.76422"><ele>327.20000000000005</ele><time>2026-05-03T12:08:01.163Z</time></trkpt><trkpt lat="43.43859" lon="11.7643633"><ele>327.0</ele><time>2026-05-03T12:08:03.164Z</time></trkpt><trkpt lat="43.4386467" lon="11.7644467"><ele>326.8</ele><time>2026-05-03T12:08:05.166Z</time></trkpt><trkpt lat="43.43876" lon="11.7644983"><ele>326.6</ele><time>2026-05-03T12:08:08.164Z</time></trkpt><trkpt lat="43.438845" lon="11.764525"><ele>326.40000000000003</ele><time>2026-05-03T12:08:09.164Z</time></trkpt><trkpt lat="43.438935" lon="11.7645467"><ele>326.20000000000005</ele><time>2026-05-03T12:08:10.164Z</time></trkpt><trkpt lat="43.4390233" lon="11.7645683"><ele>326.0</ele><time>2026-05-03T12:08:11.165Z</time></trkpt><trkpt lat="43.43911" lon="11.7645917"><ele>329.5</ele><time>2026-05-03T12:08:12.164Z</time></trkpt><trkpt lat="43.4391717" lon="11.764625"><ele>333.0</ele><time>2026-05-03T12:08:13.165Z</time></trkpt><trkpt lat="43.43925" lon="11.7647067"><ele>336.5</ele><time>2026-05-03T12:08:15.165Z</time></trkpt><trkpt lat="43.4392" lon="11.764785"><ele>340.0</ele><time>2026-05-03T12:10:29.312Z</time></trkpt><trkpt lat="43.43913" lon="11.7648483"><ele>343.5</ele><time>2026-05-03T12:10:31.163Z</time></trkpt><trkpt lat="43.43908" lon="11.7649033"><ele>347.0</ele><time>2026-05-03T12:10:32.161Z</time></trkpt><trkpt lat="43.43903" lon="11.7649767"><ele>347.0</ele><time>2026-05-03T12:10:33.161Z</time></trkpt><trkpt lat="43.4389917" lon="11.7650633"><ele>347.0</ele><time>2026-05-03T12:10:34.162Z</time></trkpt><trkpt lat="43.4389633" lon="11.765155"><ele>347.0</ele><time>2026-05-03T12:10:35.162Z</time></trkpt><trkpt lat="43.43894" lon="11.76526"><ele>347.0</ele><time>2026-05-03T12:10:36.162Z</time></trkpt><trkpt lat="43.438915" lon="11.76537"><ele>347.0</ele><time>2026-05-03T12:10:37.162Z</time></trkpt><trkpt lat="43.4388867" lon="11.7654833"><ele>347.0</ele><time>2026-05-03T12:10:38.162Z</time></trkpt><trkpt lat="43.4388633" lon="11.7655867"><ele>346.5</ele><time>2026-05-03T12:10:39.162Z</time></trkpt><trkpt lat="43.43885" lon="11.7656767"><ele>346.0</ele><time>2026-05-03T12:10:40.162Z</time></trkpt><trkpt lat="43.4388267" lon="11.7658283"><ele>345.5</ele><time>2026-05-03T12:10:42.162Z</time></trkpt><trkpt lat="43.4387933" lon="11.7659867"><ele>345.0</ele><time>2026-05-03T12:10:44.161Z</time></trkpt><trkpt lat="43.438815" lon="11.7660817"><ele>344.5</ele><time>2026-05-03T12:10:45.162Z</time></trkpt><trkpt lat="43.4388417" lon="11.7661783"><ele>344.0</ele><time>2026-05-03T12:10:46.161Z</time></trkpt><trkpt lat="43.43887" lon="11.766275"><ele>342.83333333333337</ele><time>2026-05-03T12:10:47.162Z</time></trkpt><trkpt lat="43.4388983" lon="11.766385"><ele>341.6666666666667</ele><time>2026-05-03T12:10:48.162Z</time></trkpt><trkpt lat="43.4389167" lon="11.766505"><ele>340.5</ele><time>2026-05-03T12:10:49.162Z</time></trkpt><trkpt lat="43.438925" lon="11.76662"><ele>339.3333333333333</ele><time>2026-05-03T12:10:50.162Z</time></trkpt><trkpt lat="43.4389183" lon="11.7667217"><ele>338.16666666666663</ele><time>2026-05-03T12:10:51.162Z</time></trkpt><trkpt lat="43.4388983" lon="11.7668183"><ele>337.0</ele><time>2026-05-03T12:10:52.161Z</time></trkpt><trkpt lat="43.43886" lon="11.7669233"><ele>333.8</ele><time>2026-05-03T12:10:53.162Z</time></trkpt><trkpt lat="43.4388" lon="11.7670333"><ele>330.6</ele><time>2026-05-03T12:10:54.162Z</time></trkpt><trkpt lat="43.4387183" lon="11.7671333"><ele>327.40000000000003</ele><time>2026-05-03T12:10:55.162Z</time></trkpt><trkpt lat="43.4386283" lon="11.7672"><ele>324.20000000000005</ele><time>2026-05-03T12:10:56.162Z</time></trkpt><trkpt lat="43.438525" lon="11.7672483"><ele>321.0</ele><time>2026-05-03T12:10:57.162Z</time></trkpt><trkpt lat="43.438405" lon="11.7672683"><ele>321.0</ele><time>2026-05-03T12:10:58.162Z</time></trkpt><trkpt lat="43.438275" lon="11.767265"><ele>321.0</ele><time>2026-05-03T12:10:59.163Z</time></trkpt><trkpt lat="43.43814" lon="11.76725"><ele>321.0</ele><time>2026-05-03T12:11:00.162Z</time></trkpt><trkpt lat="43.4380117" lon="11.7672383"><ele>321.0</ele><time>2026-05-03T12:11:01.162Z</time></trkpt><trkpt lat="43.4378783" lon="11.7672467"><ele>317.5</ele><time>2026-05-03T12:11:02.162Z</time></trkpt><trkpt lat="43.4377533" lon="11.767275"><ele>314.0</ele><time>2026-05-03T12:11:03.162Z</time></trkpt><trkpt lat="43.437635" lon="11.7673167"><ele>310.5</ele><time>2026-05-03T12:11:04.162Z</time></trkpt><trkpt lat="43.4375317" lon="11.7673617"><ele>307.0</ele><time>2026-05-03T12:11:05.162Z</time></trkpt><trkpt lat="43.43744" lon="11.7674083"><ele>307.0</ele><time>2026-05-03T12:11:06.163Z</time></trkpt><trkpt lat="43.4373567" lon="11.7674667"><ele>307.0</ele><time>2026-05-03T12:11:07.162Z</time></trkpt><trkpt lat="43.43728" lon="11.7675383"><ele>307.0</ele><time>2026-05-03T12:11:08.162Z</time></trkpt><trkpt lat="43.4372067" lon="11.7676267"><ele>307.0</ele><time>2026-05-03T12:11:09.162Z</time></trkpt><trkpt lat="43.4371283" lon="11.7677217"><ele>307.0</ele><time>2026-05-03T12:11:10.163Z</time></trkpt><trkpt lat="43.43706" lon="11.767815"><ele>304.5</ele><time>2026-05-03T12:11:11.163Z</time></trkpt><trkpt lat="43.4369983" lon="11.7679033"><ele>302.0</ele><time>2026-05-03T12:11:12.162Z</time></trkpt><trkpt lat="43.4369483" lon="11.7679883"><ele>299.5</ele><time>2026-05-03T12:11:13.162Z</time></trkpt><trkpt lat="43.4369083" lon="11.76807"><ele>297.0</ele><time>2026-05-03T12:11:14.162Z</time></trkpt><trkpt lat="43.4368583" lon="11.7681867"><ele>294.5</ele><time>2026-05-03T12:11:16.162Z</time></trkpt><trkpt lat="43.436785" lon="11.76822"><ele>292.0</ele><time>2026-05-03T12:11:18.162Z</time></trkpt><trkpt lat="43.43663" lon="11.7682033"><ele>292.0</ele><time>2026-05-03T12:11:20.166Z</time></trkpt><trkpt lat="43.436505" lon="11.768185"><ele>292.0</ele><time>2026-05-03T12:11:21.163Z</time></trkpt><trkpt lat="43.436365" lon="11.768185"><ele>292.0</ele><time>2026-05-03T12:11:22.163Z</time></trkpt><trkpt lat="43.4362317" lon="11.76819"><ele>292.0</ele><time>2026-05-03T12:11:23.164Z</time></trkpt><trkpt lat="43.4361033" lon="11.768205"><ele>289.8</ele><time>2026-05-03T12:11:24.163Z</time></trkpt><trkpt lat="43.43599" lon="11.7682217"><ele>287.6</ele><time>2026-05-03T12:11:25.162Z</time></trkpt><trkpt lat="43.4359" lon="11.7682417"><ele>285.40000000000003</ele><time>2026-05-03T12:11:26.162Z</time></trkpt><trkpt lat="43.4358317" lon="11.7682633"><ele>283.2</ele><time>2026-05-03T12:11:27.162Z</time></trkpt><trkpt lat="43.435745" lon="11.7683583"><ele>281.0</ele><time>2026-05-03T12:11:29.162Z</time></trkpt><trkpt lat="43.43573" lon="11.76846"><ele>280.25</ele><time>2026-05-03T12:11:30.162Z</time></trkpt><trkpt lat="43.4357417" lon="11.768605"><ele>279.5</ele><time>2026-05-03T12:11:31.163Z</time></trkpt><trkpt lat="43.4357633" lon="11.7687867"><ele>278.75</ele><time>2026-05-03T12:11:32.163Z</time></trkpt><trkpt lat="43.4357467" lon="11.768975"><ele>278.0</ele><time>2026-05-03T12:11:33.165Z</time></trkpt><trkpt lat="43.4357217" lon="11.7691667"><ele>277.6666666666667</ele><time>2026-05-03T12:11:34.165Z</time></trkpt><trkpt lat="43.435675" lon="11.769375"><ele>277.3333333333333</ele><time>2026-05-03T12:11:35.162Z</time></trkpt><trkpt lat="43.4356017" lon="11.7695883"><ele>277.0</ele><time>2026-05-03T12:11:36.165Z</time></trkpt><trkpt lat="43.4355333" lon="11.7697917"><ele>277.0</ele><time>2026-05-03T12:11:37.162Z</time></trkpt><trkpt lat="43.4354733" lon="11.7699583"><ele>277.0</ele><time>2026-05-03T12:11:38.162Z</time></trkpt><trkpt lat="43.4354117" lon="11.7700833"><ele>277.0</ele><time>2026-05-03T12:11:39.162Z</time></trkpt><trkpt lat="43.435345" lon="11.7701767"><ele>277.0</ele><time>2026-05-03T12:11:40.163Z</time></trkpt><trkpt lat="43.4352833" lon="11.7702717"><ele>277.0</ele><time>2026-05-03T12:11:41.163Z</time></trkpt><trkpt lat="43.4352267" lon="11.7703583"><ele>275.8</ele><time>2026-05-03T12:11:42.165Z</time></trkpt><trkpt lat="43.4351967" lon="11.770465"><ele>274.6</ele><time>2026-05-03T12:11:43.165Z</time></trkpt><trkpt lat="43.435205" lon="11.7705767"><ele>273.40000000000003</ele><time>2026-05-03T12:11:44.162Z</time></trkpt><trkpt lat="43.4352517" lon="11.7707017"><ele>272.2</ele><time>2026-05-03T12:11:45.163Z</time></trkpt><trkpt lat="43.4352883" lon="11.7708317"><ele>271.0</ele><time>2026-05-03T12:11:46.165Z</time></trkpt><trkpt lat="43.435305" lon="11.7709917"><ele>270.3333333333333</ele><time>2026-05-03T12:11:47.163Z</time></trkpt><trkpt lat="43.4353067" lon="11.7711833"><ele>269.6666666666667</ele><time>2026-05-03T12:11:48.165Z</time></trkpt><trkpt lat="43.4352883" lon="11.77141"><ele>269.0</ele><time>2026-05-03T12:11:49.163Z</time></trkpt><trkpt lat="43.4352833" lon="11.7716383"><ele>268.6666666666667</ele><time>2026-05-03T12:11:50.164Z</time></trkpt><trkpt lat="43.4352933" lon="11.771875"><ele>268.3333333333333</ele><time>2026-05-03T12:11:51.164Z</time></trkpt><trkpt lat="43.4353083" lon="11.7721117"><ele>268.0</ele><time>2026-05-03T12:11:52.164Z</time></trkpt><trkpt lat="43.4353333" lon="11.77234"><ele>268.0</ele><time>2026-05-03T12:11:53.161Z</time></trkpt><trkpt lat="43.43536" lon="11.7725483"><ele>268.0</ele><time>2026-05-03T12:11:54.164Z</time></trkpt><trkpt lat="43.4353767" lon="11.7727283"><ele>268.0</ele><time>2026-05-03T12:11:55.164Z</time></trkpt><trkpt lat="43.435385" lon="11.7728667"><ele>268.0</ele><time>2026-05-03T12:11:56.164Z</time></trkpt><trkpt lat="43.4354117" lon="11.7729733"><ele>267.75</ele><time>2026-05-03T12:11:57.166Z</time></trkpt><trkpt lat="43.4354283" lon="11.7730583"><ele>267.5</ele><time>2026-05-03T12:11:59.164Z</time></trkpt><trkpt lat="43.435575" lon="11.7730583"><ele>267.25</ele><time>2026-05-03T12:12:14.17Z</time></trkpt><trkpt lat="43.4356983" lon="11.7730483"><ele>267.0</ele><time>2026-05-03T12:12:15.164Z</time></trkpt><trkpt lat="43.4358333" lon="11.77304"><ele>267.6666666666667</ele><time>2026-05-03T12:12:16.164Z</time></trkpt><trkpt lat="43.4359867" lon="11.7730517"><ele>268.33333333333337</ele><time>2026-05-03T12:12:17.161Z</time></trkpt><trkpt lat="43.4361433" lon="11.7730883"><ele>269.0</ele><time>2026-05-03T12:12:18.164Z</time></trkpt><trkpt lat="43.4362983" lon="11.77317"><ele>269.33333333333337</ele><time>2026-05-03T12:12:19.164Z</time></trkpt><trkpt lat="43.4364467" lon="11.77329"><ele>269.6666666666667</ele><time>2026-05-03T12:12:20.164Z</time></trkpt><trkpt lat="43.436585" lon="11.7734417"><ele>270.0</ele><time>2026-05-03T12:12:21.164Z</time></trkpt><trkpt lat="43.4366983" lon="11.7736367"><ele>270.0</ele><time>2026-05-03T12:12:22.164Z</time></trkpt><trkpt lat="43.4367883" lon="11.773855"><ele>270.0</ele><time>2026-05-03T12:12:23.164Z</time></trkpt><trkpt lat="43.4368533" lon="11.77408"><ele>270.0</ele><time>2026-05-03T12:12:24.164Z</time></trkpt><trkpt lat="43.4369083" lon="11.7743133"><ele>269.3333333333333</ele><time>2026-05-03T12:12:25.165Z</time></trkpt><trkpt lat="43.436955" lon="11.7745417"><ele>268.66666666666663</ele><time>2026-05-03T12:12:26.164Z</time></trkpt><trkpt lat="43.4369967" lon="11.774765"><ele>268.0</ele><time>2026-05-03T12:12:27.169Z</time></trkpt><trkpt lat="43.4370433" lon="11.774985"><ele>267.3333333333333</ele><time>2026-05-03T12:12:28.164Z</time></trkpt><trkpt lat="43.43709" lon="11.7752017"><ele>266.6666666666667</ele><time>2026-05-03T12:12:29.165Z</time></trkpt><trkpt lat="43.4371367" lon="11.7754167"><ele>266.0</ele><time>2026-05-03T12:12:30.165Z</time></trkpt><trkpt lat="43.4371767" lon="11.7756217"><ele>265.6666666666667</ele><time>2026-05-03T12:12:31.165Z</time></trkpt><trkpt lat="43.4372167" lon="11.7758267"><ele>265.3333333333333</ele><time>2026-05-03T12:12:32.165Z</time></trkpt><trkpt lat="43.4372617" lon="11.7760317"><ele>265.0</ele><time>2026-05-03T12:12:33.164Z</time></trkpt><trkpt lat="43.4373083" lon="11.77623"><ele>265.0</ele><time>2026-05-03T12:12:34.165Z</time></trkpt><trkpt lat="43.4373517" lon="11.776425"><ele>265.0</ele><time>2026-05-03T12:12:35.164Z</time></trkpt><trkpt lat="43.437395" lon="11.77662"><ele>265.0</ele><time>2026-05-03T12:12:36.164Z</time></trkpt><trkpt lat="43.43744" lon="11.7768133"><ele>265.0</ele><time>2026-05-03T12:12:37.165Z</time></trkpt><trkpt lat="43.437485" lon="11.7770067"><ele>265.0</ele><time>2026-05-03T12:12:38.164Z</time></trkpt><trkpt lat="43.4375267" lon="11.7772033"><ele>265.0</ele><time>2026-05-03T12:12:39.164Z</time></trkpt><trkpt lat="43.4375667" lon="11.7773917"><ele>265.0</ele><time>2026-05-03T12:12:40.165Z</time></trkpt><trkpt lat="43.437605" lon="11.7775667"><ele>265.0</ele><time>2026-05-03T12:12:41.168Z</time></trkpt><trkpt lat="43.4376383" lon="11.77773"><ele>264.66666666666663</ele><time>2026-05-03T12:12:42.165Z</time></trkpt><trkpt lat="43.4376683" lon="11.777875"><ele>264.3333333333333</ele><time>2026-05-03T12:12:43.162Z</time></trkpt><trkpt lat="43.437695" lon="11.7779983"><ele>264.0</ele><time>2026-05-03T12:12:44.165Z</time></trkpt><trkpt lat="43.4377133" lon="11.7780917"><ele>263.6666666666667</ele><time>2026-05-03T12:12:45.165Z</time></trkpt><trkpt lat="43.4377433" lon="11.7782367"><ele>263.33333333333337</ele><time>2026-05-03T12:12:47.166Z</time></trkpt><trkpt lat="43.4377633" lon="11.7783233"><ele>263.0</ele><time>2026-05-03T12:12:48.162Z</time></trkpt><trkpt lat="43.43779" lon="11.7784433"><ele>263.25</ele><time>2026-05-03T12:12:49.166Z</time></trkpt><trkpt lat="43.4378183" lon="11.7786"><ele>263.5</ele><time>2026-05-03T12:12:50.164Z</time></trkpt><trkpt lat="43.437865" lon="11.7787867"><ele>263.75</ele><time>2026-05-03T12:12:51.166Z</time></trkpt><trkpt lat="43.4379167" lon="11.7789817"><ele>264.0</ele><time>2026-05-03T12:12:52.164Z</time></trkpt><trkpt lat="43.437965" lon="11.7791833"><ele>263.0</ele><time>2026-05-03T12:12:53.162Z</time></trkpt><trkpt lat="43.4380117" lon="11.77938"><ele>262.0</ele><time>2026-05-03T12:12:54.165Z</time></trkpt><trkpt lat="43.4380583" lon="11.7795783"><ele>261.0</ele><time>2026-05-03T12:12:55.163Z</time></trkpt><trkpt lat="43.4381067" lon="11.7797767"><ele>261.0</ele><time>2026-05-03T12:12:56.165Z</time></trkpt><trkpt lat="43.43816" lon="11.7799817"><ele>261.0</ele><time>2026-05-03T12:12:57.165Z</time></trkpt><trkpt lat="43.4382133" lon="11.7801883"><ele>261.0</ele><time>2026-05-03T12:12:58.164Z</time></trkpt><trkpt lat="43.4382717" lon="11.7804017"><ele>261.0</ele><time>2026-05-03T12:12:59.162Z</time></trkpt><trkpt lat="43.4383383" lon="11.780615"><ele>261.0</ele><time>2026-05-03T12:13:00.166Z</time></trkpt><trkpt lat="43.4384067" lon="11.7808317"><ele>261.0</ele><time>2026-05-03T12:13:01.164Z</time></trkpt><trkpt lat="43.4384733" lon="11.7810533"><ele>261.0</ele><time>2026-05-03T12:13:02.164Z</time></trkpt><trkpt lat="43.4385417" lon="11.7812817"><ele>261.0</ele><time>2026-05-03T12:13:03.165Z</time></trkpt><trkpt lat="43.4386133" lon="11.7815117"><ele>261.0</ele><time>2026-05-03T12:13:04.164Z</time></trkpt><trkpt lat="43.4386917" lon="11.781745"><ele>261.0</ele><time>2026-05-03T12:13:05.165Z</time></trkpt><trkpt lat="43.4387767" lon="11.7819833"><ele>261.0</ele><time>2026-05-03T12:13:06.165Z</time></trkpt><trkpt lat="43.4388633" lon="11.7822317"><ele>261.0</ele><time>2026-05-03T12:13:07.165Z</time></trkpt><trkpt lat="43.4389517" lon="11.7824783"><ele>261.6666666666667</ele><time>2026-05-03T12:13:08.164Z</time></trkpt><trkpt lat="43.4390433" lon="11.7827267"><ele>262.33333333333337</ele><time>2026-05-03T12:13:09.165Z</time></trkpt><trkpt lat="43.4391367" lon="11.7829733"><ele>263.0</ele><time>2026-05-03T12:13:10.165Z</time></trkpt><trkpt lat="43.4392317" lon="11.7832117"><ele>263.0</ele><time>2026-05-03T12:13:11.165Z</time></trkpt><trkpt lat="43.4393233" lon="11.7834467"><ele>263.0</ele><time>2026-05-03T12:13:12.165Z</time></trkpt><trkpt lat="43.439415" lon="11.78368"><ele>263.0</ele><time>2026-05-03T12:13:13.165Z</time></trkpt><trkpt lat="43.439505" lon="11.7839133"><ele>263.33333333333337</ele><time>2026-05-03T12:13:14.165Z</time></trkpt><trkpt lat="43.439595" lon="11.7841483"><ele>263.6666666666667</ele><time>2026-05-03T12:13:15.165Z</time></trkpt><trkpt lat="43.4396867" lon="11.784385"><ele>264.0</ele><time>2026-05-03T12:13:16.165Z</time></trkpt><trkpt lat="43.4397817" lon="11.7846233"><ele>264.6666666666667</ele><time>2026-05-03T12:13:17.165Z</time></trkpt><trkpt lat="43.4398767" lon="11.784865"><ele>265.33333333333337</ele><time>2026-05-03T12:13:18.165Z</time></trkpt><trkpt lat="43.43997" lon="11.7851067"><ele>266.0</ele><time>2026-05-03T12:13:19.168Z</time></trkpt><trkpt lat="43.4400683" lon="11.78535"><ele>267.6666666666667</ele><time>2026-05-03T12:13:20.165Z</time></trkpt><trkpt lat="43.4401633" lon="11.7855967"><ele>269.3333333333333</ele><time>2026-05-03T12:13:21.165Z</time></trkpt><trkpt lat="43.4402617" lon="11.785845"><ele>271.0</ele><time>2026-05-03T12:13:22.163Z</time></trkpt><trkpt lat="43.4403583" lon="11.7860967"><ele>272.3333333333333</ele><time>2026-05-03T12:13:23.165Z</time></trkpt><trkpt lat="43.4404567" lon="11.7863517"><ele>273.6666666666667</ele><time>2026-05-03T12:13:24.165Z</time></trkpt><trkpt lat="43.4405583" lon="11.78661"><ele>275.0</ele><time>2026-05-03T12:13:25.165Z</time></trkpt><trkpt lat="43.440665" lon="11.7868683"><ele>275.0</ele><time>2026-05-03T12:13:26.165Z</time></trkpt><trkpt lat="43.440765" lon="11.7871233"><ele>275.0</ele><time>2026-05-03T12:13:27.161Z</time></trkpt><trkpt lat="43.4408633" lon="11.7873783"><ele>275.0</ele><time>2026-05-03T12:13:28.161Z</time></trkpt><trkpt lat="43.440965" lon="11.787635"><ele>273.33333333333337</ele><time>2026-05-03T12:13:29.163Z</time></trkpt><trkpt lat="43.4410633" lon="11.7878917"><ele>271.6666666666667</ele><time>2026-05-03T12:13:30.161Z</time></trkpt><trkpt lat="43.441165" lon="11.78815"><ele>270.0</ele><time>2026-05-03T12:13:31.162Z</time></trkpt><trkpt lat="43.4412683" lon="11.7884133"><ele>268.6666666666667</ele><time>2026-05-03T12:13:32.162Z</time></trkpt><trkpt lat="43.4413667" lon="11.7886767"><ele>267.33333333333337</ele><time>2026-05-03T12:13:33.167Z</time></trkpt><trkpt lat="43.4414667" lon="11.7889417"><ele>266.0</ele><time>2026-05-03T12:13:34.162Z</time></trkpt><trkpt lat="43.4415667" lon="11.7892017"><ele>264.33333333333337</ele><time>2026-05-03T12:13:35.163Z</time></trkpt><trkpt lat="43.4416667" lon="11.7894583"><ele>262.6666666666667</ele><time>2026-05-03T12:13:36.162Z</time></trkpt><trkpt lat="43.4417633" lon="11.789705"><ele>261.0</ele><time>2026-05-03T12:13:37.163Z</time></trkpt><trkpt lat="43.441865" lon="11.789955"><ele>260.0</ele><time>2026-05-03T12:13:38.165Z</time></trkpt><trkpt lat="43.4419583" lon="11.790205"><ele>259.0</ele><time>2026-05-03T12:13:39.166Z</time></trkpt><trkpt lat="43.4420533" lon="11.7904567"><ele>258.0</ele><time>2026-05-03T12:13:40.165Z</time></trkpt><trkpt lat="43.4421483" lon="11.79071"><ele>257.6666666666667</ele><time>2026-05-03T12:13:41.165Z</time></trkpt><trkpt lat="43.442245" lon="11.7909667"><ele>257.33333333333337</ele><time>2026-05-03T12:13:42.165Z</time></trkpt><trkpt lat="43.4423433" lon="11.79122"><ele>257.0</ele><time>2026-05-03T12:13:43.165Z</time></trkpt><trkpt lat="43.4424417" lon="11.7914733"><ele>256.6666666666667</ele><time>2026-05-03T12:13:44.165Z</time></trkpt><trkpt lat="43.44254" lon="11.7917267"><ele>256.3333333333333</ele><time>2026-05-03T12:13:45.165Z</time></trkpt><trkpt lat="43.4426383" lon="11.7919817"><ele>256.0</ele><time>2026-05-03T12:13:46.165Z</time></trkpt><trkpt lat="43.4427367" lon="11.7922317"><ele>256.0</ele><time>2026-05-03T12:13:47.163Z</time></trkpt><trkpt lat="43.4428333" lon="11.7924783"><ele>256.0</ele><time>2026-05-03T12:13:48.165Z</time></trkpt><trkpt lat="43.4429317" lon="11.7927217"><ele>256.0</ele><time>2026-05-03T12:13:49.166Z</time></trkpt><trkpt lat="43.4430267" lon="11.792965"><ele>255.0</ele><time>2026-05-03T12:13:50.165Z</time></trkpt><trkpt lat="43.4431183" lon="11.7932067"><ele>254.0</ele><time>2026-05-03T12:13:51.165Z</time></trkpt><trkpt lat="43.4432133" lon="11.7934467"><ele>253.0</ele><time>2026-05-03T12:13:52.165Z</time></trkpt><trkpt lat="43.44331" lon="11.793685"><ele>253.0</ele><time>2026-05-03T12:13:53.165Z</time></trkpt><trkpt lat="43.4434133" lon="11.7939167"><ele>253.0</ele><time>2026-05-03T12:13:54.165Z</time></trkpt><trkpt lat="43.4435167" lon="11.7941467"><ele>253.0</ele><time>2026-05-03T12:13:55.166Z</time></trkpt><trkpt lat="43.4436233" lon="11.7943733"><ele>252.33333333333331</ele><time>2026-05-03T12:13:56.165Z</time></trkpt><trkpt lat="43.4437333" lon="11.7945967"><ele>251.66666666666669</ele><time>2026-05-03T12:13:57.163Z</time></trkpt><trkpt lat="43.4438483" lon="11.7948167"><ele>251.0</ele><time>2026-05-03T12:13:58.162Z</time></trkpt><trkpt lat="43.4439667" lon="11.7950267"><ele>250.33333333333334</ele><time>2026-05-03T12:13:59.164Z</time></trkpt><trkpt lat="43.4440883" lon="11.795235"><ele>249.66666666666669</ele><time>2026-05-03T12:14:00.163Z</time></trkpt><trkpt lat="43.4442133" lon="11.7954367"><ele>249.0</ele><time>2026-05-03T12:14:01.162Z</time></trkpt><trkpt lat="43.4443333" lon="11.79563"><ele>249.0</ele><time>2026-05-03T12:14:02.163Z</time></trkpt><trkpt lat="43.444455" lon="11.795815"><ele>249.0</ele><time>2026-05-03T12:14:03.163Z</time></trkpt><trkpt lat="43.44458" lon="11.7959983"><ele>249.0</ele><time>2026-05-03T12:14:04.164Z</time></trkpt><trkpt lat="43.444705" lon="11.796175"><ele>249.33333333333331</ele><time>2026-05-03T12:14:05.163Z</time></trkpt><trkpt lat="43.4448333" lon="11.7963517"><ele>249.66666666666666</ele><time>2026-05-03T12:14:06.163Z</time></trkpt><trkpt lat="43.444965" lon="11.7965267"><ele>250.0</ele><time>2026-05-03T12:14:07.163Z</time></trkpt><trkpt lat="43.4451" lon="11.796705"><ele>250.0</ele><time>2026-05-03T12:14:08.165Z</time></trkpt><trkpt lat="43.4452333" lon="11.7968833"><ele>250.0</ele><time>2026-05-03T12:14:09.165Z</time></trkpt><trkpt lat="43.4453683" lon="11.7970633"><ele>250.0</ele><time>2026-05-03T12:14:10.165Z</time></trkpt><trkpt lat="43.445505" lon="11.7972433"><ele>250.0</ele><time>2026-05-03T12:14:11.166Z</time></trkpt><trkpt lat="43.4456417" lon="11.7974267"><ele>250.0</ele><time>2026-05-03T12:14:12.165Z</time></trkpt><trkpt lat="43.4457783" lon="11.79761"><ele>250.0</ele><time>2026-05-03T12:14:13.165Z</time></trkpt><trkpt lat="43.4459167" lon="11.797795"><ele>249.66666666666666</ele><time>2026-05-03T12:14:14.165Z</time></trkpt><trkpt lat="43.4460567" lon="11.7979833"><ele>249.33333333333331</ele><time>2026-05-03T12:14:15.162Z</time></trkpt><trkpt lat="43.446195" lon="11.79817"><ele>249.0</ele><time>2026-05-03T12:14:16.165Z</time></trkpt><trkpt lat="43.4463367" lon="11.7983583"><ele>248.66666666666669</ele><time>2026-05-03T12:14:17.165Z</time></trkpt><trkpt lat="43.4464733" lon="11.798545"><ele>248.33333333333334</ele><time>2026-05-03T12:14:18.165Z</time></trkpt><trkpt lat="43.4466117" lon="11.7987283"><ele>248.0</ele><time>2026-05-03T12:14:19.165Z</time></trkpt><trkpt lat="43.4467483" lon="11.79891"><ele>248.0</ele><time>2026-05-03T12:14:20.164Z</time></trkpt><trkpt lat="43.4468817" lon="11.7990867"><ele>248.0</ele><time>2026-05-03T12:14:21.164Z</time></trkpt><trkpt lat="43.44701" lon="11.7992617"><ele>248.0</ele><time>2026-05-03T12:14:22.164Z</time></trkpt><trkpt lat="43.4471383" lon="11.7994333"><ele>247.33333333333334</ele><time>2026-05-03T12:14:23.165Z</time></trkpt><trkpt lat="43.4472617" lon="11.7996017"><ele>246.66666666666669</ele><time>2026-05-03T12:14:24.164Z</time></trkpt><trkpt lat="43.4473783" lon="11.7997617"><ele>246.0</ele><time>2026-05-03T12:14:25.164Z</time></trkpt><trkpt lat="43.447495" lon="11.7999133"><ele>246.0</ele><time>2026-05-03T12:14:26.164Z</time></trkpt><trkpt lat="43.4476067" lon="11.8000617"><ele>246.0</ele><time>2026-05-03T12:14:27.161Z</time></trkpt><trkpt lat="43.44771" lon="11.800195"><ele>246.0</ele><time>2026-05-03T12:14:28.162Z</time></trkpt><trkpt lat="43.447805" lon="11.8003217"><ele>246.0</ele><time>2026-05-03T12:14:29.163Z</time></trkpt><trkpt lat="43.4478983" lon="11.800445"><ele>246.25</ele><time>2026-05-03T12:14:30.162Z</time></trkpt><trkpt lat="43.4479883" lon="11.8005667"><ele>246.5</ele><time>2026-05-03T12:14:31.161Z</time></trkpt><trkpt lat="43.4480783" lon="11.8006883"><ele>246.75</ele><time>2026-05-03T12:14:32.163Z</time></trkpt><trkpt lat="43.4481617" lon="11.8008033"><ele>247.0</ele><time>2026-05-03T12:14:33.161Z</time></trkpt><trkpt lat="43.4482433" lon="11.8009167"><ele>247.25</ele><time>2026-05-03T12:14:34.161Z</time></trkpt><trkpt lat="43.4483283" lon="11.8010283"><ele>247.5</ele><time>2026-05-03T12:14:35.162Z</time></trkpt><trkpt lat="43.4484083" lon="11.80114"><ele>247.75</ele><time>2026-05-03T12:14:36.162Z</time></trkpt><trkpt lat="43.4484917" lon="11.80125"><ele>248.0</ele><time>2026-05-03T12:14:37.161Z</time></trkpt><trkpt lat="43.448575" lon="11.80136"><ele>248.0</ele><time>2026-05-03T12:14:38.164Z</time></trkpt><trkpt lat="43.4486633" lon="11.801475"><ele>248.0</ele><time>2026-05-03T12:14:39.164Z</time></trkpt><trkpt lat="43.4487533" lon="11.8015983"><ele>248.0</ele><time>2026-05-03T12:14:40.164Z</time></trkpt><trkpt lat="43.4488517" lon="11.80173"><ele>248.0</ele><time>2026-05-03T12:14:41.164Z</time></trkpt><trkpt lat="43.4489567" lon="11.8018683"><ele>248.0</ele><time>2026-05-03T12:14:42.164Z</time></trkpt><trkpt lat="43.449065" lon="11.80201"><ele>248.0</ele><time>2026-05-03T12:14:43.165Z</time></trkpt><trkpt lat="43.4491733" lon="11.8021583"><ele>248.0</ele><time>2026-05-03T12:14:44.164Z</time></trkpt><trkpt lat="43.4492833" lon="11.8023133"><ele>248.0</ele><time>2026-05-03T12:14:45.164Z</time></trkpt><trkpt lat="43.4493967" lon="11.802475"><ele>248.0</ele><time>2026-05-03T12:14:46.165Z</time></trkpt><trkpt lat="43.4495183" lon="11.80264"><ele>248.0</ele><time>2026-05-03T12:14:47.164Z</time></trkpt><trkpt lat="43.44964" lon="11.802805"><ele>247.66666666666669</ele><time>2026-05-03T12:14:48.161Z</time></trkpt><trkpt lat="43.4497633" lon="11.8029667"><ele>247.33333333333331</ele><time>2026-05-03T12:14:49.164Z</time></trkpt><trkpt lat="43.44988" lon="11.803125"><ele>247.0</ele><time>2026-05-03T12:14:50.164Z</time></trkpt><trkpt lat="43.4499983" lon="11.8032833"><ele>247.0</ele><time>2026-05-03T12:14:51.164Z</time></trkpt><trkpt lat="43.4501183" lon="11.8034467"><ele>247.0</ele><time>2026-05-03T12:14:52.164Z</time></trkpt><trkpt lat="43.4502383" lon="11.8036083"><ele>247.0</ele><time>2026-05-03T12:14:53.165Z</time></trkpt><trkpt lat="43.45036" lon="11.8037767"><ele>247.33333333333331</ele><time>2026-05-03T12:14:54.164Z</time></trkpt><trkpt lat="43.450485" lon="11.803945"><ele>247.66666666666669</ele><time>2026-05-03T12:14:55.164Z</time></trkpt><trkpt lat="43.4506083" lon="11.8041117"><ele>248.0</ele><time>2026-05-03T12:14:56.162Z</time></trkpt><trkpt lat="43.4507317" lon="11.8042767"><ele>248.0</ele><time>2026-05-03T12:14:57.161Z</time></trkpt><trkpt lat="43.4508567" lon="11.80444"><ele>248.0</ele><time>2026-05-03T12:14:58.162Z</time></trkpt><trkpt lat="43.4509783" lon="11.8046017"><ele>248.0</ele><time>2026-05-03T12:14:59.163Z</time></trkpt><trkpt lat="43.4510967" lon="11.80476"><ele>248.0</ele><time>2026-05-03T12:15:00.161Z</time></trkpt><trkpt lat="43.451215" lon="11.8049183"><ele>248.0</ele><time>2026-05-03T12:15:01.161Z</time></trkpt><trkpt lat="43.451335" lon="11.8050767"><ele>248.0</ele><time>2026-05-03T12:15:02.162Z</time></trkpt><trkpt lat="43.451455" lon="11.805235"><ele>247.66666666666669</ele><time>2026-05-03T12:15:03.161Z</time></trkpt><trkpt lat="43.4515733" lon="11.8053933"><ele>247.33333333333331</ele><time>2026-05-03T12:15:04.164Z</time></trkpt><trkpt lat="43.4516933" lon="11.8055567"><ele>247.0</ele><time>2026-05-03T12:15:05.162Z</time></trkpt><trkpt lat="43.4518133" lon="11.80572"><ele>247.0</ele><time>2026-05-03T12:15:06.161Z</time></trkpt><trkpt lat="43.4519333" lon="11.8058883"><ele>247.0</ele><time>2026-05-03T12:15:07.161Z</time></trkpt><trkpt lat="43.4520583" lon="11.8060567"><ele>247.0</ele><time>2026-05-03T12:15:08.162Z</time></trkpt><trkpt lat="43.452185" lon="11.8062267"><ele>246.66666666666666</ele><time>2026-05-03T12:15:09.161Z</time></trkpt><trkpt lat="43.4523083" lon="11.8063967"><ele>246.33333333333331</ele><time>2026-05-03T12:15:10.162Z</time></trkpt><trkpt lat="43.4524317" lon="11.8065667"><ele>246.0</ele><time>2026-05-03T12:15:11.162Z</time></trkpt><trkpt lat="43.452555" lon="11.8067367"><ele>245.66666666666669</ele><time>2026-05-03T12:15:12.161Z</time></trkpt><trkpt lat="43.4526783" lon="11.8069067"><ele>245.33333333333334</ele><time>2026-05-03T12:15:13.163Z</time></trkpt><trkpt lat="43.452805" lon="11.807075"><ele>245.0</ele><time>2026-05-03T12:15:14.161Z</time></trkpt><trkpt lat="43.4529317" lon="11.807245"><ele>245.33333333333334</ele><time>2026-05-03T12:15:15.161Z</time></trkpt><trkpt lat="43.4530583" lon="11.807415"><ele>245.66666666666669</ele><time>2026-05-03T12:15:16.162Z</time></trkpt><trkpt lat="43.4531867" lon="11.8075867"><ele>246.0</ele><time>2026-05-03T12:15:17.162Z</time></trkpt><trkpt lat="43.4533133" lon="11.8077567"><ele>246.0</ele><time>2026-05-03T12:15:18.161Z</time></trkpt><trkpt lat="43.4534383" lon="11.8079183"><ele>246.0</ele><time>2026-05-03T12:15:19.162Z</time></trkpt><trkpt lat="43.45356" lon="11.8080767"><ele>246.0</ele><time>2026-05-03T12:15:20.162Z</time></trkpt><trkpt lat="43.45368" lon="11.808235"><ele>245.66666666666669</ele><time>2026-05-03T12:15:21.161Z</time></trkpt><trkpt lat="43.4537967" lon="11.8083917"><ele>245.33333333333334</ele><time>2026-05-03T12:15:22.162Z</time></trkpt><trkpt lat="43.4539117" lon="11.8085467"><ele>245.0</ele><time>2026-05-03T12:15:23.162Z</time></trkpt><trkpt lat="43.4540317" lon="11.8087017"><ele>245.0</ele><time>2026-05-03T12:15:24.167Z</time></trkpt><trkpt lat="43.45415" lon="11.8088567"><ele>245.0</ele><time>2026-05-03T12:15:25.165Z</time></trkpt><trkpt lat="43.4542717" lon="11.8090133"><ele>245.0</ele><time>2026-05-03T12:15:26.162Z</time></trkpt><trkpt lat="43.45439" lon="11.809175"><ele>245.0</ele><time>2026-05-03T12:15:27.162Z</time></trkpt><trkpt lat="43.4545067" lon="11.8093367"><ele>245.0</ele><time>2026-05-03T12:15:28.162Z</time></trkpt><trkpt lat="43.4546267" lon="11.8094983"><ele>245.0</ele><time>2026-05-03T12:15:29.162Z</time></trkpt><trkpt lat="43.45475" lon="11.809665"><ele>245.33333333333334</ele><time>2026-05-03T12:15:30.161Z</time></trkpt><trkpt lat="43.4548667" lon="11.8098267"><ele>245.66666666666669</ele><time>2026-05-03T12:15:31.161Z</time></trkpt><trkpt lat="43.4549833" lon="11.8099883"><ele>246.0</ele><time>2026-05-03T12:15:32.162Z</time></trkpt><trkpt lat="43.4551017" lon="11.81015"><ele>246.0</ele><time>2026-05-03T12:15:33.165Z</time></trkpt><trkpt lat="43.45522" lon="11.81031"><ele>246.0</ele><time>2026-05-03T12:15:34.165Z</time></trkpt><trkpt lat="43.455335" lon="11.81047"><ele>246.0</ele><time>2026-05-03T12:15:35.165Z</time></trkpt><trkpt lat="43.455455" lon="11.8106317"><ele>246.0</ele><time>2026-05-03T12:15:36.165Z</time></trkpt><trkpt lat="43.4555767" lon="11.8108017"><ele>246.0</ele><time>2026-05-03T12:15:37.164Z</time></trkpt><trkpt lat="43.4557017" lon="11.81098"><ele>246.0</ele><time>2026-05-03T12:15:38.165Z</time></trkpt><trkpt lat="43.45583" lon="11.8111583"><ele>245.33333333333331</ele><time>2026-05-03T12:15:39.161Z</time></trkpt><trkpt lat="43.455965" lon="11.8113367"><ele>244.66666666666666</ele><time>2026-05-03T12:15:40.165Z</time></trkpt><trkpt lat="43.4560983" lon="11.811525"><ele>244.0</ele><time>2026-05-03T12:15:41.165Z</time></trkpt><trkpt lat="43.4562333" lon="11.8117083"><ele>244.0</ele><time>2026-05-03T12:15:42.165Z</time></trkpt><trkpt lat="43.4563717" lon="11.8118933"><ele>244.0</ele><time>2026-05-03T12:15:43.165Z</time></trkpt><trkpt lat="43.4565083" lon="11.8120783"><ele>244.0</ele><time>2026-05-03T12:15:44.165Z</time></trkpt><trkpt lat="43.4566433" lon="11.8122617"><ele>244.0</ele><time>2026-05-03T12:15:45.165Z</time></trkpt><trkpt lat="43.4567767" lon="11.81244"><ele>244.0</ele><time>2026-05-03T12:15:46.165Z</time></trkpt><trkpt lat="43.4569033" lon="11.81262"><ele>244.0</ele><time>2026-05-03T12:15:47.165Z</time></trkpt><trkpt lat="43.4570267" lon="11.8127983"><ele>244.0</ele><time>2026-05-03T12:15:48.165Z</time></trkpt><trkpt lat="43.4571483" lon="11.8129817"><ele>244.0</ele><time>2026-05-03T12:15:49.166Z</time></trkpt><trkpt lat="43.4572683" lon="11.813165"><ele>244.0</ele><time>2026-05-03T12:15:50.164Z</time></trkpt><trkpt lat="43.457385" lon="11.813355"><ele>244.33333333333331</ele><time>2026-05-03T12:15:51.165Z</time></trkpt><trkpt lat="43.457495" lon="11.813545"><ele>244.66666666666669</ele><time>2026-05-03T12:15:52.165Z</time></trkpt><trkpt lat="43.457605" lon="11.8137383"><ele>245.0</ele><time>2026-05-03T12:15:53.165Z</time></trkpt><trkpt lat="43.45771" lon="11.81394"><ele>245.0</ele><time>2026-05-03T12:15:54.165Z</time></trkpt><trkpt lat="43.4578083" lon="11.814145"><ele>245.0</ele><time>2026-05-03T12:15:55.164Z</time></trkpt><trkpt lat="43.4579017" lon="11.8143533"><ele>245.0</ele><time>2026-05-03T12:15:56.162Z</time></trkpt><trkpt lat="43.4579867" lon="11.8145633"><ele>245.33333333333334</ele><time>2026-05-03T12:15:57.162Z</time></trkpt><trkpt lat="43.4580667" lon="11.8147733"><ele>245.66666666666669</ele><time>2026-05-03T12:15:58.162Z</time></trkpt><trkpt lat="43.4581383" lon="11.8149783"><ele>246.0</ele><time>2026-05-03T12:15:59.163Z</time></trkpt><trkpt lat="43.4582033" lon="11.8151767"><ele>246.0</ele><time>2026-05-03T12:16:00.162Z</time></trkpt><trkpt lat="43.4582617" lon="11.8153683"><ele>246.0</ele><time>2026-05-03T12:16:01.162Z</time></trkpt><trkpt lat="43.4583167" lon="11.8155583"><ele>246.0</ele><time>2026-05-03T12:16:02.162Z</time></trkpt><trkpt lat="43.4583683" lon="11.815755"><ele>246.0</ele><time>2026-05-03T12:16:03.165Z</time></trkpt><trkpt lat="43.4584067" lon="11.8159483"><ele>246.0</ele><time>2026-05-03T12:16:04.165Z</time></trkpt><trkpt lat="43.4584267" lon="11.8161417"><ele>246.0</ele><time>2026-05-03T12:16:05.166Z</time></trkpt><trkpt lat="43.4584217" lon="11.816325"><ele>246.0</ele><time>2026-05-03T12:16:06.165Z</time></trkpt><trkpt lat="43.45839" lon="11.8164917"><ele>245.75</ele><time>2026-05-03T12:16:07.165Z</time></trkpt><trkpt lat="43.45835" lon="11.816655"><ele>245.5</ele><time>2026-05-03T12:16:08.165Z</time></trkpt><trkpt lat="43.4583033" lon="11.8168167"><ele>245.25</ele><time>2026-05-03T12:16:09.165Z</time></trkpt><trkpt lat="43.4582617" lon="11.8169883"><ele>245.0</ele><time>2026-05-03T12:16:10.165Z</time></trkpt><trkpt lat="43.4582417" lon="11.8171767"><ele>245.0</ele><time>2026-05-03T12:16:11.165Z</time></trkpt><trkpt lat="43.45825" lon="11.8173717"><ele>245.0</ele><time>2026-05-03T12:16:12.165Z</time></trkpt><trkpt lat="43.4582967" lon="11.81757"><ele>245.0</ele><time>2026-05-03T12:16:13.165Z</time></trkpt><trkpt lat="43.458375" lon="11.8177467"><ele>245.0</ele><time>2026-05-03T12:16:14.165Z</time></trkpt><trkpt lat="43.4584833" lon="11.8178933"><ele>244.5</ele><time>2026-05-03T12:16:15.168Z</time></trkpt><trkpt lat="43.4586117" lon="11.817995"><ele>244.0</ele><time>2026-05-03T12:16:16.164Z</time></trkpt><trkpt lat="43.458745" lon="11.81805"><ele>243.5</ele><time>2026-05-03T12:16:17.165Z</time></trkpt><trkpt lat="43.4588817" lon="11.8180533"><ele>243.0</ele><time>2026-05-03T12:16:18.161Z</time></trkpt><trkpt lat="43.45901" lon="11.8180233"><ele>243.0</ele><time>2026-05-03T12:16:19.162Z</time></trkpt><trkpt lat="43.459125" lon="11.817975"><ele>243.0</ele><time>2026-05-03T12:16:20.162Z</time></trkpt><trkpt lat="43.4592133" lon="11.8179017"><ele>243.0</ele><time>2026-05-03T12:16:21.162Z</time></trkpt><trkpt lat="43.4592983" lon="11.8178633"><ele>243.0</ele><time>2026-05-03T12:16:22.162Z</time></trkpt><trkpt lat="43.4593683" lon="11.8178433"><ele>243.0</ele><time>2026-05-03T12:16:23.162Z</time></trkpt><trkpt lat="43.4594767" lon="11.817855"><ele>243.0</ele><time>2026-05-03T12:16:25.165Z</time></trkpt><trkpt lat="43.4595833" lon="11.817925"><ele>243.0</ele><time>2026-05-03T12:16:27.165Z</time></trkpt><trkpt lat="43.4596883" lon="11.81799"><ele>243.0</ele><time>2026-05-03T12:16:29.165Z</time></trkpt><trkpt lat="43.45979" lon="11.8180183"><ele>243.0</ele><time>2026-05-03T12:16:31.165Z</time></trkpt><trkpt lat="43.459905" lon="11.8180567"><ele>243.33333333333334</ele><time>2026-05-03T12:16:33.165Z</time></trkpt><trkpt lat="43.4599667" lon="11.818105"><ele>243.66666666666669</ele><time>2026-05-03T12:16:34.166Z</time></trkpt><trkpt lat="43.4600333" lon="11.8181583"><ele>244.0</ele><time>2026-05-03T12:16:35.165Z</time></trkpt><trkpt lat="43.4601017" lon="11.8182183"><ele>244.33333333333334</ele><time>2026-05-03T12:16:36.165Z</time></trkpt><trkpt lat="43.460175" lon="11.8182883"><ele>244.66666666666669</ele><time>2026-05-03T12:16:37.166Z</time></trkpt><trkpt lat="43.46025" lon="11.8183617"><ele>245.0</ele><time>2026-05-03T12:16:38.165Z</time></trkpt><trkpt lat="43.4603267" lon="11.818435"><ele>244.8</ele><time>2026-05-03T12:16:39.165Z</time></trkpt><trkpt lat="43.4604067" lon="11.81851"><ele>244.6</ele><time>2026-05-03T12:16:40.165Z</time></trkpt><trkpt lat="43.460485" lon="11.81859"><ele>244.39999999999998</ele><time>2026-05-03T12:16:41.165Z</time></trkpt><trkpt lat="43.460565" lon="11.8186717"><ele>244.2</ele><time>2026-05-03T12:16:42.165Z</time></trkpt><trkpt lat="43.4606483" lon="11.81875"><ele>244.0</ele><time>2026-05-03T12:16:43.165Z</time></trkpt><trkpt lat="43.4607267" lon="11.818825"><ele>243.99999999999997</ele><time>2026-05-03T12:16:44.165Z</time></trkpt><trkpt lat="43.4608017" lon="11.8188917"><ele>244.0</ele><time>2026-05-03T12:16:45.165Z</time></trkpt><trkpt lat="43.4608683" lon="11.8189517"><ele>244.0</ele><time>2026-05-03T12:16:46.165Z</time></trkpt><trkpt lat="43.4609333" lon="11.8190067"><ele>244.0</ele><time>2026-05-03T12:16:47.165Z</time></trkpt><trkpt lat="43.4609933" lon="11.81907"><ele>243.99999999999997</ele><time>2026-05-03T12:16:48.165Z</time></trkpt><trkpt lat="43.461055" lon="11.81915"><ele>244.0</ele><time>2026-05-03T12:16:49.162Z</time></trkpt><trkpt lat="43.4611" lon="11.8192533"><ele>243.66666666666666</ele><time>2026-05-03T12:16:50.162Z</time></trkpt><trkpt lat="43.4611317" lon="11.8193717"><ele>243.33333333333331</ele><time>2026-05-03T12:16:51.164Z</time></trkpt><trkpt lat="43.4611783" lon="11.8194817"><ele>243.0</ele><time>2026-05-03T12:16:52.164Z</time></trkpt><trkpt lat="43.4612383" lon="11.8195667"><ele>242.66666666666669</ele><time>2026-05-03T12:16:53.162Z</time></trkpt><trkpt lat="43.46131" lon="11.8196233"><ele>242.33333333333334</ele><time>2026-05-03T12:16:54.164Z</time></trkpt><trkpt lat="43.46139" lon="11.8196567"><ele>242.0</ele><time>2026-05-03T12:16:55.164Z</time></trkpt><trkpt lat="43.4614633" lon="11.8195917"><ele>242.0</ele><time>2026-05-03T12:16:56.162Z</time></trkpt><trkpt lat="43.4615217" lon="11.8194983"><ele>242.0</ele><time>2026-05-03T12:16:57.164Z</time></trkpt><trkpt lat="43.4615583" lon="11.81938"><ele>242.0</ele><time>2026-05-03T12:16:58.164Z</time></trkpt><trkpt lat="43.46157" lon="11.819255"><ele>242.0</ele><time>2026-05-03T12:16:59.165Z</time></trkpt><trkpt lat="43.46155" lon="11.8191283"><ele>242.0</ele><time>2026-05-03T12:17:00.164Z</time></trkpt><trkpt lat="43.4615167" lon="11.8190083"><ele>242.39999999999998</ele><time>2026-05-03T12:17:01.164Z</time></trkpt><trkpt lat="43.461475" lon="11.8188933"><ele>242.79999999999998</ele><time>2026-05-03T12:17:02.165Z</time></trkpt><trkpt lat="43.4614183" lon="11.8187933"><ele>243.2</ele><time>2026-05-03T12:17:03.164Z</time></trkpt><trkpt lat="43.461345" lon="11.818715"><ele>243.6</ele><time>2026-05-03T12:17:04.164Z</time></trkpt><trkpt lat="43.4612583" lon="11.8186533"><ele>244.0</ele><time>2026-05-03T12:17:05.164Z</time></trkpt><trkpt lat="43.4611683" lon="11.8185933"><ele>244.0</ele><time>2026-05-03T12:17:06.164Z</time></trkpt><trkpt lat="43.4610767" lon="11.8185233"><ele>243.99999999999997</ele><time>2026-05-03T12:17:07.165Z</time></trkpt><trkpt lat="43.4609883" lon="11.818445"><ele>243.99999999999997</ele><time>2026-05-03T12:17:08.164Z</time></trkpt><trkpt lat="43.46091" lon="11.8183567"><ele>244.0</ele><time>2026-05-03T12:17:09.164Z</time></trkpt><trkpt lat="43.460855" lon="11.8182533"><ele>244.0</ele><time>2026-05-03T12:17:10.164Z</time></trkpt><trkpt lat="43.4608283" lon="11.8181283"><ele>244.25</ele><time>2026-05-03T12:17:11.166Z</time></trkpt><trkpt lat="43.4608317" lon="11.8179783"><ele>244.5</ele><time>2026-05-03T12:17:12.164Z</time></trkpt><trkpt lat="43.460855" lon="11.81781"><ele>244.75</ele><time>2026-05-03T12:17:13.165Z</time></trkpt><trkpt lat="43.460885" lon="11.81763"><ele>245.0</ele><time>2026-05-03T12:17:14.164Z</time></trkpt><trkpt lat="43.4609167" lon="11.8174433"><ele>245.2</ele><time>2026-05-03T12:17:15.164Z</time></trkpt><trkpt lat="43.4609417" lon="11.81727"><ele>245.4</ele><time>2026-05-03T12:17:16.164Z</time></trkpt><trkpt lat="43.460955" lon="11.8171133"><ele>245.60000000000002</ele><time>2026-05-03T12:17:17.165Z</time></trkpt><trkpt lat="43.4609383" lon="11.8169783"><ele>245.8</ele><time>2026-05-03T12:17:18.164Z</time></trkpt><trkpt lat="43.460885" lon="11.8168733"><ele>246.0</ele><time>2026-05-03T12:17:19.164Z</time></trkpt><trkpt lat="43.4607967" lon="11.8167967"><ele>247.0</ele><time>2026-05-03T12:17:20.165Z</time></trkpt><trkpt lat="43.4606833" lon="11.8167267"><ele>248.0</ele><time>2026-05-03T12:17:21.164Z</time></trkpt><trkpt lat="43.4605683" lon="11.8166467"><ele>249.0</ele><time>2026-05-03T12:17:22.164Z</time></trkpt><trkpt lat="43.4604483" lon="11.8165383"><ele>250.0</ele><time>2026-05-03T12:17:23.166Z</time></trkpt><trkpt lat="43.46033" lon="11.8164133"><ele>250.0</ele><time>2026-05-03T12:17:24.164Z</time></trkpt><trkpt lat="43.4602267" lon="11.8162767"><ele>250.0</ele><time>2026-05-03T12:17:25.165Z</time></trkpt><trkpt lat="43.46013" lon="11.81614"><ele>250.0</ele><time>2026-05-03T12:17:26.165Z</time></trkpt><trkpt lat="43.460045" lon="11.8160017"><ele>250.0</ele><time>2026-05-03T12:17:27.164Z</time></trkpt><trkpt lat="43.4599683" lon="11.8158517"><ele>251.75</ele><time>2026-05-03T12:17:28.164Z</time></trkpt><trkpt lat="43.4599017" lon="11.81569"><ele>253.5</ele><time>2026-05-03T12:17:29.164Z</time></trkpt><trkpt lat="43.459855" lon="11.8155217"><ele>255.25</ele><time>2026-05-03T12:17:30.165Z</time></trkpt><trkpt lat="43.459825" lon="11.8153417"><ele>257.0</ele><time>2026-05-03T12:17:31.164Z</time></trkpt><trkpt lat="43.45982" lon="11.815155"><ele>258.0</ele><time>2026-05-03T12:17:32.161Z</time></trkpt><trkpt lat="43.4598317" lon="11.81496"><ele>259.0</ele><time>2026-05-03T12:17:33.166Z</time></trkpt><trkpt lat="43.4598617" lon="11.8147667"><ele>260.0</ele><time>2026-05-03T12:17:34.164Z</time></trkpt><trkpt lat="43.4599067" lon="11.8145733"><ele>261.0</ele><time>2026-05-03T12:17:35.164Z</time></trkpt><trkpt lat="43.45996" lon="11.81439"><ele>260.75</ele><time>2026-05-03T12:17:36.161Z</time></trkpt><trkpt lat="43.46002" lon="11.814225"><ele>260.5</ele><time>2026-05-03T12:17:37.162Z</time></trkpt><trkpt lat="43.46009" lon="11.8140667"><ele>260.25</ele><time>2026-05-03T12:17:38.165Z</time></trkpt><trkpt lat="43.4601583" lon="11.8139183"><ele>260.0</ele><time>2026-05-03T12:17:39.164Z</time></trkpt><trkpt lat="43.4602233" lon="11.813775"><ele>260.0</ele><time>2026-05-03T12:17:40.164Z</time></trkpt><trkpt lat="43.4602917" lon="11.81364"><ele>260.0</ele><time>2026-05-03T12:17:41.164Z</time></trkpt><trkpt lat="43.460355" lon="11.8135183"><ele>260.0</ele><time>2026-05-03T12:17:42.165Z</time></trkpt><trkpt lat="43.4604" lon="11.8134167"><ele>260.0</ele><time>2026-05-03T12:17:43.165Z</time></trkpt><trkpt lat="43.4604233" lon="11.813325"><ele>260.0</ele><time>2026-05-03T12:17:44.164Z</time></trkpt><trkpt lat="43.46038" lon="11.813185"><ele>259.8</ele><time>2026-05-03T12:17:46.165Z</time></trkpt><trkpt lat="43.46028" lon="11.8130917"><ele>259.6</ele><time>2026-05-03T12:17:48.165Z</time></trkpt><trkpt lat="43.4602367" lon="11.8130267"><ele>259.4</ele><time>2026-05-03T12:17:49.165Z</time></trkpt><trkpt lat="43.46024" lon="11.81286"><ele>259.2</ele><time>2026-05-03T12:17:51.164Z</time></trkpt><trkpt lat="43.4602783" lon="11.8127617"><ele>259.0</ele><time>2026-05-03T12:17:52.164Z</time></trkpt><trkpt lat="43.460335" lon="11.8126483"><ele>256.0</ele><time>2026-05-03T12:17:53.168Z</time></trkpt><trkpt lat="43.4603833" lon="11.8125267"><ele>256.0</ele><time>2026-05-03T12:17:54.166Z</time></trkpt><trkpt lat="43.4604317" lon="11.81242"><ele>256.0</ele><time>2026-05-03T12:17:55.165Z</time></trkpt><trkpt lat="43.4604517" lon="11.8123317"><ele>261.0</ele><time>2026-05-03T12:17:56.165Z</time></trkpt><trkpt lat="43.4604617" lon="11.8121883"><ele>261.0</ele><time>2026-05-03T12:17:58.166Z</time></trkpt><trkpt lat="43.460515" lon="11.812135"><ele>261.0</ele><time>2026-05-03T12:18:02.164Z</time></trkpt></trkseg></trk></gpx>